<?xml version='1.0' encoding='UTF-8'?><gpx version="1.1" creator="JPX - https://github.com/jenetics/jpx" xmlns="http://www.topografix.com/GPX/1/1"><trk><trkseg><trkpt lat="44.8370517" lon="-0.5736533"><ele>20.0</ele><time>2026-04-21T16:41:32.844Z</time></trkpt><trkpt lat="44.83702" lon="-0.5737567"><ele>20.0</ele><time>2026-04-21T16:42:29.844Z</time></trkpt><trkpt lat="44.8369583" lon="-0.573715"><ele>20.0</ele><time>2026-04-21T16:42:34.845Z</time></trkpt><trkpt lat="44.8369533" lon="-0.5736167"><ele>20.0</ele><time>2026-04-21T16:42:40.845Z</time></trkpt><trkpt lat="44.8369717" lon="-0.57352"><ele>20.0</ele><time>2026-04-21T16:42:44.845Z</time></trkpt><trkpt lat="44.8369833" lon="-0.5733933"><ele>20.0</ele><time>2026-04-21T16:42:47.845Z</time></trkpt><trkpt lat="44.8369783" lon="-0.5732833"><ele>20.0</ele><time>2026-04-21T16:42:49.845Z</time></trkpt><trkpt lat="44.8369833" lon="-0.5731767"><ele>20.0</ele><time>2026-04-21T16:42:51.845Z</time></trkpt><trkpt lat="44.836995" lon="-0.5730733"><ele>20.0</ele><time>2026-04-21T16:42:53.845Z</time></trkpt><trkpt lat="44.8369983" lon="-0.5729783"><ele>20.0</ele><time>2026-04-21T16:42:55.845Z</time></trkpt><trkpt lat="44.8370017" lon="-0.5728483"><ele>20.0</ele><time>2026-04-21T16:42:58.844Z</time></trkpt><trkpt lat="44.836985" lon="-0.5727567"><ele>20.0</ele><time>2026-04-21T16:43:01.845Z</time></trkpt><trkpt lat="44.83693" lon="-0.5726867"><ele>20.142857142857142</ele><time>2026-04-21T16:43:04.844Z</time></trkpt><trkpt lat="44.8368667" lon="-0.5726733"><ele>20.285714285714285</ele><time>2026-04-21T16:43:06.845Z</time></trkpt><trkpt lat="44.836795" lon="-0.5726533"><ele>20.42857142857143</ele><time>2026-04-21T16:43:08.845Z</time></trkpt><trkpt lat="44.836705" lon="-0.5726467"><ele>20.57142857142857</ele><time>2026-04-21T16:43:10.844Z</time></trkpt><trkpt lat="44.8366267" lon="-0.5726267"><ele>20.714285714285715</ele><time>2026-04-21T16:43:12.845Z</time></trkpt><trkpt lat="44.8365567" lon="-0.5726133"><ele>20.857142857142858</ele><time>2026-04-21T16:43:14.845Z</time></trkpt><trkpt lat="44.8364883" lon="-0.5726033"><ele>21.0</ele><time>2026-04-21T16:43:16.845Z</time></trkpt><trkpt lat="44.836415" lon="-0.5726067"><ele>21.0</ele><time>2026-04-21T16:43:18.845Z</time></trkpt><trkpt lat="44.8363367" lon="-0.57267"><ele>21.0</ele><time>2026-04-21T16:43:21.845Z</time></trkpt><trkpt lat="44.8362733" lon="-0.57274"><ele>21.0</ele><time>2026-04-21T16:43:23.845Z</time></trkpt><trkpt lat="44.8362017" lon="-0.5727967"><ele>21.0</ele><time>2026-04-21T16:43:25.845Z</time></trkpt><trkpt lat="44.836125" lon="-0.572825"><ele>21.0</ele><time>2026-04-21T16:43:27.845Z</time></trkpt><trkpt lat="44.8360433" lon="-0.5728417"><ele>21.0</ele><time>2026-04-21T16:43:29.845Z</time></trkpt><trkpt lat="44.8359633" lon="-0.5728267"><ele>20.8</ele><time>2026-04-21T16:43:31.844Z</time></trkpt><trkpt lat="44.8358833" lon="-0.5728167"><ele>20.6</ele><time>2026-04-21T16:43:33.845Z</time></trkpt><trkpt lat="44.83579" lon="-0.5728283"><ele>20.4</ele><time>2026-04-21T16:43:35.845Z</time></trkpt><trkpt lat="44.83569" lon="-0.5728267"><ele>20.2</ele><time>2026-04-21T16:43:37.845Z</time></trkpt><trkpt lat="44.83559" lon="-0.5728283"><ele>20.0</ele><time>2026-04-21T16:43:39.845Z</time></trkpt><trkpt lat="44.835495" lon="-0.572825"><ele>20.0</ele><time>2026-04-21T16:43:41.844Z</time></trkpt><trkpt lat="44.8354117" lon="-0.5728333"><ele>20.0</ele><time>2026-04-21T16:43:43.845Z</time></trkpt><trkpt lat="44.8353433" lon="-0.572825"><ele>20.0</ele><time>2026-04-21T16:43:45.845Z</time></trkpt><trkpt lat="44.8352533" lon="-0.5728167"><ele>20.0</ele><time>2026-04-21T16:43:48.845Z</time></trkpt><trkpt lat="44.8351883" lon="-0.5728033"><ele>20.0</ele><time>2026-04-21T16:43:51.844Z</time></trkpt><trkpt lat="44.8351217" lon="-0.5727833"><ele>20.0</ele><time>2026-04-21T16:43:55.845Z</time></trkpt><trkpt lat="44.8350483" lon="-0.5727867"><ele>19.5</ele><time>2026-04-21T16:44:00.845Z</time></trkpt><trkpt lat="44.8349933" lon="-0.572725"><ele>19.0</ele><time>2026-04-21T16:44:03.845Z</time></trkpt><trkpt lat="44.8349717" lon="-0.5725983"><ele>18.5</ele><time>2026-04-21T16:44:06.844Z</time></trkpt><trkpt lat="44.83498" lon="-0.5724817"><ele>18.0</ele><time>2026-04-21T16:44:08.845Z</time></trkpt><trkpt lat="44.8349967" lon="-0.5723733"><ele>17.5</ele><time>2026-04-21T16:44:10.845Z</time></trkpt><trkpt lat="44.83501" lon="-0.5722617"><ele>17.0</ele><time>2026-04-21T16:44:12.844Z</time></trkpt><trkpt lat="44.8350217" lon="-0.5721233"><ele>17.2</ele><time>2026-04-21T16:44:14.844Z</time></trkpt><trkpt lat="44.835045" lon="-0.5719517"><ele>17.4</ele><time>2026-04-21T16:44:16.845Z</time></trkpt><trkpt lat="44.8350533" lon="-0.5718633"><ele>17.6</ele><time>2026-04-21T16:44:17.845Z</time></trkpt><trkpt lat="44.8350617" lon="-0.5717717"><ele>17.8</ele><time>2026-04-21T16:44:18.845Z</time></trkpt><trkpt lat="44.83508" lon="-0.5716017"><ele>18.0</ele><time>2026-04-21T16:44:20.845Z</time></trkpt><trkpt lat="44.83507" lon="-0.5714383"><ele>18.0</ele><time>2026-04-21T16:44:22.845Z</time></trkpt><trkpt lat="44.8350617" lon="-0.5713383"><ele>18.0</ele><time>2026-04-21T16:44:23.845Z</time></trkpt><trkpt lat="44.8350533" lon="-0.5712183"><ele>18.0</ele><time>2026-04-21T16:44:24.844Z</time></trkpt><trkpt lat="44.83505" lon="-0.5711"><ele>18.0</ele><time>2026-04-21T16:44:25.845Z</time></trkpt><trkpt lat="44.8350633" lon="-0.5709733"><ele>18.0</ele><time>2026-04-21T16:44:26.845Z</time></trkpt><trkpt lat="44.8350783" lon="-0.5708517"><ele>18.0</ele><time>2026-04-21T16:44:27.845Z</time></trkpt><trkpt lat="44.8350967" lon="-0.57074"><ele>18.42857142857143</ele><time>2026-04-21T16:44:28.845Z</time></trkpt><trkpt lat="44.8351067" lon="-0.5706333"><ele>18.857142857142858</ele><time>2026-04-21T16:44:29.845Z</time></trkpt><trkpt lat="44.83512" lon="-0.5705267"><ele>19.285714285714285</ele><time>2026-04-21T16:44:30.845Z</time></trkpt><trkpt lat="44.8351367" lon="-0.5704267"><ele>19.714285714285715</ele><time>2026-04-21T16:44:31.845Z</time></trkpt><trkpt lat="44.835155" lon="-0.57033"><ele>20.142857142857142</ele><time>2026-04-21T16:44:32.845Z</time></trkpt><trkpt lat="44.8351717" lon="-0.5702267"><ele>20.571428571428573</ele><time>2026-04-21T16:44:33.845Z</time></trkpt><trkpt lat="44.8351867" lon="-0.5701283"><ele>21.0</ele><time>2026-04-21T16:44:34.844Z</time></trkpt><trkpt lat="44.8352067" lon="-0.5700267"><ele>21.142857142857142</ele><time>2026-04-21T16:44:35.845Z</time></trkpt><trkpt lat="44.83522" lon="-0.569925"><ele>21.285714285714285</ele><time>2026-04-21T16:44:36.845Z</time></trkpt><trkpt lat="44.83524" lon="-0.5698317"><ele>21.42857142857143</ele><time>2026-04-21T16:44:37.845Z</time></trkpt><trkpt lat="44.8352733" lon="-0.569745"><ele>21.57142857142857</ele><time>2026-04-21T16:44:38.845Z</time></trkpt><trkpt lat="44.835325" lon="-0.569625"><ele>21.714285714285715</ele><time>2026-04-21T16:44:39.845Z</time></trkpt><trkpt lat="44.8353467" lon="-0.56953"><ele>21.857142857142858</ele><time>2026-04-21T16:44:40.844Z</time></trkpt><trkpt lat="44.83537" lon="-0.5694467"><ele>22.0</ele><time>2026-04-21T16:44:41.845Z</time></trkpt><trkpt lat="44.83543" lon="-0.5692883"><ele>22.200000000000003</ele><time>2026-04-21T16:44:43.844Z</time></trkpt><trkpt lat="44.8354733" lon="-0.5691467"><ele>22.4</ele><time>2026-04-21T16:44:45.845Z</time></trkpt><trkpt lat="44.8354867" lon="-0.568985"><ele>22.6</ele><time>2026-04-21T16:44:47.844Z</time></trkpt><trkpt lat="44.8355" lon="-0.56889"><ele>22.799999999999997</ele><time>2026-04-21T16:44:48.845Z</time></trkpt><trkpt lat="44.8355383" lon="-0.5687333"><ele>23.0</ele><time>2026-04-21T16:44:50.844Z</time></trkpt><trkpt lat="44.83558" lon="-0.5685783"><ele>23.0</ele><time>2026-04-21T16:44:52.845Z</time></trkpt><trkpt lat="44.8356017" lon="-0.5684583"><ele>23.0</ele><time>2026-04-21T16:44:54.845Z</time></trkpt><trkpt lat="44.83565" lon="-0.5683483"><ele>23.0</ele><time>2026-04-21T16:44:56.845Z</time></trkpt><trkpt lat="44.8356967" lon="-0.568185"><ele>23.0</ele><time>2026-04-21T16:44:58.845Z</time></trkpt><trkpt lat="44.835725" lon="-0.5680233"><ele>23.0</ele><time>2026-04-21T16:45:00.844Z</time></trkpt><trkpt lat="44.8357733" lon="-0.5679217"><ele>22.2</ele><time>2026-04-21T16:45:01.844Z</time></trkpt><trkpt lat="44.8357983" lon="-0.5678217"><ele>21.4</ele><time>2026-04-21T16:45:02.845Z</time></trkpt><trkpt lat="44.835855" lon="-0.5676267"><ele>20.599999999999998</ele><time>2026-04-21T16:45:04.844Z</time></trkpt><trkpt lat="44.8358933" lon="-0.567525"><ele>19.799999999999997</ele><time>2026-04-21T16:45:05.844Z</time></trkpt><trkpt lat="44.835935" lon="-0.567415"><ele>19.0</ele><time>2026-04-21T16:45:06.845Z</time></trkpt><trkpt lat="44.8359717" lon="-0.56733"><ele>19.0</ele><time>2026-04-21T16:45:07.845Z</time></trkpt><trkpt lat="44.8360133" lon="-0.5672383"><ele>19.0</ele><time>2026-04-21T16:45:08.845Z</time></trkpt><trkpt lat="44.836085" lon="-0.5670867"><ele>19.0</ele><time>2026-04-21T16:45:10.845Z</time></trkpt><trkpt lat="44.8361233" lon="-0.5670083"><ele>19.0</ele><time>2026-04-21T16:45:11.845Z</time></trkpt><trkpt lat="44.8361817" lon="-0.566865"><ele>19.0</ele><time>2026-04-21T16:45:13.845Z</time></trkpt><trkpt lat="44.8362283" lon="-0.566715"><ele>18.333333333333332</ele><time>2026-04-21T16:45:15.845Z</time></trkpt><trkpt lat="44.8362633" lon="-0.5665767"><ele>17.666666666666664</ele><time>2026-04-21T16:45:17.845Z</time></trkpt><trkpt lat="44.83629" lon="-0.5664767"><ele>17.0</ele><time>2026-04-21T16:45:18.845Z</time></trkpt><trkpt lat="44.836325" lon="-0.5663967"><ele>16.333333333333332</ele><time>2026-04-21T16:45:19.844Z</time></trkpt><trkpt lat="44.8363683" lon="-0.5662783"><ele>15.666666666666666</ele><time>2026-04-21T16:45:21.845Z</time></trkpt><trkpt lat="44.8364067" lon="-0.566175"><ele>15.0</ele><time>2026-04-21T16:45:23.845Z</time></trkpt><trkpt lat="44.8364283" lon="-0.5660633"><ele>14.166666666666666</ele><time>2026-04-21T16:45:25.845Z</time></trkpt><trkpt lat="44.83644" lon="-0.5659467"><ele>13.333333333333334</ele><time>2026-04-21T16:45:27.844Z</time></trkpt><trkpt lat="44.8364633" lon="-0.5658333"><ele>12.5</ele><time>2026-04-21T16:45:29.845Z</time></trkpt><trkpt lat="44.836495" lon="-0.5657433"><ele>11.666666666666668</ele><time>2026-04-21T16:45:31.844Z</time></trkpt><trkpt lat="44.83654" lon="-0.5656417"><ele>10.833333333333334</ele><time>2026-04-21T16:45:34.845Z</time></trkpt><trkpt lat="44.8365983" lon="-0.5655567"><ele>10.0</ele><time>2026-04-21T16:45:37.844Z</time></trkpt><trkpt lat="44.836645" lon="-0.5654633"><ele>8.833333333333334</ele><time>2026-04-21T16:45:40.845Z</time></trkpt><trkpt lat="44.836695" lon="-0.56536"><ele>7.666666666666667</ele><time>2026-04-21T16:45:43.844Z</time></trkpt><trkpt lat="44.8367417" lon="-0.5652983"><ele>6.5</ele><time>2026-04-21T16:45:45.844Z</time></trkpt><trkpt lat="44.8368117" lon="-0.5652217"><ele>5.333333333333334</ele><time>2026-04-21T16:45:48.845Z</time></trkpt><trkpt lat="44.836875" lon="-0.5651783"><ele>4.166666666666667</ele><time>2026-04-21T16:45:51.845Z</time></trkpt><trkpt lat="44.8369333" lon="-0.56514"><ele>3.0</ele><time>2026-04-21T16:45:55.845Z</time></trkpt><trkpt lat="44.8370167" lon="-0.5651567"><ele>2.4</ele><time>2026-04-21T16:46:21.844Z</time></trkpt><trkpt lat="44.8370817" lon="-0.5651217"><ele>1.7999999999999998</ele><time>2026-04-21T16:46:25.844Z</time></trkpt><trkpt lat="44.83713" lon="-0.5650417"><ele>1.2</ele><time>2026-04-21T16:46:27.844Z</time></trkpt><trkpt lat="44.8371933" lon="-0.5649267"><ele>0.6</ele><time>2026-04-21T16:46:29.844Z</time></trkpt><trkpt lat="44.837265" lon="-0.5648167"><ele>0.0</ele><time>2026-04-21T16:46:31.844Z</time></trkpt><trkpt lat="44.8373383" lon="-0.5647017"><ele>0.0</ele><time>2026-04-21T16:46:33.844Z</time></trkpt><trkpt lat="44.8374033" lon="-0.5645917"><ele>0.0</ele><time>2026-04-21T16:46:35.843Z</time></trkpt><trkpt lat="44.837465" lon="-0.5644867"><ele>0.0</ele><time>2026-04-21T16:46:37.844Z</time></trkpt><trkpt lat="44.8375333" lon="-0.564375"><ele>0.0</ele><time>2026-04-21T16:46:39.844Z</time></trkpt><trkpt lat="44.8376" lon="-0.5642717"><ele>0.0</ele><time>2026-04-21T16:46:41.844Z</time></trkpt><trkpt lat="44.8376617" lon="-0.56418"><ele>0.0</ele><time>2026-04-21T16:46:43.844Z</time></trkpt><trkpt lat="44.8377167" lon="-0.5640833"><ele>0.0</ele><time>2026-04-21T16:46:45.843Z</time></trkpt><trkpt lat="44.83777" lon="-0.564"><ele>0.0</ele><time>2026-04-21T16:46:47.844Z</time></trkpt><trkpt lat="44.8378183" lon="-0.5639167"><ele>0.0</ele><time>2026-04-21T16:46:49.844Z</time></trkpt><trkpt lat="44.83786" lon="-0.5638383"><ele>0.0</ele><time>2026-04-21T16:46:51.844Z</time></trkpt><trkpt lat="44.83791" lon="-0.563765"><ele>0.0</ele><time>2026-04-21T16:46:53.844Z</time></trkpt><trkpt lat="44.8379783" lon="-0.56367"><ele>0.0</ele><time>2026-04-21T16:46:55.843Z</time></trkpt><trkpt lat="44.8380417" lon="-0.563545"><ele>0.0</ele><time>2026-04-21T16:46:57.844Z</time></trkpt><trkpt lat="44.83811" lon="-0.563435"><ele>0.0</ele><time>2026-04-21T16:46:59.844Z</time></trkpt><trkpt lat="44.83818" lon="-0.563325"><ele>0.0</ele><time>2026-04-21T16:47:01.843Z</time></trkpt><trkpt lat="44.8382483" lon="-0.56321"><ele>0.0</ele><time>2026-04-21T16:47:03.844Z</time></trkpt><trkpt lat="44.838315" lon="-0.563095"><ele>0.0</ele><time>2026-04-21T16:47:05.844Z</time></trkpt><trkpt lat="44.8383833" lon="-0.562975"><ele>0.0</ele><time>2026-04-21T16:47:07.844Z</time></trkpt><trkpt lat="44.8384533" lon="-0.5628633"><ele>0.0</ele><time>2026-04-21T16:47:09.844Z</time></trkpt><trkpt lat="44.8385217" lon="-0.5627533"><ele>0.0</ele><time>2026-04-21T16:47:11.844Z</time></trkpt><trkpt lat="44.8385883" lon="-0.5626517"><ele>0.0</ele><time>2026-04-21T16:47:13.844Z</time></trkpt><trkpt lat="44.838645" lon="-0.5625567"><ele>0.0</ele><time>2026-04-21T16:47:15.844Z</time></trkpt><trkpt lat="44.83871" lon="-0.562455"><ele>0.0</ele><time>2026-04-21T16:47:17.844Z</time></trkpt><trkpt lat="44.8387817" lon="-0.56235"><ele>0.0</ele><time>2026-04-21T16:47:19.843Z</time></trkpt><trkpt lat="44.83885" lon="-0.5622367"><ele>0.0</ele><time>2026-04-21T16:47:21.844Z</time></trkpt><trkpt lat="44.8389167" lon="-0.5621217"><ele>0.0</ele><time>2026-04-21T16:47:23.844Z</time></trkpt><trkpt lat="44.8389883" lon="-0.5620067"><ele>0.0</ele><time>2026-04-21T16:47:25.844Z</time></trkpt><trkpt lat="44.8390633" lon="-0.5618883"><ele>0.0</ele><time>2026-04-21T16:47:27.844Z</time></trkpt><trkpt lat="44.8391067" lon="-0.5618217"><ele>0.0</ele><time>2026-04-21T16:47:28.844Z</time></trkpt><trkpt lat="44.83915" lon="-0.5617517"><ele>0.0</ele><time>2026-04-21T16:47:29.844Z</time></trkpt><trkpt lat="44.8391933" lon="-0.561675"><ele>0.0</ele><time>2026-04-21T16:47:30.843Z</time></trkpt><trkpt lat="44.8392333" lon="-0.5616"><ele>0.0</ele><time>2026-04-21T16:47:31.844Z</time></trkpt><trkpt lat="44.8392767" lon="-0.5615283"><ele>0.0</ele><time>2026-04-21T16:47:32.844Z</time></trkpt><trkpt lat="44.8393217" lon="-0.5614533"><ele>0.14285714285714285</ele><time>2026-04-21T16:47:33.844Z</time></trkpt><trkpt lat="44.8393633" lon="-0.5613783"><ele>0.2857142857142857</ele><time>2026-04-21T16:47:34.844Z</time></trkpt><trkpt lat="44.8394117" lon="-0.5613083"><ele>0.42857142857142855</ele><time>2026-04-21T16:47:35.844Z</time></trkpt><trkpt lat="44.839455" lon="-0.56124"><ele>0.5714285714285714</ele><time>2026-04-21T16:47:36.844Z</time></trkpt><trkpt lat="44.8395" lon="-0.56117"><ele>0.7142857142857142</ele><time>2026-04-21T16:47:37.844Z</time></trkpt><trkpt lat="44.83954" lon="-0.5610983"><ele>0.8571428571428571</ele><time>2026-04-21T16:47:38.844Z</time></trkpt><trkpt lat="44.839585" lon="-0.5610283"><ele>1.0</ele><time>2026-04-21T16:47:39.844Z</time></trkpt><trkpt lat="44.8396567" lon="-0.5609083"><ele>2.0</ele><time>2026-04-21T16:47:41.844Z</time></trkpt><trkpt lat="44.8397233" lon="-0.5608"><ele>3.0</ele><time>2026-04-21T16:47:43.844Z</time></trkpt><trkpt lat="44.83979" lon="-0.5606933"><ele>3.9999999999999996</ele><time>2026-04-21T16:47:45.844Z</time></trkpt><trkpt lat="44.8398567" lon="-0.5605933"><ele>5.0</ele><time>2026-04-21T16:47:47.844Z</time></trkpt><trkpt lat="44.8399067" lon="-0.5605"><ele>6.0</ele><time>2026-04-21T16:47:49.843Z</time></trkpt><trkpt lat="44.8399667" lon="-0.5604267"><ele>6.0</ele><time>2026-04-21T16:47:51.843Z</time></trkpt><trkpt lat="44.8400567" lon="-0.5604033"><ele>6.0</ele><time>2026-04-21T16:47:53.844Z</time></trkpt><trkpt lat="44.8401183" lon="-0.5603417"><ele>6.0</ele><time>2026-04-21T16:47:55.844Z</time></trkpt><trkpt lat="44.8401133" lon="-0.5602217"><ele>6.0</ele><time>2026-04-21T16:47:58.844Z</time></trkpt><trkpt lat="44.8400383" lon="-0.5601517"><ele>6.0</ele><time>2026-04-21T16:48:01.844Z</time></trkpt><trkpt lat="44.8399717" lon="-0.5600683"><ele>6.0</ele><time>2026-04-21T16:48:04.843Z</time></trkpt><trkpt lat="44.839905" lon="-0.5600233"><ele>6.5</ele><time>2026-04-21T16:48:06.844Z</time></trkpt><trkpt lat="44.839795" lon="-0.56005"><ele>7.0</ele><time>2026-04-21T16:48:08.844Z</time></trkpt><trkpt lat="44.8396917" lon="-0.5599917"><ele>7.5</ele><time>2026-04-21T16:48:10.843Z</time></trkpt><trkpt lat="44.839605" lon="-0.5598983"><ele>8.0</ele><time>2026-04-21T16:48:12.844Z</time></trkpt><trkpt lat="44.8395117" lon="-0.5597817"><ele>7.999999999999999</ele><time>2026-04-21T16:48:14.844Z</time></trkpt><trkpt lat="44.8394667" lon="-0.559715"><ele>8.0</ele><time>2026-04-21T16:48:15.843Z</time></trkpt><trkpt lat="44.8393833" lon="-0.5596"><ele>8.0</ele><time>2026-04-21T16:48:17.844Z</time></trkpt><trkpt lat="44.83931" lon="-0.55953"><ele>8.0</ele><time>2026-04-21T16:48:19.844Z</time></trkpt><trkpt lat="44.839265" lon="-0.559435"><ele>7.999999999999999</ele><time>2026-04-21T16:48:21.844Z</time></trkpt><trkpt lat="44.8391983" lon="-0.5593533"><ele>8.0</ele><time>2026-04-21T16:48:23.844Z</time></trkpt><trkpt lat="44.8391317" lon="-0.55928"><ele>8.166666666666666</ele><time>2026-04-21T16:48:25.844Z</time></trkpt><trkpt lat="44.83906" lon="-0.5591883"><ele>8.333333333333332</ele><time>2026-04-21T16:48:27.844Z</time></trkpt><trkpt lat="44.8389983" lon="-0.55911"><ele>8.5</ele><time>2026-04-21T16:48:29.844Z</time></trkpt><trkpt lat="44.838935" lon="-0.559035"><ele>8.666666666666666</ele><time>2026-04-21T16:48:31.844Z</time></trkpt><trkpt lat="44.838875" lon="-0.5589567"><ele>8.833333333333334</ele><time>2026-04-21T16:48:34.844Z</time></trkpt><trkpt lat="44.8388283" lon="-0.5588933"><ele>9.0</ele><time>2026-04-21T16:48:38.843Z</time></trkpt><trkpt lat="44.83873" lon="-0.5588333"><ele>9.0</ele><time>2026-04-21T16:49:26.844Z</time></trkpt><trkpt lat="44.8386733" lon="-0.558765"><ele>9.0</ele><time>2026-04-21T16:49:29.843Z</time></trkpt><trkpt lat="44.8385767" lon="-0.5587617"><ele>9.0</ele><time>2026-04-21T16:49:32.843Z</time></trkpt><trkpt lat="44.8385133" lon="-0.5587367"><ele>9.0</ele><time>2026-04-21T16:49:34.843Z</time></trkpt><trkpt lat="44.8384633" lon="-0.5586567"><ele>9.0</ele><time>2026-04-21T16:49:36.844Z</time></trkpt><trkpt lat="44.83841" lon="-0.5585533"><ele>9.0</ele><time>2026-04-21T16:49:38.844Z</time></trkpt><trkpt lat="44.838335" lon="-0.5584633"><ele>7.5</ele><time>2026-04-21T16:49:40.843Z</time></trkpt><trkpt lat="44.8382567" lon="-0.55836"><ele>6.0</ele><time>2026-04-21T16:49:42.844Z</time></trkpt><trkpt lat="44.838175" lon="-0.558245"><ele>4.5</ele><time>2026-04-21T16:49:44.844Z</time></trkpt><trkpt lat="44.8380967" lon="-0.5581267"><ele>3.0</ele><time>2026-04-21T16:49:46.844Z</time></trkpt><trkpt lat="44.8380167" lon="-0.5579917"><ele>2.9999999999999996</ele><time>2026-04-21T16:49:48.843Z</time></trkpt><trkpt lat="44.8379733" lon="-0.5579267"><ele>3.0</ele><time>2026-04-21T16:49:49.844Z</time></trkpt><trkpt lat="44.8379267" lon="-0.55786"><ele>3.0</ele><time>2026-04-21T16:49:50.844Z</time></trkpt><trkpt lat="44.83788" lon="-0.55779"><ele>3.0</ele><time>2026-04-21T16:49:51.843Z</time></trkpt><trkpt lat="44.8378333" lon="-0.5577167"><ele>3.0</ele><time>2026-04-21T16:49:52.844Z</time></trkpt><trkpt lat="44.8377867" lon="-0.5576433"><ele>2.9999999999999996</ele><time>2026-04-21T16:49:53.844Z</time></trkpt><trkpt lat="44.8377433" lon="-0.5575783"><ele>3.0</ele><time>2026-04-21T16:49:54.844Z</time></trkpt><trkpt lat="44.8376767" lon="-0.557425"><ele>3.0</ele><time>2026-04-21T16:49:56.844Z</time></trkpt><trkpt lat="44.8375983" lon="-0.5572867"><ele>3.0</ele><time>2026-04-21T16:49:58.843Z</time></trkpt><trkpt lat="44.83753" lon="-0.5571433"><ele>3.0</ele><time>2026-04-21T16:50:00.843Z</time></trkpt><trkpt lat="44.8374817" lon="-0.5570767"><ele>3.0</ele><time>2026-04-21T16:50:01.844Z</time></trkpt><trkpt lat="44.83739" lon="-0.5569633"><ele>3.0</ele><time>2026-04-21T16:50:03.843Z</time></trkpt><trkpt lat="44.8372917" lon="-0.556845"><ele>2.9999999999999996</ele><time>2026-04-21T16:50:05.844Z</time></trkpt><trkpt lat="44.8372467" lon="-0.5567767"><ele>3.0</ele><time>2026-04-21T16:50:06.844Z</time></trkpt><trkpt lat="44.8372017" lon="-0.5567083"><ele>3.0</ele><time>2026-04-21T16:50:07.843Z</time></trkpt><trkpt lat="44.83716" lon="-0.55664"><ele>3.0</ele><time>2026-04-21T16:50:08.844Z</time></trkpt><trkpt lat="44.8371133" lon="-0.5565683"><ele>3.0</ele><time>2026-04-21T16:50:09.844Z</time></trkpt><trkpt lat="44.8370683" lon="-0.5564983"><ele>2.9999999999999996</ele><time>2026-04-21T16:50:10.844Z</time></trkpt><trkpt lat="44.8370233" lon="-0.5564317"><ele>3.0</ele><time>2026-04-21T16:50:11.844Z</time></trkpt><trkpt lat="44.8369817" lon="-0.5563567"><ele>3.0</ele><time>2026-04-21T16:50:12.843Z</time></trkpt><trkpt lat="44.8369367" lon="-0.5562867"><ele>3.0</ele><time>2026-04-21T16:50:13.844Z</time></trkpt><trkpt lat="44.8368483" lon="-0.5561467"><ele>3.0</ele><time>2026-04-21T16:50:15.843Z</time></trkpt><trkpt lat="44.8368083" lon="-0.556075"><ele>3.0</ele><time>2026-04-21T16:50:16.844Z</time></trkpt><trkpt lat="44.8367783" lon="-0.5559933"><ele>3.0</ele><time>2026-04-21T16:50:17.844Z</time></trkpt><trkpt lat="44.8366933" lon="-0.55587"><ele>3.0</ele><time>2026-04-21T16:50:19.844Z</time></trkpt><trkpt lat="44.8366517" lon="-0.5557967"><ele>3.0</ele><time>2026-04-21T16:50:20.843Z</time></trkpt><trkpt lat="44.8366133" lon="-0.5557183"><ele>3.0</ele><time>2026-04-21T16:50:21.844Z</time></trkpt><trkpt lat="44.836565" lon="-0.5556533"><ele>3.0</ele><time>2026-04-21T16:50:22.844Z</time></trkpt><trkpt lat="44.8365217" lon="-0.5555833"><ele>3.0</ele><time>2026-04-21T16:50:23.844Z</time></trkpt><trkpt lat="44.8364817" lon="-0.5555067"><ele>3.0</ele><time>2026-04-21T16:50:24.844Z</time></trkpt><trkpt lat="44.8364017" lon="-0.5553683"><ele>3.0</ele><time>2026-04-21T16:50:26.843Z</time></trkpt><trkpt lat="44.8363617" lon="-0.5552967"><ele>3.0</ele><time>2026-04-21T16:50:27.844Z</time></trkpt><trkpt lat="44.8363117" lon="-0.5552233"><ele>3.0</ele><time>2026-04-21T16:50:28.844Z</time></trkpt><trkpt lat="44.836265" lon="-0.5551583"><ele>3.0</ele><time>2026-04-21T16:50:29.844Z</time></trkpt><trkpt lat="44.83618" lon="-0.55503"><ele>3.0</ele><time>2026-04-21T16:50:31.844Z</time></trkpt><trkpt lat="44.8360967" lon="-0.554885"><ele>3.0</ele><time>2026-04-21T16:50:33.844Z</time></trkpt><trkpt lat="44.836005" lon="-0.5547583"><ele>3.0</ele><time>2026-04-21T16:50:35.843Z</time></trkpt><trkpt lat="44.835955" lon="-0.55469"><ele>3.0</ele><time>2026-04-21T16:50:36.844Z</time></trkpt><trkpt lat="44.83591" lon="-0.554615"><ele>3.0</ele><time>2026-04-21T16:50:37.844Z</time></trkpt><trkpt lat="44.8358583" lon="-0.55455"><ele>3.0</ele><time>2026-04-21T16:50:38.844Z</time></trkpt><trkpt lat="44.835815" lon="-0.55448"><ele>3.0</ele><time>2026-04-21T16:50:39.844Z</time></trkpt><trkpt lat="44.8357717" lon="-0.5544"><ele>3.3333333333333335</ele><time>2026-04-21T16:50:40.844Z</time></trkpt><trkpt lat="44.8357333" lon="-0.554325"><ele>3.666666666666667</ele><time>2026-04-21T16:50:41.843Z</time></trkpt><trkpt lat="44.8356983" lon="-0.5542483"><ele>4.0</ele><time>2026-04-21T16:50:42.844Z</time></trkpt><trkpt lat="44.8356633" lon="-0.5541683"><ele>4.333333333333334</ele><time>2026-04-21T16:50:43.844Z</time></trkpt><trkpt lat="44.83559" lon="-0.5540233"><ele>4.666666666666667</ele><time>2026-04-21T16:50:45.844Z</time></trkpt><trkpt lat="44.8355483" lon="-0.5539567"><ele>5.0</ele><time>2026-04-21T16:50:46.844Z</time></trkpt><trkpt lat="44.8354767" lon="-0.5538317"><ele>5.0</ele><time>2026-04-21T16:50:48.844Z</time></trkpt><trkpt lat="44.8354117" lon="-0.5537233"><ele>5.0</ele><time>2026-04-21T16:50:50.843Z</time></trkpt><trkpt lat="44.8353467" lon="-0.55361"><ele>5.0</ele><time>2026-04-21T16:50:52.843Z</time></trkpt><trkpt lat="44.835275" lon="-0.553495"><ele>5.0</ele><time>2026-04-21T16:50:54.843Z</time></trkpt><trkpt lat="44.83521" lon="-0.5533717"><ele>5.0</ele><time>2026-04-21T16:50:56.843Z</time></trkpt><trkpt lat="44.8351433" lon="-0.55325"><ele>4.8</ele><time>2026-04-21T16:50:58.842Z</time></trkpt><trkpt lat="44.835075" lon="-0.5531317"><ele>4.6</ele><time>2026-04-21T16:51:00.843Z</time></trkpt><trkpt lat="44.8350083" lon="-0.5530083"><ele>4.4</ele><time>2026-04-21T16:51:02.843Z</time></trkpt><trkpt lat="44.83495" lon="-0.55288"><ele>4.2</ele><time>2026-04-21T16:51:04.843Z</time></trkpt><trkpt lat="44.83489" lon="-0.5527633"><ele>4.0</ele><time>2026-04-21T16:51:06.843Z</time></trkpt><trkpt lat="44.8348233" lon="-0.5526517"><ele>4.0</ele><time>2026-04-21T16:51:08.842Z</time></trkpt><trkpt lat="44.83476" lon="-0.5525217"><ele>4.0</ele><time>2026-04-21T16:51:10.843Z</time></trkpt><trkpt lat="44.8347" lon="-0.552385"><ele>4.0</ele><time>2026-04-21T16:51:12.843Z</time></trkpt><trkpt lat="44.834625" lon="-0.552255"><ele>4.0</ele><time>2026-04-21T16:51:14.843Z</time></trkpt><trkpt lat="44.834555" lon="-0.5521233"><ele>4.4</ele><time>2026-04-21T16:51:16.843Z</time></trkpt><trkpt lat="44.834495" lon="-0.55199"><ele>4.800000000000001</ele><time>2026-04-21T16:51:18.843Z</time></trkpt><trkpt lat="44.83445" lon="-0.5518633"><ele>5.199999999999999</ele><time>2026-04-21T16:51:20.843Z</time></trkpt><trkpt lat="44.8343783" lon="-0.5517517"><ele>5.6</ele><time>2026-04-21T16:51:22.843Z</time></trkpt><trkpt lat="44.8343133" lon="-0.5516217"><ele>6.0</ele><time>2026-04-21T16:51:24.843Z</time></trkpt><trkpt lat="44.8342733" lon="-0.55155"><ele>5.8</ele><time>2026-04-21T16:51:25.843Z</time></trkpt><trkpt lat="44.8342317" lon="-0.5514817"><ele>5.6</ele><time>2026-04-21T16:51:26.843Z</time></trkpt><trkpt lat="44.834155" lon="-0.5513567"><ele>5.4</ele><time>2026-04-21T16:51:28.842Z</time></trkpt><trkpt lat="44.8340917" lon="-0.5512233"><ele>5.2</ele><time>2026-04-21T16:51:30.843Z</time></trkpt><trkpt lat="44.8340233" lon="-0.5510917"><ele>5.0</ele><time>2026-04-21T16:51:32.843Z</time></trkpt><trkpt lat="44.8339633" lon="-0.5509533"><ele>5.0</ele><time>2026-04-21T16:51:34.843Z</time></trkpt><trkpt lat="44.8338983" lon="-0.550845"><ele>5.0</ele><time>2026-04-21T16:51:36.842Z</time></trkpt><trkpt lat="44.833845" lon="-0.5507433"><ele>5.0</ele><time>2026-04-21T16:51:38.843Z</time></trkpt><trkpt lat="44.83379" lon="-0.55064"><ele>5.0</ele><time>2026-04-21T16:51:40.842Z</time></trkpt><trkpt lat="44.833735" lon="-0.5505417"><ele>5.0</ele><time>2026-04-21T16:51:42.843Z</time></trkpt><trkpt lat="44.8336733" lon="-0.55047"><ele>5.0</ele><time>2026-04-21T16:51:44.843Z</time></trkpt><trkpt lat="44.83363" lon="-0.5503983"><ele>5.0</ele><time>2026-04-21T16:51:46.843Z</time></trkpt><trkpt lat="44.8335817" lon="-0.550295"><ele>5.0</ele><time>2026-04-21T16:51:48.842Z</time></trkpt><trkpt lat="44.8335283" lon="-0.550145"><ele>5.0</ele><time>2026-04-21T16:51:50.843Z</time></trkpt><trkpt lat="44.83349" lon="-0.5500717"><ele>5.0</ele><time>2026-04-21T16:51:51.842Z</time></trkpt><trkpt lat="44.83345" lon="-0.5500017"><ele>5.0</ele><time>2026-04-21T16:51:52.842Z</time></trkpt><trkpt lat="44.8334117" lon="-0.549925"><ele>5.0</ele><time>2026-04-21T16:51:53.843Z</time></trkpt><trkpt lat="44.8333817" lon="-0.5498383"><ele>5.0</ele><time>2026-04-21T16:51:54.843Z</time></trkpt><trkpt lat="44.8333567" lon="-0.549745"><ele>5.0</ele><time>2026-04-21T16:51:55.843Z</time></trkpt><trkpt lat="44.83332" lon="-0.5496517"><ele>5.0</ele><time>2026-04-21T16:51:56.843Z</time></trkpt><trkpt lat="44.833285" lon="-0.5495667"><ele>5.0</ele><time>2026-04-21T16:51:57.843Z</time></trkpt><trkpt lat="44.833245" lon="-0.5494867"><ele>5.0</ele><time>2026-04-21T16:51:58.843Z</time></trkpt><trkpt lat="44.8332033" lon="-0.5494117"><ele>5.0</ele><time>2026-04-21T16:51:59.842Z</time></trkpt><trkpt lat="44.8331533" lon="-0.5493367"><ele>5.0</ele><time>2026-04-21T16:52:00.843Z</time></trkpt><trkpt lat="44.833105" lon="-0.54926"><ele>5.0</ele><time>2026-04-21T16:52:01.843Z</time></trkpt><trkpt lat="44.8330617" lon="-0.5491833"><ele>5.0</ele><time>2026-04-21T16:52:02.843Z</time></trkpt><trkpt lat="44.8330233" lon="-0.5491017"><ele>5.0</ele><time>2026-04-21T16:52:03.842Z</time></trkpt><trkpt lat="44.83298" lon="-0.5490317"><ele>5.0</ele><time>2026-04-21T16:52:04.843Z</time></trkpt><trkpt lat="44.83294" lon="-0.5489583"><ele>5.0</ele><time>2026-04-21T16:52:05.843Z</time></trkpt><trkpt lat="44.8328983" lon="-0.5488767"><ele>5.0</ele><time>2026-04-21T16:52:06.842Z</time></trkpt><trkpt lat="44.832855" lon="-0.548805"><ele>5.0</ele><time>2026-04-21T16:52:07.843Z</time></trkpt><trkpt lat="44.832815" lon="-0.548725"><ele>5.0</ele><time>2026-04-21T16:52:08.843Z</time></trkpt><trkpt lat="44.8327717" lon="-0.5486433"><ele>5.0</ele><time>2026-04-21T16:52:09.843Z</time></trkpt><trkpt lat="44.8327333" lon="-0.54857"><ele>5.0</ele><time>2026-04-21T16:52:10.843Z</time></trkpt><trkpt lat="44.832665" lon="-0.5484167"><ele>5.0</ele><time>2026-04-21T16:52:12.843Z</time></trkpt><trkpt lat="44.8326283" lon="-0.54834"><ele>5.0</ele><time>2026-04-21T16:52:13.842Z</time></trkpt><trkpt lat="44.8325867" lon="-0.5482633"><ele>4.857142857142857</ele><time>2026-04-21T16:52:14.843Z</time></trkpt><trkpt lat="44.8325483" lon="-0.5481883"><ele>4.714285714285714</ele><time>2026-04-21T16:52:15.843Z</time></trkpt><trkpt lat="44.83251" lon="-0.5481033"><ele>4.571428571428571</ele><time>2026-04-21T16:52:16.842Z</time></trkpt><trkpt lat="44.8324783" lon="-0.5480233"><ele>4.428571428571429</ele><time>2026-04-21T16:52:17.843Z</time></trkpt><trkpt lat="44.8324383" lon="-0.5479467"><ele>4.285714285714286</ele><time>2026-04-21T16:52:18.843Z</time></trkpt><trkpt lat="44.8324" lon="-0.5478667"><ele>4.142857142857142</ele><time>2026-04-21T16:52:19.843Z</time></trkpt><trkpt lat="44.83236" lon="-0.5477933"><ele>4.0</ele><time>2026-04-21T16:52:20.843Z</time></trkpt><trkpt lat="44.8323167" lon="-0.547715"><ele>3.9999999999999996</ele><time>2026-04-21T16:52:21.843Z</time></trkpt><trkpt lat="44.832275" lon="-0.5476283"><ele>4.0</ele><time>2026-04-21T16:52:22.842Z</time></trkpt><trkpt lat="44.8322317" lon="-0.5475433"><ele>4.0</ele><time>2026-04-21T16:52:23.843Z</time></trkpt><trkpt lat="44.8321867" lon="-0.5474583"><ele>4.0</ele><time>2026-04-21T16:52:24.843Z</time></trkpt><trkpt lat="44.83214" lon="-0.54737"><ele>3.9999999999999996</ele><time>2026-04-21T16:52:25.843Z</time></trkpt><trkpt lat="44.8320933" lon="-0.5472867"><ele>4.0</ele><time>2026-04-21T16:52:26.843Z</time></trkpt><trkpt lat="44.8320567" lon="-0.5471983"><ele>4.0</ele><time>2026-04-21T16:52:27.843Z</time></trkpt><trkpt lat="44.8320167" lon="-0.547115"><ele>3.9999999999999996</ele><time>2026-04-21T16:52:28.842Z</time></trkpt><trkpt lat="44.831975" lon="-0.54703"><ele>4.0</ele><time>2026-04-21T16:52:29.843Z</time></trkpt><trkpt lat="44.8319317" lon="-0.5469467"><ele>4.0</ele><time>2026-04-21T16:52:30.843Z</time></trkpt><trkpt lat="44.8318833" lon="-0.54687"><ele>3.9999999999999996</ele><time>2026-04-21T16:52:31.843Z</time></trkpt><trkpt lat="44.831835" lon="-0.54679"><ele>4.0</ele><time>2026-04-21T16:52:32.842Z</time></trkpt><trkpt lat="44.8317867" lon="-0.54671"><ele>4.0</ele><time>2026-04-21T16:52:33.842Z</time></trkpt><trkpt lat="44.8317433" lon="-0.5466317"><ele>4.142857142857142</ele><time>2026-04-21T16:52:34.843Z</time></trkpt><trkpt lat="44.8317017" lon="-0.5465483"><ele>4.285714285714286</ele><time>2026-04-21T16:52:35.843Z</time></trkpt><trkpt lat="44.8316617" lon="-0.5464633"><ele>4.428571428571429</ele><time>2026-04-21T16:52:36.843Z</time></trkpt><trkpt lat="44.8316267" lon="-0.54638"><ele>4.571428571428571</ele><time>2026-04-21T16:52:37.843Z</time></trkpt><trkpt lat="44.8315767" lon="-0.546305"><ele>4.714285714285714</ele><time>2026-04-21T16:52:38.842Z</time></trkpt><trkpt lat="44.8315333" lon="-0.546225"><ele>4.857142857142857</ele><time>2026-04-21T16:52:39.842Z</time></trkpt><trkpt lat="44.8314883" lon="-0.546155"><ele>5.0</ele><time>2026-04-21T16:52:40.843Z</time></trkpt><trkpt lat="44.8314167" lon="-0.5460067"><ele>5.0</ele><time>2026-04-21T16:52:42.843Z</time></trkpt><trkpt lat="44.8313867" lon="-0.5459217"><ele>5.0</ele><time>2026-04-21T16:52:43.843Z</time></trkpt><trkpt lat="44.8313433" lon="-0.545845"><ele>5.0</ele><time>2026-04-21T16:52:44.843Z</time></trkpt><trkpt lat="44.831305" lon="-0.545765"><ele>5.0</ele><time>2026-04-21T16:52:45.843Z</time></trkpt><trkpt lat="44.83126" lon="-0.545695"><ele>5.0</ele><time>2026-04-21T16:52:46.843Z</time></trkpt><trkpt lat="44.83122" lon="-0.5456217"><ele>5.0</ele><time>2026-04-21T16:52:47.843Z</time></trkpt><trkpt lat="44.8311817" lon="-0.5455417"><ele>5.0</ele><time>2026-04-21T16:52:48.843Z</time></trkpt><trkpt lat="44.8311417" lon="-0.5454633"><ele>5.0</ele><time>2026-04-21T16:52:49.843Z</time></trkpt><trkpt lat="44.8311" lon="-0.5453867"><ele>5.0</ele><time>2026-04-21T16:52:50.843Z</time></trkpt><trkpt lat="44.8310683" lon="-0.5452967"><ele>5.0</ele><time>2026-04-21T16:52:51.843Z</time></trkpt><trkpt lat="44.8310333" lon="-0.545215"><ele>5.0</ele><time>2026-04-21T16:52:52.842Z</time></trkpt><trkpt lat="44.830995" lon="-0.5451383"><ele>5.0</ele><time>2026-04-21T16:52:53.843Z</time></trkpt><trkpt lat="44.8309517" lon="-0.5450633"><ele>5.0</ele><time>2026-04-21T16:52:54.843Z</time></trkpt><trkpt lat="44.8308767" lon="-0.544915"><ele>4.857142857142857</ele><time>2026-04-21T16:52:56.843Z</time></trkpt><trkpt lat="44.8308333" lon="-0.5448417"><ele>4.714285714285714</ele><time>2026-04-21T16:52:57.843Z</time></trkpt><trkpt lat="44.8307917" lon="-0.544765"><ele>4.571428571428571</ele><time>2026-04-21T16:52:58.843Z</time></trkpt><trkpt lat="44.8307467" lon="-0.5446883"><ele>4.428571428571429</ele><time>2026-04-21T16:52:59.843Z</time></trkpt><trkpt lat="44.8306983" lon="-0.5446117"><ele>4.285714285714286</ele><time>2026-04-21T16:53:00.843Z</time></trkpt><trkpt lat="44.8306567" lon="-0.5445333"><ele>4.142857142857142</ele><time>2026-04-21T16:53:01.842Z</time></trkpt><trkpt lat="44.8306133" lon="-0.5444583"><ele>4.0</ele><time>2026-04-21T16:53:02.842Z</time></trkpt><trkpt lat="44.8305717" lon="-0.5443833"><ele>4.0</ele><time>2026-04-21T16:53:03.843Z</time></trkpt><trkpt lat="44.8305267" lon="-0.5443033"><ele>3.9999999999999996</ele><time>2026-04-21T16:53:04.843Z</time></trkpt><trkpt lat="44.8304833" lon="-0.5442233"><ele>4.0</ele><time>2026-04-21T16:53:05.843Z</time></trkpt><trkpt lat="44.83045" lon="-0.5441417"><ele>4.0</ele><time>2026-04-21T16:53:06.843Z</time></trkpt><trkpt lat="44.8304067" lon="-0.5440617"><ele>3.9999999999999996</ele><time>2026-04-21T16:53:07.842Z</time></trkpt><trkpt lat="44.8303683" lon="-0.5439833"><ele>4.0</ele><time>2026-04-21T16:53:08.843Z</time></trkpt><trkpt lat="44.8303283" lon="-0.5439133"><ele>4.0</ele><time>2026-04-21T16:53:09.842Z</time></trkpt><trkpt lat="44.830285" lon="-0.5438367"><ele>4.0</ele><time>2026-04-21T16:53:10.843Z</time></trkpt><trkpt lat="44.8302467" lon="-0.543755"><ele>3.9999999999999996</ele><time>2026-04-21T16:53:11.842Z</time></trkpt><trkpt lat="44.830205" lon="-0.5436817"><ele>4.0</ele><time>2026-04-21T16:53:12.842Z</time></trkpt><trkpt lat="44.8301617" lon="-0.543605"><ele>4.0</ele><time>2026-04-21T16:53:13.843Z</time></trkpt><trkpt lat="44.830115" lon="-0.54353"><ele>3.9999999999999996</ele><time>2026-04-21T16:53:14.843Z</time></trkpt><trkpt lat="44.8300717" lon="-0.5434533"><ele>4.0</ele><time>2026-04-21T16:53:15.842Z</time></trkpt><trkpt lat="44.8300283" lon="-0.5433733"><ele>4.0</ele><time>2026-04-21T16:53:16.843Z</time></trkpt><trkpt lat="44.829985" lon="-0.5432983"><ele>3.9999999999999996</ele><time>2026-04-21T16:53:17.843Z</time></trkpt><trkpt lat="44.8299467" lon="-0.543215"><ele>4.0</ele><time>2026-04-21T16:53:18.843Z</time></trkpt><trkpt lat="44.8299117" lon="-0.5431367"><ele>4.0</ele><time>2026-04-21T16:53:19.843Z</time></trkpt><trkpt lat="44.8298767" lon="-0.5430583"><ele>4.0</ele><time>2026-04-21T16:53:20.842Z</time></trkpt><trkpt lat="44.8297983" lon="-0.5429133"><ele>3.9999999999999996</ele><time>2026-04-21T16:53:22.843Z</time></trkpt><trkpt lat="44.8297517" lon="-0.5428333"><ele>4.0</ele><time>2026-04-21T16:53:23.843Z</time></trkpt><trkpt lat="44.8297067" lon="-0.5427583"><ele>4.0</ele><time>2026-04-21T16:53:24.843Z</time></trkpt><trkpt lat="44.8296683" lon="-0.5426817"><ele>3.9999999999999996</ele><time>2026-04-21T16:53:25.843Z</time></trkpt><trkpt lat="44.82963" lon="-0.5426067"><ele>4.0</ele><time>2026-04-21T16:53:26.843Z</time></trkpt><trkpt lat="44.82959" lon="-0.54253"><ele>4.0</ele><time>2026-04-21T16:53:27.843Z</time></trkpt><trkpt lat="44.8295467" lon="-0.5424533"><ele>3.9999999999999996</ele><time>2026-04-21T16:53:28.843Z</time></trkpt><trkpt lat="44.82951" lon="-0.5423767"><ele>4.0</ele><time>2026-04-21T16:53:29.842Z</time></trkpt><trkpt lat="44.8294733" lon="-0.5423"><ele>4.0</ele><time>2026-04-21T16:53:30.843Z</time></trkpt><trkpt lat="44.82943" lon="-0.5422233"><ele>4.0</ele><time>2026-04-21T16:53:31.843Z</time></trkpt><trkpt lat="44.82939" lon="-0.5421417"><ele>3.9999999999999996</ele><time>2026-04-21T16:53:32.842Z</time></trkpt><trkpt lat="44.82935" lon="-0.5420667"><ele>4.0</ele><time>2026-04-21T16:53:33.843Z</time></trkpt><trkpt lat="44.82931" lon="-0.5419883"><ele>4.0</ele><time>2026-04-21T16:53:34.843Z</time></trkpt><trkpt lat="44.8292683" lon="-0.5419067"><ele>3.9999999999999996</ele><time>2026-04-21T16:53:35.843Z</time></trkpt><trkpt lat="44.8292233" lon="-0.5418317"><ele>4.0</ele><time>2026-04-21T16:53:36.843Z</time></trkpt><trkpt lat="44.8291783" lon="-0.5417517"><ele>4.0</ele><time>2026-04-21T16:53:37.843Z</time></trkpt><trkpt lat="44.8291367" lon="-0.541675"><ele>4.0</ele><time>2026-04-21T16:53:38.842Z</time></trkpt><trkpt lat="44.829095" lon="-0.5415983"><ele>3.9999999999999996</ele><time>2026-04-21T16:53:39.842Z</time></trkpt><trkpt lat="44.8290567" lon="-0.5415233"><ele>4.0</ele><time>2026-04-21T16:53:40.842Z</time></trkpt><trkpt lat="44.829005" lon="-0.5414483"><ele>4.0</ele><time>2026-04-21T16:53:41.842Z</time></trkpt><trkpt lat="44.828955" lon="-0.5413783"><ele>3.9999999999999996</ele><time>2026-04-21T16:53:42.842Z</time></trkpt><trkpt lat="44.82891" lon="-0.5412983"><ele>4.0</ele><time>2026-04-21T16:53:43.842Z</time></trkpt><trkpt lat="44.82887" lon="-0.5412233"><ele>4.0</ele><time>2026-04-21T16:53:44.843Z</time></trkpt><trkpt lat="44.8288283" lon="-0.5411533"><ele>4.0</ele><time>2026-04-21T16:53:45.843Z</time></trkpt><trkpt lat="44.828785" lon="-0.54108"><ele>3.9999999999999996</ele><time>2026-04-21T16:53:46.843Z</time></trkpt><trkpt lat="44.8287417" lon="-0.5410083"><ele>4.0</ele><time>2026-04-21T16:53:47.842Z</time></trkpt><trkpt lat="44.8287" lon="-0.540935"><ele>4.0</ele><time>2026-04-21T16:53:48.843Z</time></trkpt><trkpt lat="44.8286533" lon="-0.54085"><ele>3.9999999999999996</ele><time>2026-04-21T16:53:49.843Z</time></trkpt><trkpt lat="44.8286083" lon="-0.5407783"><ele>4.0</ele><time>2026-04-21T16:53:50.843Z</time></trkpt><trkpt lat="44.8285617" lon="-0.5407017"><ele>4.0</ele><time>2026-04-21T16:53:51.842Z</time></trkpt><trkpt lat="44.8285167" lon="-0.5406283"><ele>3.8571428571428568</ele><time>2026-04-21T16:53:52.843Z</time></trkpt><trkpt lat="44.8284733" lon="-0.5405533"><ele>3.714285714285714</ele><time>2026-04-21T16:53:53.842Z</time></trkpt><trkpt lat="44.82843" lon="-0.5404833"><ele>3.571428571428571</ele><time>2026-04-21T16:53:54.843Z</time></trkpt><trkpt lat="44.8283783" lon="-0.5404183"><ele>3.4285714285714284</ele><time>2026-04-21T16:53:55.843Z</time></trkpt><trkpt lat="44.8283317" lon="-0.54035"><ele>3.2857142857142856</ele><time>2026-04-21T16:53:56.843Z</time></trkpt><trkpt lat="44.8282833" lon="-0.5402767"><ele>3.1428571428571423</ele><time>2026-04-21T16:53:57.843Z</time></trkpt><trkpt lat="44.82824" lon="-0.5401983"><ele>3.0</ele><time>2026-04-21T16:53:58.842Z</time></trkpt><trkpt lat="44.8281967" lon="-0.5401167"><ele>2.9999999999999996</ele><time>2026-04-21T16:53:59.842Z</time></trkpt><trkpt lat="44.8281517" lon="-0.5400467"><ele>3.0</ele><time>2026-04-21T16:54:00.843Z</time></trkpt><trkpt lat="44.828105" lon="-0.5399733"><ele>3.0</ele><time>2026-04-21T16:54:01.843Z</time></trkpt><trkpt lat="44.828065" lon="-0.5398983"><ele>3.0</ele><time>2026-04-21T16:54:02.843Z</time></trkpt><trkpt lat="44.8280233" lon="-0.53982"><ele>3.0</ele><time>2026-04-21T16:54:03.842Z</time></trkpt><trkpt lat="44.8279883" lon="-0.53973"><ele>2.9999999999999996</ele><time>2026-04-21T16:54:04.843Z</time></trkpt><trkpt lat="44.82795" lon="-0.5396417"><ele>3.0</ele><time>2026-04-21T16:54:05.843Z</time></trkpt><trkpt lat="44.8279083" lon="-0.5395633"><ele>2.8571428571428568</ele><time>2026-04-21T16:54:06.843Z</time></trkpt><trkpt lat="44.827855" lon="-0.5394883"><ele>2.7142857142857144</ele><time>2026-04-21T16:54:07.843Z</time></trkpt><trkpt lat="44.82781" lon="-0.539415"><ele>2.571428571428571</ele><time>2026-04-21T16:54:08.843Z</time></trkpt><trkpt lat="44.8277667" lon="-0.5393317"><ele>2.4285714285714284</ele><time>2026-04-21T16:54:09.843Z</time></trkpt><trkpt lat="44.827725" lon="-0.5392533"><ele>2.2857142857142856</ele><time>2026-04-21T16:54:10.843Z</time></trkpt><trkpt lat="44.8276767" lon="-0.5391833"><ele>2.142857142857143</ele><time>2026-04-21T16:54:11.842Z</time></trkpt><trkpt lat="44.8276367" lon="-0.5391067"><ele>2.0</ele><time>2026-04-21T16:54:12.843Z</time></trkpt><trkpt lat="44.8275933" lon="-0.5390283"><ele>1.9999999999999998</ele><time>2026-04-21T16:54:13.843Z</time></trkpt><trkpt lat="44.827515" lon="-0.538885"><ele>2.0</ele><time>2026-04-21T16:54:15.842Z</time></trkpt><trkpt lat="44.8274667" lon="-0.5388217"><ele>2.0</ele><time>2026-04-21T16:54:16.843Z</time></trkpt><trkpt lat="44.82742" lon="-0.53876"><ele>2.0</ele><time>2026-04-21T16:54:17.843Z</time></trkpt><trkpt lat="44.827375" lon="-0.53869"><ele>1.9999999999999998</ele><time>2026-04-21T16:54:18.843Z</time></trkpt><trkpt lat="44.8273283" lon="-0.538625"><ele>2.0</ele><time>2026-04-21T16:54:19.843Z</time></trkpt><trkpt lat="44.82728" lon="-0.53855"><ele>2.2857142857142856</ele><time>2026-04-21T16:54:20.843Z</time></trkpt><trkpt lat="44.8272317" lon="-0.5384817"><ele>2.571428571428571</ele><time>2026-04-21T16:54:21.842Z</time></trkpt><trkpt lat="44.8271817" lon="-0.5384117"><ele>2.8571428571428568</ele><time>2026-04-21T16:54:22.843Z</time></trkpt><trkpt lat="44.8271317" lon="-0.5383467"><ele>3.142857142857143</ele><time>2026-04-21T16:54:23.843Z</time></trkpt><trkpt lat="44.8270833" lon="-0.5382767"><ele>3.428571428571428</ele><time>2026-04-21T16:54:24.843Z</time></trkpt><trkpt lat="44.8270367" lon="-0.5382067"><ele>3.714285714285714</ele><time>2026-04-21T16:54:25.843Z</time></trkpt><trkpt lat="44.8269933" lon="-0.5381367"><ele>4.0</ele><time>2026-04-21T16:54:26.843Z</time></trkpt><trkpt lat="44.8269467" lon="-0.5380667"><ele>4.0</ele><time>2026-04-21T16:54:27.842Z</time></trkpt><trkpt lat="44.8269033" lon="-0.5379967"><ele>3.9999999999999996</ele><time>2026-04-21T16:54:28.843Z</time></trkpt><trkpt lat="44.8268583" lon="-0.5379267"><ele>4.0</ele><time>2026-04-21T16:54:29.843Z</time></trkpt><trkpt lat="44.82681" lon="-0.5378617"><ele>4.0</ele><time>2026-04-21T16:54:30.842Z</time></trkpt><trkpt lat="44.8267617" lon="-0.5377967"><ele>3.9999999999999996</ele><time>2026-04-21T16:54:31.843Z</time></trkpt><trkpt lat="44.8267133" lon="-0.5377267"><ele>4.0</ele><time>2026-04-21T16:54:32.843Z</time></trkpt><trkpt lat="44.8266667" lon="-0.537645"><ele>4.0</ele><time>2026-04-21T16:54:33.843Z</time></trkpt><trkpt lat="44.8266217" lon="-0.53758"><ele>3.8000000000000003</ele><time>2026-04-21T16:54:34.843Z</time></trkpt><trkpt lat="44.8265383" lon="-0.53745"><ele>3.6000000000000005</ele><time>2026-04-21T16:54:36.843Z</time></trkpt><trkpt lat="44.82649" lon="-0.5373883"><ele>3.4</ele><time>2026-04-21T16:54:37.843Z</time></trkpt><trkpt lat="44.8264433" lon="-0.5373267"><ele>3.2</ele><time>2026-04-21T16:54:38.842Z</time></trkpt><trkpt lat="44.826355" lon="-0.537205"><ele>3.0</ele><time>2026-04-21T16:54:40.842Z</time></trkpt><trkpt lat="44.8262683" lon="-0.537075"><ele>3.0</ele><time>2026-04-21T16:54:42.842Z</time></trkpt><trkpt lat="44.8262183" lon="-0.5370017"><ele>3.0</ele><time>2026-04-21T16:54:43.842Z</time></trkpt><trkpt lat="44.826165" lon="-0.5369433"><ele>3.0</ele><time>2026-04-21T16:54:44.843Z</time></trkpt><trkpt lat="44.8261167" lon="-0.5368833"><ele>3.0</ele><time>2026-04-21T16:54:45.843Z</time></trkpt><trkpt lat="44.8260267" lon="-0.5367717"><ele>3.0</ele><time>2026-04-21T16:54:47.842Z</time></trkpt><trkpt lat="44.825945" lon="-0.5366583"><ele>3.0</ele><time>2026-04-21T16:54:49.842Z</time></trkpt><trkpt lat="44.825865" lon="-0.5365483"><ele>3.0</ele><time>2026-04-21T16:54:51.843Z</time></trkpt><trkpt lat="44.82581" lon="-0.5364833"><ele>3.0</ele><time>2026-04-21T16:54:52.843Z</time></trkpt><trkpt lat="44.8257583" lon="-0.5364267"><ele>3.0</ele><time>2026-04-21T16:54:53.843Z</time></trkpt><trkpt lat="44.8256583" lon="-0.5363217"><ele>3.0</ele><time>2026-04-21T16:54:55.842Z</time></trkpt><trkpt lat="44.8255667" lon="-0.5361983"><ele>3.0</ele><time>2026-04-21T16:54:57.843Z</time></trkpt><trkpt lat="44.8255167" lon="-0.5361383"><ele>3.5</ele><time>2026-04-21T16:54:58.842Z</time></trkpt><trkpt lat="44.8254633" lon="-0.5360867"><ele>4.0</ele><time>2026-04-21T16:54:59.843Z</time></trkpt><trkpt lat="44.82541" lon="-0.5360283"><ele>4.5</ele><time>2026-04-21T16:55:00.843Z</time></trkpt><trkpt lat="44.8253617" lon="-0.5359667"><ele>5.0</ele><time>2026-04-21T16:55:01.843Z</time></trkpt><trkpt lat="44.8253117" lon="-0.535905"><ele>5.5</ele><time>2026-04-21T16:55:02.843Z</time></trkpt><trkpt lat="44.8252183" lon="-0.5357867"><ele>6.0</ele><time>2026-04-21T16:55:04.843Z</time></trkpt><trkpt lat="44.825125" lon="-0.535675"><ele>6.0</ele><time>2026-04-21T16:55:06.843Z</time></trkpt><trkpt lat="44.82507" lon="-0.5356133"><ele>6.0</ele><time>2026-04-21T16:55:07.843Z</time></trkpt><trkpt lat="44.8250183" lon="-0.5355583"><ele>6.0</ele><time>2026-04-21T16:55:08.843Z</time></trkpt><trkpt lat="44.824965" lon="-0.5355017"><ele>6.0</ele><time>2026-04-21T16:55:09.843Z</time></trkpt><trkpt lat="44.8249183" lon="-0.5354417"><ele>6.0</ele><time>2026-04-21T16:55:10.843Z</time></trkpt><trkpt lat="44.8248317" lon="-0.535325"><ele>6.0</ele><time>2026-04-21T16:55:12.843Z</time></trkpt><trkpt lat="44.8247433" lon="-0.5352217"><ele>5.5</ele><time>2026-04-21T16:55:14.843Z</time></trkpt><trkpt lat="44.82465" lon="-0.5351133"><ele>5.0</ele><time>2026-04-21T16:55:16.842Z</time></trkpt><trkpt lat="44.82455" lon="-0.5350167"><ele>4.5</ele><time>2026-04-21T16:55:18.842Z</time></trkpt><trkpt lat="44.82449" lon="-0.5349567"><ele>4.0</ele><time>2026-04-21T16:55:19.842Z</time></trkpt><trkpt lat="44.8244367" lon="-0.5348983"><ele>3.5</ele><time>2026-04-21T16:55:20.843Z</time></trkpt><trkpt lat="44.82438" lon="-0.5348517"><ele>3.0</ele><time>2026-04-21T16:55:21.842Z</time></trkpt><trkpt lat="44.824325" lon="-0.534805"><ele>3.1666666666666665</ele><time>2026-04-21T16:55:22.843Z</time></trkpt><trkpt lat="44.8242667" lon="-0.53475"><ele>3.333333333333333</ele><time>2026-04-21T16:55:23.843Z</time></trkpt><trkpt lat="44.8241683" lon="-0.5346383"><ele>3.5</ele><time>2026-04-21T16:55:25.843Z</time></trkpt><trkpt lat="44.82411" lon="-0.5345883"><ele>3.6666666666666665</ele><time>2026-04-21T16:55:26.842Z</time></trkpt><trkpt lat="44.8240517" lon="-0.534535"><ele>3.833333333333333</ele><time>2026-04-21T16:55:27.843Z</time></trkpt><trkpt lat="44.824" lon="-0.5344767"><ele>4.0</ele><time>2026-04-21T16:55:28.843Z</time></trkpt><trkpt lat="44.8239083" lon="-0.53437"><ele>4.0</ele><time>2026-04-21T16:55:30.842Z</time></trkpt><trkpt lat="44.82381" lon="-0.534275"><ele>4.0</ele><time>2026-04-21T16:55:32.843Z</time></trkpt><trkpt lat="44.823705" lon="-0.53418"><ele>4.0</ele><time>2026-04-21T16:55:34.842Z</time></trkpt><trkpt lat="44.82365" lon="-0.5341283"><ele>4.0</ele><time>2026-04-21T16:55:35.842Z</time></trkpt><trkpt lat="44.8235483" lon="-0.5340317"><ele>4.0</ele><time>2026-04-21T16:55:37.842Z</time></trkpt><trkpt lat="44.823495" lon="-0.53398"><ele>4.0</ele><time>2026-04-21T16:55:38.842Z</time></trkpt><trkpt lat="44.8234417" lon="-0.5339267"><ele>4.0</ele><time>2026-04-21T16:55:39.841Z</time></trkpt><trkpt lat="44.8233383" lon="-0.533825"><ele>4.0</ele><time>2026-04-21T16:55:41.841Z</time></trkpt><trkpt lat="44.823285" lon="-0.5337733"><ele>4.0</ele><time>2026-04-21T16:55:42.842Z</time></trkpt><trkpt lat="44.8231783" lon="-0.5336733"><ele>4.0</ele><time>2026-04-21T16:55:44.842Z</time></trkpt><trkpt lat="44.82307" lon="-0.5335817"><ele>4.2</ele><time>2026-04-21T16:55:46.842Z</time></trkpt><trkpt lat="44.822965" lon="-0.5334867"><ele>4.4</ele><time>2026-04-21T16:55:48.842Z</time></trkpt><trkpt lat="44.822855" lon="-0.533395"><ele>4.6</ele><time>2026-04-21T16:55:50.842Z</time></trkpt><trkpt lat="44.8228017" lon="-0.533345"><ele>4.8</ele><time>2026-04-21T16:55:51.842Z</time></trkpt><trkpt lat="44.8227467" lon="-0.5332967"><ele>5.0</ele><time>2026-04-21T16:55:52.842Z</time></trkpt><trkpt lat="44.8226367" lon="-0.5332017"><ele>4.666666666666667</ele><time>2026-04-21T16:55:54.842Z</time></trkpt><trkpt lat="44.82258" lon="-0.53315"><ele>4.333333333333334</ele><time>2026-04-21T16:55:55.842Z</time></trkpt><trkpt lat="44.8225233" lon="-0.5330983"><ele>4.0</ele><time>2026-04-21T16:55:56.842Z</time></trkpt><trkpt lat="44.8224167" lon="-0.5330133"><ele>3.666666666666667</ele><time>2026-04-21T16:55:58.842Z</time></trkpt><trkpt lat="44.82236" lon="-0.5329717"><ele>3.3333333333333335</ele><time>2026-04-21T16:55:59.842Z</time></trkpt><trkpt lat="44.82225" lon="-0.5329033"><ele>3.0</ele><time>2026-04-21T16:56:01.842Z</time></trkpt><trkpt lat="44.8221917" lon="-0.5328683"><ele>2.9999999999999996</ele><time>2026-04-21T16:56:02.841Z</time></trkpt><trkpt lat="44.8221283" lon="-0.532835"><ele>3.0</ele><time>2026-04-21T16:56:03.842Z</time></trkpt><trkpt lat="44.822065" lon="-0.5327983"><ele>3.0</ele><time>2026-04-21T16:56:04.842Z</time></trkpt><trkpt lat="44.822" lon="-0.5327667"><ele>3.0</ele><time>2026-04-21T16:56:05.842Z</time></trkpt><trkpt lat="44.8219383" lon="-0.5327283"><ele>3.0</ele><time>2026-04-21T16:56:06.842Z</time></trkpt><trkpt lat="44.8218767" lon="-0.532695"><ele>2.9999999999999996</ele><time>2026-04-21T16:56:07.841Z</time></trkpt><trkpt lat="44.821815" lon="-0.53266"><ele>3.0</ele><time>2026-04-21T16:56:08.842Z</time></trkpt><trkpt lat="44.8217567" lon="-0.5326167"><ele>2.8333333333333335</ele><time>2026-04-21T16:56:09.842Z</time></trkpt><trkpt lat="44.821695" lon="-0.532575"><ele>2.6666666666666665</ele><time>2026-04-21T16:56:10.842Z</time></trkpt><trkpt lat="44.8216317" lon="-0.5325417"><ele>2.5</ele><time>2026-04-21T16:56:11.842Z</time></trkpt><trkpt lat="44.82157" lon="-0.5325033"><ele>2.333333333333333</ele><time>2026-04-21T16:56:12.842Z</time></trkpt><trkpt lat="44.82151" lon="-0.5324633"><ele>2.1666666666666665</ele><time>2026-04-21T16:56:13.842Z</time></trkpt><trkpt lat="44.8213933" lon="-0.53239"><ele>2.0</ele><time>2026-04-21T16:56:15.842Z</time></trkpt><trkpt lat="44.821335" lon="-0.5323533"><ele>2.0</ele><time>2026-04-21T16:56:16.842Z</time></trkpt><trkpt lat="44.8212783" lon="-0.5323067"><ele>1.9999999999999998</ele><time>2026-04-21T16:56:17.842Z</time></trkpt><trkpt lat="44.8212183" lon="-0.5322617"><ele>2.0</ele><time>2026-04-21T16:56:18.841Z</time></trkpt><trkpt lat="44.8211583" lon="-0.5322183"><ele>2.0</ele><time>2026-04-21T16:56:19.842Z</time></trkpt><trkpt lat="44.8210917" lon="-0.53218"><ele>1.9999999999999998</ele><time>2026-04-21T16:56:20.842Z</time></trkpt><trkpt lat="44.8210267" lon="-0.5321383"><ele>2.0</ele><time>2026-04-21T16:56:21.842Z</time></trkpt><trkpt lat="44.820965" lon="-0.5320967"><ele>2.0</ele><time>2026-04-21T16:56:22.842Z</time></trkpt><trkpt lat="44.8209" lon="-0.5320567"><ele>2.333333333333333</ele><time>2026-04-21T16:56:23.842Z</time></trkpt><trkpt lat="44.820835" lon="-0.53202"><ele>2.6666666666666665</ele><time>2026-04-21T16:56:24.842Z</time></trkpt><trkpt lat="44.8207717" lon="-0.53198"><ele>3.0</ele><time>2026-04-21T16:56:25.842Z</time></trkpt><trkpt lat="44.8207117" lon="-0.5319383"><ele>3.333333333333333</ele><time>2026-04-21T16:56:26.842Z</time></trkpt><trkpt lat="44.8205917" lon="-0.5318617"><ele>3.6666666666666665</ele><time>2026-04-21T16:56:28.842Z</time></trkpt><trkpt lat="44.82053" lon="-0.5318217"><ele>4.0</ele><time>2026-04-21T16:56:29.842Z</time></trkpt><trkpt lat="44.8204667" lon="-0.5317833"><ele>4.0</ele><time>2026-04-21T16:56:30.842Z</time></trkpt><trkpt lat="44.8204033" lon="-0.5317417"><ele>3.9999999999999996</ele><time>2026-04-21T16:56:31.842Z</time></trkpt><trkpt lat="44.8203367" lon="-0.5317"><ele>4.0</ele><time>2026-04-21T16:56:32.842Z</time></trkpt><trkpt lat="44.82027" lon="-0.5316617"><ele>4.0</ele><time>2026-04-21T16:56:33.842Z</time></trkpt><trkpt lat="44.8202083" lon="-0.5316183"><ele>3.9999999999999996</ele><time>2026-04-21T16:56:34.842Z</time></trkpt><trkpt lat="44.8201433" lon="-0.5315783"><ele>4.0</ele><time>2026-04-21T16:56:35.842Z</time></trkpt><trkpt lat="44.8200817" lon="-0.5315367"><ele>4.0</ele><time>2026-04-21T16:56:36.842Z</time></trkpt><trkpt lat="44.82002" lon="-0.5314983"><ele>3.8571428571428568</ele><time>2026-04-21T16:56:37.842Z</time></trkpt><trkpt lat="44.8199583" lon="-0.53146"><ele>3.714285714285714</ele><time>2026-04-21T16:56:38.842Z</time></trkpt><trkpt lat="44.8198933" lon="-0.53142"><ele>3.571428571428571</ele><time>2026-04-21T16:56:39.842Z</time></trkpt><trkpt lat="44.8198267" lon="-0.5313767"><ele>3.4285714285714284</ele><time>2026-04-21T16:56:40.842Z</time></trkpt><trkpt lat="44.8197633" lon="-0.5313317"><ele>3.2857142857142856</ele><time>2026-04-21T16:56:41.842Z</time></trkpt><trkpt lat="44.8197033" lon="-0.531285"><ele>3.1428571428571423</ele><time>2026-04-21T16:56:42.842Z</time></trkpt><trkpt lat="44.8196417" lon="-0.531235"><ele>3.0</ele><time>2026-04-21T16:56:43.842Z</time></trkpt><trkpt lat="44.8195783" lon="-0.5311983"><ele>3.1428571428571423</ele><time>2026-04-21T16:56:44.841Z</time></trkpt><trkpt lat="44.819515" lon="-0.5311617"><ele>3.2857142857142856</ele><time>2026-04-21T16:56:45.842Z</time></trkpt><trkpt lat="44.8194483" lon="-0.5311233"><ele>3.4285714285714284</ele><time>2026-04-21T16:56:46.842Z</time></trkpt><trkpt lat="44.8193867" lon="-0.5310817"><ele>3.571428571428571</ele><time>2026-04-21T16:56:47.842Z</time></trkpt><trkpt lat="44.8193283" lon="-0.5310367"><ele>3.714285714285714</ele><time>2026-04-21T16:56:48.842Z</time></trkpt><trkpt lat="44.8192633" lon="-0.531"><ele>3.8571428571428568</ele><time>2026-04-21T16:56:49.841Z</time></trkpt><trkpt lat="44.8192017" lon="-0.530955"><ele>4.0</ele><time>2026-04-21T16:56:50.841Z</time></trkpt><trkpt lat="44.81914" lon="-0.5309133"><ele>4.0</ele><time>2026-04-21T16:56:51.842Z</time></trkpt><trkpt lat="44.8190733" lon="-0.5308667"><ele>3.9999999999999996</ele><time>2026-04-21T16:56:52.842Z</time></trkpt><trkpt lat="44.81901" lon="-0.5308217"><ele>4.0</ele><time>2026-04-21T16:56:53.841Z</time></trkpt><trkpt lat="44.8189483" lon="-0.5307833"><ele>4.0</ele><time>2026-04-21T16:56:54.841Z</time></trkpt><trkpt lat="44.8188867" lon="-0.53075"><ele>3.9999999999999996</ele><time>2026-04-21T16:56:55.842Z</time></trkpt><trkpt lat="44.818825" lon="-0.5307083"><ele>4.0</ele><time>2026-04-21T16:56:56.841Z</time></trkpt><trkpt lat="44.8187617" lon="-0.5306667"><ele>4.0</ele><time>2026-04-21T16:56:57.842Z</time></trkpt><trkpt lat="44.8186983" lon="-0.5306267"><ele>4.0</ele><time>2026-04-21T16:56:58.842Z</time></trkpt><trkpt lat="44.8186333" lon="-0.530585"><ele>3.9999999999999996</ele><time>2026-04-21T16:56:59.842Z</time></trkpt><trkpt lat="44.818575" lon="-0.5305433"><ele>4.0</ele><time>2026-04-21T16:57:00.842Z</time></trkpt><trkpt lat="44.8185117" lon="-0.5304983"><ele>4.0</ele><time>2026-04-21T16:57:01.842Z</time></trkpt><trkpt lat="44.8184517" lon="-0.530455"><ele>3.9999999999999996</ele><time>2026-04-21T16:57:02.841Z</time></trkpt><trkpt lat="44.81839" lon="-0.530415"><ele>4.0</ele><time>2026-04-21T16:57:03.842Z</time></trkpt><trkpt lat="44.8183267" lon="-0.5303717"><ele>4.0</ele><time>2026-04-21T16:57:04.842Z</time></trkpt><trkpt lat="44.81827" lon="-0.5303317"><ele>3.833333333333333</ele><time>2026-04-21T16:57:05.842Z</time></trkpt><trkpt lat="44.8182083" lon="-0.5302933"><ele>3.6666666666666665</ele><time>2026-04-21T16:57:06.841Z</time></trkpt><trkpt lat="44.8181533" lon="-0.5302467"><ele>3.5</ele><time>2026-04-21T16:57:07.842Z</time></trkpt><trkpt lat="44.8180383" lon="-0.53017"><ele>3.333333333333333</ele><time>2026-04-21T16:57:09.841Z</time></trkpt><trkpt lat="44.8179783" lon="-0.5301333"><ele>3.1666666666666665</ele><time>2026-04-21T16:57:10.842Z</time></trkpt><trkpt lat="44.8179183" lon="-0.5300967"><ele>3.0</ele><time>2026-04-21T16:57:11.842Z</time></trkpt><trkpt lat="44.8178567" lon="-0.5300583"><ele>2.9999999999999996</ele><time>2026-04-21T16:57:12.842Z</time></trkpt><trkpt lat="44.8177983" lon="-0.5300183"><ele>3.0</ele><time>2026-04-21T16:57:13.842Z</time></trkpt><trkpt lat="44.8177383" lon="-0.5299717"><ele>3.0</ele><time>2026-04-21T16:57:14.841Z</time></trkpt><trkpt lat="44.81768" lon="-0.5299333"><ele>3.0</ele><time>2026-04-21T16:57:15.842Z</time></trkpt><trkpt lat="44.8176183" lon="-0.5298917"><ele>3.0</ele><time>2026-04-21T16:57:16.842Z</time></trkpt><trkpt lat="44.8175583" lon="-0.5298483"><ele>2.9999999999999996</ele><time>2026-04-21T16:57:17.842Z</time></trkpt><trkpt lat="44.8174967" lon="-0.52981"><ele>3.0</ele><time>2026-04-21T16:57:18.842Z</time></trkpt><trkpt lat="44.81743" lon="-0.5297683"><ele>3.1428571428571423</ele><time>2026-04-21T16:57:19.842Z</time></trkpt><trkpt lat="44.8173667" lon="-0.5297317"><ele>3.2857142857142856</ele><time>2026-04-21T16:57:20.842Z</time></trkpt><trkpt lat="44.817305" lon="-0.52969"><ele>3.4285714285714284</ele><time>2026-04-21T16:57:21.841Z</time></trkpt><trkpt lat="44.8172433" lon="-0.5296483"><ele>3.571428571428571</ele><time>2026-04-21T16:57:22.842Z</time></trkpt><trkpt lat="44.8171817" lon="-0.5296117"><ele>3.714285714285714</ele><time>2026-04-21T16:57:23.842Z</time></trkpt><trkpt lat="44.8171217" lon="-0.52957"><ele>3.8571428571428568</ele><time>2026-04-21T16:57:24.842Z</time></trkpt><trkpt lat="44.8170583" lon="-0.529525"><ele>4.0</ele><time>2026-04-21T16:57:25.842Z</time></trkpt><trkpt lat="44.8169983" lon="-0.5294817"><ele>4.142857142857142</ele><time>2026-04-21T16:57:26.842Z</time></trkpt><trkpt lat="44.8169367" lon="-0.5294433"><ele>4.285714285714286</ele><time>2026-04-21T16:57:27.842Z</time></trkpt><trkpt lat="44.8168767" lon="-0.5294"><ele>4.428571428571429</ele><time>2026-04-21T16:57:28.842Z</time></trkpt><trkpt lat="44.8168183" lon="-0.529355"><ele>4.571428571428571</ele><time>2026-04-21T16:57:29.842Z</time></trkpt><trkpt lat="44.8167583" lon="-0.5293167"><ele>4.714285714285714</ele><time>2026-04-21T16:57:30.842Z</time></trkpt><trkpt lat="44.8166967" lon="-0.5292767"><ele>4.857142857142857</ele><time>2026-04-21T16:57:31.842Z</time></trkpt><trkpt lat="44.816635" lon="-0.5292367"><ele>5.0</ele><time>2026-04-21T16:57:32.842Z</time></trkpt><trkpt lat="44.8165733" lon="-0.5292033"><ele>5.0</ele><time>2026-04-21T16:57:33.841Z</time></trkpt><trkpt lat="44.816515" lon="-0.5291583"><ele>5.0</ele><time>2026-04-21T16:57:34.842Z</time></trkpt><trkpt lat="44.8164533" lon="-0.52911"><ele>5.0</ele><time>2026-04-21T16:57:35.842Z</time></trkpt><trkpt lat="44.8163917" lon="-0.529065"><ele>5.0</ele><time>2026-04-21T16:57:36.842Z</time></trkpt><trkpt lat="44.816325" lon="-0.52902"><ele>5.0</ele><time>2026-04-21T16:57:37.842Z</time></trkpt><trkpt lat="44.8162583" lon="-0.5289783"><ele>5.0</ele><time>2026-04-21T16:57:38.842Z</time></trkpt><trkpt lat="44.8161983" lon="-0.5289383"><ele>5.0</ele><time>2026-04-21T16:57:39.842Z</time></trkpt><trkpt lat="44.8161367" lon="-0.5288983"><ele>5.0</ele><time>2026-04-21T16:57:40.842Z</time></trkpt><trkpt lat="44.81602" lon="-0.528825"><ele>5.0</ele><time>2026-04-21T16:57:42.841Z</time></trkpt><trkpt lat="44.8159567" lon="-0.5287817"><ele>5.0</ele><time>2026-04-21T16:57:43.841Z</time></trkpt><trkpt lat="44.8158883" lon="-0.528735"><ele>5.0</ele><time>2026-04-21T16:57:44.842Z</time></trkpt><trkpt lat="44.8158233" lon="-0.5286917"><ele>5.0</ele><time>2026-04-21T16:57:45.841Z</time></trkpt><trkpt lat="44.81576" lon="-0.52865"><ele>5.0</ele><time>2026-04-21T16:57:46.842Z</time></trkpt><trkpt lat="44.815695" lon="-0.52861"><ele>5.142857142857142</ele><time>2026-04-21T16:57:47.841Z</time></trkpt><trkpt lat="44.8156333" lon="-0.5285667"><ele>5.285714285714286</ele><time>2026-04-21T16:57:48.842Z</time></trkpt><trkpt lat="44.8155733" lon="-0.5285233"><ele>5.428571428571429</ele><time>2026-04-21T16:57:49.841Z</time></trkpt><trkpt lat="44.8155133" lon="-0.5284817"><ele>5.571428571428571</ele><time>2026-04-21T16:57:50.842Z</time></trkpt><trkpt lat="44.815455" lon="-0.52844"><ele>5.714285714285714</ele><time>2026-04-21T16:57:51.841Z</time></trkpt><trkpt lat="44.8153967" lon="-0.5284"><ele>5.857142857142857</ele><time>2026-04-21T16:57:52.842Z</time></trkpt><trkpt lat="44.8153367" lon="-0.5283583"><ele>6.0</ele><time>2026-04-21T16:57:53.842Z</time></trkpt><trkpt lat="44.8152233" lon="-0.5282767"><ele>5.999999999999999</ele><time>2026-04-21T16:57:55.842Z</time></trkpt><trkpt lat="44.8151683" lon="-0.5282317"><ele>6.0</ele><time>2026-04-21T16:57:56.841Z</time></trkpt><trkpt lat="44.815105" lon="-0.5281917"><ele>6.0</ele><time>2026-04-21T16:57:57.842Z</time></trkpt><trkpt lat="44.815045" lon="-0.5281567"><ele>6.0</ele><time>2026-04-21T16:57:58.842Z</time></trkpt><trkpt lat="44.8149867" lon="-0.5281183"><ele>6.0</ele><time>2026-04-21T16:57:59.841Z</time></trkpt><trkpt lat="44.8149267" lon="-0.52808"><ele>5.999999999999999</ele><time>2026-04-21T16:58:00.841Z</time></trkpt><trkpt lat="44.8148667" lon="-0.528045"><ele>6.0</ele><time>2026-04-21T16:58:01.842Z</time></trkpt><trkpt lat="44.8148083" lon="-0.5280083"><ele>5.8</ele><time>2026-04-21T16:58:02.842Z</time></trkpt><trkpt lat="44.81475" lon="-0.5279733"><ele>5.6</ele><time>2026-04-21T16:58:03.842Z</time></trkpt><trkpt lat="44.8146867" lon="-0.5279367"><ele>5.4</ele><time>2026-04-21T16:58:04.842Z</time></trkpt><trkpt lat="44.8145783" lon="-0.527855"><ele>5.2</ele><time>2026-04-21T16:58:06.842Z</time></trkpt><trkpt lat="44.8144617" lon="-0.52778"><ele>5.0</ele><time>2026-04-21T16:58:08.842Z</time></trkpt><trkpt lat="44.8144" lon="-0.52774"><ele>5.0</ele><time>2026-04-21T16:58:09.842Z</time></trkpt><trkpt lat="44.81434" lon="-0.5276967"><ele>5.0</ele><time>2026-04-21T16:58:10.842Z</time></trkpt><trkpt lat="44.8142817" lon="-0.5276617"><ele>5.0</ele><time>2026-04-21T16:58:11.842Z</time></trkpt><trkpt lat="44.8142233" lon="-0.527625"><ele>5.0</ele><time>2026-04-21T16:58:12.841Z</time></trkpt><trkpt lat="44.814165" lon="-0.5275817"><ele>5.0</ele><time>2026-04-21T16:58:13.842Z</time></trkpt><trkpt lat="44.814105" lon="-0.5275433"><ele>5.0</ele><time>2026-04-21T16:58:14.842Z</time></trkpt><trkpt lat="44.8140417" lon="-0.5274983"><ele>5.0</ele><time>2026-04-21T16:58:15.842Z</time></trkpt><trkpt lat="44.8139783" lon="-0.52746"><ele>4.666666666666667</ele><time>2026-04-21T16:58:16.842Z</time></trkpt><trkpt lat="44.81386" lon="-0.5273933"><ele>4.333333333333334</ele><time>2026-04-21T16:58:18.842Z</time></trkpt><trkpt lat="44.813795" lon="-0.5273567"><ele>4.0</ele><time>2026-04-21T16:58:19.842Z</time></trkpt><trkpt lat="44.8137333" lon="-0.527315"><ele>3.666666666666667</ele><time>2026-04-21T16:58:20.842Z</time></trkpt><trkpt lat="44.81367" lon="-0.5272717"><ele>3.3333333333333335</ele><time>2026-04-21T16:58:21.842Z</time></trkpt><trkpt lat="44.81361" lon="-0.5272283"><ele>3.0</ele><time>2026-04-21T16:58:22.841Z</time></trkpt><trkpt lat="44.81355" lon="-0.5271867"><ele>2.9999999999999996</ele><time>2026-04-21T16:58:23.842Z</time></trkpt><trkpt lat="44.81349" lon="-0.527145"><ele>3.0</ele><time>2026-04-21T16:58:24.842Z</time></trkpt><trkpt lat="44.8134267" lon="-0.5271"><ele>3.0</ele><time>2026-04-21T16:58:25.842Z</time></trkpt><trkpt lat="44.8133683" lon="-0.527055"><ele>3.0</ele><time>2026-04-21T16:58:26.842Z</time></trkpt><trkpt lat="44.8133083" lon="-0.52701"><ele>3.0</ele><time>2026-04-21T16:58:27.842Z</time></trkpt><trkpt lat="44.8132483" lon="-0.5269667"><ele>2.9999999999999996</ele><time>2026-04-21T16:58:28.841Z</time></trkpt><trkpt lat="44.813185" lon="-0.52693"><ele>3.0</ele><time>2026-04-21T16:58:29.841Z</time></trkpt><trkpt lat="44.8131267" lon="-0.5268883"><ele>3.1428571428571423</ele><time>2026-04-21T16:58:30.841Z</time></trkpt><trkpt lat="44.8130667" lon="-0.5268467"><ele>3.2857142857142856</ele><time>2026-04-21T16:58:31.842Z</time></trkpt><trkpt lat="44.8130067" lon="-0.5267983"><ele>3.4285714285714284</ele><time>2026-04-21T16:58:32.842Z</time></trkpt><trkpt lat="44.8129483" lon="-0.5267533"><ele>3.571428571428571</ele><time>2026-04-21T16:58:33.842Z</time></trkpt><trkpt lat="44.8128883" lon="-0.5267133"><ele>3.714285714285714</ele><time>2026-04-21T16:58:34.842Z</time></trkpt><trkpt lat="44.8128267" lon="-0.5266717"><ele>3.8571428571428568</ele><time>2026-04-21T16:58:35.841Z</time></trkpt><trkpt lat="44.8127633" lon="-0.5266383"><ele>4.0</ele><time>2026-04-21T16:58:36.842Z</time></trkpt><trkpt lat="44.8126983" lon="-0.5266033"><ele>4.166666666666666</ele><time>2026-04-21T16:58:37.842Z</time></trkpt><trkpt lat="44.8125817" lon="-0.5265283"><ele>4.333333333333333</ele><time>2026-04-21T16:58:39.842Z</time></trkpt><trkpt lat="44.812525" lon="-0.5264883"><ele>4.5</ele><time>2026-04-21T16:58:40.842Z</time></trkpt><trkpt lat="44.8124667" lon="-0.5264467"><ele>4.666666666666667</ele><time>2026-04-21T16:58:41.841Z</time></trkpt><trkpt lat="44.8124033" lon="-0.52641"><ele>4.833333333333334</ele><time>2026-04-21T16:58:42.842Z</time></trkpt><trkpt lat="44.8123383" lon="-0.5263733"><ele>5.0</ele><time>2026-04-21T16:58:43.841Z</time></trkpt><trkpt lat="44.812275" lon="-0.5263367"><ele>5.0</ele><time>2026-04-21T16:58:44.842Z</time></trkpt><trkpt lat="44.812215" lon="-0.5262933"><ele>5.0</ele><time>2026-04-21T16:58:45.842Z</time></trkpt><trkpt lat="44.8121567" lon="-0.5262483"><ele>5.0</ele><time>2026-04-21T16:58:46.842Z</time></trkpt><trkpt lat="44.8120983" lon="-0.52621"><ele>5.0</ele><time>2026-04-21T16:58:47.842Z</time></trkpt><trkpt lat="44.81204" lon="-0.5261733"><ele>5.0</ele><time>2026-04-21T16:58:48.842Z</time></trkpt><trkpt lat="44.8119817" lon="-0.5261317"><ele>5.0</ele><time>2026-04-21T16:58:49.842Z</time></trkpt><trkpt lat="44.8119217" lon="-0.5260867"><ele>5.0</ele><time>2026-04-21T16:58:50.842Z</time></trkpt><trkpt lat="44.8118633" lon="-0.526045"><ele>4.5</ele><time>2026-04-21T16:58:51.842Z</time></trkpt><trkpt lat="44.811805" lon="-0.5260033"><ele>4.0</ele><time>2026-04-21T16:58:52.842Z</time></trkpt><trkpt lat="44.8117483" lon="-0.5259633"><ele>3.5</ele><time>2026-04-21T16:58:53.841Z</time></trkpt><trkpt lat="44.8116367" lon="-0.5258917"><ele>3.0</ele><time>2026-04-21T16:58:55.842Z</time></trkpt><trkpt lat="44.8115783" lon="-0.5258533"><ele>2.5</ele><time>2026-04-21T16:58:56.842Z</time></trkpt><trkpt lat="44.8115167" lon="-0.52581"><ele>2.0</ele><time>2026-04-21T16:58:57.841Z</time></trkpt><trkpt lat="44.811455" lon="-0.5257683"><ele>2.0</ele><time>2026-04-21T16:58:58.841Z</time></trkpt><trkpt lat="44.8113433" lon="-0.5256933"><ele>2.0</ele><time>2026-04-21T16:59:00.842Z</time></trkpt><trkpt lat="44.8112817" lon="-0.5256583"><ele>2.0</ele><time>2026-04-21T16:59:01.841Z</time></trkpt><trkpt lat="44.8111717" lon="-0.525575"><ele>2.0</ele><time>2026-04-21T16:59:03.841Z</time></trkpt><trkpt lat="44.8110633" lon="-0.5255117"><ele>2.0</ele><time>2026-04-21T16:59:05.842Z</time></trkpt><trkpt lat="44.8110017" lon="-0.5254767"><ele>2.0</ele><time>2026-04-21T16:59:06.842Z</time></trkpt><trkpt lat="44.8108917" lon="-0.5254017"><ele>2.0</ele><time>2026-04-21T16:59:08.842Z</time></trkpt><trkpt lat="44.8108333" lon="-0.525355"><ele>2.0</ele><time>2026-04-21T16:59:09.842Z</time></trkpt><trkpt lat="44.8107683" lon="-0.5253167"><ele>2.0</ele><time>2026-04-21T16:59:10.841Z</time></trkpt><trkpt lat="44.8107083" lon="-0.5252717"><ele>2.0</ele><time>2026-04-21T16:59:11.841Z</time></trkpt><trkpt lat="44.8105967" lon="-0.5251883"><ele>2.0</ele><time>2026-04-21T16:59:13.842Z</time></trkpt><trkpt lat="44.8105383" lon="-0.525155"><ele>2.0</ele><time>2026-04-21T16:59:14.842Z</time></trkpt><trkpt lat="44.8104267" lon="-0.5250783"><ele>2.0</ele><time>2026-04-21T16:59:16.842Z</time></trkpt><trkpt lat="44.8103183" lon="-0.5249983"><ele>2.0</ele><time>2026-04-21T16:59:18.842Z</time></trkpt><trkpt lat="44.8102083" lon="-0.52493"><ele>2.0</ele><time>2026-04-21T16:59:20.842Z</time></trkpt><trkpt lat="44.8100917" lon="-0.524865"><ele>2.0</ele><time>2026-04-21T16:59:22.841Z</time></trkpt><trkpt lat="44.8099733" lon="-0.524795"><ele>2.0</ele><time>2026-04-21T16:59:24.841Z</time></trkpt><trkpt lat="44.8099083" lon="-0.524695"><ele>2.0</ele><time>2026-04-21T16:59:26.842Z</time></trkpt><trkpt lat="44.8098467" lon="-0.5246033"><ele>2.0</ele><time>2026-04-21T16:59:28.841Z</time></trkpt><trkpt lat="44.8097567" lon="-0.5245517"><ele>2.0</ele><time>2026-04-21T16:59:30.842Z</time></trkpt><trkpt lat="44.8096633" lon="-0.5245133"><ele>2.6666666666666665</ele><time>2026-04-21T16:59:32.841Z</time></trkpt><trkpt lat="44.8095467" lon="-0.5244983"><ele>3.333333333333333</ele><time>2026-04-21T16:59:34.841Z</time></trkpt><trkpt lat="44.8094833" lon="-0.5244767"><ele>4.0</ele><time>2026-04-21T16:59:35.842Z</time></trkpt><trkpt lat="44.80942" lon="-0.5244533"><ele>4.666666666666667</ele><time>2026-04-21T16:59:36.841Z</time></trkpt><trkpt lat="44.809345" lon="-0.5243783"><ele>5.333333333333333</ele><time>2026-04-21T16:59:38.842Z</time></trkpt><trkpt lat="44.8092717" lon="-0.5243333"><ele>6.0</ele><time>2026-04-21T16:59:40.842Z</time></trkpt><trkpt lat="44.8091767" lon="-0.5243033"><ele>6.199999999999999</ele><time>2026-04-21T16:59:42.842Z</time></trkpt><trkpt lat="44.8090883" lon="-0.5242517"><ele>6.3999999999999995</ele><time>2026-04-21T16:59:44.841Z</time></trkpt><trkpt lat="44.8089983" lon="-0.524185"><ele>6.6</ele><time>2026-04-21T16:59:46.842Z</time></trkpt><trkpt lat="44.8089033" lon="-0.5241183"><ele>6.8</ele><time>2026-04-21T16:59:48.842Z</time></trkpt><trkpt lat="44.8088067" lon="-0.5240433"><ele>7.0</ele><time>2026-04-21T16:59:50.841Z</time></trkpt><trkpt lat="44.808705" lon="-0.52398"><ele>7.0</ele><time>2026-04-21T16:59:52.841Z</time></trkpt><trkpt lat="44.8086" lon="-0.5239183"><ele>7.0</ele><time>2026-04-21T16:59:54.841Z</time></trkpt><trkpt lat="44.808505" lon="-0.523855"><ele>7.0</ele><time>2026-04-21T16:59:56.841Z</time></trkpt><trkpt lat="44.8083933" lon="-0.5237867"><ele>7.0</ele><time>2026-04-21T16:59:58.842Z</time></trkpt><trkpt lat="44.808285" lon="-0.5237167"><ele>6.199999999999999</ele><time>2026-04-21T17:00:00.842Z</time></trkpt><trkpt lat="44.80819" lon="-0.5236467"><ele>5.3999999999999995</ele><time>2026-04-21T17:00:02.842Z</time></trkpt><trkpt lat="44.8080933" lon="-0.523595"><ele>4.6</ele><time>2026-04-21T17:00:04.842Z</time></trkpt><trkpt lat="44.8079917" lon="-0.52353"><ele>3.8</ele><time>2026-04-21T17:00:06.842Z</time></trkpt><trkpt lat="44.8078817" lon="-0.523455"><ele>3.0</ele><time>2026-04-21T17:00:08.84Z</time></trkpt><trkpt lat="44.807825" lon="-0.5234133"><ele>3.0</ele><time>2026-04-21T17:00:09.841Z</time></trkpt><trkpt lat="44.80776" lon="-0.5233783"><ele>3.0</ele><time>2026-04-21T17:00:10.84Z</time></trkpt><trkpt lat="44.8076967" lon="-0.52334"><ele>3.0</ele><time>2026-04-21T17:00:11.841Z</time></trkpt><trkpt lat="44.807635" lon="-0.52331"><ele>3.0</ele><time>2026-04-21T17:00:12.841Z</time></trkpt><trkpt lat="44.8075767" lon="-0.5232683"><ele>3.0</ele><time>2026-04-21T17:00:13.841Z</time></trkpt><trkpt lat="44.807515" lon="-0.5232217"><ele>3.0</ele><time>2026-04-21T17:00:14.841Z</time></trkpt><trkpt lat="44.807405" lon="-0.52315"><ele>3.0</ele><time>2026-04-21T17:00:16.841Z</time></trkpt><trkpt lat="44.8072967" lon="-0.5230917"><ele>3.0</ele><time>2026-04-21T17:00:18.84Z</time></trkpt><trkpt lat="44.8072017" lon="-0.523015"><ele>3.0</ele><time>2026-04-21T17:00:20.841Z</time></trkpt><trkpt lat="44.8071467" lon="-0.5229683"><ele>3.0</ele><time>2026-04-21T17:00:21.841Z</time></trkpt><trkpt lat="44.807035" lon="-0.522905"><ele>3.0</ele><time>2026-04-21T17:00:23.84Z</time></trkpt><trkpt lat="44.8069233" lon="-0.5228383"><ele>3.2</ele><time>2026-04-21T17:00:25.84Z</time></trkpt><trkpt lat="44.8068133" lon="-0.5227683"><ele>3.4</ele><time>2026-04-21T17:00:27.841Z</time></trkpt><trkpt lat="44.806705" lon="-0.522695"><ele>3.6000000000000005</ele><time>2026-04-21T17:00:29.841Z</time></trkpt><trkpt lat="44.8065867" lon="-0.5226283"><ele>3.8000000000000003</ele><time>2026-04-21T17:00:31.841Z</time></trkpt><trkpt lat="44.8065283" lon="-0.5225917"><ele>4.0</ele><time>2026-04-21T17:00:32.841Z</time></trkpt><trkpt lat="44.80642" lon="-0.522515"><ele>4.0</ele><time>2026-04-21T17:00:34.841Z</time></trkpt><trkpt lat="44.80636" lon="-0.5224783"><ele>3.9999999999999996</ele><time>2026-04-21T17:00:35.84Z</time></trkpt><trkpt lat="44.8063033" lon="-0.522435"><ele>4.0</ele><time>2026-04-21T17:00:36.84Z</time></trkpt><trkpt lat="44.8061983" lon="-0.5223517"><ele>4.0</ele><time>2026-04-21T17:00:38.841Z</time></trkpt><trkpt lat="44.8061383" lon="-0.52231"><ele>3.9999999999999996</ele><time>2026-04-21T17:00:39.841Z</time></trkpt><trkpt lat="44.8060783" lon="-0.52227"><ele>4.0</ele><time>2026-04-21T17:00:40.841Z</time></trkpt><trkpt lat="44.80602" lon="-0.5222317"><ele>4.0</ele><time>2026-04-21T17:00:41.841Z</time></trkpt><trkpt lat="44.8059633" lon="-0.52219"><ele>4.166666666666666</ele><time>2026-04-21T17:00:42.841Z</time></trkpt><trkpt lat="44.8059" lon="-0.5221483"><ele>4.333333333333333</ele><time>2026-04-21T17:00:43.841Z</time></trkpt><trkpt lat="44.8058433" lon="-0.522105"><ele>4.5</ele><time>2026-04-21T17:00:44.841Z</time></trkpt><trkpt lat="44.805735" lon="-0.52202"><ele>4.666666666666667</ele><time>2026-04-21T17:00:46.841Z</time></trkpt><trkpt lat="44.8056783" lon="-0.5219767"><ele>4.833333333333334</ele><time>2026-04-21T17:00:47.841Z</time></trkpt><trkpt lat="44.80557" lon="-0.521895"><ele>5.0</ele><time>2026-04-21T17:00:49.841Z</time></trkpt><trkpt lat="44.805515" lon="-0.5218467"><ele>5.25</ele><time>2026-04-21T17:00:50.84Z</time></trkpt><trkpt lat="44.80541" lon="-0.5217583"><ele>5.5</ele><time>2026-04-21T17:00:52.84Z</time></trkpt><trkpt lat="44.8052967" lon="-0.5216817"><ele>5.75</ele><time>2026-04-21T17:00:54.841Z</time></trkpt><trkpt lat="44.805185" lon="-0.521595"><ele>6.0</ele><time>2026-04-21T17:00:56.841Z</time></trkpt><trkpt lat="44.8050883" lon="-0.52151"><ele>6.0</ele><time>2026-04-21T17:00:58.841Z</time></trkpt><trkpt lat="44.8049967" lon="-0.5214267"><ele>6.0</ele><time>2026-04-21T17:01:00.841Z</time></trkpt><trkpt lat="44.8048933" lon="-0.5213533"><ele>6.0</ele><time>2026-04-21T17:01:02.84Z</time></trkpt><trkpt lat="44.80484" lon="-0.5213033"><ele>6.0</ele><time>2026-04-21T17:01:03.84Z</time></trkpt><trkpt lat="44.8047367" lon="-0.521205"><ele>6.0</ele><time>2026-04-21T17:01:05.841Z</time></trkpt><trkpt lat="44.8046383" lon="-0.5211133"><ele>6.0</ele><time>2026-04-21T17:01:07.84Z</time></trkpt><trkpt lat="44.8045367" lon="-0.5210317"><ele>6.0</ele><time>2026-04-21T17:01:09.841Z</time></trkpt><trkpt lat="44.8044817" lon="-0.520985"><ele>6.0</ele><time>2026-04-21T17:01:10.84Z</time></trkpt><trkpt lat="44.8044233" lon="-0.52094"><ele>6.0</ele><time>2026-04-21T17:01:11.841Z</time></trkpt><trkpt lat="44.804365" lon="-0.5208967"><ele>6.0</ele><time>2026-04-21T17:01:12.841Z</time></trkpt><trkpt lat="44.8042683" lon="-0.5208067"><ele>6.0</ele><time>2026-04-21T17:01:14.84Z</time></trkpt><trkpt lat="44.8042167" lon="-0.5207517"><ele>5.333333333333333</ele><time>2026-04-21T17:01:15.84Z</time></trkpt><trkpt lat="44.80416" lon="-0.5207"><ele>4.666666666666667</ele><time>2026-04-21T17:01:16.841Z</time></trkpt><trkpt lat="44.8041" lon="-0.5206533"><ele>4.0</ele><time>2026-04-21T17:01:17.841Z</time></trkpt><trkpt lat="44.804045" lon="-0.52061"><ele>3.333333333333333</ele><time>2026-04-21T17:01:18.84Z</time></trkpt><trkpt lat="44.803935" lon="-0.5205283"><ele>2.6666666666666665</ele><time>2026-04-21T17:01:20.841Z</time></trkpt><trkpt lat="44.80388" lon="-0.5204833"><ele>2.0</ele><time>2026-04-21T17:01:21.841Z</time></trkpt><trkpt lat="44.8038217" lon="-0.5204417"><ele>2.2</ele><time>2026-04-21T17:01:22.84Z</time></trkpt><trkpt lat="44.80371" lon="-0.5203667"><ele>2.4000000000000004</ele><time>2026-04-21T17:01:24.841Z</time></trkpt><trkpt lat="44.80365" lon="-0.5203267"><ele>2.5999999999999996</ele><time>2026-04-21T17:01:25.841Z</time></trkpt><trkpt lat="44.8035433" lon="-0.5202433"><ele>2.8</ele><time>2026-04-21T17:01:27.841Z</time></trkpt><trkpt lat="44.8034867" lon="-0.5202033"><ele>3.0</ele><time>2026-04-21T17:01:28.841Z</time></trkpt><trkpt lat="44.8033783" lon="-0.5201467"><ele>3.75</ele><time>2026-04-21T17:01:30.84Z</time></trkpt><trkpt lat="44.8032783" lon="-0.520065"><ele>4.5</ele><time>2026-04-21T17:01:32.841Z</time></trkpt><trkpt lat="44.8031567" lon="-0.5199967"><ele>5.25</ele><time>2026-04-21T17:01:34.841Z</time></trkpt><trkpt lat="44.80307" lon="-0.519925"><ele>6.0</ele><time>2026-04-21T17:01:36.841Z</time></trkpt><trkpt lat="44.802965" lon="-0.51985"><ele>6.0</ele><time>2026-04-21T17:01:38.841Z</time></trkpt><trkpt lat="44.802905" lon="-0.5198183"><ele>6.0</ele><time>2026-04-21T17:01:39.841Z</time></trkpt><trkpt lat="44.8028" lon="-0.5197467"><ele>6.0</ele><time>2026-04-21T17:01:41.841Z</time></trkpt><trkpt lat="44.8026967" lon="-0.5196917"><ele>6.0</ele><time>2026-04-21T17:01:43.84Z</time></trkpt><trkpt lat="44.8025967" lon="-0.5195933"><ele>6.0</ele><time>2026-04-21T17:01:45.841Z</time></trkpt><trkpt lat="44.8025417" lon="-0.5195433"><ele>6.0</ele><time>2026-04-21T17:01:46.841Z</time></trkpt><trkpt lat="44.8024367" lon="-0.5194667"><ele>6.0</ele><time>2026-04-21T17:01:48.841Z</time></trkpt><trkpt lat="44.8023783" lon="-0.5194283"><ele>6.0</ele><time>2026-04-21T17:01:49.841Z</time></trkpt><trkpt lat="44.80232" lon="-0.51939"><ele>6.0</ele><time>2026-04-21T17:01:50.84Z</time></trkpt><trkpt lat="44.8022083" lon="-0.5193217"><ele>6.0</ele><time>2026-04-21T17:01:52.841Z</time></trkpt><trkpt lat="44.8021" lon="-0.5192367"><ele>6.0</ele><time>2026-04-21T17:01:54.841Z</time></trkpt><trkpt lat="44.8020367" lon="-0.5192033"><ele>6.0</ele><time>2026-04-21T17:01:55.841Z</time></trkpt><trkpt lat="44.8019767" lon="-0.519175"><ele>6.0</ele><time>2026-04-21T17:01:56.841Z</time></trkpt><trkpt lat="44.801915" lon="-0.5191483"><ele>6.0</ele><time>2026-04-21T17:01:57.841Z</time></trkpt><trkpt lat="44.8017933" lon="-0.51908"><ele>6.0</ele><time>2026-04-21T17:01:59.841Z</time></trkpt><trkpt lat="44.8017283" lon="-0.51904"><ele>6.0</ele><time>2026-04-21T17:02:00.841Z</time></trkpt><trkpt lat="44.8016633" lon="-0.5190033"><ele>5.857142857142857</ele><time>2026-04-21T17:02:01.84Z</time></trkpt><trkpt lat="44.8016033" lon="-0.518965"><ele>5.714285714285714</ele><time>2026-04-21T17:02:02.841Z</time></trkpt><trkpt lat="44.801535" lon="-0.5189283"><ele>5.571428571428571</ele><time>2026-04-21T17:02:03.841Z</time></trkpt><trkpt lat="44.8014783" lon="-0.5188883"><ele>5.428571428571429</ele><time>2026-04-21T17:02:04.84Z</time></trkpt><trkpt lat="44.8014183" lon="-0.5188517"><ele>5.285714285714286</ele><time>2026-04-21T17:02:05.841Z</time></trkpt><trkpt lat="44.8013533" lon="-0.5188133"><ele>5.142857142857142</ele><time>2026-04-21T17:02:06.84Z</time></trkpt><trkpt lat="44.8012917" lon="-0.51878"><ele>5.0</ele><time>2026-04-21T17:02:07.84Z</time></trkpt><trkpt lat="44.8012317" lon="-0.5187417"><ele>4.8</ele><time>2026-04-21T17:02:08.841Z</time></trkpt><trkpt lat="44.801165" lon="-0.5186967"><ele>4.6</ele><time>2026-04-21T17:02:09.841Z</time></trkpt><trkpt lat="44.8010567" lon="-0.518625"><ele>4.4</ele><time>2026-04-21T17:02:11.841Z</time></trkpt><trkpt lat="44.8009417" lon="-0.5185633"><ele>4.2</ele><time>2026-04-21T17:02:13.84Z</time></trkpt><trkpt lat="44.8008783" lon="-0.5185267"><ele>4.0</ele><time>2026-04-21T17:02:14.841Z</time></trkpt><trkpt lat="44.8008183" lon="-0.518485"><ele>4.0</ele><time>2026-04-21T17:02:15.841Z</time></trkpt><trkpt lat="44.800755" lon="-0.5184433"><ele>3.9999999999999996</ele><time>2026-04-21T17:02:16.841Z</time></trkpt><trkpt lat="44.800695" lon="-0.5183967"><ele>4.0</ele><time>2026-04-21T17:02:17.84Z</time></trkpt><trkpt lat="44.8006333" lon="-0.5183583"><ele>4.0</ele><time>2026-04-21T17:02:18.841Z</time></trkpt><trkpt lat="44.8005733" lon="-0.5183267"><ele>3.9999999999999996</ele><time>2026-04-21T17:02:19.841Z</time></trkpt><trkpt lat="44.8005117" lon="-0.51829"><ele>4.0</ele><time>2026-04-21T17:02:20.841Z</time></trkpt><trkpt lat="44.8004467" lon="-0.5182617"><ele>4.0</ele><time>2026-04-21T17:02:21.841Z</time></trkpt><trkpt lat="44.8003817" lon="-0.518225"><ele>4.0</ele><time>2026-04-21T17:02:22.841Z</time></trkpt><trkpt lat="44.80032" lon="-0.5181983"><ele>3.9999999999999996</ele><time>2026-04-21T17:02:23.841Z</time></trkpt><trkpt lat="44.8002533" lon="-0.51816"><ele>4.0</ele><time>2026-04-21T17:02:24.841Z</time></trkpt><trkpt lat="44.8001933" lon="-0.5181183"><ele>4.0</ele><time>2026-04-21T17:02:25.841Z</time></trkpt><trkpt lat="44.8001317" lon="-0.518085"><ele>3.9999999999999996</ele><time>2026-04-21T17:02:26.84Z</time></trkpt><trkpt lat="44.80007" lon="-0.5180483"><ele>4.0</ele><time>2026-04-21T17:02:27.841Z</time></trkpt><trkpt lat="44.800005" lon="-0.5180117"><ele>4.0</ele><time>2026-04-21T17:02:28.841Z</time></trkpt><trkpt lat="44.7999467" lon="-0.5179717"><ele>3.6666666666666665</ele><time>2026-04-21T17:02:29.841Z</time></trkpt><trkpt lat="44.7998883" lon="-0.5179367"><ele>3.333333333333333</ele><time>2026-04-21T17:02:30.841Z</time></trkpt><trkpt lat="44.7998283" lon="-0.5179067"><ele>3.0</ele><time>2026-04-21T17:02:31.84Z</time></trkpt><trkpt lat="44.7997683" lon="-0.517875"><ele>2.6666666666666665</ele><time>2026-04-21T17:02:32.841Z</time></trkpt><trkpt lat="44.7996517" lon="-0.5177983"><ele>2.333333333333333</ele><time>2026-04-21T17:02:34.841Z</time></trkpt><trkpt lat="44.7995367" lon="-0.517735"><ele>2.0</ele><time>2026-04-21T17:02:36.841Z</time></trkpt><trkpt lat="44.7994783" lon="-0.5176983"><ele>2.333333333333333</ele><time>2026-04-21T17:02:37.84Z</time></trkpt><trkpt lat="44.7994133" lon="-0.5176633"><ele>2.6666666666666665</ele><time>2026-04-21T17:02:38.84Z</time></trkpt><trkpt lat="44.7993533" lon="-0.5176333"><ele>3.0</ele><time>2026-04-21T17:02:39.84Z</time></trkpt><trkpt lat="44.7992367" lon="-0.517565"><ele>3.333333333333333</ele><time>2026-04-21T17:02:41.841Z</time></trkpt><trkpt lat="44.7991767" lon="-0.517535"><ele>3.6666666666666665</ele><time>2026-04-21T17:02:42.841Z</time></trkpt><trkpt lat="44.7991167" lon="-0.517505"><ele>4.0</ele><time>2026-04-21T17:02:43.841Z</time></trkpt><trkpt lat="44.799055" lon="-0.51748"><ele>4.0</ele><time>2026-04-21T17:02:44.841Z</time></trkpt><trkpt lat="44.7989933" lon="-0.517455"><ele>4.0</ele><time>2026-04-21T17:02:45.841Z</time></trkpt><trkpt lat="44.79893" lon="-0.5174433"><ele>4.0</ele><time>2026-04-21T17:02:46.841Z</time></trkpt><trkpt lat="44.79881" lon="-0.517405"><ele>4.0</ele><time>2026-04-21T17:02:48.841Z</time></trkpt><trkpt lat="44.798685" lon="-0.5173717"><ele>4.0</ele><time>2026-04-21T17:02:50.84Z</time></trkpt><trkpt lat="44.7985733" lon="-0.5173117"><ele>4.0</ele><time>2026-04-21T17:02:52.841Z</time></trkpt><trkpt lat="44.7985117" lon="-0.5172867"><ele>3.9999999999999996</ele><time>2026-04-21T17:02:53.841Z</time></trkpt><trkpt lat="44.7984467" lon="-0.5172717"><ele>4.0</ele><time>2026-04-21T17:02:54.841Z</time></trkpt><trkpt lat="44.798385" lon="-0.51725"><ele>4.0</ele><time>2026-04-21T17:02:55.841Z</time></trkpt><trkpt lat="44.7983217" lon="-0.51723"><ele>3.9999999999999996</ele><time>2026-04-21T17:02:56.841Z</time></trkpt><trkpt lat="44.79826" lon="-0.5172083"><ele>4.0</ele><time>2026-04-21T17:02:57.84Z</time></trkpt><trkpt lat="44.7981917" lon="-0.5171883"><ele>4.0</ele><time>2026-04-21T17:02:58.841Z</time></trkpt><trkpt lat="44.7981217" lon="-0.517175"><ele>4.166666666666666</ele><time>2026-04-21T17:02:59.841Z</time></trkpt><trkpt lat="44.7980517" lon="-0.5171583"><ele>4.333333333333333</ele><time>2026-04-21T17:03:00.841Z</time></trkpt><trkpt lat="44.79798" lon="-0.5171467"><ele>4.5</ele><time>2026-04-21T17:03:01.841Z</time></trkpt><trkpt lat="44.79792" lon="-0.5171183"><ele>4.666666666666667</ele><time>2026-04-21T17:03:02.841Z</time></trkpt><trkpt lat="44.797855" lon="-0.5170933"><ele>4.833333333333334</ele><time>2026-04-21T17:03:03.84Z</time></trkpt><trkpt lat="44.7977917" lon="-0.51707"><ele>5.0</ele><time>2026-04-21T17:03:04.841Z</time></trkpt><trkpt lat="44.797665" lon="-0.51702"><ele>5.0</ele><time>2026-04-21T17:03:06.84Z</time></trkpt><trkpt lat="44.7976" lon="-0.517"><ele>5.0</ele><time>2026-04-21T17:03:07.841Z</time></trkpt><trkpt lat="44.7975333" lon="-0.5169767"><ele>5.0</ele><time>2026-04-21T17:03:08.841Z</time></trkpt><trkpt lat="44.7974133" lon="-0.5169367"><ele>5.0</ele><time>2026-04-21T17:03:10.841Z</time></trkpt><trkpt lat="44.7973483" lon="-0.5169167"><ele>5.0</ele><time>2026-04-21T17:03:11.841Z</time></trkpt><trkpt lat="44.79723" lon="-0.516885"><ele>5.0</ele><time>2026-04-21T17:03:13.841Z</time></trkpt><trkpt lat="44.79711" lon="-0.516855"><ele>5.0</ele><time>2026-04-21T17:03:15.841Z</time></trkpt><trkpt lat="44.79699" lon="-0.5168183"><ele>5.0</ele><time>2026-04-21T17:03:17.841Z</time></trkpt><trkpt lat="44.796875" lon="-0.5167733"><ele>5.0</ele><time>2026-04-21T17:03:19.841Z</time></trkpt><trkpt lat="44.7967583" lon="-0.516735"><ele>5.0</ele><time>2026-04-21T17:03:21.84Z</time></trkpt><trkpt lat="44.796635" lon="-0.5166983"><ele>4.666666666666667</ele><time>2026-04-21T17:03:23.84Z</time></trkpt><trkpt lat="44.7965117" lon="-0.516665"><ele>4.333333333333334</ele><time>2026-04-21T17:03:25.841Z</time></trkpt><trkpt lat="44.7964017" lon="-0.51663"><ele>4.0</ele><time>2026-04-21T17:03:27.84Z</time></trkpt><trkpt lat="44.7963383" lon="-0.5166083"><ele>3.666666666666667</ele><time>2026-04-21T17:03:28.84Z</time></trkpt><trkpt lat="44.7962717" lon="-0.5165917"><ele>3.3333333333333335</ele><time>2026-04-21T17:03:29.841Z</time></trkpt><trkpt lat="44.7962" lon="-0.5165667"><ele>3.0</ele><time>2026-04-21T17:03:30.841Z</time></trkpt><trkpt lat="44.7961333" lon="-0.5165417"><ele>2.9999999999999996</ele><time>2026-04-21T17:03:31.841Z</time></trkpt><trkpt lat="44.7960633" lon="-0.5165267"><ele>3.0</ele><time>2026-04-21T17:03:32.841Z</time></trkpt><trkpt lat="44.7959917" lon="-0.516515"><ele>3.0</ele><time>2026-04-21T17:03:33.841Z</time></trkpt><trkpt lat="44.795925" lon="-0.5164983"><ele>3.0</ele><time>2026-04-21T17:03:34.841Z</time></trkpt><trkpt lat="44.7958583" lon="-0.5164833"><ele>3.0</ele><time>2026-04-21T17:03:35.84Z</time></trkpt><trkpt lat="44.79579" lon="-0.5164667"><ele>2.9999999999999996</ele><time>2026-04-21T17:03:36.841Z</time></trkpt><trkpt lat="44.795725" lon="-0.5164467"><ele>3.0</ele><time>2026-04-21T17:03:37.841Z</time></trkpt><trkpt lat="44.7956633" lon="-0.516425"><ele>3.0</ele><time>2026-04-21T17:03:38.841Z</time></trkpt><trkpt lat="44.79554" lon="-0.516405"><ele>3.0</ele><time>2026-04-21T17:03:40.841Z</time></trkpt><trkpt lat="44.795415" lon="-0.51636"><ele>3.0</ele><time>2026-04-21T17:03:42.841Z</time></trkpt><trkpt lat="44.795345" lon="-0.516335"><ele>3.0</ele><time>2026-04-21T17:03:43.841Z</time></trkpt><trkpt lat="44.7952683" lon="-0.5163117"><ele>3.0</ele><time>2026-04-21T17:03:44.841Z</time></trkpt><trkpt lat="44.7951967" lon="-0.5163033"><ele>2.8333333333333335</ele><time>2026-04-21T17:03:45.841Z</time></trkpt><trkpt lat="44.7951117" lon="-0.5162933"><ele>2.6666666666666665</ele><time>2026-04-21T17:03:46.841Z</time></trkpt><trkpt lat="44.7950333" lon="-0.5162783"><ele>2.5</ele><time>2026-04-21T17:03:47.84Z</time></trkpt><trkpt lat="44.7949517" lon="-0.5162733"><ele>2.333333333333333</ele><time>2026-04-21T17:03:48.841Z</time></trkpt><trkpt lat="44.794865" lon="-0.51627"><ele>2.1666666666666665</ele><time>2026-04-21T17:03:49.841Z</time></trkpt><trkpt lat="44.794775" lon="-0.51626"><ele>2.0</ele><time>2026-04-21T17:03:50.841Z</time></trkpt><trkpt lat="44.7946833" lon="-0.51625"><ele>1.9999999999999998</ele><time>2026-04-21T17:03:51.84Z</time></trkpt><trkpt lat="44.7946017" lon="-0.5162383"><ele>2.0</ele><time>2026-04-21T17:03:52.841Z</time></trkpt><trkpt lat="44.7945117" lon="-0.5162367"><ele>2.0</ele><time>2026-04-21T17:03:53.841Z</time></trkpt><trkpt lat="44.7944183" lon="-0.51625"><ele>2.0</ele><time>2026-04-21T17:03:54.841Z</time></trkpt><trkpt lat="44.794325" lon="-0.5162533"><ele>1.9999999999999998</ele><time>2026-04-21T17:03:55.84Z</time></trkpt><trkpt lat="44.79424" lon="-0.51625"><ele>2.0</ele><time>2026-04-21T17:03:56.841Z</time></trkpt><trkpt lat="44.7941617" lon="-0.5162483"><ele>1.8333333333333333</ele><time>2026-04-21T17:03:57.841Z</time></trkpt><trkpt lat="44.7940833" lon="-0.51625"><ele>1.6666666666666665</ele><time>2026-04-21T17:03:58.841Z</time></trkpt><trkpt lat="44.7939983" lon="-0.5162483"><ele>1.5</ele><time>2026-04-21T17:03:59.841Z</time></trkpt><trkpt lat="44.7939217" lon="-0.5162467"><ele>1.3333333333333333</ele><time>2026-04-21T17:04:00.841Z</time></trkpt><trkpt lat="44.7938467" lon="-0.516245"><ele>1.1666666666666665</ele><time>2026-04-21T17:04:01.841Z</time></trkpt><trkpt lat="44.7937767" lon="-0.5162433"><ele>1.0</ele><time>2026-04-21T17:04:02.84Z</time></trkpt><trkpt lat="44.7937033" lon="-0.5162433"><ele>1.8</ele><time>2026-04-21T17:04:03.841Z</time></trkpt><trkpt lat="44.793635" lon="-0.5162317"><ele>2.6</ele><time>2026-04-21T17:04:04.841Z</time></trkpt><trkpt lat="44.7935117" lon="-0.516215"><ele>3.4</ele><time>2026-04-21T17:04:06.841Z</time></trkpt><trkpt lat="44.7933933" lon="-0.5162017"><ele>4.2</ele><time>2026-04-21T17:04:08.84Z</time></trkpt><trkpt lat="44.79327" lon="-0.5162033"><ele>5.0</ele><time>2026-04-21T17:04:10.84Z</time></trkpt><trkpt lat="44.79316" lon="-0.5161917"><ele>5.0</ele><time>2026-04-21T17:04:12.841Z</time></trkpt><trkpt lat="44.7930583" lon="-0.516185"><ele>5.0</ele><time>2026-04-21T17:04:14.841Z</time></trkpt><trkpt lat="44.7929417" lon="-0.5161933"><ele>5.0</ele><time>2026-04-21T17:04:16.841Z</time></trkpt><trkpt lat="44.79283" lon="-0.516195"><ele>5.0</ele><time>2026-04-21T17:04:18.841Z</time></trkpt><trkpt lat="44.7927167" lon="-0.5161867"><ele>5.0</ele><time>2026-04-21T17:04:20.841Z</time></trkpt><trkpt lat="44.7926133" lon="-0.5161967"><ele>4.714285714285714</ele><time>2026-04-21T17:04:22.841Z</time></trkpt><trkpt lat="44.7924917" lon="-0.5161983"><ele>4.428571428571429</ele><time>2026-04-21T17:04:24.841Z</time></trkpt><trkpt lat="44.7924267" lon="-0.5162033"><ele>4.142857142857142</ele><time>2026-04-21T17:04:25.841Z</time></trkpt><trkpt lat="44.7923633" lon="-0.516205"><ele>3.8571428571428568</ele><time>2026-04-21T17:04:26.841Z</time></trkpt><trkpt lat="44.7922983" lon="-0.5162067"><ele>3.571428571428571</ele><time>2026-04-21T17:04:27.84Z</time></trkpt><trkpt lat="44.7922317" lon="-0.516205"><ele>3.2857142857142856</ele><time>2026-04-21T17:04:28.84Z</time></trkpt><trkpt lat="44.7921683" lon="-0.51621"><ele>3.0</ele><time>2026-04-21T17:04:29.841Z</time></trkpt><trkpt lat="44.7921" lon="-0.51621"><ele>3.0</ele><time>2026-04-21T17:04:30.841Z</time></trkpt><trkpt lat="44.792035" lon="-0.5162133"><ele>3.0</ele><time>2026-04-21T17:04:31.841Z</time></trkpt><trkpt lat="44.7919117" lon="-0.5162283"><ele>3.0</ele><time>2026-04-21T17:04:33.841Z</time></trkpt><trkpt lat="44.7918467" lon="-0.5162317"><ele>3.0</ele><time>2026-04-21T17:04:34.841Z</time></trkpt><trkpt lat="44.7917783" lon="-0.5162333"><ele>3.0</ele><time>2026-04-21T17:04:35.841Z</time></trkpt><trkpt lat="44.7917117" lon="-0.5162367"><ele>3.0</ele><time>2026-04-21T17:04:36.841Z</time></trkpt><trkpt lat="44.791645" lon="-0.5162417"><ele>2.8</ele><time>2026-04-21T17:04:37.84Z</time></trkpt><trkpt lat="44.7915783" lon="-0.5162533"><ele>2.5999999999999996</ele><time>2026-04-21T17:04:38.84Z</time></trkpt><trkpt lat="44.7914583" lon="-0.516235"><ele>2.4000000000000004</ele><time>2026-04-21T17:04:40.841Z</time></trkpt><trkpt lat="44.7913433" lon="-0.5162317"><ele>2.2</ele><time>2026-04-21T17:04:42.84Z</time></trkpt><trkpt lat="44.7912217" lon="-0.516215"><ele>2.0</ele><time>2026-04-21T17:04:44.84Z</time></trkpt><trkpt lat="44.7911133" lon="-0.5162133"><ele>2.5</ele><time>2026-04-21T17:04:46.84Z</time></trkpt><trkpt lat="44.7910017" lon="-0.516205"><ele>3.0</ele><time>2026-04-21T17:04:48.84Z</time></trkpt><trkpt lat="44.7909383" lon="-0.5162033"><ele>3.5</ele><time>2026-04-21T17:04:49.84Z</time></trkpt><trkpt lat="44.7908733" lon="-0.5162067"><ele>4.0</ele><time>2026-04-21T17:04:50.84Z</time></trkpt><trkpt lat="44.790805" lon="-0.5162"><ele>4.5</ele><time>2026-04-21T17:04:51.84Z</time></trkpt><trkpt lat="44.7906833" lon="-0.5161983"><ele>5.0</ele><time>2026-04-21T17:04:53.84Z</time></trkpt><trkpt lat="44.7906167" lon="-0.5161933"><ele>5.0</ele><time>2026-04-21T17:04:54.839Z</time></trkpt><trkpt lat="44.7905533" lon="-0.5161917"><ele>5.0</ele><time>2026-04-21T17:04:55.839Z</time></trkpt><trkpt lat="44.7904883" lon="-0.51619"><ele>5.0</ele><time>2026-04-21T17:04:56.84Z</time></trkpt><trkpt lat="44.7903633" lon="-0.5162017"><ele>5.0</ele><time>2026-04-21T17:04:58.84Z</time></trkpt><trkpt lat="44.7903" lon="-0.5162017"><ele>5.0</ele><time>2026-04-21T17:04:59.839Z</time></trkpt><trkpt lat="44.790235" lon="-0.5161933"><ele>5.0</ele><time>2026-04-21T17:05:00.84Z</time></trkpt><trkpt lat="44.790165" lon="-0.5161917"><ele>5.333333333333334</ele><time>2026-04-21T17:05:01.84Z</time></trkpt><trkpt lat="44.7900433" lon="-0.51619"><ele>5.666666666666667</ele><time>2026-04-21T17:05:03.84Z</time></trkpt><trkpt lat="44.78998" lon="-0.5161933"><ele>6.0</ele><time>2026-04-21T17:05:04.84Z</time></trkpt><trkpt lat="44.7899117" lon="-0.516195"><ele>6.333333333333334</ele><time>2026-04-21T17:05:05.84Z</time></trkpt><trkpt lat="44.789845" lon="-0.5161967"><ele>6.666666666666667</ele><time>2026-04-21T17:05:06.84Z</time></trkpt><trkpt lat="44.789775" lon="-0.5161883"><ele>7.0</ele><time>2026-04-21T17:05:07.839Z</time></trkpt><trkpt lat="44.7897117" lon="-0.5161817"><ele>7.000000000000001</ele><time>2026-04-21T17:05:08.84Z</time></trkpt><trkpt lat="44.7895867" lon="-0.5161483"><ele>7.0</ele><time>2026-04-21T17:05:10.84Z</time></trkpt><trkpt lat="44.7895233" lon="-0.516125"><ele>7.0</ele><time>2026-04-21T17:05:11.84Z</time></trkpt><trkpt lat="44.78945" lon="-0.5161033"><ele>7.0</ele><time>2026-04-21T17:05:12.84Z</time></trkpt><trkpt lat="44.7893817" lon="-0.5160833"><ele>7.000000000000001</ele><time>2026-04-21T17:05:13.84Z</time></trkpt><trkpt lat="44.7893083" lon="-0.5160617"><ele>7.0</ele><time>2026-04-21T17:05:14.84Z</time></trkpt><trkpt lat="44.7892383" lon="-0.51604"><ele>6.666666666666667</ele><time>2026-04-21T17:05:15.84Z</time></trkpt><trkpt lat="44.7891717" lon="-0.516025"><ele>6.333333333333334</ele><time>2026-04-21T17:05:16.84Z</time></trkpt><trkpt lat="44.7891067" lon="-0.516015"><ele>6.0</ele><time>2026-04-21T17:05:17.84Z</time></trkpt><trkpt lat="44.7890417" lon="-0.5160117"><ele>5.666666666666667</ele><time>2026-04-21T17:05:18.84Z</time></trkpt><trkpt lat="44.788915" lon="-0.5159933"><ele>5.333333333333334</ele><time>2026-04-21T17:05:20.839Z</time></trkpt><trkpt lat="44.78885" lon="-0.5159867"><ele>5.0</ele><time>2026-04-21T17:05:21.839Z</time></trkpt><trkpt lat="44.788775" lon="-0.51599"><ele>5.0</ele><time>2026-04-21T17:05:22.84Z</time></trkpt><trkpt lat="44.788705" lon="-0.51599"><ele>5.0</ele><time>2026-04-21T17:05:23.84Z</time></trkpt><trkpt lat="44.7886333" lon="-0.5159867"><ele>5.0</ele><time>2026-04-21T17:05:24.84Z</time></trkpt><trkpt lat="44.7885683" lon="-0.5159867"><ele>5.0</ele><time>2026-04-21T17:05:25.839Z</time></trkpt><trkpt lat="44.7885" lon="-0.5159917"><ele>5.0</ele><time>2026-04-21T17:05:26.84Z</time></trkpt><trkpt lat="44.78843" lon="-0.5159983"><ele>5.0</ele><time>2026-04-21T17:05:27.84Z</time></trkpt><trkpt lat="44.788365" lon="-0.516005"><ele>5.0</ele><time>2026-04-21T17:05:28.84Z</time></trkpt><trkpt lat="44.788295" lon="-0.5160133"><ele>4.714285714285714</ele><time>2026-04-21T17:05:29.84Z</time></trkpt><trkpt lat="44.7882217" lon="-0.5160133"><ele>4.428571428571429</ele><time>2026-04-21T17:05:30.84Z</time></trkpt><trkpt lat="44.7881517" lon="-0.516015"><ele>4.142857142857142</ele><time>2026-04-21T17:05:31.84Z</time></trkpt><trkpt lat="44.788085" lon="-0.5160133"><ele>3.8571428571428568</ele><time>2026-04-21T17:05:32.84Z</time></trkpt><trkpt lat="44.7880133" lon="-0.5160117"><ele>3.571428571428571</ele><time>2026-04-21T17:05:33.84Z</time></trkpt><trkpt lat="44.7879433" lon="-0.5160167"><ele>3.2857142857142856</ele><time>2026-04-21T17:05:34.839Z</time></trkpt><trkpt lat="44.7878767" lon="-0.5160167"><ele>3.0</ele><time>2026-04-21T17:05:35.839Z</time></trkpt><trkpt lat="44.78781" lon="-0.5160217"><ele>3.0</ele><time>2026-04-21T17:05:36.84Z</time></trkpt><trkpt lat="44.7876833" lon="-0.516025"><ele>3.0</ele><time>2026-04-21T17:05:38.839Z</time></trkpt><trkpt lat="44.787565" lon="-0.5160283"><ele>3.0</ele><time>2026-04-21T17:05:40.84Z</time></trkpt><trkpt lat="44.7874983" lon="-0.5160267"><ele>3.0</ele><time>2026-04-21T17:05:41.84Z</time></trkpt><trkpt lat="44.7874317" lon="-0.5160283"><ele>3.0</ele><time>2026-04-21T17:05:42.839Z</time></trkpt><trkpt lat="44.7873617" lon="-0.5160183"><ele>3.0</ele><time>2026-04-21T17:05:43.84Z</time></trkpt><trkpt lat="44.7872967" lon="-0.5160083"><ele>3.1428571428571423</ele><time>2026-04-21T17:05:44.84Z</time></trkpt><trkpt lat="44.78723" lon="-0.516005"><ele>3.2857142857142856</ele><time>2026-04-21T17:05:45.84Z</time></trkpt><trkpt lat="44.7871667" lon="-0.5160117"><ele>3.4285714285714284</ele><time>2026-04-21T17:05:46.84Z</time></trkpt><trkpt lat="44.7871017" lon="-0.5160033"><ele>3.571428571428571</ele><time>2026-04-21T17:05:47.84Z</time></trkpt><trkpt lat="44.7870367" lon="-0.5159917"><ele>3.714285714285714</ele><time>2026-04-21T17:05:48.839Z</time></trkpt><trkpt lat="44.7869633" lon="-0.5159817"><ele>3.8571428571428568</ele><time>2026-04-21T17:05:49.839Z</time></trkpt><trkpt lat="44.7868967" lon="-0.5159717"><ele>4.0</ele><time>2026-04-21T17:05:50.84Z</time></trkpt><trkpt lat="44.7868317" lon="-0.51596"><ele>4.142857142857142</ele><time>2026-04-21T17:05:51.84Z</time></trkpt><trkpt lat="44.78676" lon="-0.5159417"><ele>4.285714285714286</ele><time>2026-04-21T17:05:52.84Z</time></trkpt><trkpt lat="44.786695" lon="-0.5159333"><ele>4.428571428571429</ele><time>2026-04-21T17:05:53.84Z</time></trkpt><trkpt lat="44.7866283" lon="-0.51593"><ele>4.571428571428571</ele><time>2026-04-21T17:05:54.84Z</time></trkpt><trkpt lat="44.7865583" lon="-0.5159233"><ele>4.714285714285714</ele><time>2026-04-21T17:05:55.839Z</time></trkpt><trkpt lat="44.78649" lon="-0.5159217"><ele>4.857142857142857</ele><time>2026-04-21T17:05:56.84Z</time></trkpt><trkpt lat="44.7864217" lon="-0.515915"><ele>5.0</ele><time>2026-04-21T17:05:57.84Z</time></trkpt><trkpt lat="44.7863567" lon="-0.5159033"><ele>5.0</ele><time>2026-04-21T17:05:58.839Z</time></trkpt><trkpt lat="44.786285" lon="-0.51589"><ele>5.0</ele><time>2026-04-21T17:05:59.84Z</time></trkpt><trkpt lat="44.7862167" lon="-0.51588"><ele>5.0</ele><time>2026-04-21T17:06:00.84Z</time></trkpt><trkpt lat="44.78614" lon="-0.5158667"><ele>5.0</ele><time>2026-04-21T17:06:01.84Z</time></trkpt><trkpt lat="44.786065" lon="-0.5158517"><ele>5.0</ele><time>2026-04-21T17:06:02.84Z</time></trkpt><trkpt lat="44.7859933" lon="-0.5158467"><ele>5.0</ele><time>2026-04-21T17:06:03.84Z</time></trkpt><trkpt lat="44.7859217" lon="-0.51584"><ele>5.0</ele><time>2026-04-21T17:06:04.84Z</time></trkpt><trkpt lat="44.7858583" lon="-0.51583"><ele>4.571428571428571</ele><time>2026-04-21T17:06:05.839Z</time></trkpt><trkpt lat="44.7857883" lon="-0.5158267"><ele>4.142857142857143</ele><time>2026-04-21T17:06:06.84Z</time></trkpt><trkpt lat="44.7857183" lon="-0.5158233"><ele>3.7142857142857144</ele><time>2026-04-21T17:06:07.84Z</time></trkpt><trkpt lat="44.7856517" lon="-0.5158133"><ele>3.2857142857142856</ele><time>2026-04-21T17:06:08.84Z</time></trkpt><trkpt lat="44.7855883" lon="-0.5158017"><ele>2.8571428571428568</ele><time>2026-04-21T17:06:09.839Z</time></trkpt><trkpt lat="44.7855233" lon="-0.5157883"><ele>2.4285714285714284</ele><time>2026-04-21T17:06:10.84Z</time></trkpt><trkpt lat="44.7854583" lon="-0.515775"><ele>2.0</ele><time>2026-04-21T17:06:11.84Z</time></trkpt><trkpt lat="44.785395" lon="-0.5157683"><ele>2.0</ele><time>2026-04-21T17:06:12.84Z</time></trkpt><trkpt lat="44.7853283" lon="-0.5157583"><ele>1.9999999999999998</ele><time>2026-04-21T17:06:13.84Z</time></trkpt><trkpt lat="44.7852617" lon="-0.515745"><ele>2.0</ele><time>2026-04-21T17:06:14.84Z</time></trkpt><trkpt lat="44.7851967" lon="-0.5157317"><ele>2.0</ele><time>2026-04-21T17:06:15.84Z</time></trkpt><trkpt lat="44.7851283" lon="-0.51572"><ele>1.9999999999999998</ele><time>2026-04-21T17:06:16.84Z</time></trkpt><trkpt lat="44.7850633" lon="-0.5157067"><ele>2.0</ele><time>2026-04-21T17:06:17.839Z</time></trkpt><trkpt lat="44.7849983" lon="-0.5156917"><ele>2.0</ele><time>2026-04-21T17:06:18.84Z</time></trkpt><trkpt lat="44.7849333" lon="-0.5156833"><ele>2.1666666666666665</ele><time>2026-04-21T17:06:19.839Z</time></trkpt><trkpt lat="44.7848683" lon="-0.5156733"><ele>2.333333333333333</ele><time>2026-04-21T17:06:20.84Z</time></trkpt><trkpt lat="44.784805" lon="-0.5156583"><ele>2.5</ele><time>2026-04-21T17:06:21.84Z</time></trkpt><trkpt lat="44.784735" lon="-0.5156517"><ele>2.6666666666666665</ele><time>2026-04-21T17:06:22.84Z</time></trkpt><trkpt lat="44.78461" lon="-0.5156317"><ele>2.8333333333333335</ele><time>2026-04-21T17:06:24.84Z</time></trkpt><trkpt lat="44.784545" lon="-0.5156217"><ele>3.0</ele><time>2026-04-21T17:06:25.84Z</time></trkpt><trkpt lat="44.7844267" lon="-0.5156067"><ele>3.0</ele><time>2026-04-21T17:06:27.84Z</time></trkpt><trkpt lat="44.784315" lon="-0.5155933"><ele>3.0</ele><time>2026-04-21T17:06:29.84Z</time></trkpt><trkpt lat="44.7842217" lon="-0.5155217"><ele>3.0</ele><time>2026-04-21T17:06:31.84Z</time></trkpt><trkpt lat="44.7841583" lon="-0.5154067"><ele>3.0</ele><time>2026-04-21T17:06:33.839Z</time></trkpt><trkpt lat="44.7841583" lon="-0.5152417"><ele>3.0</ele><time>2026-04-21T17:06:35.84Z</time></trkpt><trkpt lat="44.7841683" lon="-0.5151517"><ele>3.2</ele><time>2026-04-21T17:06:36.839Z</time></trkpt><trkpt lat="44.78417" lon="-0.5150583"><ele>3.4</ele><time>2026-04-21T17:06:37.839Z</time></trkpt><trkpt lat="44.7841767" lon="-0.5148917"><ele>3.6000000000000005</ele><time>2026-04-21T17:06:39.84Z</time></trkpt><trkpt lat="44.7841783" lon="-0.5147383"><ele>3.8000000000000003</ele><time>2026-04-21T17:06:41.839Z</time></trkpt><trkpt lat="44.784175" lon="-0.5146483"><ele>4.0</ele><time>2026-04-21T17:06:42.84Z</time></trkpt><trkpt lat="44.7841717" lon="-0.51448"><ele>5.5</ele><time>2026-04-21T17:06:44.84Z</time></trkpt><trkpt lat="44.7841733" lon="-0.514305"><ele>7.0</ele><time>2026-04-21T17:06:46.84Z</time></trkpt><trkpt lat="44.7841783" lon="-0.5141333"><ele>8.5</ele><time>2026-04-21T17:06:48.839Z</time></trkpt><trkpt lat="44.7841817" lon="-0.5139667"><ele>10.0</ele><time>2026-04-21T17:06:50.84Z</time></trkpt><trkpt lat="44.784185" lon="-0.5138"><ele>10.166666666666668</ele><time>2026-04-21T17:06:52.84Z</time></trkpt><trkpt lat="44.7841883" lon="-0.5136333"><ele>10.333333333333334</ele><time>2026-04-21T17:06:54.84Z</time></trkpt><trkpt lat="44.7841883" lon="-0.5135433"><ele>10.5</ele><time>2026-04-21T17:06:55.839Z</time></trkpt><trkpt lat="44.784195" lon="-0.513365"><ele>10.666666666666666</ele><time>2026-04-21T17:06:57.839Z</time></trkpt><trkpt lat="44.7841967" lon="-0.513275"><ele>10.833333333333332</ele><time>2026-04-21T17:06:58.84Z</time></trkpt><trkpt lat="44.7841967" lon="-0.5131767"><ele>11.0</ele><time>2026-04-21T17:06:59.84Z</time></trkpt><trkpt lat="44.7841933" lon="-0.5130817"><ele>11.0</ele><time>2026-04-21T17:07:00.84Z</time></trkpt><trkpt lat="44.7841933" lon="-0.512985"><ele>11.0</ele><time>2026-04-21T17:07:01.84Z</time></trkpt><trkpt lat="44.7841983" lon="-0.5128933"><ele>11.0</ele><time>2026-04-21T17:07:02.84Z</time></trkpt><trkpt lat="44.7842017" lon="-0.5127983"><ele>11.0</ele><time>2026-04-21T17:07:03.84Z</time></trkpt><trkpt lat="44.7842017" lon="-0.5127033"><ele>11.0</ele><time>2026-04-21T17:07:04.84Z</time></trkpt><trkpt lat="44.7842017" lon="-0.5126117"><ele>11.0</ele><time>2026-04-21T17:07:05.84Z</time></trkpt><trkpt lat="44.7841983" lon="-0.5125183"><ele>11.0</ele><time>2026-04-21T17:07:06.839Z</time></trkpt><trkpt lat="44.7841717" lon="-0.5123467"><ele>10.0</ele><time>2026-04-21T17:07:08.84Z</time></trkpt><trkpt lat="44.7841583" lon="-0.5122517"><ele>9.0</ele><time>2026-04-21T17:07:09.84Z</time></trkpt><trkpt lat="44.7841583" lon="-0.5121567"><ele>8.0</ele><time>2026-04-21T17:07:10.84Z</time></trkpt><trkpt lat="44.7841617" lon="-0.5120583"><ele>7.0</ele><time>2026-04-21T17:07:11.839Z</time></trkpt><trkpt lat="44.7841667" lon="-0.51196"><ele>6.0</ele><time>2026-04-21T17:07:12.84Z</time></trkpt><trkpt lat="44.7841683" lon="-0.5118683"><ele>5.0</ele><time>2026-04-21T17:07:13.84Z</time></trkpt><trkpt lat="44.7841667" lon="-0.5117683"><ele>4.0</ele><time>2026-04-21T17:07:14.84Z</time></trkpt><trkpt lat="44.7841633" lon="-0.511675"><ele>4.0</ele><time>2026-04-21T17:07:15.84Z</time></trkpt><trkpt lat="44.78416" lon="-0.511585"><ele>3.9999999999999996</ele><time>2026-04-21T17:07:16.839Z</time></trkpt><trkpt lat="44.7841583" lon="-0.511485"><ele>4.0</ele><time>2026-04-21T17:07:17.84Z</time></trkpt><trkpt lat="44.78416" lon="-0.5113933"><ele>4.0</ele><time>2026-04-21T17:07:18.84Z</time></trkpt><trkpt lat="44.7841617" lon="-0.51129"><ele>3.9999999999999996</ele><time>2026-04-21T17:07:19.84Z</time></trkpt><trkpt lat="44.7841583" lon="-0.511195"><ele>4.0</ele><time>2026-04-21T17:07:20.84Z</time></trkpt><trkpt lat="44.784155" lon="-0.511105"><ele>4.0</ele><time>2026-04-21T17:07:21.84Z</time></trkpt><trkpt lat="44.78414" lon="-0.51092"><ele>3.9999999999999996</ele><time>2026-04-21T17:07:23.84Z</time></trkpt><trkpt lat="44.7841233" lon="-0.5107433"><ele>4.0</ele><time>2026-04-21T17:07:25.84Z</time></trkpt><trkpt lat="44.784115" lon="-0.510655"><ele>4.0</ele><time>2026-04-21T17:07:26.84Z</time></trkpt><trkpt lat="44.784115" lon="-0.5104783"><ele>4.0</ele><time>2026-04-21T17:07:28.84Z</time></trkpt><trkpt lat="44.78411" lon="-0.5103833"><ele>3.9999999999999996</ele><time>2026-04-21T17:07:29.84Z</time></trkpt><trkpt lat="44.7841067" lon="-0.5102917"><ele>4.0</ele><time>2026-04-21T17:07:30.84Z</time></trkpt><trkpt lat="44.7841067" lon="-0.5101967"><ele>4.166666666666666</ele><time>2026-04-21T17:07:31.84Z</time></trkpt><trkpt lat="44.784105" lon="-0.5101033"><ele>4.333333333333333</ele><time>2026-04-21T17:07:32.839Z</time></trkpt><trkpt lat="44.784105" lon="-0.5099217"><ele>4.5</ele><time>2026-04-21T17:07:34.84Z</time></trkpt><trkpt lat="44.78411" lon="-0.5098317"><ele>4.666666666666667</ele><time>2026-04-21T17:07:35.84Z</time></trkpt><trkpt lat="44.784115" lon="-0.5097383"><ele>4.833333333333334</ele><time>2026-04-21T17:07:36.84Z</time></trkpt><trkpt lat="44.784115" lon="-0.5096483"><ele>5.0</ele><time>2026-04-21T17:07:37.84Z</time></trkpt><trkpt lat="44.7841167" lon="-0.5095583"><ele>5.0</ele><time>2026-04-21T17:07:38.84Z</time></trkpt><trkpt lat="44.7841167" lon="-0.5094633"><ele>5.0</ele><time>2026-04-21T17:07:39.84Z</time></trkpt><trkpt lat="44.7841167" lon="-0.5093667"><ele>5.0</ele><time>2026-04-21T17:07:40.84Z</time></trkpt><trkpt lat="44.7841283" lon="-0.5091867"><ele>5.0</ele><time>2026-04-21T17:07:42.84Z</time></trkpt><trkpt lat="44.7841333" lon="-0.50901"><ele>5.0</ele><time>2026-04-21T17:07:44.84Z</time></trkpt><trkpt lat="44.7841367" lon="-0.508915"><ele>5.0</ele><time>2026-04-21T17:07:45.84Z</time></trkpt><trkpt lat="44.7841367" lon="-0.5088217"><ele>5.0</ele><time>2026-04-21T17:07:46.839Z</time></trkpt><trkpt lat="44.7841467" lon="-0.5086383"><ele>5.0</ele><time>2026-04-21T17:07:48.84Z</time></trkpt><trkpt lat="44.7841483" lon="-0.5085483"><ele>5.0</ele><time>2026-04-21T17:07:49.84Z</time></trkpt><trkpt lat="44.78416" lon="-0.50837"><ele>5.0</ele><time>2026-04-21T17:07:51.84Z</time></trkpt><trkpt lat="44.784165" lon="-0.5082767"><ele>4.666666666666667</ele><time>2026-04-21T17:07:52.84Z</time></trkpt><trkpt lat="44.784165" lon="-0.5081817"><ele>4.333333333333334</ele><time>2026-04-21T17:07:53.84Z</time></trkpt><trkpt lat="44.7841717" lon="-0.508"><ele>4.0</ele><time>2026-04-21T17:07:55.84Z</time></trkpt><trkpt lat="44.784175" lon="-0.507905"><ele>3.666666666666667</ele><time>2026-04-21T17:07:56.84Z</time></trkpt><trkpt lat="44.7841767" lon="-0.50781"><ele>3.3333333333333335</ele><time>2026-04-21T17:07:57.84Z</time></trkpt><trkpt lat="44.78418" lon="-0.5077117"><ele>3.0</ele><time>2026-04-21T17:07:58.84Z</time></trkpt><trkpt lat="44.784185" lon="-0.5076183"><ele>2.9999999999999996</ele><time>2026-04-21T17:07:59.84Z</time></trkpt><trkpt lat="44.784195" lon="-0.5075267"><ele>3.0</ele><time>2026-04-21T17:08:00.84Z</time></trkpt><trkpt lat="44.7842033" lon="-0.5074383"><ele>3.0</ele><time>2026-04-21T17:08:01.84Z</time></trkpt><trkpt lat="44.7842117" lon="-0.50735"><ele>3.0</ele><time>2026-04-21T17:08:02.839Z</time></trkpt><trkpt lat="44.7842317" lon="-0.5072617"><ele>3.0</ele><time>2026-04-21T17:08:03.84Z</time></trkpt><trkpt lat="44.7842583" lon="-0.5070983"><ele>2.9999999999999996</ele><time>2026-04-21T17:08:05.84Z</time></trkpt><trkpt lat="44.78427" lon="-0.50701"><ele>3.0</ele><time>2026-04-21T17:08:06.84Z</time></trkpt><trkpt lat="44.7843033" lon="-0.506865"><ele>3.0</ele><time>2026-04-21T17:08:08.84Z</time></trkpt><trkpt lat="44.78434" lon="-0.5067517"><ele>3.0</ele><time>2026-04-21T17:08:10.84Z</time></trkpt><trkpt lat="44.7843467" lon="-0.50665"><ele>3.0</ele><time>2026-04-21T17:08:12.84Z</time></trkpt><trkpt lat="44.7842783" lon="-0.5065917"><ele>3.0</ele><time>2026-04-21T17:08:14.84Z</time></trkpt><trkpt lat="44.7841983" lon="-0.5065283"><ele>3.0</ele><time>2026-04-21T17:08:16.84Z</time></trkpt><trkpt lat="44.78412" lon="-0.50647"><ele>3.0</ele><time>2026-04-21T17:08:18.84Z</time></trkpt><trkpt lat="44.784055" lon="-0.506415"><ele>3.0</ele><time>2026-04-21T17:08:20.84Z</time></trkpt><trkpt lat="44.7840017" lon="-0.5063333"><ele>3.0</ele><time>2026-04-21T17:08:23.84Z</time></trkpt><trkpt lat="44.7840933" lon="-0.506355"><ele>3.0</ele><time>2026-04-21T17:08:27.84Z</time></trkpt><trkpt lat="44.7841533" lon="-0.5064383"><ele>3.0</ele><time>2026-04-21T17:08:29.839Z</time></trkpt><trkpt lat="44.78423" lon="-0.506525"><ele>3.0</ele><time>2026-04-21T17:08:31.839Z</time></trkpt><trkpt lat="44.784305" lon="-0.50659"><ele>3.0</ele><time>2026-04-21T17:08:33.84Z</time></trkpt><trkpt lat="44.78439" lon="-0.50658"><ele>3.0</ele><time>2026-04-21T17:08:35.839Z</time></trkpt><trkpt lat="44.7844567" lon="-0.5065133"><ele>3.0</ele><time>2026-04-21T17:08:37.84Z</time></trkpt><trkpt lat="44.7844983" lon="-0.5064367"><ele>3.0</ele><time>2026-04-21T17:08:39.839Z</time></trkpt><trkpt lat="44.7845283" lon="-0.5063167"><ele>3.0</ele><time>2026-04-21T17:08:41.84Z</time></trkpt><trkpt lat="44.7845583" lon="-0.5061883"><ele>3.0</ele><time>2026-04-21T17:08:43.84Z</time></trkpt><trkpt lat="44.7845517" lon="-0.5060483"><ele>3.0</ele><time>2026-04-21T17:08:45.84Z</time></trkpt><trkpt lat="44.784515" lon="-0.5059083"><ele>3.0</ele><time>2026-04-21T17:08:47.84Z</time></trkpt><trkpt lat="44.7844917" lon="-0.505775"><ele>3.0</ele><time>2026-04-21T17:08:49.84Z</time></trkpt><trkpt lat="44.784445" lon="-0.50565"><ele>3.0</ele><time>2026-04-21T17:08:51.84Z</time></trkpt><trkpt lat="44.7843483" lon="-0.5055483"><ele>3.0</ele><time>2026-04-21T17:08:53.84Z</time></trkpt><trkpt lat="44.7842933" lon="-0.5055017"><ele>3.0</ele><time>2026-04-21T17:08:54.839Z</time></trkpt><trkpt lat="44.7842" lon="-0.5054167"><ele>3.0</ele><time>2026-04-21T17:08:56.839Z</time></trkpt><trkpt lat="44.7841267" lon="-0.5053467"><ele>3.0</ele><time>2026-04-21T17:08:59.84Z</time></trkpt><trkpt lat="44.7841567" lon="-0.5052467"><ele>3.0</ele><time>2026-04-21T17:09:06.84Z</time></trkpt><trkpt lat="44.7842133" lon="-0.5051483"><ele>3.0</ele><time>2026-04-21T17:09:09.84Z</time></trkpt><trkpt lat="44.7842767" lon="-0.5051683"><ele>3.0</ele><time>2026-04-21T17:09:11.84Z</time></trkpt><trkpt lat="44.7843533" lon="-0.50523"><ele>3.0</ele><time>2026-04-21T17:09:13.84Z</time></trkpt><trkpt lat="44.7844383" lon="-0.5052967"><ele>3.0</ele><time>2026-04-21T17:09:15.84Z</time></trkpt><trkpt lat="44.7845283" lon="-0.505365"><ele>3.0</ele><time>2026-04-21T17:09:17.84Z</time></trkpt><trkpt lat="44.78463" lon="-0.5053983"><ele>3.0</ele><time>2026-04-21T17:09:19.84Z</time></trkpt><trkpt lat="44.7847317" lon="-0.50536"><ele>3.0</ele><time>2026-04-21T17:09:21.84Z</time></trkpt><trkpt lat="44.7847933" lon="-0.5052483"><ele>3.0</ele><time>2026-04-21T17:09:23.84Z</time></trkpt><trkpt lat="44.7848267" lon="-0.5050983"><ele>3.0</ele><time>2026-04-21T17:09:25.84Z</time></trkpt><trkpt lat="44.7848467" lon="-0.5049617"><ele>3.0</ele><time>2026-04-21T17:09:27.84Z</time></trkpt><trkpt lat="44.7848667" lon="-0.5048233"><ele>3.0</ele><time>2026-04-21T17:09:29.838Z</time></trkpt><trkpt lat="44.7849017" lon="-0.5047017"><ele>3.0</ele><time>2026-04-21T17:09:31.838Z</time></trkpt><trkpt lat="44.7849483" lon="-0.5045833"><ele>3.0</ele><time>2026-04-21T17:09:33.839Z</time></trkpt><trkpt lat="44.7849983" lon="-0.50446"><ele>3.25</ele><time>2026-04-21T17:09:35.839Z</time></trkpt><trkpt lat="44.7850483" lon="-0.5043117"><ele>3.5</ele><time>2026-04-21T17:09:37.838Z</time></trkpt><trkpt lat="44.7850933" lon="-0.504165"><ele>3.75</ele><time>2026-04-21T17:09:39.839Z</time></trkpt><trkpt lat="44.7851433" lon="-0.504025"><ele>4.0</ele><time>2026-04-21T17:09:41.839Z</time></trkpt><trkpt lat="44.7851933" lon="-0.50388"><ele>4.0</ele><time>2026-04-21T17:09:43.839Z</time></trkpt><trkpt lat="44.785235" lon="-0.503725"><ele>4.0</ele><time>2026-04-21T17:09:45.839Z</time></trkpt><trkpt lat="44.7852833" lon="-0.503575"><ele>4.0</ele><time>2026-04-21T17:09:47.838Z</time></trkpt><trkpt lat="44.78533" lon="-0.5034267"><ele>4.0</ele><time>2026-04-21T17:09:49.839Z</time></trkpt><trkpt lat="44.7853833" lon="-0.5032783"><ele>3.9999999999999996</ele><time>2026-04-21T17:09:51.839Z</time></trkpt><trkpt lat="44.7854083" lon="-0.5031933"><ele>4.0</ele><time>2026-04-21T17:09:52.839Z</time></trkpt><trkpt lat="44.7854367" lon="-0.5031117"><ele>4.0</ele><time>2026-04-21T17:09:53.839Z</time></trkpt><trkpt lat="44.7854883" lon="-0.50295"><ele>4.0</ele><time>2026-04-21T17:09:55.839Z</time></trkpt><trkpt lat="44.7855367" lon="-0.5027883"><ele>3.9999999999999996</ele><time>2026-04-21T17:09:57.839Z</time></trkpt><trkpt lat="44.7855667" lon="-0.5027067"><ele>4.0</ele><time>2026-04-21T17:09:58.839Z</time></trkpt><trkpt lat="44.78562" lon="-0.5025417"><ele>4.2</ele><time>2026-04-21T17:10:00.838Z</time></trkpt><trkpt lat="44.78565" lon="-0.5024567"><ele>4.4</ele><time>2026-04-21T17:10:01.839Z</time></trkpt><trkpt lat="44.7857017" lon="-0.5023"><ele>4.6</ele><time>2026-04-21T17:10:03.839Z</time></trkpt><trkpt lat="44.7857483" lon="-0.50215"><ele>4.8</ele><time>2026-04-21T17:10:05.838Z</time></trkpt><trkpt lat="44.7857833" lon="-0.5019983"><ele>5.0</ele><time>2026-04-21T17:10:07.839Z</time></trkpt><trkpt lat="44.7858017" lon="-0.501865"><ele>5.0</ele><time>2026-04-21T17:10:09.839Z</time></trkpt><trkpt lat="44.785755" lon="-0.5017617"><ele>5.0</ele><time>2026-04-21T17:10:11.839Z</time></trkpt><trkpt lat="44.785665" lon="-0.5016783"><ele>5.0</ele><time>2026-04-21T17:10:13.838Z</time></trkpt><trkpt lat="44.785575" lon="-0.501585"><ele>5.0</ele><time>2026-04-21T17:10:15.838Z</time></trkpt><trkpt lat="44.7854617" lon="-0.5015067"><ele>5.0</ele><time>2026-04-21T17:10:17.839Z</time></trkpt><trkpt lat="44.7853783" lon="-0.5014067"><ele>5.0</ele><time>2026-04-21T17:10:19.839Z</time></trkpt><trkpt lat="44.7852833" lon="-0.5013"><ele>5.0</ele><time>2026-04-21T17:10:21.839Z</time></trkpt><trkpt lat="44.7852283" lon="-0.501245"><ele>5.0</ele><time>2026-04-21T17:10:22.838Z</time></trkpt><trkpt lat="44.78517" lon="-0.5012017"><ele>5.0</ele><time>2026-04-21T17:10:23.839Z</time></trkpt><trkpt lat="44.78512" lon="-0.50114"><ele>5.0</ele><time>2026-04-21T17:10:24.839Z</time></trkpt><trkpt lat="44.7850217" lon="-0.50103"><ele>5.0</ele><time>2026-04-21T17:10:26.839Z</time></trkpt><trkpt lat="44.7849717" lon="-0.5009667"><ele>5.333333333333334</ele><time>2026-04-21T17:10:27.839Z</time></trkpt><trkpt lat="44.7849217" lon="-0.5009033"><ele>5.666666666666667</ele><time>2026-04-21T17:10:28.839Z</time></trkpt><trkpt lat="44.7848733" lon="-0.500835"><ele>6.0</ele><time>2026-04-21T17:10:29.839Z</time></trkpt><trkpt lat="44.7848217" lon="-0.500765"><ele>6.333333333333334</ele><time>2026-04-21T17:10:30.839Z</time></trkpt><trkpt lat="44.7847667" lon="-0.5006983"><ele>6.666666666666667</ele><time>2026-04-21T17:10:31.839Z</time></trkpt><trkpt lat="44.7847117" lon="-0.500635"><ele>7.0</ele><time>2026-04-21T17:10:32.839Z</time></trkpt><trkpt lat="44.7846183" lon="-0.5005267"><ele>7.0</ele><time>2026-04-21T17:10:34.838Z</time></trkpt><trkpt lat="44.78457" lon="-0.500465"><ele>6.999999999999999</ele><time>2026-04-21T17:10:35.838Z</time></trkpt><trkpt lat="44.7844717" lon="-0.5003533"><ele>6.999999999999999</ele><time>2026-04-21T17:10:37.839Z</time></trkpt><trkpt lat="44.7843733" lon="-0.500245"><ele>7.0</ele><time>2026-04-21T17:10:39.839Z</time></trkpt><trkpt lat="44.7843183" lon="-0.5001867"><ele>7.0</ele><time>2026-04-21T17:10:40.838Z</time></trkpt><trkpt lat="44.784265" lon="-0.500125"><ele>6.666666666666667</ele><time>2026-04-21T17:10:41.839Z</time></trkpt><trkpt lat="44.78421" lon="-0.5000667"><ele>6.333333333333334</ele><time>2026-04-21T17:10:42.839Z</time></trkpt><trkpt lat="44.7841567" lon="-0.5000083"><ele>6.0</ele><time>2026-04-21T17:10:43.839Z</time></trkpt><trkpt lat="44.7840567" lon="-0.4998933"><ele>5.666666666666667</ele><time>2026-04-21T17:10:45.839Z</time></trkpt><trkpt lat="44.7840017" lon="-0.4998367"><ele>5.333333333333334</ele><time>2026-04-21T17:10:46.839Z</time></trkpt><trkpt lat="44.7839533" lon="-0.4997783"><ele>5.0</ele><time>2026-04-21T17:10:47.839Z</time></trkpt><trkpt lat="44.7838617" lon="-0.4996733"><ele>5.0</ele><time>2026-04-21T17:10:49.839Z</time></trkpt><trkpt lat="44.783795" lon="-0.499585"><ele>5.0</ele><time>2026-04-21T17:10:51.838Z</time></trkpt><trkpt lat="44.7837483" lon="-0.4995167"><ele>5.0</ele><time>2026-04-21T17:10:53.838Z</time></trkpt><trkpt lat="44.7837083" lon="-0.499445"><ele>5.0</ele><time>2026-04-21T17:10:55.839Z</time></trkpt><trkpt lat="44.7836667" lon="-0.4993767"><ele>5.0</ele><time>2026-04-21T17:10:57.839Z</time></trkpt><trkpt lat="44.7836233" lon="-0.4992983"><ele>5.0</ele><time>2026-04-21T17:10:59.839Z</time></trkpt><trkpt lat="44.7835683" lon="-0.499215"><ele>5.0</ele><time>2026-04-21T17:11:01.839Z</time></trkpt><trkpt lat="44.7835133" lon="-0.49911"><ele>4.8</ele><time>2026-04-21T17:11:03.839Z</time></trkpt><trkpt lat="44.7834467" lon="-0.4989783"><ele>4.6</ele><time>2026-04-21T17:11:05.839Z</time></trkpt><trkpt lat="44.7834067" lon="-0.498905"><ele>4.4</ele><time>2026-04-21T17:11:06.838Z</time></trkpt><trkpt lat="44.7833383" lon="-0.49876"><ele>4.2</ele><time>2026-04-21T17:11:08.839Z</time></trkpt><trkpt lat="44.7832883" lon="-0.4986"><ele>4.0</ele><time>2026-04-21T17:11:10.839Z</time></trkpt><trkpt lat="44.7832467" lon="-0.4984317"><ele>4.0</ele><time>2026-04-21T17:11:12.839Z</time></trkpt><trkpt lat="44.783225" lon="-0.4983483"><ele>4.0</ele><time>2026-04-21T17:11:13.839Z</time></trkpt><trkpt lat="44.783185" lon="-0.4981883"><ele>4.0</ele><time>2026-04-21T17:11:15.839Z</time></trkpt><trkpt lat="44.7831417" lon="-0.49803"><ele>4.0</ele><time>2026-04-21T17:11:17.838Z</time></trkpt><trkpt lat="44.783105" lon="-0.49787"><ele>4.0</ele><time>2026-04-21T17:11:19.839Z</time></trkpt><trkpt lat="44.78309" lon="-0.4977817"><ele>4.0</ele><time>2026-04-21T17:11:20.839Z</time></trkpt><trkpt lat="44.783075" lon="-0.4976933"><ele>4.0</ele><time>2026-04-21T17:11:21.839Z</time></trkpt><trkpt lat="44.7830467" lon="-0.49752"><ele>4.0</ele><time>2026-04-21T17:11:23.839Z</time></trkpt><trkpt lat="44.7830333" lon="-0.4973433"><ele>4.0</ele><time>2026-04-21T17:11:25.839Z</time></trkpt><trkpt lat="44.7830283" lon="-0.4972533"><ele>4.0</ele><time>2026-04-21T17:11:26.839Z</time></trkpt><trkpt lat="44.783025" lon="-0.497075"><ele>4.0</ele><time>2026-04-21T17:11:28.838Z</time></trkpt><trkpt lat="44.7830167" lon="-0.4969"><ele>4.0</ele><time>2026-04-21T17:11:30.838Z</time></trkpt><trkpt lat="44.783" lon="-0.4967283"><ele>4.0</ele><time>2026-04-21T17:11:32.839Z</time></trkpt><trkpt lat="44.7829883" lon="-0.4965683"><ele>4.0</ele><time>2026-04-21T17:11:34.839Z</time></trkpt><trkpt lat="44.7830067" lon="-0.4964183"><ele>4.0</ele><time>2026-04-21T17:11:36.838Z</time></trkpt><trkpt lat="44.7830233" lon="-0.4962717"><ele>4.0</ele><time>2026-04-21T17:11:38.839Z</time></trkpt><trkpt lat="44.78302" lon="-0.49614"><ele>4.0</ele><time>2026-04-21T17:11:40.839Z</time></trkpt><trkpt lat="44.78304" lon="-0.4960217"><ele>4.0</ele><time>2026-04-21T17:11:42.838Z</time></trkpt><trkpt lat="44.78308" lon="-0.4958817"><ele>4.0</ele><time>2026-04-21T17:11:52.839Z</time></trkpt><trkpt lat="44.7831017" lon="-0.49578"><ele>4.285714285714286</ele><time>2026-04-21T17:11:56.838Z</time></trkpt><trkpt lat="44.78314" lon="-0.4956867"><ele>4.571428571428571</ele><time>2026-04-21T17:12:00.838Z</time></trkpt><trkpt lat="44.78313" lon="-0.4957833"><ele>4.857142857142857</ele><time>2026-04-21T17:12:22.839Z</time></trkpt><trkpt lat="44.7830733" lon="-0.4958517"><ele>5.142857142857142</ele><time>2026-04-21T17:12:29.839Z</time></trkpt><trkpt lat="44.78301" lon="-0.495845"><ele>5.428571428571429</ele><time>2026-04-21T17:12:31.838Z</time></trkpt><trkpt lat="44.782945" lon="-0.4958367"><ele>5.7142857142857135</ele><time>2026-04-21T17:12:33.839Z</time></trkpt><trkpt lat="44.78288" lon="-0.4958117"><ele>6.0</ele><time>2026-04-21T17:12:37.839Z</time></trkpt><trkpt lat="44.7827967" lon="-0.495815"><ele>6.0</ele><time>2026-04-21T17:12:41.838Z</time></trkpt><trkpt lat="44.7827333" lon="-0.49577"><ele>6.0</ele><time>2026-04-21T17:12:43.839Z</time></trkpt><trkpt lat="44.782655" lon="-0.495695"><ele>6.0</ele><time>2026-04-21T17:12:45.838Z</time></trkpt><trkpt lat="44.7826" lon="-0.4956"><ele>6.0</ele><time>2026-04-21T17:12:47.839Z</time></trkpt><trkpt lat="44.7825533" lon="-0.4955267"><ele>6.0</ele><time>2026-04-21T17:12:49.839Z</time></trkpt><trkpt lat="44.7824883" lon="-0.4954583"><ele>6.0</ele><time>2026-04-21T17:12:51.839Z</time></trkpt><trkpt lat="44.7824133" lon="-0.495395"><ele>5.8</ele><time>2026-04-21T17:12:53.839Z</time></trkpt><trkpt lat="44.78234" lon="-0.49534"><ele>5.6</ele><time>2026-04-21T17:12:55.839Z</time></trkpt><trkpt lat="44.7822733" lon="-0.4952867"><ele>5.4</ele><time>2026-04-21T17:12:57.839Z</time></trkpt><trkpt lat="44.7821817" lon="-0.4952667"><ele>5.2</ele><time>2026-04-21T17:12:59.838Z</time></trkpt><trkpt lat="44.78208" lon="-0.4952783"><ele>5.0</ele><time>2026-04-21T17:13:01.839Z</time></trkpt><trkpt lat="44.7819767" lon="-0.4952783"><ele>5.0</ele><time>2026-04-21T17:13:03.839Z</time></trkpt><trkpt lat="44.78187" lon="-0.4952967"><ele>5.0</ele><time>2026-04-21T17:13:05.839Z</time></trkpt><trkpt lat="44.7817567" lon="-0.495325"><ele>5.0</ele><time>2026-04-21T17:13:07.839Z</time></trkpt><trkpt lat="44.7816417" lon="-0.4953567"><ele>5.0</ele><time>2026-04-21T17:13:09.839Z</time></trkpt><trkpt lat="44.7815733" lon="-0.4953633"><ele>5.0</ele><time>2026-04-21T17:13:10.839Z</time></trkpt><trkpt lat="44.7815067" lon="-0.4953733"><ele>4.833333333333334</ele><time>2026-04-21T17:13:11.839Z</time></trkpt><trkpt lat="44.7813767" lon="-0.495395"><ele>4.666666666666667</ele><time>2026-04-21T17:13:13.839Z</time></trkpt><trkpt lat="44.78131" lon="-0.49541"><ele>4.5</ele><time>2026-04-21T17:13:14.839Z</time></trkpt><trkpt lat="44.78124" lon="-0.49543"><ele>4.333333333333333</ele><time>2026-04-21T17:13:15.839Z</time></trkpt><trkpt lat="44.7811733" lon="-0.4954483"><ele>4.166666666666666</ele><time>2026-04-21T17:13:16.839Z</time></trkpt><trkpt lat="44.7811017" lon="-0.4954667"><ele>4.0</ele><time>2026-04-21T17:13:17.839Z</time></trkpt><trkpt lat="44.781025" lon="-0.4954817"><ele>4.0</ele><time>2026-04-21T17:13:18.839Z</time></trkpt><trkpt lat="44.7809533" lon="-0.4954867"><ele>3.9999999999999996</ele><time>2026-04-21T17:13:19.839Z</time></trkpt><trkpt lat="44.7808783" lon="-0.4955"><ele>4.0</ele><time>2026-04-21T17:13:20.839Z</time></trkpt><trkpt lat="44.7808067" lon="-0.4955117"><ele>4.0</ele><time>2026-04-21T17:13:21.838Z</time></trkpt><trkpt lat="44.7807383" lon="-0.4955333"><ele>3.9999999999999996</ele><time>2026-04-21T17:13:22.839Z</time></trkpt><trkpt lat="44.7806667" lon="-0.495555"><ele>4.0</ele><time>2026-04-21T17:13:23.838Z</time></trkpt><trkpt lat="44.7805917" lon="-0.4955767"><ele>4.0</ele><time>2026-04-21T17:13:24.838Z</time></trkpt><trkpt lat="44.7805267" lon="-0.4955933"><ele>3.9999999999999996</ele><time>2026-04-21T17:13:25.839Z</time></trkpt><trkpt lat="44.7804617" lon="-0.4956"><ele>4.0</ele><time>2026-04-21T17:13:26.838Z</time></trkpt><trkpt lat="44.7803967" lon="-0.49561"><ele>4.0</ele><time>2026-04-21T17:13:27.839Z</time></trkpt><trkpt lat="44.78027" lon="-0.4956267"><ele>4.0</ele><time>2026-04-21T17:13:29.839Z</time></trkpt><trkpt lat="44.780205" lon="-0.4956417"><ele>3.9999999999999996</ele><time>2026-04-21T17:13:30.838Z</time></trkpt><trkpt lat="44.7801317" lon="-0.4956567"><ele>4.0</ele><time>2026-04-21T17:13:31.839Z</time></trkpt><trkpt lat="44.7800483" lon="-0.4956917"><ele>4.333333333333333</ele><time>2026-04-21T17:13:32.838Z</time></trkpt><trkpt lat="44.77997" lon="-0.4957233"><ele>4.666666666666666</ele><time>2026-04-21T17:13:33.839Z</time></trkpt><trkpt lat="44.7798967" lon="-0.4957567"><ele>5.0</ele><time>2026-04-21T17:13:34.839Z</time></trkpt><trkpt lat="44.779835" lon="-0.4957967"><ele>5.333333333333333</ele><time>2026-04-21T17:13:35.839Z</time></trkpt><trkpt lat="44.7797783" lon="-0.4958417"><ele>5.666666666666667</ele><time>2026-04-21T17:13:36.838Z</time></trkpt><trkpt lat="44.779665" lon="-0.49592"><ele>6.0</ele><time>2026-04-21T17:13:38.839Z</time></trkpt><trkpt lat="44.7796117" lon="-0.495975"><ele>6.0</ele><time>2026-04-21T17:13:39.839Z</time></trkpt><trkpt lat="44.7795383" lon="-0.4960483"><ele>6.0</ele><time>2026-04-21T17:13:41.839Z</time></trkpt><trkpt lat="44.7794867" lon="-0.4961133"><ele>6.0</ele><time>2026-04-21T17:13:43.839Z</time></trkpt><trkpt lat="44.7794517" lon="-0.496215"><ele>6.0</ele><time>2026-04-21T17:13:45.839Z</time></trkpt><trkpt lat="44.7794267" lon="-0.4963617"><ele>6.0</ele><time>2026-04-21T17:13:47.839Z</time></trkpt><trkpt lat="44.7793933" lon="-0.4964383"><ele>6.0</ele><time>2026-04-21T17:13:48.838Z</time></trkpt><trkpt lat="44.7793483" lon="-0.4965133"><ele>5.571428571428571</ele><time>2026-04-21T17:13:49.839Z</time></trkpt><trkpt lat="44.7792983" lon="-0.4965717"><ele>5.142857142857142</ele><time>2026-04-21T17:13:50.839Z</time></trkpt><trkpt lat="44.779235" lon="-0.49662"><ele>4.7142857142857135</ele><time>2026-04-21T17:13:51.839Z</time></trkpt><trkpt lat="44.77917" lon="-0.4966483"><ele>4.285714285714286</ele><time>2026-04-21T17:13:52.839Z</time></trkpt><trkpt lat="44.7791" lon="-0.4966533"><ele>3.8571428571428568</ele><time>2026-04-21T17:13:53.838Z</time></trkpt><trkpt lat="44.77903" lon="-0.4966433"><ele>3.4285714285714284</ele><time>2026-04-21T17:13:54.839Z</time></trkpt><trkpt lat="44.7789633" lon="-0.4966183"><ele>3.0</ele><time>2026-04-21T17:13:55.839Z</time></trkpt><trkpt lat="44.7789" lon="-0.49657"><ele>2.9999999999999996</ele><time>2026-04-21T17:13:56.838Z</time></trkpt><trkpt lat="44.7788467" lon="-0.4965"><ele>3.0</ele><time>2026-04-21T17:13:57.838Z</time></trkpt><trkpt lat="44.778805" lon="-0.4964167"><ele>3.0</ele><time>2026-04-21T17:13:58.839Z</time></trkpt><trkpt lat="44.7787783" lon="-0.49633"><ele>3.0</ele><time>2026-04-21T17:13:59.838Z</time></trkpt><trkpt lat="44.7787667" lon="-0.49624"><ele>3.0</ele><time>2026-04-21T17:14:00.838Z</time></trkpt><trkpt lat="44.7787717" lon="-0.4961433"><ele>2.9999999999999996</ele><time>2026-04-21T17:14:01.838Z</time></trkpt><trkpt lat="44.77878" lon="-0.4960517"><ele>3.0</ele><time>2026-04-21T17:14:02.837Z</time></trkpt><trkpt lat="44.7787833" lon="-0.49596"><ele>3.8571428571428568</ele><time>2026-04-21T17:14:03.838Z</time></trkpt><trkpt lat="44.778775" lon="-0.4958667"><ele>4.714285714285714</ele><time>2026-04-21T17:14:04.838Z</time></trkpt><trkpt lat="44.7787517" lon="-0.49577"><ele>5.571428571428572</ele><time>2026-04-21T17:14:05.838Z</time></trkpt><trkpt lat="44.7787233" lon="-0.4956817"><ele>6.428571428571429</ele><time>2026-04-21T17:14:06.837Z</time></trkpt><trkpt lat="44.77869" lon="-0.4956033"><ele>7.285714285714286</ele><time>2026-04-21T17:14:07.838Z</time></trkpt><trkpt lat="44.77865" lon="-0.4955267"><ele>8.142857142857144</ele><time>2026-04-21T17:14:08.837Z</time></trkpt><trkpt lat="44.77861" lon="-0.495455"><ele>9.0</ele><time>2026-04-21T17:14:09.837Z</time></trkpt><trkpt lat="44.7785317" lon="-0.4953217"><ele>9.428571428571429</ele><time>2026-04-21T17:14:11.838Z</time></trkpt><trkpt lat="44.77849" lon="-0.4952517"><ele>9.857142857142858</ele><time>2026-04-21T17:14:12.838Z</time></trkpt><trkpt lat="44.7784433" lon="-0.4951883"><ele>10.285714285714285</ele><time>2026-04-21T17:14:13.838Z</time></trkpt><trkpt lat="44.778395" lon="-0.4951233"><ele>10.714285714285715</ele><time>2026-04-21T17:14:14.838Z</time></trkpt><trkpt lat="44.7783467" lon="-0.4950583"><ele>11.142857142857142</ele><time>2026-04-21T17:14:15.838Z</time></trkpt><trkpt lat="44.7782967" lon="-0.4949933"><ele>11.571428571428571</ele><time>2026-04-21T17:14:16.837Z</time></trkpt><trkpt lat="44.778245" lon="-0.4949317"><ele>12.0</ele><time>2026-04-21T17:14:17.837Z</time></trkpt><trkpt lat="44.7781933" lon="-0.4948633"><ele>11.999999999999998</ele><time>2026-04-21T17:14:18.838Z</time></trkpt><trkpt lat="44.77814" lon="-0.4947933"><ele>12.0</ele><time>2026-04-21T17:14:19.837Z</time></trkpt><trkpt lat="44.7780883" lon="-0.49472"><ele>12.0</ele><time>2026-04-21T17:14:20.837Z</time></trkpt><trkpt lat="44.778035" lon="-0.49465"><ele>12.0</ele><time>2026-04-21T17:14:21.838Z</time></trkpt><trkpt lat="44.7779817" lon="-0.49458"><ele>12.0</ele><time>2026-04-21T17:14:22.838Z</time></trkpt><trkpt lat="44.777925" lon="-0.4945083"><ele>11.999999999999998</ele><time>2026-04-21T17:14:23.838Z</time></trkpt><trkpt lat="44.7778683" lon="-0.4944417"><ele>12.0</ele><time>2026-04-21T17:14:24.838Z</time></trkpt><trkpt lat="44.7778067" lon="-0.49438"><ele>11.333333333333334</ele><time>2026-04-21T17:14:25.838Z</time></trkpt><trkpt lat="44.7777483" lon="-0.494315"><ele>10.666666666666666</ele><time>2026-04-21T17:14:26.838Z</time></trkpt><trkpt lat="44.777685" lon="-0.4942433"><ele>10.0</ele><time>2026-04-21T17:14:27.838Z</time></trkpt><trkpt lat="44.7776233" lon="-0.4941733"><ele>9.333333333333332</ele><time>2026-04-21T17:14:28.837Z</time></trkpt><trkpt lat="44.77756" lon="-0.4941067"><ele>8.666666666666666</ele><time>2026-04-21T17:14:29.838Z</time></trkpt><trkpt lat="44.7775017" lon="-0.4940367"><ele>8.0</ele><time>2026-04-21T17:14:30.838Z</time></trkpt><trkpt lat="44.7774367" lon="-0.4939683"><ele>7.999999999999999</ele><time>2026-04-21T17:14:31.838Z</time></trkpt><trkpt lat="44.7773683" lon="-0.4939033"><ele>8.0</ele><time>2026-04-21T17:14:32.838Z</time></trkpt><trkpt lat="44.7773017" lon="-0.4938417"><ele>8.0</ele><time>2026-04-21T17:14:33.837Z</time></trkpt><trkpt lat="44.777235" lon="-0.4937867"><ele>8.0</ele><time>2026-04-21T17:14:34.838Z</time></trkpt><trkpt lat="44.77716" lon="-0.4937333"><ele>7.999999999999999</ele><time>2026-04-21T17:14:35.838Z</time></trkpt><trkpt lat="44.777085" lon="-0.4936883"><ele>8.0</ele><time>2026-04-21T17:14:36.838Z</time></trkpt><trkpt lat="44.7770083" lon="-0.493645"><ele>9.0</ele><time>2026-04-21T17:14:37.838Z</time></trkpt><trkpt lat="44.7769367" lon="-0.49359"><ele>10.0</ele><time>2026-04-21T17:14:38.838Z</time></trkpt><trkpt lat="44.776865" lon="-0.493545"><ele>11.0</ele><time>2026-04-21T17:14:39.838Z</time></trkpt><trkpt lat="44.7767933" lon="-0.4934983"><ele>12.0</ele><time>2026-04-21T17:14:40.837Z</time></trkpt><trkpt lat="44.776715" lon="-0.493455"><ele>13.000000000000002</ele><time>2026-04-21T17:14:41.837Z</time></trkpt><trkpt lat="44.7766383" lon="-0.4934133"><ele>14.0</ele><time>2026-04-21T17:14:42.838Z</time></trkpt><trkpt lat="44.7765633" lon="-0.4933717"><ele>14.000000000000002</ele><time>2026-04-21T17:14:43.838Z</time></trkpt><trkpt lat="44.776485" lon="-0.49333"><ele>14.0</ele><time>2026-04-21T17:14:44.837Z</time></trkpt><trkpt lat="44.7764083" lon="-0.4932883"><ele>14.0</ele><time>2026-04-21T17:14:45.837Z</time></trkpt><trkpt lat="44.77633" lon="-0.493255"><ele>14.0</ele><time>2026-04-21T17:14:46.837Z</time></trkpt><trkpt lat="44.7762533" lon="-0.4932267"><ele>14.000000000000002</ele><time>2026-04-21T17:14:47.838Z</time></trkpt><trkpt lat="44.7761767" lon="-0.493195"><ele>14.0</ele><time>2026-04-21T17:14:48.838Z</time></trkpt><trkpt lat="44.7760967" lon="-0.4931833"><ele>12.500000000000002</ele><time>2026-04-21T17:14:49.838Z</time></trkpt><trkpt lat="44.7760133" lon="-0.4931717"><ele>11.0</ele><time>2026-04-21T17:14:50.838Z</time></trkpt><trkpt lat="44.7759317" lon="-0.4931617"><ele>9.5</ele><time>2026-04-21T17:14:51.838Z</time></trkpt><trkpt lat="44.7758567" lon="-0.49315"><ele>8.0</ele><time>2026-04-21T17:14:52.838Z</time></trkpt><trkpt lat="44.775775" lon="-0.4931467"><ele>6.5</ele><time>2026-04-21T17:14:53.838Z</time></trkpt><trkpt lat="44.7757" lon="-0.4931367"><ele>5.0</ele><time>2026-04-21T17:14:54.838Z</time></trkpt><trkpt lat="44.775625" lon="-0.4931233"><ele>5.0</ele><time>2026-04-21T17:14:55.838Z</time></trkpt><trkpt lat="44.7755517" lon="-0.493115"><ele>5.0</ele><time>2026-04-21T17:14:56.838Z</time></trkpt><trkpt lat="44.77548" lon="-0.4931067"><ele>5.0</ele><time>2026-04-21T17:14:57.837Z</time></trkpt><trkpt lat="44.7754067" lon="-0.493095"><ele>5.0</ele><time>2026-04-21T17:14:58.837Z</time></trkpt><trkpt lat="44.7753367" lon="-0.4930833"><ele>5.0</ele><time>2026-04-21T17:14:59.838Z</time></trkpt><trkpt lat="44.7752633" lon="-0.4930667"><ele>5.0</ele><time>2026-04-21T17:15:00.838Z</time></trkpt><trkpt lat="44.775195" lon="-0.4930533"><ele>5.0</ele><time>2026-04-21T17:15:01.838Z</time></trkpt><trkpt lat="44.7751233" lon="-0.4930467"><ele>5.333333333333334</ele><time>2026-04-21T17:15:02.838Z</time></trkpt><trkpt lat="44.77505" lon="-0.4930367"><ele>5.666666666666667</ele><time>2026-04-21T17:15:03.837Z</time></trkpt><trkpt lat="44.7749733" lon="-0.4930217"><ele>6.0</ele><time>2026-04-21T17:15:04.838Z</time></trkpt><trkpt lat="44.7749" lon="-0.49301"><ele>6.333333333333334</ele><time>2026-04-21T17:15:05.837Z</time></trkpt><trkpt lat="44.7748283" lon="-0.493"><ele>6.666666666666667</ele><time>2026-04-21T17:15:06.837Z</time></trkpt><trkpt lat="44.7747533" lon="-0.4929933"><ele>7.0</ele><time>2026-04-21T17:15:07.837Z</time></trkpt><trkpt lat="44.7746717" lon="-0.492985"><ele>7.000000000000001</ele><time>2026-04-21T17:15:08.838Z</time></trkpt><trkpt lat="44.7745933" lon="-0.4929733"><ele>7.0</ele><time>2026-04-21T17:15:09.838Z</time></trkpt><trkpt lat="44.7745183" lon="-0.4929617"><ele>7.0</ele><time>2026-04-21T17:15:10.838Z</time></trkpt><trkpt lat="44.7744467" lon="-0.4929567"><ele>7.0</ele><time>2026-04-21T17:15:11.838Z</time></trkpt><trkpt lat="44.7743733" lon="-0.49295"><ele>7.000000000000001</ele><time>2026-04-21T17:15:12.838Z</time></trkpt><trkpt lat="44.774295" lon="-0.4929333"><ele>7.0</ele><time>2026-04-21T17:15:13.838Z</time></trkpt><trkpt lat="44.7742217" lon="-0.4929217"><ele>7.333333333333334</ele><time>2026-04-21T17:15:14.837Z</time></trkpt><trkpt lat="44.77414" lon="-0.4929117"><ele>7.666666666666667</ele><time>2026-04-21T17:15:15.838Z</time></trkpt><trkpt lat="44.7740617" lon="-0.4928983"><ele>8.0</ele><time>2026-04-21T17:15:16.838Z</time></trkpt><trkpt lat="44.7739833" lon="-0.4928917"><ele>8.333333333333334</ele><time>2026-04-21T17:15:17.838Z</time></trkpt><trkpt lat="44.7739117" lon="-0.49288"><ele>8.666666666666666</ele><time>2026-04-21T17:15:18.838Z</time></trkpt><trkpt lat="44.7738417" lon="-0.49287"><ele>9.0</ele><time>2026-04-21T17:15:19.838Z</time></trkpt><trkpt lat="44.77377" lon="-0.492865"><ele>9.000000000000002</ele><time>2026-04-21T17:15:20.838Z</time></trkpt><trkpt lat="44.7737" lon="-0.4928567"><ele>9.0</ele><time>2026-04-21T17:15:21.838Z</time></trkpt><trkpt lat="44.773635" lon="-0.4928483"><ele>9.0</ele><time>2026-04-21T17:15:22.838Z</time></trkpt><trkpt lat="44.77357" lon="-0.4928367"><ele>9.0</ele><time>2026-04-21T17:15:23.837Z</time></trkpt><trkpt lat="44.7735" lon="-0.4928233"><ele>9.0</ele><time>2026-04-21T17:15:24.838Z</time></trkpt><trkpt lat="44.7734333" lon="-0.4928067"><ele>9.000000000000002</ele><time>2026-04-21T17:15:25.838Z</time></trkpt><trkpt lat="44.773365" lon="-0.4927917"><ele>9.0</ele><time>2026-04-21T17:15:26.838Z</time></trkpt><trkpt lat="44.7732967" lon="-0.4927817"><ele>9.571428571428573</ele><time>2026-04-21T17:15:27.838Z</time></trkpt><trkpt lat="44.773225" lon="-0.4927767"><ele>10.142857142857142</ele><time>2026-04-21T17:15:28.838Z</time></trkpt><trkpt lat="44.7731583" lon="-0.49277"><ele>10.714285714285715</ele><time>2026-04-21T17:15:29.838Z</time></trkpt><trkpt lat="44.7730867" lon="-0.49277"><ele>11.285714285714286</ele><time>2026-04-21T17:15:30.838Z</time></trkpt><trkpt lat="44.773015" lon="-0.492765"><ele>11.857142857142858</ele><time>2026-04-21T17:15:31.838Z</time></trkpt><trkpt lat="44.7729433" lon="-0.4927617"><ele>12.428571428571429</ele><time>2026-04-21T17:15:32.838Z</time></trkpt><trkpt lat="44.772875" lon="-0.49277"><ele>13.0</ele><time>2026-04-21T17:15:33.838Z</time></trkpt><trkpt lat="44.7728" lon="-0.4927833"><ele>12.999999999999998</ele><time>2026-04-21T17:15:34.838Z</time></trkpt><trkpt lat="44.7727283" lon="-0.4927883"><ele>13.0</ele><time>2026-04-21T17:15:35.838Z</time></trkpt><trkpt lat="44.7726583" lon="-0.4927967"><ele>13.0</ele><time>2026-04-21T17:15:36.838Z</time></trkpt><trkpt lat="44.7725917" lon="-0.4928067"><ele>13.0</ele><time>2026-04-21T17:15:37.838Z</time></trkpt><trkpt lat="44.7724683" lon="-0.4928267"><ele>12.999999999999998</ele><time>2026-04-21T17:15:39.838Z</time></trkpt><trkpt lat="44.7724033" lon="-0.4928383"><ele>13.0</ele><time>2026-04-21T17:15:40.838Z</time></trkpt><trkpt lat="44.77234" lon="-0.49285"><ele>14.0</ele><time>2026-04-21T17:15:41.838Z</time></trkpt><trkpt lat="44.7722183" lon="-0.4928683"><ele>15.0</ele><time>2026-04-21T17:15:43.838Z</time></trkpt><trkpt lat="44.7720967" lon="-0.4928917"><ele>16.0</ele><time>2026-04-21T17:15:45.838Z</time></trkpt><trkpt lat="44.7720317" lon="-0.4928983"><ele>17.0</ele><time>2026-04-21T17:15:46.838Z</time></trkpt><trkpt lat="44.771965" lon="-0.4929067"><ele>18.0</ele><time>2026-04-21T17:15:47.837Z</time></trkpt><trkpt lat="44.77184" lon="-0.4929167"><ele>19.0</ele><time>2026-04-21T17:15:49.838Z</time></trkpt><trkpt lat="44.7717767" lon="-0.4929217"><ele>20.0</ele><time>2026-04-21T17:15:50.838Z</time></trkpt><trkpt lat="44.77165" lon="-0.49293"><ele>21.0</ele><time>2026-04-21T17:15:52.838Z</time></trkpt><trkpt lat="44.7715833" lon="-0.4929383"><ele>22.0</ele><time>2026-04-21T17:15:53.838Z</time></trkpt><trkpt lat="44.771515" lon="-0.4929417"><ele>23.0</ele><time>2026-04-21T17:15:54.838Z</time></trkpt><trkpt lat="44.771445" lon="-0.4929467"><ele>24.0</ele><time>2026-04-21T17:15:55.838Z</time></trkpt><trkpt lat="44.771375" lon="-0.492945"><ele>21.333333333333332</ele><time>2026-04-21T17:15:56.838Z</time></trkpt><trkpt lat="44.771305" lon="-0.492945"><ele>18.666666666666668</ele><time>2026-04-21T17:15:57.838Z</time></trkpt><trkpt lat="44.7712283" lon="-0.492945"><ele>16.0</ele><time>2026-04-21T17:15:58.838Z</time></trkpt><trkpt lat="44.771145" lon="-0.4929417"><ele>13.333333333333332</ele><time>2026-04-21T17:15:59.838Z</time></trkpt><trkpt lat="44.7710633" lon="-0.49294"><ele>10.666666666666666</ele><time>2026-04-21T17:16:00.838Z</time></trkpt><trkpt lat="44.7709833" lon="-0.4929367"><ele>8.0</ele><time>2026-04-21T17:16:01.838Z</time></trkpt><trkpt lat="44.7709017" lon="-0.4929267"><ele>7.999999999999999</ele><time>2026-04-21T17:16:02.838Z</time></trkpt><trkpt lat="44.770815" lon="-0.492925"><ele>8.0</ele><time>2026-04-21T17:16:03.838Z</time></trkpt><trkpt lat="44.7707383" lon="-0.4929217"><ele>8.0</ele><time>2026-04-21T17:16:04.838Z</time></trkpt><trkpt lat="44.7706633" lon="-0.4929217"><ele>8.0</ele><time>2026-04-21T17:16:05.838Z</time></trkpt><trkpt lat="44.7705817" lon="-0.4929367"><ele>7.999999999999999</ele><time>2026-04-21T17:16:06.838Z</time></trkpt><trkpt lat="44.7705" lon="-0.492955"><ele>8.0</ele><time>2026-04-21T17:16:07.837Z</time></trkpt><trkpt lat="44.770415" lon="-0.4929817"><ele>8.0</ele><time>2026-04-21T17:16:08.838Z</time></trkpt><trkpt lat="44.7703267" lon="-0.4930083"><ele>8.0</ele><time>2026-04-21T17:16:09.838Z</time></trkpt><trkpt lat="44.7702367" lon="-0.4930417"><ele>8.0</ele><time>2026-04-21T17:16:10.838Z</time></trkpt><trkpt lat="44.7701433" lon="-0.493085"><ele>8.0</ele><time>2026-04-21T17:16:11.838Z</time></trkpt><trkpt lat="44.770055" lon="-0.4931217"><ele>8.0</ele><time>2026-04-21T17:16:12.838Z</time></trkpt><trkpt lat="44.76997" lon="-0.4931583"><ele>7.833333333333333</ele><time>2026-04-21T17:16:13.838Z</time></trkpt><trkpt lat="44.7698883" lon="-0.4931917"><ele>7.666666666666666</ele><time>2026-04-21T17:16:14.838Z</time></trkpt><trkpt lat="44.7698033" lon="-0.49323"><ele>7.5</ele><time>2026-04-21T17:16:15.838Z</time></trkpt><trkpt lat="44.7697217" lon="-0.4932633"><ele>7.333333333333334</ele><time>2026-04-21T17:16:16.838Z</time></trkpt><trkpt lat="44.7696333" lon="-0.4933"><ele>7.166666666666667</ele><time>2026-04-21T17:16:17.838Z</time></trkpt><trkpt lat="44.7695533" lon="-0.49334"><ele>7.0</ele><time>2026-04-21T17:16:18.838Z</time></trkpt><trkpt lat="44.7694717" lon="-0.49338"><ele>7.000000000000001</ele><time>2026-04-21T17:16:19.837Z</time></trkpt><trkpt lat="44.7693933" lon="-0.49341"><ele>7.0</ele><time>2026-04-21T17:16:20.837Z</time></trkpt><trkpt lat="44.7693133" lon="-0.4934483"><ele>7.0</ele><time>2026-04-21T17:16:21.838Z</time></trkpt><trkpt lat="44.769235" lon="-0.4934717"><ele>7.0</ele><time>2026-04-21T17:16:22.838Z</time></trkpt><trkpt lat="44.7691617" lon="-0.4934967"><ele>7.000000000000001</ele><time>2026-04-21T17:16:23.838Z</time></trkpt><trkpt lat="44.7690833" lon="-0.4935217"><ele>7.0</ele><time>2026-04-21T17:16:24.838Z</time></trkpt><trkpt lat="44.7690083" lon="-0.4935517"><ele>7.166666666666667</ele><time>2026-04-21T17:16:25.838Z</time></trkpt><trkpt lat="44.768925" lon="-0.4935717"><ele>7.333333333333334</ele><time>2026-04-21T17:16:26.837Z</time></trkpt><trkpt lat="44.7688433" lon="-0.4935867"><ele>7.5</ele><time>2026-04-21T17:16:27.838Z</time></trkpt><trkpt lat="44.768765" lon="-0.4936117"><ele>7.666666666666666</ele><time>2026-04-21T17:16:28.838Z</time></trkpt><trkpt lat="44.7686833" lon="-0.4936283"><ele>7.833333333333333</ele><time>2026-04-21T17:16:29.838Z</time></trkpt><trkpt lat="44.7686017" lon="-0.4936483"><ele>8.0</ele><time>2026-04-21T17:16:30.838Z</time></trkpt><trkpt lat="44.768525" lon="-0.493665"><ele>8.666666666666666</ele><time>2026-04-21T17:16:31.837Z</time></trkpt><trkpt lat="44.7684417" lon="-0.493685"><ele>9.333333333333332</ele><time>2026-04-21T17:16:32.837Z</time></trkpt><trkpt lat="44.768355" lon="-0.493705"><ele>10.0</ele><time>2026-04-21T17:16:33.838Z</time></trkpt><trkpt lat="44.7682767" lon="-0.4937267"><ele>10.666666666666666</ele><time>2026-04-21T17:16:34.838Z</time></trkpt><trkpt lat="44.768205" lon="-0.4937617"><ele>11.333333333333334</ele><time>2026-04-21T17:16:35.838Z</time></trkpt><trkpt lat="44.7681267" lon="-0.49379"><ele>12.0</ele><time>2026-04-21T17:16:36.838Z</time></trkpt><trkpt lat="44.76804" lon="-0.4938067"><ele>11.0</ele><time>2026-04-21T17:16:37.838Z</time></trkpt><trkpt lat="44.7679617" lon="-0.49383"><ele>10.0</ele><time>2026-04-21T17:16:38.838Z</time></trkpt><trkpt lat="44.7678817" lon="-0.4938483"><ele>9.0</ele><time>2026-04-21T17:16:39.838Z</time></trkpt><trkpt lat="44.767805" lon="-0.4938617"><ele>8.0</ele><time>2026-04-21T17:16:40.838Z</time></trkpt><trkpt lat="44.7677217" lon="-0.4938717"><ele>7.0</ele><time>2026-04-21T17:16:41.838Z</time></trkpt><trkpt lat="44.7676367" lon="-0.49388"><ele>6.0</ele><time>2026-04-21T17:16:42.837Z</time></trkpt><trkpt lat="44.7675583" lon="-0.4938917"><ele>6.0</ele><time>2026-04-21T17:16:43.838Z</time></trkpt><trkpt lat="44.7674783" lon="-0.4939083"><ele>6.0</ele><time>2026-04-21T17:16:44.837Z</time></trkpt><trkpt lat="44.7673983" lon="-0.49393"><ele>6.0</ele><time>2026-04-21T17:16:45.837Z</time></trkpt><trkpt lat="44.7673133" lon="-0.4939517"><ele>6.0</ele><time>2026-04-21T17:16:46.837Z</time></trkpt><trkpt lat="44.7672383" lon="-0.4939817"><ele>6.0</ele><time>2026-04-21T17:16:47.838Z</time></trkpt><trkpt lat="44.7671617" lon="-0.4939917"><ele>6.0</ele><time>2026-04-21T17:16:48.838Z</time></trkpt><trkpt lat="44.7670783" lon="-0.4940183"><ele>6.0</ele><time>2026-04-21T17:16:49.838Z</time></trkpt><trkpt lat="44.7669983" lon="-0.4940367"><ele>6.0</ele><time>2026-04-21T17:16:50.838Z</time></trkpt><trkpt lat="44.76692" lon="-0.4940533"><ele>6.0</ele><time>2026-04-21T17:16:51.838Z</time></trkpt><trkpt lat="44.7668433" lon="-0.4940717"><ele>6.0</ele><time>2026-04-21T17:16:52.838Z</time></trkpt><trkpt lat="44.766765" lon="-0.4940967"><ele>6.0</ele><time>2026-04-21T17:16:53.838Z</time></trkpt><trkpt lat="44.7666867" lon="-0.4941233"><ele>6.0</ele><time>2026-04-21T17:16:54.837Z</time></trkpt><trkpt lat="44.7666083" lon="-0.494145"><ele>6.666666666666667</ele><time>2026-04-21T17:16:55.837Z</time></trkpt><trkpt lat="44.76653" lon="-0.494165"><ele>7.333333333333334</ele><time>2026-04-21T17:16:56.838Z</time></trkpt><trkpt lat="44.7664483" lon="-0.4941917"><ele>8.0</ele><time>2026-04-21T17:16:57.838Z</time></trkpt><trkpt lat="44.7663683" lon="-0.4942167"><ele>8.666666666666668</ele><time>2026-04-21T17:16:58.838Z</time></trkpt><trkpt lat="44.7662883" lon="-0.4942467"><ele>9.333333333333334</ele><time>2026-04-21T17:16:59.837Z</time></trkpt><trkpt lat="44.766205" lon="-0.49428"><ele>10.0</ele><time>2026-04-21T17:17:00.838Z</time></trkpt><trkpt lat="44.7661317" lon="-0.4943133"><ele>10.0</ele><time>2026-04-21T17:17:01.838Z</time></trkpt><trkpt lat="44.7660533" lon="-0.494345"><ele>10.0</ele><time>2026-04-21T17:17:02.838Z</time></trkpt><trkpt lat="44.7659783" lon="-0.4943733"><ele>10.0</ele><time>2026-04-21T17:17:03.838Z</time></trkpt><trkpt lat="44.7658967" lon="-0.4944"><ele>10.0</ele><time>2026-04-21T17:17:04.838Z</time></trkpt><trkpt lat="44.76582" lon="-0.494435"><ele>10.0</ele><time>2026-04-21T17:17:05.838Z</time></trkpt><trkpt lat="44.7657467" lon="-0.4944617"><ele>10.0</ele><time>2026-04-21T17:17:06.838Z</time></trkpt><trkpt lat="44.7656683" lon="-0.49449"><ele>10.333333333333334</ele><time>2026-04-21T17:17:07.838Z</time></trkpt><trkpt lat="44.76559" lon="-0.4945217"><ele>10.666666666666668</ele><time>2026-04-21T17:17:08.837Z</time></trkpt><trkpt lat="44.765505" lon="-0.4945583"><ele>11.0</ele><time>2026-04-21T17:17:09.838Z</time></trkpt><trkpt lat="44.7654217" lon="-0.49458"><ele>11.333333333333334</ele><time>2026-04-21T17:17:10.838Z</time></trkpt><trkpt lat="44.7653417" lon="-0.49461"><ele>11.666666666666666</ele><time>2026-04-21T17:17:11.837Z</time></trkpt><trkpt lat="44.7652583" lon="-0.4946433"><ele>12.0</ele><time>2026-04-21T17:17:12.837Z</time></trkpt><trkpt lat="44.7651767" lon="-0.4946683"><ele>10.5</ele><time>2026-04-21T17:17:13.838Z</time></trkpt><trkpt lat="44.7651033" lon="-0.494695"><ele>9.0</ele><time>2026-04-21T17:17:14.838Z</time></trkpt><trkpt lat="44.7650283" lon="-0.4947133"><ele>7.5</ele><time>2026-04-21T17:17:15.837Z</time></trkpt><trkpt lat="44.76495" lon="-0.49474"><ele>6.0</ele><time>2026-04-21T17:17:16.838Z</time></trkpt><trkpt lat="44.7648633" lon="-0.4947717"><ele>4.5</ele><time>2026-04-21T17:17:17.838Z</time></trkpt><trkpt lat="44.7647817" lon="-0.4948"><ele>3.0</ele><time>2026-04-21T17:17:18.838Z</time></trkpt><trkpt lat="44.7647067" lon="-0.494835"><ele>3.0</ele><time>2026-04-21T17:17:19.838Z</time></trkpt><trkpt lat="44.7646217" lon="-0.4948783"><ele>3.0</ele><time>2026-04-21T17:17:20.838Z</time></trkpt><trkpt lat="44.7645433" lon="-0.4949083"><ele>3.0</ele><time>2026-04-21T17:17:21.838Z</time></trkpt><trkpt lat="44.7644633" lon="-0.494945"><ele>3.0</ele><time>2026-04-21T17:17:22.837Z</time></trkpt><trkpt lat="44.7643817" lon="-0.4949817"><ele>3.0</ele><time>2026-04-21T17:17:23.838Z</time></trkpt><trkpt lat="44.7642983" lon="-0.4950067"><ele>3.0</ele><time>2026-04-21T17:17:24.837Z</time></trkpt><trkpt lat="44.7642183" lon="-0.4950367"><ele>3.833333333333333</ele><time>2026-04-21T17:17:25.838Z</time></trkpt><trkpt lat="44.7641383" lon="-0.49507"><ele>4.666666666666666</ele><time>2026-04-21T17:17:26.838Z</time></trkpt><trkpt lat="44.764055" lon="-0.4951"><ele>5.5</ele><time>2026-04-21T17:17:27.838Z</time></trkpt><trkpt lat="44.763975" lon="-0.4951183"><ele>6.333333333333333</ele><time>2026-04-21T17:17:28.837Z</time></trkpt><trkpt lat="44.7638917" lon="-0.4951433"><ele>7.166666666666666</ele><time>2026-04-21T17:17:29.838Z</time></trkpt><trkpt lat="44.76381" lon="-0.495175"><ele>8.0</ele><time>2026-04-21T17:17:30.838Z</time></trkpt><trkpt lat="44.7637283" lon="-0.4952067"><ele>8.0</ele><time>2026-04-21T17:17:31.838Z</time></trkpt><trkpt lat="44.76364" lon="-0.4952417"><ele>8.0</ele><time>2026-04-21T17:17:32.838Z</time></trkpt><trkpt lat="44.76355" lon="-0.4952767"><ele>8.0</ele><time>2026-04-21T17:17:33.838Z</time></trkpt><trkpt lat="44.7634617" lon="-0.4953033"><ele>8.0</ele><time>2026-04-21T17:17:34.838Z</time></trkpt><trkpt lat="44.76337" lon="-0.4953283"><ele>8.0</ele><time>2026-04-21T17:17:35.838Z</time></trkpt><trkpt lat="44.763285" lon="-0.4953633"><ele>7.499999999999999</ele><time>2026-04-21T17:17:36.838Z</time></trkpt><trkpt lat="44.7632" lon="-0.4954"><ele>7.0</ele><time>2026-04-21T17:17:37.838Z</time></trkpt><trkpt lat="44.763115" lon="-0.4954283"><ele>6.5</ele><time>2026-04-21T17:17:38.838Z</time></trkpt><trkpt lat="44.76303" lon="-0.4954583"><ele>6.0</ele><time>2026-04-21T17:17:39.838Z</time></trkpt><trkpt lat="44.762945" lon="-0.4954917"><ele>5.5</ele><time>2026-04-21T17:17:40.838Z</time></trkpt><trkpt lat="44.7628617" lon="-0.49552"><ele>5.0</ele><time>2026-04-21T17:17:41.838Z</time></trkpt><trkpt lat="44.7627733" lon="-0.4955467"><ele>4.666666666666667</ele><time>2026-04-21T17:17:42.838Z</time></trkpt><trkpt lat="44.762695" lon="-0.4955767"><ele>4.333333333333334</ele><time>2026-04-21T17:17:43.837Z</time></trkpt><trkpt lat="44.76261" lon="-0.49561"><ele>4.0</ele><time>2026-04-21T17:17:44.838Z</time></trkpt><trkpt lat="44.7625233" lon="-0.49564"><ele>3.666666666666667</ele><time>2026-04-21T17:17:45.838Z</time></trkpt><trkpt lat="44.7624417" lon="-0.4956717"><ele>3.3333333333333335</ele><time>2026-04-21T17:17:46.838Z</time></trkpt><trkpt lat="44.7623567" lon="-0.495705"><ele>3.0</ele><time>2026-04-21T17:17:47.838Z</time></trkpt><trkpt lat="44.7622817" lon="-0.49574"><ele>3.0</ele><time>2026-04-21T17:17:48.838Z</time></trkpt><trkpt lat="44.7622033" lon="-0.49577"><ele>3.0</ele><time>2026-04-21T17:17:49.838Z</time></trkpt><trkpt lat="44.762125" lon="-0.4958"><ele>3.0</ele><time>2026-04-21T17:17:50.837Z</time></trkpt><trkpt lat="44.76205" lon="-0.4958333"><ele>3.0</ele><time>2026-04-21T17:17:51.838Z</time></trkpt><trkpt lat="44.76197" lon="-0.4958633"><ele>3.0</ele><time>2026-04-21T17:17:52.838Z</time></trkpt><trkpt lat="44.7618917" lon="-0.495895"><ele>3.0</ele><time>2026-04-21T17:17:53.838Z</time></trkpt><trkpt lat="44.7618167" lon="-0.4959217"><ele>3.5</ele><time>2026-04-21T17:17:54.838Z</time></trkpt><trkpt lat="44.7617367" lon="-0.49594"><ele>4.0</ele><time>2026-04-21T17:17:55.838Z</time></trkpt><trkpt lat="44.7616583" lon="-0.4959667"><ele>4.5</ele><time>2026-04-21T17:17:56.838Z</time></trkpt><trkpt lat="44.76158" lon="-0.4959867"><ele>5.0</ele><time>2026-04-21T17:17:57.837Z</time></trkpt><trkpt lat="44.7615" lon="-0.4960067"><ele>5.5</ele><time>2026-04-21T17:17:58.838Z</time></trkpt><trkpt lat="44.7614133" lon="-0.4960317"><ele>6.0</ele><time>2026-04-21T17:17:59.838Z</time></trkpt><trkpt lat="44.7613317" lon="-0.496045"><ele>6.0</ele><time>2026-04-21T17:18:00.838Z</time></trkpt><trkpt lat="44.7612483" lon="-0.4960583"><ele>6.0</ele><time>2026-04-21T17:18:01.838Z</time></trkpt><trkpt lat="44.7611667" lon="-0.4960867"><ele>6.0</ele><time>2026-04-21T17:18:02.838Z</time></trkpt><trkpt lat="44.76108" lon="-0.4961067"><ele>6.0</ele><time>2026-04-21T17:18:03.838Z</time></trkpt><trkpt lat="44.7609883" lon="-0.4961117"><ele>6.0</ele><time>2026-04-21T17:18:04.838Z</time></trkpt><trkpt lat="44.7609117" lon="-0.4961283"><ele>6.0</ele><time>2026-04-21T17:18:05.838Z</time></trkpt><trkpt lat="44.76083" lon="-0.4961383"><ele>5.833333333333333</ele><time>2026-04-21T17:18:06.838Z</time></trkpt><trkpt lat="44.7607433" lon="-0.4961567"><ele>5.666666666666667</ele><time>2026-04-21T17:18:07.837Z</time></trkpt><trkpt lat="44.760655" lon="-0.4961767"><ele>5.5</ele><time>2026-04-21T17:18:08.837Z</time></trkpt><trkpt lat="44.76057" lon="-0.4961883"><ele>5.333333333333334</ele><time>2026-04-21T17:18:09.838Z</time></trkpt><trkpt lat="44.760485" lon="-0.496205"><ele>5.166666666666667</ele><time>2026-04-21T17:18:10.838Z</time></trkpt><trkpt lat="44.760405" lon="-0.4962233"><ele>5.0</ele><time>2026-04-21T17:18:11.837Z</time></trkpt><trkpt lat="44.760335" lon="-0.4962417"><ele>5.0</ele><time>2026-04-21T17:18:12.837Z</time></trkpt><trkpt lat="44.7602583" lon="-0.496265"><ele>5.0</ele><time>2026-04-21T17:18:13.837Z</time></trkpt><trkpt lat="44.7601833" lon="-0.4962767"><ele>5.0</ele><time>2026-04-21T17:18:14.838Z</time></trkpt><trkpt lat="44.7601" lon="-0.4962933"><ele>5.0</ele><time>2026-04-21T17:18:15.838Z</time></trkpt><trkpt lat="44.76002" lon="-0.4963067"><ele>5.0</ele><time>2026-04-21T17:18:16.838Z</time></trkpt><trkpt lat="44.7599383" lon="-0.4963217"><ele>5.0</ele><time>2026-04-21T17:18:17.837Z</time></trkpt><trkpt lat="44.75986" lon="-0.4963417"><ele>5.0</ele><time>2026-04-21T17:18:18.837Z</time></trkpt><trkpt lat="44.759785" lon="-0.4963583"><ele>5.0</ele><time>2026-04-21T17:18:19.838Z</time></trkpt><trkpt lat="44.7597117" lon="-0.49638"><ele>5.0</ele><time>2026-04-21T17:18:20.838Z</time></trkpt><trkpt lat="44.7596367" lon="-0.4963917"><ele>5.0</ele><time>2026-04-21T17:18:21.838Z</time></trkpt><trkpt lat="44.7595617" lon="-0.496405"><ele>5.0</ele><time>2026-04-21T17:18:22.838Z</time></trkpt><trkpt lat="44.75949" lon="-0.49642"><ele>5.0</ele><time>2026-04-21T17:18:23.838Z</time></trkpt><trkpt lat="44.75942" lon="-0.4964383"><ele>5.0</ele><time>2026-04-21T17:18:24.838Z</time></trkpt><trkpt lat="44.7593533" lon="-0.4964633"><ele>5.2</ele><time>2026-04-21T17:18:25.838Z</time></trkpt><trkpt lat="44.7592967" lon="-0.4965083"><ele>5.4</ele><time>2026-04-21T17:18:26.837Z</time></trkpt><trkpt lat="44.759195" lon="-0.4966067"><ele>5.6</ele><time>2026-04-21T17:18:28.838Z</time></trkpt><trkpt lat="44.7590867" lon="-0.4966617"><ele>5.8</ele><time>2026-04-21T17:18:30.838Z</time></trkpt><trkpt lat="44.759" lon="-0.4965967"><ele>6.0</ele><time>2026-04-21T17:18:32.838Z</time></trkpt><trkpt lat="44.75894" lon="-0.4964667"><ele>6.0</ele><time>2026-04-21T17:18:34.838Z</time></trkpt><trkpt lat="44.7589667" lon="-0.4963133"><ele>6.0</ele><time>2026-04-21T17:18:36.836Z</time></trkpt><trkpt lat="44.7590233" lon="-0.496175"><ele>6.0</ele><time>2026-04-21T17:18:38.837Z</time></trkpt><trkpt lat="44.7590483" lon="-0.496035"><ele>6.0</ele><time>2026-04-21T17:18:40.837Z</time></trkpt><trkpt lat="44.759055" lon="-0.4958667"><ele>6.0</ele><time>2026-04-21T17:18:42.837Z</time></trkpt><trkpt lat="44.75906" lon="-0.495705"><ele>6.199999999999999</ele><time>2026-04-21T17:18:44.837Z</time></trkpt><trkpt lat="44.75904" lon="-0.49555"><ele>6.3999999999999995</ele><time>2026-04-21T17:18:46.836Z</time></trkpt><trkpt lat="44.7590067" lon="-0.49541"><ele>6.6</ele><time>2026-04-21T17:18:48.836Z</time></trkpt><trkpt lat="44.758955" lon="-0.4952683"><ele>6.8</ele><time>2026-04-21T17:18:50.837Z</time></trkpt><trkpt lat="44.7589017" lon="-0.49515"><ele>7.0</ele><time>2026-04-21T17:18:52.837Z</time></trkpt><trkpt lat="44.758845" lon="-0.4950433"><ele>7.6</ele><time>2026-04-21T17:18:54.837Z</time></trkpt><trkpt lat="44.7587967" lon="-0.4949383"><ele>8.2</ele><time>2026-04-21T17:18:56.837Z</time></trkpt><trkpt lat="44.758755" lon="-0.4948233"><ele>8.8</ele><time>2026-04-21T17:18:58.836Z</time></trkpt><trkpt lat="44.7586967" lon="-0.4947017"><ele>9.4</ele><time>2026-04-21T17:19:00.837Z</time></trkpt><trkpt lat="44.75865" lon="-0.4945767"><ele>10.0</ele><time>2026-04-21T17:19:02.837Z</time></trkpt><trkpt lat="44.758605" lon="-0.4944667"><ele>10.5</ele><time>2026-04-21T17:19:04.837Z</time></trkpt><trkpt lat="44.7585667" lon="-0.49437"><ele>11.0</ele><time>2026-04-21T17:19:06.837Z</time></trkpt><trkpt lat="44.758525" lon="-0.49428"><ele>11.5</ele><time>2026-04-21T17:19:08.837Z</time></trkpt><trkpt lat="44.7584817" lon="-0.4941883"><ele>12.0</ele><time>2026-04-21T17:19:10.837Z</time></trkpt><trkpt lat="44.7584467" lon="-0.49409"><ele>12.499999999999998</ele><time>2026-04-21T17:19:12.837Z</time></trkpt><trkpt lat="44.7584033" lon="-0.4939883"><ele>13.0</ele><time>2026-04-21T17:19:14.837Z</time></trkpt><trkpt lat="44.75836" lon="-0.4939033"><ele>13.999999999999998</ele><time>2026-04-21T17:19:16.837Z</time></trkpt><trkpt lat="44.7583083" lon="-0.4938183"><ele>15.0</ele><time>2026-04-21T17:19:18.837Z</time></trkpt><trkpt lat="44.7582583" lon="-0.4937433"><ele>16.0</ele><time>2026-04-21T17:19:20.837Z</time></trkpt><trkpt lat="44.7582067" lon="-0.4936583"><ele>17.0</ele><time>2026-04-21T17:19:22.837Z</time></trkpt><trkpt lat="44.758155" lon="-0.4935733"><ele>18.0</ele><time>2026-04-21T17:19:24.837Z</time></trkpt><trkpt lat="44.7580983" lon="-0.493495"><ele>19.0</ele><time>2026-04-21T17:19:26.837Z</time></trkpt><trkpt lat="44.7580433" lon="-0.4934067"><ele>19.5</ele><time>2026-04-21T17:19:28.837Z</time></trkpt><trkpt lat="44.757995" lon="-0.493325"><ele>20.0</ele><time>2026-04-21T17:19:30.837Z</time></trkpt><trkpt lat="44.75795" lon="-0.493255"><ele>20.5</ele><time>2026-04-21T17:19:32.836Z</time></trkpt><trkpt lat="44.75791" lon="-0.4931783"><ele>21.0</ele><time>2026-04-21T17:19:34.837Z</time></trkpt><trkpt lat="44.7578567" lon="-0.4930783"><ele>21.5</ele><time>2026-04-21T17:19:37.837Z</time></trkpt><trkpt lat="44.757815" lon="-0.49301"><ele>22.0</ele><time>2026-04-21T17:19:39.837Z</time></trkpt><trkpt lat="44.7577533" lon="-0.4929067"><ele>22.285714285714285</ele><time>2026-04-21T17:19:42.837Z</time></trkpt><trkpt lat="44.7577117" lon="-0.4928367"><ele>22.57142857142857</ele><time>2026-04-21T17:19:44.836Z</time></trkpt><trkpt lat="44.7576717" lon="-0.4927583"><ele>22.857142857142854</ele><time>2026-04-21T17:19:46.837Z</time></trkpt><trkpt lat="44.7576333" lon="-0.4926867"><ele>23.142857142857142</ele><time>2026-04-21T17:19:48.837Z</time></trkpt><trkpt lat="44.757605" lon="-0.4926067"><ele>23.428571428571427</ele><time>2026-04-21T17:19:50.837Z</time></trkpt><trkpt lat="44.7575733" lon="-0.4924917"><ele>23.71428571428571</ele><time>2026-04-21T17:19:53.837Z</time></trkpt><trkpt lat="44.7575633" lon="-0.4924033"><ele>24.0</ele><time>2026-04-21T17:19:55.837Z</time></trkpt><trkpt lat="44.7575517" lon="-0.49231"><ele>24.333333333333332</ele><time>2026-04-21T17:19:57.837Z</time></trkpt><trkpt lat="44.757535" lon="-0.4922183"><ele>24.666666666666664</ele><time>2026-04-21T17:19:59.837Z</time></trkpt><trkpt lat="44.757525" lon="-0.4921233"><ele>25.0</ele><time>2026-04-21T17:20:01.836Z</time></trkpt><trkpt lat="44.7575167" lon="-0.4920333"><ele>25.333333333333332</ele><time>2026-04-21T17:20:03.837Z</time></trkpt><trkpt lat="44.75752" lon="-0.4919067"><ele>25.666666666666664</ele><time>2026-04-21T17:20:06.837Z</time></trkpt><trkpt lat="44.7575233" lon="-0.4917817"><ele>26.0</ele><time>2026-04-21T17:20:09.836Z</time></trkpt><trkpt lat="44.75752" lon="-0.4916583"><ele>26.8</ele><time>2026-04-21T17:20:12.837Z</time></trkpt><trkpt lat="44.7575183" lon="-0.4915133"><ele>27.6</ele><time>2026-04-21T17:20:15.836Z</time></trkpt><trkpt lat="44.7575183" lon="-0.4914067"><ele>28.4</ele><time>2026-04-21T17:20:17.837Z</time></trkpt><trkpt lat="44.7575267" lon="-0.4912767"><ele>29.2</ele><time>2026-04-21T17:20:19.837Z</time></trkpt><trkpt lat="44.757525" lon="-0.4911367"><ele>30.0</ele><time>2026-04-21T17:20:21.837Z</time></trkpt><trkpt lat="44.7575233" lon="-0.4910067"><ele>30.833333333333332</ele><time>2026-04-21T17:20:23.837Z</time></trkpt><trkpt lat="44.7575217" lon="-0.4908833"><ele>31.666666666666664</ele><time>2026-04-21T17:20:25.837Z</time></trkpt><trkpt lat="44.75751" lon="-0.49076"><ele>32.5</ele><time>2026-04-21T17:20:27.837Z</time></trkpt><trkpt lat="44.7574967" lon="-0.4906267"><ele>33.33333333333333</ele><time>2026-04-21T17:20:29.837Z</time></trkpt><trkpt lat="44.7574933" lon="-0.4905117"><ele>34.166666666666664</ele><time>2026-04-21T17:20:31.837Z</time></trkpt><trkpt lat="44.7574867" lon="-0.490415"><ele>35.0</ele><time>2026-04-21T17:20:34.837Z</time></trkpt><trkpt lat="44.757475" lon="-0.49032"><ele>35.285714285714285</ele><time>2026-04-21T17:20:38.836Z</time></trkpt><trkpt lat="44.7574767" lon="-0.49022"><ele>35.57142857142857</ele><time>2026-04-21T17:20:50.837Z</time></trkpt><trkpt lat="44.7574933" lon="-0.4901233"><ele>35.85714285714286</ele><time>2026-04-21T17:20:53.837Z</time></trkpt><trkpt lat="44.7575067" lon="-0.4900167"><ele>36.14285714285714</ele><time>2026-04-21T17:20:57.837Z</time></trkpt><trkpt lat="44.75751" lon="-0.489915"><ele>36.42857142857143</ele><time>2026-04-21T17:21:02.836Z</time></trkpt><trkpt lat="44.7575133" lon="-0.4898133"><ele>36.714285714285715</ele><time>2026-04-21T17:21:06.837Z</time></trkpt><trkpt lat="44.7575" lon="-0.4897"><ele>37.0</ele><time>2026-04-21T17:21:10.837Z</time></trkpt><trkpt lat="44.7574983" lon="-0.4895783"><ele>37.5</ele><time>2026-04-21T17:21:13.837Z</time></trkpt><trkpt lat="44.7574967" lon="-0.4894767"><ele>38.0</ele><time>2026-04-21T17:21:16.836Z</time></trkpt><trkpt lat="44.75746" lon="-0.48934"><ele>38.5</ele><time>2026-04-21T17:21:20.837Z</time></trkpt><trkpt lat="44.7574417" lon="-0.48923"><ele>39.0</ele><time>2026-04-21T17:21:25.837Z</time></trkpt><trkpt lat="44.7574517" lon="-0.4891233"><ele>39.5</ele><time>2026-04-21T17:21:28.837Z</time></trkpt><trkpt lat="44.7574617" lon="-0.4890317"><ele>40.0</ele><time>2026-04-21T17:21:30.837Z</time></trkpt><trkpt lat="44.757475" lon="-0.4889067"><ele>40.0</ele><time>2026-04-21T17:21:32.837Z</time></trkpt><trkpt lat="44.7575017" lon="-0.4887717"><ele>40.0</ele><time>2026-04-21T17:21:34.837Z</time></trkpt><trkpt lat="44.75753" lon="-0.4886233"><ele>40.0</ele><time>2026-04-21T17:21:36.837Z</time></trkpt><trkpt lat="44.757545" lon="-0.488485"><ele>40.0</ele><time>2026-04-21T17:21:38.837Z</time></trkpt><trkpt lat="44.7575367" lon="-0.4883567"><ele>40.0</ele><time>2026-04-21T17:21:40.836Z</time></trkpt><trkpt lat="44.75754" lon="-0.488235"><ele>39.833333333333336</ele><time>2026-04-21T17:21:42.836Z</time></trkpt><trkpt lat="44.7575483" lon="-0.4881183"><ele>39.66666666666667</ele><time>2026-04-21T17:21:44.836Z</time></trkpt><trkpt lat="44.7575683" lon="-0.4880017"><ele>39.5</ele><time>2026-04-21T17:21:46.837Z</time></trkpt><trkpt lat="44.7575917" lon="-0.4879033"><ele>39.333333333333336</ele><time>2026-04-21T17:21:48.837Z</time></trkpt><trkpt lat="44.7576183" lon="-0.4878033"><ele>39.166666666666664</ele><time>2026-04-21T17:21:50.837Z</time></trkpt><trkpt lat="44.7576567" lon="-0.4877067"><ele>39.0</ele><time>2026-04-21T17:21:52.837Z</time></trkpt><trkpt lat="44.75769" lon="-0.4876067"><ele>38.85714285714286</ele><time>2026-04-21T17:21:54.836Z</time></trkpt><trkpt lat="44.7577267" lon="-0.4875217"><ele>38.71428571428571</ele><time>2026-04-21T17:21:56.837Z</time></trkpt><trkpt lat="44.7577633" lon="-0.4874417"><ele>38.57142857142857</ele><time>2026-04-21T17:21:58.837Z</time></trkpt><trkpt lat="44.7578" lon="-0.487355"><ele>38.42857142857143</ele><time>2026-04-21T17:22:00.836Z</time></trkpt><trkpt lat="44.7578333" lon="-0.487275"><ele>38.28571428571429</ele><time>2026-04-21T17:22:02.837Z</time></trkpt><trkpt lat="44.7578667" lon="-0.4871817"><ele>38.14285714285714</ele><time>2026-04-21T17:22:04.836Z</time></trkpt><trkpt lat="44.7579" lon="-0.487105"><ele>38.0</ele><time>2026-04-21T17:22:06.837Z</time></trkpt><trkpt lat="44.7579383" lon="-0.4870183"><ele>38.0</ele><time>2026-04-21T17:22:08.837Z</time></trkpt><trkpt lat="44.75799" lon="-0.4869233"><ele>38.0</ele><time>2026-04-21T17:22:10.837Z</time></trkpt><trkpt lat="44.7580367" lon="-0.48681"><ele>38.0</ele><time>2026-04-21T17:22:12.837Z</time></trkpt><trkpt lat="44.7580883" lon="-0.48668"><ele>38.0</ele><time>2026-04-21T17:22:14.837Z</time></trkpt><trkpt lat="44.75817" lon="-0.486465"><ele>38.0</ele><time>2026-04-21T17:22:17.837Z</time></trkpt><trkpt lat="44.7582" lon="-0.4863817"><ele>38.0</ele><time>2026-04-21T17:22:18.837Z</time></trkpt><trkpt lat="44.7582267" lon="-0.4862967"><ele>38.0</ele><time>2026-04-21T17:22:19.837Z</time></trkpt><trkpt lat="44.758255" lon="-0.4862117"><ele>38.0</ele><time>2026-04-21T17:22:20.837Z</time></trkpt><trkpt lat="44.7582917" lon="-0.486125"><ele>38.0</ele><time>2026-04-21T17:22:21.837Z</time></trkpt><trkpt lat="44.75832" lon="-0.4860317"><ele>38.0</ele><time>2026-04-21T17:22:22.837Z</time></trkpt><trkpt lat="44.7583483" lon="-0.4859467"><ele>38.0</ele><time>2026-04-21T17:22:23.837Z</time></trkpt><trkpt lat="44.758395" lon="-0.48582"><ele>37.75</ele><time>2026-04-21T17:22:25.837Z</time></trkpt><trkpt lat="44.75842" lon="-0.48567"><ele>37.5</ele><time>2026-04-21T17:22:27.836Z</time></trkpt><trkpt lat="44.7584433" lon="-0.48551"><ele>37.25</ele><time>2026-04-21T17:22:29.837Z</time></trkpt><trkpt lat="44.7584417" lon="-0.4853367"><ele>37.0</ele><time>2026-04-21T17:22:31.836Z</time></trkpt><trkpt lat="44.7584267" lon="-0.4851617"><ele>37.0</ele><time>2026-04-21T17:22:33.837Z</time></trkpt><trkpt lat="44.7584217" lon="-0.48507"><ele>37.0</ele><time>2026-04-21T17:22:34.837Z</time></trkpt><trkpt lat="44.7584233" lon="-0.4848933"><ele>37.0</ele><time>2026-04-21T17:22:36.837Z</time></trkpt><trkpt lat="44.7584217" lon="-0.484725"><ele>37.0</ele><time>2026-04-21T17:22:38.836Z</time></trkpt><trkpt lat="44.7584283" lon="-0.4845667"><ele>37.0</ele><time>2026-04-21T17:22:40.836Z</time></trkpt><trkpt lat="44.7584483" lon="-0.4843967"><ele>37.25</ele><time>2026-04-21T17:22:42.837Z</time></trkpt><trkpt lat="44.7584583" lon="-0.4842333"><ele>37.5</ele><time>2026-04-21T17:22:44.836Z</time></trkpt><trkpt lat="44.7584683" lon="-0.4840583"><ele>37.75</ele><time>2026-04-21T17:22:46.837Z</time></trkpt><trkpt lat="44.758475" lon="-0.4838917"><ele>38.0</ele><time>2026-04-21T17:22:48.836Z</time></trkpt><trkpt lat="44.7584733" lon="-0.4837267"><ele>37.666666666666664</ele><time>2026-04-21T17:22:50.837Z</time></trkpt><trkpt lat="44.7584667" lon="-0.483565"><ele>37.33333333333333</ele><time>2026-04-21T17:22:52.836Z</time></trkpt><trkpt lat="44.758435" lon="-0.483395"><ele>37.0</ele><time>2026-04-21T17:22:54.837Z</time></trkpt><trkpt lat="44.7584167" lon="-0.4833017"><ele>36.666666666666664</ele><time>2026-04-21T17:22:55.837Z</time></trkpt><trkpt lat="44.758395" lon="-0.4832083"><ele>36.333333333333336</ele><time>2026-04-21T17:22:56.837Z</time></trkpt><trkpt lat="44.7583833" lon="-0.4831167"><ele>36.0</ele><time>2026-04-21T17:22:57.837Z</time></trkpt><trkpt lat="44.7583667" lon="-0.4830283"><ele>36.00000000000001</ele><time>2026-04-21T17:22:58.836Z</time></trkpt><trkpt lat="44.7583483" lon="-0.48294"><ele>36.0</ele><time>2026-04-21T17:22:59.835Z</time></trkpt><trkpt lat="44.7583267" lon="-0.4828483"><ele>36.0</ele><time>2026-04-21T17:23:00.836Z</time></trkpt><trkpt lat="44.7583067" lon="-0.4827617"><ele>36.0</ele><time>2026-04-21T17:23:01.836Z</time></trkpt><trkpt lat="44.7582817" lon="-0.4826767"><ele>36.0</ele><time>2026-04-21T17:23:02.836Z</time></trkpt><trkpt lat="44.75826" lon="-0.4825883"><ele>36.00000000000001</ele><time>2026-04-21T17:23:03.835Z</time></trkpt><trkpt lat="44.75824" lon="-0.4824967"><ele>36.0</ele><time>2026-04-21T17:23:04.836Z</time></trkpt><trkpt lat="44.75824" lon="-0.4824017"><ele>35.5</ele><time>2026-04-21T17:23:05.836Z</time></trkpt><trkpt lat="44.7582367" lon="-0.4823033"><ele>35.0</ele><time>2026-04-21T17:23:06.836Z</time></trkpt><trkpt lat="44.7582367" lon="-0.4821983"><ele>34.5</ele><time>2026-04-21T17:23:07.835Z</time></trkpt><trkpt lat="44.7582333" lon="-0.4820917"><ele>34.0</ele><time>2026-04-21T17:23:08.836Z</time></trkpt><trkpt lat="44.7582317" lon="-0.4819917"><ele>33.5</ele><time>2026-04-21T17:23:09.836Z</time></trkpt><trkpt lat="44.7582383" lon="-0.4818967"><ele>33.0</ele><time>2026-04-21T17:23:10.836Z</time></trkpt><trkpt lat="44.758235" lon="-0.4817283"><ele>32.833333333333336</ele><time>2026-04-21T17:23:12.836Z</time></trkpt><trkpt lat="44.75824" lon="-0.4815667"><ele>32.666666666666664</ele><time>2026-04-21T17:23:14.835Z</time></trkpt><trkpt lat="44.758245" lon="-0.4814783"><ele>32.5</ele><time>2026-04-21T17:23:15.836Z</time></trkpt><trkpt lat="44.7582483" lon="-0.481385"><ele>32.33333333333333</ele><time>2026-04-21T17:23:16.835Z</time></trkpt><trkpt lat="44.75825" lon="-0.4812933"><ele>32.166666666666664</ele><time>2026-04-21T17:23:17.835Z</time></trkpt><trkpt lat="44.7582483" lon="-0.4811867"><ele>32.0</ele><time>2026-04-21T17:23:18.836Z</time></trkpt><trkpt lat="44.7582367" lon="-0.4810883"><ele>32.0</ele><time>2026-04-21T17:23:19.836Z</time></trkpt><trkpt lat="44.758225" lon="-0.48099"><ele>32.0</ele><time>2026-04-21T17:23:20.835Z</time></trkpt><trkpt lat="44.7582033" lon="-0.480895"><ele>32.0</ele><time>2026-04-21T17:23:21.836Z</time></trkpt><trkpt lat="44.7581883" lon="-0.4807967"><ele>32.0</ele><time>2026-04-21T17:23:22.836Z</time></trkpt><trkpt lat="44.7581433" lon="-0.4806333"><ele>32.0</ele><time>2026-04-21T17:23:24.835Z</time></trkpt><trkpt lat="44.75809" lon="-0.4804783"><ele>32.25</ele><time>2026-04-21T17:23:26.836Z</time></trkpt><trkpt lat="44.7580333" lon="-0.4803217"><ele>32.5</ele><time>2026-04-21T17:23:28.836Z</time></trkpt><trkpt lat="44.757995" lon="-0.4801683"><ele>32.75</ele><time>2026-04-21T17:23:30.835Z</time></trkpt><trkpt lat="44.75796" lon="-0.4800283"><ele>33.0</ele><time>2026-04-21T17:23:32.835Z</time></trkpt><trkpt lat="44.7579233" lon="-0.4798883"><ele>33.0</ele><time>2026-04-21T17:23:34.836Z</time></trkpt><trkpt lat="44.7579333" lon="-0.4797567"><ele>33.0</ele><time>2026-04-21T17:23:36.835Z</time></trkpt><trkpt lat="44.7580117" lon="-0.47964"><ele>33.0</ele><time>2026-04-21T17:23:38.835Z</time></trkpt><trkpt lat="44.7580617" lon="-0.4795817"><ele>33.0</ele><time>2026-04-21T17:23:39.836Z</time></trkpt><trkpt lat="44.758165" lon="-0.47945"><ele>33.0</ele><time>2026-04-21T17:23:41.836Z</time></trkpt><trkpt lat="44.7582283" lon="-0.479375"><ele>33.0</ele><time>2026-04-21T17:23:42.836Z</time></trkpt><trkpt lat="44.7582867" lon="-0.479315"><ele>33.0</ele><time>2026-04-21T17:23:43.836Z</time></trkpt><trkpt lat="44.7583417" lon="-0.479255"><ele>33.0</ele><time>2026-04-21T17:23:44.836Z</time></trkpt><trkpt lat="44.7584" lon="-0.47919"><ele>33.0</ele><time>2026-04-21T17:23:45.836Z</time></trkpt><trkpt lat="44.75846" lon="-0.479125"><ele>33.0</ele><time>2026-04-21T17:23:46.836Z</time></trkpt><trkpt lat="44.758525" lon="-0.47905"><ele>33.0</ele><time>2026-04-21T17:23:47.836Z</time></trkpt><trkpt lat="44.75859" lon="-0.47896"><ele>32.833333333333336</ele><time>2026-04-21T17:23:48.836Z</time></trkpt><trkpt lat="44.758655" lon="-0.47887"><ele>32.666666666666664</ele><time>2026-04-21T17:23:49.836Z</time></trkpt><trkpt lat="44.7587267" lon="-0.4787883"><ele>32.5</ele><time>2026-04-21T17:23:50.835Z</time></trkpt><trkpt lat="44.7587883" lon="-0.4787017"><ele>32.33333333333333</ele><time>2026-04-21T17:23:51.836Z</time></trkpt><trkpt lat="44.7588433" lon="-0.4786067"><ele>32.166666666666664</ele><time>2026-04-21T17:23:52.836Z</time></trkpt><trkpt lat="44.7588883" lon="-0.4785067"><ele>32.0</ele><time>2026-04-21T17:23:53.835Z</time></trkpt><trkpt lat="44.7589217" lon="-0.4784233"><ele>32.714285714285715</ele><time>2026-04-21T17:23:54.836Z</time></trkpt><trkpt lat="44.758945" lon="-0.4783317"><ele>33.42857142857142</ele><time>2026-04-21T17:23:55.836Z</time></trkpt><trkpt lat="44.7589633" lon="-0.4782367"><ele>34.14285714285714</ele><time>2026-04-21T17:23:56.835Z</time></trkpt><trkpt lat="44.758965" lon="-0.4781367"><ele>34.857142857142854</ele><time>2026-04-21T17:23:57.835Z</time></trkpt><trkpt lat="44.7589667" lon="-0.47803"><ele>35.57142857142857</ele><time>2026-04-21T17:23:58.836Z</time></trkpt><trkpt lat="44.7589633" lon="-0.4779183"><ele>36.285714285714285</ele><time>2026-04-21T17:23:59.835Z</time></trkpt><trkpt lat="44.75896" lon="-0.47781"><ele>37.0</ele><time>2026-04-21T17:24:00.835Z</time></trkpt><trkpt lat="44.7589667" lon="-0.4777033"><ele>37.5</ele><time>2026-04-21T17:24:01.836Z</time></trkpt><trkpt lat="44.7589667" lon="-0.47759"><ele>38.0</ele><time>2026-04-21T17:24:02.836Z</time></trkpt><trkpt lat="44.758965" lon="-0.4774817"><ele>38.5</ele><time>2026-04-21T17:24:03.835Z</time></trkpt><trkpt lat="44.75896" lon="-0.4773733"><ele>39.0</ele><time>2026-04-21T17:24:04.835Z</time></trkpt><trkpt lat="44.7589583" lon="-0.477255"><ele>39.5</ele><time>2026-04-21T17:24:05.835Z</time></trkpt><trkpt lat="44.7589567" lon="-0.4771417"><ele>40.0</ele><time>2026-04-21T17:24:06.836Z</time></trkpt><trkpt lat="44.758955" lon="-0.4770333"><ele>40.285714285714285</ele><time>2026-04-21T17:24:07.836Z</time></trkpt><trkpt lat="44.7589533" lon="-0.4769267"><ele>40.57142857142857</ele><time>2026-04-21T17:24:08.835Z</time></trkpt><trkpt lat="44.7589517" lon="-0.4768167"><ele>40.85714285714286</ele><time>2026-04-21T17:24:09.835Z</time></trkpt><trkpt lat="44.7589583" lon="-0.476695"><ele>41.14285714285714</ele><time>2026-04-21T17:24:10.836Z</time></trkpt><trkpt lat="44.7589533" lon="-0.4765883"><ele>41.42857142857143</ele><time>2026-04-21T17:24:11.835Z</time></trkpt><trkpt lat="44.75895" lon="-0.4764967"><ele>41.714285714285715</ele><time>2026-04-21T17:24:12.836Z</time></trkpt><trkpt lat="44.7589417" lon="-0.476405"><ele>42.0</ele><time>2026-04-21T17:24:13.835Z</time></trkpt><trkpt lat="44.758925" lon="-0.4762533"><ele>42.0</ele><time>2026-04-21T17:24:15.836Z</time></trkpt><trkpt lat="44.7589117" lon="-0.4761117"><ele>42.0</ele><time>2026-04-21T17:24:17.836Z</time></trkpt><trkpt lat="44.7588967" lon="-0.47599"><ele>42.0</ele><time>2026-04-21T17:24:19.836Z</time></trkpt><trkpt lat="44.7588833" lon="-0.475865"><ele>42.0</ele><time>2026-04-21T17:24:21.835Z</time></trkpt><trkpt lat="44.758865" lon="-0.4757583"><ele>42.0</ele><time>2026-04-21T17:24:23.836Z</time></trkpt><trkpt lat="44.7588633" lon="-0.4756617"><ele>42.0</ele><time>2026-04-21T17:24:25.835Z</time></trkpt><trkpt lat="44.7588317" lon="-0.475545"><ele>42.0</ele><time>2026-04-21T17:24:28.836Z</time></trkpt><trkpt lat="44.7588133" lon="-0.475425"><ele>42.0</ele><time>2026-04-21T17:25:04.835Z</time></trkpt><trkpt lat="44.7588183" lon="-0.4753283"><ele>42.0</ele><time>2026-04-21T17:25:06.836Z</time></trkpt><trkpt lat="44.7588267" lon="-0.4752233"><ele>42.0</ele><time>2026-04-21T17:25:08.835Z</time></trkpt><trkpt lat="44.7588283" lon="-0.47511"><ele>42.0</ele><time>2026-04-21T17:25:10.836Z</time></trkpt><trkpt lat="44.7588483" lon="-0.4749833"><ele>42.0</ele><time>2026-04-21T17:25:12.836Z</time></trkpt><trkpt lat="44.7588567" lon="-0.47477"><ele>42.0</ele><time>2026-04-21T17:25:15.835Z</time></trkpt><trkpt lat="44.7588683" lon="-0.474615"><ele>42.0</ele><time>2026-04-21T17:25:17.835Z</time></trkpt><trkpt lat="44.758875" lon="-0.47446"><ele>42.0</ele><time>2026-04-21T17:25:19.836Z</time></trkpt><trkpt lat="44.75888" lon="-0.4743067"><ele>42.0</ele><time>2026-04-21T17:25:21.836Z</time></trkpt><trkpt lat="44.758875" lon="-0.47417"><ele>42.0</ele><time>2026-04-21T17:25:23.836Z</time></trkpt><trkpt lat="44.7588567" lon="-0.47403"><ele>41.75</ele><time>2026-04-21T17:25:25.836Z</time></trkpt><trkpt lat="44.7588617" lon="-0.4738917"><ele>41.5</ele><time>2026-04-21T17:25:27.836Z</time></trkpt><trkpt lat="44.7588517" lon="-0.4737483"><ele>41.25</ele><time>2026-04-21T17:25:29.836Z</time></trkpt><trkpt lat="44.7588433" lon="-0.4735233"><ele>41.0</ele><time>2026-04-21T17:25:32.835Z</time></trkpt><trkpt lat="44.7588317" lon="-0.4733683"><ele>41.0</ele><time>2026-04-21T17:25:34.835Z</time></trkpt><trkpt lat="44.7588283" lon="-0.473215"><ele>41.0</ele><time>2026-04-21T17:25:36.835Z</time></trkpt><trkpt lat="44.7587833" lon="-0.4724733"><ele>41.0</ele><time>2026-04-21T17:25:45.836Z</time></trkpt><trkpt lat="44.7587767" lon="-0.47231"><ele>41.0</ele><time>2026-04-21T17:25:47.835Z</time></trkpt><trkpt lat="44.7587683" lon="-0.4721467"><ele>41.0</ele><time>2026-04-21T17:25:49.836Z</time></trkpt><trkpt lat="44.7587583" lon="-0.47199"><ele>41.0</ele><time>2026-04-21T17:25:51.835Z</time></trkpt><trkpt lat="44.7587483" lon="-0.4718217"><ele>41.25</ele><time>2026-04-21T17:25:53.836Z</time></trkpt><trkpt lat="44.75875" lon="-0.4716467"><ele>41.5</ele><time>2026-04-21T17:25:55.836Z</time></trkpt><trkpt lat="44.75875" lon="-0.47149"><ele>41.75</ele><time>2026-04-21T17:25:57.836Z</time></trkpt><trkpt lat="44.758755" lon="-0.4713233"><ele>42.0</ele><time>2026-04-21T17:25:59.835Z</time></trkpt><trkpt lat="44.7587733" lon="-0.471155"><ele>42.0</ele><time>2026-04-21T17:26:01.835Z</time></trkpt><trkpt lat="44.758785" lon="-0.4709967"><ele>42.0</ele><time>2026-04-21T17:26:03.836Z</time></trkpt><trkpt lat="44.7587967" lon="-0.4708433"><ele>42.0</ele><time>2026-04-21T17:26:05.836Z</time></trkpt><trkpt lat="44.7588183" lon="-0.4706967"><ele>42.0</ele><time>2026-04-21T17:26:07.836Z</time></trkpt><trkpt lat="44.7588333" lon="-0.4705517"><ele>42.0</ele><time>2026-04-21T17:26:09.836Z</time></trkpt><trkpt lat="44.758855" lon="-0.4704133"><ele>41.8</ele><time>2026-04-21T17:26:11.836Z</time></trkpt><trkpt lat="44.7588933" lon="-0.4702867"><ele>41.6</ele><time>2026-04-21T17:26:13.836Z</time></trkpt><trkpt lat="44.7589417" lon="-0.4701683"><ele>41.4</ele><time>2026-04-21T17:26:15.836Z</time></trkpt><trkpt lat="44.7589867" lon="-0.470055"><ele>41.199999999999996</ele><time>2026-04-21T17:26:17.835Z</time></trkpt><trkpt lat="44.7590367" lon="-0.469935"><ele>41.0</ele><time>2026-04-21T17:26:19.836Z</time></trkpt><trkpt lat="44.7590867" lon="-0.4698183"><ele>41.0</ele><time>2026-04-21T17:26:21.836Z</time></trkpt><trkpt lat="44.7591317" lon="-0.4697067"><ele>41.0</ele><time>2026-04-21T17:26:23.836Z</time></trkpt><trkpt lat="44.759165" lon="-0.46959"><ele>41.0</ele><time>2026-04-21T17:26:25.836Z</time></trkpt><trkpt lat="44.75919" lon="-0.4694783"><ele>41.0</ele><time>2026-04-21T17:26:27.835Z</time></trkpt><trkpt lat="44.759195" lon="-0.4693517"><ele>41.0</ele><time>2026-04-21T17:26:29.836Z</time></trkpt><trkpt lat="44.759195" lon="-0.469225"><ele>41.0</ele><time>2026-04-21T17:26:31.835Z</time></trkpt><trkpt lat="44.7591933" lon="-0.4690967"><ele>40.4</ele><time>2026-04-21T17:26:33.835Z</time></trkpt><trkpt lat="44.7591883" lon="-0.4689517"><ele>39.8</ele><time>2026-04-21T17:26:35.835Z</time></trkpt><trkpt lat="44.7591717" lon="-0.4688083"><ele>39.199999999999996</ele><time>2026-04-21T17:26:37.836Z</time></trkpt><trkpt lat="44.7591483" lon="-0.4686667"><ele>38.599999999999994</ele><time>2026-04-21T17:26:39.836Z</time></trkpt><trkpt lat="44.7591217" lon="-0.4685167"><ele>38.0</ele><time>2026-04-21T17:26:41.835Z</time></trkpt><trkpt lat="44.7591" lon="-0.468365"><ele>37.8</ele><time>2026-04-21T17:26:43.836Z</time></trkpt><trkpt lat="44.7590783" lon="-0.4682133"><ele>37.599999999999994</ele><time>2026-04-21T17:26:45.836Z</time></trkpt><trkpt lat="44.759055" lon="-0.4680767"><ele>37.400000000000006</ele><time>2026-04-21T17:26:47.836Z</time></trkpt><trkpt lat="44.7590283" lon="-0.4679283"><ele>37.2</ele><time>2026-04-21T17:26:49.836Z</time></trkpt><trkpt lat="44.7589983" lon="-0.467785"><ele>37.0</ele><time>2026-04-21T17:26:51.835Z</time></trkpt><trkpt lat="44.7589683" lon="-0.4676367"><ele>37.0</ele><time>2026-04-21T17:26:53.836Z</time></trkpt><trkpt lat="44.7589317" lon="-0.4674917"><ele>37.0</ele><time>2026-04-21T17:26:55.836Z</time></trkpt><trkpt lat="44.7588967" lon="-0.4673483"><ele>37.0</ele><time>2026-04-21T17:26:57.836Z</time></trkpt><trkpt lat="44.7588583" lon="-0.467205"><ele>37.0</ele><time>2026-04-21T17:26:59.836Z</time></trkpt><trkpt lat="44.7588233" lon="-0.467065"><ele>37.0</ele><time>2026-04-21T17:27:01.836Z</time></trkpt><trkpt lat="44.7587883" lon="-0.4669317"><ele>37.0</ele><time>2026-04-21T17:27:03.836Z</time></trkpt><trkpt lat="44.7587533" lon="-0.4667917"><ele>37.0</ele><time>2026-04-21T17:27:05.836Z</time></trkpt><trkpt lat="44.7587017" lon="-0.4666633"><ele>37.0</ele><time>2026-04-21T17:27:07.836Z</time></trkpt><trkpt lat="44.758655" lon="-0.4665283"><ele>37.0</ele><time>2026-04-21T17:27:09.835Z</time></trkpt><trkpt lat="44.758595" lon="-0.4663933"><ele>37.0</ele><time>2026-04-21T17:27:11.835Z</time></trkpt><trkpt lat="44.7585383" lon="-0.4662567"><ele>37.5</ele><time>2026-04-21T17:27:13.836Z</time></trkpt><trkpt lat="44.7584817" lon="-0.466125"><ele>38.0</ele><time>2026-04-21T17:27:15.835Z</time></trkpt><trkpt lat="44.7584267" lon="-0.4659867"><ele>38.5</ele><time>2026-04-21T17:27:17.835Z</time></trkpt><trkpt lat="44.7583567" lon="-0.4658467"><ele>39.0</ele><time>2026-04-21T17:27:19.835Z</time></trkpt><trkpt lat="44.7582833" lon="-0.4657117"><ele>39.0</ele><time>2026-04-21T17:27:21.835Z</time></trkpt><trkpt lat="44.7582" lon="-0.4655667"><ele>39.0</ele><time>2026-04-21T17:27:23.835Z</time></trkpt><trkpt lat="44.758155" lon="-0.4654917"><ele>39.0</ele><time>2026-04-21T17:27:24.835Z</time></trkpt><trkpt lat="44.75811" lon="-0.465415"><ele>39.0</ele><time>2026-04-21T17:27:25.834Z</time></trkpt><trkpt lat="44.7580667" lon="-0.465345"><ele>39.0</ele><time>2026-04-21T17:27:26.835Z</time></trkpt><trkpt lat="44.7580267" lon="-0.4652633"><ele>39.0</ele><time>2026-04-21T17:27:27.835Z</time></trkpt><trkpt lat="44.757985" lon="-0.4651817"><ele>38.85714285714286</ele><time>2026-04-21T17:27:28.835Z</time></trkpt><trkpt lat="44.757955" lon="-0.4651"><ele>38.71428571428571</ele><time>2026-04-21T17:27:29.835Z</time></trkpt><trkpt lat="44.7579317" lon="-0.4650117"><ele>38.57142857142857</ele><time>2026-04-21T17:27:30.835Z</time></trkpt><trkpt lat="44.7579033" lon="-0.46492"><ele>38.42857142857143</ele><time>2026-04-21T17:27:31.835Z</time></trkpt><trkpt lat="44.75788" lon="-0.464825"><ele>38.28571428571429</ele><time>2026-04-21T17:27:32.835Z</time></trkpt><trkpt lat="44.7578517" lon="-0.4647417"><ele>38.14285714285714</ele><time>2026-04-21T17:27:33.835Z</time></trkpt><trkpt lat="44.7578283" lon="-0.46465"><ele>38.0</ele><time>2026-04-21T17:27:34.835Z</time></trkpt><trkpt lat="44.7578083" lon="-0.4645617"><ele>38.0</ele><time>2026-04-21T17:27:35.835Z</time></trkpt><trkpt lat="44.7577883" lon="-0.464475"><ele>38.0</ele><time>2026-04-21T17:27:36.834Z</time></trkpt><trkpt lat="44.75776" lon="-0.4643017"><ele>38.0</ele><time>2026-04-21T17:27:38.835Z</time></trkpt><trkpt lat="44.757745" lon="-0.464215"><ele>38.0</ele><time>2026-04-21T17:27:39.835Z</time></trkpt><trkpt lat="44.7577267" lon="-0.464055"><ele>38.0</ele><time>2026-04-21T17:27:41.835Z</time></trkpt><trkpt lat="44.7577117" lon="-0.46392"><ele>39.2</ele><time>2026-04-21T17:27:43.835Z</time></trkpt><trkpt lat="44.7576967" lon="-0.4637967"><ele>40.4</ele><time>2026-04-21T17:27:45.835Z</time></trkpt><trkpt lat="44.7576967" lon="-0.46364"><ele>41.6</ele><time>2026-04-21T17:27:47.835Z</time></trkpt><trkpt lat="44.7576883" lon="-0.463495"><ele>42.800000000000004</ele><time>2026-04-21T17:27:49.835Z</time></trkpt><trkpt lat="44.7576733" lon="-0.463335"><ele>44.0</ele><time>2026-04-21T17:27:51.835Z</time></trkpt><trkpt lat="44.7576517" lon="-0.463185"><ele>44.0</ele><time>2026-04-21T17:27:53.835Z</time></trkpt><trkpt lat="44.7576483" lon="-0.4630317"><ele>44.0</ele><time>2026-04-21T17:27:55.835Z</time></trkpt><trkpt lat="44.7576433" lon="-0.462865"><ele>44.0</ele><time>2026-04-21T17:27:57.835Z</time></trkpt><trkpt lat="44.757625" lon="-0.4626933"><ele>44.0</ele><time>2026-04-21T17:27:59.835Z</time></trkpt><trkpt lat="44.75761" lon="-0.4626033"><ele>44.0</ele><time>2026-04-21T17:28:00.835Z</time></trkpt><trkpt lat="44.7575983" lon="-0.4625083"><ele>43.666666666666664</ele><time>2026-04-21T17:28:01.835Z</time></trkpt><trkpt lat="44.757585" lon="-0.4624183"><ele>43.33333333333333</ele><time>2026-04-21T17:28:02.835Z</time></trkpt><trkpt lat="44.75757" lon="-0.46232"><ele>43.0</ele><time>2026-04-21T17:28:03.835Z</time></trkpt><trkpt lat="44.757545" lon="-0.4622367"><ele>42.666666666666664</ele><time>2026-04-21T17:28:04.834Z</time></trkpt><trkpt lat="44.7574933" lon="-0.4620767"><ele>42.333333333333336</ele><time>2026-04-21T17:28:06.835Z</time></trkpt><trkpt lat="44.7574433" lon="-0.46192"><ele>42.0</ele><time>2026-04-21T17:28:08.835Z</time></trkpt><trkpt lat="44.757415" lon="-0.4618383"><ele>42.0</ele><time>2026-04-21T17:28:09.835Z</time></trkpt><trkpt lat="44.7573567" lon="-0.461685"><ele>42.0</ele><time>2026-04-21T17:28:11.835Z</time></trkpt><trkpt lat="44.757305" lon="-0.4615383"><ele>42.0</ele><time>2026-04-21T17:28:13.835Z</time></trkpt><trkpt lat="44.7572617" lon="-0.4613867"><ele>42.0</ele><time>2026-04-21T17:28:15.835Z</time></trkpt><trkpt lat="44.75724" lon="-0.4613033"><ele>42.0</ele><time>2026-04-21T17:28:16.835Z</time></trkpt><trkpt lat="44.7571917" lon="-0.4611433"><ele>42.0</ele><time>2026-04-21T17:28:18.835Z</time></trkpt><trkpt lat="44.7571417" lon="-0.46098"><ele>42.0</ele><time>2026-04-21T17:28:20.835Z</time></trkpt><trkpt lat="44.7570983" lon="-0.4608233"><ele>42.0</ele><time>2026-04-21T17:28:22.834Z</time></trkpt><trkpt lat="44.7570783" lon="-0.4607383"><ele>42.0</ele><time>2026-04-21T17:28:23.835Z</time></trkpt><trkpt lat="44.7570433" lon="-0.460595"><ele>42.0</ele><time>2026-04-21T17:28:25.834Z</time></trkpt><trkpt lat="44.7570167" lon="-0.46048"><ele>42.0</ele><time>2026-04-21T17:28:27.835Z</time></trkpt><trkpt lat="44.7569983" lon="-0.4603517"><ele>42.0</ele><time>2026-04-21T17:28:29.835Z</time></trkpt><trkpt lat="44.7569867" lon="-0.4602317"><ele>42.0</ele><time>2026-04-21T17:28:31.835Z</time></trkpt><trkpt lat="44.75698" lon="-0.4600883"><ele>42.0</ele><time>2026-04-21T17:28:33.835Z</time></trkpt><trkpt lat="44.756965" lon="-0.459945"><ele>42.0</ele><time>2026-04-21T17:28:35.835Z</time></trkpt><trkpt lat="44.7569517" lon="-0.45979"><ele>42.0</ele><time>2026-04-21T17:28:37.835Z</time></trkpt><trkpt lat="44.7569383" lon="-0.459645"><ele>42.0</ele><time>2026-04-21T17:28:39.835Z</time></trkpt><trkpt lat="44.75692" lon="-0.45948"><ele>42.0</ele><time>2026-04-21T17:28:41.835Z</time></trkpt><trkpt lat="44.7569067" lon="-0.45932"><ele>42.0</ele><time>2026-04-21T17:28:43.834Z</time></trkpt><trkpt lat="44.7568933" lon="-0.4591633"><ele>42.0</ele><time>2026-04-21T17:28:45.835Z</time></trkpt><trkpt lat="44.7568817" lon="-0.4590083"><ele>43.2</ele><time>2026-04-21T17:28:47.834Z</time></trkpt><trkpt lat="44.7568667" lon="-0.458865"><ele>44.400000000000006</ele><time>2026-04-21T17:28:49.834Z</time></trkpt><trkpt lat="44.756855" lon="-0.4587467"><ele>45.599999999999994</ele><time>2026-04-21T17:28:51.834Z</time></trkpt><trkpt lat="44.75685" lon="-0.4586117"><ele>46.8</ele><time>2026-04-21T17:28:53.835Z</time></trkpt><trkpt lat="44.7568483" lon="-0.458465"><ele>48.0</ele><time>2026-04-21T17:28:55.835Z</time></trkpt><trkpt lat="44.75683" lon="-0.4583133"><ele>48.25</ele><time>2026-04-21T17:28:57.835Z</time></trkpt><trkpt lat="44.7568217" lon="-0.4581383"><ele>48.5</ele><time>2026-04-21T17:28:59.834Z</time></trkpt><trkpt lat="44.75681" lon="-0.4579633"><ele>48.75</ele><time>2026-04-21T17:29:01.835Z</time></trkpt><trkpt lat="44.75679" lon="-0.4578133"><ele>49.0</ele><time>2026-04-21T17:29:03.835Z</time></trkpt><trkpt lat="44.756775" lon="-0.4576483"><ele>48.666666666666664</ele><time>2026-04-21T17:29:05.835Z</time></trkpt><trkpt lat="44.756765" lon="-0.45756"><ele>48.33333333333333</ele><time>2026-04-21T17:29:06.835Z</time></trkpt><trkpt lat="44.7567383" lon="-0.4573967"><ele>48.0</ele><time>2026-04-21T17:29:08.835Z</time></trkpt><trkpt lat="44.7567167" lon="-0.4573117"><ele>47.666666666666664</ele><time>2026-04-21T17:29:09.835Z</time></trkpt><trkpt lat="44.7566933" lon="-0.4572283"><ele>47.33333333333333</ele><time>2026-04-21T17:29:10.835Z</time></trkpt><trkpt lat="44.7566417" lon="-0.457065"><ele>47.0</ele><time>2026-04-21T17:29:12.835Z</time></trkpt><trkpt lat="44.7566167" lon="-0.4569833"><ele>47.0</ele><time>2026-04-21T17:29:13.834Z</time></trkpt><trkpt lat="44.7565883" lon="-0.4568967"><ele>47.0</ele><time>2026-04-21T17:29:14.834Z</time></trkpt><trkpt lat="44.756555" lon="-0.4568183"><ele>47.0</ele><time>2026-04-21T17:29:15.835Z</time></trkpt><trkpt lat="44.7565233" lon="-0.4567367"><ele>47.0</ele><time>2026-04-21T17:29:16.835Z</time></trkpt><trkpt lat="44.7564983" lon="-0.4566517"><ele>47.0</ele><time>2026-04-21T17:29:17.835Z</time></trkpt><trkpt lat="44.7564767" lon="-0.4565683"><ele>47.0</ele><time>2026-04-21T17:29:18.835Z</time></trkpt><trkpt lat="44.7564533" lon="-0.4564833"><ele>47.0</ele><time>2026-04-21T17:29:19.834Z</time></trkpt><trkpt lat="44.7564067" lon="-0.4563267"><ele>47.2</ele><time>2026-04-21T17:29:21.835Z</time></trkpt><trkpt lat="44.75636" lon="-0.45617"><ele>47.400000000000006</ele><time>2026-04-21T17:29:23.835Z</time></trkpt><trkpt lat="44.7563317" lon="-0.45609"><ele>47.599999999999994</ele><time>2026-04-21T17:29:24.835Z</time></trkpt><trkpt lat="44.7562733" lon="-0.45594"><ele>47.8</ele><time>2026-04-21T17:29:26.835Z</time></trkpt><trkpt lat="44.756225" lon="-0.45578"><ele>48.0</ele><time>2026-04-21T17:29:28.835Z</time></trkpt><trkpt lat="44.7562" lon="-0.4556983"><ele>48.0</ele><time>2026-04-21T17:29:29.834Z</time></trkpt><trkpt lat="44.7561467" lon="-0.4555467"><ele>48.0</ele><time>2026-04-21T17:29:31.835Z</time></trkpt><trkpt lat="44.7561217" lon="-0.4554617"><ele>48.0</ele><time>2026-04-21T17:29:32.835Z</time></trkpt><trkpt lat="44.7560783" lon="-0.4552917"><ele>48.0</ele><time>2026-04-21T17:29:34.835Z</time></trkpt><trkpt lat="44.7560567" lon="-0.4552"><ele>48.0</ele><time>2026-04-21T17:29:35.835Z</time></trkpt><trkpt lat="44.75603" lon="-0.4551133"><ele>48.0</ele><time>2026-04-21T17:29:36.835Z</time></trkpt><trkpt lat="44.7560067" lon="-0.45503"><ele>48.0</ele><time>2026-04-21T17:29:37.835Z</time></trkpt><trkpt lat="44.7559833" lon="-0.45494"><ele>48.0</ele><time>2026-04-21T17:29:38.834Z</time></trkpt><trkpt lat="44.75596" lon="-0.45485"><ele>48.0</ele><time>2026-04-21T17:29:39.834Z</time></trkpt><trkpt lat="44.75594" lon="-0.4547517"><ele>48.0</ele><time>2026-04-21T17:29:40.834Z</time></trkpt><trkpt lat="44.7558783" lon="-0.4544633"><ele>48.0</ele><time>2026-04-21T17:29:43.834Z</time></trkpt><trkpt lat="44.75586" lon="-0.4543633"><ele>48.0</ele><time>2026-04-21T17:29:44.835Z</time></trkpt><trkpt lat="44.7558433" lon="-0.454265"><ele>48.0</ele><time>2026-04-21T17:29:45.835Z</time></trkpt><trkpt lat="44.7558233" lon="-0.4541617"><ele>48.0</ele><time>2026-04-21T17:29:46.835Z</time></trkpt><trkpt lat="44.755805" lon="-0.45406"><ele>48.0</ele><time>2026-04-21T17:29:47.835Z</time></trkpt><trkpt lat="44.7557833" lon="-0.453955"><ele>48.0</ele><time>2026-04-21T17:29:48.835Z</time></trkpt><trkpt lat="44.7557583" lon="-0.4538483"><ele>48.0</ele><time>2026-04-21T17:29:49.834Z</time></trkpt><trkpt lat="44.7557367" lon="-0.453745"><ele>47.71428571428571</ele><time>2026-04-21T17:29:50.835Z</time></trkpt><trkpt lat="44.755715" lon="-0.4536383"><ele>47.42857142857143</ele><time>2026-04-21T17:29:51.834Z</time></trkpt><trkpt lat="44.7556933" lon="-0.4535333"><ele>47.14285714285714</ele><time>2026-04-21T17:29:52.834Z</time></trkpt><trkpt lat="44.7556717" lon="-0.4534317"><ele>46.857142857142854</ele><time>2026-04-21T17:29:53.835Z</time></trkpt><trkpt lat="44.7556533" lon="-0.45333"><ele>46.57142857142857</ele><time>2026-04-21T17:29:54.835Z</time></trkpt><trkpt lat="44.7556317" lon="-0.4532367"><ele>46.285714285714285</ele><time>2026-04-21T17:29:55.835Z</time></trkpt><trkpt lat="44.7556067" lon="-0.4531483"><ele>46.0</ele><time>2026-04-21T17:29:56.835Z</time></trkpt><trkpt lat="44.7555783" lon="-0.4529717"><ele>46.199999999999996</ele><time>2026-04-21T17:29:58.835Z</time></trkpt><trkpt lat="44.75555" lon="-0.4528117"><ele>46.4</ele><time>2026-04-21T17:30:00.834Z</time></trkpt><trkpt lat="44.75552" lon="-0.45265"><ele>46.6</ele><time>2026-04-21T17:30:02.835Z</time></trkpt><trkpt lat="44.7554867" lon="-0.4524933"><ele>46.8</ele><time>2026-04-21T17:30:04.834Z</time></trkpt><trkpt lat="44.75547" lon="-0.452405"><ele>47.0</ele><time>2026-04-21T17:30:05.835Z</time></trkpt><trkpt lat="44.7554483" lon="-0.4523183"><ele>47.0</ele><time>2026-04-21T17:30:06.835Z</time></trkpt><trkpt lat="44.7554167" lon="-0.4521517"><ele>47.0</ele><time>2026-04-21T17:30:08.835Z</time></trkpt><trkpt lat="44.7554017" lon="-0.4519867"><ele>47.0</ele><time>2026-04-21T17:30:10.835Z</time></trkpt><trkpt lat="44.7553783" lon="-0.4518233"><ele>47.0</ele><time>2026-04-21T17:30:12.835Z</time></trkpt><trkpt lat="44.755355" lon="-0.4516683"><ele>47.2</ele><time>2026-04-21T17:30:14.834Z</time></trkpt><trkpt lat="44.7553317" lon="-0.4515067"><ele>47.400000000000006</ele><time>2026-04-21T17:30:16.835Z</time></trkpt><trkpt lat="44.75531" lon="-0.45136"><ele>47.599999999999994</ele><time>2026-04-21T17:30:18.835Z</time></trkpt><trkpt lat="44.7552917" lon="-0.4512117"><ele>47.8</ele><time>2026-04-21T17:30:20.835Z</time></trkpt><trkpt lat="44.75527" lon="-0.451065"><ele>48.0</ele><time>2026-04-21T17:30:22.835Z</time></trkpt><trkpt lat="44.75525" lon="-0.45092"><ele>48.2</ele><time>2026-04-21T17:30:24.835Z</time></trkpt><trkpt lat="44.7552383" lon="-0.4507633"><ele>48.4</ele><time>2026-04-21T17:30:26.835Z</time></trkpt><trkpt lat="44.755215" lon="-0.4506217"><ele>48.6</ele><time>2026-04-21T17:30:28.834Z</time></trkpt><trkpt lat="44.755195" lon="-0.4504667"><ele>48.800000000000004</ele><time>2026-04-21T17:30:30.835Z</time></trkpt><trkpt lat="44.7551683" lon="-0.4503233"><ele>49.0</ele><time>2026-04-21T17:30:32.835Z</time></trkpt><trkpt lat="44.75515" lon="-0.4501733"><ele>49.5</ele><time>2026-04-21T17:30:34.834Z</time></trkpt><trkpt lat="44.7551317" lon="-0.4500133"><ele>50.0</ele><time>2026-04-21T17:30:36.835Z</time></trkpt><trkpt lat="44.7551017" lon="-0.4498533"><ele>50.5</ele><time>2026-04-21T17:30:38.834Z</time></trkpt><trkpt lat="44.75508" lon="-0.4496933"><ele>51.0</ele><time>2026-04-21T17:30:40.834Z</time></trkpt><trkpt lat="44.75506" lon="-0.4495233"><ele>51.199999999999996</ele><time>2026-04-21T17:30:42.835Z</time></trkpt><trkpt lat="44.7550417" lon="-0.44936"><ele>51.4</ele><time>2026-04-21T17:30:44.835Z</time></trkpt><trkpt lat="44.7550217" lon="-0.449195"><ele>51.6</ele><time>2026-04-21T17:30:46.835Z</time></trkpt><trkpt lat="44.755" lon="-0.4490383"><ele>51.8</ele><time>2026-04-21T17:30:48.835Z</time></trkpt><trkpt lat="44.75499" lon="-0.4489"><ele>52.0</ele><time>2026-04-21T17:30:50.835Z</time></trkpt><trkpt lat="44.7549933" lon="-0.4488033"><ele>51.83333333333333</ele><time>2026-04-21T17:30:52.835Z</time></trkpt><trkpt lat="44.7550233" lon="-0.4487183"><ele>51.666666666666664</ele><time>2026-04-21T17:30:54.835Z</time></trkpt><trkpt lat="44.75508" lon="-0.4486267"><ele>51.5</ele><time>2026-04-21T17:30:56.835Z</time></trkpt><trkpt lat="44.7551683" lon="-0.4485383"><ele>51.33333333333333</ele><time>2026-04-21T17:30:58.835Z</time></trkpt><trkpt lat="44.7552717" lon="-0.448465"><ele>51.166666666666664</ele><time>2026-04-21T17:31:00.835Z</time></trkpt><trkpt lat="44.7553283" lon="-0.4484217"><ele>51.0</ele><time>2026-04-21T17:31:01.835Z</time></trkpt><trkpt lat="44.7554317" lon="-0.448335"><ele>51.0</ele><time>2026-04-21T17:31:03.834Z</time></trkpt><trkpt lat="44.75549" lon="-0.4483"><ele>51.0</ele><time>2026-04-21T17:31:04.835Z</time></trkpt><trkpt lat="44.7555483" lon="-0.4482617"><ele>51.0</ele><time>2026-04-21T17:31:05.835Z</time></trkpt><trkpt lat="44.7556067" lon="-0.448215"><ele>51.0</ele><time>2026-04-21T17:31:06.834Z</time></trkpt><trkpt lat="44.7556683" lon="-0.4481667"><ele>51.0</ele><time>2026-04-21T17:31:07.835Z</time></trkpt><trkpt lat="44.7557317" lon="-0.448125"><ele>51.0</ele><time>2026-04-21T17:31:08.835Z</time></trkpt><trkpt lat="44.755795" lon="-0.44809"><ele>51.0</ele><time>2026-04-21T17:31:09.835Z</time></trkpt><trkpt lat="44.75586" lon="-0.448055"><ele>51.0</ele><time>2026-04-21T17:31:10.835Z</time></trkpt><trkpt lat="44.7559217" lon="-0.44802"><ele>51.0</ele><time>2026-04-21T17:31:11.834Z</time></trkpt><trkpt lat="44.7559867" lon="-0.447985"><ele>51.0</ele><time>2026-04-21T17:31:12.835Z</time></trkpt><trkpt lat="44.756095" lon="-0.447915"><ele>51.0</ele><time>2026-04-21T17:31:14.835Z</time></trkpt><trkpt lat="44.756205" lon="-0.4478433"><ele>51.0</ele><time>2026-04-21T17:31:16.834Z</time></trkpt><trkpt lat="44.7562683" lon="-0.4478133"><ele>51.0</ele><time>2026-04-21T17:31:17.835Z</time></trkpt><trkpt lat="44.75633" lon="-0.4477767"><ele>50.5</ele><time>2026-04-21T17:31:18.835Z</time></trkpt><trkpt lat="44.7563917" lon="-0.4477483"><ele>50.0</ele><time>2026-04-21T17:31:19.835Z</time></trkpt><trkpt lat="44.7564533" lon="-0.4477083"><ele>49.5</ele><time>2026-04-21T17:31:20.834Z</time></trkpt><trkpt lat="44.756515" lon="-0.4476817"><ele>49.0</ele><time>2026-04-21T17:31:21.835Z</time></trkpt><trkpt lat="44.7566267" lon="-0.44762"><ele>48.5</ele><time>2026-04-21T17:31:23.834Z</time></trkpt><trkpt lat="44.7567233" lon="-0.447555"><ele>48.0</ele><time>2026-04-21T17:31:25.834Z</time></trkpt><trkpt lat="44.7567667" lon="-0.44748"><ele>48.0</ele><time>2026-04-21T17:31:27.834Z</time></trkpt><trkpt lat="44.75677" lon="-0.44735"><ele>48.0</ele><time>2026-04-21T17:31:30.834Z</time></trkpt><trkpt lat="44.7567367" lon="-0.4472533"><ele>48.0</ele><time>2026-04-21T17:31:32.833Z</time></trkpt><trkpt lat="44.7567017" lon="-0.4471517"><ele>48.0</ele><time>2026-04-21T17:31:34.834Z</time></trkpt><trkpt lat="44.7566517" lon="-0.447045"><ele>48.0</ele><time>2026-04-21T17:31:36.834Z</time></trkpt><trkpt lat="44.7566033" lon="-0.4469417"><ele>48.0</ele><time>2026-04-21T17:31:38.834Z</time></trkpt><trkpt lat="44.756555" lon="-0.4468333"><ele>48.2</ele><time>2026-04-21T17:31:40.834Z</time></trkpt><trkpt lat="44.7565117" lon="-0.4467183"><ele>48.4</ele><time>2026-04-21T17:31:42.834Z</time></trkpt><trkpt lat="44.7564667" lon="-0.44661"><ele>48.6</ele><time>2026-04-21T17:31:44.834Z</time></trkpt><trkpt lat="44.7564267" lon="-0.4464967"><ele>48.800000000000004</ele><time>2026-04-21T17:31:46.833Z</time></trkpt><trkpt lat="44.756385" lon="-0.4463867"><ele>49.0</ele><time>2026-04-21T17:31:48.833Z</time></trkpt><trkpt lat="44.7563267" lon="-0.4462783"><ele>49.166666666666664</ele><time>2026-04-21T17:31:50.833Z</time></trkpt><trkpt lat="44.7562867" lon="-0.446165"><ele>49.33333333333333</ele><time>2026-04-21T17:31:52.834Z</time></trkpt><trkpt lat="44.7562383" lon="-0.446065"><ele>49.5</ele><time>2026-04-21T17:31:54.833Z</time></trkpt><trkpt lat="44.7561917" lon="-0.445955"><ele>49.66666666666667</ele><time>2026-04-21T17:31:56.834Z</time></trkpt><trkpt lat="44.75614" lon="-0.4458567"><ele>49.833333333333336</ele><time>2026-04-21T17:31:58.834Z</time></trkpt><trkpt lat="44.7560817" lon="-0.445755"><ele>50.0</ele><time>2026-04-21T17:32:00.833Z</time></trkpt><trkpt lat="44.7560317" lon="-0.445655"><ele>50.16666666666667</ele><time>2026-04-21T17:32:02.834Z</time></trkpt><trkpt lat="44.7559733" lon="-0.4455583"><ele>50.333333333333336</ele><time>2026-04-21T17:32:04.834Z</time></trkpt><trkpt lat="44.7559133" lon="-0.4454617"><ele>50.5</ele><time>2026-04-21T17:32:06.834Z</time></trkpt><trkpt lat="44.75586" lon="-0.4453717"><ele>50.66666666666667</ele><time>2026-04-21T17:32:08.833Z</time></trkpt><trkpt lat="44.75581" lon="-0.445275"><ele>50.833333333333336</ele><time>2026-04-21T17:32:10.833Z</time></trkpt><trkpt lat="44.7557517" lon="-0.4451833"><ele>51.0</ele><time>2026-04-21T17:32:12.834Z</time></trkpt><trkpt lat="44.7557033" lon="-0.4450917"><ele>51.0</ele><time>2026-04-21T17:32:14.834Z</time></trkpt><trkpt lat="44.7556583" lon="-0.4449983"><ele>51.0</ele><time>2026-04-21T17:32:16.834Z</time></trkpt><trkpt lat="44.7556083" lon="-0.4448967"><ele>51.0</ele><time>2026-04-21T17:32:18.833Z</time></trkpt><trkpt lat="44.75556" lon="-0.4448"><ele>51.0</ele><time>2026-04-21T17:32:20.834Z</time></trkpt><trkpt lat="44.7555133" lon="-0.444705"><ele>51.0</ele><time>2026-04-21T17:32:22.834Z</time></trkpt><trkpt lat="44.7554517" lon="-0.4446267"><ele>51.0</ele><time>2026-04-21T17:32:24.833Z</time></trkpt><trkpt lat="44.7554133" lon="-0.4445217"><ele>51.166666666666664</ele><time>2026-04-21T17:32:26.834Z</time></trkpt><trkpt lat="44.7553567" lon="-0.4444233"><ele>51.33333333333333</ele><time>2026-04-21T17:32:28.834Z</time></trkpt><trkpt lat="44.7553017" lon="-0.444325"><ele>51.5</ele><time>2026-04-21T17:32:30.834Z</time></trkpt><trkpt lat="44.7552567" lon="-0.4442317"><ele>51.666666666666664</ele><time>2026-04-21T17:32:32.834Z</time></trkpt><trkpt lat="44.7552083" lon="-0.4441333"><ele>51.83333333333333</ele><time>2026-04-21T17:32:34.834Z</time></trkpt><trkpt lat="44.7551517" lon="-0.4440283"><ele>52.0</ele><time>2026-04-21T17:32:36.834Z</time></trkpt><trkpt lat="44.7550867" lon="-0.443925"><ele>52.8</ele><time>2026-04-21T17:32:38.833Z</time></trkpt><trkpt lat="44.75503" lon="-0.443815"><ele>53.6</ele><time>2026-04-21T17:32:40.833Z</time></trkpt><trkpt lat="44.754975" lon="-0.4437017"><ele>54.39999999999999</ele><time>2026-04-21T17:32:42.834Z</time></trkpt><trkpt lat="44.7549133" lon="-0.443585"><ele>55.199999999999996</ele><time>2026-04-21T17:32:44.834Z</time></trkpt><trkpt lat="44.7548567" lon="-0.4434667"><ele>56.0</ele><time>2026-04-21T17:32:46.834Z</time></trkpt><trkpt lat="44.754785" lon="-0.44335"><ele>56.199999999999996</ele><time>2026-04-21T17:32:48.833Z</time></trkpt><trkpt lat="44.75472" lon="-0.4432267"><ele>56.39999999999999</ele><time>2026-04-21T17:32:50.834Z</time></trkpt><trkpt lat="44.7546567" lon="-0.4431"><ele>56.6</ele><time>2026-04-21T17:32:52.834Z</time></trkpt><trkpt lat="44.7546" lon="-0.442985"><ele>56.8</ele><time>2026-04-21T17:32:54.834Z</time></trkpt><trkpt lat="44.7545417" lon="-0.4428667"><ele>57.0</ele><time>2026-04-21T17:32:56.834Z</time></trkpt><trkpt lat="44.7544917" lon="-0.4427467"><ele>56.6</ele><time>2026-04-21T17:32:58.834Z</time></trkpt><trkpt lat="44.75444" lon="-0.4426167"><ele>56.2</ele><time>2026-04-21T17:33:00.834Z</time></trkpt><trkpt lat="44.754395" lon="-0.4424767"><ele>55.8</ele><time>2026-04-21T17:33:02.834Z</time></trkpt><trkpt lat="44.754345" lon="-0.44234"><ele>55.4</ele><time>2026-04-21T17:33:04.834Z</time></trkpt><trkpt lat="44.7542983" lon="-0.442205"><ele>55.0</ele><time>2026-04-21T17:33:06.834Z</time></trkpt><trkpt lat="44.754255" lon="-0.4420767"><ele>56.0</ele><time>2026-04-21T17:33:08.834Z</time></trkpt><trkpt lat="44.754205" lon="-0.441945"><ele>57.0</ele><time>2026-04-21T17:33:10.834Z</time></trkpt><trkpt lat="44.7541517" lon="-0.4418133"><ele>58.0</ele><time>2026-04-21T17:33:12.834Z</time></trkpt><trkpt lat="44.7540983" lon="-0.4416733"><ele>59.0</ele><time>2026-04-21T17:33:14.834Z</time></trkpt><trkpt lat="44.7540517" lon="-0.441545"><ele>60.0</ele><time>2026-04-21T17:33:16.833Z</time></trkpt><trkpt lat="44.7540067" lon="-0.4414133"><ele>59.4</ele><time>2026-04-21T17:33:18.834Z</time></trkpt><trkpt lat="44.75396" lon="-0.44127"><ele>58.8</ele><time>2026-04-21T17:33:20.833Z</time></trkpt><trkpt lat="44.7539067" lon="-0.44114"><ele>58.2</ele><time>2026-04-21T17:33:22.834Z</time></trkpt><trkpt lat="44.7538567" lon="-0.4410083"><ele>57.6</ele><time>2026-04-21T17:33:24.834Z</time></trkpt><trkpt lat="44.7538083" lon="-0.4408733"><ele>57.0</ele><time>2026-04-21T17:33:26.834Z</time></trkpt><trkpt lat="44.753765" lon="-0.440745"><ele>57.0</ele><time>2026-04-21T17:33:28.834Z</time></trkpt><trkpt lat="44.7537217" lon="-0.44062"><ele>57.0</ele><time>2026-04-21T17:33:30.834Z</time></trkpt><trkpt lat="44.7536817" lon="-0.4405017"><ele>57.0</ele><time>2026-04-21T17:33:32.834Z</time></trkpt><trkpt lat="44.7536317" lon="-0.4403617"><ele>57.0</ele><time>2026-04-21T17:33:34.834Z</time></trkpt><trkpt lat="44.75359" lon="-0.440235"><ele>57.0</ele><time>2026-04-21T17:33:36.834Z</time></trkpt><trkpt lat="44.753545" lon="-0.4401133"><ele>58.8</ele><time>2026-04-21T17:33:38.833Z</time></trkpt><trkpt lat="44.753505" lon="-0.4399933"><ele>60.6</ele><time>2026-04-21T17:33:40.833Z</time></trkpt><trkpt lat="44.75346" lon="-0.4398667"><ele>62.39999999999999</ele><time>2026-04-21T17:33:42.834Z</time></trkpt><trkpt lat="44.7534133" lon="-0.4397417"><ele>64.2</ele><time>2026-04-21T17:33:44.833Z</time></trkpt><trkpt lat="44.7533717" lon="-0.4396217"><ele>66.0</ele><time>2026-04-21T17:33:46.833Z</time></trkpt><trkpt lat="44.7533333" lon="-0.439495"><ele>66.0</ele><time>2026-04-21T17:33:48.834Z</time></trkpt><trkpt lat="44.7532883" lon="-0.4393667"><ele>66.0</ele><time>2026-04-21T17:33:50.834Z</time></trkpt><trkpt lat="44.7532483" lon="-0.4392317"><ele>66.0</ele><time>2026-04-21T17:33:52.834Z</time></trkpt><trkpt lat="44.7531983" lon="-0.4391017"><ele>66.0</ele><time>2026-04-21T17:33:54.833Z</time></trkpt><trkpt lat="44.7531467" lon="-0.4389817"><ele>66.0</ele><time>2026-04-21T17:33:56.834Z</time></trkpt><trkpt lat="44.7531033" lon="-0.4388467"><ele>65.39999999999999</ele><time>2026-04-21T17:33:58.833Z</time></trkpt><trkpt lat="44.753055" lon="-0.4387183"><ele>64.8</ele><time>2026-04-21T17:34:00.834Z</time></trkpt><trkpt lat="44.753015" lon="-0.4385883"><ele>64.19999999999999</ele><time>2026-04-21T17:34:02.834Z</time></trkpt><trkpt lat="44.7529783" lon="-0.4384583"><ele>63.599999999999994</ele><time>2026-04-21T17:34:04.834Z</time></trkpt><trkpt lat="44.7529383" lon="-0.43833"><ele>63.0</ele><time>2026-04-21T17:34:06.834Z</time></trkpt><trkpt lat="44.7528917" lon="-0.4382"><ele>63.0</ele><time>2026-04-21T17:34:08.834Z</time></trkpt><trkpt lat="44.75284" lon="-0.4380683"><ele>63.0</ele><time>2026-04-21T17:34:10.834Z</time></trkpt><trkpt lat="44.7527867" lon="-0.4379317"><ele>63.0</ele><time>2026-04-21T17:34:12.833Z</time></trkpt><trkpt lat="44.7527383" lon="-0.437805"><ele>63.0</ele><time>2026-04-21T17:34:14.833Z</time></trkpt><trkpt lat="44.7526867" lon="-0.4376683"><ele>63.0</ele><time>2026-04-21T17:34:16.834Z</time></trkpt><trkpt lat="44.7526433" lon="-0.4375267"><ele>64.0</ele><time>2026-04-21T17:34:18.833Z</time></trkpt><trkpt lat="44.7526017" lon="-0.437405"><ele>65.0</ele><time>2026-04-21T17:34:20.834Z</time></trkpt><trkpt lat="44.7525583" lon="-0.4372783"><ele>66.0</ele><time>2026-04-21T17:34:22.833Z</time></trkpt><trkpt lat="44.7525133" lon="-0.437165"><ele>67.0</ele><time>2026-04-21T17:34:24.834Z</time></trkpt><trkpt lat="44.7524683" lon="-0.4370483"><ele>68.0</ele><time>2026-04-21T17:34:26.833Z</time></trkpt><trkpt lat="44.75243" lon="-0.4369267"><ele>67.99999999999999</ele><time>2026-04-21T17:34:28.834Z</time></trkpt><trkpt lat="44.752395" lon="-0.43682"><ele>68.0</ele><time>2026-04-21T17:34:30.834Z</time></trkpt><trkpt lat="44.7523567" lon="-0.4367317"><ele>68.0</ele><time>2026-04-21T17:34:32.834Z</time></trkpt><trkpt lat="44.7523267" lon="-0.4366383"><ele>68.0</ele><time>2026-04-21T17:34:34.834Z</time></trkpt><trkpt lat="44.7522933" lon="-0.4365433"><ele>68.0</ele><time>2026-04-21T17:34:36.834Z</time></trkpt><trkpt lat="44.7522533" lon="-0.4364633"><ele>67.99999999999999</ele><time>2026-04-21T17:34:38.834Z</time></trkpt><trkpt lat="44.7522083" lon="-0.4363917"><ele>68.0</ele><time>2026-04-21T17:34:40.834Z</time></trkpt><trkpt lat="44.75214" lon="-0.4363617"><ele>67.99999999999999</ele><time>2026-04-21T17:34:42.834Z</time></trkpt><trkpt lat="44.7520767" lon="-0.4363567"><ele>68.0</ele><time>2026-04-21T17:34:44.834Z</time></trkpt><trkpt lat="44.7520133" lon="-0.4363467"><ele>68.0</ele><time>2026-04-21T17:34:46.834Z</time></trkpt><trkpt lat="44.75195" lon="-0.43634"><ele>68.0</ele><time>2026-04-21T17:34:48.834Z</time></trkpt><trkpt lat="44.7518783" lon="-0.4363333"><ele>68.0</ele><time>2026-04-21T17:34:50.834Z</time></trkpt><trkpt lat="44.7518017" lon="-0.436335"><ele>67.99999999999999</ele><time>2026-04-21T17:34:52.834Z</time></trkpt><trkpt lat="44.7517217" lon="-0.43633"><ele>68.0</ele><time>2026-04-21T17:34:54.834Z</time></trkpt><trkpt lat="44.7516383" lon="-0.4363283"><ele>69.33333333333334</ele><time>2026-04-21T17:34:56.834Z</time></trkpt><trkpt lat="44.7515633" lon="-0.4363483"><ele>70.66666666666667</ele><time>2026-04-21T17:34:58.834Z</time></trkpt><trkpt lat="44.7514833" lon="-0.4363767"><ele>72.0</ele><time>2026-04-21T17:35:00.834Z</time></trkpt><trkpt lat="44.751405" lon="-0.436405"><ele>73.33333333333333</ele><time>2026-04-21T17:35:02.834Z</time></trkpt><trkpt lat="44.7513317" lon="-0.4364383"><ele>74.66666666666666</ele><time>2026-04-21T17:35:04.834Z</time></trkpt><trkpt lat="44.75125" lon="-0.4364617"><ele>76.0</ele><time>2026-04-21T17:35:06.833Z</time></trkpt><trkpt lat="44.7511683" lon="-0.4364817"><ele>76.0</ele><time>2026-04-21T17:35:08.833Z</time></trkpt><trkpt lat="44.7511033" lon="-0.4365217"><ele>76.0</ele><time>2026-04-21T17:35:10.834Z</time></trkpt><trkpt lat="44.751035" lon="-0.4365633"><ele>76.0</ele><time>2026-04-21T17:35:12.834Z</time></trkpt><trkpt lat="44.7509617" lon="-0.4366"><ele>76.0</ele><time>2026-04-21T17:35:14.834Z</time></trkpt><trkpt lat="44.75088" lon="-0.4366233"><ele>76.0</ele><time>2026-04-21T17:35:16.834Z</time></trkpt><trkpt lat="44.75081" lon="-0.4366317"><ele>76.0</ele><time>2026-04-21T17:35:18.833Z</time></trkpt><trkpt lat="44.75072" lon="-0.4366617"><ele>76.33333333333333</ele><time>2026-04-21T17:35:21.833Z</time></trkpt><trkpt lat="44.7506267" lon="-0.4366133"><ele>76.66666666666666</ele><time>2026-04-21T17:35:24.833Z</time></trkpt><trkpt lat="44.75058" lon="-0.43653"><ele>77.0</ele><time>2026-04-21T17:35:26.833Z</time></trkpt><trkpt lat="44.7505383" lon="-0.43643"><ele>77.33333333333333</ele><time>2026-04-21T17:35:28.833Z</time></trkpt><trkpt lat="44.750505" lon="-0.43633"><ele>77.66666666666667</ele><time>2026-04-21T17:35:30.833Z</time></trkpt><trkpt lat="44.7504617" lon="-0.4362233"><ele>78.0</ele><time>2026-04-21T17:35:32.833Z</time></trkpt><trkpt lat="44.7504167" lon="-0.4361117"><ele>78.0</ele><time>2026-04-21T17:35:34.833Z</time></trkpt><trkpt lat="44.7503733" lon="-0.4359917"><ele>78.0</ele><time>2026-04-21T17:35:36.833Z</time></trkpt><trkpt lat="44.75035" lon="-0.435865"><ele>78.0</ele><time>2026-04-21T17:35:38.832Z</time></trkpt><trkpt lat="44.7503083" lon="-0.4357417"><ele>78.0</ele><time>2026-04-21T17:35:40.833Z</time></trkpt><trkpt lat="44.7502733" lon="-0.4356117"><ele>78.0</ele><time>2026-04-21T17:35:42.833Z</time></trkpt><trkpt lat="44.75024" lon="-0.4354817"><ele>78.2</ele><time>2026-04-21T17:35:44.832Z</time></trkpt><trkpt lat="44.7502083" lon="-0.4353567"><ele>78.4</ele><time>2026-04-21T17:35:46.833Z</time></trkpt><trkpt lat="44.75016" lon="-0.43523"><ele>78.60000000000001</ele><time>2026-04-21T17:35:48.832Z</time></trkpt><trkpt lat="44.7501083" lon="-0.435105"><ele>78.8</ele><time>2026-04-21T17:35:50.832Z</time></trkpt><trkpt lat="44.75006" lon="-0.434985"><ele>79.0</ele><time>2026-04-21T17:35:52.832Z</time></trkpt><trkpt lat="44.7500067" lon="-0.43487"><ele>79.16666666666666</ele><time>2026-04-21T17:35:54.832Z</time></trkpt><trkpt lat="44.7499483" lon="-0.4347633"><ele>79.33333333333333</ele><time>2026-04-21T17:35:56.833Z</time></trkpt><trkpt lat="44.7498867" lon="-0.4346733"><ele>79.5</ele><time>2026-04-21T17:35:58.833Z</time></trkpt><trkpt lat="44.749825" lon="-0.4345867"><ele>79.66666666666667</ele><time>2026-04-21T17:36:00.833Z</time></trkpt><trkpt lat="44.7497683" lon="-0.4345117"><ele>79.83333333333334</ele><time>2026-04-21T17:36:02.832Z</time></trkpt><trkpt lat="44.74971" lon="-0.4344317"><ele>80.0</ele><time>2026-04-21T17:36:04.833Z</time></trkpt><trkpt lat="44.7496467" lon="-0.4343667"><ele>80.0</ele><time>2026-04-21T17:36:06.833Z</time></trkpt><trkpt lat="44.7495883" lon="-0.4343033"><ele>80.0</ele><time>2026-04-21T17:36:08.833Z</time></trkpt><trkpt lat="44.7495267" lon="-0.4342333"><ele>80.0</ele><time>2026-04-21T17:36:10.832Z</time></trkpt><trkpt lat="44.7494767" lon="-0.4341533"><ele>80.0</ele><time>2026-04-21T17:36:12.833Z</time></trkpt><trkpt lat="44.74942" lon="-0.4340783"><ele>80.0</ele><time>2026-04-21T17:36:14.833Z</time></trkpt><trkpt lat="44.7493667" lon="-0.43401"><ele>80.0</ele><time>2026-04-21T17:36:16.832Z</time></trkpt><trkpt lat="44.74932" lon="-0.4339317"><ele>80.33333333333334</ele><time>2026-04-21T17:36:18.833Z</time></trkpt><trkpt lat="44.7492817" lon="-0.4338417"><ele>80.66666666666667</ele><time>2026-04-21T17:36:20.833Z</time></trkpt><trkpt lat="44.749235" lon="-0.4337433"><ele>81.0</ele><time>2026-04-21T17:36:22.832Z</time></trkpt><trkpt lat="44.749185" lon="-0.4336467"><ele>81.33333333333333</ele><time>2026-04-21T17:36:24.833Z</time></trkpt><trkpt lat="44.7491333" lon="-0.433545"><ele>81.66666666666666</ele><time>2026-04-21T17:36:26.833Z</time></trkpt><trkpt lat="44.7490817" lon="-0.4334467"><ele>82.0</ele><time>2026-04-21T17:36:28.833Z</time></trkpt><trkpt lat="44.7490283" lon="-0.4333367"><ele>82.19999999999999</ele><time>2026-04-21T17:36:30.833Z</time></trkpt><trkpt lat="44.74898" lon="-0.4332233"><ele>82.4</ele><time>2026-04-21T17:36:32.833Z</time></trkpt><trkpt lat="44.7489283" lon="-0.4331133"><ele>82.6</ele><time>2026-04-21T17:36:34.833Z</time></trkpt><trkpt lat="44.748875" lon="-0.4330017"><ele>82.80000000000001</ele><time>2026-04-21T17:36:36.833Z</time></trkpt><trkpt lat="44.74882" lon="-0.4328917"><ele>83.0</ele><time>2026-04-21T17:36:38.833Z</time></trkpt><trkpt lat="44.748755" lon="-0.4327967"><ele>82.60000000000001</ele><time>2026-04-21T17:36:40.833Z</time></trkpt><trkpt lat="44.748675" lon="-0.432695"><ele>82.2</ele><time>2026-04-21T17:36:42.833Z</time></trkpt><trkpt lat="44.748595" lon="-0.4326217"><ele>81.8</ele><time>2026-04-21T17:36:44.832Z</time></trkpt><trkpt lat="44.7485483" lon="-0.4325167"><ele>81.4</ele><time>2026-04-21T17:36:46.833Z</time></trkpt><trkpt lat="44.7485383" lon="-0.4323933"><ele>81.0</ele><time>2026-04-21T17:36:48.833Z</time></trkpt><trkpt lat="44.7485217" lon="-0.4322833"><ele>81.0</ele><time>2026-04-21T17:36:50.833Z</time></trkpt><trkpt lat="44.7484717" lon="-0.4321767"><ele>81.0</ele><time>2026-04-21T17:36:52.833Z</time></trkpt><trkpt lat="44.74842" lon="-0.432065"><ele>81.0</ele><time>2026-04-21T17:36:54.832Z</time></trkpt><trkpt lat="44.7483733" lon="-0.43195"><ele>81.0</ele><time>2026-04-21T17:36:56.832Z</time></trkpt><trkpt lat="44.7483233" lon="-0.431845"><ele>81.0</ele><time>2026-04-21T17:36:58.833Z</time></trkpt><trkpt lat="44.748285" lon="-0.431735"><ele>81.4</ele><time>2026-04-21T17:37:00.833Z</time></trkpt><trkpt lat="44.7482433" lon="-0.4316183"><ele>81.8</ele><time>2026-04-21T17:37:02.833Z</time></trkpt><trkpt lat="44.7482017" lon="-0.4315083"><ele>82.2</ele><time>2026-04-21T17:37:04.832Z</time></trkpt><trkpt lat="44.7481617" lon="-0.4313833"><ele>82.60000000000001</ele><time>2026-04-21T17:37:06.832Z</time></trkpt><trkpt lat="44.7481317" lon="-0.4312683"><ele>83.0</ele><time>2026-04-21T17:37:08.833Z</time></trkpt><trkpt lat="44.7481033" lon="-0.4311367"><ele>83.2</ele><time>2026-04-21T17:37:10.833Z</time></trkpt><trkpt lat="44.748075" lon="-0.4309917"><ele>83.4</ele><time>2026-04-21T17:37:12.833Z</time></trkpt><trkpt lat="44.7480667" lon="-0.4308467"><ele>83.60000000000001</ele><time>2026-04-21T17:37:14.832Z</time></trkpt><trkpt lat="44.7480733" lon="-0.43069"><ele>83.80000000000001</ele><time>2026-04-21T17:37:16.833Z</time></trkpt><trkpt lat="44.7480733" lon="-0.4305383"><ele>84.0</ele><time>2026-04-21T17:37:18.833Z</time></trkpt><trkpt lat="44.748075" lon="-0.4303917"><ele>84.2</ele><time>2026-04-21T17:37:20.832Z</time></trkpt><trkpt lat="44.7480817" lon="-0.430235"><ele>84.4</ele><time>2026-04-21T17:37:22.833Z</time></trkpt><trkpt lat="44.7480917" lon="-0.4300783"><ele>84.6</ele><time>2026-04-21T17:37:24.833Z</time></trkpt><trkpt lat="44.7481033" lon="-0.429925"><ele>84.8</ele><time>2026-04-21T17:37:26.833Z</time></trkpt><trkpt lat="44.7481083" lon="-0.42977"><ele>85.0</ele><time>2026-04-21T17:37:28.832Z</time></trkpt><trkpt lat="44.74812" lon="-0.4296117"><ele>85.0</ele><time>2026-04-21T17:37:30.832Z</time></trkpt><trkpt lat="44.7481283" lon="-0.4294567"><ele>85.0</ele><time>2026-04-21T17:37:32.832Z</time></trkpt><trkpt lat="44.7481383" lon="-0.429295"><ele>85.0</ele><time>2026-04-21T17:37:34.832Z</time></trkpt><trkpt lat="44.7481367" lon="-0.4291383"><ele>85.0</ele><time>2026-04-21T17:37:36.832Z</time></trkpt><trkpt lat="44.7481383" lon="-0.428985"><ele>85.0</ele><time>2026-04-21T17:37:38.833Z</time></trkpt><trkpt lat="44.7481483" lon="-0.4288333"><ele>85.0</ele><time>2026-04-21T17:37:40.832Z</time></trkpt><trkpt lat="44.7481533" lon="-0.4286717"><ele>85.0</ele><time>2026-04-21T17:37:42.832Z</time></trkpt><trkpt lat="44.7481567" lon="-0.428505"><ele>85.0</ele><time>2026-04-21T17:37:44.833Z</time></trkpt><trkpt lat="44.748155" lon="-0.4283417"><ele>85.0</ele><time>2026-04-21T17:37:46.833Z</time></trkpt><trkpt lat="44.74816" lon="-0.4281783"><ele>85.0</ele><time>2026-04-21T17:37:48.832Z</time></trkpt><trkpt lat="44.7481633" lon="-0.42802"><ele>85.0</ele><time>2026-04-21T17:37:50.833Z</time></trkpt><trkpt lat="44.74817" lon="-0.4278567"><ele>85.0</ele><time>2026-04-21T17:37:52.832Z</time></trkpt><trkpt lat="44.7481683" lon="-0.4277117"><ele>85.0</ele><time>2026-04-21T17:37:54.833Z</time></trkpt><trkpt lat="44.7481683" lon="-0.4275733"><ele>85.0</ele><time>2026-04-21T17:37:56.832Z</time></trkpt><trkpt lat="44.7481733" lon="-0.42742"><ele>85.2</ele><time>2026-04-21T17:37:58.833Z</time></trkpt><trkpt lat="44.748175" lon="-0.427265"><ele>85.4</ele><time>2026-04-21T17:38:00.833Z</time></trkpt><trkpt lat="44.7481733" lon="-0.4271083"><ele>85.6</ele><time>2026-04-21T17:38:02.833Z</time></trkpt><trkpt lat="44.74816" lon="-0.4269517"><ele>85.8</ele><time>2026-04-21T17:38:04.833Z</time></trkpt><trkpt lat="44.7481583" lon="-0.4267917"><ele>86.0</ele><time>2026-04-21T17:38:06.832Z</time></trkpt><trkpt lat="44.748155" lon="-0.4266317"><ele>86.0</ele><time>2026-04-21T17:38:08.833Z</time></trkpt><trkpt lat="44.74815" lon="-0.4264733"><ele>86.0</ele><time>2026-04-21T17:38:10.833Z</time></trkpt><trkpt lat="44.7481483" lon="-0.4263267"><ele>86.0</ele><time>2026-04-21T17:38:12.832Z</time></trkpt><trkpt lat="44.7481383" lon="-0.42618"><ele>86.0</ele><time>2026-04-21T17:38:14.832Z</time></trkpt><trkpt lat="44.7481267" lon="-0.42603"><ele>86.0</ele><time>2026-04-21T17:38:16.833Z</time></trkpt><trkpt lat="44.7481183" lon="-0.4258767"><ele>86.4</ele><time>2026-04-21T17:38:18.833Z</time></trkpt><trkpt lat="44.74811" lon="-0.425715"><ele>86.8</ele><time>2026-04-21T17:38:20.833Z</time></trkpt><trkpt lat="44.7481067" lon="-0.425565"><ele>87.2</ele><time>2026-04-21T17:38:22.833Z</time></trkpt><trkpt lat="44.7481067" lon="-0.4254133"><ele>87.60000000000001</ele><time>2026-04-21T17:38:24.833Z</time></trkpt><trkpt lat="44.7481067" lon="-0.425255"><ele>88.0</ele><time>2026-04-21T17:38:26.833Z</time></trkpt><trkpt lat="44.7480983" lon="-0.425095"><ele>88.0</ele><time>2026-04-21T17:38:28.833Z</time></trkpt><trkpt lat="44.7480933" lon="-0.424935"><ele>88.0</ele><time>2026-04-21T17:38:30.832Z</time></trkpt><trkpt lat="44.74809" lon="-0.4247783"><ele>88.0</ele><time>2026-04-21T17:38:32.833Z</time></trkpt><trkpt lat="44.7480883" lon="-0.4246183"><ele>88.0</ele><time>2026-04-21T17:38:34.833Z</time></trkpt><trkpt lat="44.748085" lon="-0.4244567"><ele>87.5</ele><time>2026-04-21T17:38:36.832Z</time></trkpt><trkpt lat="44.7480683" lon="-0.424285"><ele>87.0</ele><time>2026-04-21T17:38:38.832Z</time></trkpt><trkpt lat="44.748055" lon="-0.4241133"><ele>86.5</ele><time>2026-04-21T17:38:40.833Z</time></trkpt><trkpt lat="44.74805" lon="-0.4239467"><ele>86.0</ele><time>2026-04-21T17:38:42.832Z</time></trkpt><trkpt lat="44.74804" lon="-0.4237767"><ele>86.0</ele><time>2026-04-21T17:38:44.833Z</time></trkpt><trkpt lat="44.7480283" lon="-0.42361"><ele>86.0</ele><time>2026-04-21T17:38:46.833Z</time></trkpt><trkpt lat="44.7480183" lon="-0.4234333"><ele>86.0</ele><time>2026-04-21T17:38:48.832Z</time></trkpt><trkpt lat="44.7480133" lon="-0.4233433"><ele>86.0</ele><time>2026-04-21T17:38:49.833Z</time></trkpt><trkpt lat="44.7480017" lon="-0.42318"><ele>86.0</ele><time>2026-04-21T17:38:51.833Z</time></trkpt><trkpt lat="44.7479933" lon="-0.4230183"><ele>85.8</ele><time>2026-04-21T17:38:53.833Z</time></trkpt><trkpt lat="44.74798" lon="-0.4228533"><ele>85.6</ele><time>2026-04-21T17:38:55.833Z</time></trkpt><trkpt lat="44.7479683" lon="-0.422695"><ele>85.4</ele><time>2026-04-21T17:38:57.832Z</time></trkpt><trkpt lat="44.747955" lon="-0.422525"><ele>85.2</ele><time>2026-04-21T17:38:59.832Z</time></trkpt><trkpt lat="44.7479433" lon="-0.4224367"><ele>85.0</ele><time>2026-04-21T17:39:00.832Z</time></trkpt><trkpt lat="44.7479333" lon="-0.4222633"><ele>84.66666666666666</ele><time>2026-04-21T17:39:02.833Z</time></trkpt><trkpt lat="44.7479233" lon="-0.4220883"><ele>84.33333333333333</ele><time>2026-04-21T17:39:04.833Z</time></trkpt><trkpt lat="44.7479167" lon="-0.421995"><ele>84.0</ele><time>2026-04-21T17:39:05.833Z</time></trkpt><trkpt lat="44.747905" lon="-0.421905"><ele>83.66666666666667</ele><time>2026-04-21T17:39:06.832Z</time></trkpt><trkpt lat="44.74789" lon="-0.4218117"><ele>83.33333333333334</ele><time>2026-04-21T17:39:07.832Z</time></trkpt><trkpt lat="44.7478717" lon="-0.4217167"><ele>83.0</ele><time>2026-04-21T17:39:08.833Z</time></trkpt><trkpt lat="44.747855" lon="-0.4216233"><ele>83.0</ele><time>2026-04-21T17:39:09.833Z</time></trkpt><trkpt lat="44.7478367" lon="-0.4215283"><ele>83.0</ele><time>2026-04-21T17:39:10.832Z</time></trkpt><trkpt lat="44.74781" lon="-0.4214283"><ele>83.0</ele><time>2026-04-21T17:39:11.832Z</time></trkpt><trkpt lat="44.7477883" lon="-0.4213333"><ele>83.0</ele><time>2026-04-21T17:39:12.832Z</time></trkpt><trkpt lat="44.74777" lon="-0.4212317"><ele>83.0</ele><time>2026-04-21T17:39:13.832Z</time></trkpt><trkpt lat="44.74774" lon="-0.42113"><ele>83.0</ele><time>2026-04-21T17:39:14.831Z</time></trkpt><trkpt lat="44.7477083" lon="-0.4210233"><ele>82.66666666666667</ele><time>2026-04-21T17:39:15.832Z</time></trkpt><trkpt lat="44.7476817" lon="-0.4209183"><ele>82.33333333333334</ele><time>2026-04-21T17:39:16.831Z</time></trkpt><trkpt lat="44.7476467" lon="-0.4208233"><ele>82.0</ele><time>2026-04-21T17:39:17.832Z</time></trkpt><trkpt lat="44.7476017" lon="-0.42073"><ele>81.66666666666667</ele><time>2026-04-21T17:39:18.832Z</time></trkpt><trkpt lat="44.7475533" lon="-0.42063"><ele>81.33333333333333</ele><time>2026-04-21T17:39:19.832Z</time></trkpt><trkpt lat="44.7475033" lon="-0.4205333"><ele>81.0</ele><time>2026-04-21T17:39:20.832Z</time></trkpt><trkpt lat="44.747455" lon="-0.420435"><ele>81.0</ele><time>2026-04-21T17:39:21.831Z</time></trkpt><trkpt lat="44.7474017" lon="-0.4203383"><ele>81.0</ele><time>2026-04-21T17:39:22.831Z</time></trkpt><trkpt lat="44.7473383" lon="-0.4202483"><ele>81.0</ele><time>2026-04-21T17:39:23.832Z</time></trkpt><trkpt lat="44.747275" lon="-0.42017"><ele>81.0</ele><time>2026-04-21T17:39:24.832Z</time></trkpt><trkpt lat="44.7472083" lon="-0.42009"><ele>81.0</ele><time>2026-04-21T17:39:25.832Z</time></trkpt><trkpt lat="44.7471433" lon="-0.4200067"><ele>81.0</ele><time>2026-04-21T17:39:26.832Z</time></trkpt><trkpt lat="44.7470767" lon="-0.4199217"><ele>81.0</ele><time>2026-04-21T17:39:27.831Z</time></trkpt><trkpt lat="44.74701" lon="-0.4198433"><ele>81.0</ele><time>2026-04-21T17:39:28.832Z</time></trkpt><trkpt lat="44.74695" lon="-0.4197633"><ele>81.0</ele><time>2026-04-21T17:39:29.831Z</time></trkpt><trkpt lat="44.7468933" lon="-0.4196933"><ele>81.0</ele><time>2026-04-21T17:39:30.831Z</time></trkpt><trkpt lat="44.74684" lon="-0.4196233"><ele>81.0</ele><time>2026-04-21T17:39:31.831Z</time></trkpt><trkpt lat="44.7467917" lon="-0.4195583"><ele>81.0</ele><time>2026-04-21T17:39:32.832Z</time></trkpt><trkpt lat="44.7467417" lon="-0.4195017"><ele>81.0</ele><time>2026-04-21T17:39:33.832Z</time></trkpt><trkpt lat="44.7466517" lon="-0.41938"><ele>81.8</ele><time>2026-04-21T17:39:35.832Z</time></trkpt><trkpt lat="44.746565" lon="-0.41928"><ele>82.6</ele><time>2026-04-21T17:39:37.832Z</time></trkpt><trkpt lat="44.7464833" lon="-0.419185"><ele>83.4</ele><time>2026-04-21T17:39:39.832Z</time></trkpt><trkpt lat="44.74641" lon="-0.4190933"><ele>84.2</ele><time>2026-04-21T17:39:41.832Z</time></trkpt><trkpt lat="44.7463283" lon="-0.4190017"><ele>85.0</ele><time>2026-04-21T17:39:43.832Z</time></trkpt><trkpt lat="44.74626" lon="-0.4189083"><ele>85.0</ele><time>2026-04-21T17:39:45.832Z</time></trkpt><trkpt lat="44.7461917" lon="-0.4188333"><ele>85.0</ele><time>2026-04-21T17:39:47.832Z</time></trkpt><trkpt lat="44.7461183" lon="-0.418775"><ele>85.0</ele><time>2026-04-21T17:39:49.831Z</time></trkpt><trkpt lat="44.7460533" lon="-0.4187217"><ele>85.0</ele><time>2026-04-21T17:39:51.832Z</time></trkpt><trkpt lat="44.745985" lon="-0.418655"><ele>85.0</ele><time>2026-04-21T17:39:53.832Z</time></trkpt><trkpt lat="44.7459167" lon="-0.4186033"><ele>85.0</ele><time>2026-04-21T17:39:55.832Z</time></trkpt><trkpt lat="44.7458517" lon="-0.41855"><ele>86.6</ele><time>2026-04-21T17:39:57.831Z</time></trkpt><trkpt lat="44.7457417" lon="-0.418475"><ele>88.2</ele><time>2026-04-21T17:40:00.832Z</time></trkpt><trkpt lat="44.7456567" lon="-0.4184333"><ele>89.80000000000001</ele><time>2026-04-21T17:40:02.831Z</time></trkpt><trkpt lat="44.7455717" lon="-0.4183983"><ele>91.4</ele><time>2026-04-21T17:40:04.831Z</time></trkpt><trkpt lat="44.7454917" lon="-0.4183517"><ele>93.0</ele><time>2026-04-21T17:40:06.831Z</time></trkpt><trkpt lat="44.745395" lon="-0.41831"><ele>93.0</ele><time>2026-04-21T17:40:08.831Z</time></trkpt><trkpt lat="44.7453083" lon="-0.4182683"><ele>93.0</ele><time>2026-04-21T17:40:10.832Z</time></trkpt><trkpt lat="44.745215" lon="-0.4182333"><ele>93.0</ele><time>2026-04-21T17:40:12.832Z</time></trkpt><trkpt lat="44.7451233" lon="-0.4181983"><ele>93.0</ele><time>2026-04-21T17:40:14.831Z</time></trkpt><trkpt lat="44.7450383" lon="-0.4181583"><ele>93.0</ele><time>2026-04-21T17:40:16.832Z</time></trkpt><trkpt lat="44.7449283" lon="-0.4181183"><ele>92.80000000000001</ele><time>2026-04-21T17:40:18.832Z</time></trkpt><trkpt lat="44.7448283" lon="-0.418065"><ele>92.6</ele><time>2026-04-21T17:40:20.832Z</time></trkpt><trkpt lat="44.7447333" lon="-0.4180333"><ele>92.4</ele><time>2026-04-21T17:40:22.831Z</time></trkpt><trkpt lat="44.7446333" lon="-0.4179933"><ele>92.19999999999999</ele><time>2026-04-21T17:40:24.832Z</time></trkpt><trkpt lat="44.7445333" lon="-0.417955"><ele>92.0</ele><time>2026-04-21T17:40:26.832Z</time></trkpt><trkpt lat="44.744435" lon="-0.4179183"><ele>91.6</ele><time>2026-04-21T17:40:28.832Z</time></trkpt><trkpt lat="44.7443383" lon="-0.417875"><ele>91.19999999999999</ele><time>2026-04-21T17:40:30.832Z</time></trkpt><trkpt lat="44.74424" lon="-0.4178383"><ele>90.8</ele><time>2026-04-21T17:40:32.832Z</time></trkpt><trkpt lat="44.7441417" lon="-0.417795"><ele>90.4</ele><time>2026-04-21T17:40:34.831Z</time></trkpt><trkpt lat="44.7440433" lon="-0.4177517"><ele>90.0</ele><time>2026-04-21T17:40:36.832Z</time></trkpt><trkpt lat="44.743945" lon="-0.4177"><ele>90.0</ele><time>2026-04-21T17:40:38.832Z</time></trkpt><trkpt lat="44.743845" lon="-0.4176517"><ele>90.0</ele><time>2026-04-21T17:40:40.832Z</time></trkpt><trkpt lat="44.7437567" lon="-0.4176"><ele>90.0</ele><time>2026-04-21T17:40:42.831Z</time></trkpt><trkpt lat="44.743655" lon="-0.4175367"><ele>90.0</ele><time>2026-04-21T17:40:44.832Z</time></trkpt><trkpt lat="44.7435617" lon="-0.4174667"><ele>90.0</ele><time>2026-04-21T17:40:46.831Z</time></trkpt><trkpt lat="44.743475" lon="-0.4173883"><ele>90.0</ele><time>2026-04-21T17:40:48.831Z</time></trkpt><trkpt lat="44.7433883" lon="-0.4173017"><ele>90.0</ele><time>2026-04-21T17:40:50.832Z</time></trkpt><trkpt lat="44.7432967" lon="-0.4172033"><ele>90.0</ele><time>2026-04-21T17:40:52.832Z</time></trkpt><trkpt lat="44.7431933" lon="-0.4171133"><ele>90.0</ele><time>2026-04-21T17:40:54.831Z</time></trkpt><trkpt lat="44.7430967" lon="-0.4170133"><ele>90.14285714285714</ele><time>2026-04-21T17:40:56.832Z</time></trkpt><trkpt lat="44.743045" lon="-0.4169617"><ele>90.28571428571429</ele><time>2026-04-21T17:40:57.832Z</time></trkpt><trkpt lat="44.742945" lon="-0.41686"><ele>90.42857142857143</ele><time>2026-04-21T17:40:59.832Z</time></trkpt><trkpt lat="44.7428917" lon="-0.4168033"><ele>90.57142857142857</ele><time>2026-04-21T17:41:00.831Z</time></trkpt><trkpt lat="44.7428417" lon="-0.4167483"><ele>90.71428571428572</ele><time>2026-04-21T17:41:01.832Z</time></trkpt><trkpt lat="44.74279" lon="-0.4166917"><ele>90.85714285714286</ele><time>2026-04-21T17:41:02.831Z</time></trkpt><trkpt lat="44.742735" lon="-0.41664"><ele>91.0</ele><time>2026-04-21T17:41:03.832Z</time></trkpt><trkpt lat="44.7426783" lon="-0.4165867"><ele>91.0</ele><time>2026-04-21T17:41:04.832Z</time></trkpt><trkpt lat="44.7426217" lon="-0.416535"><ele>91.0</ele><time>2026-04-21T17:41:05.832Z</time></trkpt><trkpt lat="44.7425667" lon="-0.41648"><ele>91.0</ele><time>2026-04-21T17:41:06.832Z</time></trkpt><trkpt lat="44.7425133" lon="-0.416425"><ele>91.0</ele><time>2026-04-21T17:41:07.832Z</time></trkpt><trkpt lat="44.7424517" lon="-0.41637"><ele>91.0</ele><time>2026-04-21T17:41:08.831Z</time></trkpt><trkpt lat="44.7423933" lon="-0.4163217"><ele>91.0</ele><time>2026-04-21T17:41:09.832Z</time></trkpt><trkpt lat="44.742335" lon="-0.4162733"><ele>91.0</ele><time>2026-04-21T17:41:10.832Z</time></trkpt><trkpt lat="44.7422733" lon="-0.4162267"><ele>90.85714285714286</ele><time>2026-04-21T17:41:11.832Z</time></trkpt><trkpt lat="44.74221" lon="-0.4161833"><ele>90.71428571428572</ele><time>2026-04-21T17:41:12.832Z</time></trkpt><trkpt lat="44.7421467" lon="-0.4161483"><ele>90.57142857142857</ele><time>2026-04-21T17:41:13.832Z</time></trkpt><trkpt lat="44.742085" lon="-0.4161083"><ele>90.42857142857143</ele><time>2026-04-21T17:41:14.832Z</time></trkpt><trkpt lat="44.74202" lon="-0.41607"><ele>90.28571428571429</ele><time>2026-04-21T17:41:15.832Z</time></trkpt><trkpt lat="44.7419567" lon="-0.4160383"><ele>90.14285714285714</ele><time>2026-04-21T17:41:16.832Z</time></trkpt><trkpt lat="44.7418917" lon="-0.4160133"><ele>90.0</ele><time>2026-04-21T17:41:17.831Z</time></trkpt><trkpt lat="44.741825" lon="-0.415975"><ele>89.83333333333333</ele><time>2026-04-21T17:41:18.832Z</time></trkpt><trkpt lat="44.74176" lon="-0.4159383"><ele>89.66666666666667</ele><time>2026-04-21T17:41:19.831Z</time></trkpt><trkpt lat="44.7416983" lon="-0.4158933"><ele>89.5</ele><time>2026-04-21T17:41:20.832Z</time></trkpt><trkpt lat="44.7416383" lon="-0.4158417"><ele>89.33333333333334</ele><time>2026-04-21T17:41:21.832Z</time></trkpt><trkpt lat="44.7415767" lon="-0.415795"><ele>89.16666666666667</ele><time>2026-04-21T17:41:22.832Z</time></trkpt><trkpt lat="44.7415183" lon="-0.4157617"><ele>89.0</ele><time>2026-04-21T17:41:23.831Z</time></trkpt><trkpt lat="44.741405" lon="-0.4157083"><ele>89.0</ele><time>2026-04-21T17:41:25.831Z</time></trkpt><trkpt lat="44.7413433" lon="-0.4156817"><ele>89.0</ele><time>2026-04-21T17:41:26.832Z</time></trkpt><trkpt lat="44.74123" lon="-0.4156067"><ele>89.0</ele><time>2026-04-21T17:41:28.832Z</time></trkpt><trkpt lat="44.7411117" lon="-0.4155383"><ele>89.0</ele><time>2026-04-21T17:41:30.831Z</time></trkpt><trkpt lat="44.7409917" lon="-0.41548"><ele>89.0</ele><time>2026-04-21T17:41:32.832Z</time></trkpt><trkpt lat="44.7409317" lon="-0.4154483"><ele>88.5</ele><time>2026-04-21T17:41:33.831Z</time></trkpt><trkpt lat="44.74087" lon="-0.4154133"><ele>88.0</ele><time>2026-04-21T17:41:34.832Z</time></trkpt><trkpt lat="44.7408117" lon="-0.4153783"><ele>87.5</ele><time>2026-04-21T17:41:35.831Z</time></trkpt><trkpt lat="44.7406917" lon="-0.4153183"><ele>87.0</ele><time>2026-04-21T17:41:37.832Z</time></trkpt><trkpt lat="44.7406283" lon="-0.4152817"><ele>86.5</ele><time>2026-04-21T17:41:38.832Z</time></trkpt><trkpt lat="44.7405667" lon="-0.4152417"><ele>86.0</ele><time>2026-04-21T17:41:39.832Z</time></trkpt><trkpt lat="44.7405033" lon="-0.4152083"><ele>86.00000000000001</ele><time>2026-04-21T17:41:40.831Z</time></trkpt><trkpt lat="44.74044" lon="-0.4151783"><ele>86.0</ele><time>2026-04-21T17:41:41.832Z</time></trkpt><trkpt lat="44.740375" lon="-0.4151433"><ele>86.0</ele><time>2026-04-21T17:41:42.831Z</time></trkpt><trkpt lat="44.7403067" lon="-0.415105"><ele>86.0</ele><time>2026-04-21T17:41:43.831Z</time></trkpt><trkpt lat="44.7402367" lon="-0.415065"><ele>86.0</ele><time>2026-04-21T17:41:44.832Z</time></trkpt><trkpt lat="44.74017" lon="-0.4150317"><ele>86.00000000000001</ele><time>2026-04-21T17:41:45.832Z</time></trkpt><trkpt lat="44.7401033" lon="-0.41499"><ele>86.0</ele><time>2026-04-21T17:41:46.832Z</time></trkpt><trkpt lat="44.7400333" lon="-0.414955"><ele>86.14285714285715</ele><time>2026-04-21T17:41:47.831Z</time></trkpt><trkpt lat="44.7399633" lon="-0.4149133"><ele>86.28571428571429</ele><time>2026-04-21T17:41:48.831Z</time></trkpt><trkpt lat="44.7398917" lon="-0.4148733"><ele>86.42857142857143</ele><time>2026-04-21T17:41:49.832Z</time></trkpt><trkpt lat="44.7398217" lon="-0.41483"><ele>86.57142857142858</ele><time>2026-04-21T17:41:50.832Z</time></trkpt><trkpt lat="44.739755" lon="-0.414795"><ele>86.71428571428572</ele><time>2026-04-21T17:41:51.831Z</time></trkpt><trkpt lat="44.739685" lon="-0.4147583"><ele>86.85714285714286</ele><time>2026-04-21T17:41:52.832Z</time></trkpt><trkpt lat="44.7396183" lon="-0.4147167"><ele>87.0</ele><time>2026-04-21T17:41:53.832Z</time></trkpt><trkpt lat="44.7395533" lon="-0.4146783"><ele>87.0</ele><time>2026-04-21T17:41:54.832Z</time></trkpt><trkpt lat="44.73949" lon="-0.4146417"><ele>87.0</ele><time>2026-04-21T17:41:55.832Z</time></trkpt><trkpt lat="44.7394217" lon="-0.4145983"><ele>87.0</ele><time>2026-04-21T17:41:56.832Z</time></trkpt><trkpt lat="44.7393517" lon="-0.4145567"><ele>87.0</ele><time>2026-04-21T17:41:57.832Z</time></trkpt><trkpt lat="44.7392817" lon="-0.4145183"><ele>87.0</ele><time>2026-04-21T17:41:58.832Z</time></trkpt><trkpt lat="44.7392133" lon="-0.4144817"><ele>87.0</ele><time>2026-04-21T17:41:59.831Z</time></trkpt><trkpt lat="44.739145" lon="-0.4144433"><ele>87.0</ele><time>2026-04-21T17:42:00.832Z</time></trkpt><trkpt lat="44.73908" lon="-0.4144067"><ele>86.71428571428571</ele><time>2026-04-21T17:42:01.832Z</time></trkpt><trkpt lat="44.73901" lon="-0.4143667"><ele>86.42857142857143</ele><time>2026-04-21T17:42:02.832Z</time></trkpt><trkpt lat="44.73894" lon="-0.414325"><ele>86.14285714285714</ele><time>2026-04-21T17:42:03.831Z</time></trkpt><trkpt lat="44.7388733" lon="-0.4142867"><ele>85.85714285714286</ele><time>2026-04-21T17:42:04.832Z</time></trkpt><trkpt lat="44.7388083" lon="-0.4142517"><ele>85.57142857142857</ele><time>2026-04-21T17:42:05.832Z</time></trkpt><trkpt lat="44.73874" lon="-0.4142183"><ele>85.28571428571429</ele><time>2026-04-21T17:42:06.832Z</time></trkpt><trkpt lat="44.7386717" lon="-0.4141833"><ele>85.0</ele><time>2026-04-21T17:42:07.831Z</time></trkpt><trkpt lat="44.7386067" lon="-0.414145"><ele>85.14285714285715</ele><time>2026-04-21T17:42:08.832Z</time></trkpt><trkpt lat="44.7385483" lon="-0.414105"><ele>85.28571428571428</ele><time>2026-04-21T17:42:09.832Z</time></trkpt><trkpt lat="44.73848" lon="-0.4140633"><ele>85.42857142857143</ele><time>2026-04-21T17:42:10.831Z</time></trkpt><trkpt lat="44.7384117" lon="-0.414025"><ele>85.57142857142858</ele><time>2026-04-21T17:42:11.832Z</time></trkpt><trkpt lat="44.73834" lon="-0.41399"><ele>85.71428571428572</ele><time>2026-04-21T17:42:12.832Z</time></trkpt><trkpt lat="44.738275" lon="-0.4139583"><ele>85.85714285714286</ele><time>2026-04-21T17:42:13.832Z</time></trkpt><trkpt lat="44.73821" lon="-0.4139183"><ele>86.0</ele><time>2026-04-21T17:42:14.831Z</time></trkpt><trkpt lat="44.7381417" lon="-0.4138767"><ele>86.00000000000001</ele><time>2026-04-21T17:42:15.832Z</time></trkpt><trkpt lat="44.7380767" lon="-0.4138433"><ele>86.0</ele><time>2026-04-21T17:42:16.832Z</time></trkpt><trkpt lat="44.7380167" lon="-0.4138117"><ele>86.0</ele><time>2026-04-21T17:42:17.832Z</time></trkpt><trkpt lat="44.7379533" lon="-0.41378"><ele>86.0</ele><time>2026-04-21T17:42:18.832Z</time></trkpt><trkpt lat="44.7378933" lon="-0.41375"><ele>86.0</ele><time>2026-04-21T17:42:19.832Z</time></trkpt><trkpt lat="44.7378283" lon="-0.4137117"><ele>86.00000000000001</ele><time>2026-04-21T17:42:20.831Z</time></trkpt><trkpt lat="44.7377683" lon="-0.413675"><ele>86.0</ele><time>2026-04-21T17:42:21.831Z</time></trkpt><trkpt lat="44.7377083" lon="-0.4136367"><ele>86.00000000000001</ele><time>2026-04-21T17:42:22.831Z</time></trkpt><trkpt lat="44.7376433" lon="-0.4136"><ele>86.0</ele><time>2026-04-21T17:42:23.832Z</time></trkpt><trkpt lat="44.7375783" lon="-0.4135617"><ele>86.0</ele><time>2026-04-21T17:42:24.832Z</time></trkpt><trkpt lat="44.7375167" lon="-0.41353"><ele>86.0</ele><time>2026-04-21T17:42:25.832Z</time></trkpt><trkpt lat="44.7374533" lon="-0.413495"><ele>86.0</ele><time>2026-04-21T17:42:26.832Z</time></trkpt><trkpt lat="44.7373917" lon="-0.4134633"><ele>86.00000000000001</ele><time>2026-04-21T17:42:27.832Z</time></trkpt><trkpt lat="44.7373267" lon="-0.413425"><ele>86.0</ele><time>2026-04-21T17:42:28.832Z</time></trkpt><trkpt lat="44.737265" lon="-0.4133883"><ele>86.00000000000001</ele><time>2026-04-21T17:42:29.832Z</time></trkpt><trkpt lat="44.7372017" lon="-0.4133517"><ele>86.0</ele><time>2026-04-21T17:42:30.832Z</time></trkpt><trkpt lat="44.7371383" lon="-0.413315"><ele>86.0</ele><time>2026-04-21T17:42:31.831Z</time></trkpt><trkpt lat="44.7370717" lon="-0.41328"><ele>86.0</ele><time>2026-04-21T17:42:32.831Z</time></trkpt><trkpt lat="44.7370033" lon="-0.4132417"><ele>86.0</ele><time>2026-04-21T17:42:33.831Z</time></trkpt><trkpt lat="44.73694" lon="-0.4132017"><ele>86.00000000000001</ele><time>2026-04-21T17:42:34.832Z</time></trkpt><trkpt lat="44.7368783" lon="-0.4131617"><ele>86.0</ele><time>2026-04-21T17:42:35.832Z</time></trkpt><trkpt lat="44.736815" lon="-0.4131233"><ele>86.00000000000001</ele><time>2026-04-21T17:42:36.832Z</time></trkpt><trkpt lat="44.7367483" lon="-0.4130817"><ele>86.0</ele><time>2026-04-21T17:42:37.832Z</time></trkpt><trkpt lat="44.736685" lon="-0.4130467"><ele>86.0</ele><time>2026-04-21T17:42:38.832Z</time></trkpt><trkpt lat="44.7366217" lon="-0.413015"><ele>86.0</ele><time>2026-04-21T17:42:39.832Z</time></trkpt><trkpt lat="44.736555" lon="-0.412985"><ele>86.0</ele><time>2026-04-21T17:42:40.832Z</time></trkpt><trkpt lat="44.73649" lon="-0.4129483"><ele>86.00000000000001</ele><time>2026-04-21T17:42:41.832Z</time></trkpt><trkpt lat="44.736425" lon="-0.4129117"><ele>86.0</ele><time>2026-04-21T17:42:42.832Z</time></trkpt><trkpt lat="44.736355" lon="-0.4128733"><ele>86.00000000000001</ele><time>2026-04-21T17:42:43.832Z</time></trkpt><trkpt lat="44.73629" lon="-0.4128383"><ele>86.0</ele><time>2026-04-21T17:42:44.832Z</time></trkpt><trkpt lat="44.736225" lon="-0.4128017"><ele>86.0</ele><time>2026-04-21T17:42:45.832Z</time></trkpt><trkpt lat="44.7361617" lon="-0.412765"><ele>86.0</ele><time>2026-04-21T17:42:46.832Z</time></trkpt><trkpt lat="44.7360983" lon="-0.412725"><ele>86.0</ele><time>2026-04-21T17:42:47.832Z</time></trkpt><trkpt lat="44.736035" lon="-0.4126933"><ele>86.00000000000001</ele><time>2026-04-21T17:42:48.832Z</time></trkpt><trkpt lat="44.735975" lon="-0.4126583"><ele>86.0</ele><time>2026-04-21T17:42:49.831Z</time></trkpt><trkpt lat="44.735915" lon="-0.4126233"><ele>86.28571428571429</ele><time>2026-04-21T17:42:50.832Z</time></trkpt><trkpt lat="44.7358517" lon="-0.4125817"><ele>86.57142857142857</ele><time>2026-04-21T17:42:51.832Z</time></trkpt><trkpt lat="44.7357917" lon="-0.412545"><ele>86.85714285714286</ele><time>2026-04-21T17:42:52.832Z</time></trkpt><trkpt lat="44.7357283" lon="-0.4125083"><ele>87.14285714285714</ele><time>2026-04-21T17:42:53.832Z</time></trkpt><trkpt lat="44.7356667" lon="-0.412475"><ele>87.42857142857143</ele><time>2026-04-21T17:42:54.832Z</time></trkpt><trkpt lat="44.7356033" lon="-0.4124417"><ele>87.71428571428572</ele><time>2026-04-21T17:42:55.832Z</time></trkpt><trkpt lat="44.73554" lon="-0.4124117"><ele>88.0</ele><time>2026-04-21T17:42:56.832Z</time></trkpt><trkpt lat="44.7354767" lon="-0.4123717"><ele>88.0</ele><time>2026-04-21T17:42:57.832Z</time></trkpt><trkpt lat="44.7354183" lon="-0.41233"><ele>88.0</ele><time>2026-04-21T17:42:58.832Z</time></trkpt><trkpt lat="44.7353667" lon="-0.4122783"><ele>88.0</ele><time>2026-04-21T17:42:59.832Z</time></trkpt><trkpt lat="44.7353167" lon="-0.4122217"><ele>88.0</ele><time>2026-04-21T17:43:00.832Z</time></trkpt><trkpt lat="44.7352733" lon="-0.4121517"><ele>88.0</ele><time>2026-04-21T17:43:01.832Z</time></trkpt><trkpt lat="44.7352333" lon="-0.4120733"><ele>88.0</ele><time>2026-04-21T17:43:02.831Z</time></trkpt><trkpt lat="44.735185" lon="-0.4118983"><ele>88.14285714285714</ele><time>2026-04-21T17:43:04.832Z</time></trkpt><trkpt lat="44.7351767" lon="-0.4118033"><ele>88.28571428571428</ele><time>2026-04-21T17:43:05.832Z</time></trkpt><trkpt lat="44.7351667" lon="-0.4117067"><ele>88.42857142857142</ele><time>2026-04-21T17:43:06.832Z</time></trkpt><trkpt lat="44.7351583" lon="-0.4116083"><ele>88.57142857142857</ele><time>2026-04-21T17:43:07.831Z</time></trkpt><trkpt lat="44.7351533" lon="-0.4115"><ele>88.71428571428571</ele><time>2026-04-21T17:43:08.831Z</time></trkpt><trkpt lat="44.73515" lon="-0.41139"><ele>88.85714285714285</ele><time>2026-04-21T17:43:09.832Z</time></trkpt><trkpt lat="44.7351433" lon="-0.4112767"><ele>89.0</ele><time>2026-04-21T17:43:10.832Z</time></trkpt><trkpt lat="44.7351367" lon="-0.4111717"><ele>88.99999999999999</ele><time>2026-04-21T17:43:11.831Z</time></trkpt><trkpt lat="44.7351317" lon="-0.4110617"><ele>89.0</ele><time>2026-04-21T17:43:12.831Z</time></trkpt><trkpt lat="44.735125" lon="-0.4109617"><ele>89.0</ele><time>2026-04-21T17:43:13.832Z</time></trkpt><trkpt lat="44.735115" lon="-0.4108583"><ele>89.0</ele><time>2026-04-21T17:43:14.831Z</time></trkpt><trkpt lat="44.7350983" lon="-0.410755"><ele>89.0</ele><time>2026-04-21T17:43:15.831Z</time></trkpt><trkpt lat="44.7350817" lon="-0.410655"><ele>88.99999999999999</ele><time>2026-04-21T17:43:16.831Z</time></trkpt><trkpt lat="44.7350767" lon="-0.4105483"><ele>89.0</ele><time>2026-04-21T17:43:17.832Z</time></trkpt><trkpt lat="44.7350733" lon="-0.410435"><ele>88.5</ele><time>2026-04-21T17:43:18.831Z</time></trkpt><trkpt lat="44.7350583" lon="-0.410325"><ele>88.0</ele><time>2026-04-21T17:43:19.831Z</time></trkpt><trkpt lat="44.7350483" lon="-0.4102083"><ele>87.5</ele><time>2026-04-21T17:43:20.83Z</time></trkpt><trkpt lat="44.735035" lon="-0.4100867"><ele>87.0</ele><time>2026-04-21T17:43:21.83Z</time></trkpt><trkpt lat="44.7350183" lon="-0.4099733"><ele>86.5</ele><time>2026-04-21T17:43:22.831Z</time></trkpt><trkpt lat="44.735" lon="-0.4098617"><ele>86.0</ele><time>2026-04-21T17:43:23.831Z</time></trkpt><trkpt lat="44.7349867" lon="-0.4097483"><ele>85.83333333333334</ele><time>2026-04-21T17:43:24.83Z</time></trkpt><trkpt lat="44.7349733" lon="-0.4096367"><ele>85.66666666666667</ele><time>2026-04-21T17:43:25.83Z</time></trkpt><trkpt lat="44.7349533" lon="-0.4095333"><ele>85.5</ele><time>2026-04-21T17:43:26.831Z</time></trkpt><trkpt lat="44.7349417" lon="-0.409435"><ele>85.33333333333333</ele><time>2026-04-21T17:43:27.831Z</time></trkpt><trkpt lat="44.7349183" lon="-0.4093317"><ele>85.16666666666666</ele><time>2026-04-21T17:43:28.83Z</time></trkpt><trkpt lat="44.734895" lon="-0.4092267"><ele>85.0</ele><time>2026-04-21T17:43:29.831Z</time></trkpt><trkpt lat="44.7348683" lon="-0.4091283"><ele>85.0</ele><time>2026-04-21T17:43:30.831Z</time></trkpt><trkpt lat="44.73484" lon="-0.4090317"><ele>85.0</ele><time>2026-04-21T17:43:31.83Z</time></trkpt><trkpt lat="44.7348083" lon="-0.40893"><ele>85.0</ele><time>2026-04-21T17:43:32.83Z</time></trkpt><trkpt lat="44.7347667" lon="-0.40882"><ele>85.0</ele><time>2026-04-21T17:43:33.83Z</time></trkpt><trkpt lat="44.7347233" lon="-0.4087233"><ele>85.0</ele><time>2026-04-21T17:43:34.83Z</time></trkpt><trkpt lat="44.7346817" lon="-0.408635"><ele>85.0</ele><time>2026-04-21T17:43:35.831Z</time></trkpt><trkpt lat="44.7346417" lon="-0.4085483"><ele>85.0</ele><time>2026-04-21T17:43:36.831Z</time></trkpt><trkpt lat="44.734595" lon="-0.40846"><ele>85.0</ele><time>2026-04-21T17:43:37.831Z</time></trkpt><trkpt lat="44.7345517" lon="-0.408365"><ele>85.0</ele><time>2026-04-21T17:43:38.831Z</time></trkpt><trkpt lat="44.7345117" lon="-0.4082767"><ele>85.0</ele><time>2026-04-21T17:43:39.83Z</time></trkpt><trkpt lat="44.73446" lon="-0.408195"><ele>85.0</ele><time>2026-04-21T17:43:40.831Z</time></trkpt><trkpt lat="44.73441" lon="-0.4081167"><ele>85.0</ele><time>2026-04-21T17:43:41.831Z</time></trkpt><trkpt lat="44.7343567" lon="-0.408025"><ele>85.0</ele><time>2026-04-21T17:43:42.831Z</time></trkpt><trkpt lat="44.73431" lon="-0.4079367"><ele>85.0</ele><time>2026-04-21T17:43:43.831Z</time></trkpt><trkpt lat="44.73427" lon="-0.4078467"><ele>85.0</ele><time>2026-04-21T17:43:44.831Z</time></trkpt><trkpt lat="44.7342267" lon="-0.4077533"><ele>85.0</ele><time>2026-04-21T17:43:45.831Z</time></trkpt><trkpt lat="44.73418" lon="-0.4076617"><ele>85.0</ele><time>2026-04-21T17:43:46.831Z</time></trkpt><trkpt lat="44.7341283" lon="-0.40757"><ele>85.0</ele><time>2026-04-21T17:43:47.831Z</time></trkpt><trkpt lat="44.7340783" lon="-0.4074867"><ele>85.0</ele><time>2026-04-21T17:43:48.831Z</time></trkpt><trkpt lat="44.7340217" lon="-0.4074067"><ele>85.0</ele><time>2026-04-21T17:43:49.831Z</time></trkpt><trkpt lat="44.733975" lon="-0.4073317"><ele>85.0</ele><time>2026-04-21T17:43:50.83Z</time></trkpt><trkpt lat="44.7339267" lon="-0.4072567"><ele>85.0</ele><time>2026-04-21T17:43:51.831Z</time></trkpt><trkpt lat="44.73388" lon="-0.4071867"><ele>85.0</ele><time>2026-04-21T17:43:52.83Z</time></trkpt><trkpt lat="44.7338317" lon="-0.407125"><ele>85.0</ele><time>2026-04-21T17:43:53.831Z</time></trkpt><trkpt lat="44.73367" lon="-0.406945"><ele>85.0</ele><time>2026-04-21T17:43:56.831Z</time></trkpt><trkpt lat="44.7336067" lon="-0.4068917"><ele>85.0</ele><time>2026-04-21T17:43:57.83Z</time></trkpt><trkpt lat="44.7335267" lon="-0.40684"><ele>85.0</ele><time>2026-04-21T17:43:58.831Z</time></trkpt><trkpt lat="44.73346" lon="-0.4067867"><ele>85.0</ele><time>2026-04-21T17:43:59.83Z</time></trkpt><trkpt lat="44.733395" lon="-0.4067383"><ele>85.0</ele><time>2026-04-21T17:44:00.831Z</time></trkpt><trkpt lat="44.73333" lon="-0.4067017"><ele>85.0</ele><time>2026-04-21T17:44:01.831Z</time></trkpt><trkpt lat="44.73327" lon="-0.4066617"><ele>85.0</ele><time>2026-04-21T17:44:02.831Z</time></trkpt><trkpt lat="44.733205" lon="-0.4066217"><ele>84.71428571428572</ele><time>2026-04-21T17:44:03.83Z</time></trkpt><trkpt lat="44.7331367" lon="-0.4065783"><ele>84.42857142857142</ele><time>2026-04-21T17:44:04.831Z</time></trkpt><trkpt lat="44.7330733" lon="-0.4065367"><ele>84.14285714285714</ele><time>2026-04-21T17:44:05.83Z</time></trkpt><trkpt lat="44.7330083" lon="-0.4064933"><ele>83.85714285714286</ele><time>2026-04-21T17:44:06.831Z</time></trkpt><trkpt lat="44.7329383" lon="-0.406455"><ele>83.57142857142858</ele><time>2026-04-21T17:44:07.831Z</time></trkpt><trkpt lat="44.7328767" lon="-0.4064183"><ele>83.28571428571428</ele><time>2026-04-21T17:44:08.831Z</time></trkpt><trkpt lat="44.7328117" lon="-0.4063783"><ele>83.0</ele><time>2026-04-21T17:44:09.831Z</time></trkpt><trkpt lat="44.7327533" lon="-0.4063383"><ele>83.16666666666667</ele><time>2026-04-21T17:44:10.831Z</time></trkpt><trkpt lat="44.732695" lon="-0.4062967"><ele>83.33333333333334</ele><time>2026-04-21T17:44:11.83Z</time></trkpt><trkpt lat="44.7326383" lon="-0.406255"><ele>83.5</ele><time>2026-04-21T17:44:12.831Z</time></trkpt><trkpt lat="44.7325283" lon="-0.40618"><ele>83.66666666666667</ele><time>2026-04-21T17:44:14.831Z</time></trkpt><trkpt lat="44.73247" lon="-0.40614"><ele>83.83333333333333</ele><time>2026-04-21T17:44:15.831Z</time></trkpt><trkpt lat="44.732405" lon="-0.4060967"><ele>84.0</ele><time>2026-04-21T17:44:16.831Z</time></trkpt><trkpt lat="44.73234" lon="-0.4060533"><ele>84.0</ele><time>2026-04-21T17:44:17.83Z</time></trkpt><trkpt lat="44.7322817" lon="-0.4060117"><ele>84.0</ele><time>2026-04-21T17:44:18.831Z</time></trkpt><trkpt lat="44.73222" lon="-0.4059683"><ele>84.0</ele><time>2026-04-21T17:44:19.831Z</time></trkpt><trkpt lat="44.73211" lon="-0.4058917"><ele>84.0</ele><time>2026-04-21T17:44:21.831Z</time></trkpt><trkpt lat="44.73205" lon="-0.4058517"><ele>84.0</ele><time>2026-04-21T17:44:22.831Z</time></trkpt><trkpt lat="44.7319883" lon="-0.4058117"><ele>84.0</ele><time>2026-04-21T17:44:23.831Z</time></trkpt><trkpt lat="44.7319283" lon="-0.4057767"><ele>84.16666666666667</ele><time>2026-04-21T17:44:24.83Z</time></trkpt><trkpt lat="44.73187" lon="-0.4057417"><ele>84.33333333333333</ele><time>2026-04-21T17:44:25.831Z</time></trkpt><trkpt lat="44.7318133" lon="-0.4057"><ele>84.5</ele><time>2026-04-21T17:44:26.831Z</time></trkpt><trkpt lat="44.7316983" lon="-0.40563"><ele>84.66666666666666</ele><time>2026-04-21T17:44:28.831Z</time></trkpt><trkpt lat="44.7315833" lon="-0.4055517"><ele>84.83333333333333</ele><time>2026-04-21T17:44:30.831Z</time></trkpt><trkpt lat="44.731525" lon="-0.405515"><ele>85.0</ele><time>2026-04-21T17:44:31.83Z</time></trkpt><trkpt lat="44.7314683" lon="-0.4054733"><ele>84.85714285714286</ele><time>2026-04-21T17:44:32.831Z</time></trkpt><trkpt lat="44.7314067" lon="-0.4054333"><ele>84.71428571428571</ele><time>2026-04-21T17:44:33.83Z</time></trkpt><trkpt lat="44.7313467" lon="-0.4053917"><ele>84.57142857142857</ele><time>2026-04-21T17:44:34.831Z</time></trkpt><trkpt lat="44.73129" lon="-0.405345"><ele>84.42857142857143</ele><time>2026-04-21T17:44:35.831Z</time></trkpt><trkpt lat="44.7312317" lon="-0.4052883"><ele>84.28571428571428</ele><time>2026-04-21T17:44:36.831Z</time></trkpt><trkpt lat="44.731175" lon="-0.4052383"><ele>84.14285714285714</ele><time>2026-04-21T17:44:37.831Z</time></trkpt><trkpt lat="44.7311183" lon="-0.4051883"><ele>84.0</ele><time>2026-04-21T17:44:38.83Z</time></trkpt><trkpt lat="44.7310167" lon="-0.40508"><ele>84.0</ele><time>2026-04-21T17:44:40.83Z</time></trkpt><trkpt lat="44.7309617" lon="-0.40503"><ele>84.0</ele><time>2026-04-21T17:44:41.83Z</time></trkpt><trkpt lat="44.7309083" lon="-0.4049717"><ele>84.0</ele><time>2026-04-21T17:44:42.83Z</time></trkpt><trkpt lat="44.7308" lon="-0.4048717"><ele>84.0</ele><time>2026-04-21T17:44:44.831Z</time></trkpt><trkpt lat="44.730745" lon="-0.404815"><ele>84.0</ele><time>2026-04-21T17:44:45.831Z</time></trkpt><trkpt lat="44.7306933" lon="-0.40476"><ele>84.0</ele><time>2026-04-21T17:44:46.831Z</time></trkpt><trkpt lat="44.7306383" lon="-0.4047167"><ele>84.0</ele><time>2026-04-21T17:44:47.831Z</time></trkpt><trkpt lat="44.7305817" lon="-0.4046717"><ele>84.0</ele><time>2026-04-21T17:44:48.831Z</time></trkpt><trkpt lat="44.730525" lon="-0.4046267"><ele>84.0</ele><time>2026-04-21T17:44:49.831Z</time></trkpt><trkpt lat="44.7304683" lon="-0.4045833"><ele>84.0</ele><time>2026-04-21T17:44:50.831Z</time></trkpt><trkpt lat="44.7304133" lon="-0.4045383"><ele>84.0</ele><time>2026-04-21T17:44:51.831Z</time></trkpt><trkpt lat="44.730305" lon="-0.4044683"><ele>84.0</ele><time>2026-04-21T17:44:53.831Z</time></trkpt><trkpt lat="44.7301917" lon="-0.4043983"><ele>84.80000000000001</ele><time>2026-04-21T17:44:55.831Z</time></trkpt><trkpt lat="44.7301333" lon="-0.404365"><ele>85.60000000000001</ele><time>2026-04-21T17:44:56.831Z</time></trkpt><trkpt lat="44.7300717" lon="-0.404335"><ele>86.4</ele><time>2026-04-21T17:44:57.831Z</time></trkpt><trkpt lat="44.7299633" lon="-0.40427"><ele>87.2</ele><time>2026-04-21T17:44:59.831Z</time></trkpt><trkpt lat="44.7298633" lon="-0.4042"><ele>88.0</ele><time>2026-04-21T17:45:01.831Z</time></trkpt><trkpt lat="44.7297567" lon="-0.40413"><ele>88.0</ele><time>2026-04-21T17:45:03.83Z</time></trkpt><trkpt lat="44.7296567" lon="-0.4040633"><ele>88.0</ele><time>2026-04-21T17:45:05.831Z</time></trkpt><trkpt lat="44.7295533" lon="-0.4039917"><ele>88.0</ele><time>2026-04-21T17:45:07.831Z</time></trkpt><trkpt lat="44.7294567" lon="-0.4039183"><ele>88.0</ele><time>2026-04-21T17:45:09.83Z</time></trkpt><trkpt lat="44.7293733" lon="-0.4038583"><ele>88.0</ele><time>2026-04-21T17:45:11.831Z</time></trkpt><trkpt lat="44.729295" lon="-0.4037983"><ele>88.66666666666666</ele><time>2026-04-21T17:45:13.831Z</time></trkpt><trkpt lat="44.7292183" lon="-0.4037367"><ele>89.33333333333333</ele><time>2026-04-21T17:45:15.831Z</time></trkpt><trkpt lat="44.729145" lon="-0.4036817"><ele>90.0</ele><time>2026-04-21T17:45:17.831Z</time></trkpt><trkpt lat="44.7290833" lon="-0.4036317"><ele>90.66666666666667</ele><time>2026-04-21T17:45:19.831Z</time></trkpt><trkpt lat="44.729025" lon="-0.4035883"><ele>91.33333333333334</ele><time>2026-04-21T17:45:21.83Z</time></trkpt><trkpt lat="44.72899" lon="-0.4036767"><ele>92.0</ele><time>2026-04-21T17:45:26.83Z</time></trkpt><trkpt lat="44.729" lon="-0.4035717"><ele>92.0</ele><time>2026-04-21T17:50:59.83Z</time></trkpt><trkpt lat="44.7288967" lon="-0.4034883"><ele>92.0</ele><time>2026-04-21T17:51:03.83Z</time></trkpt><trkpt lat="44.728825" lon="-0.4034333"><ele>92.0</ele><time>2026-04-21T17:51:05.829Z</time></trkpt><trkpt lat="44.7287383" lon="-0.4033617"><ele>92.0</ele><time>2026-04-21T17:51:07.83Z</time></trkpt><trkpt lat="44.728635" lon="-0.4032817"><ele>92.0</ele><time>2026-04-21T17:51:09.83Z</time></trkpt><trkpt lat="44.7285333" lon="-0.4032033"><ele>91.8</ele><time>2026-04-21T17:51:11.83Z</time></trkpt><trkpt lat="44.7284333" lon="-0.403125"><ele>91.6</ele><time>2026-04-21T17:51:13.83Z</time></trkpt><trkpt lat="44.72833" lon="-0.4030417"><ele>91.39999999999999</ele><time>2026-04-21T17:51:15.83Z</time></trkpt><trkpt lat="44.728225" lon="-0.4029633"><ele>91.19999999999999</ele><time>2026-04-21T17:51:17.83Z</time></trkpt><trkpt lat="44.7281633" lon="-0.4029333"><ele>91.0</ele><time>2026-04-21T17:51:18.83Z</time></trkpt><trkpt lat="44.7281033" lon="-0.4028917"><ele>91.0</ele><time>2026-04-21T17:51:19.829Z</time></trkpt><trkpt lat="44.7280467" lon="-0.40285"><ele>91.0</ele><time>2026-04-21T17:51:20.83Z</time></trkpt><trkpt lat="44.7279867" lon="-0.4028083"><ele>91.0</ele><time>2026-04-21T17:51:21.83Z</time></trkpt><trkpt lat="44.7279283" lon="-0.4027583"><ele>91.0</ele><time>2026-04-21T17:51:22.829Z</time></trkpt><trkpt lat="44.7278717" lon="-0.402715"><ele>91.0</ele><time>2026-04-21T17:51:23.83Z</time></trkpt><trkpt lat="44.7277683" lon="-0.4026233"><ele>91.0</ele><time>2026-04-21T17:51:25.83Z</time></trkpt><trkpt lat="44.7277117" lon="-0.4025733"><ele>90.8</ele><time>2026-04-21T17:51:26.829Z</time></trkpt><trkpt lat="44.7276517" lon="-0.402525"><ele>90.6</ele><time>2026-04-21T17:51:27.829Z</time></trkpt><trkpt lat="44.7275433" lon="-0.4024367"><ele>90.4</ele><time>2026-04-21T17:51:29.83Z</time></trkpt><trkpt lat="44.7274867" lon="-0.40239"><ele>90.2</ele><time>2026-04-21T17:51:30.83Z</time></trkpt><trkpt lat="44.7274267" lon="-0.40234"><ele>90.0</ele><time>2026-04-21T17:51:31.829Z</time></trkpt><trkpt lat="44.72731" lon="-0.4022583"><ele>90.0</ele><time>2026-04-21T17:51:33.83Z</time></trkpt><trkpt lat="44.7272517" lon="-0.4022117"><ele>90.0</ele><time>2026-04-21T17:51:34.83Z</time></trkpt><trkpt lat="44.7271917" lon="-0.4021667"><ele>90.0</ele><time>2026-04-21T17:51:35.829Z</time></trkpt><trkpt lat="44.7271317" lon="-0.40212"><ele>90.0</ele><time>2026-04-21T17:51:36.83Z</time></trkpt><trkpt lat="44.7270717" lon="-0.40209"><ele>90.0</ele><time>2026-04-21T17:51:37.829Z</time></trkpt><trkpt lat="44.7270133" lon="-0.4020517"><ele>90.0</ele><time>2026-04-21T17:51:38.83Z</time></trkpt><trkpt lat="44.726945" lon="-0.4020117"><ele>90.0</ele><time>2026-04-21T17:51:39.829Z</time></trkpt><trkpt lat="44.72688" lon="-0.4019717"><ele>90.0</ele><time>2026-04-21T17:51:40.83Z</time></trkpt><trkpt lat="44.72681" lon="-0.4019333"><ele>90.0</ele><time>2026-04-21T17:51:41.83Z</time></trkpt><trkpt lat="44.7267417" lon="-0.4019017"><ele>90.0</ele><time>2026-04-21T17:51:42.83Z</time></trkpt><trkpt lat="44.7266767" lon="-0.401875"><ele>90.0</ele><time>2026-04-21T17:51:43.829Z</time></trkpt><trkpt lat="44.72661" lon="-0.4018567"><ele>90.0</ele><time>2026-04-21T17:51:44.829Z</time></trkpt><trkpt lat="44.72654" lon="-0.401835"><ele>90.0</ele><time>2026-04-21T17:51:45.828Z</time></trkpt><trkpt lat="44.7264733" lon="-0.4018233"><ele>90.0</ele><time>2026-04-21T17:51:46.829Z</time></trkpt><trkpt lat="44.726375" lon="-0.4018467"><ele>90.0</ele><time>2026-04-21T17:51:48.829Z</time></trkpt><trkpt lat="44.726285" lon="-0.4018617"><ele>90.0</ele><time>2026-04-21T17:51:50.829Z</time></trkpt><trkpt lat="44.72623" lon="-0.4019133"><ele>90.0</ele><time>2026-04-21T17:51:53.829Z</time></trkpt><trkpt lat="44.7262567" lon="-0.4018217"><ele>90.0</ele><time>2026-04-21T17:52:03.829Z</time></trkpt><trkpt lat="44.72623" lon="-0.4017383"><ele>90.0</ele><time>2026-04-21T17:52:06.829Z</time></trkpt><trkpt lat="44.726145" lon="-0.4016733"><ele>90.0</ele><time>2026-04-21T17:52:09.828Z</time></trkpt><trkpt lat="44.726075" lon="-0.401635"><ele>90.0</ele><time>2026-04-21T17:52:11.829Z</time></trkpt><trkpt lat="44.72599" lon="-0.4015917"><ele>90.0</ele><time>2026-04-21T17:52:13.828Z</time></trkpt><trkpt lat="44.7258883" lon="-0.4015283"><ele>90.0</ele><time>2026-04-21T17:52:15.829Z</time></trkpt><trkpt lat="44.7257817" lon="-0.401465"><ele>90.0</ele><time>2026-04-21T17:52:17.829Z</time></trkpt><trkpt lat="44.7256767" lon="-0.4014167"><ele>90.0</ele><time>2026-04-21T17:52:19.829Z</time></trkpt><trkpt lat="44.725615" lon="-0.401395"><ele>90.0</ele><time>2026-04-21T17:52:20.829Z</time></trkpt><trkpt lat="44.72555" lon="-0.4013683"><ele>90.0</ele><time>2026-04-21T17:52:21.828Z</time></trkpt><trkpt lat="44.7254817" lon="-0.4013417"><ele>90.0</ele><time>2026-04-21T17:52:22.829Z</time></trkpt><trkpt lat="44.7254183" lon="-0.40133"><ele>90.0</ele><time>2026-04-21T17:52:23.829Z</time></trkpt><trkpt lat="44.7253017" lon="-0.401265"><ele>90.0</ele><time>2026-04-21T17:52:25.829Z</time></trkpt><trkpt lat="44.72524" lon="-0.40123"><ele>90.0</ele><time>2026-04-21T17:52:26.829Z</time></trkpt><trkpt lat="44.7251783" lon="-0.401185"><ele>90.0</ele><time>2026-04-21T17:52:27.829Z</time></trkpt><trkpt lat="44.7251183" lon="-0.401135"><ele>90.0</ele><time>2026-04-21T17:52:28.828Z</time></trkpt><trkpt lat="44.72506" lon="-0.4010783"><ele>90.0</ele><time>2026-04-21T17:52:29.829Z</time></trkpt><trkpt lat="44.7250017" lon="-0.4010167"><ele>90.0</ele><time>2026-04-21T17:52:30.829Z</time></trkpt><trkpt lat="44.7249433" lon="-0.4009517"><ele>90.0</ele><time>2026-04-21T17:52:31.828Z</time></trkpt><trkpt lat="44.724895" lon="-0.40088"><ele>90.0</ele><time>2026-04-21T17:52:32.829Z</time></trkpt><trkpt lat="44.7248467" lon="-0.40081"><ele>90.0</ele><time>2026-04-21T17:52:33.829Z</time></trkpt><trkpt lat="44.7247983" lon="-0.40074"><ele>90.0</ele><time>2026-04-21T17:52:34.829Z</time></trkpt><trkpt lat="44.72475" lon="-0.4006733"><ele>90.0</ele><time>2026-04-21T17:52:35.829Z</time></trkpt><trkpt lat="44.7247083" lon="-0.4005983"><ele>90.0</ele><time>2026-04-21T17:52:36.829Z</time></trkpt><trkpt lat="44.7246683" lon="-0.4005283"><ele>90.0</ele><time>2026-04-21T17:52:37.828Z</time></trkpt><trkpt lat="44.7246183" lon="-0.40045"><ele>90.0</ele><time>2026-04-21T17:52:38.829Z</time></trkpt><trkpt lat="44.7245733" lon="-0.4003767"><ele>90.0</ele><time>2026-04-21T17:52:39.828Z</time></trkpt><trkpt lat="44.7245283" lon="-0.400305"><ele>90.0</ele><time>2026-04-21T17:52:40.829Z</time></trkpt><trkpt lat="44.7244833" lon="-0.4002283"><ele>89.71428571428571</ele><time>2026-04-21T17:52:41.829Z</time></trkpt><trkpt lat="44.7244383" lon="-0.4001583"><ele>89.42857142857143</ele><time>2026-04-21T17:52:42.829Z</time></trkpt><trkpt lat="44.7243967" lon="-0.4000883"><ele>89.14285714285714</ele><time>2026-04-21T17:52:43.829Z</time></trkpt><trkpt lat="44.7243517" lon="-0.4000183"><ele>88.85714285714286</ele><time>2026-04-21T17:52:44.829Z</time></trkpt><trkpt lat="44.7243067" lon="-0.3999383"><ele>88.57142857142857</ele><time>2026-04-21T17:52:45.829Z</time></trkpt><trkpt lat="44.7242617" lon="-0.399865"><ele>88.28571428571429</ele><time>2026-04-21T17:52:46.829Z</time></trkpt><trkpt lat="44.7242217" lon="-0.3997917"><ele>88.0</ele><time>2026-04-21T17:52:47.829Z</time></trkpt><trkpt lat="44.7241817" lon="-0.3997167"><ele>87.71428571428572</ele><time>2026-04-21T17:52:48.829Z</time></trkpt><trkpt lat="44.7241417" lon="-0.3996383"><ele>87.42857142857143</ele><time>2026-04-21T17:52:49.828Z</time></trkpt><trkpt lat="44.7241" lon="-0.3995583"><ele>87.14285714285714</ele><time>2026-04-21T17:52:50.829Z</time></trkpt><trkpt lat="44.7240567" lon="-0.3994867"><ele>86.85714285714286</ele><time>2026-04-21T17:52:51.829Z</time></trkpt><trkpt lat="44.7240083" lon="-0.3994183"><ele>86.57142857142857</ele><time>2026-04-21T17:52:52.829Z</time></trkpt><trkpt lat="44.723955" lon="-0.3993567"><ele>86.28571428571429</ele><time>2026-04-21T17:52:53.829Z</time></trkpt><trkpt lat="44.7239083" lon="-0.399295"><ele>86.0</ele><time>2026-04-21T17:52:54.829Z</time></trkpt><trkpt lat="44.723815" lon="-0.3992"><ele>86.0</ele><time>2026-04-21T17:52:56.829Z</time></trkpt><trkpt lat="44.7237083" lon="-0.39916"><ele>86.0</ele><time>2026-04-21T17:52:58.829Z</time></trkpt><trkpt lat="44.7235917" lon="-0.3991917"><ele>86.0</ele><time>2026-04-21T17:53:00.828Z</time></trkpt><trkpt lat="44.7235283" lon="-0.3992283"><ele>86.0</ele><time>2026-04-21T17:53:01.829Z</time></trkpt><trkpt lat="44.7234633" lon="-0.3992767"><ele>86.0</ele><time>2026-04-21T17:53:02.829Z</time></trkpt><trkpt lat="44.7234" lon="-0.39933"><ele>86.0</ele><time>2026-04-21T17:53:03.828Z</time></trkpt><trkpt lat="44.72333" lon="-0.3993767"><ele>86.19999999999999</ele><time>2026-04-21T17:53:04.828Z</time></trkpt><trkpt lat="44.72325" lon="-0.39941"><ele>86.39999999999999</ele><time>2026-04-21T17:53:05.829Z</time></trkpt><trkpt lat="44.7231633" lon="-0.3994217"><ele>86.6</ele><time>2026-04-21T17:53:06.829Z</time></trkpt><trkpt lat="44.72307" lon="-0.39941"><ele>86.8</ele><time>2026-04-21T17:53:07.829Z</time></trkpt><trkpt lat="44.722975" lon="-0.3993733"><ele>87.0</ele><time>2026-04-21T17:53:08.829Z</time></trkpt><trkpt lat="44.72288" lon="-0.39933"><ele>87.0</ele><time>2026-04-21T17:53:09.829Z</time></trkpt><trkpt lat="44.7227883" lon="-0.3992817"><ele>87.0</ele><time>2026-04-21T17:53:10.828Z</time></trkpt><trkpt lat="44.7226967" lon="-0.3992383"><ele>87.0</ele><time>2026-04-21T17:53:11.828Z</time></trkpt><trkpt lat="44.7226067" lon="-0.3992"><ele>87.0</ele><time>2026-04-21T17:53:12.829Z</time></trkpt><trkpt lat="44.7225083" lon="-0.3991583"><ele>87.0</ele><time>2026-04-21T17:53:13.828Z</time></trkpt><trkpt lat="44.7224033" lon="-0.3991367"><ele>85.6</ele><time>2026-04-21T17:53:14.829Z</time></trkpt><trkpt lat="44.7223033" lon="-0.3991133"><ele>84.19999999999999</ele><time>2026-04-21T17:53:15.828Z</time></trkpt><trkpt lat="44.722205" lon="-0.399095"><ele>82.8</ele><time>2026-04-21T17:53:16.829Z</time></trkpt><trkpt lat="44.7221083" lon="-0.3990767"><ele>81.4</ele><time>2026-04-21T17:53:17.829Z</time></trkpt><trkpt lat="44.7220067" lon="-0.3990467"><ele>80.0</ele><time>2026-04-21T17:53:18.829Z</time></trkpt><trkpt lat="44.7219083" lon="-0.3990183"><ele>79.6</ele><time>2026-04-21T17:53:19.828Z</time></trkpt><trkpt lat="44.7218117" lon="-0.3990067"><ele>79.2</ele><time>2026-04-21T17:53:20.829Z</time></trkpt><trkpt lat="44.72171" lon="-0.399"><ele>78.8</ele><time>2026-04-21T17:53:21.828Z</time></trkpt><trkpt lat="44.7216167" lon="-0.3990067"><ele>78.4</ele><time>2026-04-21T17:53:22.829Z</time></trkpt><trkpt lat="44.7215267" lon="-0.3990217"><ele>78.0</ele><time>2026-04-21T17:53:23.829Z</time></trkpt><trkpt lat="44.72144" lon="-0.3990433"><ele>78.0</ele><time>2026-04-21T17:53:24.828Z</time></trkpt><trkpt lat="44.7213517" lon="-0.3990833"><ele>78.0</ele><time>2026-04-21T17:53:25.828Z</time></trkpt><trkpt lat="44.7212667" lon="-0.39912"><ele>78.0</ele><time>2026-04-21T17:53:26.829Z</time></trkpt><trkpt lat="44.721175" lon="-0.399175"><ele>78.0</ele><time>2026-04-21T17:53:27.829Z</time></trkpt><trkpt lat="44.7210867" lon="-0.399225"><ele>78.0</ele><time>2026-04-21T17:53:28.828Z</time></trkpt><trkpt lat="44.7210067" lon="-0.399275"><ele>77.2</ele><time>2026-04-21T17:53:29.829Z</time></trkpt><trkpt lat="44.7209267" lon="-0.3993283"><ele>76.4</ele><time>2026-04-21T17:53:30.829Z</time></trkpt><trkpt lat="44.7208383" lon="-0.3993833"><ele>75.60000000000001</ele><time>2026-04-21T17:53:31.828Z</time></trkpt><trkpt lat="44.7207533" lon="-0.39944"><ele>74.8</ele><time>2026-04-21T17:53:32.829Z</time></trkpt><trkpt lat="44.7206683" lon="-0.3994883"><ele>74.0</ele><time>2026-04-21T17:53:33.829Z</time></trkpt><trkpt lat="44.7205683" lon="-0.39953"><ele>74.0</ele><time>2026-04-21T17:53:34.829Z</time></trkpt><trkpt lat="44.72047" lon="-0.3995617"><ele>74.0</ele><time>2026-04-21T17:53:35.829Z</time></trkpt><trkpt lat="44.7203833" lon="-0.39959"><ele>74.0</ele><time>2026-04-21T17:53:36.829Z</time></trkpt><trkpt lat="44.7202867" lon="-0.3996167"><ele>74.0</ele><time>2026-04-21T17:53:37.829Z</time></trkpt><trkpt lat="44.72019" lon="-0.399645"><ele>74.0</ele><time>2026-04-21T17:53:38.829Z</time></trkpt><trkpt lat="44.7200967" lon="-0.3996817"><ele>73.0</ele><time>2026-04-21T17:53:39.829Z</time></trkpt><trkpt lat="44.72" lon="-0.3997217"><ele>72.0</ele><time>2026-04-21T17:53:40.829Z</time></trkpt><trkpt lat="44.7199033" lon="-0.3997567"><ele>71.0</ele><time>2026-04-21T17:53:41.828Z</time></trkpt><trkpt lat="44.7198033" lon="-0.3997883"><ele>70.0</ele><time>2026-04-21T17:53:42.829Z</time></trkpt><trkpt lat="44.7197033" lon="-0.3998133"><ele>69.0</ele><time>2026-04-21T17:53:43.829Z</time></trkpt><trkpt lat="44.71961" lon="-0.3998317"><ele>69.0</ele><time>2026-04-21T17:53:44.828Z</time></trkpt><trkpt lat="44.71951" lon="-0.39985"><ele>69.0</ele><time>2026-04-21T17:53:45.829Z</time></trkpt><trkpt lat="44.7194133" lon="-0.399865"><ele>69.0</ele><time>2026-04-21T17:53:46.829Z</time></trkpt><trkpt lat="44.7193117" lon="-0.3998467"><ele>69.0</ele><time>2026-04-21T17:53:47.829Z</time></trkpt><trkpt lat="44.719205" lon="-0.399825"><ele>69.0</ele><time>2026-04-21T17:53:48.829Z</time></trkpt><trkpt lat="44.7190983" lon="-0.3998017"><ele>66.8</ele><time>2026-04-21T17:53:49.829Z</time></trkpt><trkpt lat="44.7189933" lon="-0.399765"><ele>64.60000000000001</ele><time>2026-04-21T17:53:50.829Z</time></trkpt><trkpt lat="44.7188983" lon="-0.3997083"><ele>62.4</ele><time>2026-04-21T17:53:51.829Z</time></trkpt><trkpt lat="44.71881" lon="-0.3996417"><ele>60.2</ele><time>2026-04-21T17:53:52.829Z</time></trkpt><trkpt lat="44.71872" lon="-0.3995567"><ele>58.0</ele><time>2026-04-21T17:53:53.829Z</time></trkpt><trkpt lat="44.7186283" lon="-0.399475"><ele>56.0</ele><time>2026-04-21T17:53:54.829Z</time></trkpt><trkpt lat="44.7185417" lon="-0.399385"><ele>54.0</ele><time>2026-04-21T17:53:55.829Z</time></trkpt><trkpt lat="44.7184467" lon="-0.39929"><ele>52.0</ele><time>2026-04-21T17:53:56.829Z</time></trkpt><trkpt lat="44.7183417" lon="-0.3991933"><ele>50.0</ele><time>2026-04-21T17:53:57.829Z</time></trkpt><trkpt lat="44.7182333" lon="-0.3991067"><ele>50.0</ele><time>2026-04-21T17:53:58.829Z</time></trkpt><trkpt lat="44.718125" lon="-0.3990267"><ele>50.0</ele><time>2026-04-21T17:53:59.828Z</time></trkpt><trkpt lat="44.7180167" lon="-0.3989767"><ele>50.0</ele><time>2026-04-21T17:54:00.828Z</time></trkpt><trkpt lat="44.7179083" lon="-0.3989317"><ele>50.0</ele><time>2026-04-21T17:54:01.829Z</time></trkpt><trkpt lat="44.7177983" lon="-0.3988833"><ele>48.2</ele><time>2026-04-21T17:54:02.829Z</time></trkpt><trkpt lat="44.71769" lon="-0.3988217"><ele>46.4</ele><time>2026-04-21T17:54:03.829Z</time></trkpt><trkpt lat="44.7175833" lon="-0.3987783"><ele>44.599999999999994</ele><time>2026-04-21T17:54:04.829Z</time></trkpt><trkpt lat="44.71749" lon="-0.3987417"><ele>42.8</ele><time>2026-04-21T17:54:05.829Z</time></trkpt><trkpt lat="44.7173983" lon="-0.39873"><ele>41.0</ele><time>2026-04-21T17:54:06.828Z</time></trkpt><trkpt lat="44.7173083" lon="-0.3987417"><ele>41.0</ele><time>2026-04-21T17:54:07.828Z</time></trkpt><trkpt lat="44.7172317" lon="-0.3988267"><ele>41.0</ele><time>2026-04-21T17:54:08.829Z</time></trkpt><trkpt lat="44.7171767" lon="-0.398955"><ele>41.0</ele><time>2026-04-21T17:54:09.829Z</time></trkpt><trkpt lat="44.717125" lon="-0.3990917"><ele>41.0</ele><time>2026-04-21T17:54:10.829Z</time></trkpt><trkpt lat="44.717075" lon="-0.3992083"><ele>41.0</ele><time>2026-04-21T17:54:11.829Z</time></trkpt><trkpt lat="44.7170233" lon="-0.39931"><ele>41.166666666666664</ele><time>2026-04-21T17:54:12.829Z</time></trkpt><trkpt lat="44.71696" lon="-0.39938"><ele>41.33333333333333</ele><time>2026-04-21T17:54:13.829Z</time></trkpt><trkpt lat="44.7168933" lon="-0.39944"><ele>41.5</ele><time>2026-04-21T17:54:14.829Z</time></trkpt><trkpt lat="44.716815" lon="-0.399475"><ele>41.666666666666664</ele><time>2026-04-21T17:54:15.829Z</time></trkpt><trkpt lat="44.71673" lon="-0.3994833"><ele>41.833333333333336</ele><time>2026-04-21T17:54:16.829Z</time></trkpt><trkpt lat="44.7166517" lon="-0.3994533"><ele>42.0</ele><time>2026-04-21T17:54:17.829Z</time></trkpt><trkpt lat="44.7165767" lon="-0.3993983"><ele>41.0</ele><time>2026-04-21T17:54:18.829Z</time></trkpt><trkpt lat="44.71649" lon="-0.3993267"><ele>40.0</ele><time>2026-04-21T17:54:19.829Z</time></trkpt><trkpt lat="44.7163933" lon="-0.39926"><ele>39.0</ele><time>2026-04-21T17:54:20.829Z</time></trkpt><trkpt lat="44.7163017" lon="-0.3991733"><ele>38.0</ele><time>2026-04-21T17:54:21.828Z</time></trkpt><trkpt lat="44.71622" lon="-0.39907"><ele>37.0</ele><time>2026-04-21T17:54:22.829Z</time></trkpt><trkpt lat="44.716155" lon="-0.39895"><ele>36.0</ele><time>2026-04-21T17:54:23.828Z</time></trkpt><trkpt lat="44.7160983" lon="-0.3988167"><ele>35.0</ele><time>2026-04-21T17:54:24.829Z</time></trkpt><trkpt lat="44.7160533" lon="-0.3986617"><ele>34.0</ele><time>2026-04-21T17:54:25.829Z</time></trkpt><trkpt lat="44.7160017" lon="-0.3985033"><ele>33.0</ele><time>2026-04-21T17:54:26.829Z</time></trkpt><trkpt lat="44.7159517" lon="-0.3983533"><ele>32.75</ele><time>2026-04-21T17:54:27.829Z</time></trkpt><trkpt lat="44.7159033" lon="-0.3982083"><ele>32.5</ele><time>2026-04-21T17:54:28.829Z</time></trkpt><trkpt lat="44.7158467" lon="-0.398065"><ele>32.25</ele><time>2026-04-21T17:54:29.828Z</time></trkpt><trkpt lat="44.7157967" lon="-0.3979267"><ele>32.0</ele><time>2026-04-21T17:54:30.829Z</time></trkpt><trkpt lat="44.7157483" lon="-0.39778"><ele>30.25</ele><time>2026-04-21T17:54:31.829Z</time></trkpt><trkpt lat="44.7156933" lon="-0.3976333"><ele>28.5</ele><time>2026-04-21T17:54:32.829Z</time></trkpt><trkpt lat="44.7156433" lon="-0.3974867"><ele>26.75</ele><time>2026-04-21T17:54:33.829Z</time></trkpt><trkpt lat="44.7155933" lon="-0.39734"><ele>25.0</ele><time>2026-04-21T17:54:34.828Z</time></trkpt><trkpt lat="44.7155617" lon="-0.39719"><ele>24.4</ele><time>2026-04-21T17:54:35.829Z</time></trkpt><trkpt lat="44.7155367" lon="-0.3970417"><ele>23.8</ele><time>2026-04-21T17:54:36.828Z</time></trkpt><trkpt lat="44.715515" lon="-0.3968867"><ele>23.200000000000003</ele><time>2026-04-21T17:54:37.829Z</time></trkpt><trkpt lat="44.7154717" lon="-0.39676"><ele>22.6</ele><time>2026-04-21T17:54:38.829Z</time></trkpt><trkpt lat="44.715365" lon="-0.39666"><ele>22.0</ele><time>2026-04-21T17:54:39.829Z</time></trkpt><trkpt lat="44.7152617" lon="-0.3965617"><ele>21.25</ele><time>2026-04-21T17:54:40.828Z</time></trkpt><trkpt lat="44.715175" lon="-0.3964417"><ele>20.5</ele><time>2026-04-21T17:54:41.829Z</time></trkpt><trkpt lat="44.7150817" lon="-0.3963317"><ele>19.75</ele><time>2026-04-21T17:54:42.829Z</time></trkpt><trkpt lat="44.714985" lon="-0.3962133"><ele>19.0</ele><time>2026-04-21T17:54:43.828Z</time></trkpt><trkpt lat="44.71489" lon="-0.3960983"><ele>17.25</ele><time>2026-04-21T17:54:44.828Z</time></trkpt><trkpt lat="44.714795" lon="-0.39598"><ele>15.5</ele><time>2026-04-21T17:54:45.829Z</time></trkpt><trkpt lat="44.71471" lon="-0.3958667"><ele>13.75</ele><time>2026-04-21T17:54:46.829Z</time></trkpt><trkpt lat="44.71462" lon="-0.3957783"><ele>12.0</ele><time>2026-04-21T17:54:47.829Z</time></trkpt><trkpt lat="44.7145283" lon="-0.3957283"><ele>12.0</ele><time>2026-04-21T17:54:48.829Z</time></trkpt><trkpt lat="44.714435" lon="-0.3957183"><ele>12.0</ele><time>2026-04-21T17:54:49.829Z</time></trkpt><trkpt lat="44.7143483" lon="-0.3957583"><ele>12.0</ele><time>2026-04-21T17:54:50.829Z</time></trkpt><trkpt lat="44.714265" lon="-0.3958167"><ele>12.0</ele><time>2026-04-21T17:54:51.829Z</time></trkpt><trkpt lat="44.7141883" lon="-0.3958883"><ele>12.0</ele><time>2026-04-21T17:54:52.829Z</time></trkpt><trkpt lat="44.71411" lon="-0.395965"><ele>11.8</ele><time>2026-04-21T17:54:53.829Z</time></trkpt><trkpt lat="44.71403" lon="-0.39605"><ele>11.6</ele><time>2026-04-21T17:54:54.829Z</time></trkpt><trkpt lat="44.7139483" lon="-0.396125"><ele>11.4</ele><time>2026-04-21T17:54:55.828Z</time></trkpt><trkpt lat="44.7138767" lon="-0.3962183"><ele>11.200000000000001</ele><time>2026-04-21T17:54:56.829Z</time></trkpt><trkpt lat="44.713815" lon="-0.3963317"><ele>11.0</ele><time>2026-04-21T17:54:57.829Z</time></trkpt><trkpt lat="44.71377" lon="-0.396445"><ele>11.0</ele><time>2026-04-21T17:54:58.829Z</time></trkpt><trkpt lat="44.7137283" lon="-0.3965467"><ele>11.0</ele><time>2026-04-21T17:54:59.829Z</time></trkpt><trkpt lat="44.7136917" lon="-0.3966317"><ele>11.0</ele><time>2026-04-21T17:55:00.829Z</time></trkpt><trkpt lat="44.7136567" lon="-0.39672"><ele>11.0</ele><time>2026-04-21T17:55:01.828Z</time></trkpt><trkpt lat="44.71362" lon="-0.39681"><ele>11.0</ele><time>2026-04-21T17:55:02.829Z</time></trkpt><trkpt lat="44.713565" lon="-0.396905"><ele>11.0</ele><time>2026-04-21T17:55:03.829Z</time></trkpt><trkpt lat="44.7135033" lon="-0.3969883"><ele>10.666666666666666</ele><time>2026-04-21T17:55:04.829Z</time></trkpt><trkpt lat="44.7134417" lon="-0.3970633"><ele>10.333333333333332</ele><time>2026-04-21T17:55:05.828Z</time></trkpt><trkpt lat="44.7133767" lon="-0.3971333"><ele>10.0</ele><time>2026-04-21T17:55:06.829Z</time></trkpt><trkpt lat="44.7133133" lon="-0.3972017"><ele>9.666666666666666</ele><time>2026-04-21T17:55:07.829Z</time></trkpt><trkpt lat="44.7132533" lon="-0.3972683"><ele>9.333333333333334</ele><time>2026-04-21T17:55:08.828Z</time></trkpt><trkpt lat="44.7131933" lon="-0.39734"><ele>9.0</ele><time>2026-04-21T17:55:09.829Z</time></trkpt><trkpt lat="44.71314" lon="-0.39741"><ele>9.0</ele><time>2026-04-21T17:55:10.828Z</time></trkpt><trkpt lat="44.7130867" lon="-0.3974733"><ele>9.0</ele><time>2026-04-21T17:55:11.829Z</time></trkpt><trkpt lat="44.7130283" lon="-0.3975333"><ele>9.0</ele><time>2026-04-21T17:55:12.829Z</time></trkpt><trkpt lat="44.712975" lon="-0.397585"><ele>9.0</ele><time>2026-04-21T17:55:13.829Z</time></trkpt><trkpt lat="44.7128733" lon="-0.3976833"><ele>9.0</ele><time>2026-04-21T17:55:15.829Z</time></trkpt><trkpt lat="44.7127733" lon="-0.3977333"><ele>9.0</ele><time>2026-04-21T17:55:17.829Z</time></trkpt><trkpt lat="44.7126817" lon="-0.3977817"><ele>9.0</ele><time>2026-04-21T17:55:19.829Z</time></trkpt><trkpt lat="44.7126233" lon="-0.3978517"><ele>9.0</ele><time>2026-04-21T17:55:22.829Z</time></trkpt><trkpt lat="44.7127" lon="-0.3978233"><ele>9.0</ele><time>2026-04-21T17:55:27.829Z</time></trkpt><trkpt lat="44.7127667" lon="-0.397755"><ele>9.0</ele><time>2026-04-21T17:55:30.828Z</time></trkpt><trkpt lat="44.7128317" lon="-0.3977017"><ele>9.0</ele><time>2026-04-21T17:55:32.828Z</time></trkpt><trkpt lat="44.7129" lon="-0.3976317"><ele>9.0</ele><time>2026-04-21T17:55:34.828Z</time></trkpt><trkpt lat="44.7129833" lon="-0.3975517"><ele>9.0</ele><time>2026-04-21T17:55:36.828Z</time></trkpt><trkpt lat="44.71307" lon="-0.3974567"><ele>9.0</ele><time>2026-04-21T17:55:38.828Z</time></trkpt><trkpt lat="44.7131617" lon="-0.39736"><ele>9.0</ele><time>2026-04-21T17:55:40.829Z</time></trkpt><trkpt lat="44.7132517" lon="-0.397255"><ele>9.0</ele><time>2026-04-21T17:55:42.829Z</time></trkpt><trkpt lat="44.71334" lon="-0.3971583"><ele>9.333333333333334</ele><time>2026-04-21T17:55:44.829Z</time></trkpt><trkpt lat="44.7134183" lon="-0.3970683"><ele>9.666666666666666</ele><time>2026-04-21T17:55:46.829Z</time></trkpt><trkpt lat="44.713495" lon="-0.3969817"><ele>10.0</ele><time>2026-04-21T17:55:48.829Z</time></trkpt><trkpt lat="44.713555" lon="-0.3969017"><ele>10.333333333333332</ele><time>2026-04-21T17:55:50.829Z</time></trkpt><trkpt lat="44.7135983" lon="-0.3968083"><ele>10.666666666666666</ele><time>2026-04-21T17:55:52.829Z</time></trkpt><trkpt lat="44.7136117" lon="-0.3966883"><ele>11.0</ele><time>2026-04-21T17:55:54.829Z</time></trkpt><trkpt lat="44.7135683" lon="-0.396585"><ele>10.0</ele><time>2026-04-21T17:55:56.829Z</time></trkpt><trkpt lat="44.7135" lon="-0.3965"><ele>9.0</ele><time>2026-04-21T17:55:58.829Z</time></trkpt><trkpt lat="44.7134267" lon="-0.3963883"><ele>8.0</ele><time>2026-04-21T17:56:00.829Z</time></trkpt><trkpt lat="44.71335" lon="-0.3962817"><ele>7.0</ele><time>2026-04-21T17:56:02.829Z</time></trkpt><trkpt lat="44.7132817" lon="-0.3961717"><ele>6.0</ele><time>2026-04-21T17:56:04.829Z</time></trkpt><trkpt lat="44.7131817" lon="-0.3960833"><ele>6.0</ele><time>2026-04-21T17:56:06.829Z</time></trkpt><trkpt lat="44.7130867" lon="-0.3960767"><ele>6.0</ele><time>2026-04-21T17:56:08.829Z</time></trkpt><trkpt lat="44.7129933" lon="-0.396105"><ele>6.0</ele><time>2026-04-21T17:56:10.829Z</time></trkpt><trkpt lat="44.7129367" lon="-0.3962167"><ele>6.0</ele><time>2026-04-21T17:56:12.829Z</time></trkpt><trkpt lat="44.7128817" lon="-0.3963267"><ele>6.0</ele><time>2026-04-21T17:56:14.829Z</time></trkpt><trkpt lat="44.7128233" lon="-0.3964417"><ele>6.0</ele><time>2026-04-21T17:56:16.829Z</time></trkpt><trkpt lat="44.71275" lon="-0.3965317"><ele>6.0</ele><time>2026-04-21T17:56:18.829Z</time></trkpt><trkpt lat="44.712675" lon="-0.396605"><ele>6.0</ele><time>2026-04-21T17:56:20.829Z</time></trkpt><trkpt lat="44.7125767" lon="-0.3966617"><ele>6.0</ele><time>2026-04-21T17:56:22.828Z</time></trkpt><trkpt lat="44.712475" lon="-0.3967267"><ele>6.0</ele><time>2026-04-21T17:56:24.829Z</time></trkpt><trkpt lat="44.71237" lon="-0.396795"><ele>6.5</ele><time>2026-04-21T17:56:26.829Z</time></trkpt><trkpt lat="44.712265" lon="-0.3968667"><ele>7.0</ele><time>2026-04-21T17:56:28.829Z</time></trkpt><trkpt lat="44.7121667" lon="-0.3969433"><ele>7.5</ele><time>2026-04-21T17:56:30.828Z</time></trkpt><trkpt lat="44.712065" lon="-0.397015"><ele>8.0</ele><time>2026-04-21T17:56:32.827Z</time></trkpt><trkpt lat="44.7119633" lon="-0.39709"><ele>7.75</ele><time>2026-04-21T17:56:34.828Z</time></trkpt><trkpt lat="44.7118583" lon="-0.3971817"><ele>7.5</ele><time>2026-04-21T17:56:36.828Z</time></trkpt><trkpt lat="44.7117583" lon="-0.3972767"><ele>7.25</ele><time>2026-04-21T17:56:38.828Z</time></trkpt><trkpt lat="44.7116567" lon="-0.3973717"><ele>7.0</ele><time>2026-04-21T17:56:40.828Z</time></trkpt><trkpt lat="44.7115517" lon="-0.397455"><ele>7.0</ele><time>2026-04-21T17:56:42.828Z</time></trkpt><trkpt lat="44.7114567" lon="-0.3975517"><ele>7.0</ele><time>2026-04-21T17:56:44.828Z</time></trkpt><trkpt lat="44.711355" lon="-0.397655"><ele>7.0</ele><time>2026-04-21T17:56:46.827Z</time></trkpt><trkpt lat="44.7113" lon="-0.3977017"><ele>7.0</ele><time>2026-04-21T17:56:47.828Z</time></trkpt><trkpt lat="44.71116" lon="-0.3978483"><ele>7.199999999999999</ele><time>2026-04-21T17:56:50.828Z</time></trkpt><trkpt lat="44.7110733" lon="-0.3979467"><ele>7.3999999999999995</ele><time>2026-04-21T17:56:52.828Z</time></trkpt><trkpt lat="44.7109817" lon="-0.398045"><ele>7.6000000000000005</ele><time>2026-04-21T17:56:54.828Z</time></trkpt><trkpt lat="44.7108883" lon="-0.3981567"><ele>7.800000000000001</ele><time>2026-04-21T17:56:56.828Z</time></trkpt><trkpt lat="44.7108417" lon="-0.3982183"><ele>8.0</ele><time>2026-04-21T17:56:57.827Z</time></trkpt><trkpt lat="44.710755" lon="-0.398345"><ele>8.0</ele><time>2026-04-21T17:56:59.828Z</time></trkpt><trkpt lat="44.710705" lon="-0.3984167"><ele>7.999999999999999</ele><time>2026-04-21T17:57:00.827Z</time></trkpt><trkpt lat="44.7106633" lon="-0.3984983"><ele>8.0</ele><time>2026-04-21T17:57:01.828Z</time></trkpt><trkpt lat="44.7106217" lon="-0.3985767"><ele>8.0</ele><time>2026-04-21T17:57:02.827Z</time></trkpt><trkpt lat="44.710585" lon="-0.3986617"><ele>7.999999999999999</ele><time>2026-04-21T17:57:03.828Z</time></trkpt><trkpt lat="44.710545" lon="-0.3987383"><ele>8.0</ele><time>2026-04-21T17:57:04.828Z</time></trkpt><trkpt lat="44.7105017" lon="-0.3988167"><ele>8.0</ele><time>2026-04-21T17:57:05.828Z</time></trkpt><trkpt lat="44.71046" lon="-0.3988917"><ele>8.0</ele><time>2026-04-21T17:57:06.828Z</time></trkpt><trkpt lat="44.7104233" lon="-0.398975"><ele>8.0</ele><time>2026-04-21T17:57:07.828Z</time></trkpt><trkpt lat="44.7103867" lon="-0.3990517"><ele>8.0</ele><time>2026-04-21T17:57:08.828Z</time></trkpt><trkpt lat="44.71032" lon="-0.3991983"><ele>8.0</ele><time>2026-04-21T17:57:10.828Z</time></trkpt><trkpt lat="44.7102433" lon="-0.3993267"><ele>8.0</ele><time>2026-04-21T17:57:12.828Z</time></trkpt><trkpt lat="44.7101633" lon="-0.399455"><ele>7.833333333333333</ele><time>2026-04-21T17:57:14.827Z</time></trkpt><trkpt lat="44.710075" lon="-0.399575"><ele>7.666666666666666</ele><time>2026-04-21T17:57:16.828Z</time></trkpt><trkpt lat="44.7100233" lon="-0.3996333"><ele>7.5</ele><time>2026-04-21T17:57:17.827Z</time></trkpt><trkpt lat="44.7099667" lon="-0.3996817"><ele>7.333333333333334</ele><time>2026-04-21T17:57:18.828Z</time></trkpt><trkpt lat="44.7099167" lon="-0.3997367"><ele>7.166666666666667</ele><time>2026-04-21T17:57:19.828Z</time></trkpt><trkpt lat="44.709865" lon="-0.3997967"><ele>7.0</ele><time>2026-04-21T17:57:20.828Z</time></trkpt><trkpt lat="44.709815" lon="-0.3998617"><ele>7.000000000000001</ele><time>2026-04-21T17:57:21.828Z</time></trkpt><trkpt lat="44.709725" lon="-0.39997"><ele>7.0</ele><time>2026-04-21T17:57:23.827Z</time></trkpt><trkpt lat="44.7096733" lon="-0.400035"><ele>7.0</ele><time>2026-04-21T17:57:24.828Z</time></trkpt><trkpt lat="44.7096233" lon="-0.4001067"><ele>7.0</ele><time>2026-04-21T17:57:25.828Z</time></trkpt><trkpt lat="44.7095667" lon="-0.4001667"><ele>7.000000000000001</ele><time>2026-04-21T17:57:26.828Z</time></trkpt><trkpt lat="44.7095083" lon="-0.40023"><ele>7.0</ele><time>2026-04-21T17:57:27.828Z</time></trkpt><trkpt lat="44.7094567" lon="-0.400285"><ele>7.3999999999999995</ele><time>2026-04-21T17:57:28.828Z</time></trkpt><trkpt lat="44.7093533" lon="-0.4003817"><ele>7.799999999999999</ele><time>2026-04-21T17:57:30.828Z</time></trkpt><trkpt lat="44.7092983" lon="-0.40043"><ele>8.2</ele><time>2026-04-21T17:57:31.828Z</time></trkpt><trkpt lat="44.7092467" lon="-0.4004817"><ele>8.6</ele><time>2026-04-21T17:57:32.828Z</time></trkpt><trkpt lat="44.70914" lon="-0.4005617"><ele>9.0</ele><time>2026-04-21T17:57:34.828Z</time></trkpt><trkpt lat="44.709035" lon="-0.4006483"><ele>9.0</ele><time>2026-04-21T17:57:36.827Z</time></trkpt><trkpt lat="44.7089383" lon="-0.4007167"><ele>9.0</ele><time>2026-04-21T17:57:38.828Z</time></trkpt><trkpt lat="44.7088367" lon="-0.400765"><ele>9.0</ele><time>2026-04-21T17:57:40.828Z</time></trkpt><trkpt lat="44.7087533" lon="-0.40078"><ele>9.0</ele><time>2026-04-21T17:57:42.828Z</time></trkpt><trkpt lat="44.70869" lon="-0.4008383"><ele>9.0</ele><time>2026-04-21T17:57:45.828Z</time></trkpt><trkpt lat="44.7086467" lon="-0.40091"><ele>9.0</ele><time>2026-04-21T17:57:48.828Z</time></trkpt><trkpt lat="44.70857" lon="-0.400945"><ele>9.666666666666666</ele><time>2026-04-21T17:57:51.828Z</time></trkpt><trkpt lat="44.7085067" lon="-0.4009733"><ele>10.333333333333332</ele><time>2026-04-21T17:57:53.827Z</time></trkpt><trkpt lat="44.7084383" lon="-0.4010083"><ele>11.0</ele><time>2026-04-21T17:57:55.828Z</time></trkpt><trkpt lat="44.7083667" lon="-0.4010383"><ele>11.666666666666666</ele><time>2026-04-21T17:57:57.828Z</time></trkpt><trkpt lat="44.7082917" lon="-0.40108"><ele>12.333333333333332</ele><time>2026-04-21T17:57:59.828Z</time></trkpt><trkpt lat="44.7082017" lon="-0.401125"><ele>13.0</ele><time>2026-04-21T17:58:01.827Z</time></trkpt><trkpt lat="44.7081317" lon="-0.401165"><ele>12.999999999999998</ele><time>2026-04-21T17:58:03.828Z</time></trkpt><trkpt lat="44.708025" lon="-0.4011817"><ele>13.0</ele><time>2026-04-21T17:58:05.828Z</time></trkpt><trkpt lat="44.7079283" lon="-0.401195"><ele>13.0</ele><time>2026-04-21T17:58:07.828Z</time></trkpt><trkpt lat="44.7078367" lon="-0.4012433"><ele>13.0</ele><time>2026-04-21T17:58:09.828Z</time></trkpt><trkpt lat="44.7077783" lon="-0.4012967"><ele>12.999999999999998</ele><time>2026-04-21T17:58:10.828Z</time></trkpt><trkpt lat="44.70772" lon="-0.4013317"><ele>13.0</ele><time>2026-04-21T17:58:11.827Z</time></trkpt><trkpt lat="44.707605" lon="-0.4013833"><ele>12.0</ele><time>2026-04-21T17:58:13.828Z</time></trkpt><trkpt lat="44.707485" lon="-0.4014217"><ele>11.0</ele><time>2026-04-21T17:58:15.828Z</time></trkpt><trkpt lat="44.707375" lon="-0.401445"><ele>10.0</ele><time>2026-04-21T17:58:17.828Z</time></trkpt><trkpt lat="44.7072633" lon="-0.4014517"><ele>9.0</ele><time>2026-04-21T17:58:19.828Z</time></trkpt><trkpt lat="44.7071833" lon="-0.4014633"><ele>8.0</ele><time>2026-04-21T17:58:21.828Z</time></trkpt><trkpt lat="44.7070867" lon="-0.40143"><ele>8.0</ele><time>2026-04-21T17:58:23.828Z</time></trkpt><trkpt lat="44.70698" lon="-0.4013817"><ele>8.0</ele><time>2026-04-21T17:58:25.827Z</time></trkpt><trkpt lat="44.70688" lon="-0.4013083"><ele>8.0</ele><time>2026-04-21T17:58:27.828Z</time></trkpt><trkpt lat="44.7067983" lon="-0.401255"><ele>8.0</ele><time>2026-04-21T17:58:29.827Z</time></trkpt><trkpt lat="44.7067217" lon="-0.4011817"><ele>8.0</ele><time>2026-04-21T17:58:31.828Z</time></trkpt><trkpt lat="44.7066517" lon="-0.4011"><ele>9.0</ele><time>2026-04-21T17:58:33.828Z</time></trkpt><trkpt lat="44.706575" lon="-0.401"><ele>10.0</ele><time>2026-04-21T17:58:35.828Z</time></trkpt><trkpt lat="44.7065" lon="-0.4009083"><ele>11.0</ele><time>2026-04-21T17:58:37.827Z</time></trkpt><trkpt lat="44.7064233" lon="-0.40082"><ele>12.0</ele><time>2026-04-21T17:58:39.828Z</time></trkpt><trkpt lat="44.7063367" lon="-0.4007333"><ele>13.0</ele><time>2026-04-21T17:58:41.828Z</time></trkpt><trkpt lat="44.7062517" lon="-0.4006467"><ele>13.0</ele><time>2026-04-21T17:58:43.828Z</time></trkpt><trkpt lat="44.7061667" lon="-0.40058"><ele>13.0</ele><time>2026-04-21T17:58:45.828Z</time></trkpt><trkpt lat="44.706075" lon="-0.4004983"><ele>13.0</ele><time>2026-04-21T17:58:47.828Z</time></trkpt><trkpt lat="44.7059983" lon="-0.400385"><ele>13.0</ele><time>2026-04-21T17:58:49.828Z</time></trkpt><trkpt lat="44.7059283" lon="-0.40028"><ele>13.0</ele><time>2026-04-21T17:58:51.828Z</time></trkpt><trkpt lat="44.7058617" lon="-0.400165"><ele>12.666666666666666</ele><time>2026-04-21T17:58:53.828Z</time></trkpt><trkpt lat="44.7058033" lon="-0.4000467"><ele>12.333333333333332</ele><time>2026-04-21T17:58:55.828Z</time></trkpt><trkpt lat="44.7057533" lon="-0.3999733"><ele>12.0</ele><time>2026-04-21T17:58:57.828Z</time></trkpt><trkpt lat="44.70568" lon="-0.3999717"><ele>11.666666666666666</ele><time>2026-04-21T17:58:59.828Z</time></trkpt><trkpt lat="44.7056" lon="-0.4000083"><ele>11.333333333333332</ele><time>2026-04-21T17:59:01.828Z</time></trkpt><trkpt lat="44.7055167" lon="-0.4000683"><ele>11.0</ele><time>2026-04-21T17:59:04.828Z</time></trkpt><trkpt lat="44.7054533" lon="-0.4001133"><ele>11.0</ele><time>2026-04-21T17:59:07.828Z</time></trkpt><trkpt lat="44.7053783" lon="-0.4001533"><ele>11.0</ele><time>2026-04-21T17:59:10.828Z</time></trkpt><trkpt lat="44.70531" lon="-0.4002067"><ele>11.0</ele><time>2026-04-21T17:59:12.828Z</time></trkpt><trkpt lat="44.7052283" lon="-0.4002667"><ele>11.0</ele><time>2026-04-21T17:59:15.828Z</time></trkpt><trkpt lat="44.7051517" lon="-0.4003317"><ele>11.0</ele><time>2026-04-21T17:59:18.828Z</time></trkpt><trkpt lat="44.7050833" lon="-0.4003833"><ele>11.0</ele><time>2026-04-21T17:59:21.828Z</time></trkpt><trkpt lat="44.705015" lon="-0.40043"><ele>9.833333333333332</ele><time>2026-04-21T17:59:24.828Z</time></trkpt><trkpt lat="44.7049467" lon="-0.400475"><ele>8.666666666666666</ele><time>2026-04-21T17:59:27.827Z</time></trkpt><trkpt lat="44.7048817" lon="-0.40051"><ele>7.5</ele><time>2026-04-21T17:59:30.828Z</time></trkpt><trkpt lat="44.7048267" lon="-0.4005583"><ele>6.333333333333333</ele><time>2026-04-21T17:59:33.828Z</time></trkpt><trkpt lat="44.70474" lon="-0.4006333"><ele>5.166666666666666</ele><time>2026-04-21T18:00:38.828Z</time></trkpt><trkpt lat="44.70468" lon="-0.400685"><ele>4.0</ele><time>2026-04-21T18:00:41.828Z</time></trkpt><trkpt lat="44.704595" lon="-0.4007467"><ele>3.4000000000000004</ele><time>2026-04-21T18:00:44.828Z</time></trkpt><trkpt lat="44.7045267" lon="-0.4008017"><ele>2.8000000000000003</ele><time>2026-04-21T18:00:46.828Z</time></trkpt><trkpt lat="44.7044433" lon="-0.4008533"><ele>2.2</ele><time>2026-04-21T18:00:48.828Z</time></trkpt><trkpt lat="44.7043633" lon="-0.400915"><ele>1.6</ele><time>2026-04-21T18:00:50.828Z</time></trkpt><trkpt lat="44.7042567" lon="-0.400995"><ele>1.0</ele><time>2026-04-21T18:00:52.828Z</time></trkpt><trkpt lat="44.7041617" lon="-0.401075"><ele>0.9999999999999999</ele><time>2026-04-21T18:00:54.828Z</time></trkpt><trkpt lat="44.7040617" lon="-0.401145"><ele>1.0</ele><time>2026-04-21T18:00:56.827Z</time></trkpt><trkpt lat="44.7040033" lon="-0.401185"><ele>1.0</ele><time>2026-04-21T18:00:57.827Z</time></trkpt><trkpt lat="44.703935" lon="-0.40122"><ele>1.0</ele><time>2026-04-21T18:00:58.828Z</time></trkpt><trkpt lat="44.7038733" lon="-0.4012633"><ele>0.9999999999999999</ele><time>2026-04-21T18:00:59.828Z</time></trkpt><trkpt lat="44.7038083" lon="-0.40132"><ele>1.0</ele><time>2026-04-21T18:01:00.828Z</time></trkpt><trkpt lat="44.7037317" lon="-0.4013817"><ele>1.2000000000000002</ele><time>2026-04-21T18:01:01.828Z</time></trkpt><trkpt lat="44.7036583" lon="-0.4014417"><ele>1.4000000000000001</ele><time>2026-04-21T18:01:02.828Z</time></trkpt><trkpt lat="44.7035767" lon="-0.401505"><ele>1.6</ele><time>2026-04-21T18:01:03.828Z</time></trkpt><trkpt lat="44.7034917" lon="-0.4015667"><ele>1.8</ele><time>2026-04-21T18:01:04.828Z</time></trkpt><trkpt lat="44.7034117" lon="-0.4016283"><ele>2.0</ele><time>2026-04-21T18:01:05.828Z</time></trkpt><trkpt lat="44.70333" lon="-0.4016933"><ele>2.4000000000000004</ele><time>2026-04-21T18:01:06.828Z</time></trkpt><trkpt lat="44.70325" lon="-0.4017617"><ele>2.8000000000000003</ele><time>2026-04-21T18:01:07.828Z</time></trkpt><trkpt lat="44.7031667" lon="-0.4018183"><ele>3.2</ele><time>2026-04-21T18:01:08.828Z</time></trkpt><trkpt lat="44.703085" lon="-0.4018783"><ele>3.6</ele><time>2026-04-21T18:01:09.828Z</time></trkpt><trkpt lat="44.7030033" lon="-0.4019383"><ele>4.0</ele><time>2026-04-21T18:01:10.828Z</time></trkpt><trkpt lat="44.7029183" lon="-0.40201"><ele>4.0</ele><time>2026-04-21T18:01:11.827Z</time></trkpt><trkpt lat="44.702835" lon="-0.4020717"><ele>4.0</ele><time>2026-04-21T18:01:12.828Z</time></trkpt><trkpt lat="44.702755" lon="-0.402135"><ele>4.0</ele><time>2026-04-21T18:01:13.827Z</time></trkpt><trkpt lat="44.7026733" lon="-0.4021983"><ele>4.0</ele><time>2026-04-21T18:01:14.827Z</time></trkpt><trkpt lat="44.7025917" lon="-0.4022533"><ele>4.0</ele><time>2026-04-21T18:01:15.826Z</time></trkpt><trkpt lat="44.7025133" lon="-0.40232"><ele>4.2</ele><time>2026-04-21T18:01:16.826Z</time></trkpt><trkpt lat="44.7024333" lon="-0.4023833"><ele>4.4</ele><time>2026-04-21T18:01:17.827Z</time></trkpt><trkpt lat="44.702355" lon="-0.4024467"><ele>4.6</ele><time>2026-04-21T18:01:18.826Z</time></trkpt><trkpt lat="44.7022767" lon="-0.402515"><ele>4.8</ele><time>2026-04-21T18:01:19.826Z</time></trkpt><trkpt lat="44.7022" lon="-0.4025717"><ele>5.0</ele><time>2026-04-21T18:01:20.827Z</time></trkpt><trkpt lat="44.70212" lon="-0.4026317"><ele>5.0</ele><time>2026-04-21T18:01:21.827Z</time></trkpt><trkpt lat="44.7020383" lon="-0.40269"><ele>5.0</ele><time>2026-04-21T18:01:22.827Z</time></trkpt><trkpt lat="44.70196" lon="-0.4027533"><ele>5.0</ele><time>2026-04-21T18:01:23.827Z</time></trkpt><trkpt lat="44.70188" lon="-0.4028083"><ele>5.0</ele><time>2026-04-21T18:01:24.826Z</time></trkpt><trkpt lat="44.7017967" lon="-0.4028617"><ele>5.0</ele><time>2026-04-21T18:01:25.826Z</time></trkpt><trkpt lat="44.7017217" lon="-0.4029167"><ele>5.0</ele><time>2026-04-21T18:01:26.827Z</time></trkpt><trkpt lat="44.7016483" lon="-0.4029767"><ele>4.666666666666667</ele><time>2026-04-21T18:01:27.827Z</time></trkpt><trkpt lat="44.7015717" lon="-0.403035"><ele>4.333333333333334</ele><time>2026-04-21T18:01:28.826Z</time></trkpt><trkpt lat="44.7014967" lon="-0.4030933"><ele>4.0</ele><time>2026-04-21T18:01:29.827Z</time></trkpt><trkpt lat="44.701425" lon="-0.4031483"><ele>3.666666666666667</ele><time>2026-04-21T18:01:30.827Z</time></trkpt><trkpt lat="44.70135" lon="-0.4032033"><ele>3.3333333333333335</ele><time>2026-04-21T18:01:31.826Z</time></trkpt><trkpt lat="44.701275" lon="-0.4032533"><ele>3.0</ele><time>2026-04-21T18:01:32.826Z</time></trkpt><trkpt lat="44.7012033" lon="-0.403305"><ele>3.0</ele><time>2026-04-21T18:01:33.827Z</time></trkpt><trkpt lat="44.701135" lon="-0.4033617"><ele>3.0</ele><time>2026-04-21T18:01:34.827Z</time></trkpt><trkpt lat="44.70107" lon="-0.4034383"><ele>3.0</ele><time>2026-04-21T18:01:35.826Z</time></trkpt><trkpt lat="44.7010167" lon="-0.4035267"><ele>3.0</ele><time>2026-04-21T18:01:36.827Z</time></trkpt><trkpt lat="44.70097" lon="-0.4036217"><ele>3.0</ele><time>2026-04-21T18:01:37.827Z</time></trkpt><trkpt lat="44.7009317" lon="-0.40372"><ele>3.0</ele><time>2026-04-21T18:01:38.827Z</time></trkpt><trkpt lat="44.700905" lon="-0.403825"><ele>3.3333333333333335</ele><time>2026-04-21T18:01:39.827Z</time></trkpt><trkpt lat="44.7008867" lon="-0.4039367"><ele>3.666666666666667</ele><time>2026-04-21T18:01:40.827Z</time></trkpt><trkpt lat="44.7008783" lon="-0.4040483"><ele>4.0</ele><time>2026-04-21T18:01:41.826Z</time></trkpt><trkpt lat="44.7008733" lon="-0.4041583"><ele>4.333333333333334</ele><time>2026-04-21T18:01:42.827Z</time></trkpt><trkpt lat="44.7008783" lon="-0.4042667"><ele>4.666666666666667</ele><time>2026-04-21T18:01:43.827Z</time></trkpt><trkpt lat="44.7008933" lon="-0.4043733"><ele>5.0</ele><time>2026-04-21T18:01:44.826Z</time></trkpt><trkpt lat="44.70091" lon="-0.4044883"><ele>5.0</ele><time>2026-04-21T18:01:45.827Z</time></trkpt><trkpt lat="44.7009317" lon="-0.4045983"><ele>5.0</ele><time>2026-04-21T18:01:46.827Z</time></trkpt><trkpt lat="44.700955" lon="-0.40471"><ele>5.0</ele><time>2026-04-21T18:01:47.827Z</time></trkpt><trkpt lat="44.7009783" lon="-0.4048233"><ele>5.0</ele><time>2026-04-21T18:01:48.827Z</time></trkpt><trkpt lat="44.7010033" lon="-0.40493"><ele>5.0</ele><time>2026-04-21T18:01:49.827Z</time></trkpt><trkpt lat="44.7010283" lon="-0.4050383"><ele>5.0</ele><time>2026-04-21T18:01:50.827Z</time></trkpt><trkpt lat="44.7010533" lon="-0.405145"><ele>4.833333333333334</ele><time>2026-04-21T18:01:51.827Z</time></trkpt><trkpt lat="44.701075" lon="-0.4052533"><ele>4.666666666666667</ele><time>2026-04-21T18:01:52.827Z</time></trkpt><trkpt lat="44.7011" lon="-0.4053567"><ele>4.5</ele><time>2026-04-21T18:01:53.826Z</time></trkpt><trkpt lat="44.7011217" lon="-0.4054617"><ele>4.333333333333333</ele><time>2026-04-21T18:01:54.827Z</time></trkpt><trkpt lat="44.7011417" lon="-0.4055683"><ele>4.166666666666666</ele><time>2026-04-21T18:01:55.826Z</time></trkpt><trkpt lat="44.7011633" lon="-0.4056767"><ele>4.0</ele><time>2026-04-21T18:01:56.826Z</time></trkpt><trkpt lat="44.701185" lon="-0.4057833"><ele>3.9999999999999996</ele><time>2026-04-21T18:01:57.826Z</time></trkpt><trkpt lat="44.7012083" lon="-0.4058917"><ele>4.0</ele><time>2026-04-21T18:01:58.827Z</time></trkpt><trkpt lat="44.70123" lon="-0.4059967"><ele>4.0</ele><time>2026-04-21T18:01:59.826Z</time></trkpt><trkpt lat="44.7012517" lon="-0.406105"><ele>4.0</ele><time>2026-04-21T18:02:00.827Z</time></trkpt><trkpt lat="44.7012767" lon="-0.406215"><ele>3.9999999999999996</ele><time>2026-04-21T18:02:01.827Z</time></trkpt><trkpt lat="44.7012967" lon="-0.406325"><ele>4.0</ele><time>2026-04-21T18:02:02.827Z</time></trkpt><trkpt lat="44.7013183" lon="-0.4064367"><ele>3.9999999999999996</ele><time>2026-04-21T18:02:03.827Z</time></trkpt><trkpt lat="44.70134" lon="-0.40654"><ele>4.0</ele><time>2026-04-21T18:02:04.827Z</time></trkpt><trkpt lat="44.70136" lon="-0.406645"><ele>4.0</ele><time>2026-04-21T18:02:05.827Z</time></trkpt><trkpt lat="44.7013833" lon="-0.4067483"><ele>4.0</ele><time>2026-04-21T18:02:06.827Z</time></trkpt><trkpt lat="44.7014033" lon="-0.4068517"><ele>3.9999999999999996</ele><time>2026-04-21T18:02:07.826Z</time></trkpt><trkpt lat="44.701415" lon="-0.4069617"><ele>4.0</ele><time>2026-04-21T18:02:08.827Z</time></trkpt><trkpt lat="44.7014283" lon="-0.407065"><ele>3.833333333333333</ele><time>2026-04-21T18:02:09.826Z</time></trkpt><trkpt lat="44.70144" lon="-0.4071717"><ele>3.6666666666666665</ele><time>2026-04-21T18:02:10.827Z</time></trkpt><trkpt lat="44.7014567" lon="-0.40728"><ele>3.5</ele><time>2026-04-21T18:02:11.827Z</time></trkpt><trkpt lat="44.70147" lon="-0.4073867"><ele>3.333333333333333</ele><time>2026-04-21T18:02:12.827Z</time></trkpt><trkpt lat="44.7014817" lon="-0.4075033"><ele>3.1666666666666665</ele><time>2026-04-21T18:02:13.826Z</time></trkpt><trkpt lat="44.7015" lon="-0.4076167"><ele>3.0</ele><time>2026-04-21T18:02:14.827Z</time></trkpt><trkpt lat="44.7015117" lon="-0.4077333"><ele>3.0</ele><time>2026-04-21T18:02:15.827Z</time></trkpt><trkpt lat="44.7015217" lon="-0.407845"><ele>3.0</ele><time>2026-04-21T18:02:16.826Z</time></trkpt><trkpt lat="44.7015283" lon="-0.4079583"><ele>3.0</ele><time>2026-04-21T18:02:17.826Z</time></trkpt><trkpt lat="44.7015367" lon="-0.4080717"><ele>3.0</ele><time>2026-04-21T18:02:18.827Z</time></trkpt><trkpt lat="44.7015483" lon="-0.4081833"><ele>3.0</ele><time>2026-04-21T18:02:19.827Z</time></trkpt><trkpt lat="44.7015617" lon="-0.4083"><ele>3.0</ele><time>2026-04-21T18:02:20.826Z</time></trkpt><trkpt lat="44.701575" lon="-0.4084117"><ele>3.0</ele><time>2026-04-21T18:02:21.827Z</time></trkpt><trkpt lat="44.7015817" lon="-0.4085283"><ele>3.0</ele><time>2026-04-21T18:02:22.827Z</time></trkpt><trkpt lat="44.701595" lon="-0.4086383"><ele>3.0</ele><time>2026-04-21T18:02:23.826Z</time></trkpt><trkpt lat="44.701605" lon="-0.40875"><ele>3.0</ele><time>2026-04-21T18:02:24.827Z</time></trkpt><trkpt lat="44.7016217" lon="-0.4088533"><ele>3.0</ele><time>2026-04-21T18:02:25.827Z</time></trkpt><trkpt lat="44.70163" lon="-0.4089533"><ele>3.0</ele><time>2026-04-21T18:02:26.827Z</time></trkpt><trkpt lat="44.7016417" lon="-0.4090617"><ele>3.0</ele><time>2026-04-21T18:02:27.827Z</time></trkpt><trkpt lat="44.7016467" lon="-0.40917"><ele>3.0</ele><time>2026-04-21T18:02:28.826Z</time></trkpt><trkpt lat="44.7016517" lon="-0.40928"><ele>3.0</ele><time>2026-04-21T18:02:29.827Z</time></trkpt><trkpt lat="44.70166" lon="-0.4093917"><ele>3.0</ele><time>2026-04-21T18:02:30.826Z</time></trkpt><trkpt lat="44.7016633" lon="-0.409505"><ele>3.0</ele><time>2026-04-21T18:02:31.827Z</time></trkpt><trkpt lat="44.7016683" lon="-0.40961"><ele>3.0</ele><time>2026-04-21T18:02:32.827Z</time></trkpt><trkpt lat="44.7016733" lon="-0.4097183"><ele>3.0</ele><time>2026-04-21T18:02:33.826Z</time></trkpt><trkpt lat="44.7016733" lon="-0.40983"><ele>3.0</ele><time>2026-04-21T18:02:34.826Z</time></trkpt><trkpt lat="44.7016717" lon="-0.4099433"><ele>3.0</ele><time>2026-04-21T18:02:35.827Z</time></trkpt><trkpt lat="44.7016683" lon="-0.41006"><ele>3.0</ele><time>2026-04-21T18:02:36.826Z</time></trkpt><trkpt lat="44.7016683" lon="-0.4101767"><ele>3.0</ele><time>2026-04-21T18:02:37.827Z</time></trkpt><trkpt lat="44.7016617" lon="-0.4102833"><ele>3.0</ele><time>2026-04-21T18:02:38.827Z</time></trkpt><trkpt lat="44.7016583" lon="-0.4103983"><ele>3.1666666666666665</ele><time>2026-04-21T18:02:39.827Z</time></trkpt><trkpt lat="44.70165" lon="-0.41051"><ele>3.333333333333333</ele><time>2026-04-21T18:02:40.827Z</time></trkpt><trkpt lat="44.70164" lon="-0.4106233"><ele>3.5</ele><time>2026-04-21T18:02:41.826Z</time></trkpt><trkpt lat="44.7016283" lon="-0.4107283"><ele>3.6666666666666665</ele><time>2026-04-21T18:02:42.827Z</time></trkpt><trkpt lat="44.7016133" lon="-0.4108367"><ele>3.833333333333333</ele><time>2026-04-21T18:02:43.827Z</time></trkpt><trkpt lat="44.70161" lon="-0.4109483"><ele>4.0</ele><time>2026-04-21T18:02:44.827Z</time></trkpt><trkpt lat="44.7016" lon="-0.4110533"><ele>3.9999999999999996</ele><time>2026-04-21T18:02:45.826Z</time></trkpt><trkpt lat="44.701585" lon="-0.4111617"><ele>4.0</ele><time>2026-04-21T18:02:46.827Z</time></trkpt><trkpt lat="44.70157" lon="-0.4112667"><ele>4.0</ele><time>2026-04-21T18:02:47.827Z</time></trkpt><trkpt lat="44.7015517" lon="-0.41137"><ele>4.0</ele><time>2026-04-21T18:02:48.827Z</time></trkpt><trkpt lat="44.70153" lon="-0.4114733"><ele>3.9999999999999996</ele><time>2026-04-21T18:02:49.827Z</time></trkpt><trkpt lat="44.7015067" lon="-0.41157"><ele>4.0</ele><time>2026-04-21T18:02:50.827Z</time></trkpt><trkpt lat="44.7014833" lon="-0.411665"><ele>3.9999999999999996</ele><time>2026-04-21T18:02:51.827Z</time></trkpt><trkpt lat="44.7014533" lon="-0.41176"><ele>4.0</ele><time>2026-04-21T18:02:52.826Z</time></trkpt><trkpt lat="44.7014267" lon="-0.41186"><ele>4.0</ele><time>2026-04-21T18:02:53.827Z</time></trkpt><trkpt lat="44.7014033" lon="-0.4119583"><ele>4.0</ele><time>2026-04-21T18:02:54.827Z</time></trkpt><trkpt lat="44.7013733" lon="-0.412055"><ele>3.9999999999999996</ele><time>2026-04-21T18:02:55.827Z</time></trkpt><trkpt lat="44.701345" lon="-0.4121567"><ele>4.0</ele><time>2026-04-21T18:02:56.826Z</time></trkpt><trkpt lat="44.7013133" lon="-0.412255"><ele>3.9999999999999996</ele><time>2026-04-21T18:02:57.827Z</time></trkpt><trkpt lat="44.7012833" lon="-0.412355"><ele>4.0</ele><time>2026-04-21T18:02:58.827Z</time></trkpt><trkpt lat="44.70125" lon="-0.4124533"><ele>4.0</ele><time>2026-04-21T18:02:59.827Z</time></trkpt><trkpt lat="44.7012183" lon="-0.4125517"><ele>4.0</ele><time>2026-04-21T18:03:00.826Z</time></trkpt><trkpt lat="44.7011833" lon="-0.4126417"><ele>3.9999999999999996</ele><time>2026-04-21T18:03:01.826Z</time></trkpt><trkpt lat="44.7011417" lon="-0.4127283"><ele>4.0</ele><time>2026-04-21T18:03:02.826Z</time></trkpt><trkpt lat="44.7011" lon="-0.4128117"><ele>3.8571428571428568</ele><time>2026-04-21T18:03:03.827Z</time></trkpt><trkpt lat="44.7010467" lon="-0.4128883"><ele>3.714285714285714</ele><time>2026-04-21T18:03:04.827Z</time></trkpt><trkpt lat="44.700995" lon="-0.41295"><ele>3.571428571428571</ele><time>2026-04-21T18:03:05.827Z</time></trkpt><trkpt lat="44.7009367" lon="-0.413"><ele>3.4285714285714284</ele><time>2026-04-21T18:03:06.827Z</time></trkpt><trkpt lat="44.7008633" lon="-0.4130333"><ele>3.2857142857142856</ele><time>2026-04-21T18:03:07.827Z</time></trkpt><trkpt lat="44.700795" lon="-0.413065"><ele>3.1428571428571423</ele><time>2026-04-21T18:03:08.827Z</time></trkpt><trkpt lat="44.700725" lon="-0.4130917"><ele>3.0</ele><time>2026-04-21T18:03:09.827Z</time></trkpt><trkpt lat="44.700655" lon="-0.4131133"><ele>2.9999999999999996</ele><time>2026-04-21T18:03:10.827Z</time></trkpt><trkpt lat="44.7005867" lon="-0.4131333"><ele>3.0</ele><time>2026-04-21T18:03:11.826Z</time></trkpt><trkpt lat="44.7005117" lon="-0.4131533"><ele>3.0</ele><time>2026-04-21T18:03:12.826Z</time></trkpt><trkpt lat="44.7004383" lon="-0.41317"><ele>3.0</ele><time>2026-04-21T18:03:13.827Z</time></trkpt><trkpt lat="44.7003633" lon="-0.4131883"><ele>3.0</ele><time>2026-04-21T18:03:14.827Z</time></trkpt><trkpt lat="44.7002933" lon="-0.413205"><ele>2.9999999999999996</ele><time>2026-04-21T18:03:15.827Z</time></trkpt><trkpt lat="44.7002233" lon="-0.4132233"><ele>3.0</ele><time>2026-04-21T18:03:16.827Z</time></trkpt><trkpt lat="44.700155" lon="-0.4132433"><ele>2.9999999999999996</ele><time>2026-04-21T18:03:17.826Z</time></trkpt><trkpt lat="44.700085" lon="-0.4132617"><ele>3.0</ele><time>2026-04-21T18:03:18.827Z</time></trkpt><trkpt lat="44.7000167" lon="-0.4132783"><ele>3.0</ele><time>2026-04-21T18:03:19.826Z</time></trkpt><trkpt lat="44.6999417" lon="-0.4132967"><ele>3.0</ele><time>2026-04-21T18:03:20.826Z</time></trkpt><trkpt lat="44.69987" lon="-0.41331"><ele>3.0</ele><time>2026-04-21T18:03:21.827Z</time></trkpt><trkpt lat="44.699795" lon="-0.4133233"><ele>2.9999999999999996</ele><time>2026-04-21T18:03:22.826Z</time></trkpt><trkpt lat="44.69972" lon="-0.4133333"><ele>3.0</ele><time>2026-04-21T18:03:23.827Z</time></trkpt><trkpt lat="44.69965" lon="-0.413345"><ele>2.9999999999999996</ele><time>2026-04-21T18:03:24.827Z</time></trkpt><trkpt lat="44.699575" lon="-0.4133533"><ele>3.0</ele><time>2026-04-21T18:03:25.827Z</time></trkpt><trkpt lat="44.6995" lon="-0.4133583"><ele>3.0</ele><time>2026-04-21T18:03:26.826Z</time></trkpt><trkpt lat="44.69943" lon="-0.4133633"><ele>3.0</ele><time>2026-04-21T18:03:27.826Z</time></trkpt><trkpt lat="44.6993567" lon="-0.413375"><ele>3.0</ele><time>2026-04-21T18:03:28.827Z</time></trkpt><trkpt lat="44.6992817" lon="-0.413385"><ele>2.9999999999999996</ele><time>2026-04-21T18:03:29.826Z</time></trkpt><trkpt lat="44.69921" lon="-0.413395"><ele>3.0</ele><time>2026-04-21T18:03:30.827Z</time></trkpt><trkpt lat="44.699135" lon="-0.413405"><ele>3.2857142857142856</ele><time>2026-04-21T18:03:31.826Z</time></trkpt><trkpt lat="44.69906" lon="-0.413415"><ele>3.571428571428571</ele><time>2026-04-21T18:03:32.827Z</time></trkpt><trkpt lat="44.6989867" lon="-0.4134267"><ele>3.8571428571428568</ele><time>2026-04-21T18:03:33.827Z</time></trkpt><trkpt lat="44.6989133" lon="-0.4134367"><ele>4.142857142857142</ele><time>2026-04-21T18:03:34.827Z</time></trkpt><trkpt lat="44.69884" lon="-0.4134433"><ele>4.428571428571429</ele><time>2026-04-21T18:03:35.827Z</time></trkpt><trkpt lat="44.698765" lon="-0.4134483"><ele>4.714285714285714</ele><time>2026-04-21T18:03:36.827Z</time></trkpt><trkpt lat="44.6986883" lon="-0.41346"><ele>5.0</ele><time>2026-04-21T18:03:37.827Z</time></trkpt><trkpt lat="44.698615" lon="-0.4134717"><ele>4.857142857142857</ele><time>2026-04-21T18:03:38.827Z</time></trkpt><trkpt lat="44.6985383" lon="-0.41348"><ele>4.714285714285714</ele><time>2026-04-21T18:03:39.827Z</time></trkpt><trkpt lat="44.6984633" lon="-0.41349"><ele>4.571428571428571</ele><time>2026-04-21T18:03:40.826Z</time></trkpt><trkpt lat="44.6983883" lon="-0.4134983"><ele>4.428571428571429</ele><time>2026-04-21T18:03:41.827Z</time></trkpt><trkpt lat="44.6983167" lon="-0.4135083"><ele>4.285714285714286</ele><time>2026-04-21T18:03:42.827Z</time></trkpt><trkpt lat="44.6982433" lon="-0.4135217"><ele>4.142857142857142</ele><time>2026-04-21T18:03:43.826Z</time></trkpt><trkpt lat="44.69817" lon="-0.4135317"><ele>4.0</ele><time>2026-04-21T18:03:44.827Z</time></trkpt><trkpt lat="44.6980917" lon="-0.41354"><ele>4.0</ele><time>2026-04-21T18:03:45.827Z</time></trkpt><trkpt lat="44.6980233" lon="-0.413555"><ele>3.9999999999999996</ele><time>2026-04-21T18:03:46.827Z</time></trkpt><trkpt lat="44.6979517" lon="-0.4135733"><ele>4.0</ele><time>2026-04-21T18:03:47.827Z</time></trkpt><trkpt lat="44.6978783" lon="-0.413595"><ele>4.0</ele><time>2026-04-21T18:03:48.827Z</time></trkpt><trkpt lat="44.6978033" lon="-0.4136217"><ele>3.9999999999999996</ele><time>2026-04-21T18:03:49.826Z</time></trkpt><trkpt lat="44.6977333" lon="-0.413655"><ele>4.0</ele><time>2026-04-21T18:03:50.827Z</time></trkpt><trkpt lat="44.6976617" lon="-0.4136833"><ele>4.0</ele><time>2026-04-21T18:03:51.826Z</time></trkpt><trkpt lat="44.697595" lon="-0.41372"><ele>4.0</ele><time>2026-04-21T18:03:52.826Z</time></trkpt><trkpt lat="44.697525" lon="-0.41376"><ele>3.9999999999999996</ele><time>2026-04-21T18:03:53.826Z</time></trkpt><trkpt lat="44.697455" lon="-0.413805"><ele>4.0</ele><time>2026-04-21T18:03:54.826Z</time></trkpt><trkpt lat="44.6973867" lon="-0.41385"><ele>4.0</ele><time>2026-04-21T18:03:55.826Z</time></trkpt><trkpt lat="44.6973217" lon="-0.413895"><ele>3.9999999999999996</ele><time>2026-04-21T18:03:56.827Z</time></trkpt><trkpt lat="44.6972583" lon="-0.4139383"><ele>4.0</ele><time>2026-04-21T18:03:57.827Z</time></trkpt><trkpt lat="44.6971917" lon="-0.4139817"><ele>4.0</ele><time>2026-04-21T18:03:58.827Z</time></trkpt><trkpt lat="44.6971233" lon="-0.414025"><ele>3.9999999999999996</ele><time>2026-04-21T18:03:59.826Z</time></trkpt><trkpt lat="44.69705" lon="-0.414065"><ele>4.0</ele><time>2026-04-21T18:04:00.827Z</time></trkpt><trkpt lat="44.6969833" lon="-0.41411"><ele>4.0</ele><time>2026-04-21T18:04:01.827Z</time></trkpt><trkpt lat="44.696915" lon="-0.4141583"><ele>4.0</ele><time>2026-04-21T18:04:02.827Z</time></trkpt><trkpt lat="44.6968467" lon="-0.4142033"><ele>3.9999999999999996</ele><time>2026-04-21T18:04:03.827Z</time></trkpt><trkpt lat="44.696785" lon="-0.4142483"><ele>4.0</ele><time>2026-04-21T18:04:04.826Z</time></trkpt><trkpt lat="44.6967133" lon="-0.414295"><ele>4.142857142857142</ele><time>2026-04-21T18:04:05.827Z</time></trkpt><trkpt lat="44.6966467" lon="-0.4143483"><ele>4.285714285714286</ele><time>2026-04-21T18:04:06.826Z</time></trkpt><trkpt lat="44.6965817" lon="-0.4143967"><ele>4.428571428571429</ele><time>2026-04-21T18:04:07.827Z</time></trkpt><trkpt lat="44.6965133" lon="-0.4144433"><ele>4.571428571428571</ele><time>2026-04-21T18:04:08.827Z</time></trkpt><trkpt lat="44.6964433" lon="-0.4144867"><ele>4.714285714285714</ele><time>2026-04-21T18:04:09.827Z</time></trkpt><trkpt lat="44.6963767" lon="-0.41453"><ele>4.857142857142857</ele><time>2026-04-21T18:04:10.827Z</time></trkpt><trkpt lat="44.696315" lon="-0.414575"><ele>5.0</ele><time>2026-04-21T18:04:11.827Z</time></trkpt><trkpt lat="44.696245" lon="-0.41462"><ele>4.714285714285714</ele><time>2026-04-21T18:04:12.826Z</time></trkpt><trkpt lat="44.6961767" lon="-0.4146617"><ele>4.428571428571429</ele><time>2026-04-21T18:04:13.826Z</time></trkpt><trkpt lat="44.696105" lon="-0.4147117"><ele>4.142857142857142</ele><time>2026-04-21T18:04:14.826Z</time></trkpt><trkpt lat="44.696045" lon="-0.4147583"><ele>3.8571428571428568</ele><time>2026-04-21T18:04:15.827Z</time></trkpt><trkpt lat="44.6959767" lon="-0.414805"><ele>3.571428571428571</ele><time>2026-04-21T18:04:16.827Z</time></trkpt><trkpt lat="44.6959117" lon="-0.414855"><ele>3.2857142857142856</ele><time>2026-04-21T18:04:17.827Z</time></trkpt><trkpt lat="44.6958483" lon="-0.4149083"><ele>3.0</ele><time>2026-04-21T18:04:18.827Z</time></trkpt><trkpt lat="44.6957883" lon="-0.4149567"><ele>2.714285714285714</ele><time>2026-04-21T18:04:19.826Z</time></trkpt><trkpt lat="44.6957283" lon="-0.4150133"><ele>2.4285714285714284</ele><time>2026-04-21T18:04:20.827Z</time></trkpt><trkpt lat="44.695665" lon="-0.415075"><ele>2.142857142857143</ele><time>2026-04-21T18:04:21.827Z</time></trkpt><trkpt lat="44.6956033" lon="-0.4151317"><ele>1.857142857142857</ele><time>2026-04-21T18:04:22.827Z</time></trkpt><trkpt lat="44.6955433" lon="-0.4151883"><ele>1.5714285714285712</ele><time>2026-04-21T18:04:23.827Z</time></trkpt><trkpt lat="44.695485" lon="-0.4152433"><ele>1.2857142857142856</ele><time>2026-04-21T18:04:24.827Z</time></trkpt><trkpt lat="44.6954233" lon="-0.4152967"><ele>1.0</ele><time>2026-04-21T18:04:25.827Z</time></trkpt><trkpt lat="44.69537" lon="-0.41535"><ele>0.9999999999999999</ele><time>2026-04-21T18:04:26.827Z</time></trkpt><trkpt lat="44.6953133" lon="-0.4153983"><ele>1.0</ele><time>2026-04-21T18:04:27.827Z</time></trkpt><trkpt lat="44.6952567" lon="-0.4154517"><ele>1.0</ele><time>2026-04-21T18:04:28.827Z</time></trkpt><trkpt lat="44.6951983" lon="-0.4154983"><ele>1.0</ele><time>2026-04-21T18:04:29.827Z</time></trkpt><trkpt lat="44.69514" lon="-0.4155383"><ele>0.9999999999999999</ele><time>2026-04-21T18:04:30.827Z</time></trkpt><trkpt lat="44.6950433" lon="-0.4156233"><ele>1.0</ele><time>2026-04-21T18:04:32.827Z</time></trkpt><trkpt lat="44.69496" lon="-0.41571"><ele>2.6</ele><time>2026-04-21T18:04:34.827Z</time></trkpt><trkpt lat="44.6948767" lon="-0.4158"><ele>4.2</ele><time>2026-04-21T18:04:36.827Z</time></trkpt><trkpt lat="44.6948017" lon="-0.4158833"><ele>5.800000000000001</ele><time>2026-04-21T18:04:38.827Z</time></trkpt><trkpt lat="44.6947317" lon="-0.41596"><ele>7.4</ele><time>2026-04-21T18:04:40.826Z</time></trkpt><trkpt lat="44.69466" lon="-0.4160417"><ele>9.0</ele><time>2026-04-21T18:04:42.827Z</time></trkpt><trkpt lat="44.6945917" lon="-0.41613"><ele>9.0</ele><time>2026-04-21T18:04:44.827Z</time></trkpt><trkpt lat="44.6945217" lon="-0.4162233"><ele>9.0</ele><time>2026-04-21T18:04:46.826Z</time></trkpt><trkpt lat="44.6944433" lon="-0.4163233"><ele>9.0</ele><time>2026-04-21T18:04:48.826Z</time></trkpt><trkpt lat="44.69437" lon="-0.41642"><ele>9.0</ele><time>2026-04-21T18:04:50.826Z</time></trkpt><trkpt lat="44.6942917" lon="-0.4165183"><ele>9.0</ele><time>2026-04-21T18:04:52.827Z</time></trkpt><trkpt lat="44.6942033" lon="-0.4165933"><ele>9.6</ele><time>2026-04-21T18:04:54.826Z</time></trkpt><trkpt lat="44.69413" lon="-0.4167067"><ele>10.2</ele><time>2026-04-21T18:04:56.826Z</time></trkpt><trkpt lat="44.6941217" lon="-0.41685"><ele>10.799999999999999</ele><time>2026-04-21T18:04:58.827Z</time></trkpt><trkpt lat="44.6942017" lon="-0.4169667"><ele>11.4</ele><time>2026-04-21T18:05:00.827Z</time></trkpt><trkpt lat="44.694295" lon="-0.4170783"><ele>12.0</ele><time>2026-04-21T18:05:02.826Z</time></trkpt><trkpt lat="44.6943717" lon="-0.4172017"><ele>12.0</ele><time>2026-04-21T18:05:04.826Z</time></trkpt><trkpt lat="44.694445" lon="-0.4173267"><ele>12.0</ele><time>2026-04-21T18:05:06.826Z</time></trkpt><trkpt lat="44.6945" lon="-0.41745"><ele>12.0</ele><time>2026-04-21T18:05:08.827Z</time></trkpt><trkpt lat="44.694565" lon="-0.4175817"><ele>12.0</ele><time>2026-04-21T18:05:10.826Z</time></trkpt><trkpt lat="44.6946183" lon="-0.41772"><ele>12.0</ele><time>2026-04-21T18:05:12.827Z</time></trkpt><trkpt lat="44.694665" lon="-0.417865"><ele>11.666666666666666</ele><time>2026-04-21T18:05:14.827Z</time></trkpt><trkpt lat="44.6947183" lon="-0.4180117"><ele>11.333333333333334</ele><time>2026-04-21T18:05:16.826Z</time></trkpt><trkpt lat="44.6947467" lon="-0.4180917"><ele>11.0</ele><time>2026-04-21T18:05:17.826Z</time></trkpt><trkpt lat="44.6947767" lon="-0.41817"><ele>10.666666666666668</ele><time>2026-04-21T18:05:18.826Z</time></trkpt><trkpt lat="44.6948117" lon="-0.4182617"><ele>10.333333333333334</ele><time>2026-04-21T18:05:19.827Z</time></trkpt><trkpt lat="44.6948483" lon="-0.4183567"><ele>10.0</ele><time>2026-04-21T18:05:20.827Z</time></trkpt><trkpt lat="44.6948867" lon="-0.4184567"><ele>10.0</ele><time>2026-04-21T18:05:21.826Z</time></trkpt><trkpt lat="44.6949283" lon="-0.41856"><ele>10.0</ele><time>2026-04-21T18:05:22.827Z</time></trkpt><trkpt lat="44.69497" lon="-0.4186633"><ele>10.0</ele><time>2026-04-21T18:05:23.827Z</time></trkpt><trkpt lat="44.69502" lon="-0.4187667"><ele>10.0</ele><time>2026-04-21T18:05:24.827Z</time></trkpt><trkpt lat="44.6950733" lon="-0.4188633"><ele>10.0</ele><time>2026-04-21T18:05:25.826Z</time></trkpt><trkpt lat="44.6951267" lon="-0.41895"><ele>10.0</ele><time>2026-04-21T18:05:26.827Z</time></trkpt><trkpt lat="44.69518" lon="-0.4190483"><ele>9.166666666666668</ele><time>2026-04-21T18:05:27.827Z</time></trkpt><trkpt lat="44.695235" lon="-0.419135"><ele>8.333333333333334</ele><time>2026-04-21T18:05:28.827Z</time></trkpt><trkpt lat="44.6952833" lon="-0.4192267"><ele>7.5</ele><time>2026-04-21T18:05:29.827Z</time></trkpt><trkpt lat="44.6953383" lon="-0.41931"><ele>6.666666666666667</ele><time>2026-04-21T18:05:30.827Z</time></trkpt><trkpt lat="44.6953833" lon="-0.419395"><ele>5.833333333333334</ele><time>2026-04-21T18:05:31.827Z</time></trkpt><trkpt lat="44.69543" lon="-0.4194717"><ele>5.0</ele><time>2026-04-21T18:05:32.826Z</time></trkpt><trkpt lat="44.6954783" lon="-0.4195383"><ele>5.0</ele><time>2026-04-21T18:05:33.827Z</time></trkpt><trkpt lat="44.6955267" lon="-0.41961"><ele>5.0</ele><time>2026-04-21T18:05:34.827Z</time></trkpt><trkpt lat="44.6955767" lon="-0.41968"><ele>5.0</ele><time>2026-04-21T18:05:35.827Z</time></trkpt><trkpt lat="44.695625" lon="-0.4197467"><ele>5.0</ele><time>2026-04-21T18:05:36.827Z</time></trkpt><trkpt lat="44.695675" lon="-0.4198233"><ele>5.0</ele><time>2026-04-21T18:05:37.827Z</time></trkpt><trkpt lat="44.695725" lon="-0.4198983"><ele>5.0</ele><time>2026-04-21T18:05:38.827Z</time></trkpt><trkpt lat="44.6957683" lon="-0.4199683"><ele>5.0</ele><time>2026-04-21T18:05:39.826Z</time></trkpt><trkpt lat="44.6958517" lon="-0.4201"><ele>5.6</ele><time>2026-04-21T18:05:41.827Z</time></trkpt><trkpt lat="44.695895" lon="-0.42017"><ele>6.2</ele><time>2026-04-21T18:05:42.827Z</time></trkpt><trkpt lat="44.695985" lon="-0.4202867"><ele>6.800000000000001</ele><time>2026-04-21T18:05:44.827Z</time></trkpt><trkpt lat="44.69608" lon="-0.4204083"><ele>7.4</ele><time>2026-04-21T18:05:46.827Z</time></trkpt><trkpt lat="44.69613" lon="-0.420475"><ele>8.0</ele><time>2026-04-21T18:05:47.827Z</time></trkpt><trkpt lat="44.6961817" lon="-0.4205333"><ele>8.8</ele><time>2026-04-21T18:05:48.827Z</time></trkpt><trkpt lat="44.69627" lon="-0.420655"><ele>9.600000000000001</ele><time>2026-04-21T18:05:50.826Z</time></trkpt><trkpt lat="44.6963483" lon="-0.42079"><ele>10.399999999999999</ele><time>2026-04-21T18:05:52.827Z</time></trkpt><trkpt lat="44.6963967" lon="-0.4208533"><ele>11.2</ele><time>2026-04-21T18:05:53.827Z</time></trkpt><trkpt lat="44.6964517" lon="-0.4209083"><ele>12.0</ele><time>2026-04-21T18:05:54.827Z</time></trkpt><trkpt lat="44.69654" lon="-0.421"><ele>12.0</ele><time>2026-04-21T18:05:56.827Z</time></trkpt><trkpt lat="44.696635" lon="-0.4211017"><ele>12.0</ele><time>2026-04-21T18:05:58.826Z</time></trkpt><trkpt lat="44.6967333" lon="-0.421205"><ele>12.0</ele><time>2026-04-21T18:06:00.827Z</time></trkpt><trkpt lat="44.69682" lon="-0.42132"><ele>12.0</ele><time>2026-04-21T18:06:02.826Z</time></trkpt><trkpt lat="44.6968483" lon="-0.4214633"><ele>12.2</ele><time>2026-04-21T18:06:04.827Z</time></trkpt><trkpt lat="44.696775" lon="-0.4215667"><ele>12.399999999999999</ele><time>2026-04-21T18:06:06.826Z</time></trkpt><trkpt lat="44.6966733" lon="-0.4216383"><ele>12.600000000000001</ele><time>2026-04-21T18:06:08.825Z</time></trkpt><trkpt lat="44.69658" lon="-0.4217133"><ele>12.8</ele><time>2026-04-21T18:06:10.825Z</time></trkpt><trkpt lat="44.696475" lon="-0.421775"><ele>13.0</ele><time>2026-04-21T18:06:12.825Z</time></trkpt><trkpt lat="44.696415" lon="-0.42183"><ele>13.0</ele><time>2026-04-21T18:06:13.826Z</time></trkpt><trkpt lat="44.6963283" lon="-0.4218933"><ele>13.0</ele><time>2026-04-21T18:06:15.826Z</time></trkpt><trkpt lat="44.69623" lon="-0.4219717"><ele>13.0</ele><time>2026-04-21T18:06:17.826Z</time></trkpt><trkpt lat="44.6961233" lon="-0.4220467"><ele>13.0</ele><time>2026-04-21T18:06:19.826Z</time></trkpt><trkpt lat="44.6960267" lon="-0.4221283"><ele>13.0</ele><time>2026-04-21T18:06:21.826Z</time></trkpt><trkpt lat="44.6959433" lon="-0.4222033"><ele>12.8</ele><time>2026-04-21T18:06:23.825Z</time></trkpt><trkpt lat="44.695865" lon="-0.422305"><ele>12.600000000000001</ele><time>2026-04-21T18:06:25.825Z</time></trkpt><trkpt lat="44.6958633" lon="-0.4224383"><ele>12.399999999999999</ele><time>2026-04-21T18:06:27.826Z</time></trkpt><trkpt lat="44.6959133" lon="-0.422575"><ele>12.2</ele><time>2026-04-21T18:06:29.826Z</time></trkpt><trkpt lat="44.6959533" lon="-0.422735"><ele>12.0</ele><time>2026-04-21T18:06:31.826Z</time></trkpt><trkpt lat="44.6959967" lon="-0.4228767"><ele>12.25</ele><time>2026-04-21T18:06:33.826Z</time></trkpt><trkpt lat="44.696045" lon="-0.4229967"><ele>12.5</ele><time>2026-04-21T18:06:35.826Z</time></trkpt><trkpt lat="44.696065" lon="-0.4231717"><ele>12.75</ele><time>2026-04-21T18:06:37.826Z</time></trkpt><trkpt lat="44.6961083" lon="-0.423325"><ele>13.0</ele><time>2026-04-21T18:06:39.826Z</time></trkpt><trkpt lat="44.696145" lon="-0.4234933"><ele>12.999999999999998</ele><time>2026-04-21T18:06:41.825Z</time></trkpt><trkpt lat="44.6961733" lon="-0.4236267"><ele>13.0</ele><time>2026-04-21T18:06:43.826Z</time></trkpt><trkpt lat="44.6962117" lon="-0.4237467"><ele>13.0</ele><time>2026-04-21T18:06:45.826Z</time></trkpt><trkpt lat="44.69624" lon="-0.42385"><ele>13.0</ele><time>2026-04-21T18:06:47.825Z</time></trkpt><trkpt lat="44.6962667" lon="-0.4239533"><ele>12.999999999999998</ele><time>2026-04-21T18:06:49.825Z</time></trkpt><trkpt lat="44.6962867" lon="-0.4240433"><ele>13.0</ele><time>2026-04-21T18:06:51.826Z</time></trkpt><trkpt lat="44.6962667" lon="-0.424165"><ele>13.166666666666666</ele><time>2026-04-21T18:06:54.826Z</time></trkpt><trkpt lat="44.696205" lon="-0.4242083"><ele>13.333333333333332</ele><time>2026-04-21T18:06:56.826Z</time></trkpt><trkpt lat="44.69614" lon="-0.4242383"><ele>13.5</ele><time>2026-04-21T18:06:58.825Z</time></trkpt><trkpt lat="44.6960767" lon="-0.4242683"><ele>13.666666666666668</ele><time>2026-04-21T18:07:00.826Z</time></trkpt><trkpt lat="44.6960317" lon="-0.42438"><ele>13.833333333333334</ele><time>2026-04-21T18:07:03.826Z</time></trkpt><trkpt lat="44.696045" lon="-0.4245"><ele>14.0</ele><time>2026-04-21T18:07:05.826Z</time></trkpt><trkpt lat="44.6960467" lon="-0.4246667"><ele>14.2</ele><time>2026-04-21T18:07:07.825Z</time></trkpt><trkpt lat="44.696045" lon="-0.4248333"><ele>14.399999999999999</ele><time>2026-04-21T18:07:09.826Z</time></trkpt><trkpt lat="44.6960517" lon="-0.4249817"><ele>14.6</ele><time>2026-04-21T18:07:11.826Z</time></trkpt><trkpt lat="44.6960583" lon="-0.4251133"><ele>14.8</ele><time>2026-04-21T18:07:13.826Z</time></trkpt><trkpt lat="44.6960633" lon="-0.42526"><ele>15.0</ele><time>2026-04-21T18:07:15.826Z</time></trkpt><trkpt lat="44.6960733" lon="-0.4254083"><ele>14.833333333333334</ele><time>2026-04-21T18:07:17.826Z</time></trkpt><trkpt lat="44.6960817" lon="-0.42553"><ele>14.666666666666668</ele><time>2026-04-21T18:07:19.826Z</time></trkpt><trkpt lat="44.69612" lon="-0.4256217"><ele>14.5</ele><time>2026-04-21T18:07:22.825Z</time></trkpt><trkpt lat="44.6961783" lon="-0.42567"><ele>14.333333333333334</ele><time>2026-04-21T18:07:24.826Z</time></trkpt><trkpt lat="44.6962483" lon="-0.4257067"><ele>14.166666666666668</ele><time>2026-04-21T18:07:26.826Z</time></trkpt><trkpt lat="44.69633" lon="-0.4257567"><ele>14.0</ele><time>2026-04-21T18:07:28.826Z</time></trkpt><trkpt lat="44.69641" lon="-0.4258467"><ele>14.0</ele><time>2026-04-21T18:07:30.826Z</time></trkpt><trkpt lat="44.696475" lon="-0.4259733"><ele>13.999999999999998</ele><time>2026-04-21T18:07:32.826Z</time></trkpt><trkpt lat="44.6965267" lon="-0.4261017"><ele>13.999999999999998</ele><time>2026-04-21T18:07:34.826Z</time></trkpt><trkpt lat="44.6965733" lon="-0.4262483"><ele>14.0</ele><time>2026-04-21T18:07:36.825Z</time></trkpt><trkpt lat="44.696625" lon="-0.4263983"><ele>14.0</ele><time>2026-04-21T18:07:38.826Z</time></trkpt><trkpt lat="44.6966583" lon="-0.42655"><ele>13.799999999999999</ele><time>2026-04-21T18:07:40.826Z</time></trkpt><trkpt lat="44.6966883" lon="-0.4267133"><ele>13.599999999999998</ele><time>2026-04-21T18:07:42.825Z</time></trkpt><trkpt lat="44.696725" lon="-0.4268783"><ele>13.4</ele><time>2026-04-21T18:07:44.826Z</time></trkpt><trkpt lat="44.6967733" lon="-0.4270283"><ele>13.2</ele><time>2026-04-21T18:07:46.825Z</time></trkpt><trkpt lat="44.6968067" lon="-0.4271083"><ele>13.0</ele><time>2026-04-21T18:07:47.825Z</time></trkpt><trkpt lat="44.6968467" lon="-0.4271817"><ele>12.499999999999998</ele><time>2026-04-21T18:07:48.825Z</time></trkpt><trkpt lat="44.69692" lon="-0.4273183"><ele>12.0</ele><time>2026-04-21T18:07:50.826Z</time></trkpt><trkpt lat="44.6969567" lon="-0.4273917"><ele>11.5</ele><time>2026-04-21T18:07:51.825Z</time></trkpt><trkpt lat="44.6970267" lon="-0.4275367"><ele>11.0</ele><time>2026-04-21T18:07:53.826Z</time></trkpt><trkpt lat="44.697065" lon="-0.4276117"><ele>10.5</ele><time>2026-04-21T18:07:54.826Z</time></trkpt><trkpt lat="44.697105" lon="-0.42769"><ele>10.0</ele><time>2026-04-21T18:07:55.826Z</time></trkpt><trkpt lat="44.697155" lon="-0.4277567"><ele>10.0</ele><time>2026-04-21T18:07:56.826Z</time></trkpt><trkpt lat="44.6972067" lon="-0.4278183"><ele>10.0</ele><time>2026-04-21T18:07:57.826Z</time></trkpt><trkpt lat="44.6972517" lon="-0.4278933"><ele>10.0</ele><time>2026-04-21T18:07:58.826Z</time></trkpt><trkpt lat="44.6972933" lon="-0.4279683"><ele>10.0</ele><time>2026-04-21T18:07:59.826Z</time></trkpt><trkpt lat="44.6973333" lon="-0.428055"><ele>10.0</ele><time>2026-04-21T18:08:00.826Z</time></trkpt><trkpt lat="44.6973733" lon="-0.42815"><ele>10.0</ele><time>2026-04-21T18:08:01.825Z</time></trkpt><trkpt lat="44.6974117" lon="-0.4282383"><ele>10.0</ele><time>2026-04-21T18:08:02.825Z</time></trkpt><trkpt lat="44.6974567" lon="-0.4283267"><ele>10.0</ele><time>2026-04-21T18:08:03.826Z</time></trkpt><trkpt lat="44.6974983" lon="-0.4284083"><ele>10.0</ele><time>2026-04-21T18:08:04.826Z</time></trkpt><trkpt lat="44.69754" lon="-0.4284967"><ele>10.0</ele><time>2026-04-21T18:08:05.826Z</time></trkpt><trkpt lat="44.69759" lon="-0.4285783"><ele>10.0</ele><time>2026-04-21T18:08:06.826Z</time></trkpt><trkpt lat="44.6976333" lon="-0.42868"><ele>10.0</ele><time>2026-04-21T18:08:07.826Z</time></trkpt><trkpt lat="44.6976683" lon="-0.42878"><ele>10.0</ele><time>2026-04-21T18:08:08.825Z</time></trkpt><trkpt lat="44.6977017" lon="-0.4288717"><ele>10.0</ele><time>2026-04-21T18:08:09.826Z</time></trkpt><trkpt lat="44.69774" lon="-0.4289583"><ele>10.0</ele><time>2026-04-21T18:08:10.826Z</time></trkpt><trkpt lat="44.697785" lon="-0.4290367"><ele>10.0</ele><time>2026-04-21T18:08:11.825Z</time></trkpt><trkpt lat="44.69782" lon="-0.42913"><ele>10.0</ele><time>2026-04-21T18:08:12.826Z</time></trkpt><trkpt lat="44.697855" lon="-0.4292183"><ele>10.0</ele><time>2026-04-21T18:08:13.825Z</time></trkpt><trkpt lat="44.6978933" lon="-0.4293067"><ele>10.0</ele><time>2026-04-21T18:08:14.826Z</time></trkpt><trkpt lat="44.6979317" lon="-0.4294033"><ele>10.0</ele><time>2026-04-21T18:08:15.826Z</time></trkpt><trkpt lat="44.6979683" lon="-0.4294967"><ele>9.666666666666668</ele><time>2026-04-21T18:08:16.826Z</time></trkpt><trkpt lat="44.698005" lon="-0.429595"><ele>9.333333333333334</ele><time>2026-04-21T18:08:17.825Z</time></trkpt><trkpt lat="44.6980483" lon="-0.4296933"><ele>9.0</ele><time>2026-04-21T18:08:18.825Z</time></trkpt><trkpt lat="44.6980833" lon="-0.4297917"><ele>8.666666666666666</ele><time>2026-04-21T18:08:19.826Z</time></trkpt><trkpt lat="44.6981033" lon="-0.4298983"><ele>8.333333333333332</ele><time>2026-04-21T18:08:20.826Z</time></trkpt><trkpt lat="44.698115" lon="-0.43001"><ele>8.0</ele><time>2026-04-21T18:08:21.826Z</time></trkpt><trkpt lat="44.6981283" lon="-0.4301133"><ele>7.857142857142857</ele><time>2026-04-21T18:08:22.826Z</time></trkpt><trkpt lat="44.6981367" lon="-0.4302117"><ele>7.7142857142857135</ele><time>2026-04-21T18:08:23.826Z</time></trkpt><trkpt lat="44.6981433" lon="-0.4303083"><ele>7.571428571428571</ele><time>2026-04-21T18:08:24.826Z</time></trkpt><trkpt lat="44.69815" lon="-0.4304067"><ele>7.428571428571429</ele><time>2026-04-21T18:08:25.826Z</time></trkpt><trkpt lat="44.6981533" lon="-0.4305117"><ele>7.285714285714286</ele><time>2026-04-21T18:08:26.826Z</time></trkpt><trkpt lat="44.6981533" lon="-0.4306233"><ele>7.142857142857142</ele><time>2026-04-21T18:08:27.826Z</time></trkpt><trkpt lat="44.6981617" lon="-0.4307267"><ele>7.0</ele><time>2026-04-21T18:08:28.826Z</time></trkpt><trkpt lat="44.6981683" lon="-0.430835"><ele>7.000000000000001</ele><time>2026-04-21T18:08:29.826Z</time></trkpt><trkpt lat="44.698175" lon="-0.430945"><ele>7.0</ele><time>2026-04-21T18:08:30.826Z</time></trkpt><trkpt lat="44.6981667" lon="-0.4310633"><ele>7.0</ele><time>2026-04-21T18:08:31.826Z</time></trkpt><trkpt lat="44.6981667" lon="-0.4311733"><ele>7.0</ele><time>2026-04-21T18:08:32.826Z</time></trkpt><trkpt lat="44.6981667" lon="-0.4312817"><ele>7.000000000000001</ele><time>2026-04-21T18:08:33.826Z</time></trkpt><trkpt lat="44.6981683" lon="-0.4313933"><ele>7.0</ele><time>2026-04-21T18:08:34.825Z</time></trkpt><trkpt lat="44.69817" lon="-0.4315"><ele>7.000000000000001</ele><time>2026-04-21T18:08:35.825Z</time></trkpt><trkpt lat="44.6981617" lon="-0.4316117"><ele>7.0</ele><time>2026-04-21T18:08:36.826Z</time></trkpt><trkpt lat="44.698155" lon="-0.431725"><ele>7.0</ele><time>2026-04-21T18:08:37.826Z</time></trkpt><trkpt lat="44.6981517" lon="-0.4318367"><ele>7.0</ele><time>2026-04-21T18:08:38.826Z</time></trkpt><trkpt lat="44.6981433" lon="-0.4319533"><ele>7.000000000000001</ele><time>2026-04-21T18:08:39.826Z</time></trkpt><trkpt lat="44.6981383" lon="-0.432065"><ele>7.0</ele><time>2026-04-21T18:08:40.826Z</time></trkpt><trkpt lat="44.6981283" lon="-0.4321783"><ele>7.166666666666667</ele><time>2026-04-21T18:08:41.826Z</time></trkpt><trkpt lat="44.6981183" lon="-0.4322917"><ele>7.333333333333334</ele><time>2026-04-21T18:08:42.825Z</time></trkpt><trkpt lat="44.6981117" lon="-0.432405"><ele>7.5</ele><time>2026-04-21T18:08:43.826Z</time></trkpt><trkpt lat="44.6981067" lon="-0.4325117"><ele>7.666666666666666</ele><time>2026-04-21T18:08:44.826Z</time></trkpt><trkpt lat="44.6981" lon="-0.432625"><ele>7.833333333333333</ele><time>2026-04-21T18:08:45.825Z</time></trkpt><trkpt lat="44.69809" lon="-0.4327383"><ele>8.0</ele><time>2026-04-21T18:08:46.826Z</time></trkpt><trkpt lat="44.6980867" lon="-0.4328517"><ele>7.999999999999999</ele><time>2026-04-21T18:08:47.826Z</time></trkpt><trkpt lat="44.6980867" lon="-0.4329633"><ele>8.0</ele><time>2026-04-21T18:08:48.826Z</time></trkpt><trkpt lat="44.6980883" lon="-0.4330717"><ele>8.0</ele><time>2026-04-21T18:08:49.826Z</time></trkpt><trkpt lat="44.6980817" lon="-0.4331867"><ele>8.0</ele><time>2026-04-21T18:08:50.825Z</time></trkpt><trkpt lat="44.6980767" lon="-0.4333"><ele>7.999999999999999</ele><time>2026-04-21T18:08:51.826Z</time></trkpt><trkpt lat="44.698065" lon="-0.433415"><ele>8.0</ele><time>2026-04-21T18:08:52.826Z</time></trkpt><trkpt lat="44.6980517" lon="-0.4335167"><ele>7.666666666666666</ele><time>2026-04-21T18:08:53.826Z</time></trkpt><trkpt lat="44.6980383" lon="-0.4336167"><ele>7.333333333333333</ele><time>2026-04-21T18:08:54.826Z</time></trkpt><trkpt lat="44.69802" lon="-0.4337217"><ele>7.0</ele><time>2026-04-21T18:08:55.825Z</time></trkpt><trkpt lat="44.6980033" lon="-0.4338283"><ele>6.666666666666666</ele><time>2026-04-21T18:08:56.826Z</time></trkpt><trkpt lat="44.6979817" lon="-0.4339283"><ele>6.333333333333333</ele><time>2026-04-21T18:08:57.826Z</time></trkpt><trkpt lat="44.6979567" lon="-0.434035"><ele>6.0</ele><time>2026-04-21T18:08:58.826Z</time></trkpt><trkpt lat="44.6979383" lon="-0.4341367"><ele>6.0</ele><time>2026-04-21T18:08:59.826Z</time></trkpt><trkpt lat="44.6979183" lon="-0.434245"><ele>6.0</ele><time>2026-04-21T18:09:00.825Z</time></trkpt><trkpt lat="44.6979067" lon="-0.4343533"><ele>6.0</ele><time>2026-04-21T18:09:01.826Z</time></trkpt><trkpt lat="44.6978983" lon="-0.43446"><ele>6.0</ele><time>2026-04-21T18:09:02.826Z</time></trkpt><trkpt lat="44.6978967" lon="-0.4345567"><ele>6.0</ele><time>2026-04-21T18:09:03.825Z</time></trkpt><trkpt lat="44.6978917" lon="-0.4346617"><ele>6.0</ele><time>2026-04-21T18:09:04.826Z</time></trkpt><trkpt lat="44.6978883" lon="-0.4347683"><ele>6.285714285714285</ele><time>2026-04-21T18:09:05.826Z</time></trkpt><trkpt lat="44.6978867" lon="-0.4348717"><ele>6.571428571428571</ele><time>2026-04-21T18:09:06.825Z</time></trkpt><trkpt lat="44.6978867" lon="-0.4349783"><ele>6.857142857142857</ele><time>2026-04-21T18:09:07.825Z</time></trkpt><trkpt lat="44.697885" lon="-0.4350817"><ele>7.142857142857142</ele><time>2026-04-21T18:09:08.826Z</time></trkpt><trkpt lat="44.697895" lon="-0.4351817"><ele>7.428571428571428</ele><time>2026-04-21T18:09:09.826Z</time></trkpt><trkpt lat="44.6979133" lon="-0.4352683"><ele>7.7142857142857135</ele><time>2026-04-21T18:09:10.826Z</time></trkpt><trkpt lat="44.69793" lon="-0.4353583"><ele>8.0</ele><time>2026-04-21T18:09:11.826Z</time></trkpt><trkpt lat="44.6979467" lon="-0.4354483"><ele>8.333333333333332</ele><time>2026-04-21T18:09:12.826Z</time></trkpt><trkpt lat="44.6979933" lon="-0.4356167"><ele>8.666666666666666</ele><time>2026-04-21T18:09:14.826Z</time></trkpt><trkpt lat="44.6980183" lon="-0.4356983"><ele>9.0</ele><time>2026-04-21T18:09:15.826Z</time></trkpt><trkpt lat="44.6980433" lon="-0.43578"><ele>9.333333333333334</ele><time>2026-04-21T18:09:16.826Z</time></trkpt><trkpt lat="44.6980667" lon="-0.4358683"><ele>9.666666666666668</ele><time>2026-04-21T18:09:17.825Z</time></trkpt><trkpt lat="44.6980967" lon="-0.4360267"><ele>10.0</ele><time>2026-04-21T18:09:19.825Z</time></trkpt><trkpt lat="44.6981133" lon="-0.4361917"><ele>10.2</ele><time>2026-04-21T18:09:21.826Z</time></trkpt><trkpt lat="44.6981217" lon="-0.436355"><ele>10.4</ele><time>2026-04-21T18:09:23.826Z</time></trkpt><trkpt lat="44.698125" lon="-0.436445"><ele>10.600000000000001</ele><time>2026-04-21T18:09:24.826Z</time></trkpt><trkpt lat="44.6981217" lon="-0.436605"><ele>10.8</ele><time>2026-04-21T18:09:26.826Z</time></trkpt><trkpt lat="44.6981167" lon="-0.4367633"><ele>11.0</ele><time>2026-04-21T18:09:28.826Z</time></trkpt><trkpt lat="44.6980933" lon="-0.43692"><ele>11.0</ele><time>2026-04-21T18:09:30.826Z</time></trkpt><trkpt lat="44.698065" lon="-0.4370733"><ele>11.0</ele><time>2026-04-21T18:09:32.826Z</time></trkpt><trkpt lat="44.6980317" lon="-0.437225"><ele>11.0</ele><time>2026-04-21T18:09:34.826Z</time></trkpt><trkpt lat="44.697995" lon="-0.437385"><ele>11.0</ele><time>2026-04-21T18:09:36.826Z</time></trkpt><trkpt lat="44.6979683" lon="-0.43754"><ele>11.0</ele><time>2026-04-21T18:09:38.826Z</time></trkpt><trkpt lat="44.69793" lon="-0.437695"><ele>11.0</ele><time>2026-04-21T18:09:40.825Z</time></trkpt><trkpt lat="44.6978867" lon="-0.437845"><ele>11.0</ele><time>2026-04-21T18:09:42.825Z</time></trkpt><trkpt lat="44.6978517" lon="-0.4379967"><ele>11.0</ele><time>2026-04-21T18:09:44.826Z</time></trkpt><trkpt lat="44.69783" lon="-0.4381433"><ele>11.25</ele><time>2026-04-21T18:09:46.825Z</time></trkpt><trkpt lat="44.69781" lon="-0.4382983"><ele>11.5</ele><time>2026-04-21T18:09:48.826Z</time></trkpt><trkpt lat="44.6977917" lon="-0.4384617"><ele>11.75</ele><time>2026-04-21T18:09:50.826Z</time></trkpt><trkpt lat="44.6977783" lon="-0.438625"><ele>12.0</ele><time>2026-04-21T18:09:52.826Z</time></trkpt><trkpt lat="44.6977817" lon="-0.4387833"><ele>12.0</ele><time>2026-04-21T18:09:54.826Z</time></trkpt><trkpt lat="44.6978" lon="-0.4389367"><ele>12.0</ele><time>2026-04-21T18:09:56.826Z</time></trkpt><trkpt lat="44.697835" lon="-0.4390667"><ele>12.0</ele><time>2026-04-21T18:09:58.826Z</time></trkpt><trkpt lat="44.6978583" lon="-0.439195"><ele>12.0</ele><time>2026-04-21T18:10:00.826Z</time></trkpt><trkpt lat="44.69786" lon="-0.4393267"><ele>12.0</ele><time>2026-04-21T18:10:02.825Z</time></trkpt><trkpt lat="44.6978267" lon="-0.4394433"><ele>12.0</ele><time>2026-04-21T18:10:04.826Z</time></trkpt><trkpt lat="44.6977617" lon="-0.4395117"><ele>12.0</ele><time>2026-04-21T18:10:06.826Z</time></trkpt><trkpt lat="44.6976783" lon="-0.43957"><ele>12.0</ele><time>2026-04-21T18:10:08.826Z</time></trkpt><trkpt lat="44.697595" lon="-0.4396183"><ele>12.0</ele><time>2026-04-21T18:10:10.826Z</time></trkpt><trkpt lat="44.697505" lon="-0.4396767"><ele>12.0</ele><time>2026-04-21T18:10:12.825Z</time></trkpt><trkpt lat="44.6974017" lon="-0.439735"><ele>12.0</ele><time>2026-04-21T18:10:14.825Z</time></trkpt><trkpt lat="44.6973417" lon="-0.4397633"><ele>12.0</ele><time>2026-04-21T18:10:15.825Z</time></trkpt><trkpt lat="44.6972333" lon="-0.4398067"><ele>12.0</ele><time>2026-04-21T18:10:17.826Z</time></trkpt><trkpt lat="44.6971233" lon="-0.4398467"><ele>12.0</ele><time>2026-04-21T18:10:19.826Z</time></trkpt><trkpt lat="44.6970133" lon="-0.439895"><ele>12.0</ele><time>2026-04-21T18:10:21.826Z</time></trkpt><trkpt lat="44.6969533" lon="-0.439925"><ele>12.399999999999999</ele><time>2026-04-21T18:10:22.826Z</time></trkpt><trkpt lat="44.6968333" lon="-0.4399783"><ele>12.799999999999999</ele><time>2026-04-21T18:10:24.826Z</time></trkpt><trkpt lat="44.6967733" lon="-0.4400083"><ele>13.2</ele><time>2026-04-21T18:10:25.826Z</time></trkpt><trkpt lat="44.6967083" lon="-0.4400383"><ele>13.6</ele><time>2026-04-21T18:10:26.826Z</time></trkpt><trkpt lat="44.6965883" lon="-0.4400783"><ele>14.0</ele><time>2026-04-21T18:10:28.826Z</time></trkpt><trkpt lat="44.6964633" lon="-0.4401183"><ele>14.0</ele><time>2026-04-21T18:10:30.826Z</time></trkpt><trkpt lat="44.6963433" lon="-0.4401667"><ele>13.999999999999998</ele><time>2026-04-21T18:10:32.826Z</time></trkpt><trkpt lat="44.6962233" lon="-0.440225"><ele>13.999999999999998</ele><time>2026-04-21T18:10:34.826Z</time></trkpt><trkpt lat="44.6961633" lon="-0.44026"><ele>14.0</ele><time>2026-04-21T18:10:35.826Z</time></trkpt><trkpt lat="44.6960683" lon="-0.4403517"><ele>14.0</ele><time>2026-04-21T18:10:37.826Z</time></trkpt><trkpt lat="44.6959783" lon="-0.4404567"><ele>14.6</ele><time>2026-04-21T18:10:39.826Z</time></trkpt><trkpt lat="44.69594" lon="-0.4406183"><ele>15.2</ele><time>2026-04-21T18:10:41.825Z</time></trkpt><trkpt lat="44.695945" lon="-0.44071"><ele>15.799999999999999</ele><time>2026-04-21T18:10:42.825Z</time></trkpt><trkpt lat="44.69596" lon="-0.4408"><ele>16.4</ele><time>2026-04-21T18:10:43.826Z</time></trkpt><trkpt lat="44.6959817" lon="-0.4409767"><ele>17.0</ele><time>2026-04-21T18:10:45.826Z</time></trkpt><trkpt lat="44.6959883" lon="-0.4410767"><ele>16.999999999999996</ele><time>2026-04-21T18:10:46.825Z</time></trkpt><trkpt lat="44.6960017" lon="-0.4411717"><ele>17.0</ele><time>2026-04-21T18:10:47.826Z</time></trkpt><trkpt lat="44.6960133" lon="-0.44127"><ele>17.0</ele><time>2026-04-21T18:10:48.825Z</time></trkpt><trkpt lat="44.6960167" lon="-0.4413683"><ele>17.0</ele><time>2026-04-21T18:10:49.826Z</time></trkpt><trkpt lat="44.69602" lon="-0.4414633"><ele>17.0</ele><time>2026-04-21T18:10:50.826Z</time></trkpt><trkpt lat="44.6960233" lon="-0.4415583"><ele>16.999999999999996</ele><time>2026-04-21T18:10:51.826Z</time></trkpt><trkpt lat="44.6960267" lon="-0.44165"><ele>17.0</ele><time>2026-04-21T18:10:52.826Z</time></trkpt><trkpt lat="44.6960367" lon="-0.4417433"><ele>17.0</ele><time>2026-04-21T18:10:53.826Z</time></trkpt><trkpt lat="44.6960467" lon="-0.4418367"><ele>17.0</ele><time>2026-04-21T18:10:54.826Z</time></trkpt><trkpt lat="44.6960567" lon="-0.44193"><ele>17.0</ele><time>2026-04-21T18:10:55.826Z</time></trkpt><trkpt lat="44.69606" lon="-0.4420233"><ele>17.0</ele><time>2026-04-21T18:10:56.826Z</time></trkpt><trkpt lat="44.6960667" lon="-0.44219"><ele>17.0</ele><time>2026-04-21T18:10:58.826Z</time></trkpt><trkpt lat="44.6960783" lon="-0.4422817"><ele>17.0</ele><time>2026-04-21T18:10:59.826Z</time></trkpt><trkpt lat="44.696095" lon="-0.4423733"><ele>16.999999999999996</ele><time>2026-04-21T18:11:00.826Z</time></trkpt><trkpt lat="44.6961117" lon="-0.442465"><ele>17.0</ele><time>2026-04-21T18:11:01.826Z</time></trkpt><trkpt lat="44.696125" lon="-0.442555"><ele>17.0</ele><time>2026-04-21T18:11:02.825Z</time></trkpt><trkpt lat="44.6961383" lon="-0.4426517"><ele>17.0</ele><time>2026-04-21T18:11:03.826Z</time></trkpt><trkpt lat="44.6961583" lon="-0.4427483"><ele>17.0</ele><time>2026-04-21T18:11:04.826Z</time></trkpt><trkpt lat="44.6961783" lon="-0.4428383"><ele>16.999999999999996</ele><time>2026-04-21T18:11:05.825Z</time></trkpt><trkpt lat="44.6961983" lon="-0.4429233"><ele>17.0</ele><time>2026-04-21T18:11:06.826Z</time></trkpt><trkpt lat="44.6962217" lon="-0.4430133"><ele>16.999999999999996</ele><time>2026-04-21T18:11:07.826Z</time></trkpt><trkpt lat="44.69625" lon="-0.4430933"><ele>17.0</ele><time>2026-04-21T18:11:08.826Z</time></trkpt><trkpt lat="44.6962683" lon="-0.4431817"><ele>17.0</ele><time>2026-04-21T18:11:09.826Z</time></trkpt><trkpt lat="44.6962917" lon="-0.44327"><ele>17.0</ele><time>2026-04-21T18:11:10.825Z</time></trkpt><trkpt lat="44.696315" lon="-0.44336"><ele>17.0</ele><time>2026-04-21T18:11:11.825Z</time></trkpt><trkpt lat="44.6963383" lon="-0.4434517"><ele>16.999999999999996</ele><time>2026-04-21T18:11:12.825Z</time></trkpt><trkpt lat="44.6963583" lon="-0.4435467"><ele>17.0</ele><time>2026-04-21T18:11:13.826Z</time></trkpt><trkpt lat="44.6964" lon="-0.4437183"><ele>17.333333333333336</ele><time>2026-04-21T18:11:15.825Z</time></trkpt><trkpt lat="44.6964233" lon="-0.4438133"><ele>17.666666666666668</ele><time>2026-04-21T18:11:16.825Z</time></trkpt><trkpt lat="44.6964483" lon="-0.4439033"><ele>18.0</ele><time>2026-04-21T18:11:17.824Z</time></trkpt><trkpt lat="44.6964683" lon="-0.44399"><ele>18.333333333333332</ele><time>2026-04-21T18:11:18.824Z</time></trkpt><trkpt lat="44.696485" lon="-0.4440833"><ele>18.666666666666664</ele><time>2026-04-21T18:11:19.825Z</time></trkpt><trkpt lat="44.6965317" lon="-0.44425"><ele>19.0</ele><time>2026-04-21T18:11:21.824Z</time></trkpt><trkpt lat="44.6965567" lon="-0.4443367"><ele>19.0</ele><time>2026-04-21T18:11:22.824Z</time></trkpt><trkpt lat="44.6965817" lon="-0.4444183"><ele>19.0</ele><time>2026-04-21T18:11:23.825Z</time></trkpt><trkpt lat="44.6966367" lon="-0.44458"><ele>19.0</ele><time>2026-04-21T18:11:25.824Z</time></trkpt><trkpt lat="44.6967" lon="-0.444725"><ele>19.0</ele><time>2026-04-21T18:11:27.824Z</time></trkpt><trkpt lat="44.6967333" lon="-0.4448083"><ele>19.0</ele><time>2026-04-21T18:11:28.824Z</time></trkpt><trkpt lat="44.6967633" lon="-0.4449717"><ele>19.166666666666664</ele><time>2026-04-21T18:11:30.824Z</time></trkpt><trkpt lat="44.6967667" lon="-0.44514"><ele>19.333333333333332</ele><time>2026-04-21T18:11:32.824Z</time></trkpt><trkpt lat="44.6967683" lon="-0.445235"><ele>19.5</ele><time>2026-04-21T18:11:33.824Z</time></trkpt><trkpt lat="44.6968167" lon="-0.4453867"><ele>19.666666666666668</ele><time>2026-04-21T18:11:35.824Z</time></trkpt><trkpt lat="44.69685" lon="-0.445465"><ele>19.833333333333336</ele><time>2026-04-21T18:11:36.825Z</time></trkpt><trkpt lat="44.6968883" lon="-0.4455517"><ele>20.0</ele><time>2026-04-21T18:11:37.825Z</time></trkpt><trkpt lat="44.6969317" lon="-0.44564"><ele>19.0</ele><time>2026-04-21T18:11:38.825Z</time></trkpt><trkpt lat="44.6969733" lon="-0.44573"><ele>18.0</ele><time>2026-04-21T18:11:39.824Z</time></trkpt><trkpt lat="44.6970233" lon="-0.4458333"><ele>17.0</ele><time>2026-04-21T18:11:40.825Z</time></trkpt><trkpt lat="44.6970683" lon="-0.4459367"><ele>16.0</ele><time>2026-04-21T18:11:41.825Z</time></trkpt><trkpt lat="44.6971017" lon="-0.446035"><ele>15.000000000000002</ele><time>2026-04-21T18:11:42.824Z</time></trkpt><trkpt lat="44.6971383" lon="-0.44615"><ele>14.0</ele><time>2026-04-21T18:11:43.825Z</time></trkpt><trkpt lat="44.6971733" lon="-0.44627"><ele>13.666666666666668</ele><time>2026-04-21T18:11:44.825Z</time></trkpt><trkpt lat="44.69721" lon="-0.446385"><ele>13.333333333333334</ele><time>2026-04-21T18:11:45.824Z</time></trkpt><trkpt lat="44.6972433" lon="-0.4464917"><ele>13.0</ele><time>2026-04-21T18:11:46.825Z</time></trkpt><trkpt lat="44.6972817" lon="-0.4466067"><ele>12.666666666666668</ele><time>2026-04-21T18:11:47.825Z</time></trkpt><trkpt lat="44.6973233" lon="-0.4467183"><ele>12.333333333333334</ele><time>2026-04-21T18:11:48.825Z</time></trkpt><trkpt lat="44.6973617" lon="-0.4468167"><ele>12.0</ele><time>2026-04-21T18:11:49.824Z</time></trkpt><trkpt lat="44.69743" lon="-0.446895"><ele>12.0</ele><time>2026-04-21T18:11:50.824Z</time></trkpt><trkpt lat="44.6975083" lon="-0.4469633"><ele>12.0</ele><time>2026-04-21T18:11:51.825Z</time></trkpt><trkpt lat="44.6975867" lon="-0.447045"><ele>12.0</ele><time>2026-04-21T18:11:52.825Z</time></trkpt><trkpt lat="44.69766" lon="-0.4471283"><ele>12.0</ele><time>2026-04-21T18:11:53.825Z</time></trkpt><trkpt lat="44.6977367" lon="-0.4472117"><ele>12.0</ele><time>2026-04-21T18:11:54.825Z</time></trkpt><trkpt lat="44.6978133" lon="-0.44729"><ele>11.333333333333334</ele><time>2026-04-21T18:11:55.825Z</time></trkpt><trkpt lat="44.697885" lon="-0.4473633"><ele>10.666666666666666</ele><time>2026-04-21T18:11:56.825Z</time></trkpt><trkpt lat="44.6979517" lon="-0.4474333"><ele>10.0</ele><time>2026-04-21T18:11:57.824Z</time></trkpt><trkpt lat="44.69802" lon="-0.44751"><ele>9.333333333333332</ele><time>2026-04-21T18:11:58.825Z</time></trkpt><trkpt lat="44.69809" lon="-0.44759"><ele>8.666666666666666</ele><time>2026-04-21T18:11:59.825Z</time></trkpt><trkpt lat="44.6981633" lon="-0.44767"><ele>8.0</ele><time>2026-04-21T18:12:00.825Z</time></trkpt><trkpt lat="44.6982333" lon="-0.4477517"><ele>7.999999999999999</ele><time>2026-04-21T18:12:01.825Z</time></trkpt><trkpt lat="44.6982983" lon="-0.4478333"><ele>8.0</ele><time>2026-04-21T18:12:02.825Z</time></trkpt><trkpt lat="44.6983633" lon="-0.447905"><ele>8.0</ele><time>2026-04-21T18:12:03.825Z</time></trkpt><trkpt lat="44.6984317" lon="-0.447975"><ele>8.0</ele><time>2026-04-21T18:12:04.825Z</time></trkpt><trkpt lat="44.6984983" lon="-0.44804"><ele>7.999999999999999</ele><time>2026-04-21T18:12:05.824Z</time></trkpt><trkpt lat="44.6985617" lon="-0.4481167"><ele>8.0</ele><time>2026-04-21T18:12:06.825Z</time></trkpt><trkpt lat="44.6986217" lon="-0.448195"><ele>7.999999999999999</ele><time>2026-04-21T18:12:07.824Z</time></trkpt><trkpt lat="44.69868" lon="-0.448255"><ele>8.0</ele><time>2026-04-21T18:12:08.825Z</time></trkpt><trkpt lat="44.6987367" lon="-0.4483133"><ele>8.0</ele><time>2026-04-21T18:12:09.825Z</time></trkpt><trkpt lat="44.6987983" lon="-0.4483717"><ele>8.0</ele><time>2026-04-21T18:12:10.825Z</time></trkpt><trkpt lat="44.6988667" lon="-0.4484317"><ele>7.999999999999999</ele><time>2026-04-21T18:12:11.825Z</time></trkpt><trkpt lat="44.698925" lon="-0.4484967"><ele>8.0</ele><time>2026-04-21T18:12:12.825Z</time></trkpt><trkpt lat="44.6989867" lon="-0.4485667"><ele>7.999999999999999</ele><time>2026-04-21T18:12:13.825Z</time></trkpt><trkpt lat="44.6990517" lon="-0.4486333"><ele>8.0</ele><time>2026-04-21T18:12:14.825Z</time></trkpt><trkpt lat="44.6991133" lon="-0.4487"><ele>8.0</ele><time>2026-04-21T18:12:15.825Z</time></trkpt><trkpt lat="44.6991817" lon="-0.44877"><ele>8.0</ele><time>2026-04-21T18:12:16.825Z</time></trkpt><trkpt lat="44.6992417" lon="-0.4488333"><ele>7.999999999999999</ele><time>2026-04-21T18:12:17.824Z</time></trkpt><trkpt lat="44.6993083" lon="-0.4488983"><ele>8.0</ele><time>2026-04-21T18:12:18.825Z</time></trkpt><trkpt lat="44.69937" lon="-0.4489617"><ele>8.142857142857142</ele><time>2026-04-21T18:12:19.825Z</time></trkpt><trkpt lat="44.6994333" lon="-0.4490283"><ele>8.285714285714285</ele><time>2026-04-21T18:12:20.825Z</time></trkpt><trkpt lat="44.6994933" lon="-0.4490917"><ele>8.428571428571429</ele><time>2026-04-21T18:12:21.825Z</time></trkpt><trkpt lat="44.6995467" lon="-0.4491583"><ele>8.571428571428571</ele><time>2026-04-21T18:12:22.824Z</time></trkpt><trkpt lat="44.6995967" lon="-0.4492283"><ele>8.714285714285715</ele><time>2026-04-21T18:12:23.825Z</time></trkpt><trkpt lat="44.6996467" lon="-0.4493"><ele>8.857142857142858</ele><time>2026-04-21T18:12:24.824Z</time></trkpt><trkpt lat="44.6996933" lon="-0.44937"><ele>9.0</ele><time>2026-04-21T18:12:25.825Z</time></trkpt><trkpt lat="44.69974" lon="-0.44944"><ele>9.0</ele><time>2026-04-21T18:12:26.824Z</time></trkpt><trkpt lat="44.6998283" lon="-0.449565"><ele>9.0</ele><time>2026-04-21T18:12:28.825Z</time></trkpt><trkpt lat="44.69988" lon="-0.4496283"><ele>9.0</ele><time>2026-04-21T18:12:29.825Z</time></trkpt><trkpt lat="44.6999417" lon="-0.44965"><ele>9.0</ele><time>2026-04-21T18:12:30.825Z</time></trkpt><trkpt lat="44.70007" lon="-0.449625"><ele>9.0</ele><time>2026-04-21T18:12:32.825Z</time></trkpt><trkpt lat="44.700135" lon="-0.4495917"><ele>9.0</ele><time>2026-04-21T18:12:33.825Z</time></trkpt><trkpt lat="44.70021" lon="-0.4495533"><ele>9.0</ele><time>2026-04-21T18:12:34.824Z</time></trkpt><trkpt lat="44.7002767" lon="-0.4495117"><ele>9.0</ele><time>2026-04-21T18:12:35.825Z</time></trkpt><trkpt lat="44.7003483" lon="-0.4494717"><ele>9.0</ele><time>2026-04-21T18:12:36.825Z</time></trkpt><trkpt lat="44.7004233" lon="-0.4494283"><ele>9.0</ele><time>2026-04-21T18:12:37.825Z</time></trkpt><trkpt lat="44.7004983" lon="-0.4493867"><ele>9.0</ele><time>2026-04-21T18:12:38.824Z</time></trkpt><trkpt lat="44.7005683" lon="-0.4493467"><ele>9.0</ele><time>2026-04-21T18:12:39.825Z</time></trkpt><trkpt lat="44.70064" lon="-0.449305"><ele>9.0</ele><time>2026-04-21T18:12:40.824Z</time></trkpt><trkpt lat="44.7007183" lon="-0.4492583"><ele>9.0</ele><time>2026-04-21T18:12:41.824Z</time></trkpt><trkpt lat="44.70079" lon="-0.4492083"><ele>9.0</ele><time>2026-04-21T18:12:42.825Z</time></trkpt><trkpt lat="44.7008583" lon="-0.44917"><ele>9.0</ele><time>2026-04-21T18:12:43.824Z</time></trkpt><trkpt lat="44.700925" lon="-0.4491333"><ele>9.0</ele><time>2026-04-21T18:12:44.825Z</time></trkpt><trkpt lat="44.7009967" lon="-0.4490767"><ele>9.0</ele><time>2026-04-21T18:12:45.824Z</time></trkpt><trkpt lat="44.7010617" lon="-0.449055"><ele>9.0</ele><time>2026-04-21T18:12:46.825Z</time></trkpt><trkpt lat="44.7011433" lon="-0.44906"><ele>9.0</ele><time>2026-04-21T18:12:47.825Z</time></trkpt><trkpt lat="44.7012183" lon="-0.4490783"><ele>9.0</ele><time>2026-04-21T18:12:48.825Z</time></trkpt><trkpt lat="44.70129" lon="-0.4491067"><ele>9.0</ele><time>2026-04-21T18:12:49.825Z</time></trkpt><trkpt lat="44.7013617" lon="-0.4491517"><ele>9.0</ele><time>2026-04-21T18:12:50.825Z</time></trkpt><trkpt lat="44.7014317" lon="-0.4491933"><ele>8.666666666666666</ele><time>2026-04-21T18:12:51.825Z</time></trkpt><trkpt lat="44.7014967" lon="-0.4492283"><ele>8.333333333333334</ele><time>2026-04-21T18:12:52.825Z</time></trkpt><trkpt lat="44.7015683" lon="-0.449265"><ele>8.0</ele><time>2026-04-21T18:12:53.825Z</time></trkpt><trkpt lat="44.7016367" lon="-0.449295"><ele>7.666666666666667</ele><time>2026-04-21T18:12:54.824Z</time></trkpt><trkpt lat="44.701715" lon="-0.449335"><ele>7.333333333333334</ele><time>2026-04-21T18:12:55.825Z</time></trkpt><trkpt lat="44.7017883" lon="-0.4493783"><ele>7.0</ele><time>2026-04-21T18:12:56.825Z</time></trkpt><trkpt lat="44.7018517" lon="-0.4494283"><ele>7.0</ele><time>2026-04-21T18:12:57.825Z</time></trkpt><trkpt lat="44.7019133" lon="-0.4494883"><ele>7.0</ele><time>2026-04-21T18:12:58.825Z</time></trkpt><trkpt lat="44.7019583" lon="-0.4495733"><ele>7.0</ele><time>2026-04-21T18:12:59.825Z</time></trkpt><trkpt lat="44.7019917" lon="-0.4496633"><ele>7.0</ele><time>2026-04-21T18:13:00.825Z</time></trkpt><trkpt lat="44.70202" lon="-0.4497633"><ele>7.0</ele><time>2026-04-21T18:13:01.825Z</time></trkpt><trkpt lat="44.70206" lon="-0.4498467"><ele>7.0</ele><time>2026-04-21T18:13:02.825Z</time></trkpt><trkpt lat="44.7020983" lon="-0.4499317"><ele>7.0</ele><time>2026-04-21T18:13:03.825Z</time></trkpt><trkpt lat="44.7021333" lon="-0.4500133"><ele>7.0</ele><time>2026-04-21T18:13:04.825Z</time></trkpt><trkpt lat="44.7021683" lon="-0.4500967"><ele>6.999999999999999</ele><time>2026-04-21T18:13:05.825Z</time></trkpt><trkpt lat="44.702245" lon="-0.4502367"><ele>6.999999999999999</ele><time>2026-04-21T18:13:07.825Z</time></trkpt><trkpt lat="44.7023033" lon="-0.4503767"><ele>7.0</ele><time>2026-04-21T18:13:09.825Z</time></trkpt><trkpt lat="44.70236" lon="-0.4505133"><ele>7.0</ele><time>2026-04-21T18:13:11.825Z</time></trkpt><trkpt lat="44.7024367" lon="-0.450625"><ele>7.3999999999999995</ele><time>2026-04-21T18:13:13.825Z</time></trkpt><trkpt lat="44.70247" lon="-0.4507017"><ele>7.799999999999999</ele><time>2026-04-21T18:13:14.825Z</time></trkpt><trkpt lat="44.7025367" lon="-0.4508417"><ele>8.2</ele><time>2026-04-21T18:13:16.825Z</time></trkpt><trkpt lat="44.702615" lon="-0.450955"><ele>8.6</ele><time>2026-04-21T18:13:18.825Z</time></trkpt><trkpt lat="44.7026833" lon="-0.4510583"><ele>9.0</ele><time>2026-04-21T18:13:20.825Z</time></trkpt><trkpt lat="44.7027617" lon="-0.4511733"><ele>9.0</ele><time>2026-04-21T18:13:22.825Z</time></trkpt><trkpt lat="44.7028383" lon="-0.4512683"><ele>9.0</ele><time>2026-04-21T18:13:24.825Z</time></trkpt><trkpt lat="44.7029283" lon="-0.4513583"><ele>9.0</ele><time>2026-04-21T18:13:26.825Z</time></trkpt><trkpt lat="44.703015" lon="-0.45146"><ele>9.0</ele><time>2026-04-21T18:13:28.825Z</time></trkpt><trkpt lat="44.7030933" lon="-0.4515667"><ele>9.0</ele><time>2026-04-21T18:13:30.825Z</time></trkpt><trkpt lat="44.70318" lon="-0.4516783"><ele>9.25</ele><time>2026-04-21T18:13:32.825Z</time></trkpt><trkpt lat="44.7032683" lon="-0.45179"><ele>9.5</ele><time>2026-04-21T18:13:34.825Z</time></trkpt><trkpt lat="44.7033517" lon="-0.451915"><ele>9.75</ele><time>2026-04-21T18:13:36.825Z</time></trkpt><trkpt lat="44.7034267" lon="-0.4520333"><ele>10.0</ele><time>2026-04-21T18:13:38.825Z</time></trkpt><trkpt lat="44.70349" lon="-0.45217"><ele>10.25</ele><time>2026-04-21T18:13:40.825Z</time></trkpt><trkpt lat="44.703565" lon="-0.45227"><ele>10.5</ele><time>2026-04-21T18:13:42.825Z</time></trkpt><trkpt lat="44.703655" lon="-0.4523583"><ele>10.75</ele><time>2026-04-21T18:13:44.825Z</time></trkpt><trkpt lat="44.70375" lon="-0.4524567"><ele>11.0</ele><time>2026-04-21T18:13:46.825Z</time></trkpt><trkpt lat="44.7038417" lon="-0.4525683"><ele>11.0</ele><time>2026-04-21T18:13:48.824Z</time></trkpt><trkpt lat="44.7039367" lon="-0.4526833"><ele>11.0</ele><time>2026-04-21T18:13:50.825Z</time></trkpt><trkpt lat="44.7039817" lon="-0.4527467"><ele>11.0</ele><time>2026-04-21T18:13:51.825Z</time></trkpt><trkpt lat="44.70407" lon="-0.4528617"><ele>11.0</ele><time>2026-04-21T18:13:53.825Z</time></trkpt><trkpt lat="44.7041367" lon="-0.4529767"><ele>11.0</ele><time>2026-04-21T18:13:55.824Z</time></trkpt><trkpt lat="44.7042033" lon="-0.4530933"><ele>10.75</ele><time>2026-04-21T18:13:57.825Z</time></trkpt><trkpt lat="44.7042733" lon="-0.4532167"><ele>10.5</ele><time>2026-04-21T18:13:59.825Z</time></trkpt><trkpt lat="44.7043567" lon="-0.4533333"><ele>10.25</ele><time>2026-04-21T18:14:01.824Z</time></trkpt><trkpt lat="44.7044333" lon="-0.4534633"><ele>10.0</ele><time>2026-04-21T18:14:03.825Z</time></trkpt><trkpt lat="44.7045" lon="-0.4536"><ele>9.8</ele><time>2026-04-21T18:14:05.825Z</time></trkpt><trkpt lat="44.7045667" lon="-0.4537233"><ele>9.6</ele><time>2026-04-21T18:14:07.824Z</time></trkpt><trkpt lat="44.7046317" lon="-0.4538417"><ele>9.4</ele><time>2026-04-21T18:14:09.825Z</time></trkpt><trkpt lat="44.7047" lon="-0.45394"><ele>9.2</ele><time>2026-04-21T18:14:11.824Z</time></trkpt><trkpt lat="44.7047683" lon="-0.4540367"><ele>9.0</ele><time>2026-04-21T18:14:13.824Z</time></trkpt><trkpt lat="44.70485" lon="-0.4541283"><ele>9.0</ele><time>2026-04-21T18:14:15.825Z</time></trkpt><trkpt lat="44.70493" lon="-0.4542233"><ele>9.0</ele><time>2026-04-21T18:14:17.825Z</time></trkpt><trkpt lat="44.705005" lon="-0.4543233"><ele>9.0</ele><time>2026-04-21T18:14:19.825Z</time></trkpt><trkpt lat="44.7050767" lon="-0.45443"><ele>9.0</ele><time>2026-04-21T18:14:21.825Z</time></trkpt><trkpt lat="44.70514" lon="-0.4545533"><ele>9.0</ele><time>2026-04-21T18:14:23.824Z</time></trkpt><trkpt lat="44.7052067" lon="-0.4546817"><ele>9.2</ele><time>2026-04-21T18:14:25.824Z</time></trkpt><trkpt lat="44.705265" lon="-0.45482"><ele>9.4</ele><time>2026-04-21T18:14:27.825Z</time></trkpt><trkpt lat="44.705335" lon="-0.4549567"><ele>9.6</ele><time>2026-04-21T18:14:29.825Z</time></trkpt><trkpt lat="44.7053983" lon="-0.4550967"><ele>9.8</ele><time>2026-04-21T18:14:31.825Z</time></trkpt><trkpt lat="44.7054367" lon="-0.4551683"><ele>10.0</ele><time>2026-04-21T18:14:32.824Z</time></trkpt><trkpt lat="44.70547" lon="-0.4552467"><ele>10.0</ele><time>2026-04-21T18:14:33.825Z</time></trkpt><trkpt lat="44.7055367" lon="-0.4553883"><ele>10.0</ele><time>2026-04-21T18:14:35.825Z</time></trkpt><trkpt lat="44.7056133" lon="-0.455525"><ele>10.0</ele><time>2026-04-21T18:14:37.825Z</time></trkpt><trkpt lat="44.7056883" lon="-0.45566"><ele>10.0</ele><time>2026-04-21T18:14:39.825Z</time></trkpt><trkpt lat="44.70573" lon="-0.4557367"><ele>10.0</ele><time>2026-04-21T18:14:40.824Z</time></trkpt><trkpt lat="44.705765" lon="-0.4558117"><ele>10.0</ele><time>2026-04-21T18:14:41.825Z</time></trkpt><trkpt lat="44.705805" lon="-0.455885"><ele>10.0</ele><time>2026-04-21T18:14:42.825Z</time></trkpt><trkpt lat="44.7058483" lon="-0.4559633"><ele>10.0</ele><time>2026-04-21T18:14:43.825Z</time></trkpt><trkpt lat="44.70589" lon="-0.4560417"><ele>10.0</ele><time>2026-04-21T18:14:44.825Z</time></trkpt><trkpt lat="44.70593" lon="-0.4561283"><ele>10.0</ele><time>2026-04-21T18:14:45.825Z</time></trkpt><trkpt lat="44.7059717" lon="-0.4562117"><ele>10.0</ele><time>2026-04-21T18:14:46.824Z</time></trkpt><trkpt lat="44.7060083" lon="-0.4562983"><ele>10.0</ele><time>2026-04-21T18:14:47.824Z</time></trkpt><trkpt lat="44.7060467" lon="-0.4563867"><ele>9.5</ele><time>2026-04-21T18:14:48.825Z</time></trkpt><trkpt lat="44.7060883" lon="-0.4564817"><ele>9.0</ele><time>2026-04-21T18:14:49.825Z</time></trkpt><trkpt lat="44.706125" lon="-0.4565717"><ele>8.5</ele><time>2026-04-21T18:14:50.825Z</time></trkpt><trkpt lat="44.7061633" lon="-0.4566633"><ele>8.0</ele><time>2026-04-21T18:14:51.825Z</time></trkpt><trkpt lat="44.7062067" lon="-0.4567533"><ele>7.500000000000001</ele><time>2026-04-21T18:14:52.825Z</time></trkpt><trkpt lat="44.7062483" lon="-0.4568383"><ele>7.0</ele><time>2026-04-21T18:14:53.825Z</time></trkpt><trkpt lat="44.7062933" lon="-0.4569217"><ele>7.0</ele><time>2026-04-21T18:14:54.825Z</time></trkpt><trkpt lat="44.7063317" lon="-0.45701"><ele>7.0</ele><time>2026-04-21T18:14:55.824Z</time></trkpt><trkpt lat="44.7063717" lon="-0.4570933"><ele>7.0</ele><time>2026-04-21T18:14:56.825Z</time></trkpt><trkpt lat="44.7064083" lon="-0.4571783"><ele>7.0</ele><time>2026-04-21T18:14:57.825Z</time></trkpt><trkpt lat="44.7064417" lon="-0.457265"><ele>7.0</ele><time>2026-04-21T18:14:58.825Z</time></trkpt><trkpt lat="44.70648" lon="-0.4573517"><ele>7.0</ele><time>2026-04-21T18:14:59.825Z</time></trkpt><trkpt lat="44.7065217" lon="-0.457435"><ele>7.0</ele><time>2026-04-21T18:15:00.825Z</time></trkpt><trkpt lat="44.7065667" lon="-0.4575233"><ele>7.000000000000001</ele><time>2026-04-21T18:15:01.825Z</time></trkpt><trkpt lat="44.7066067" lon="-0.4576167"><ele>7.0</ele><time>2026-04-21T18:15:02.825Z</time></trkpt><trkpt lat="44.7066483" lon="-0.4577"><ele>7.0</ele><time>2026-04-21T18:15:03.825Z</time></trkpt><trkpt lat="44.7066917" lon="-0.4577917"><ele>7.0</ele><time>2026-04-21T18:15:04.825Z</time></trkpt><trkpt lat="44.7067267" lon="-0.4578833"><ele>7.000000000000001</ele><time>2026-04-21T18:15:05.825Z</time></trkpt><trkpt lat="44.7067717" lon="-0.4579767"><ele>7.0</ele><time>2026-04-21T18:15:06.824Z</time></trkpt><trkpt lat="44.706815" lon="-0.45807"><ele>6.857142857142857</ele><time>2026-04-21T18:15:07.825Z</time></trkpt><trkpt lat="44.7068567" lon="-0.45815"><ele>6.714285714285714</ele><time>2026-04-21T18:15:08.825Z</time></trkpt><trkpt lat="44.7068967" lon="-0.4582367"><ele>6.571428571428571</ele><time>2026-04-21T18:15:09.825Z</time></trkpt><trkpt lat="44.7069367" lon="-0.45832"><ele>6.428571428571429</ele><time>2026-04-21T18:15:10.824Z</time></trkpt><trkpt lat="44.70698" lon="-0.4584067"><ele>6.285714285714286</ele><time>2026-04-21T18:15:11.825Z</time></trkpt><trkpt lat="44.707025" lon="-0.4584967"><ele>6.142857142857142</ele><time>2026-04-21T18:15:12.824Z</time></trkpt><trkpt lat="44.707075" lon="-0.4585733"><ele>6.0</ele><time>2026-04-21T18:15:13.825Z</time></trkpt><trkpt lat="44.707125" lon="-0.4586617"><ele>6.0</ele><time>2026-04-21T18:15:14.825Z</time></trkpt><trkpt lat="44.7071667" lon="-0.458755"><ele>6.0</ele><time>2026-04-21T18:15:15.825Z</time></trkpt><trkpt lat="44.7072033" lon="-0.4588533"><ele>6.0</ele><time>2026-04-21T18:15:16.825Z</time></trkpt><trkpt lat="44.7072417" lon="-0.4589483"><ele>6.0</ele><time>2026-04-21T18:15:17.825Z</time></trkpt><trkpt lat="44.70728" lon="-0.45904"><ele>6.0</ele><time>2026-04-21T18:15:18.825Z</time></trkpt><trkpt lat="44.7073233" lon="-0.4591317"><ele>6.0</ele><time>2026-04-21T18:15:19.824Z</time></trkpt><trkpt lat="44.707365" lon="-0.4592183"><ele>5.999999999999999</ele><time>2026-04-21T18:15:20.824Z</time></trkpt><trkpt lat="44.7074067" lon="-0.4593"><ele>6.0</ele><time>2026-04-21T18:15:21.825Z</time></trkpt><trkpt lat="44.707445" lon="-0.4593817"><ele>6.0</ele><time>2026-04-21T18:15:22.825Z</time></trkpt><trkpt lat="44.707485" lon="-0.45946"><ele>6.0</ele><time>2026-04-21T18:15:23.824Z</time></trkpt><trkpt lat="44.7075233" lon="-0.4595383"><ele>6.0</ele><time>2026-04-21T18:15:24.825Z</time></trkpt><trkpt lat="44.70756" lon="-0.4596183"><ele>5.999999999999999</ele><time>2026-04-21T18:15:25.825Z</time></trkpt><trkpt lat="44.7076067" lon="-0.4597017"><ele>6.0</ele><time>2026-04-21T18:15:26.825Z</time></trkpt><trkpt lat="44.70765" lon="-0.4597867"><ele>6.166666666666667</ele><time>2026-04-21T18:15:27.825Z</time></trkpt><trkpt lat="44.70769" lon="-0.4598667"><ele>6.333333333333334</ele><time>2026-04-21T18:15:28.825Z</time></trkpt><trkpt lat="44.70773" lon="-0.4599517"><ele>6.5</ele><time>2026-04-21T18:15:29.825Z</time></trkpt><trkpt lat="44.7077733" lon="-0.4600367"><ele>6.666666666666667</ele><time>2026-04-21T18:15:30.825Z</time></trkpt><trkpt lat="44.7078167" lon="-0.4601183"><ele>6.833333333333334</ele><time>2026-04-21T18:15:31.824Z</time></trkpt><trkpt lat="44.7078517" lon="-0.4601933"><ele>7.0</ele><time>2026-04-21T18:15:32.824Z</time></trkpt><trkpt lat="44.7079333" lon="-0.460345"><ele>7.000000000000001</ele><time>2026-04-21T18:15:34.825Z</time></trkpt><trkpt lat="44.707975" lon="-0.4604267"><ele>7.0</ele><time>2026-04-21T18:15:35.825Z</time></trkpt><trkpt lat="44.7080167" lon="-0.4605133"><ele>7.0</ele><time>2026-04-21T18:15:36.825Z</time></trkpt><trkpt lat="44.7080567" lon="-0.4605967"><ele>7.0</ele><time>2026-04-21T18:15:37.825Z</time></trkpt><trkpt lat="44.7080967" lon="-0.4606817"><ele>7.000000000000001</ele><time>2026-04-21T18:15:38.824Z</time></trkpt><trkpt lat="44.7081367" lon="-0.460765"><ele>7.0</ele><time>2026-04-21T18:15:39.825Z</time></trkpt><trkpt lat="44.7082467" lon="-0.461005"><ele>6.833333333333334</ele><time>2026-04-21T18:15:42.825Z</time></trkpt><trkpt lat="44.7082867" lon="-0.4610933"><ele>6.666666666666667</ele><time>2026-04-21T18:15:43.825Z</time></trkpt><trkpt lat="44.7083617" lon="-0.4612683"><ele>6.5</ele><time>2026-04-21T18:15:45.824Z</time></trkpt><trkpt lat="44.7084067" lon="-0.4613567"><ele>6.333333333333334</ele><time>2026-04-21T18:15:46.825Z</time></trkpt><trkpt lat="44.708445" lon="-0.4614433"><ele>6.166666666666667</ele><time>2026-04-21T18:15:47.825Z</time></trkpt><trkpt lat="44.7084733" lon="-0.46154"><ele>6.0</ele><time>2026-04-21T18:15:48.825Z</time></trkpt><trkpt lat="44.7085083" lon="-0.461635"><ele>5.999999999999999</ele><time>2026-04-21T18:15:49.824Z</time></trkpt><trkpt lat="44.708535" lon="-0.4617317"><ele>6.0</ele><time>2026-04-21T18:15:50.824Z</time></trkpt><trkpt lat="44.708555" lon="-0.4618267"><ele>6.0</ele><time>2026-04-21T18:15:51.825Z</time></trkpt><trkpt lat="44.70858" lon="-0.4619267"><ele>6.0</ele><time>2026-04-21T18:15:52.824Z</time></trkpt><trkpt lat="44.7086033" lon="-0.4620267"><ele>6.0</ele><time>2026-04-21T18:15:53.825Z</time></trkpt><trkpt lat="44.7086283" lon="-0.462125"><ele>5.999999999999999</ele><time>2026-04-21T18:15:54.825Z</time></trkpt><trkpt lat="44.7086517" lon="-0.4622233"><ele>6.0</ele><time>2026-04-21T18:15:55.824Z</time></trkpt><trkpt lat="44.7086767" lon="-0.4623183"><ele>6.142857142857142</ele><time>2026-04-21T18:15:56.825Z</time></trkpt><trkpt lat="44.7086983" lon="-0.4624067"><ele>6.285714285714286</ele><time>2026-04-21T18:15:57.825Z</time></trkpt><trkpt lat="44.7087233" lon="-0.4624933"><ele>6.428571428571429</ele><time>2026-04-21T18:15:58.825Z</time></trkpt><trkpt lat="44.708745" lon="-0.4625833"><ele>6.571428571428571</ele><time>2026-04-21T18:15:59.824Z</time></trkpt><trkpt lat="44.70877" lon="-0.46268"><ele>6.714285714285714</ele><time>2026-04-21T18:16:00.825Z</time></trkpt><trkpt lat="44.7087967" lon="-0.4627783"><ele>6.857142857142857</ele><time>2026-04-21T18:16:01.825Z</time></trkpt><trkpt lat="44.7088233" lon="-0.4628767"><ele>7.0</ele><time>2026-04-21T18:16:02.825Z</time></trkpt><trkpt lat="44.7088433" lon="-0.462975"><ele>7.0</ele><time>2026-04-21T18:16:03.824Z</time></trkpt><trkpt lat="44.70887" lon="-0.4630767"><ele>7.0</ele><time>2026-04-21T18:16:04.825Z</time></trkpt><trkpt lat="44.7088983" lon="-0.463175"><ele>7.0</ele><time>2026-04-21T18:16:05.824Z</time></trkpt><trkpt lat="44.70892" lon="-0.4632683"><ele>7.0</ele><time>2026-04-21T18:16:06.825Z</time></trkpt><trkpt lat="44.70894" lon="-0.463365"><ele>7.0</ele><time>2026-04-21T18:16:07.824Z</time></trkpt><trkpt lat="44.7089567" lon="-0.46346"><ele>7.0</ele><time>2026-04-21T18:16:08.824Z</time></trkpt><trkpt lat="44.7089783" lon="-0.4635583"><ele>7.0</ele><time>2026-04-21T18:16:09.825Z</time></trkpt><trkpt lat="44.7089983" lon="-0.4636567"><ele>7.0</ele><time>2026-04-21T18:16:10.825Z</time></trkpt><trkpt lat="44.7090217" lon="-0.4637517"><ele>7.0</ele><time>2026-04-21T18:16:11.824Z</time></trkpt><trkpt lat="44.7090467" lon="-0.4638467"><ele>7.0</ele><time>2026-04-21T18:16:12.825Z</time></trkpt><trkpt lat="44.7090733" lon="-0.46394"><ele>7.0</ele><time>2026-04-21T18:16:13.824Z</time></trkpt><trkpt lat="44.7091" lon="-0.4640383"><ele>7.0</ele><time>2026-04-21T18:16:14.825Z</time></trkpt><trkpt lat="44.7091267" lon="-0.4641267"><ele>7.0</ele><time>2026-04-21T18:16:15.825Z</time></trkpt><trkpt lat="44.709155" lon="-0.4642183"><ele>7.0</ele><time>2026-04-21T18:16:16.825Z</time></trkpt><trkpt lat="44.7091883" lon="-0.4643017"><ele>7.142857142857142</ele><time>2026-04-21T18:16:17.825Z</time></trkpt><trkpt lat="44.7092217" lon="-0.4643933"><ele>7.285714285714286</ele><time>2026-04-21T18:16:18.825Z</time></trkpt><trkpt lat="44.7092517" lon="-0.4644817"><ele>7.428571428571429</ele><time>2026-04-21T18:16:19.825Z</time></trkpt><trkpt lat="44.70928" lon="-0.4645733"><ele>7.571428571428571</ele><time>2026-04-21T18:16:20.825Z</time></trkpt><trkpt lat="44.7093117" lon="-0.464665"><ele>7.7142857142857135</ele><time>2026-04-21T18:16:21.825Z</time></trkpt><trkpt lat="44.7093483" lon="-0.4647567"><ele>7.857142857142857</ele><time>2026-04-21T18:16:22.825Z</time></trkpt><trkpt lat="44.709375" lon="-0.46484"><ele>8.0</ele><time>2026-04-21T18:16:23.825Z</time></trkpt><trkpt lat="44.7093983" lon="-0.46493"><ele>8.0</ele><time>2026-04-21T18:16:24.824Z</time></trkpt><trkpt lat="44.7094317" lon="-0.4650183"><ele>7.999999999999999</ele><time>2026-04-21T18:16:25.825Z</time></trkpt><trkpt lat="44.7094633" lon="-0.465115"><ele>8.0</ele><time>2026-04-21T18:16:26.825Z</time></trkpt><trkpt lat="44.7094983" lon="-0.46521"><ele>8.0</ele><time>2026-04-21T18:16:27.825Z</time></trkpt><trkpt lat="44.7095267" lon="-0.4653083"><ele>7.999999999999999</ele><time>2026-04-21T18:16:28.825Z</time></trkpt><trkpt lat="44.70956" lon="-0.46541"><ele>8.0</ele><time>2026-04-21T18:16:29.825Z</time></trkpt><trkpt lat="44.7095967" lon="-0.4654967"><ele>8.0</ele><time>2026-04-21T18:16:30.825Z</time></trkpt><trkpt lat="44.7096367" lon="-0.4655883"><ele>8.0</ele><time>2026-04-21T18:16:31.824Z</time></trkpt><trkpt lat="44.709675" lon="-0.4656767"><ele>7.999999999999999</ele><time>2026-04-21T18:16:32.824Z</time></trkpt><trkpt lat="44.7097067" lon="-0.4657733"><ele>8.0</ele><time>2026-04-21T18:16:33.824Z</time></trkpt><trkpt lat="44.70973" lon="-0.4658633"><ele>8.0</ele><time>2026-04-21T18:16:34.824Z</time></trkpt><trkpt lat="44.7097583" lon="-0.4659517"><ele>7.999999999999999</ele><time>2026-04-21T18:16:35.823Z</time></trkpt><trkpt lat="44.70979" lon="-0.46605"><ele>8.0</ele><time>2026-04-21T18:16:36.824Z</time></trkpt><trkpt lat="44.7098233" lon="-0.466145"><ele>8.0</ele><time>2026-04-21T18:16:37.823Z</time></trkpt><trkpt lat="44.7098567" lon="-0.466225"><ele>8.142857142857142</ele><time>2026-04-21T18:16:38.824Z</time></trkpt><trkpt lat="44.7098883" lon="-0.4663083"><ele>8.285714285714285</ele><time>2026-04-21T18:16:39.823Z</time></trkpt><trkpt lat="44.7099183" lon="-0.4663917"><ele>8.428571428571429</ele><time>2026-04-21T18:16:40.823Z</time></trkpt><trkpt lat="44.7099533" lon="-0.4664817"><ele>8.571428571428571</ele><time>2026-04-21T18:16:41.823Z</time></trkpt><trkpt lat="44.7099883" lon="-0.4665717"><ele>8.714285714285715</ele><time>2026-04-21T18:16:42.823Z</time></trkpt><trkpt lat="44.7100183" lon="-0.46666"><ele>8.857142857142858</ele><time>2026-04-21T18:16:43.824Z</time></trkpt><trkpt lat="44.7100483" lon="-0.4667433"><ele>9.0</ele><time>2026-04-21T18:16:44.824Z</time></trkpt><trkpt lat="44.7100783" lon="-0.4668283"><ele>9.000000000000002</ele><time>2026-04-21T18:16:45.824Z</time></trkpt><trkpt lat="44.710115" lon="-0.4669133"><ele>9.0</ele><time>2026-04-21T18:16:46.824Z</time></trkpt><trkpt lat="44.7101517" lon="-0.4670033"><ele>9.0</ele><time>2026-04-21T18:16:47.824Z</time></trkpt><trkpt lat="44.71018" lon="-0.4670883"><ele>9.0</ele><time>2026-04-21T18:16:48.824Z</time></trkpt><trkpt lat="44.710205" lon="-0.4671717"><ele>9.0</ele><time>2026-04-21T18:16:49.824Z</time></trkpt><trkpt lat="44.7102417" lon="-0.46726"><ele>9.000000000000002</ele><time>2026-04-21T18:16:50.824Z</time></trkpt><trkpt lat="44.7102717" lon="-0.4673583"><ele>9.0</ele><time>2026-04-21T18:16:51.824Z</time></trkpt><trkpt lat="44.7102983" lon="-0.46744"><ele>8.571428571428573</ele><time>2026-04-21T18:16:52.824Z</time></trkpt><trkpt lat="44.7103283" lon="-0.4675233"><ele>8.142857142857142</ele><time>2026-04-21T18:16:53.824Z</time></trkpt><trkpt lat="44.710355" lon="-0.467605"><ele>7.714285714285714</ele><time>2026-04-21T18:16:54.824Z</time></trkpt><trkpt lat="44.7103867" lon="-0.4676883"><ele>7.2857142857142865</ele><time>2026-04-21T18:16:55.824Z</time></trkpt><trkpt lat="44.7104117" lon="-0.4677717"><ele>6.857142857142858</ele><time>2026-04-21T18:16:56.823Z</time></trkpt><trkpt lat="44.710445" lon="-0.4678567"><ele>6.428571428571428</ele><time>2026-04-21T18:16:57.823Z</time></trkpt><trkpt lat="44.71047" lon="-0.467955"><ele>6.0</ele><time>2026-04-21T18:16:58.824Z</time></trkpt><trkpt lat="44.710495" lon="-0.46805"><ele>5.999999999999999</ele><time>2026-04-21T18:16:59.824Z</time></trkpt><trkpt lat="44.710525" lon="-0.468145"><ele>6.0</ele><time>2026-04-21T18:17:00.824Z</time></trkpt><trkpt lat="44.710545" lon="-0.468245"><ele>6.0</ele><time>2026-04-21T18:17:01.823Z</time></trkpt><trkpt lat="44.7105667" lon="-0.4683417"><ele>6.0</ele><time>2026-04-21T18:17:02.824Z</time></trkpt><trkpt lat="44.7105867" lon="-0.4684417"><ele>6.0</ele><time>2026-04-21T18:17:03.823Z</time></trkpt><trkpt lat="44.7106017" lon="-0.4685433"><ele>5.999999999999999</ele><time>2026-04-21T18:17:04.824Z</time></trkpt><trkpt lat="44.7106183" lon="-0.46865"><ele>6.0</ele><time>2026-04-21T18:17:05.824Z</time></trkpt><trkpt lat="44.7106367" lon="-0.468755"><ele>6.166666666666667</ele><time>2026-04-21T18:17:06.824Z</time></trkpt><trkpt lat="44.7106483" lon="-0.46886"><ele>6.333333333333334</ele><time>2026-04-21T18:17:07.823Z</time></trkpt><trkpt lat="44.7106583" lon="-0.4689683"><ele>6.5</ele><time>2026-04-21T18:17:08.824Z</time></trkpt><trkpt lat="44.7106633" lon="-0.4690733"><ele>6.666666666666667</ele><time>2026-04-21T18:17:09.824Z</time></trkpt><trkpt lat="44.7106667" lon="-0.4691833"><ele>6.833333333333334</ele><time>2026-04-21T18:17:10.824Z</time></trkpt><trkpt lat="44.7106717" lon="-0.4692917"><ele>7.0</ele><time>2026-04-21T18:17:11.823Z</time></trkpt><trkpt lat="44.7106833" lon="-0.4693983"><ele>7.0</ele><time>2026-04-21T18:17:12.824Z</time></trkpt><trkpt lat="44.710695" lon="-0.4695067"><ele>7.0</ele><time>2026-04-21T18:17:13.824Z</time></trkpt><trkpt lat="44.710705" lon="-0.4696117"><ele>7.0</ele><time>2026-04-21T18:17:14.824Z</time></trkpt><trkpt lat="44.71071" lon="-0.4697167"><ele>7.0</ele><time>2026-04-21T18:17:15.824Z</time></trkpt><trkpt lat="44.7107167" lon="-0.4698267"><ele>7.0</ele><time>2026-04-21T18:17:16.824Z</time></trkpt><trkpt lat="44.7107217" lon="-0.469925"><ele>7.0</ele><time>2026-04-21T18:17:17.823Z</time></trkpt><trkpt lat="44.71073" lon="-0.4700217"><ele>7.0</ele><time>2026-04-21T18:17:18.823Z</time></trkpt><trkpt lat="44.7107433" lon="-0.470115"><ele>7.142857142857142</ele><time>2026-04-21T18:17:19.824Z</time></trkpt><trkpt lat="44.7107567" lon="-0.470205"><ele>7.285714285714286</ele><time>2026-04-21T18:17:20.824Z</time></trkpt><trkpt lat="44.71077" lon="-0.4702983"><ele>7.428571428571429</ele><time>2026-04-21T18:17:21.823Z</time></trkpt><trkpt lat="44.71079" lon="-0.47039"><ele>7.571428571428571</ele><time>2026-04-21T18:17:22.824Z</time></trkpt><trkpt lat="44.7108083" lon="-0.4704783"><ele>7.7142857142857135</ele><time>2026-04-21T18:17:23.823Z</time></trkpt><trkpt lat="44.7108283" lon="-0.4705667"><ele>7.857142857142857</ele><time>2026-04-21T18:17:24.824Z</time></trkpt><trkpt lat="44.7108533" lon="-0.47065"><ele>8.0</ele><time>2026-04-21T18:17:25.823Z</time></trkpt><trkpt lat="44.710875" lon="-0.4707383"><ele>8.0</ele><time>2026-04-21T18:17:26.823Z</time></trkpt><trkpt lat="44.7109033" lon="-0.4708233"><ele>8.0</ele><time>2026-04-21T18:17:27.824Z</time></trkpt><trkpt lat="44.7109317" lon="-0.4709083"><ele>8.0</ele><time>2026-04-21T18:17:28.824Z</time></trkpt><trkpt lat="44.7109883" lon="-0.4710667"><ele>8.0</ele><time>2026-04-21T18:17:30.824Z</time></trkpt><trkpt lat="44.7110467" lon="-0.4712167"><ele>8.0</ele><time>2026-04-21T18:17:32.823Z</time></trkpt><trkpt lat="44.711105" lon="-0.4713733"><ele>8.4</ele><time>2026-04-21T18:17:34.824Z</time></trkpt><trkpt lat="44.71114" lon="-0.47145"><ele>8.8</ele><time>2026-04-21T18:17:35.824Z</time></trkpt><trkpt lat="44.7111717" lon="-0.47153"><ele>9.2</ele><time>2026-04-21T18:17:36.824Z</time></trkpt><trkpt lat="44.7112367" lon="-0.4716617"><ele>9.6</ele><time>2026-04-21T18:17:38.824Z</time></trkpt><trkpt lat="44.7113033" lon="-0.4717967"><ele>10.0</ele><time>2026-04-21T18:17:40.824Z</time></trkpt><trkpt lat="44.711365" lon="-0.4719367"><ele>10.0</ele><time>2026-04-21T18:17:42.824Z</time></trkpt><trkpt lat="44.7114333" lon="-0.4720833"><ele>10.0</ele><time>2026-04-21T18:17:44.824Z</time></trkpt><trkpt lat="44.7114967" lon="-0.4722183"><ele>10.0</ele><time>2026-04-21T18:17:46.824Z</time></trkpt><trkpt lat="44.7115317" lon="-0.4722933"><ele>10.0</ele><time>2026-04-21T18:17:47.824Z</time></trkpt><trkpt lat="44.7115833" lon="-0.4724383"><ele>10.0</ele><time>2026-04-21T18:17:49.824Z</time></trkpt><trkpt lat="44.7116067" lon="-0.4725267"><ele>10.4</ele><time>2026-04-21T18:17:50.824Z</time></trkpt><trkpt lat="44.71165" lon="-0.4726867"><ele>10.8</ele><time>2026-04-21T18:17:52.823Z</time></trkpt><trkpt lat="44.711695" lon="-0.47283"><ele>11.2</ele><time>2026-04-21T18:17:54.824Z</time></trkpt><trkpt lat="44.71176" lon="-0.4729433"><ele>11.6</ele><time>2026-04-21T18:17:56.824Z</time></trkpt><trkpt lat="44.711825" lon="-0.4730567"><ele>12.0</ele><time>2026-04-21T18:17:58.824Z</time></trkpt><trkpt lat="44.7117833" lon="-0.4731683"><ele>12.0</ele><time>2026-04-21T18:18:00.824Z</time></trkpt><trkpt lat="44.711715" lon="-0.4732533"><ele>12.0</ele><time>2026-04-21T18:18:02.824Z</time></trkpt><trkpt lat="44.7116533" lon="-0.4733583"><ele>12.0</ele><time>2026-04-21T18:18:04.824Z</time></trkpt><trkpt lat="44.711605" lon="-0.47347"><ele>12.0</ele><time>2026-04-21T18:18:06.824Z</time></trkpt><trkpt lat="44.7115517" lon="-0.4735933"><ele>12.0</ele><time>2026-04-21T18:18:08.824Z</time></trkpt><trkpt lat="44.7115033" lon="-0.473715"><ele>11.833333333333334</ele><time>2026-04-21T18:18:10.824Z</time></trkpt><trkpt lat="44.71146" lon="-0.4738583"><ele>11.666666666666666</ele><time>2026-04-21T18:18:12.824Z</time></trkpt><trkpt lat="44.7114217" lon="-0.4740183"><ele>11.5</ele><time>2026-04-21T18:18:14.824Z</time></trkpt><trkpt lat="44.7114" lon="-0.4741067"><ele>11.333333333333332</ele><time>2026-04-21T18:18:15.824Z</time></trkpt><trkpt lat="44.7113767" lon="-0.47419"><ele>11.166666666666666</ele><time>2026-04-21T18:18:16.824Z</time></trkpt><trkpt lat="44.7113567" lon="-0.474275"><ele>11.0</ele><time>2026-04-21T18:18:17.823Z</time></trkpt><trkpt lat="44.7113383" lon="-0.4743617"><ele>11.0</ele><time>2026-04-21T18:18:18.823Z</time></trkpt><trkpt lat="44.7113183" lon="-0.4744467"><ele>11.0</ele><time>2026-04-21T18:18:19.824Z</time></trkpt><trkpt lat="44.7112967" lon="-0.4745383"><ele>11.0</ele><time>2026-04-21T18:18:20.824Z</time></trkpt><trkpt lat="44.7112783" lon="-0.47463"><ele>11.0</ele><time>2026-04-21T18:18:21.824Z</time></trkpt><trkpt lat="44.7112617" lon="-0.4747183"><ele>11.0</ele><time>2026-04-21T18:18:22.824Z</time></trkpt><trkpt lat="44.7112433" lon="-0.474805"><ele>11.0</ele><time>2026-04-21T18:18:23.824Z</time></trkpt><trkpt lat="44.7112233" lon="-0.4748933"><ele>11.0</ele><time>2026-04-21T18:18:24.824Z</time></trkpt><trkpt lat="44.71119" lon="-0.475045"><ele>11.0</ele><time>2026-04-21T18:18:26.824Z</time></trkpt><trkpt lat="44.71116" lon="-0.4752083"><ele>11.0</ele><time>2026-04-21T18:18:28.824Z</time></trkpt><trkpt lat="44.7111283" lon="-0.4753533"><ele>11.0</ele><time>2026-04-21T18:18:30.824Z</time></trkpt><trkpt lat="44.711095" lon="-0.4755083"><ele>11.0</ele><time>2026-04-21T18:18:32.824Z</time></trkpt><trkpt lat="44.7110617" lon="-0.475665"><ele>11.0</ele><time>2026-04-21T18:18:34.823Z</time></trkpt><trkpt lat="44.7110317" lon="-0.4758233"><ele>11.0</ele><time>2026-04-21T18:18:36.824Z</time></trkpt><trkpt lat="44.711" lon="-0.47598"><ele>11.0</ele><time>2026-04-21T18:18:38.824Z</time></trkpt><trkpt lat="44.7109833" lon="-0.4760683"><ele>11.0</ele><time>2026-04-21T18:18:39.823Z</time></trkpt><trkpt lat="44.7109667" lon="-0.4761583"><ele>11.0</ele><time>2026-04-21T18:18:40.824Z</time></trkpt><trkpt lat="44.7109533" lon="-0.4762483"><ele>11.0</ele><time>2026-04-21T18:18:41.823Z</time></trkpt><trkpt lat="44.710925" lon="-0.4764117"><ele>11.25</ele><time>2026-04-21T18:18:43.824Z</time></trkpt><trkpt lat="44.7108933" lon="-0.4765767"><ele>11.5</ele><time>2026-04-21T18:18:45.823Z</time></trkpt><trkpt lat="44.7108617" lon="-0.4767433"><ele>11.75</ele><time>2026-04-21T18:18:47.824Z</time></trkpt><trkpt lat="44.7108333" lon="-0.476915"><ele>12.0</ele><time>2026-04-21T18:18:49.824Z</time></trkpt><trkpt lat="44.71081" lon="-0.4770833"><ele>12.166666666666666</ele><time>2026-04-21T18:18:51.824Z</time></trkpt><trkpt lat="44.71077" lon="-0.47725"><ele>12.333333333333332</ele><time>2026-04-21T18:18:53.824Z</time></trkpt><trkpt lat="44.7107567" lon="-0.4773433"><ele>12.5</ele><time>2026-04-21T18:18:54.823Z</time></trkpt><trkpt lat="44.7107417" lon="-0.4774333"><ele>12.666666666666666</ele><time>2026-04-21T18:18:55.823Z</time></trkpt><trkpt lat="44.7107267" lon="-0.477525"><ele>12.833333333333332</ele><time>2026-04-21T18:18:56.824Z</time></trkpt><trkpt lat="44.710705" lon="-0.47762"><ele>13.0</ele><time>2026-04-21T18:18:57.824Z</time></trkpt><trkpt lat="44.7106783" lon="-0.4777133"><ele>13.0</ele><time>2026-04-21T18:18:58.823Z</time></trkpt><trkpt lat="44.7106533" lon="-0.4777983"><ele>13.0</ele><time>2026-04-21T18:18:59.824Z</time></trkpt><trkpt lat="44.710625" lon="-0.4778967"><ele>13.0</ele><time>2026-04-21T18:19:00.824Z</time></trkpt><trkpt lat="44.7106033" lon="-0.4779867"><ele>13.0</ele><time>2026-04-21T18:19:01.824Z</time></trkpt><trkpt lat="44.7105767" lon="-0.4780783"><ele>13.0</ele><time>2026-04-21T18:19:02.824Z</time></trkpt><trkpt lat="44.7105583" lon="-0.4781683"><ele>13.0</ele><time>2026-04-21T18:19:03.824Z</time></trkpt><trkpt lat="44.7105417" lon="-0.4782633"><ele>13.0</ele><time>2026-04-21T18:19:04.823Z</time></trkpt><trkpt lat="44.7105283" lon="-0.4783617"><ele>12.714285714285714</ele><time>2026-04-21T18:19:05.824Z</time></trkpt><trkpt lat="44.7105233" lon="-0.4784617"><ele>12.428571428571429</ele><time>2026-04-21T18:19:06.824Z</time></trkpt><trkpt lat="44.710515" lon="-0.4785583"><ele>12.142857142857142</ele><time>2026-04-21T18:19:07.824Z</time></trkpt><trkpt lat="44.7105067" lon="-0.4786633"><ele>11.857142857142858</ele><time>2026-04-21T18:19:08.824Z</time></trkpt><trkpt lat="44.7105" lon="-0.47876"><ele>11.571428571428571</ele><time>2026-04-21T18:19:09.824Z</time></trkpt><trkpt lat="44.7104867" lon="-0.47886"><ele>11.285714285714286</ele><time>2026-04-21T18:19:10.824Z</time></trkpt><trkpt lat="44.7104783" lon="-0.47896"><ele>11.0</ele><time>2026-04-21T18:19:11.824Z</time></trkpt><trkpt lat="44.7104667" lon="-0.479055"><ele>11.0</ele><time>2026-04-21T18:19:12.824Z</time></trkpt><trkpt lat="44.71046" lon="-0.4791533"><ele>11.0</ele><time>2026-04-21T18:19:13.823Z</time></trkpt><trkpt lat="44.7104517" lon="-0.4792517"><ele>11.0</ele><time>2026-04-21T18:19:14.824Z</time></trkpt><trkpt lat="44.710445" lon="-0.479345"><ele>11.0</ele><time>2026-04-21T18:19:15.824Z</time></trkpt><trkpt lat="44.7104333" lon="-0.479435"><ele>11.0</ele><time>2026-04-21T18:19:16.824Z</time></trkpt><trkpt lat="44.7104067" lon="-0.4796083"><ele>11.0</ele><time>2026-04-21T18:19:18.823Z</time></trkpt><trkpt lat="44.710395" lon="-0.4796967"><ele>10.857142857142858</ele><time>2026-04-21T18:19:19.824Z</time></trkpt><trkpt lat="44.7103817" lon="-0.4797867"><ele>10.714285714285714</ele><time>2026-04-21T18:19:20.823Z</time></trkpt><trkpt lat="44.7103617" lon="-0.4798783"><ele>10.571428571428571</ele><time>2026-04-21T18:19:21.824Z</time></trkpt><trkpt lat="44.71034" lon="-0.4799683"><ele>10.428571428571429</ele><time>2026-04-21T18:19:22.824Z</time></trkpt><trkpt lat="44.710315" lon="-0.4800583"><ele>10.285714285714286</ele><time>2026-04-21T18:19:23.823Z</time></trkpt><trkpt lat="44.71029" lon="-0.48015"><ele>10.142857142857142</ele><time>2026-04-21T18:19:24.824Z</time></trkpt><trkpt lat="44.7102717" lon="-0.48024"><ele>10.0</ele><time>2026-04-21T18:19:25.824Z</time></trkpt><trkpt lat="44.7102367" lon="-0.4803433"><ele>9.571428571428571</ele><time>2026-04-21T18:19:26.824Z</time></trkpt><trkpt lat="44.71021" lon="-0.48044"><ele>9.142857142857142</ele><time>2026-04-21T18:19:27.824Z</time></trkpt><trkpt lat="44.710175" lon="-0.4805283"><ele>8.714285714285715</ele><time>2026-04-21T18:19:28.823Z</time></trkpt><trkpt lat="44.7101467" lon="-0.4806283"><ele>8.285714285714285</ele><time>2026-04-21T18:19:29.823Z</time></trkpt><trkpt lat="44.7101233" lon="-0.4807267"><ele>7.857142857142858</ele><time>2026-04-21T18:19:30.823Z</time></trkpt><trkpt lat="44.7100967" lon="-0.4808183"><ele>7.428571428571429</ele><time>2026-04-21T18:19:31.824Z</time></trkpt><trkpt lat="44.7100617" lon="-0.48092"><ele>7.0</ele><time>2026-04-21T18:19:32.823Z</time></trkpt><trkpt lat="44.71003" lon="-0.4810267"><ele>7.000000000000001</ele><time>2026-04-21T18:19:33.824Z</time></trkpt><trkpt lat="44.7099933" lon="-0.4811383"><ele>7.0</ele><time>2026-04-21T18:19:34.824Z</time></trkpt><trkpt lat="44.70996" lon="-0.4812433"><ele>7.0</ele><time>2026-04-21T18:19:35.824Z</time></trkpt><trkpt lat="44.7099217" lon="-0.4813417"><ele>7.0</ele><time>2026-04-21T18:19:36.824Z</time></trkpt><trkpt lat="44.70988" lon="-0.4814467"><ele>7.000000000000001</ele><time>2026-04-21T18:19:37.824Z</time></trkpt><trkpt lat="44.70985" lon="-0.4815533"><ele>7.0</ele><time>2026-04-21T18:19:38.824Z</time></trkpt><trkpt lat="44.70982" lon="-0.4816567"><ele>7.000000000000001</ele><time>2026-04-21T18:19:39.824Z</time></trkpt><trkpt lat="44.7097933" lon="-0.481755"><ele>7.0</ele><time>2026-04-21T18:19:40.823Z</time></trkpt><trkpt lat="44.7097717" lon="-0.481845"><ele>7.0</ele><time>2026-04-21T18:19:41.824Z</time></trkpt><trkpt lat="44.7097433" lon="-0.4819383"><ele>7.0</ele><time>2026-04-21T18:19:42.824Z</time></trkpt><trkpt lat="44.7097183" lon="-0.4820233"><ele>7.000000000000001</ele><time>2026-04-21T18:19:43.824Z</time></trkpt><trkpt lat="44.7096667" lon="-0.4821817"><ele>7.0</ele><time>2026-04-21T18:19:45.824Z</time></trkpt><trkpt lat="44.70961" lon="-0.4823367"><ele>7.25</ele><time>2026-04-21T18:19:47.823Z</time></trkpt><trkpt lat="44.7095517" lon="-0.482485"><ele>7.5</ele><time>2026-04-21T18:19:49.824Z</time></trkpt><trkpt lat="44.7094967" lon="-0.4826217"><ele>7.75</ele><time>2026-04-21T18:19:51.824Z</time></trkpt><trkpt lat="44.7094267" lon="-0.4827517"><ele>8.0</ele><time>2026-04-21T18:19:53.824Z</time></trkpt><trkpt lat="44.7093683" lon="-0.482895"><ele>8.200000000000001</ele><time>2026-04-21T18:19:55.823Z</time></trkpt><trkpt lat="44.7093133" lon="-0.483035"><ele>8.4</ele><time>2026-04-21T18:19:57.823Z</time></trkpt><trkpt lat="44.7092517" lon="-0.483165"><ele>8.600000000000001</ele><time>2026-04-21T18:19:59.824Z</time></trkpt><trkpt lat="44.7091983" lon="-0.4832933"><ele>8.8</ele><time>2026-04-21T18:20:01.824Z</time></trkpt><trkpt lat="44.7091333" lon="-0.4834333"><ele>9.0</ele><time>2026-04-21T18:20:03.824Z</time></trkpt><trkpt lat="44.709085" lon="-0.4835833"><ele>9.0</ele><time>2026-04-21T18:20:05.824Z</time></trkpt><trkpt lat="44.7090267" lon="-0.4837283"><ele>9.0</ele><time>2026-04-21T18:20:07.824Z</time></trkpt><trkpt lat="44.708975" lon="-0.4838733"><ele>9.0</ele><time>2026-04-21T18:20:09.824Z</time></trkpt><trkpt lat="44.7089283" lon="-0.4840167"><ele>9.0</ele><time>2026-04-21T18:20:11.823Z</time></trkpt><trkpt lat="44.7088733" lon="-0.4841517"><ele>9.25</ele><time>2026-04-21T18:20:13.824Z</time></trkpt><trkpt lat="44.7088233" lon="-0.484305"><ele>9.5</ele><time>2026-04-21T18:20:15.823Z</time></trkpt><trkpt lat="44.7087767" lon="-0.4844483"><ele>9.75</ele><time>2026-04-21T18:20:17.823Z</time></trkpt><trkpt lat="44.70872" lon="-0.4845967"><ele>10.0</ele><time>2026-04-21T18:20:19.824Z</time></trkpt><trkpt lat="44.7086767" lon="-0.484735"><ele>10.0</ele><time>2026-04-21T18:20:21.824Z</time></trkpt><trkpt lat="44.7086333" lon="-0.4848733"><ele>10.0</ele><time>2026-04-21T18:20:23.824Z</time></trkpt><trkpt lat="44.7085867" lon="-0.4850167"><ele>10.0</ele><time>2026-04-21T18:20:25.824Z</time></trkpt><trkpt lat="44.708535" lon="-0.4851633"><ele>10.0</ele><time>2026-04-21T18:20:27.824Z</time></trkpt><trkpt lat="44.70848" lon="-0.4853033"><ele>10.0</ele><time>2026-04-21T18:20:29.824Z</time></trkpt><trkpt lat="44.7084317" lon="-0.4854433"><ele>10.25</ele><time>2026-04-21T18:20:31.824Z</time></trkpt><trkpt lat="44.708385" lon="-0.4855967"><ele>10.5</ele><time>2026-04-21T18:20:33.824Z</time></trkpt><trkpt lat="44.70833" lon="-0.4857383"><ele>10.75</ele><time>2026-04-21T18:20:35.824Z</time></trkpt><trkpt lat="44.708285" lon="-0.4858767"><ele>11.0</ele><time>2026-04-21T18:20:37.823Z</time></trkpt><trkpt lat="44.7082367" lon="-0.4860333"><ele>11.0</ele><time>2026-04-21T18:20:39.824Z</time></trkpt><trkpt lat="44.7081867" lon="-0.48618"><ele>11.0</ele><time>2026-04-21T18:20:41.824Z</time></trkpt><trkpt lat="44.7081383" lon="-0.4862967"><ele>11.0</ele><time>2026-04-21T18:20:43.824Z</time></trkpt><trkpt lat="44.7081133" lon="-0.48644"><ele>11.0</ele><time>2026-04-21T18:20:45.824Z</time></trkpt><trkpt lat="44.70808" lon="-0.4866017"><ele>11.0</ele><time>2026-04-21T18:20:47.824Z</time></trkpt><trkpt lat="44.7080633" lon="-0.4866917"><ele>11.0</ele><time>2026-04-21T18:20:48.824Z</time></trkpt><trkpt lat="44.7080467" lon="-0.48679"><ele>11.0</ele><time>2026-04-21T18:20:49.824Z</time></trkpt><trkpt lat="44.7080283" lon="-0.4868867"><ele>11.0</ele><time>2026-04-21T18:20:50.823Z</time></trkpt><trkpt lat="44.70801" lon="-0.486985"><ele>11.0</ele><time>2026-04-21T18:20:51.824Z</time></trkpt><trkpt lat="44.7079917" lon="-0.487175"><ele>11.0</ele><time>2026-04-21T18:20:53.824Z</time></trkpt><trkpt lat="44.707995" lon="-0.48728"><ele>11.0</ele><time>2026-04-21T18:20:54.823Z</time></trkpt><trkpt lat="44.707995" lon="-0.4873883"><ele>10.666666666666666</ele><time>2026-04-21T18:20:55.824Z</time></trkpt><trkpt lat="44.7080033" lon="-0.4874867"><ele>10.333333333333332</ele><time>2026-04-21T18:20:56.824Z</time></trkpt><trkpt lat="44.7080083" lon="-0.4875983"><ele>10.0</ele><time>2026-04-21T18:20:57.824Z</time></trkpt><trkpt lat="44.708015" lon="-0.4877083"><ele>9.666666666666666</ele><time>2026-04-21T18:20:58.823Z</time></trkpt><trkpt lat="44.7080233" lon="-0.4878133"><ele>9.333333333333334</ele><time>2026-04-21T18:20:59.824Z</time></trkpt><trkpt lat="44.7080367" lon="-0.4879217"><ele>9.0</ele><time>2026-04-21T18:21:00.824Z</time></trkpt><trkpt lat="44.70805" lon="-0.4880317"><ele>8.833333333333334</ele><time>2026-04-21T18:21:01.824Z</time></trkpt><trkpt lat="44.70806" lon="-0.48814"><ele>8.666666666666666</ele><time>2026-04-21T18:21:02.824Z</time></trkpt><trkpt lat="44.7080717" lon="-0.4882533"><ele>8.5</ele><time>2026-04-21T18:21:03.824Z</time></trkpt><trkpt lat="44.7080883" lon="-0.4883617"><ele>8.333333333333332</ele><time>2026-04-21T18:21:04.824Z</time></trkpt><trkpt lat="44.7080983" lon="-0.4884717"><ele>8.166666666666666</ele><time>2026-04-21T18:21:05.824Z</time></trkpt><trkpt lat="44.7081117" lon="-0.48858"><ele>8.0</ele><time>2026-04-21T18:21:06.823Z</time></trkpt><trkpt lat="44.7081283" lon="-0.48869"><ele>7.666666666666666</ele><time>2026-04-21T18:21:07.824Z</time></trkpt><trkpt lat="44.70815" lon="-0.4887967"><ele>7.333333333333333</ele><time>2026-04-21T18:21:08.824Z</time></trkpt><trkpt lat="44.7081667" lon="-0.4889033"><ele>7.0</ele><time>2026-04-21T18:21:09.823Z</time></trkpt><trkpt lat="44.708185" lon="-0.48901"><ele>6.666666666666666</ele><time>2026-04-21T18:21:10.824Z</time></trkpt><trkpt lat="44.7082067" lon="-0.4891167"><ele>6.333333333333333</ele><time>2026-04-21T18:21:11.824Z</time></trkpt><trkpt lat="44.7082283" lon="-0.489215"><ele>6.0</ele><time>2026-04-21T18:21:12.824Z</time></trkpt><trkpt lat="44.70824" lon="-0.4893233"><ele>6.0</ele><time>2026-04-21T18:21:13.823Z</time></trkpt><trkpt lat="44.70825" lon="-0.4894417"><ele>6.0</ele><time>2026-04-21T18:21:14.824Z</time></trkpt><trkpt lat="44.70827" lon="-0.4895467"><ele>6.0</ele><time>2026-04-21T18:21:15.824Z</time></trkpt><trkpt lat="44.7082867" lon="-0.4896483"><ele>6.0</ele><time>2026-04-21T18:21:16.823Z</time></trkpt><trkpt lat="44.70831" lon="-0.4897533"><ele>6.0</ele><time>2026-04-21T18:21:17.824Z</time></trkpt><trkpt lat="44.7083267" lon="-0.4898633"><ele>6.0</ele><time>2026-04-21T18:21:18.823Z</time></trkpt><trkpt lat="44.708345" lon="-0.4899683"><ele>5.857142857142857</ele><time>2026-04-21T18:21:19.824Z</time></trkpt><trkpt lat="44.708365" lon="-0.4900717"><ele>5.714285714285714</ele><time>2026-04-21T18:21:20.824Z</time></trkpt><trkpt lat="44.7083983" lon="-0.4901667"><ele>5.571428571428571</ele><time>2026-04-21T18:21:21.824Z</time></trkpt><trkpt lat="44.7084183" lon="-0.4902667"><ele>5.428571428571429</ele><time>2026-04-21T18:21:22.823Z</time></trkpt><trkpt lat="44.7084383" lon="-0.49036"><ele>5.285714285714286</ele><time>2026-04-21T18:21:23.824Z</time></trkpt><trkpt lat="44.7084583" lon="-0.4904617"><ele>5.142857142857142</ele><time>2026-04-21T18:21:24.823Z</time></trkpt><trkpt lat="44.70848" lon="-0.49056"><ele>5.0</ele><time>2026-04-21T18:21:25.824Z</time></trkpt><trkpt lat="44.7085067" lon="-0.490655"><ele>5.0</ele><time>2026-04-21T18:21:26.824Z</time></trkpt><trkpt lat="44.7085317" lon="-0.49075"><ele>5.0</ele><time>2026-04-21T18:21:27.824Z</time></trkpt><trkpt lat="44.708555" lon="-0.4908533"><ele>5.0</ele><time>2026-04-21T18:21:28.824Z</time></trkpt><trkpt lat="44.708575" lon="-0.4909567"><ele>5.0</ele><time>2026-04-21T18:21:29.823Z</time></trkpt><trkpt lat="44.7086" lon="-0.4910617"><ele>5.0</ele><time>2026-04-21T18:21:30.824Z</time></trkpt><trkpt lat="44.7086217" lon="-0.4911483"><ele>5.0</ele><time>2026-04-21T18:21:31.824Z</time></trkpt><trkpt lat="44.7086433" lon="-0.49124"><ele>5.0</ele><time>2026-04-21T18:21:32.823Z</time></trkpt><trkpt lat="44.7086667" lon="-0.49133"><ele>5.285714285714286</ele><time>2026-04-21T18:21:33.823Z</time></trkpt><trkpt lat="44.7086967" lon="-0.49142"><ele>5.571428571428571</ele><time>2026-04-21T18:21:34.823Z</time></trkpt><trkpt lat="44.7087233" lon="-0.4915083"><ele>5.857142857142858</ele><time>2026-04-21T18:21:35.824Z</time></trkpt><trkpt lat="44.7087533" lon="-0.491595"><ele>6.142857142857142</ele><time>2026-04-21T18:21:36.823Z</time></trkpt><trkpt lat="44.70878" lon="-0.49168"><ele>6.428571428571429</ele><time>2026-04-21T18:21:37.824Z</time></trkpt><trkpt lat="44.7088067" lon="-0.4917767"><ele>6.714285714285714</ele><time>2026-04-21T18:21:38.824Z</time></trkpt><trkpt lat="44.70883" lon="-0.4918733"><ele>7.0</ele><time>2026-04-21T18:21:39.823Z</time></trkpt><trkpt lat="44.7088583" lon="-0.4919617"><ele>7.166666666666667</ele><time>2026-04-21T18:21:40.824Z</time></trkpt><trkpt lat="44.7089117" lon="-0.492125"><ele>7.333333333333334</ele><time>2026-04-21T18:21:42.823Z</time></trkpt><trkpt lat="44.7089467" lon="-0.49221"><ele>7.5</ele><time>2026-04-21T18:21:43.823Z</time></trkpt><trkpt lat="44.708975" lon="-0.4923017"><ele>7.666666666666666</ele><time>2026-04-21T18:21:44.824Z</time></trkpt><trkpt lat="44.7090033" lon="-0.492395"><ele>7.833333333333333</ele><time>2026-04-21T18:21:45.824Z</time></trkpt><trkpt lat="44.7090283" lon="-0.4924883"><ele>8.0</ele><time>2026-04-21T18:21:46.824Z</time></trkpt><trkpt lat="44.7090567" lon="-0.4925833"><ele>7.999999999999999</ele><time>2026-04-21T18:21:47.824Z</time></trkpt><trkpt lat="44.7091133" lon="-0.4927417"><ele>8.0</ele><time>2026-04-21T18:21:49.824Z</time></trkpt><trkpt lat="44.7091517" lon="-0.4928367"><ele>8.0</ele><time>2026-04-21T18:21:50.824Z</time></trkpt><trkpt lat="44.7091817" lon="-0.4929317"><ele>8.0</ele><time>2026-04-21T18:21:51.824Z</time></trkpt><trkpt lat="44.70921" lon="-0.49303"><ele>7.999999999999999</ele><time>2026-04-21T18:21:52.823Z</time></trkpt><trkpt lat="44.7092383" lon="-0.493125"><ele>8.0</ele><time>2026-04-21T18:21:53.823Z</time></trkpt><trkpt lat="44.70927" lon="-0.49322"><ele>8.166666666666666</ele><time>2026-04-21T18:21:54.823Z</time></trkpt><trkpt lat="44.7092983" lon="-0.493325"><ele>8.333333333333332</ele><time>2026-04-21T18:21:55.824Z</time></trkpt><trkpt lat="44.7093433" lon="-0.4934233"><ele>8.5</ele><time>2026-04-21T18:21:56.824Z</time></trkpt><trkpt lat="44.70938" lon="-0.4935183"><ele>8.666666666666666</ele><time>2026-04-21T18:21:57.824Z</time></trkpt><trkpt lat="44.7094117" lon="-0.4936167"><ele>8.833333333333334</ele><time>2026-04-21T18:21:58.823Z</time></trkpt><trkpt lat="44.7094417" lon="-0.4937083"><ele>9.0</ele><time>2026-04-21T18:21:59.824Z</time></trkpt><trkpt lat="44.709475" lon="-0.4938033"><ele>9.285714285714286</ele><time>2026-04-21T18:22:00.824Z</time></trkpt><trkpt lat="44.7095033" lon="-0.4938883"><ele>9.571428571428571</ele><time>2026-04-21T18:22:01.823Z</time></trkpt><trkpt lat="44.7095317" lon="-0.4939833"><ele>9.857142857142858</ele><time>2026-04-21T18:22:02.824Z</time></trkpt><trkpt lat="44.7095617" lon="-0.4940817"><ele>10.142857142857142</ele><time>2026-04-21T18:22:03.824Z</time></trkpt><trkpt lat="44.7095917" lon="-0.4941733"><ele>10.428571428571429</ele><time>2026-04-21T18:22:04.824Z</time></trkpt><trkpt lat="44.7096217" lon="-0.4942683"><ele>10.714285714285715</ele><time>2026-04-21T18:22:05.824Z</time></trkpt><trkpt lat="44.7096567" lon="-0.49436"><ele>11.0</ele><time>2026-04-21T18:22:06.823Z</time></trkpt><trkpt lat="44.7096867" lon="-0.49445"><ele>11.0</ele><time>2026-04-21T18:22:07.824Z</time></trkpt><trkpt lat="44.7097183" lon="-0.4945383"><ele>11.0</ele><time>2026-04-21T18:22:08.823Z</time></trkpt><trkpt lat="44.70975" lon="-0.4946233"><ele>11.0</ele><time>2026-04-21T18:22:09.823Z</time></trkpt><trkpt lat="44.7097817" lon="-0.4947067"><ele>11.0</ele><time>2026-04-21T18:22:10.823Z</time></trkpt><trkpt lat="44.7098167" lon="-0.494795"><ele>11.0</ele><time>2026-04-21T18:22:11.824Z</time></trkpt><trkpt lat="44.7098533" lon="-0.49489"><ele>11.0</ele><time>2026-04-21T18:22:12.824Z</time></trkpt><trkpt lat="44.7098917" lon="-0.4949767"><ele>11.0</ele><time>2026-04-21T18:22:13.824Z</time></trkpt><trkpt lat="44.70992" lon="-0.4950667"><ele>10.857142857142858</ele><time>2026-04-21T18:22:14.824Z</time></trkpt><trkpt lat="44.7099567" lon="-0.4951533"><ele>10.714285714285714</ele><time>2026-04-21T18:22:15.824Z</time></trkpt><trkpt lat="44.709995" lon="-0.4952383"><ele>10.571428571428571</ele><time>2026-04-21T18:22:16.824Z</time></trkpt><trkpt lat="44.71003" lon="-0.4953267"><ele>10.428571428571429</ele><time>2026-04-21T18:22:17.824Z</time></trkpt><trkpt lat="44.7100667" lon="-0.4954117"><ele>10.285714285714286</ele><time>2026-04-21T18:22:18.823Z</time></trkpt><trkpt lat="44.7101067" lon="-0.4954917"><ele>10.142857142857142</ele><time>2026-04-21T18:22:19.823Z</time></trkpt><trkpt lat="44.7101433" lon="-0.4955867"><ele>10.0</ele><time>2026-04-21T18:22:20.823Z</time></trkpt><trkpt lat="44.7101817" lon="-0.4956783"><ele>9.857142857142858</ele><time>2026-04-21T18:22:21.823Z</time></trkpt><trkpt lat="44.71022" lon="-0.4957683"><ele>9.714285714285715</ele><time>2026-04-21T18:22:22.823Z</time></trkpt><trkpt lat="44.71026" lon="-0.4958517"><ele>9.571428571428573</ele><time>2026-04-21T18:22:23.823Z</time></trkpt><trkpt lat="44.7103017" lon="-0.4959367"><ele>9.428571428571429</ele><time>2026-04-21T18:22:24.823Z</time></trkpt><trkpt lat="44.7103467" lon="-0.4960233"><ele>9.285714285714286</ele><time>2026-04-21T18:22:25.823Z</time></trkpt><trkpt lat="44.7103833" lon="-0.4961067"><ele>9.142857142857144</ele><time>2026-04-21T18:22:26.823Z</time></trkpt><trkpt lat="44.71042" lon="-0.49619"><ele>9.0</ele><time>2026-04-21T18:22:27.823Z</time></trkpt><trkpt lat="44.7104567" lon="-0.496275"><ele>8.857142857142858</ele><time>2026-04-21T18:22:28.823Z</time></trkpt><trkpt lat="44.7104933" lon="-0.4963517"><ele>8.714285714285715</ele><time>2026-04-21T18:22:29.823Z</time></trkpt><trkpt lat="44.7105333" lon="-0.4964333"><ele>8.571428571428571</ele><time>2026-04-21T18:22:30.823Z</time></trkpt><trkpt lat="44.7105733" lon="-0.4965083"><ele>8.428571428571429</ele><time>2026-04-21T18:22:31.823Z</time></trkpt><trkpt lat="44.7106117" lon="-0.4965833"><ele>8.285714285714285</ele><time>2026-04-21T18:22:32.823Z</time></trkpt><trkpt lat="44.7106533" lon="-0.496665"><ele>8.142857142857142</ele><time>2026-04-21T18:22:33.823Z</time></trkpt><trkpt lat="44.7106967" lon="-0.4967483"><ele>8.0</ele><time>2026-04-21T18:22:34.823Z</time></trkpt><trkpt lat="44.7107383" lon="-0.496835"><ele>8.0</ele><time>2026-04-21T18:22:35.822Z</time></trkpt><trkpt lat="44.710785" lon="-0.4969233"><ele>7.999999999999999</ele><time>2026-04-21T18:22:36.823Z</time></trkpt><trkpt lat="44.7108283" lon="-0.497005"><ele>8.0</ele><time>2026-04-21T18:22:37.823Z</time></trkpt><trkpt lat="44.7108667" lon="-0.49709"><ele>8.0</ele><time>2026-04-21T18:22:38.822Z</time></trkpt><trkpt lat="44.7109033" lon="-0.4971667"><ele>7.999999999999999</ele><time>2026-04-21T18:22:39.823Z</time></trkpt><trkpt lat="44.7109467" lon="-0.49725"><ele>8.0</ele><time>2026-04-21T18:22:40.822Z</time></trkpt><trkpt lat="44.710985" lon="-0.4973317"><ele>8.0</ele><time>2026-04-21T18:22:41.823Z</time></trkpt><trkpt lat="44.711035" lon="-0.49741"><ele>7.7142857142857135</ele><time>2026-04-21T18:22:42.823Z</time></trkpt><trkpt lat="44.7110767" lon="-0.49749"><ele>7.428571428571428</ele><time>2026-04-21T18:22:43.822Z</time></trkpt><trkpt lat="44.7111217" lon="-0.4975583"><ele>7.142857142857142</ele><time>2026-04-21T18:22:44.823Z</time></trkpt><trkpt lat="44.7111633" lon="-0.49764"><ele>6.857142857142857</ele><time>2026-04-21T18:22:45.823Z</time></trkpt><trkpt lat="44.7112017" lon="-0.497725"><ele>6.571428571428571</ele><time>2026-04-21T18:22:46.823Z</time></trkpt><trkpt lat="44.7112467" lon="-0.4977967"><ele>6.285714285714285</ele><time>2026-04-21T18:22:47.823Z</time></trkpt><trkpt lat="44.71129" lon="-0.49787"><ele>6.0</ele><time>2026-04-21T18:22:48.823Z</time></trkpt><trkpt lat="44.7113317" lon="-0.4979433"><ele>5.833333333333333</ele><time>2026-04-21T18:22:49.823Z</time></trkpt><trkpt lat="44.711375" lon="-0.4980167"><ele>5.666666666666667</ele><time>2026-04-21T18:22:50.823Z</time></trkpt><trkpt lat="44.711415" lon="-0.4980883"><ele>5.5</ele><time>2026-04-21T18:22:51.823Z</time></trkpt><trkpt lat="44.711495" lon="-0.498225"><ele>5.333333333333334</ele><time>2026-04-21T18:22:53.823Z</time></trkpt><trkpt lat="44.71157" lon="-0.498355"><ele>5.166666666666667</ele><time>2026-04-21T18:22:55.822Z</time></trkpt><trkpt lat="44.7116083" lon="-0.4984267"><ele>5.0</ele><time>2026-04-21T18:22:56.822Z</time></trkpt><trkpt lat="44.7116867" lon="-0.4985583"><ele>5.0</ele><time>2026-04-21T18:22:58.823Z</time></trkpt><trkpt lat="44.71173" lon="-0.4986267"><ele>5.0</ele><time>2026-04-21T18:22:59.822Z</time></trkpt><trkpt lat="44.7117717" lon="-0.4987"><ele>5.0</ele><time>2026-04-21T18:23:00.823Z</time></trkpt><trkpt lat="44.7118517" lon="-0.4988333"><ele>5.0</ele><time>2026-04-21T18:23:02.822Z</time></trkpt><trkpt lat="44.711935" lon="-0.498965"><ele>5.0</ele><time>2026-04-21T18:23:04.823Z</time></trkpt><trkpt lat="44.7119767" lon="-0.4990317"><ele>5.0</ele><time>2026-04-21T18:23:05.822Z</time></trkpt><trkpt lat="44.71202" lon="-0.4990983"><ele>5.75</ele><time>2026-04-21T18:23:06.823Z</time></trkpt><trkpt lat="44.7121033" lon="-0.4992183"><ele>6.5</ele><time>2026-04-21T18:23:08.822Z</time></trkpt><trkpt lat="44.7121817" lon="-0.499335"><ele>7.25</ele><time>2026-04-21T18:23:10.822Z</time></trkpt><trkpt lat="44.712265" lon="-0.4994483"><ele>8.0</ele><time>2026-04-21T18:23:12.823Z</time></trkpt><trkpt lat="44.7123417" lon="-0.49955"><ele>8.4</ele><time>2026-04-21T18:23:14.823Z</time></trkpt><trkpt lat="44.7124133" lon="-0.4996417"><ele>8.8</ele><time>2026-04-21T18:23:16.823Z</time></trkpt><trkpt lat="44.71249" lon="-0.4997533"><ele>9.2</ele><time>2026-04-21T18:23:18.823Z</time></trkpt><trkpt lat="44.71257" lon="-0.4998617"><ele>9.6</ele><time>2026-04-21T18:23:20.823Z</time></trkpt><trkpt lat="44.712645" lon="-0.4999667"><ele>10.0</ele><time>2026-04-21T18:23:22.823Z</time></trkpt><trkpt lat="44.71273" lon="-0.5000783"><ele>10.6</ele><time>2026-04-21T18:23:24.823Z</time></trkpt><trkpt lat="44.71281" lon="-0.5001917"><ele>11.2</ele><time>2026-04-21T18:23:26.823Z</time></trkpt><trkpt lat="44.7128967" lon="-0.5002917"><ele>11.8</ele><time>2026-04-21T18:23:28.822Z</time></trkpt><trkpt lat="44.7129767" lon="-0.5003867"><ele>12.4</ele><time>2026-04-21T18:23:30.823Z</time></trkpt><trkpt lat="44.713065" lon="-0.5004833"><ele>13.0</ele><time>2026-04-21T18:23:32.823Z</time></trkpt><trkpt lat="44.713155" lon="-0.5005833"><ele>13.0</ele><time>2026-04-21T18:23:34.823Z</time></trkpt><trkpt lat="44.7132367" lon="-0.5007067"><ele>13.0</ele><time>2026-04-21T18:23:36.823Z</time></trkpt><trkpt lat="44.7133133" lon="-0.5007983"><ele>13.0</ele><time>2026-04-21T18:23:38.823Z</time></trkpt><trkpt lat="44.7134017" lon="-0.5008933"><ele>13.0</ele><time>2026-04-21T18:23:40.822Z</time></trkpt><trkpt lat="44.71349" lon="-0.5009783"><ele>13.0</ele><time>2026-04-21T18:23:42.823Z</time></trkpt><trkpt lat="44.7135567" lon="-0.5010917"><ele>13.999999999999998</ele><time>2026-04-21T18:23:44.823Z</time></trkpt><trkpt lat="44.7136267" lon="-0.501185"><ele>15.0</ele><time>2026-04-21T18:23:46.823Z</time></trkpt><trkpt lat="44.7136933" lon="-0.5012683"><ele>16.0</ele><time>2026-04-21T18:23:48.823Z</time></trkpt><trkpt lat="44.71377" lon="-0.5013433"><ele>17.0</ele><time>2026-04-21T18:23:50.823Z</time></trkpt><trkpt lat="44.71383" lon="-0.5014217"><ele>18.0</ele><time>2026-04-21T18:23:52.823Z</time></trkpt><trkpt lat="44.7138917" lon="-0.5014833"><ele>19.0</ele><time>2026-04-21T18:23:54.822Z</time></trkpt><trkpt lat="44.7139433" lon="-0.5015417"><ele>19.0</ele><time>2026-04-21T18:23:56.823Z</time></trkpt><trkpt lat="44.71401" lon="-0.5016083"><ele>19.0</ele><time>2026-04-21T18:23:58.822Z</time></trkpt><trkpt lat="44.714085" lon="-0.501695"><ele>19.0</ele><time>2026-04-21T18:24:00.823Z</time></trkpt><trkpt lat="44.7141633" lon="-0.501785"><ele>19.0</ele><time>2026-04-21T18:24:02.822Z</time></trkpt><trkpt lat="44.7142317" lon="-0.5018683"><ele>19.0</ele><time>2026-04-21T18:24:04.823Z</time></trkpt><trkpt lat="44.71431" lon="-0.5019383"><ele>19.0</ele><time>2026-04-21T18:24:06.822Z</time></trkpt><trkpt lat="44.7143883" lon="-0.502015"><ele>19.0</ele><time>2026-04-21T18:24:08.823Z</time></trkpt><trkpt lat="44.7144767" lon="-0.5021217"><ele>19.0</ele><time>2026-04-21T18:24:10.823Z</time></trkpt><trkpt lat="44.714575" lon="-0.50221"><ele>19.0</ele><time>2026-04-21T18:24:12.822Z</time></trkpt><trkpt lat="44.7146733" lon="-0.5022767"><ele>19.0</ele><time>2026-04-21T18:24:14.823Z</time></trkpt><trkpt lat="44.714765" lon="-0.50234"><ele>19.6</ele><time>2026-04-21T18:24:16.823Z</time></trkpt><trkpt lat="44.7148583" lon="-0.5023933"><ele>20.2</ele><time>2026-04-21T18:24:18.823Z</time></trkpt><trkpt lat="44.7149517" lon="-0.50246"><ele>20.8</ele><time>2026-04-21T18:24:20.823Z</time></trkpt><trkpt lat="44.7150467" lon="-0.502515"><ele>21.400000000000002</ele><time>2026-04-21T18:24:22.823Z</time></trkpt><trkpt lat="44.71514" lon="-0.50261"><ele>22.0</ele><time>2026-04-21T18:24:24.823Z</time></trkpt><trkpt lat="44.7152217" lon="-0.5027033"><ele>21.200000000000003</ele><time>2026-04-21T18:24:26.823Z</time></trkpt><trkpt lat="44.715275" lon="-0.5028367"><ele>20.400000000000002</ele><time>2026-04-21T18:24:28.823Z</time></trkpt><trkpt lat="44.7153133" lon="-0.5029733"><ele>19.6</ele><time>2026-04-21T18:24:30.823Z</time></trkpt><trkpt lat="44.7153167" lon="-0.5031117"><ele>18.8</ele><time>2026-04-21T18:24:32.823Z</time></trkpt><trkpt lat="44.7152867" lon="-0.503245"><ele>18.0</ele><time>2026-04-21T18:24:34.823Z</time></trkpt><trkpt lat="44.715235" lon="-0.5033617"><ele>18.0</ele><time>2026-04-21T18:24:36.822Z</time></trkpt><trkpt lat="44.71519" lon="-0.50346"><ele>18.0</ele><time>2026-04-21T18:24:38.823Z</time></trkpt><trkpt lat="44.71514" lon="-0.50355"><ele>18.0</ele><time>2026-04-21T18:24:40.822Z</time></trkpt><trkpt lat="44.7150867" lon="-0.5036233"><ele>18.0</ele><time>2026-04-21T18:24:42.822Z</time></trkpt><trkpt lat="44.7150817" lon="-0.50376"><ele>18.0</ele><time>2026-04-21T18:24:44.823Z</time></trkpt><trkpt lat="44.7151333" lon="-0.5039183"><ele>17.666666666666668</ele><time>2026-04-21T18:24:46.823Z</time></trkpt><trkpt lat="44.7151633" lon="-0.5040017"><ele>17.333333333333332</ele><time>2026-04-21T18:24:47.823Z</time></trkpt><trkpt lat="44.7152" lon="-0.50409"><ele>17.0</ele><time>2026-04-21T18:24:48.823Z</time></trkpt><trkpt lat="44.7152333" lon="-0.504185"><ele>16.666666666666664</ele><time>2026-04-21T18:24:49.823Z</time></trkpt><trkpt lat="44.7152733" lon="-0.5042883"><ele>16.333333333333332</ele><time>2026-04-21T18:24:50.823Z</time></trkpt><trkpt lat="44.7153167" lon="-0.50438"><ele>16.0</ele><time>2026-04-21T18:24:51.823Z</time></trkpt><trkpt lat="44.7153733" lon="-0.5044733"><ele>15.499999999999998</ele><time>2026-04-21T18:24:52.822Z</time></trkpt><trkpt lat="44.7154367" lon="-0.50456"><ele>15.0</ele><time>2026-04-21T18:24:53.823Z</time></trkpt><trkpt lat="44.71551" lon="-0.50464"><ele>14.5</ele><time>2026-04-21T18:24:54.822Z</time></trkpt><trkpt lat="44.7155717" lon="-0.5047217"><ele>14.0</ele><time>2026-04-21T18:24:55.822Z</time></trkpt><trkpt lat="44.7156267" lon="-0.5048033"><ele>13.499999999999998</ele><time>2026-04-21T18:24:56.823Z</time></trkpt><trkpt lat="44.715685" lon="-0.5048783"><ele>13.0</ele><time>2026-04-21T18:24:57.823Z</time></trkpt><trkpt lat="44.71574" lon="-0.5049533"><ele>13.0</ele><time>2026-04-21T18:24:58.823Z</time></trkpt><trkpt lat="44.7157917" lon="-0.5050217"><ele>13.0</ele><time>2026-04-21T18:24:59.823Z</time></trkpt><trkpt lat="44.7158467" lon="-0.5050917"><ele>13.0</ele><time>2026-04-21T18:25:00.822Z</time></trkpt><trkpt lat="44.7158983" lon="-0.5051567"><ele>13.0</ele><time>2026-04-21T18:25:01.823Z</time></trkpt><trkpt lat="44.7159483" lon="-0.5052183"><ele>13.0</ele><time>2026-04-21T18:25:02.823Z</time></trkpt><trkpt lat="44.7159933" lon="-0.505285"><ele>13.0</ele><time>2026-04-21T18:25:03.823Z</time></trkpt><trkpt lat="44.71604" lon="-0.50535"><ele>13.0</ele><time>2026-04-21T18:25:04.823Z</time></trkpt><trkpt lat="44.7160867" lon="-0.505415"><ele>12.666666666666666</ele><time>2026-04-21T18:25:05.823Z</time></trkpt><trkpt lat="44.7161783" lon="-0.5055483"><ele>12.333333333333332</ele><time>2026-04-21T18:25:07.822Z</time></trkpt><trkpt lat="44.71623" lon="-0.5056017"><ele>12.0</ele><time>2026-04-21T18:25:08.823Z</time></trkpt><trkpt lat="44.7163167" lon="-0.5057283"><ele>11.666666666666666</ele><time>2026-04-21T18:25:10.823Z</time></trkpt><trkpt lat="44.71636" lon="-0.5057933"><ele>11.333333333333332</ele><time>2026-04-21T18:25:11.822Z</time></trkpt><trkpt lat="44.7164067" lon="-0.5058567"><ele>11.0</ele><time>2026-04-21T18:25:12.823Z</time></trkpt><trkpt lat="44.7164517" lon="-0.5059217"><ele>11.0</ele><time>2026-04-21T18:25:13.823Z</time></trkpt><trkpt lat="44.7164967" lon="-0.5059883"><ele>11.0</ele><time>2026-04-21T18:25:14.823Z</time></trkpt><trkpt lat="44.7165983" lon="-0.506095"><ele>11.0</ele><time>2026-04-21T18:25:16.823Z</time></trkpt><trkpt lat="44.716655" lon="-0.5061533"><ele>11.0</ele><time>2026-04-21T18:25:17.823Z</time></trkpt><trkpt lat="44.7167133" lon="-0.5062033"><ele>11.0</ele><time>2026-04-21T18:25:18.823Z</time></trkpt><trkpt lat="44.7167683" lon="-0.506255"><ele>11.0</ele><time>2026-04-21T18:25:19.823Z</time></trkpt><trkpt lat="44.7168233" lon="-0.5063"><ele>10.833333333333332</ele><time>2026-04-21T18:25:20.823Z</time></trkpt><trkpt lat="44.7168833" lon="-0.5063383"><ele>10.666666666666666</ele><time>2026-04-21T18:25:21.823Z</time></trkpt><trkpt lat="44.71695" lon="-0.5063633"><ele>10.5</ele><time>2026-04-21T18:25:22.823Z</time></trkpt><trkpt lat="44.717015" lon="-0.50637"><ele>10.333333333333334</ele><time>2026-04-21T18:25:23.823Z</time></trkpt><trkpt lat="44.7171317" lon="-0.506415"><ele>10.166666666666668</ele><time>2026-04-21T18:25:25.823Z</time></trkpt><trkpt lat="44.7171917" lon="-0.5064533"><ele>10.0</ele><time>2026-04-21T18:25:26.823Z</time></trkpt><trkpt lat="44.7173" lon="-0.5065317"><ele>10.0</ele><time>2026-04-21T18:25:28.823Z</time></trkpt><trkpt lat="44.7173583" lon="-0.5065917"><ele>10.0</ele><time>2026-04-21T18:25:29.823Z</time></trkpt><trkpt lat="44.717405" lon="-0.50668"><ele>10.0</ele><time>2026-04-21T18:25:30.822Z</time></trkpt><trkpt lat="44.717435" lon="-0.5067783"><ele>10.0</ele><time>2026-04-21T18:25:31.823Z</time></trkpt><trkpt lat="44.7174583" lon="-0.5069"><ele>10.0</ele><time>2026-04-21T18:25:32.822Z</time></trkpt><trkpt lat="44.7174683" lon="-0.507015"><ele>10.0</ele><time>2026-04-21T18:25:33.823Z</time></trkpt><trkpt lat="44.7174767" lon="-0.5071283"><ele>10.166666666666668</ele><time>2026-04-21T18:25:34.822Z</time></trkpt><trkpt lat="44.7174883" lon="-0.50723"><ele>10.333333333333334</ele><time>2026-04-21T18:25:35.823Z</time></trkpt><trkpt lat="44.7175117" lon="-0.5073383"><ele>10.5</ele><time>2026-04-21T18:25:36.823Z</time></trkpt><trkpt lat="44.71754" lon="-0.507435"><ele>10.666666666666666</ele><time>2026-04-21T18:25:37.823Z</time></trkpt><trkpt lat="44.7175717" lon="-0.5075417"><ele>10.833333333333332</ele><time>2026-04-21T18:25:38.822Z</time></trkpt><trkpt lat="44.7176" lon="-0.5076417"><ele>11.0</ele><time>2026-04-21T18:25:39.823Z</time></trkpt><trkpt lat="44.7176167" lon="-0.5077383"><ele>11.0</ele><time>2026-04-21T18:25:40.823Z</time></trkpt><trkpt lat="44.7176383" lon="-0.5078333"><ele>11.0</ele><time>2026-04-21T18:25:41.822Z</time></trkpt><trkpt lat="44.7176583" lon="-0.5079317"><ele>11.0</ele><time>2026-04-21T18:25:42.823Z</time></trkpt><trkpt lat="44.7177" lon="-0.5080967"><ele>11.0</ele><time>2026-04-21T18:25:44.823Z</time></trkpt><trkpt lat="44.717735" lon="-0.5082667"><ele>11.0</ele><time>2026-04-21T18:25:46.823Z</time></trkpt><trkpt lat="44.7177817" lon="-0.5084283"><ele>10.833333333333332</ele><time>2026-04-21T18:25:48.823Z</time></trkpt><trkpt lat="44.717795" lon="-0.5085233"><ele>10.666666666666666</ele><time>2026-04-21T18:25:49.823Z</time></trkpt><trkpt lat="44.7178083" lon="-0.5086233"><ele>10.5</ele><time>2026-04-21T18:25:50.823Z</time></trkpt><trkpt lat="44.717835" lon="-0.5087183"><ele>10.333333333333334</ele><time>2026-04-21T18:25:51.823Z</time></trkpt><trkpt lat="44.7178683" lon="-0.5088233"><ele>10.166666666666668</ele><time>2026-04-21T18:25:52.823Z</time></trkpt><trkpt lat="44.7179017" lon="-0.50893"><ele>10.0</ele><time>2026-04-21T18:25:53.823Z</time></trkpt><trkpt lat="44.7179383" lon="-0.5090317"><ele>10.0</ele><time>2026-04-21T18:25:54.823Z</time></trkpt><trkpt lat="44.7179717" lon="-0.5091267"><ele>10.0</ele><time>2026-04-21T18:25:55.823Z</time></trkpt><trkpt lat="44.7180033" lon="-0.5092117"><ele>10.0</ele><time>2026-04-21T18:25:56.823Z</time></trkpt><trkpt lat="44.7180367" lon="-0.5092983"><ele>10.0</ele><time>2026-04-21T18:25:57.823Z</time></trkpt><trkpt lat="44.71807" lon="-0.509375"><ele>10.0</ele><time>2026-04-21T18:25:58.823Z</time></trkpt><trkpt lat="44.71816" lon="-0.5094783"><ele>10.0</ele><time>2026-04-21T18:26:00.823Z</time></trkpt><trkpt lat="44.7182583" lon="-0.5095767"><ele>10.2</ele><time>2026-04-21T18:26:02.822Z</time></trkpt><trkpt lat="44.7183117" lon="-0.50963"><ele>10.4</ele><time>2026-04-21T18:26:03.823Z</time></trkpt><trkpt lat="44.718405" lon="-0.5097167"><ele>10.600000000000001</ele><time>2026-04-21T18:26:05.823Z</time></trkpt><trkpt lat="44.7185067" lon="-0.5097483"><ele>10.8</ele><time>2026-04-21T18:26:07.823Z</time></trkpt><trkpt lat="44.7186117" lon="-0.509695"><ele>11.0</ele><time>2026-04-21T18:26:09.823Z</time></trkpt><trkpt lat="44.718715" lon="-0.5096133"><ele>10.600000000000001</ele><time>2026-04-21T18:26:11.823Z</time></trkpt><trkpt lat="44.7188167" lon="-0.5095333"><ele>10.200000000000001</ele><time>2026-04-21T18:26:13.823Z</time></trkpt><trkpt lat="44.718925" lon="-0.509455"><ele>9.8</ele><time>2026-04-21T18:26:15.823Z</time></trkpt><trkpt lat="44.718985" lon="-0.509425"><ele>9.4</ele><time>2026-04-21T18:26:16.823Z</time></trkpt><trkpt lat="44.719045" lon="-0.5093933"><ele>9.0</ele><time>2026-04-21T18:26:17.823Z</time></trkpt><trkpt lat="44.7191367" lon="-0.5093333"><ele>9.0</ele><time>2026-04-21T18:26:19.823Z</time></trkpt><trkpt lat="44.7192117" lon="-0.5092683"><ele>9.0</ele><time>2026-04-21T18:26:21.823Z</time></trkpt><trkpt lat="44.71927" lon="-0.5092167"><ele>9.0</ele><time>2026-04-21T18:26:23.823Z</time></trkpt><trkpt lat="44.7193317" lon="-0.5091717"><ele>9.0</ele><time>2026-04-21T18:26:26.823Z</time></trkpt><trkpt lat="44.7194183" lon="-0.5091117"><ele>9.0</ele><time>2026-04-21T18:26:58.823Z</time></trkpt><trkpt lat="44.71948" lon="-0.50906"><ele>9.0</ele><time>2026-04-21T18:27:02.822Z</time></trkpt><trkpt lat="44.7195367" lon="-0.5090183"><ele>9.0</ele><time>2026-04-21T18:27:04.823Z</time></trkpt><trkpt lat="44.7196167" lon="-0.5089367"><ele>9.0</ele><time>2026-04-21T18:27:06.823Z</time></trkpt><trkpt lat="44.719715" lon="-0.508855"><ele>9.0</ele><time>2026-04-21T18:27:08.823Z</time></trkpt><trkpt lat="44.719815" lon="-0.5087817"><ele>9.0</ele><time>2026-04-21T18:27:10.823Z</time></trkpt><trkpt lat="44.7199117" lon="-0.5086833"><ele>9.0</ele><time>2026-04-21T18:27:12.823Z</time></trkpt><trkpt lat="44.7199917" lon="-0.5085983"><ele>9.2</ele><time>2026-04-21T18:27:14.823Z</time></trkpt><trkpt lat="44.720055" lon="-0.508465"><ele>9.4</ele><time>2026-04-21T18:27:16.823Z</time></trkpt><trkpt lat="44.7201033" lon="-0.50831"><ele>9.6</ele><time>2026-04-21T18:27:18.823Z</time></trkpt><trkpt lat="44.720145" lon="-0.5081783"><ele>9.8</ele><time>2026-04-21T18:27:20.823Z</time></trkpt><trkpt lat="44.72019" lon="-0.5080533"><ele>10.0</ele><time>2026-04-21T18:27:22.822Z</time></trkpt><trkpt lat="44.72026" lon="-0.507945"><ele>9.6</ele><time>2026-04-21T18:27:24.823Z</time></trkpt><trkpt lat="44.720345" lon="-0.5078683"><ele>9.2</ele><time>2026-04-21T18:27:26.823Z</time></trkpt><trkpt lat="44.7204483" lon="-0.507815"><ele>8.8</ele><time>2026-04-21T18:27:28.823Z</time></trkpt><trkpt lat="44.7205583" lon="-0.5077933"><ele>8.4</ele><time>2026-04-21T18:27:30.823Z</time></trkpt><trkpt lat="44.7206617" lon="-0.5077967"><ele>8.0</ele><time>2026-04-21T18:27:32.823Z</time></trkpt><trkpt lat="44.720755" lon="-0.50785"><ele>7.800000000000001</ele><time>2026-04-21T18:27:34.823Z</time></trkpt><trkpt lat="44.7208483" lon="-0.5079367"><ele>7.6000000000000005</ele><time>2026-04-21T18:27:36.823Z</time></trkpt><trkpt lat="44.72094" lon="-0.5080317"><ele>7.3999999999999995</ele><time>2026-04-21T18:27:38.823Z</time></trkpt><trkpt lat="44.7210267" lon="-0.5081267"><ele>7.199999999999999</ele><time>2026-04-21T18:27:40.823Z</time></trkpt><trkpt lat="44.7211167" lon="-0.5082233"><ele>7.0</ele><time>2026-04-21T18:27:42.823Z</time></trkpt><trkpt lat="44.7213" lon="-0.5084333"><ele>7.0</ele><time>2026-04-21T18:27:46.823Z</time></trkpt><trkpt lat="44.7213967" lon="-0.5085533"><ele>6.999999999999999</ele><time>2026-04-21T18:27:48.822Z</time></trkpt><trkpt lat="44.7214933" lon="-0.5086717"><ele>6.999999999999999</ele><time>2026-04-21T18:27:50.823Z</time></trkpt><trkpt lat="44.7215417" lon="-0.508735"><ele>7.0</ele><time>2026-04-21T18:27:51.823Z</time></trkpt><trkpt lat="44.721595" lon="-0.5087983"><ele>7.0</ele><time>2026-04-21T18:27:52.823Z</time></trkpt><trkpt lat="44.7216467" lon="-0.5088567"><ele>7.166666666666667</ele><time>2026-04-21T18:27:53.823Z</time></trkpt><trkpt lat="44.7217017" lon="-0.508915"><ele>7.333333333333334</ele><time>2026-04-21T18:27:54.823Z</time></trkpt><trkpt lat="44.721755" lon="-0.508975"><ele>7.5</ele><time>2026-04-21T18:27:55.823Z</time></trkpt><trkpt lat="44.7218067" lon="-0.5090333"><ele>7.666666666666666</ele><time>2026-04-21T18:27:56.823Z</time></trkpt><trkpt lat="44.7219083" lon="-0.5091517"><ele>7.833333333333333</ele><time>2026-04-21T18:27:58.823Z</time></trkpt><trkpt lat="44.7219633" lon="-0.5092167"><ele>8.0</ele><time>2026-04-21T18:27:59.823Z</time></trkpt><trkpt lat="44.722015" lon="-0.509275"><ele>7.666666666666666</ele><time>2026-04-21T18:28:00.822Z</time></trkpt><trkpt lat="44.72207" lon="-0.50933"><ele>7.333333333333333</ele><time>2026-04-21T18:28:01.823Z</time></trkpt><trkpt lat="44.722115" lon="-0.5093933"><ele>7.0</ele><time>2026-04-21T18:28:02.822Z</time></trkpt><trkpt lat="44.722215" lon="-0.5095133"><ele>6.666666666666666</ele><time>2026-04-21T18:28:04.822Z</time></trkpt><trkpt lat="44.7222667" lon="-0.5095683"><ele>6.333333333333333</ele><time>2026-04-21T18:28:05.822Z</time></trkpt><trkpt lat="44.7223233" lon="-0.5096267"><ele>6.0</ele><time>2026-04-21T18:28:06.822Z</time></trkpt><trkpt lat="44.7223767" lon="-0.5096867"><ele>5.999999999999999</ele><time>2026-04-21T18:28:07.822Z</time></trkpt><trkpt lat="44.7224267" lon="-0.5097417"><ele>6.0</ele><time>2026-04-21T18:28:08.822Z</time></trkpt><trkpt lat="44.7224767" lon="-0.5098"><ele>6.0</ele><time>2026-04-21T18:28:09.822Z</time></trkpt><trkpt lat="44.7225267" lon="-0.50987"><ele>6.0</ele><time>2026-04-21T18:28:10.822Z</time></trkpt><trkpt lat="44.7225733" lon="-0.50993"><ele>6.0</ele><time>2026-04-21T18:28:11.822Z</time></trkpt><trkpt lat="44.7226267" lon="-0.5099883"><ele>5.999999999999999</ele><time>2026-04-21T18:28:12.822Z</time></trkpt><trkpt lat="44.7226833" lon="-0.5100517"><ele>6.0</ele><time>2026-04-21T18:28:13.821Z</time></trkpt><trkpt lat="44.7227333" lon="-0.510115"><ele>5.999999999999999</ele><time>2026-04-21T18:28:14.822Z</time></trkpt><trkpt lat="44.722785" lon="-0.51018"><ele>6.0</ele><time>2026-04-21T18:28:15.822Z</time></trkpt><trkpt lat="44.7228417" lon="-0.5102417"><ele>6.0</ele><time>2026-04-21T18:28:16.822Z</time></trkpt><trkpt lat="44.7228967" lon="-0.5103033"><ele>6.0</ele><time>2026-04-21T18:28:17.821Z</time></trkpt><trkpt lat="44.7229583" lon="-0.5103717"><ele>6.0</ele><time>2026-04-21T18:28:18.822Z</time></trkpt><trkpt lat="44.7230167" lon="-0.5104417"><ele>5.999999999999999</ele><time>2026-04-21T18:28:19.822Z</time></trkpt><trkpt lat="44.7230683" lon="-0.510505"><ele>6.0</ele><time>2026-04-21T18:28:20.822Z</time></trkpt><trkpt lat="44.72312" lon="-0.5105733"><ele>5.999999999999999</ele><time>2026-04-21T18:28:21.822Z</time></trkpt><trkpt lat="44.7231717" lon="-0.5106383"><ele>6.0</ele><time>2026-04-21T18:28:22.822Z</time></trkpt><trkpt lat="44.7232267" lon="-0.5107033"><ele>6.0</ele><time>2026-04-21T18:28:23.822Z</time></trkpt><trkpt lat="44.7232867" lon="-0.51077"><ele>6.0</ele><time>2026-04-21T18:28:24.822Z</time></trkpt><trkpt lat="44.723345" lon="-0.510835"><ele>6.0</ele><time>2026-04-21T18:28:25.821Z</time></trkpt><trkpt lat="44.7234017" lon="-0.5108967"><ele>5.999999999999999</ele><time>2026-04-21T18:28:26.822Z</time></trkpt><trkpt lat="44.7234583" lon="-0.51096"><ele>6.0</ele><time>2026-04-21T18:28:27.822Z</time></trkpt><trkpt lat="44.72352" lon="-0.5110233"><ele>5.999999999999999</ele><time>2026-04-21T18:28:28.822Z</time></trkpt><trkpt lat="44.7235767" lon="-0.51109"><ele>6.0</ele><time>2026-04-21T18:28:29.822Z</time></trkpt><trkpt lat="44.7236333" lon="-0.5111567"><ele>6.0</ele><time>2026-04-21T18:28:30.822Z</time></trkpt><trkpt lat="44.723695" lon="-0.5112267"><ele>6.0</ele><time>2026-04-21T18:28:31.822Z</time></trkpt><trkpt lat="44.7237533" lon="-0.5112967"><ele>6.0</ele><time>2026-04-21T18:28:32.821Z</time></trkpt><trkpt lat="44.72381" lon="-0.5113583"><ele>5.999999999999999</ele><time>2026-04-21T18:28:33.822Z</time></trkpt><trkpt lat="44.7238633" lon="-0.5114217"><ele>6.0</ele><time>2026-04-21T18:28:34.822Z</time></trkpt><trkpt lat="44.723915" lon="-0.5114783"><ele>5.999999999999999</ele><time>2026-04-21T18:28:35.822Z</time></trkpt><trkpt lat="44.72397" lon="-0.5115433"><ele>6.0</ele><time>2026-04-21T18:28:36.821Z</time></trkpt><trkpt lat="44.7240233" lon="-0.5116083"><ele>6.0</ele><time>2026-04-21T18:28:37.822Z</time></trkpt><trkpt lat="44.7240783" lon="-0.5116683"><ele>6.0</ele><time>2026-04-21T18:28:38.822Z</time></trkpt><trkpt lat="44.724135" lon="-0.5117283"><ele>6.0</ele><time>2026-04-21T18:28:39.822Z</time></trkpt><trkpt lat="44.7241883" lon="-0.5117867"><ele>5.999999999999999</ele><time>2026-04-21T18:28:40.822Z</time></trkpt><trkpt lat="44.7242433" lon="-0.511855"><ele>6.0</ele><time>2026-04-21T18:28:41.821Z</time></trkpt><trkpt lat="44.7242967" lon="-0.5119167"><ele>5.999999999999999</ele><time>2026-04-21T18:28:42.822Z</time></trkpt><trkpt lat="44.72435" lon="-0.5119783"><ele>6.0</ele><time>2026-04-21T18:28:43.821Z</time></trkpt><trkpt lat="44.7244033" lon="-0.5120383"><ele>6.0</ele><time>2026-04-21T18:28:44.822Z</time></trkpt><trkpt lat="44.7244583" lon="-0.5121017"><ele>6.0</ele><time>2026-04-21T18:28:45.821Z</time></trkpt><trkpt lat="44.7245133" lon="-0.5121667"><ele>6.0</ele><time>2026-04-21T18:28:46.821Z</time></trkpt><trkpt lat="44.7245667" lon="-0.5122317"><ele>5.999999999999999</ele><time>2026-04-21T18:28:47.822Z</time></trkpt><trkpt lat="44.7246167" lon="-0.5122933"><ele>6.0</ele><time>2026-04-21T18:28:48.821Z</time></trkpt><trkpt lat="44.7246683" lon="-0.5123533"><ele>6.142857142857142</ele><time>2026-04-21T18:28:49.822Z</time></trkpt><trkpt lat="44.72472" lon="-0.512415"><ele>6.285714285714286</ele><time>2026-04-21T18:28:50.822Z</time></trkpt><trkpt lat="44.7247767" lon="-0.5124783"><ele>6.428571428571429</ele><time>2026-04-21T18:28:51.822Z</time></trkpt><trkpt lat="44.7248333" lon="-0.512545"><ele>6.571428571428571</ele><time>2026-04-21T18:28:52.822Z</time></trkpt><trkpt lat="44.7248867" lon="-0.5126067"><ele>6.714285714285714</ele><time>2026-04-21T18:28:53.822Z</time></trkpt><trkpt lat="44.724945" lon="-0.5126583"><ele>6.857142857142857</ele><time>2026-04-21T18:28:54.822Z</time></trkpt><trkpt lat="44.725005" lon="-0.5127033"><ele>7.0</ele><time>2026-04-21T18:28:55.821Z</time></trkpt><trkpt lat="44.7250683" lon="-0.512745"><ele>7.0</ele><time>2026-04-21T18:28:56.822Z</time></trkpt><trkpt lat="44.7251317" lon="-0.5127783"><ele>7.0</ele><time>2026-04-21T18:28:57.822Z</time></trkpt><trkpt lat="44.7251983" lon="-0.5127967"><ele>7.0</ele><time>2026-04-21T18:28:58.822Z</time></trkpt><trkpt lat="44.72527" lon="-0.5128017"><ele>7.0</ele><time>2026-04-21T18:28:59.822Z</time></trkpt><trkpt lat="44.725335" lon="-0.5127867"><ele>7.0</ele><time>2026-04-21T18:29:00.822Z</time></trkpt><trkpt lat="44.7253983" lon="-0.51277"><ele>7.0</ele><time>2026-04-21T18:29:01.822Z</time></trkpt><trkpt lat="44.725465" lon="-0.5127367"><ele>7.0</ele><time>2026-04-21T18:29:02.822Z</time></trkpt><trkpt lat="44.72553" lon="-0.5126917"><ele>7.0</ele><time>2026-04-21T18:29:03.822Z</time></trkpt><trkpt lat="44.7255933" lon="-0.5126483"><ele>7.0</ele><time>2026-04-21T18:29:04.822Z</time></trkpt><trkpt lat="44.7256567" lon="-0.5126017"><ele>7.0</ele><time>2026-04-21T18:29:05.821Z</time></trkpt><trkpt lat="44.7257183" lon="-0.5125633"><ele>7.0</ele><time>2026-04-21T18:29:06.822Z</time></trkpt><trkpt lat="44.7257833" lon="-0.51252"><ele>7.0</ele><time>2026-04-21T18:29:07.821Z</time></trkpt><trkpt lat="44.725845" lon="-0.5124817"><ele>7.0</ele><time>2026-04-21T18:29:08.822Z</time></trkpt><trkpt lat="44.7259067" lon="-0.51244"><ele>7.0</ele><time>2026-04-21T18:29:09.822Z</time></trkpt><trkpt lat="44.7259683" lon="-0.5124"><ele>7.0</ele><time>2026-04-21T18:29:10.822Z</time></trkpt><trkpt lat="44.72603" lon="-0.5123667"><ele>7.0</ele><time>2026-04-21T18:29:11.822Z</time></trkpt><trkpt lat="44.726095" lon="-0.512335"><ele>7.0</ele><time>2026-04-21T18:29:12.821Z</time></trkpt><trkpt lat="44.7261567" lon="-0.5122967"><ele>7.0</ele><time>2026-04-21T18:29:13.822Z</time></trkpt><trkpt lat="44.7262183" lon="-0.5122633"><ele>7.0</ele><time>2026-04-21T18:29:14.822Z</time></trkpt><trkpt lat="44.72628" lon="-0.5122233"><ele>7.0</ele><time>2026-04-21T18:29:15.822Z</time></trkpt><trkpt lat="44.7263417" lon="-0.5121833"><ele>7.0</ele><time>2026-04-21T18:29:16.822Z</time></trkpt><trkpt lat="44.7264" lon="-0.512145"><ele>6.714285714285714</ele><time>2026-04-21T18:29:17.821Z</time></trkpt><trkpt lat="44.7264567" lon="-0.512105"><ele>6.428571428571429</ele><time>2026-04-21T18:29:18.822Z</time></trkpt><trkpt lat="44.7265183" lon="-0.5120633"><ele>6.142857142857142</ele><time>2026-04-21T18:29:19.822Z</time></trkpt><trkpt lat="44.7265817" lon="-0.512025"><ele>5.857142857142858</ele><time>2026-04-21T18:29:20.821Z</time></trkpt><trkpt lat="44.726645" lon="-0.5119883"><ele>5.571428571428571</ele><time>2026-04-21T18:29:21.821Z</time></trkpt><trkpt lat="44.7267083" lon="-0.5119467"><ele>5.285714285714286</ele><time>2026-04-21T18:29:22.821Z</time></trkpt><trkpt lat="44.7267733" lon="-0.5119"><ele>5.0</ele><time>2026-04-21T18:29:23.822Z</time></trkpt><trkpt lat="44.7268833" lon="-0.51182"><ele>4.857142857142857</ele><time>2026-04-21T18:29:25.822Z</time></trkpt><trkpt lat="44.726945" lon="-0.5118"><ele>4.714285714285714</ele><time>2026-04-21T18:29:26.821Z</time></trkpt><trkpt lat="44.72701" lon="-0.5117917"><ele>4.571428571428571</ele><time>2026-04-21T18:29:27.822Z</time></trkpt><trkpt lat="44.7270767" lon="-0.5117867"><ele>4.428571428571429</ele><time>2026-04-21T18:29:28.822Z</time></trkpt><trkpt lat="44.7271417" lon="-0.51179"><ele>4.285714285714286</ele><time>2026-04-21T18:29:29.821Z</time></trkpt><trkpt lat="44.727205" lon="-0.5117967"><ele>4.142857142857142</ele><time>2026-04-21T18:29:30.821Z</time></trkpt><trkpt lat="44.7272717" lon="-0.511805"><ele>4.0</ele><time>2026-04-21T18:29:31.821Z</time></trkpt><trkpt lat="44.72734" lon="-0.5118233"><ele>4.0</ele><time>2026-04-21T18:29:32.822Z</time></trkpt><trkpt lat="44.72741" lon="-0.5118383"><ele>3.9999999999999996</ele><time>2026-04-21T18:29:33.821Z</time></trkpt><trkpt lat="44.7274767" lon="-0.51185"><ele>4.0</ele><time>2026-04-21T18:29:34.822Z</time></trkpt><trkpt lat="44.7275417" lon="-0.5118617"><ele>4.0</ele><time>2026-04-21T18:29:35.821Z</time></trkpt><trkpt lat="44.72761" lon="-0.5118767"><ele>3.9999999999999996</ele><time>2026-04-21T18:29:36.821Z</time></trkpt><trkpt lat="44.7276833" lon="-0.5118767"><ele>4.0</ele><time>2026-04-21T18:29:37.822Z</time></trkpt><trkpt lat="44.7277583" lon="-0.5118817"><ele>4.0</ele><time>2026-04-21T18:29:38.821Z</time></trkpt><trkpt lat="44.7278283" lon="-0.5118817"><ele>4.333333333333333</ele><time>2026-04-21T18:29:39.822Z</time></trkpt><trkpt lat="44.727895" lon="-0.51189"><ele>4.666666666666666</ele><time>2026-04-21T18:29:40.821Z</time></trkpt><trkpt lat="44.728025" lon="-0.511915"><ele>5.0</ele><time>2026-04-21T18:29:42.822Z</time></trkpt><trkpt lat="44.7280883" lon="-0.5119283"><ele>5.333333333333333</ele><time>2026-04-21T18:29:43.822Z</time></trkpt><trkpt lat="44.7281567" lon="-0.5119383"><ele>5.666666666666667</ele><time>2026-04-21T18:29:44.822Z</time></trkpt><trkpt lat="44.7282233" lon="-0.5119567"><ele>6.0</ele><time>2026-04-21T18:29:45.822Z</time></trkpt><trkpt lat="44.728285" lon="-0.5120017"><ele>5.666666666666667</ele><time>2026-04-21T18:29:46.822Z</time></trkpt><trkpt lat="44.7283283" lon="-0.5120767"><ele>5.333333333333333</ele><time>2026-04-21T18:29:47.822Z</time></trkpt><trkpt lat="44.72836" lon="-0.51225"><ele>5.0</ele><time>2026-04-21T18:29:49.822Z</time></trkpt><trkpt lat="44.7283533" lon="-0.51234"><ele>4.666666666666666</ele><time>2026-04-21T18:29:50.822Z</time></trkpt><trkpt lat="44.728335" lon="-0.51243"><ele>4.333333333333333</ele><time>2026-04-21T18:29:51.822Z</time></trkpt><trkpt lat="44.7283183" lon="-0.5125183"><ele>4.0</ele><time>2026-04-21T18:29:52.822Z</time></trkpt><trkpt lat="44.7282817" lon="-0.5126817"><ele>4.0</ele><time>2026-04-21T18:29:54.822Z</time></trkpt><trkpt lat="44.7282567" lon="-0.51285"><ele>3.9999999999999996</ele><time>2026-04-21T18:29:56.821Z</time></trkpt><trkpt lat="44.7282417" lon="-0.5129367"><ele>4.0</ele><time>2026-04-21T18:29:57.822Z</time></trkpt><trkpt lat="44.728235" lon="-0.5130267"><ele>4.0</ele><time>2026-04-21T18:29:58.822Z</time></trkpt><trkpt lat="44.7282267" lon="-0.5131167"><ele>3.9999999999999996</ele><time>2026-04-21T18:29:59.822Z</time></trkpt><trkpt lat="44.7282167" lon="-0.5132083"><ele>4.0</ele><time>2026-04-21T18:30:00.821Z</time></trkpt><trkpt lat="44.7282083" lon="-0.5132983"><ele>4.0</ele><time>2026-04-21T18:30:01.822Z</time></trkpt><trkpt lat="44.7282" lon="-0.51339"><ele>3.833333333333333</ele><time>2026-04-21T18:30:02.822Z</time></trkpt><trkpt lat="44.7281933" lon="-0.5134833"><ele>3.6666666666666665</ele><time>2026-04-21T18:30:03.822Z</time></trkpt><trkpt lat="44.7281983" lon="-0.5135717"><ele>3.5</ele><time>2026-04-21T18:30:04.822Z</time></trkpt><trkpt lat="44.7281983" lon="-0.5136617"><ele>3.333333333333333</ele><time>2026-04-21T18:30:05.822Z</time></trkpt><trkpt lat="44.7281967" lon="-0.513765"><ele>3.1666666666666665</ele><time>2026-04-21T18:30:06.821Z</time></trkpt><trkpt lat="44.72819" lon="-0.5138683"><ele>3.0</ele><time>2026-04-21T18:30:07.821Z</time></trkpt><trkpt lat="44.7281933" lon="-0.51405"><ele>3.3333333333333335</ele><time>2026-04-21T18:30:09.821Z</time></trkpt><trkpt lat="44.7281933" lon="-0.5141433"><ele>3.666666666666667</ele><time>2026-04-21T18:30:10.822Z</time></trkpt><trkpt lat="44.7281917" lon="-0.5142333"><ele>4.0</ele><time>2026-04-21T18:30:11.822Z</time></trkpt><trkpt lat="44.7281967" lon="-0.5144083"><ele>4.333333333333334</ele><time>2026-04-21T18:30:13.822Z</time></trkpt><trkpt lat="44.7281967" lon="-0.51458"><ele>4.666666666666667</ele><time>2026-04-21T18:30:15.821Z</time></trkpt><trkpt lat="44.7281933" lon="-0.51467"><ele>5.0</ele><time>2026-04-21T18:30:16.821Z</time></trkpt><trkpt lat="44.7281833" lon="-0.5148483"><ele>5.142857142857142</ele><time>2026-04-21T18:30:18.822Z</time></trkpt><trkpt lat="44.7281767" lon="-0.5149367"><ele>5.285714285714286</ele><time>2026-04-21T18:30:19.822Z</time></trkpt><trkpt lat="44.7281717" lon="-0.5150267"><ele>5.428571428571429</ele><time>2026-04-21T18:30:20.822Z</time></trkpt><trkpt lat="44.7281667" lon="-0.51512"><ele>5.571428571428571</ele><time>2026-04-21T18:30:21.821Z</time></trkpt><trkpt lat="44.7281667" lon="-0.5152133"><ele>5.714285714285714</ele><time>2026-04-21T18:30:22.822Z</time></trkpt><trkpt lat="44.7281567" lon="-0.5153817"><ele>5.857142857142857</ele><time>2026-04-21T18:30:24.822Z</time></trkpt><trkpt lat="44.72815" lon="-0.515475"><ele>6.0</ele><time>2026-04-21T18:30:25.822Z</time></trkpt><trkpt lat="44.7281483" lon="-0.51557"><ele>5.999999999999999</ele><time>2026-04-21T18:30:26.822Z</time></trkpt><trkpt lat="44.7281417" lon="-0.5156617"><ele>6.0</ele><time>2026-04-21T18:30:27.821Z</time></trkpt><trkpt lat="44.7281283" lon="-0.5157533"><ele>6.0</ele><time>2026-04-21T18:30:28.822Z</time></trkpt><trkpt lat="44.72812" lon="-0.5158533"><ele>6.0</ele><time>2026-04-21T18:30:29.822Z</time></trkpt><trkpt lat="44.7281083" lon="-0.51595"><ele>6.0</ele><time>2026-04-21T18:30:30.822Z</time></trkpt><trkpt lat="44.7280967" lon="-0.5160433"><ele>5.999999999999999</ele><time>2026-04-21T18:30:31.822Z</time></trkpt><trkpt lat="44.728085" lon="-0.5161383"><ele>6.0</ele><time>2026-04-21T18:30:32.822Z</time></trkpt><trkpt lat="44.7280733" lon="-0.5162317"><ele>6.0</ele><time>2026-04-21T18:30:33.821Z</time></trkpt><trkpt lat="44.7280617" lon="-0.5163267"><ele>6.0</ele><time>2026-04-21T18:30:34.822Z</time></trkpt><trkpt lat="44.7280483" lon="-0.516415"><ele>6.0</ele><time>2026-04-21T18:30:35.822Z</time></trkpt><trkpt lat="44.7280217" lon="-0.516585"><ele>6.0</ele><time>2026-04-21T18:30:37.822Z</time></trkpt><trkpt lat="44.7280083" lon="-0.5166833"><ele>6.0</ele><time>2026-04-21T18:30:38.822Z</time></trkpt><trkpt lat="44.72799" lon="-0.5167733"><ele>6.0</ele><time>2026-04-21T18:30:39.821Z</time></trkpt><trkpt lat="44.7279733" lon="-0.5168617"><ele>6.0</ele><time>2026-04-21T18:30:40.822Z</time></trkpt><trkpt lat="44.7279633" lon="-0.5169567"><ele>6.0</ele><time>2026-04-21T18:30:41.822Z</time></trkpt><trkpt lat="44.7279417" lon="-0.5171283"><ele>6.0</ele><time>2026-04-21T18:30:43.821Z</time></trkpt><trkpt lat="44.7279267" lon="-0.5172183"><ele>6.0</ele><time>2026-04-21T18:30:44.822Z</time></trkpt><trkpt lat="44.7279133" lon="-0.5173067"><ele>6.0</ele><time>2026-04-21T18:30:45.821Z</time></trkpt><trkpt lat="44.7279017" lon="-0.5173983"><ele>6.0</ele><time>2026-04-21T18:30:46.821Z</time></trkpt><trkpt lat="44.7278933" lon="-0.5174933"><ele>6.142857142857142</ele><time>2026-04-21T18:30:47.821Z</time></trkpt><trkpt lat="44.7278783" lon="-0.51759"><ele>6.285714285714286</ele><time>2026-04-21T18:30:48.822Z</time></trkpt><trkpt lat="44.7278667" lon="-0.517685"><ele>6.428571428571429</ele><time>2026-04-21T18:30:49.821Z</time></trkpt><trkpt lat="44.7278617" lon="-0.5177783"><ele>6.571428571428571</ele><time>2026-04-21T18:30:50.822Z</time></trkpt><trkpt lat="44.727865" lon="-0.5178683"><ele>6.714285714285714</ele><time>2026-04-21T18:30:51.822Z</time></trkpt><trkpt lat="44.7278733" lon="-0.5179617"><ele>6.857142857142857</ele><time>2026-04-21T18:30:52.821Z</time></trkpt><trkpt lat="44.72789" lon="-0.5180517"><ele>7.0</ele><time>2026-04-21T18:30:53.822Z</time></trkpt><trkpt lat="44.7279133" lon="-0.5181417"><ele>7.000000000000001</ele><time>2026-04-21T18:30:54.822Z</time></trkpt><trkpt lat="44.7279367" lon="-0.51823"><ele>7.0</ele><time>2026-04-21T18:30:55.822Z</time></trkpt><trkpt lat="44.727965" lon="-0.51831"><ele>7.0</ele><time>2026-04-21T18:30:56.822Z</time></trkpt><trkpt lat="44.7279983" lon="-0.5183917"><ele>7.0</ele><time>2026-04-21T18:30:57.822Z</time></trkpt><trkpt lat="44.7280667" lon="-0.5185217"><ele>7.000000000000001</ele><time>2026-04-21T18:30:59.822Z</time></trkpt><trkpt lat="44.72815" lon="-0.51864"><ele>7.0</ele><time>2026-04-21T18:31:01.822Z</time></trkpt><trkpt lat="44.7282333" lon="-0.51877"><ele>7.0</ele><time>2026-04-21T18:31:03.821Z</time></trkpt><trkpt lat="44.72832" lon="-0.5188917"><ele>6.999999999999999</ele><time>2026-04-21T18:31:05.822Z</time></trkpt><trkpt lat="44.7284083" lon="-0.519005"><ele>6.999999999999999</ele><time>2026-04-21T18:31:07.822Z</time></trkpt><trkpt lat="44.7285017" lon="-0.5191267"><ele>7.0</ele><time>2026-04-21T18:31:09.822Z</time></trkpt><trkpt lat="44.7285517" lon="-0.5191883"><ele>7.0</ele><time>2026-04-21T18:31:10.822Z</time></trkpt><trkpt lat="44.7286517" lon="-0.5192967"><ele>7.333333333333334</ele><time>2026-04-21T18:31:12.822Z</time></trkpt><trkpt lat="44.72875" lon="-0.5193967"><ele>7.666666666666667</ele><time>2026-04-21T18:31:14.821Z</time></trkpt><trkpt lat="44.7288033" lon="-0.5194583"><ele>8.0</ele><time>2026-04-21T18:31:15.822Z</time></trkpt><trkpt lat="44.72886" lon="-0.5195167"><ele>8.333333333333334</ele><time>2026-04-21T18:31:16.822Z</time></trkpt><trkpt lat="44.7289117" lon="-0.519575"><ele>8.666666666666666</ele><time>2026-04-21T18:31:17.821Z</time></trkpt><trkpt lat="44.7289633" lon="-0.519635"><ele>9.0</ele><time>2026-04-21T18:31:18.822Z</time></trkpt><trkpt lat="44.729015" lon="-0.5196883"><ele>9.000000000000002</ele><time>2026-04-21T18:31:19.822Z</time></trkpt><trkpt lat="44.7290683" lon="-0.5197433"><ele>9.0</ele><time>2026-04-21T18:31:20.822Z</time></trkpt><trkpt lat="44.7291233" lon="-0.5198017"><ele>9.0</ele><time>2026-04-21T18:31:21.822Z</time></trkpt><trkpt lat="44.729175" lon="-0.5198583"><ele>9.0</ele><time>2026-04-21T18:31:22.821Z</time></trkpt><trkpt lat="44.7292233" lon="-0.5199183"><ele>9.0</ele><time>2026-04-21T18:31:23.821Z</time></trkpt><trkpt lat="44.7292767" lon="-0.5199767"><ele>9.000000000000002</ele><time>2026-04-21T18:31:24.822Z</time></trkpt><trkpt lat="44.7293333" lon="-0.5200333"><ele>9.0</ele><time>2026-04-21T18:31:25.821Z</time></trkpt><trkpt lat="44.7293917" lon="-0.520095"><ele>8.857142857142858</ele><time>2026-04-21T18:31:26.821Z</time></trkpt><trkpt lat="44.7294517" lon="-0.52015"><ele>8.714285714285715</ele><time>2026-04-21T18:31:27.822Z</time></trkpt><trkpt lat="44.7295067" lon="-0.52021"><ele>8.571428571428571</ele><time>2026-04-21T18:31:28.822Z</time></trkpt><trkpt lat="44.7295617" lon="-0.5202717"><ele>8.428571428571429</ele><time>2026-04-21T18:31:29.821Z</time></trkpt><trkpt lat="44.7296183" lon="-0.52033"><ele>8.285714285714285</ele><time>2026-04-21T18:31:30.822Z</time></trkpt><trkpt lat="44.7296683" lon="-0.5203933"><ele>8.142857142857142</ele><time>2026-04-21T18:31:31.822Z</time></trkpt><trkpt lat="44.72972" lon="-0.5204533"><ele>8.0</ele><time>2026-04-21T18:31:32.821Z</time></trkpt><trkpt lat="44.7297733" lon="-0.5205133"><ele>8.0</ele><time>2026-04-21T18:31:33.822Z</time></trkpt><trkpt lat="44.72983" lon="-0.52057"><ele>7.999999999999999</ele><time>2026-04-21T18:31:34.822Z</time></trkpt><trkpt lat="44.7298867" lon="-0.5206317"><ele>8.0</ele><time>2026-04-21T18:31:35.821Z</time></trkpt><trkpt lat="44.7299417" lon="-0.5206883"><ele>8.0</ele><time>2026-04-21T18:31:36.822Z</time></trkpt><trkpt lat="44.7299983" lon="-0.52075"><ele>7.999999999999999</ele><time>2026-04-21T18:31:37.821Z</time></trkpt><trkpt lat="44.7300517" lon="-0.5208083"><ele>8.0</ele><time>2026-04-21T18:31:38.822Z</time></trkpt><trkpt lat="44.7301083" lon="-0.5208683"><ele>8.0</ele><time>2026-04-21T18:31:39.822Z</time></trkpt><trkpt lat="44.7301633" lon="-0.520935"><ele>8.0</ele><time>2026-04-21T18:31:40.822Z</time></trkpt><trkpt lat="44.7302183" lon="-0.5209983"><ele>7.999999999999999</ele><time>2026-04-21T18:31:41.821Z</time></trkpt><trkpt lat="44.730275" lon="-0.521065"><ele>8.0</ele><time>2026-04-21T18:31:42.822Z</time></trkpt><trkpt lat="44.7303283" lon="-0.5211283"><ele>8.0</ele><time>2026-04-21T18:31:43.822Z</time></trkpt><trkpt lat="44.73038" lon="-0.5212017"><ele>7.999999999999999</ele><time>2026-04-21T18:31:44.822Z</time></trkpt><trkpt lat="44.7304283" lon="-0.5212683"><ele>8.0</ele><time>2026-04-21T18:31:45.822Z</time></trkpt><trkpt lat="44.73048" lon="-0.5213317"><ele>8.0</ele><time>2026-04-21T18:31:46.822Z</time></trkpt><trkpt lat="44.7305383" lon="-0.5213967"><ele>8.0</ele><time>2026-04-21T18:31:47.821Z</time></trkpt><trkpt lat="44.7305917" lon="-0.5214633"><ele>7.999999999999999</ele><time>2026-04-21T18:31:48.821Z</time></trkpt><trkpt lat="44.7306467" lon="-0.5215267"><ele>8.0</ele><time>2026-04-21T18:31:49.822Z</time></trkpt><trkpt lat="44.7306933" lon="-0.5216083"><ele>8.0</ele><time>2026-04-21T18:31:50.822Z</time></trkpt><trkpt lat="44.730735" lon="-0.521685"><ele>7.999999999999999</ele><time>2026-04-21T18:31:51.822Z</time></trkpt><trkpt lat="44.7307783" lon="-0.52177"><ele>8.0</ele><time>2026-04-21T18:31:52.821Z</time></trkpt><trkpt lat="44.73082" lon="-0.5218467"><ele>8.0</ele><time>2026-04-21T18:31:53.822Z</time></trkpt><trkpt lat="44.73085" lon="-0.52193"><ele>8.0</ele><time>2026-04-21T18:31:54.822Z</time></trkpt><trkpt lat="44.7308783" lon="-0.522015"><ele>7.999999999999999</ele><time>2026-04-21T18:31:55.822Z</time></trkpt><trkpt lat="44.7308983" lon="-0.5221017"><ele>8.0</ele><time>2026-04-21T18:31:56.822Z</time></trkpt><trkpt lat="44.7309133" lon="-0.5221883"><ele>8.0</ele><time>2026-04-21T18:31:57.821Z</time></trkpt><trkpt lat="44.73093" lon="-0.522285"><ele>7.999999999999999</ele><time>2026-04-21T18:31:58.822Z</time></trkpt><trkpt lat="44.7309467" lon="-0.5223783"><ele>8.0</ele><time>2026-04-21T18:31:59.822Z</time></trkpt><trkpt lat="44.7309617" lon="-0.522475"><ele>8.0</ele><time>2026-04-21T18:32:00.822Z</time></trkpt><trkpt lat="44.7309783" lon="-0.522565"><ele>8.142857142857142</ele><time>2026-04-21T18:32:01.822Z</time></trkpt><trkpt lat="44.7309967" lon="-0.52266"><ele>8.285714285714285</ele><time>2026-04-21T18:32:02.822Z</time></trkpt><trkpt lat="44.7310117" lon="-0.522755"><ele>8.428571428571429</ele><time>2026-04-21T18:32:03.821Z</time></trkpt><trkpt lat="44.7310267" lon="-0.5228483"><ele>8.571428571428571</ele><time>2026-04-21T18:32:04.822Z</time></trkpt><trkpt lat="44.7310467" lon="-0.522935"><ele>8.714285714285715</ele><time>2026-04-21T18:32:05.822Z</time></trkpt><trkpt lat="44.731065" lon="-0.5230267"><ele>8.857142857142858</ele><time>2026-04-21T18:32:06.822Z</time></trkpt><trkpt lat="44.7310817" lon="-0.5231133"><ele>9.0</ele><time>2026-04-21T18:32:07.821Z</time></trkpt><trkpt lat="44.7311" lon="-0.5232067"><ele>9.142857142857144</ele><time>2026-04-21T18:32:08.822Z</time></trkpt><trkpt lat="44.731115" lon="-0.5233017"><ele>9.285714285714286</ele><time>2026-04-21T18:32:09.821Z</time></trkpt><trkpt lat="44.7311333" lon="-0.5233917"><ele>9.428571428571429</ele><time>2026-04-21T18:32:10.822Z</time></trkpt><trkpt lat="44.7311483" lon="-0.5234783"><ele>9.571428571428573</ele><time>2026-04-21T18:32:11.822Z</time></trkpt><trkpt lat="44.7311633" lon="-0.52357"><ele>9.714285714285715</ele><time>2026-04-21T18:32:12.822Z</time></trkpt><trkpt lat="44.7311883" lon="-0.5236617"><ele>9.857142857142858</ele><time>2026-04-21T18:32:13.822Z</time></trkpt><trkpt lat="44.73121" lon="-0.5237533"><ele>10.0</ele><time>2026-04-21T18:32:14.822Z</time></trkpt><trkpt lat="44.73124" lon="-0.5238383"><ele>10.0</ele><time>2026-04-21T18:32:15.822Z</time></trkpt><trkpt lat="44.7312667" lon="-0.5239217"><ele>10.0</ele><time>2026-04-21T18:32:16.822Z</time></trkpt><trkpt lat="44.7313317" lon="-0.5240783"><ele>10.0</ele><time>2026-04-21T18:32:18.822Z</time></trkpt><trkpt lat="44.7313683" lon="-0.524155"><ele>10.0</ele><time>2026-04-21T18:32:19.822Z</time></trkpt><trkpt lat="44.7314417" lon="-0.5242933"><ele>10.0</ele><time>2026-04-21T18:32:21.822Z</time></trkpt><trkpt lat="44.731485" lon="-0.5243617"><ele>10.0</ele><time>2026-04-21T18:32:22.822Z</time></trkpt><trkpt lat="44.7315267" lon="-0.52443"><ele>10.0</ele><time>2026-04-21T18:32:23.821Z</time></trkpt><trkpt lat="44.73157" lon="-0.5245"><ele>10.0</ele><time>2026-04-21T18:32:24.822Z</time></trkpt><trkpt lat="44.7316533" lon="-0.5246367"><ele>10.0</ele><time>2026-04-21T18:32:26.822Z</time></trkpt><trkpt lat="44.7317" lon="-0.5247083"><ele>10.0</ele><time>2026-04-21T18:32:27.822Z</time></trkpt><trkpt lat="44.7317467" lon="-0.524775"><ele>10.0</ele><time>2026-04-21T18:32:28.822Z</time></trkpt><trkpt lat="44.7317933" lon="-0.5248467"><ele>10.0</ele><time>2026-04-21T18:32:29.821Z</time></trkpt><trkpt lat="44.7318383" lon="-0.5249133"><ele>9.857142857142858</ele><time>2026-04-21T18:32:30.822Z</time></trkpt><trkpt lat="44.7318867" lon="-0.5249733"><ele>9.714285714285715</ele><time>2026-04-21T18:32:31.822Z</time></trkpt><trkpt lat="44.73194" lon="-0.5250367"><ele>9.571428571428573</ele><time>2026-04-21T18:32:32.822Z</time></trkpt><trkpt lat="44.7319933" lon="-0.525095"><ele>9.428571428571429</ele><time>2026-04-21T18:32:33.822Z</time></trkpt><trkpt lat="44.7320417" lon="-0.5251567"><ele>9.285714285714286</ele><time>2026-04-21T18:32:34.822Z</time></trkpt><trkpt lat="44.732095" lon="-0.525215"><ele>9.142857142857144</ele><time>2026-04-21T18:32:35.822Z</time></trkpt><trkpt lat="44.732145" lon="-0.525275"><ele>9.0</ele><time>2026-04-21T18:32:36.822Z</time></trkpt><trkpt lat="44.732195" lon="-0.525335"><ele>9.0</ele><time>2026-04-21T18:32:37.821Z</time></trkpt><trkpt lat="44.7322483" lon="-0.525385"><ele>9.0</ele><time>2026-04-21T18:32:38.821Z</time></trkpt><trkpt lat="44.732305" lon="-0.525435"><ele>9.0</ele><time>2026-04-21T18:32:39.822Z</time></trkpt><trkpt lat="44.73236" lon="-0.5254883"><ele>9.0</ele><time>2026-04-21T18:32:40.822Z</time></trkpt><trkpt lat="44.73246" lon="-0.5255967"><ele>9.0</ele><time>2026-04-21T18:32:42.822Z</time></trkpt><trkpt lat="44.7325117" lon="-0.5256533"><ele>9.0</ele><time>2026-04-21T18:32:43.821Z</time></trkpt><trkpt lat="44.7325633" lon="-0.525705"><ele>8.833333333333334</ele><time>2026-04-21T18:32:44.821Z</time></trkpt><trkpt lat="44.732615" lon="-0.52576"><ele>8.666666666666666</ele><time>2026-04-21T18:32:45.822Z</time></trkpt><trkpt lat="44.7327117" lon="-0.5258683"><ele>8.5</ele><time>2026-04-21T18:32:47.822Z</time></trkpt><trkpt lat="44.7327633" lon="-0.52592"><ele>8.333333333333332</ele><time>2026-04-21T18:32:48.822Z</time></trkpt><trkpt lat="44.7328233" lon="-0.52597"><ele>8.166666666666666</ele><time>2026-04-21T18:32:49.822Z</time></trkpt><trkpt lat="44.7328817" lon="-0.526025"><ele>8.0</ele><time>2026-04-21T18:32:50.822Z</time></trkpt><trkpt lat="44.7329367" lon="-0.526075"><ele>8.142857142857142</ele><time>2026-04-21T18:32:51.821Z</time></trkpt><trkpt lat="44.73299" lon="-0.5261267"><ele>8.285714285714285</ele><time>2026-04-21T18:32:52.821Z</time></trkpt><trkpt lat="44.733045" lon="-0.526175"><ele>8.428571428571429</ele><time>2026-04-21T18:32:53.822Z</time></trkpt><trkpt lat="44.7331033" lon="-0.526225"><ele>8.571428571428571</ele><time>2026-04-21T18:32:54.822Z</time></trkpt><trkpt lat="44.7331617" lon="-0.5262783"><ele>8.714285714285715</ele><time>2026-04-21T18:32:55.822Z</time></trkpt><trkpt lat="44.7332233" lon="-0.5263333"><ele>8.857142857142858</ele><time>2026-04-21T18:32:56.822Z</time></trkpt><trkpt lat="44.7332833" lon="-0.5263833"><ele>9.0</ele><time>2026-04-21T18:32:57.822Z</time></trkpt><trkpt lat="44.7333417" lon="-0.5264317"><ele>9.000000000000002</ele><time>2026-04-21T18:32:58.822Z</time></trkpt><trkpt lat="44.7334017" lon="-0.526485"><ele>9.0</ele><time>2026-04-21T18:32:59.822Z</time></trkpt><trkpt lat="44.7334583" lon="-0.5265417"><ele>9.0</ele><time>2026-04-21T18:33:00.822Z</time></trkpt><trkpt lat="44.73351" lon="-0.5265983"><ele>9.0</ele><time>2026-04-21T18:33:01.822Z</time></trkpt><trkpt lat="44.7335683" lon="-0.5266517"><ele>9.0</ele><time>2026-04-21T18:33:02.822Z</time></trkpt><trkpt lat="44.733625" lon="-0.5267017"><ele>9.000000000000002</ele><time>2026-04-21T18:33:03.822Z</time></trkpt><trkpt lat="44.7336833" lon="-0.5267533"><ele>9.0</ele><time>2026-04-21T18:33:04.821Z</time></trkpt><trkpt lat="44.733745" lon="-0.5267967"><ele>8.833333333333334</ele><time>2026-04-21T18:33:05.822Z</time></trkpt><trkpt lat="44.7338067" lon="-0.5268383"><ele>8.666666666666666</ele><time>2026-04-21T18:33:06.822Z</time></trkpt><trkpt lat="44.7338667" lon="-0.52688"><ele>8.5</ele><time>2026-04-21T18:33:07.822Z</time></trkpt><trkpt lat="44.7339717" lon="-0.5269783"><ele>8.333333333333332</ele><time>2026-04-21T18:33:09.822Z</time></trkpt><trkpt lat="44.734075" lon="-0.5270667"><ele>8.166666666666666</ele><time>2026-04-21T18:33:11.822Z</time></trkpt><trkpt lat="44.7341317" lon="-0.5271133"><ele>8.0</ele><time>2026-04-21T18:33:12.822Z</time></trkpt><trkpt lat="44.7341883" lon="-0.5271583"><ele>7.999999999999999</ele><time>2026-04-21T18:33:13.822Z</time></trkpt><trkpt lat="44.7342467" lon="-0.527205"><ele>8.0</ele><time>2026-04-21T18:33:14.822Z</time></trkpt><trkpt lat="44.7343083" lon="-0.5272383"><ele>8.0</ele><time>2026-04-21T18:33:15.822Z</time></trkpt><trkpt lat="44.7344183" lon="-0.5273183"><ele>8.0</ele><time>2026-04-21T18:33:17.822Z</time></trkpt><trkpt lat="44.7344767" lon="-0.5273617"><ele>7.999999999999999</ele><time>2026-04-21T18:33:18.821Z</time></trkpt><trkpt lat="44.7345417" lon="-0.5274"><ele>8.0</ele><time>2026-04-21T18:33:19.822Z</time></trkpt><trkpt lat="44.7345983" lon="-0.52744"><ele>7.666666666666666</ele><time>2026-04-21T18:33:20.822Z</time></trkpt><trkpt lat="44.7347117" lon="-0.5275233"><ele>7.333333333333333</ele><time>2026-04-21T18:33:22.821Z</time></trkpt><trkpt lat="44.734775" lon="-0.5275583"><ele>7.0</ele><time>2026-04-21T18:33:23.822Z</time></trkpt><trkpt lat="44.734835" lon="-0.52759"><ele>6.666666666666666</ele><time>2026-04-21T18:33:24.822Z</time></trkpt><trkpt lat="44.734895" lon="-0.5276217"><ele>6.333333333333333</ele><time>2026-04-21T18:33:25.822Z</time></trkpt><trkpt lat="44.7349583" lon="-0.5276567"><ele>6.0</ele><time>2026-04-21T18:33:26.822Z</time></trkpt><trkpt lat="44.73502" lon="-0.5276933"><ele>5.999999999999999</ele><time>2026-04-21T18:33:27.822Z</time></trkpt><trkpt lat="44.7350833" lon="-0.5277233"><ele>6.0</ele><time>2026-04-21T18:33:28.822Z</time></trkpt><trkpt lat="44.7351433" lon="-0.52776"><ele>6.0</ele><time>2026-04-21T18:33:29.822Z</time></trkpt><trkpt lat="44.7352033" lon="-0.5278017"><ele>6.0</ele><time>2026-04-21T18:33:30.821Z</time></trkpt><trkpt lat="44.7352667" lon="-0.52784"><ele>6.0</ele><time>2026-04-21T18:33:31.822Z</time></trkpt><trkpt lat="44.7353267" lon="-0.52788"><ele>5.999999999999999</ele><time>2026-04-21T18:33:32.822Z</time></trkpt><trkpt lat="44.7353867" lon="-0.5279167"><ele>6.0</ele><time>2026-04-21T18:33:33.821Z</time></trkpt><trkpt lat="44.7354467" lon="-0.527955"><ele>5.999999999999999</ele><time>2026-04-21T18:33:34.822Z</time></trkpt><trkpt lat="44.7355083" lon="-0.527985"><ele>6.0</ele><time>2026-04-21T18:33:35.821Z</time></trkpt><trkpt lat="44.7355717" lon="-0.5280183"><ele>6.0</ele><time>2026-04-21T18:33:36.821Z</time></trkpt><trkpt lat="44.7356367" lon="-0.528055"><ele>6.0</ele><time>2026-04-21T18:33:37.821Z</time></trkpt><trkpt lat="44.7357067" lon="-0.5280933"><ele>6.0</ele><time>2026-04-21T18:33:38.821Z</time></trkpt><trkpt lat="44.7357767" lon="-0.5281283"><ele>5.999999999999999</ele><time>2026-04-21T18:33:39.822Z</time></trkpt><trkpt lat="44.7358483" lon="-0.5281633"><ele>6.0</ele><time>2026-04-21T18:33:40.822Z</time></trkpt><trkpt lat="44.735915" lon="-0.5281983"><ele>5.999999999999999</ele><time>2026-04-21T18:33:41.821Z</time></trkpt><trkpt lat="44.73598" lon="-0.5282383"><ele>6.0</ele><time>2026-04-21T18:33:42.822Z</time></trkpt><trkpt lat="44.7360417" lon="-0.5282733"><ele>6.0</ele><time>2026-04-21T18:33:43.822Z</time></trkpt><trkpt lat="44.7361033" lon="-0.528315"><ele>6.0</ele><time>2026-04-21T18:33:44.822Z</time></trkpt><trkpt lat="44.736165" lon="-0.5283517"><ele>6.0</ele><time>2026-04-21T18:33:45.822Z</time></trkpt><trkpt lat="44.73623" lon="-0.52839"><ele>5.999999999999999</ele><time>2026-04-21T18:33:46.822Z</time></trkpt><trkpt lat="44.7362967" lon="-0.5284267"><ele>6.0</ele><time>2026-04-21T18:33:47.822Z</time></trkpt><trkpt lat="44.7363667" lon="-0.5284583"><ele>6.142857142857142</ele><time>2026-04-21T18:33:48.821Z</time></trkpt><trkpt lat="44.7364283" lon="-0.5284883"><ele>6.285714285714286</ele><time>2026-04-21T18:33:49.821Z</time></trkpt><trkpt lat="44.7364933" lon="-0.528525"><ele>6.428571428571429</ele><time>2026-04-21T18:33:50.822Z</time></trkpt><trkpt lat="44.736555" lon="-0.5285567"><ele>6.571428571428571</ele><time>2026-04-21T18:33:51.822Z</time></trkpt><trkpt lat="44.73662" lon="-0.5285933"><ele>6.714285714285714</ele><time>2026-04-21T18:33:52.822Z</time></trkpt><trkpt lat="44.7366817" lon="-0.5286283"><ele>6.857142857142857</ele><time>2026-04-21T18:33:53.822Z</time></trkpt><trkpt lat="44.7367433" lon="-0.5286667"><ele>7.0</ele><time>2026-04-21T18:33:54.822Z</time></trkpt><trkpt lat="44.7368067" lon="-0.528705"><ele>7.0</ele><time>2026-04-21T18:33:55.822Z</time></trkpt><trkpt lat="44.7368683" lon="-0.528745"><ele>7.0</ele><time>2026-04-21T18:33:56.821Z</time></trkpt><trkpt lat="44.7369283" lon="-0.5287817"><ele>7.0</ele><time>2026-04-21T18:33:57.822Z</time></trkpt><trkpt lat="44.73699" lon="-0.5288183"><ele>7.0</ele><time>2026-04-21T18:33:58.822Z</time></trkpt><trkpt lat="44.737055" lon="-0.5288583"><ele>7.0</ele><time>2026-04-21T18:33:59.822Z</time></trkpt><trkpt lat="44.7371117" lon="-0.5288983"><ele>7.0</ele><time>2026-04-21T18:34:00.822Z</time></trkpt><trkpt lat="44.737175" lon="-0.52893"><ele>7.0</ele><time>2026-04-21T18:34:01.821Z</time></trkpt><trkpt lat="44.7372383" lon="-0.5289617"><ele>6.666666666666667</ele><time>2026-04-21T18:34:02.821Z</time></trkpt><trkpt lat="44.7373067" lon="-0.5289967"><ele>6.333333333333334</ele><time>2026-04-21T18:34:03.821Z</time></trkpt><trkpt lat="44.73737" lon="-0.52903"><ele>6.0</ele><time>2026-04-21T18:34:04.82Z</time></trkpt><trkpt lat="44.73743" lon="-0.5290767"><ele>5.666666666666667</ele><time>2026-04-21T18:34:05.821Z</time></trkpt><trkpt lat="44.7374917" lon="-0.5291133"><ele>5.333333333333334</ele><time>2026-04-21T18:34:06.821Z</time></trkpt><trkpt lat="44.7376117" lon="-0.52919"><ele>5.0</ele><time>2026-04-21T18:34:08.82Z</time></trkpt><trkpt lat="44.73767" lon="-0.5292317"><ele>5.166666666666667</ele><time>2026-04-21T18:34:09.821Z</time></trkpt><trkpt lat="44.7377283" lon="-0.5292667"><ele>5.333333333333334</ele><time>2026-04-21T18:34:10.821Z</time></trkpt><trkpt lat="44.73779" lon="-0.529305"><ele>5.5</ele><time>2026-04-21T18:34:11.821Z</time></trkpt><trkpt lat="44.7378517" lon="-0.52934"><ele>5.666666666666667</ele><time>2026-04-21T18:34:12.821Z</time></trkpt><trkpt lat="44.737975" lon="-0.5294083"><ele>5.833333333333333</ele><time>2026-04-21T18:34:14.821Z</time></trkpt><trkpt lat="44.7380383" lon="-0.529445"><ele>6.0</ele><time>2026-04-21T18:34:15.821Z</time></trkpt><trkpt lat="44.7381017" lon="-0.52948"><ele>5.999999999999999</ele><time>2026-04-21T18:34:16.821Z</time></trkpt><trkpt lat="44.7381667" lon="-0.5295183"><ele>6.0</ele><time>2026-04-21T18:34:17.821Z</time></trkpt><trkpt lat="44.7382283" lon="-0.5295617"><ele>6.0</ele><time>2026-04-21T18:34:18.821Z</time></trkpt><trkpt lat="44.7382867" lon="-0.5296017"><ele>6.0</ele><time>2026-04-21T18:34:19.821Z</time></trkpt><trkpt lat="44.73835" lon="-0.52964"><ele>6.0</ele><time>2026-04-21T18:34:20.821Z</time></trkpt><trkpt lat="44.7384133" lon="-0.529665"><ele>5.999999999999999</ele><time>2026-04-21T18:34:21.82Z</time></trkpt><trkpt lat="44.738475" lon="-0.5297"><ele>6.0</ele><time>2026-04-21T18:34:22.821Z</time></trkpt><trkpt lat="44.7385367" lon="-0.52974"><ele>6.142857142857142</ele><time>2026-04-21T18:34:23.821Z</time></trkpt><trkpt lat="44.7386" lon="-0.5297733"><ele>6.285714285714286</ele><time>2026-04-21T18:34:24.82Z</time></trkpt><trkpt lat="44.7386667" lon="-0.529815"><ele>6.428571428571429</ele><time>2026-04-21T18:34:25.821Z</time></trkpt><trkpt lat="44.7387333" lon="-0.52985"><ele>6.571428571428571</ele><time>2026-04-21T18:34:26.821Z</time></trkpt><trkpt lat="44.7387983" lon="-0.5298883"><ele>6.714285714285714</ele><time>2026-04-21T18:34:27.821Z</time></trkpt><trkpt lat="44.738865" lon="-0.529935"><ele>6.857142857142857</ele><time>2026-04-21T18:34:28.821Z</time></trkpt><trkpt lat="44.73893" lon="-0.52997"><ele>7.0</ele><time>2026-04-21T18:34:29.821Z</time></trkpt><trkpt lat="44.7389967" lon="-0.53001"><ele>7.0</ele><time>2026-04-21T18:34:30.82Z</time></trkpt><trkpt lat="44.739065" lon="-0.5300483"><ele>7.0</ele><time>2026-04-21T18:34:31.821Z</time></trkpt><trkpt lat="44.7391283" lon="-0.53008"><ele>7.0</ele><time>2026-04-21T18:34:32.821Z</time></trkpt><trkpt lat="44.7391917" lon="-0.5301133"><ele>7.0</ele><time>2026-04-21T18:34:33.82Z</time></trkpt><trkpt lat="44.739255" lon="-0.530155"><ele>7.0</ele><time>2026-04-21T18:34:34.82Z</time></trkpt><trkpt lat="44.73932" lon="-0.5301933"><ele>7.0</ele><time>2026-04-21T18:34:35.82Z</time></trkpt><trkpt lat="44.7393867" lon="-0.53023"><ele>7.0</ele><time>2026-04-21T18:34:36.821Z</time></trkpt><trkpt lat="44.7394483" lon="-0.5302633"><ele>7.0</ele><time>2026-04-21T18:34:37.821Z</time></trkpt><trkpt lat="44.7395067" lon="-0.5302967"><ele>6.999999999999999</ele><time>2026-04-21T18:34:38.821Z</time></trkpt><trkpt lat="44.7395717" lon="-0.5303367"><ele>6.999999999999999</ele><time>2026-04-21T18:34:39.82Z</time></trkpt><trkpt lat="44.73963" lon="-0.530375"><ele>7.0</ele><time>2026-04-21T18:34:40.821Z</time></trkpt><trkpt lat="44.7396967" lon="-0.5304067"><ele>7.0</ele><time>2026-04-21T18:34:41.82Z</time></trkpt><trkpt lat="44.739935" lon="-0.5305533"><ele>7.000000000000001</ele><time>2026-04-21T18:34:45.821Z</time></trkpt><trkpt lat="44.739995" lon="-0.53059"><ele>7.0</ele><time>2026-04-21T18:34:46.821Z</time></trkpt><trkpt lat="44.7400583" lon="-0.5306233"><ele>7.0</ele><time>2026-04-21T18:34:47.82Z</time></trkpt><trkpt lat="44.7401217" lon="-0.5306617"><ele>7.0</ele><time>2026-04-21T18:34:48.82Z</time></trkpt><trkpt lat="44.740235" lon="-0.53074"><ele>7.000000000000001</ele><time>2026-04-21T18:34:50.821Z</time></trkpt><trkpt lat="44.7402933" lon="-0.5307783"><ele>7.0</ele><time>2026-04-21T18:34:51.821Z</time></trkpt><trkpt lat="44.740405" lon="-0.530855"><ele>6.666666666666667</ele><time>2026-04-21T18:34:53.82Z</time></trkpt><trkpt lat="44.7405217" lon="-0.5309133"><ele>6.333333333333334</ele><time>2026-04-21T18:34:55.821Z</time></trkpt><trkpt lat="44.74064" lon="-0.5309517"><ele>6.0</ele><time>2026-04-21T18:34:57.82Z</time></trkpt><trkpt lat="44.7408867" lon="-0.5309833"><ele>6.0</ele><time>2026-04-21T18:35:01.82Z</time></trkpt><trkpt lat="44.7410033" lon="-0.531"><ele>6.0</ele><time>2026-04-21T18:35:03.821Z</time></trkpt><trkpt lat="44.741115" lon="-0.531075"><ele>6.0</ele><time>2026-04-21T18:35:05.821Z</time></trkpt><trkpt lat="44.7411683" lon="-0.5311317"><ele>6.0</ele><time>2026-04-21T18:35:06.821Z</time></trkpt><trkpt lat="44.7412183" lon="-0.5311917"><ele>6.0</ele><time>2026-04-21T18:35:07.821Z</time></trkpt><trkpt lat="44.7412633" lon="-0.5312617"><ele>6.0</ele><time>2026-04-21T18:35:08.821Z</time></trkpt><trkpt lat="44.7413083" lon="-0.531325"><ele>5.8</ele><time>2026-04-21T18:35:09.82Z</time></trkpt><trkpt lat="44.7413583" lon="-0.53138"><ele>5.6</ele><time>2026-04-21T18:35:10.821Z</time></trkpt><trkpt lat="44.7414667" lon="-0.5314667"><ele>5.4</ele><time>2026-04-21T18:35:12.82Z</time></trkpt><trkpt lat="44.74158" lon="-0.5315383"><ele>5.2</ele><time>2026-04-21T18:35:14.821Z</time></trkpt><trkpt lat="44.7416367" lon="-0.5315783"><ele>5.0</ele><time>2026-04-21T18:35:15.821Z</time></trkpt><trkpt lat="44.7417467" lon="-0.53164"><ele>5.0</ele><time>2026-04-21T18:35:17.821Z</time></trkpt><trkpt lat="44.74187" lon="-0.5317033"><ele>5.0</ele><time>2026-04-21T18:35:19.821Z</time></trkpt><trkpt lat="44.741985" lon="-0.5317733"><ele>5.0</ele><time>2026-04-21T18:35:21.821Z</time></trkpt><trkpt lat="44.7420967" lon="-0.531835"><ele>5.0</ele><time>2026-04-21T18:35:23.821Z</time></trkpt><trkpt lat="44.74227" lon="-0.5319517"><ele>5.666666666666667</ele><time>2026-04-21T18:35:26.821Z</time></trkpt><trkpt lat="44.7424483" lon="-0.532035"><ele>6.333333333333334</ele><time>2026-04-21T18:35:29.82Z</time></trkpt><trkpt lat="44.74263" lon="-0.5321467"><ele>7.0</ele><time>2026-04-21T18:35:32.821Z</time></trkpt><trkpt lat="44.742695" lon="-0.53218"><ele>6.6</ele><time>2026-04-21T18:35:33.82Z</time></trkpt><trkpt lat="44.742885" lon="-0.5322883"><ele>6.199999999999999</ele><time>2026-04-21T18:35:36.821Z</time></trkpt><trkpt lat="44.7429483" lon="-0.5323217"><ele>5.8</ele><time>2026-04-21T18:35:37.821Z</time></trkpt><trkpt lat="44.7430083" lon="-0.53236"><ele>5.4</ele><time>2026-04-21T18:35:38.821Z</time></trkpt><trkpt lat="44.74307" lon="-0.5323917"><ele>5.0</ele><time>2026-04-21T18:35:39.821Z</time></trkpt><trkpt lat="44.74313" lon="-0.53242"><ele>5.0</ele><time>2026-04-21T18:35:40.821Z</time></trkpt><trkpt lat="44.74325" lon="-0.53248"><ele>5.0</ele><time>2026-04-21T18:35:42.821Z</time></trkpt><trkpt lat="44.7434117" lon="-0.5325667"><ele>5.0</ele><time>2026-04-21T18:35:45.82Z</time></trkpt><trkpt lat="44.7435" lon="-0.532615"><ele>5.0</ele><time>2026-04-21T18:35:47.821Z</time></trkpt><trkpt lat="44.7435967" lon="-0.5326617"><ele>5.0</ele><time>2026-04-21T18:36:24.82Z</time></trkpt><trkpt lat="44.7436717" lon="-0.5327283"><ele>5.0</ele><time>2026-04-21T18:36:28.821Z</time></trkpt><trkpt lat="44.7437333" lon="-0.53276"><ele>5.0</ele><time>2026-04-21T18:36:30.82Z</time></trkpt><trkpt lat="44.74381" lon="-0.532795"><ele>5.0</ele><time>2026-04-21T18:36:32.821Z</time></trkpt><trkpt lat="44.743935" lon="-0.5328617"><ele>5.0</ele><time>2026-04-21T18:36:35.821Z</time></trkpt><trkpt lat="44.7440683" lon="-0.5329133"><ele>5.2</ele><time>2026-04-21T18:36:38.821Z</time></trkpt><trkpt lat="44.7441617" lon="-0.53294"><ele>5.4</ele><time>2026-04-21T18:36:40.821Z</time></trkpt><trkpt lat="44.74427" lon="-0.532965"><ele>5.6</ele><time>2026-04-21T18:36:42.821Z</time></trkpt><trkpt lat="44.74438" lon="-0.5329883"><ele>5.8</ele><time>2026-04-21T18:36:44.821Z</time></trkpt><trkpt lat="44.7444833" lon="-0.5330083"><ele>6.0</ele><time>2026-04-21T18:36:46.82Z</time></trkpt><trkpt lat="44.744585" lon="-0.5329867"><ele>6.0</ele><time>2026-04-21T18:36:48.821Z</time></trkpt><trkpt lat="44.7447083" lon="-0.5329367"><ele>6.0</ele><time>2026-04-21T18:36:50.821Z</time></trkpt><trkpt lat="44.7447667" lon="-0.5328967"><ele>6.0</ele><time>2026-04-21T18:36:51.821Z</time></trkpt><trkpt lat="44.7448217" lon="-0.53285"><ele>6.0</ele><time>2026-04-21T18:36:52.821Z</time></trkpt><trkpt lat="44.74493" lon="-0.5327617"><ele>6.0</ele><time>2026-04-21T18:36:54.821Z</time></trkpt><trkpt lat="44.7449867" lon="-0.5327183"><ele>6.0</ele><time>2026-04-21T18:36:55.821Z</time></trkpt><trkpt lat="44.7450433" lon="-0.532675"><ele>6.0</ele><time>2026-04-21T18:36:56.821Z</time></trkpt><trkpt lat="44.7450983" lon="-0.53263"><ele>6.0</ele><time>2026-04-21T18:36:57.82Z</time></trkpt><trkpt lat="44.7452117" lon="-0.532545"><ele>6.0</ele><time>2026-04-21T18:36:59.82Z</time></trkpt><trkpt lat="44.7452683" lon="-0.5325"><ele>6.0</ele><time>2026-04-21T18:37:00.821Z</time></trkpt><trkpt lat="44.7453267" lon="-0.53246"><ele>6.0</ele><time>2026-04-21T18:37:01.82Z</time></trkpt><trkpt lat="44.74544" lon="-0.53238"><ele>6.0</ele><time>2026-04-21T18:37:03.821Z</time></trkpt><trkpt lat="44.7454967" lon="-0.5323367"><ele>6.166666666666667</ele><time>2026-04-21T18:37:04.82Z</time></trkpt><trkpt lat="44.7455567" lon="-0.5322967"><ele>6.333333333333334</ele><time>2026-04-21T18:37:05.821Z</time></trkpt><trkpt lat="44.7456717" lon="-0.5322117"><ele>6.5</ele><time>2026-04-21T18:37:07.821Z</time></trkpt><trkpt lat="44.7457283" lon="-0.5321633"><ele>6.666666666666667</ele><time>2026-04-21T18:37:08.821Z</time></trkpt><trkpt lat="44.7457883" lon="-0.5321267"><ele>6.833333333333334</ele><time>2026-04-21T18:37:09.821Z</time></trkpt><trkpt lat="44.7458433" lon="-0.5320817"><ele>7.0</ele><time>2026-04-21T18:37:10.821Z</time></trkpt><trkpt lat="44.7459033" lon="-0.532035"><ele>7.142857142857142</ele><time>2026-04-21T18:37:11.821Z</time></trkpt><trkpt lat="44.7459617" lon="-0.531995"><ele>7.285714285714286</ele><time>2026-04-21T18:37:12.821Z</time></trkpt><trkpt lat="44.74602" lon="-0.531955"><ele>7.428571428571429</ele><time>2026-04-21T18:37:13.821Z</time></trkpt><trkpt lat="44.74608" lon="-0.5319067"><ele>7.571428571428571</ele><time>2026-04-21T18:37:14.82Z</time></trkpt><trkpt lat="44.74614" lon="-0.531855"><ele>7.7142857142857135</ele><time>2026-04-21T18:37:15.82Z</time></trkpt><trkpt lat="44.7462017" lon="-0.5318167"><ele>7.857142857142857</ele><time>2026-04-21T18:37:16.821Z</time></trkpt><trkpt lat="44.74626" lon="-0.5317733"><ele>8.0</ele><time>2026-04-21T18:37:17.821Z</time></trkpt><trkpt lat="44.7463183" lon="-0.5317367"><ele>8.5</ele><time>2026-04-21T18:37:18.821Z</time></trkpt><trkpt lat="44.74638" lon="-0.5316967"><ele>9.0</ele><time>2026-04-21T18:37:19.821Z</time></trkpt><trkpt lat="44.7464433" lon="-0.5316533"><ele>9.5</ele><time>2026-04-21T18:37:20.821Z</time></trkpt><trkpt lat="44.7465017" lon="-0.5316133"><ele>10.0</ele><time>2026-04-21T18:37:21.821Z</time></trkpt><trkpt lat="44.7465617" lon="-0.5315783"><ele>10.5</ele><time>2026-04-21T18:37:22.821Z</time></trkpt><trkpt lat="44.746685" lon="-0.53151"><ele>11.0</ele><time>2026-04-21T18:37:24.821Z</time></trkpt><trkpt lat="44.7467467" lon="-0.53148"><ele>11.0</ele><time>2026-04-21T18:37:25.821Z</time></trkpt><trkpt lat="44.7468083" lon="-0.5314483"><ele>11.0</ele><time>2026-04-21T18:37:26.821Z</time></trkpt><trkpt lat="44.7469333" lon="-0.5313883"><ele>11.0</ele><time>2026-04-21T18:37:28.821Z</time></trkpt><trkpt lat="44.7469967" lon="-0.531355"><ele>11.0</ele><time>2026-04-21T18:37:29.821Z</time></trkpt><trkpt lat="44.7470567" lon="-0.5313217"><ele>11.0</ele><time>2026-04-21T18:37:30.821Z</time></trkpt><trkpt lat="44.7471183" lon="-0.5312867"><ele>11.0</ele><time>2026-04-21T18:37:31.821Z</time></trkpt><trkpt lat="44.7471833" lon="-0.5312567"><ele>10.0</ele><time>2026-04-21T18:37:32.821Z</time></trkpt><trkpt lat="44.7473033" lon="-0.5312"><ele>9.0</ele><time>2026-04-21T18:37:34.82Z</time></trkpt><trkpt lat="44.7473667" lon="-0.5311767"><ele>8.0</ele><time>2026-04-21T18:37:35.821Z</time></trkpt><trkpt lat="44.7474283" lon="-0.5311533"><ele>7.0</ele><time>2026-04-21T18:37:36.821Z</time></trkpt><trkpt lat="44.747545" lon="-0.5310983"><ele>6.0</ele><time>2026-04-21T18:37:38.821Z</time></trkpt><trkpt lat="44.7476483" lon="-0.53105"><ele>5.8</ele><time>2026-04-21T18:37:40.821Z</time></trkpt><trkpt lat="44.7477683" lon="-0.5310083"><ele>5.6</ele><time>2026-04-21T18:37:42.821Z</time></trkpt><trkpt lat="44.7478317" lon="-0.5309967"><ele>5.4</ele><time>2026-04-21T18:37:43.82Z</time></trkpt><trkpt lat="44.747895" lon="-0.5309767"><ele>5.2</ele><time>2026-04-21T18:37:44.821Z</time></trkpt><trkpt lat="44.7480217" lon="-0.5309667"><ele>5.0</ele><time>2026-04-21T18:37:46.821Z</time></trkpt><trkpt lat="44.7481383" lon="-0.530955"><ele>5.0</ele><time>2026-04-21T18:37:48.821Z</time></trkpt><trkpt lat="44.748255" lon="-0.5309517"><ele>5.0</ele><time>2026-04-21T18:37:50.821Z</time></trkpt><trkpt lat="44.74832" lon="-0.5309533"><ele>5.0</ele><time>2026-04-21T18:37:51.821Z</time></trkpt><trkpt lat="44.7484483" lon="-0.5309583"><ele>5.0</ele><time>2026-04-21T18:37:53.821Z</time></trkpt><trkpt lat="44.7485133" lon="-0.5309617"><ele>5.0</ele><time>2026-04-21T18:37:54.82Z</time></trkpt><trkpt lat="44.74864" lon="-0.5309617"><ele>5.333333333333334</ele><time>2026-04-21T18:37:56.821Z</time></trkpt><trkpt lat="44.7488833" lon="-0.5309667"><ele>5.666666666666667</ele><time>2026-04-21T18:38:00.821Z</time></trkpt><trkpt lat="44.7489917" lon="-0.530965"><ele>6.0</ele><time>2026-04-21T18:38:02.821Z</time></trkpt><trkpt lat="44.7490983" lon="-0.5309733"><ele>6.0</ele><time>2026-04-21T18:38:04.821Z</time></trkpt><trkpt lat="44.7492167" lon="-0.530995"><ele>6.0</ele><time>2026-04-21T18:38:06.82Z</time></trkpt><trkpt lat="44.7493133" lon="-0.53103"><ele>6.0</ele><time>2026-04-21T18:38:08.821Z</time></trkpt><trkpt lat="44.7494217" lon="-0.5310983"><ele>6.0</ele><time>2026-04-21T18:38:10.821Z</time></trkpt><trkpt lat="44.7494767" lon="-0.5311517"><ele>6.0</ele><time>2026-04-21T18:38:11.821Z</time></trkpt><trkpt lat="44.7495333" lon="-0.5312033"><ele>6.5</ele><time>2026-04-21T18:38:12.821Z</time></trkpt><trkpt lat="44.749585" lon="-0.5312617"><ele>7.0</ele><time>2026-04-21T18:38:13.821Z</time></trkpt><trkpt lat="44.74964" lon="-0.531315"><ele>7.5</ele><time>2026-04-21T18:38:14.82Z</time></trkpt><trkpt lat="44.74969" lon="-0.5313767"><ele>8.0</ele><time>2026-04-21T18:38:15.821Z</time></trkpt><trkpt lat="44.7497483" lon="-0.5314167"><ele>8.5</ele><time>2026-04-21T18:38:16.821Z</time></trkpt><trkpt lat="44.7498683" lon="-0.5314667"><ele>9.0</ele><time>2026-04-21T18:38:18.821Z</time></trkpt><trkpt lat="44.7499367" lon="-0.53148"><ele>9.0</ele><time>2026-04-21T18:38:19.821Z</time></trkpt><trkpt lat="44.7500017" lon="-0.531475"><ele>9.0</ele><time>2026-04-21T18:38:20.821Z</time></trkpt><trkpt lat="44.7500667" lon="-0.531475"><ele>9.0</ele><time>2026-04-21T18:38:21.82Z</time></trkpt><trkpt lat="44.7501733" lon="-0.5314333"><ele>9.0</ele><time>2026-04-21T18:38:23.821Z</time></trkpt><trkpt lat="44.7502683" lon="-0.53139"><ele>9.0</ele><time>2026-04-21T18:38:25.82Z</time></trkpt><trkpt lat="44.7503483" lon="-0.531355"><ele>9.0</ele><time>2026-04-21T18:38:27.821Z</time></trkpt><trkpt lat="44.7504183" lon="-0.5313067"><ele>9.0</ele><time>2026-04-21T18:38:29.82Z</time></trkpt><trkpt lat="44.7504833" lon="-0.531265"><ele>9.0</ele><time>2026-04-21T18:38:31.821Z</time></trkpt><trkpt lat="44.7505383" lon="-0.5312167"><ele>9.0</ele><time>2026-04-21T18:38:33.821Z</time></trkpt><trkpt lat="44.7506067" lon="-0.5311917"><ele>9.0</ele><time>2026-04-21T18:38:36.821Z</time></trkpt><trkpt lat="44.7506933" lon="-0.531135"><ele>9.0</ele><time>2026-04-21T18:38:39.82Z</time></trkpt><trkpt lat="44.750765" lon="-0.5311117"><ele>9.0</ele><time>2026-04-21T18:38:41.821Z</time></trkpt><trkpt lat="44.750845" lon="-0.531065"><ele>9.0</ele><time>2026-04-21T18:38:43.821Z</time></trkpt><trkpt lat="44.75092" lon="-0.531015"><ele>9.0</ele><time>2026-04-21T18:38:45.821Z</time></trkpt><trkpt lat="44.75101" lon="-0.5309683"><ele>9.0</ele><time>2026-04-21T18:38:47.821Z</time></trkpt><trkpt lat="44.751095" lon="-0.530905"><ele>9.0</ele><time>2026-04-21T18:38:49.821Z</time></trkpt><trkpt lat="44.7511833" lon="-0.5308667"><ele>9.0</ele><time>2026-04-21T18:38:51.821Z</time></trkpt><trkpt lat="44.7512733" lon="-0.5308567"><ele>9.8</ele><time>2026-04-21T18:38:53.821Z</time></trkpt><trkpt lat="44.7513517" lon="-0.5309333"><ele>10.600000000000001</ele><time>2026-04-21T18:38:55.82Z</time></trkpt><trkpt lat="44.7514167" lon="-0.5310467"><ele>11.4</ele><time>2026-04-21T18:38:57.821Z</time></trkpt><trkpt lat="44.75148" lon="-0.5311717"><ele>12.200000000000001</ele><time>2026-04-21T18:38:59.821Z</time></trkpt><trkpt lat="44.7515467" lon="-0.5312917"><ele>13.0</ele><time>2026-04-21T18:39:01.821Z</time></trkpt><trkpt lat="44.7516067" lon="-0.5314217"><ele>13.0</ele><time>2026-04-21T18:39:03.821Z</time></trkpt><trkpt lat="44.7516467" lon="-0.5315383"><ele>13.0</ele><time>2026-04-21T18:39:05.821Z</time></trkpt><trkpt lat="44.751685" lon="-0.5316567"><ele>13.0</ele><time>2026-04-21T18:39:07.821Z</time></trkpt><trkpt lat="44.7517383" lon="-0.5317733"><ele>13.0</ele><time>2026-04-21T18:39:09.821Z</time></trkpt><trkpt lat="44.7517833" lon="-0.5318867"><ele>13.0</ele><time>2026-04-21T18:39:11.821Z</time></trkpt><trkpt lat="44.751835" lon="-0.5319917"><ele>12.833333333333332</ele><time>2026-04-21T18:39:13.821Z</time></trkpt><trkpt lat="44.751895" lon="-0.5320933"><ele>12.666666666666666</ele><time>2026-04-21T18:39:15.821Z</time></trkpt><trkpt lat="44.751975" lon="-0.53214"><ele>12.5</ele><time>2026-04-21T18:39:18.821Z</time></trkpt><trkpt lat="44.752045" lon="-0.5320617"><ele>12.333333333333332</ele><time>2026-04-21T18:39:21.821Z</time></trkpt><trkpt lat="44.7520833" lon="-0.5319717"><ele>12.166666666666666</ele><time>2026-04-21T18:39:23.82Z</time></trkpt><trkpt lat="44.7521333" lon="-0.5318833"><ele>12.0</ele><time>2026-04-21T18:39:25.82Z</time></trkpt><trkpt lat="44.7522" lon="-0.531795"><ele>11.75</ele><time>2026-04-21T18:39:27.82Z</time></trkpt><trkpt lat="44.7522683" lon="-0.5317067"><ele>11.5</ele><time>2026-04-21T18:39:29.82Z</time></trkpt><trkpt lat="44.7523383" lon="-0.5316083"><ele>11.25</ele><time>2026-04-21T18:39:31.82Z</time></trkpt><trkpt lat="44.7524583" lon="-0.53145"><ele>11.0</ele><time>2026-04-21T18:39:34.819Z</time></trkpt><trkpt lat="44.7525483" lon="-0.531335"><ele>11.0</ele><time>2026-04-21T18:39:36.82Z</time></trkpt><trkpt lat="44.7526383" lon="-0.5312283"><ele>11.0</ele><time>2026-04-21T18:39:38.819Z</time></trkpt><trkpt lat="44.7527367" lon="-0.5311167"><ele>11.0</ele><time>2026-04-21T18:39:40.82Z</time></trkpt><trkpt lat="44.75279" lon="-0.5310617"><ele>11.0</ele><time>2026-04-21T18:39:41.82Z</time></trkpt><trkpt lat="44.7528883" lon="-0.5309483"><ele>11.0</ele><time>2026-04-21T18:39:43.82Z</time></trkpt><trkpt lat="44.7529367" lon="-0.5308883"><ele>11.200000000000001</ele><time>2026-04-21T18:39:44.819Z</time></trkpt><trkpt lat="44.7529883" lon="-0.5308333"><ele>11.4</ele><time>2026-04-21T18:39:45.82Z</time></trkpt><trkpt lat="44.7530833" lon="-0.53072"><ele>11.6</ele><time>2026-04-21T18:39:47.82Z</time></trkpt><trkpt lat="44.7531783" lon="-0.5306133"><ele>11.8</ele><time>2026-04-21T18:39:49.82Z</time></trkpt><trkpt lat="44.75327" lon="-0.5305117"><ele>12.0</ele><time>2026-04-21T18:39:51.82Z</time></trkpt><trkpt lat="44.7533617" lon="-0.5304217"><ele>11.8</ele><time>2026-04-21T18:39:53.82Z</time></trkpt><trkpt lat="44.7534667" lon="-0.530345"><ele>11.6</ele><time>2026-04-21T18:39:55.82Z</time></trkpt><trkpt lat="44.753585" lon="-0.5303583"><ele>11.4</ele><time>2026-04-21T18:39:57.82Z</time></trkpt><trkpt lat="44.753705" lon="-0.5304117"><ele>11.200000000000001</ele><time>2026-04-21T18:39:59.82Z</time></trkpt><trkpt lat="44.75377" lon="-0.53043"><ele>11.0</ele><time>2026-04-21T18:40:00.82Z</time></trkpt><trkpt lat="44.7538333" lon="-0.5304467"><ele>11.0</ele><time>2026-04-21T18:40:01.819Z</time></trkpt><trkpt lat="44.7539683" lon="-0.5304467"><ele>11.0</ele><time>2026-04-21T18:40:03.819Z</time></trkpt><trkpt lat="44.754035" lon="-0.5304367"><ele>11.0</ele><time>2026-04-21T18:40:04.82Z</time></trkpt><trkpt lat="44.7541617" lon="-0.5304383"><ele>11.0</ele><time>2026-04-21T18:40:06.819Z</time></trkpt><trkpt lat="44.754225" lon="-0.5304517"><ele>11.0</ele><time>2026-04-21T18:40:07.82Z</time></trkpt><trkpt lat="44.7542967" lon="-0.5304467"><ele>11.0</ele><time>2026-04-21T18:40:08.819Z</time></trkpt><trkpt lat="44.7543667" lon="-0.53044"><ele>11.0</ele><time>2026-04-21T18:40:09.82Z</time></trkpt><trkpt lat="44.7544383" lon="-0.530435"><ele>11.0</ele><time>2026-04-21T18:40:10.82Z</time></trkpt><trkpt lat="44.7545633" lon="-0.5304317"><ele>11.0</ele><time>2026-04-21T18:40:12.82Z</time></trkpt><trkpt lat="44.754685" lon="-0.5304217"><ele>11.0</ele><time>2026-04-21T18:40:14.82Z</time></trkpt><trkpt lat="44.7547533" lon="-0.5304167"><ele>11.0</ele><time>2026-04-21T18:40:15.82Z</time></trkpt><trkpt lat="44.7548167" lon="-0.5303983"><ele>11.0</ele><time>2026-04-21T18:40:16.82Z</time></trkpt><trkpt lat="44.7548833" lon="-0.53037"><ele>11.0</ele><time>2026-04-21T18:40:17.82Z</time></trkpt><trkpt lat="44.755005" lon="-0.53032"><ele>11.0</ele><time>2026-04-21T18:40:19.82Z</time></trkpt><trkpt lat="44.755125" lon="-0.530285"><ele>11.0</ele><time>2026-04-21T18:40:21.82Z</time></trkpt><trkpt lat="44.7551883" lon="-0.5302417"><ele>10.600000000000001</ele><time>2026-04-21T18:40:22.82Z</time></trkpt><trkpt lat="44.75525" lon="-0.5302083"><ele>10.200000000000001</ele><time>2026-04-21T18:40:23.82Z</time></trkpt><trkpt lat="44.755315" lon="-0.5301833"><ele>9.8</ele><time>2026-04-21T18:40:24.82Z</time></trkpt><trkpt lat="44.7554267" lon="-0.53013"><ele>9.4</ele><time>2026-04-21T18:40:26.82Z</time></trkpt><trkpt lat="44.75554" lon="-0.5300683"><ele>9.0</ele><time>2026-04-21T18:40:28.82Z</time></trkpt><trkpt lat="44.7556233" lon="-0.5299683"><ele>9.0</ele><time>2026-04-21T18:40:30.82Z</time></trkpt><trkpt lat="44.7556383" lon="-0.5298067"><ele>9.0</ele><time>2026-04-21T18:40:32.82Z</time></trkpt><trkpt lat="44.7556367" lon="-0.5296417"><ele>9.0</ele><time>2026-04-21T18:40:34.819Z</time></trkpt><trkpt lat="44.75564" lon="-0.529485"><ele>9.0</ele><time>2026-04-21T18:40:36.82Z</time></trkpt><trkpt lat="44.7556583" lon="-0.5293367"><ele>9.0</ele><time>2026-04-21T18:40:38.82Z</time></trkpt><trkpt lat="44.7557133" lon="-0.5292433"><ele>9.0</ele><time>2026-04-21T18:40:40.819Z</time></trkpt><trkpt lat="44.755835" lon="-0.529235"><ele>9.0</ele><time>2026-04-21T18:40:42.82Z</time></trkpt><trkpt lat="44.7559617" lon="-0.529235"><ele>9.0</ele><time>2026-04-21T18:40:44.819Z</time></trkpt><trkpt lat="44.7560283" lon="-0.5292317"><ele>9.0</ele><time>2026-04-21T18:40:45.82Z</time></trkpt><trkpt lat="44.756095" lon="-0.5292267"><ele>8.4</ele><time>2026-04-21T18:40:46.82Z</time></trkpt><trkpt lat="44.7562217" lon="-0.529205"><ele>7.800000000000001</ele><time>2026-04-21T18:40:48.82Z</time></trkpt><trkpt lat="44.756345" lon="-0.5291833"><ele>7.199999999999999</ele><time>2026-04-21T18:40:50.82Z</time></trkpt><trkpt lat="44.7564083" lon="-0.5291733"><ele>6.6</ele><time>2026-04-21T18:40:51.819Z</time></trkpt><trkpt lat="44.7564733" lon="-0.5291583"><ele>6.0</ele><time>2026-04-21T18:40:52.82Z</time></trkpt><trkpt lat="44.756555" lon="-0.5291567"><ele>5.999999999999999</ele><time>2026-04-21T18:40:53.82Z</time></trkpt><trkpt lat="44.75662" lon="-0.5291383"><ele>6.0</ele><time>2026-04-21T18:40:54.82Z</time></trkpt><trkpt lat="44.75669" lon="-0.5291233"><ele>6.0</ele><time>2026-04-21T18:40:55.82Z</time></trkpt><trkpt lat="44.7567583" lon="-0.5291"><ele>6.0</ele><time>2026-04-21T18:40:56.82Z</time></trkpt><trkpt lat="44.7568267" lon="-0.5290683"><ele>6.0</ele><time>2026-04-21T18:40:57.82Z</time></trkpt><trkpt lat="44.75689" lon="-0.5290383"><ele>5.999999999999999</ele><time>2026-04-21T18:40:58.82Z</time></trkpt><trkpt lat="44.7569567" lon="-0.5290217"><ele>6.0</ele><time>2026-04-21T18:40:59.82Z</time></trkpt><trkpt lat="44.7570217" lon="-0.529015"><ele>5.857142857142857</ele><time>2026-04-21T18:41:00.82Z</time></trkpt><trkpt lat="44.75709" lon="-0.529015"><ele>5.714285714285714</ele><time>2026-04-21T18:41:01.82Z</time></trkpt><trkpt lat="44.7571633" lon="-0.529025"><ele>5.571428571428571</ele><time>2026-04-21T18:41:02.82Z</time></trkpt><trkpt lat="44.75724" lon="-0.5290233"><ele>5.428571428571429</ele><time>2026-04-21T18:41:03.82Z</time></trkpt><trkpt lat="44.7573083" lon="-0.52901"><ele>5.285714285714286</ele><time>2026-04-21T18:41:04.82Z</time></trkpt><trkpt lat="44.7573833" lon="-0.5289983"><ele>5.142857142857142</ele><time>2026-04-21T18:41:05.82Z</time></trkpt><trkpt lat="44.7574583" lon="-0.528975"><ele>5.0</ele><time>2026-04-21T18:41:06.82Z</time></trkpt><trkpt lat="44.7575267" lon="-0.5289533"><ele>5.0</ele><time>2026-04-21T18:41:07.82Z</time></trkpt><trkpt lat="44.7575967" lon="-0.52894"><ele>5.0</ele><time>2026-04-21T18:41:08.82Z</time></trkpt><trkpt lat="44.757665" lon="-0.5289317"><ele>5.0</ele><time>2026-04-21T18:41:09.82Z</time></trkpt><trkpt lat="44.7577367" lon="-0.5289133"><ele>5.0</ele><time>2026-04-21T18:41:10.82Z</time></trkpt><trkpt lat="44.757805" lon="-0.5288983"><ele>5.0</ele><time>2026-04-21T18:41:11.819Z</time></trkpt><trkpt lat="44.757875" lon="-0.5288883"><ele>5.0</ele><time>2026-04-21T18:41:12.82Z</time></trkpt><trkpt lat="44.7579467" lon="-0.5288717"><ele>5.0</ele><time>2026-04-21T18:41:13.82Z</time></trkpt><trkpt lat="44.7580167" lon="-0.5288617"><ele>5.0</ele><time>2026-04-21T18:41:14.819Z</time></trkpt><trkpt lat="44.7580867" lon="-0.5288567"><ele>5.0</ele><time>2026-04-21T18:41:15.82Z</time></trkpt><trkpt lat="44.7581567" lon="-0.5288433"><ele>5.0</ele><time>2026-04-21T18:41:16.82Z</time></trkpt><trkpt lat="44.7582267" lon="-0.5288283"><ele>5.0</ele><time>2026-04-21T18:41:17.82Z</time></trkpt><trkpt lat="44.7583" lon="-0.528815"><ele>5.0</ele><time>2026-04-21T18:41:18.82Z</time></trkpt><trkpt lat="44.75837" lon="-0.5287967"><ele>5.0</ele><time>2026-04-21T18:41:19.819Z</time></trkpt><trkpt lat="44.75844" lon="-0.5287733"><ele>5.0</ele><time>2026-04-21T18:41:20.82Z</time></trkpt><trkpt lat="44.7585067" lon="-0.5287567"><ele>4.714285714285714</ele><time>2026-04-21T18:41:21.82Z</time></trkpt><trkpt lat="44.7585767" lon="-0.5287433"><ele>4.428571428571429</ele><time>2026-04-21T18:41:22.82Z</time></trkpt><trkpt lat="44.758645" lon="-0.52874"><ele>4.142857142857142</ele><time>2026-04-21T18:41:23.82Z</time></trkpt><trkpt lat="44.7587167" lon="-0.5287417"><ele>3.8571428571428568</ele><time>2026-04-21T18:41:24.819Z</time></trkpt><trkpt lat="44.7587883" lon="-0.5287417"><ele>3.571428571428571</ele><time>2026-04-21T18:41:25.82Z</time></trkpt><trkpt lat="44.7588617" lon="-0.528735"><ele>3.2857142857142856</ele><time>2026-04-21T18:41:26.82Z</time></trkpt><trkpt lat="44.7589333" lon="-0.5287417"><ele>3.0</ele><time>2026-04-21T18:41:27.82Z</time></trkpt><trkpt lat="44.759005" lon="-0.5287383"><ele>2.9999999999999996</ele><time>2026-04-21T18:41:28.82Z</time></trkpt><trkpt lat="44.7590767" lon="-0.528735"><ele>3.0</ele><time>2026-04-21T18:41:29.82Z</time></trkpt><trkpt lat="44.75915" lon="-0.5287333"><ele>3.0</ele><time>2026-04-21T18:41:30.82Z</time></trkpt><trkpt lat="44.7592233" lon="-0.528735"><ele>3.0</ele><time>2026-04-21T18:41:31.819Z</time></trkpt><trkpt lat="44.7592967" lon="-0.52873"><ele>3.0</ele><time>2026-04-21T18:41:32.82Z</time></trkpt><trkpt lat="44.7593683" lon="-0.5287283"><ele>2.9999999999999996</ele><time>2026-04-21T18:41:33.82Z</time></trkpt><trkpt lat="44.7594417" lon="-0.5287283"><ele>3.0</ele><time>2026-04-21T18:41:34.82Z</time></trkpt><trkpt lat="44.7595167" lon="-0.5287333"><ele>3.4285714285714284</ele><time>2026-04-21T18:41:35.82Z</time></trkpt><trkpt lat="44.7595867" lon="-0.52874"><ele>3.8571428571428568</ele><time>2026-04-21T18:41:36.82Z</time></trkpt><trkpt lat="44.7596617" lon="-0.5287433"><ele>4.285714285714286</ele><time>2026-04-21T18:41:37.82Z</time></trkpt><trkpt lat="44.7597333" lon="-0.5287517"><ele>4.7142857142857135</ele><time>2026-04-21T18:41:38.82Z</time></trkpt><trkpt lat="44.7598033" lon="-0.52876"><ele>5.142857142857142</ele><time>2026-04-21T18:41:39.82Z</time></trkpt><trkpt lat="44.759875" lon="-0.52876"><ele>5.571428571428571</ele><time>2026-04-21T18:41:40.819Z</time></trkpt><trkpt lat="44.75995" lon="-0.528745"><ele>6.0</ele><time>2026-04-21T18:41:41.82Z</time></trkpt><trkpt lat="44.7600167" lon="-0.5287417"><ele>5.999999999999999</ele><time>2026-04-21T18:41:42.82Z</time></trkpt><trkpt lat="44.760085" lon="-0.5287367"><ele>6.0</ele><time>2026-04-21T18:41:43.82Z</time></trkpt><trkpt lat="44.760155" lon="-0.5287317"><ele>6.0</ele><time>2026-04-21T18:41:44.82Z</time></trkpt><trkpt lat="44.7602267" lon="-0.52874"><ele>6.0</ele><time>2026-04-21T18:41:45.819Z</time></trkpt><trkpt lat="44.7603" lon="-0.5287333"><ele>6.0</ele><time>2026-04-21T18:41:46.82Z</time></trkpt><trkpt lat="44.7603783" lon="-0.5287283"><ele>5.999999999999999</ele><time>2026-04-21T18:41:47.82Z</time></trkpt><trkpt lat="44.760455" lon="-0.5287383"><ele>6.0</ele><time>2026-04-21T18:41:48.82Z</time></trkpt><trkpt lat="44.7605267" lon="-0.52875"><ele>5.857142857142857</ele><time>2026-04-21T18:41:49.82Z</time></trkpt><trkpt lat="44.7605967" lon="-0.5287683"><ele>5.714285714285714</ele><time>2026-04-21T18:41:50.82Z</time></trkpt><trkpt lat="44.7606683" lon="-0.5287783"><ele>5.571428571428571</ele><time>2026-04-21T18:41:51.82Z</time></trkpt><trkpt lat="44.7607417" lon="-0.52879"><ele>5.428571428571429</ele><time>2026-04-21T18:41:52.82Z</time></trkpt><trkpt lat="44.7608083" lon="-0.5288033"><ele>5.285714285714286</ele><time>2026-04-21T18:41:53.819Z</time></trkpt><trkpt lat="44.7608783" lon="-0.5288217"><ele>5.142857142857142</ele><time>2026-04-21T18:41:54.819Z</time></trkpt><trkpt lat="44.7609467" lon="-0.52884"><ele>5.0</ele><time>2026-04-21T18:41:55.82Z</time></trkpt><trkpt lat="44.7610133" lon="-0.5288633"><ele>4.857142857142857</ele><time>2026-04-21T18:41:56.82Z</time></trkpt><trkpt lat="44.7610817" lon="-0.5288917"><ele>4.714285714285714</ele><time>2026-04-21T18:41:57.819Z</time></trkpt><trkpt lat="44.7611467" lon="-0.5289183"><ele>4.571428571428571</ele><time>2026-04-21T18:41:58.82Z</time></trkpt><trkpt lat="44.7612167" lon="-0.5289483"><ele>4.428571428571429</ele><time>2026-04-21T18:41:59.82Z</time></trkpt><trkpt lat="44.7612867" lon="-0.52898"><ele>4.285714285714286</ele><time>2026-04-21T18:42:00.82Z</time></trkpt><trkpt lat="44.7613583" lon="-0.5290117"><ele>4.142857142857142</ele><time>2026-04-21T18:42:01.82Z</time></trkpt><trkpt lat="44.7614233" lon="-0.5290483"><ele>4.0</ele><time>2026-04-21T18:42:02.82Z</time></trkpt><trkpt lat="44.761495" lon="-0.5290783"><ele>4.0</ele><time>2026-04-21T18:42:03.82Z</time></trkpt><trkpt lat="44.761565" lon="-0.5291083"><ele>3.9999999999999996</ele><time>2026-04-21T18:42:04.819Z</time></trkpt><trkpt lat="44.7616283" lon="-0.529145"><ele>4.0</ele><time>2026-04-21T18:42:05.82Z</time></trkpt><trkpt lat="44.761695" lon="-0.52918"><ele>4.0</ele><time>2026-04-21T18:42:06.82Z</time></trkpt><trkpt lat="44.76176" lon="-0.5292183"><ele>3.9999999999999996</ele><time>2026-04-21T18:42:07.82Z</time></trkpt><trkpt lat="44.7618283" lon="-0.5292583"><ele>4.0</ele><time>2026-04-21T18:42:08.82Z</time></trkpt><trkpt lat="44.7618983" lon="-0.5292883"><ele>4.0</ele><time>2026-04-21T18:42:09.82Z</time></trkpt><trkpt lat="44.7619683" lon="-0.5293183"><ele>3.8571428571428568</ele><time>2026-04-21T18:42:10.819Z</time></trkpt><trkpt lat="44.762035" lon="-0.52935"><ele>3.714285714285714</ele><time>2026-04-21T18:42:11.819Z</time></trkpt><trkpt lat="44.7621017" lon="-0.5293883"><ele>3.571428571428571</ele><time>2026-04-21T18:42:12.82Z</time></trkpt><trkpt lat="44.7621683" lon="-0.52942"><ele>3.4285714285714284</ele><time>2026-04-21T18:42:13.82Z</time></trkpt><trkpt lat="44.7622317" lon="-0.5294517"><ele>3.2857142857142856</ele><time>2026-04-21T18:42:14.819Z</time></trkpt><trkpt lat="44.7622983" lon="-0.5294833"><ele>3.1428571428571423</ele><time>2026-04-21T18:42:15.819Z</time></trkpt><trkpt lat="44.7623633" lon="-0.52951"><ele>3.0</ele><time>2026-04-21T18:42:16.82Z</time></trkpt><trkpt lat="44.76243" lon="-0.5295283"><ele>2.9999999999999996</ele><time>2026-04-21T18:42:17.82Z</time></trkpt><trkpt lat="44.7624933" lon="-0.52954"><ele>3.0</ele><time>2026-04-21T18:42:18.82Z</time></trkpt><trkpt lat="44.7625617" lon="-0.5295567"><ele>3.0</ele><time>2026-04-21T18:42:19.82Z</time></trkpt><trkpt lat="44.7626333" lon="-0.529565"><ele>3.0</ele><time>2026-04-21T18:42:20.819Z</time></trkpt><trkpt lat="44.762705" lon="-0.529565"><ele>3.0</ele><time>2026-04-21T18:42:21.819Z</time></trkpt><trkpt lat="44.7627717" lon="-0.5295767"><ele>2.9999999999999996</ele><time>2026-04-21T18:42:22.82Z</time></trkpt><trkpt lat="44.762835" lon="-0.5295967"><ele>3.0</ele><time>2026-04-21T18:42:23.82Z</time></trkpt><trkpt lat="44.76296" lon="-0.52962"><ele>3.1666666666666665</ele><time>2026-04-21T18:42:25.82Z</time></trkpt><trkpt lat="44.7630383" lon="-0.5295883"><ele>3.333333333333333</ele><time>2026-04-21T18:42:26.819Z</time></trkpt><trkpt lat="44.7631167" lon="-0.52957"><ele>3.5</ele><time>2026-04-21T18:42:27.82Z</time></trkpt><trkpt lat="44.7631917" lon="-0.5295567"><ele>3.6666666666666665</ele><time>2026-04-21T18:42:28.819Z</time></trkpt><trkpt lat="44.7632633" lon="-0.5295417"><ele>3.833333333333333</ele><time>2026-04-21T18:42:29.819Z</time></trkpt><trkpt lat="44.7633333" lon="-0.5295267"><ele>4.0</ele><time>2026-04-21T18:42:30.82Z</time></trkpt><trkpt lat="44.7634033" lon="-0.5294983"><ele>4.0</ele><time>2026-04-21T18:42:31.82Z</time></trkpt><trkpt lat="44.7634733" lon="-0.5294683"><ele>3.9999999999999996</ele><time>2026-04-21T18:42:32.82Z</time></trkpt><trkpt lat="44.7635433" lon="-0.5294333"><ele>4.0</ele><time>2026-04-21T18:42:33.82Z</time></trkpt><trkpt lat="44.76361" lon="-0.5293983"><ele>4.0</ele><time>2026-04-21T18:42:34.82Z</time></trkpt><trkpt lat="44.76368" lon="-0.5293633"><ele>3.9999999999999996</ele><time>2026-04-21T18:42:35.82Z</time></trkpt><trkpt lat="44.7637567" lon="-0.5293317"><ele>4.0</ele><time>2026-04-21T18:42:36.819Z</time></trkpt><trkpt lat="44.763825" lon="-0.5293017"><ele>4.0</ele><time>2026-04-21T18:42:37.82Z</time></trkpt><trkpt lat="44.7638983" lon="-0.5292717"><ele>4.0</ele><time>2026-04-21T18:42:38.82Z</time></trkpt><trkpt lat="44.7639733" lon="-0.529235"><ele>3.9999999999999996</ele><time>2026-04-21T18:42:39.82Z</time></trkpt><trkpt lat="44.7640383" lon="-0.5292033"><ele>4.0</ele><time>2026-04-21T18:42:40.82Z</time></trkpt><trkpt lat="44.764105" lon="-0.5291667"><ele>4.0</ele><time>2026-04-21T18:42:41.819Z</time></trkpt><trkpt lat="44.76417" lon="-0.5291383"><ele>3.9999999999999996</ele><time>2026-04-21T18:42:42.82Z</time></trkpt><trkpt lat="44.76424" lon="-0.5291083"><ele>4.0</ele><time>2026-04-21T18:42:43.82Z</time></trkpt><trkpt lat="44.7643133" lon="-0.5290783"><ele>4.0</ele><time>2026-04-21T18:42:44.82Z</time></trkpt><trkpt lat="44.7643883" lon="-0.52905"><ele>4.2</ele><time>2026-04-21T18:42:45.82Z</time></trkpt><trkpt lat="44.764465" lon="-0.52902"><ele>4.4</ele><time>2026-04-21T18:42:46.82Z</time></trkpt><trkpt lat="44.7646083" lon="-0.52898"><ele>4.6</ele><time>2026-04-21T18:42:48.82Z</time></trkpt><trkpt lat="44.7646817" lon="-0.52895"><ele>4.8</ele><time>2026-04-21T18:42:49.82Z</time></trkpt><trkpt lat="44.7647533" lon="-0.5289233"><ele>5.0</ele><time>2026-04-21T18:42:50.82Z</time></trkpt><trkpt lat="44.764825" lon="-0.5289"><ele>5.0</ele><time>2026-04-21T18:42:51.819Z</time></trkpt><trkpt lat="44.7649" lon="-0.5288717"><ele>5.0</ele><time>2026-04-21T18:42:52.819Z</time></trkpt><trkpt lat="44.7650383" lon="-0.528835"><ele>5.0</ele><time>2026-04-21T18:42:54.82Z</time></trkpt><trkpt lat="44.7651783" lon="-0.528815"><ele>5.0</ele><time>2026-04-21T18:42:56.82Z</time></trkpt><trkpt lat="44.7652433" lon="-0.5287983"><ele>5.0</ele><time>2026-04-21T18:42:57.819Z</time></trkpt><trkpt lat="44.7653717" lon="-0.5287733"><ele>4.8</ele><time>2026-04-21T18:42:59.819Z</time></trkpt><trkpt lat="44.765515" lon="-0.5287467"><ele>4.6</ele><time>2026-04-21T18:43:01.82Z</time></trkpt><trkpt lat="44.76559" lon="-0.5287417"><ele>4.4</ele><time>2026-04-21T18:43:02.82Z</time></trkpt><trkpt lat="44.7656583" lon="-0.5287317"><ele>4.2</ele><time>2026-04-21T18:43:03.82Z</time></trkpt><trkpt lat="44.765795" lon="-0.52871"><ele>4.0</ele><time>2026-04-21T18:43:05.82Z</time></trkpt><trkpt lat="44.7658683" lon="-0.5287033"><ele>4.0</ele><time>2026-04-21T18:43:06.82Z</time></trkpt><trkpt lat="44.76594" lon="-0.5286967"><ele>3.9999999999999996</ele><time>2026-04-21T18:43:07.819Z</time></trkpt><trkpt lat="44.7660083" lon="-0.5286933"><ele>4.0</ele><time>2026-04-21T18:43:08.82Z</time></trkpt><trkpt lat="44.7660783" lon="-0.528685"><ele>4.0</ele><time>2026-04-21T18:43:09.82Z</time></trkpt><trkpt lat="44.7661467" lon="-0.5286783"><ele>3.9999999999999996</ele><time>2026-04-21T18:43:10.82Z</time></trkpt><trkpt lat="44.7662183" lon="-0.5286783"><ele>4.0</ele><time>2026-04-21T18:43:11.82Z</time></trkpt><trkpt lat="44.76629" lon="-0.5286717"><ele>4.0</ele><time>2026-04-21T18:43:12.819Z</time></trkpt><trkpt lat="44.7663683" lon="-0.5286683"><ele>3.714285714285714</ele><time>2026-04-21T18:43:13.82Z</time></trkpt><trkpt lat="44.76644" lon="-0.5286567"><ele>3.428571428571428</ele><time>2026-04-21T18:43:14.82Z</time></trkpt><trkpt lat="44.7665117" lon="-0.5286483"><ele>3.142857142857143</ele><time>2026-04-21T18:43:15.82Z</time></trkpt><trkpt lat="44.7665817" lon="-0.5286433"><ele>2.8571428571428568</ele><time>2026-04-21T18:43:16.819Z</time></trkpt><trkpt lat="44.76665" lon="-0.5286367"><ele>2.571428571428571</ele><time>2026-04-21T18:43:17.819Z</time></trkpt><trkpt lat="44.7667217" lon="-0.52863"><ele>2.2857142857142856</ele><time>2026-04-21T18:43:18.82Z</time></trkpt><trkpt lat="44.76679" lon="-0.52862"><ele>2.0</ele><time>2026-04-21T18:43:19.82Z</time></trkpt><trkpt lat="44.766865" lon="-0.5286133"><ele>2.0</ele><time>2026-04-21T18:43:20.82Z</time></trkpt><trkpt lat="44.7669417" lon="-0.5286067"><ele>1.9999999999999998</ele><time>2026-04-21T18:43:21.82Z</time></trkpt><trkpt lat="44.767015" lon="-0.528605"><ele>2.0</ele><time>2026-04-21T18:43:22.82Z</time></trkpt><trkpt lat="44.7670833" lon="-0.5286017"><ele>2.0</ele><time>2026-04-21T18:43:23.82Z</time></trkpt><trkpt lat="44.767155" lon="-0.5286017"><ele>1.9999999999999998</ele><time>2026-04-21T18:43:24.819Z</time></trkpt><trkpt lat="44.767225" lon="-0.5285967"><ele>2.0</ele><time>2026-04-21T18:43:25.819Z</time></trkpt><trkpt lat="44.7672983" lon="-0.5285983"><ele>2.0</ele><time>2026-04-21T18:43:26.819Z</time></trkpt><trkpt lat="44.7673733" lon="-0.5286033"><ele>2.0</ele><time>2026-04-21T18:43:27.82Z</time></trkpt><trkpt lat="44.7674417" lon="-0.5286"><ele>1.9999999999999998</ele><time>2026-04-21T18:43:28.819Z</time></trkpt><trkpt lat="44.7675133" lon="-0.5285933"><ele>2.0</ele><time>2026-04-21T18:43:29.82Z</time></trkpt><trkpt lat="44.76759" lon="-0.5285933"><ele>2.0</ele><time>2026-04-21T18:43:30.82Z</time></trkpt><trkpt lat="44.7676633" lon="-0.5285867"><ele>1.9999999999999998</ele><time>2026-04-21T18:43:31.82Z</time></trkpt><trkpt lat="44.767735" lon="-0.52858"><ele>2.0</ele><time>2026-04-21T18:43:32.82Z</time></trkpt><trkpt lat="44.7678067" lon="-0.528575"><ele>2.0</ele><time>2026-04-21T18:43:33.819Z</time></trkpt><trkpt lat="44.7678783" lon="-0.5285667"><ele>2.2857142857142856</ele><time>2026-04-21T18:43:34.819Z</time></trkpt><trkpt lat="44.7679533" lon="-0.5285567"><ele>2.571428571428571</ele><time>2026-04-21T18:43:35.82Z</time></trkpt><trkpt lat="44.768025" lon="-0.5285467"><ele>2.8571428571428568</ele><time>2026-04-21T18:43:36.82Z</time></trkpt><trkpt lat="44.7680983" lon="-0.52854"><ele>3.142857142857143</ele><time>2026-04-21T18:43:37.82Z</time></trkpt><trkpt lat="44.7681733" lon="-0.5285317"><ele>3.428571428571428</ele><time>2026-04-21T18:43:38.82Z</time></trkpt><trkpt lat="44.7682483" lon="-0.528525"><ele>3.714285714285714</ele><time>2026-04-21T18:43:39.82Z</time></trkpt><trkpt lat="44.7683217" lon="-0.5285117"><ele>4.0</ele><time>2026-04-21T18:43:40.819Z</time></trkpt><trkpt lat="44.768395" lon="-0.5285117"><ele>4.0</ele><time>2026-04-21T18:43:41.82Z</time></trkpt><trkpt lat="44.7684667" lon="-0.528515"><ele>3.9999999999999996</ele><time>2026-04-21T18:43:42.819Z</time></trkpt><trkpt lat="44.76854" lon="-0.5285067"><ele>4.0</ele><time>2026-04-21T18:43:43.82Z</time></trkpt><trkpt lat="44.768615" lon="-0.5284983"><ele>4.0</ele><time>2026-04-21T18:43:44.82Z</time></trkpt><trkpt lat="44.768685" lon="-0.5284917"><ele>3.9999999999999996</ele><time>2026-04-21T18:43:45.82Z</time></trkpt><trkpt lat="44.7687583" lon="-0.5284817"><ele>4.0</ele><time>2026-04-21T18:43:46.82Z</time></trkpt><trkpt lat="44.7688283" lon="-0.528475"><ele>4.0</ele><time>2026-04-21T18:43:47.82Z</time></trkpt><trkpt lat="44.7689033" lon="-0.5284683"><ele>4.0</ele><time>2026-04-21T18:43:48.82Z</time></trkpt><trkpt lat="44.7689767" lon="-0.52847"><ele>3.9999999999999996</ele><time>2026-04-21T18:43:49.82Z</time></trkpt><trkpt lat="44.7690533" lon="-0.5284617"><ele>4.0</ele><time>2026-04-21T18:43:50.82Z</time></trkpt><trkpt lat="44.7691217" lon="-0.52845"><ele>4.0</ele><time>2026-04-21T18:43:51.819Z</time></trkpt><trkpt lat="44.769195" lon="-0.528445"><ele>3.9999999999999996</ele><time>2026-04-21T18:43:52.819Z</time></trkpt><trkpt lat="44.7692633" lon="-0.5284433"><ele>4.0</ele><time>2026-04-21T18:43:53.819Z</time></trkpt><trkpt lat="44.7693333" lon="-0.5284383"><ele>4.0</ele><time>2026-04-21T18:43:54.82Z</time></trkpt><trkpt lat="44.76941" lon="-0.5284317"><ele>4.0</ele><time>2026-04-21T18:43:55.82Z</time></trkpt><trkpt lat="44.7694817" lon="-0.52842"><ele>3.9999999999999996</ele><time>2026-04-21T18:43:56.82Z</time></trkpt><trkpt lat="44.76955" lon="-0.5284133"><ele>4.0</ele><time>2026-04-21T18:43:57.82Z</time></trkpt><trkpt lat="44.76962" lon="-0.5284083"><ele>4.0</ele><time>2026-04-21T18:43:58.82Z</time></trkpt><trkpt lat="44.7696917" lon="-0.5284017"><ele>3.9999999999999996</ele><time>2026-04-21T18:43:59.82Z</time></trkpt><trkpt lat="44.769765" lon="-0.5284"><ele>4.0</ele><time>2026-04-21T18:44:00.819Z</time></trkpt><trkpt lat="44.76984" lon="-0.5283967"><ele>4.0</ele><time>2026-04-21T18:44:01.82Z</time></trkpt><trkpt lat="44.76991" lon="-0.528395"><ele>4.0</ele><time>2026-04-21T18:44:02.82Z</time></trkpt><trkpt lat="44.769985" lon="-0.5283917"><ele>3.9999999999999996</ele><time>2026-04-21T18:44:03.82Z</time></trkpt><trkpt lat="44.77006" lon="-0.5283883"><ele>4.0</ele><time>2026-04-21T18:44:04.82Z</time></trkpt><trkpt lat="44.7701333" lon="-0.5283833"><ele>4.0</ele><time>2026-04-21T18:44:05.82Z</time></trkpt><trkpt lat="44.7702083" lon="-0.5283767"><ele>3.9999999999999996</ele><time>2026-04-21T18:44:06.82Z</time></trkpt><trkpt lat="44.7702817" lon="-0.5283733"><ele>4.0</ele><time>2026-04-21T18:44:07.82Z</time></trkpt><trkpt lat="44.7703533" lon="-0.5283683"><ele>4.0</ele><time>2026-04-21T18:44:08.819Z</time></trkpt><trkpt lat="44.7704267" lon="-0.5283567"><ele>4.142857142857142</ele><time>2026-04-21T18:44:09.819Z</time></trkpt><trkpt lat="44.7705" lon="-0.5283467"><ele>4.285714285714286</ele><time>2026-04-21T18:44:10.82Z</time></trkpt><trkpt lat="44.7705733" lon="-0.5283367"><ele>4.428571428571429</ele><time>2026-04-21T18:44:11.82Z</time></trkpt><trkpt lat="44.7706417" lon="-0.5283433"><ele>4.571428571428571</ele><time>2026-04-21T18:44:12.819Z</time></trkpt><trkpt lat="44.7707117" lon="-0.5283483"><ele>4.714285714285714</ele><time>2026-04-21T18:44:13.82Z</time></trkpt><trkpt lat="44.77078" lon="-0.528335"><ele>4.857142857142857</ele><time>2026-04-21T18:44:14.82Z</time></trkpt><trkpt lat="44.770855" lon="-0.5283183"><ele>5.0</ele><time>2026-04-21T18:44:15.82Z</time></trkpt><trkpt lat="44.7709283" lon="-0.5282983"><ele>5.0</ele><time>2026-04-21T18:44:16.82Z</time></trkpt><trkpt lat="44.7709983" lon="-0.528275"><ele>5.0</ele><time>2026-04-21T18:44:17.819Z</time></trkpt><trkpt lat="44.77107" lon="-0.5282583"><ele>5.0</ele><time>2026-04-21T18:44:18.82Z</time></trkpt><trkpt lat="44.77114" lon="-0.5282317"><ele>5.0</ele><time>2026-04-21T18:44:19.819Z</time></trkpt><trkpt lat="44.7712083" lon="-0.5282033"><ele>5.0</ele><time>2026-04-21T18:44:20.82Z</time></trkpt><trkpt lat="44.77128" lon="-0.5281783"><ele>5.0</ele><time>2026-04-21T18:44:21.82Z</time></trkpt><trkpt lat="44.7713433" lon="-0.5281583"><ele>5.0</ele><time>2026-04-21T18:44:22.82Z</time></trkpt><trkpt lat="44.7714033" lon="-0.5281267"><ele>5.2</ele><time>2026-04-21T18:44:23.82Z</time></trkpt><trkpt lat="44.7715183" lon="-0.5280683"><ele>5.4</ele><time>2026-04-21T18:44:25.82Z</time></trkpt><trkpt lat="44.77158" lon="-0.5280333"><ele>5.6</ele><time>2026-04-21T18:44:26.82Z</time></trkpt><trkpt lat="44.771645" lon="-0.5280017"><ele>5.8</ele><time>2026-04-21T18:44:27.82Z</time></trkpt><trkpt lat="44.7717083" lon="-0.5279683"><ele>6.0</ele><time>2026-04-21T18:44:28.82Z</time></trkpt><trkpt lat="44.7718217" lon="-0.527895"><ele>5.833333333333333</ele><time>2026-04-21T18:44:30.819Z</time></trkpt><trkpt lat="44.7718833" lon="-0.52787"><ele>5.666666666666667</ele><time>2026-04-21T18:44:31.82Z</time></trkpt><trkpt lat="44.7719967" lon="-0.52782"><ele>5.5</ele><time>2026-04-21T18:44:33.819Z</time></trkpt><trkpt lat="44.7720617" lon="-0.5277967"><ele>5.333333333333334</ele><time>2026-04-21T18:44:34.82Z</time></trkpt><trkpt lat="44.7721733" lon="-0.52776"><ele>5.166666666666667</ele><time>2026-04-21T18:44:36.82Z</time></trkpt><trkpt lat="44.7722383" lon="-0.527745"><ele>5.0</ele><time>2026-04-21T18:44:37.82Z</time></trkpt><trkpt lat="44.7723017" lon="-0.5277517"><ele>5.0</ele><time>2026-04-21T18:44:38.82Z</time></trkpt><trkpt lat="44.7724167" lon="-0.5277867"><ele>5.0</ele><time>2026-04-21T18:44:40.819Z</time></trkpt><trkpt lat="44.7725317" lon="-0.5278417"><ele>5.0</ele><time>2026-04-21T18:44:42.82Z</time></trkpt><trkpt lat="44.77265" lon="-0.52786"><ele>5.0</ele><time>2026-04-21T18:44:44.82Z</time></trkpt><trkpt lat="44.7727117" lon="-0.52788"><ele>5.0</ele><time>2026-04-21T18:44:45.82Z</time></trkpt><trkpt lat="44.772825" lon="-0.52791"><ele>5.2</ele><time>2026-04-21T18:44:47.819Z</time></trkpt><trkpt lat="44.7729383" lon="-0.527945"><ele>5.4</ele><time>2026-04-21T18:44:49.82Z</time></trkpt><trkpt lat="44.7730433" lon="-0.5279767"><ele>5.6</ele><time>2026-04-21T18:44:51.82Z</time></trkpt><trkpt lat="44.77315" lon="-0.5280233"><ele>5.8</ele><time>2026-04-21T18:44:53.819Z</time></trkpt><trkpt lat="44.7732517" lon="-0.5280617"><ele>6.0</ele><time>2026-04-21T18:44:55.819Z</time></trkpt><trkpt lat="44.77335" lon="-0.5280683"><ele>6.0</ele><time>2026-04-21T18:44:57.819Z</time></trkpt><trkpt lat="44.773435" lon="-0.5280883"><ele>6.0</ele><time>2026-04-21T18:44:59.819Z</time></trkpt><trkpt lat="44.7735133" lon="-0.5281383"><ele>6.0</ele><time>2026-04-21T18:45:01.819Z</time></trkpt><trkpt lat="44.7735683" lon="-0.528255"><ele>6.0</ele><time>2026-04-21T18:45:03.819Z</time></trkpt><trkpt lat="44.7735917" lon="-0.5283983"><ele>6.0</ele><time>2026-04-21T18:45:05.819Z</time></trkpt><trkpt lat="44.7736067" lon="-0.5285383"><ele>5.75</ele><time>2026-04-21T18:45:07.819Z</time></trkpt><trkpt lat="44.773635" lon="-0.5286933"><ele>5.5</ele><time>2026-04-21T18:45:09.819Z</time></trkpt><trkpt lat="44.7737017" lon="-0.52882"><ele>5.25</ele><time>2026-04-21T18:45:11.818Z</time></trkpt><trkpt lat="44.7738133" lon="-0.5288433"><ele>5.0</ele><time>2026-04-21T18:45:13.819Z</time></trkpt><trkpt lat="44.77394" lon="-0.528835"><ele>5.166666666666667</ele><time>2026-04-21T18:45:15.819Z</time></trkpt><trkpt lat="44.7740033" lon="-0.528835"><ele>5.333333333333334</ele><time>2026-04-21T18:45:16.819Z</time></trkpt><trkpt lat="44.7740667" lon="-0.5288383"><ele>5.5</ele><time>2026-04-21T18:45:17.819Z</time></trkpt><trkpt lat="44.77419" lon="-0.5288467"><ele>5.666666666666667</ele><time>2026-04-21T18:45:19.819Z</time></trkpt><trkpt lat="44.7742533" lon="-0.528845"><ele>5.833333333333333</ele><time>2026-04-21T18:45:20.818Z</time></trkpt><trkpt lat="44.7743717" lon="-0.5288417"><ele>6.0</ele><time>2026-04-21T18:45:22.819Z</time></trkpt><trkpt lat="44.77449" lon="-0.5288417"><ele>6.0</ele><time>2026-04-21T18:45:24.819Z</time></trkpt><trkpt lat="44.7746033" lon="-0.528845"><ele>6.0</ele><time>2026-04-21T18:45:26.819Z</time></trkpt><trkpt lat="44.7747217" lon="-0.5288267"><ele>6.0</ele><time>2026-04-21T18:45:28.818Z</time></trkpt><trkpt lat="44.7748383" lon="-0.5288183"><ele>6.0</ele><time>2026-04-21T18:45:30.819Z</time></trkpt><trkpt lat="44.7749567" lon="-0.5288067"><ele>6.0</ele><time>2026-04-21T18:45:32.819Z</time></trkpt><trkpt lat="44.7750733" lon="-0.5288067"><ele>6.0</ele><time>2026-04-21T18:45:34.819Z</time></trkpt><trkpt lat="44.7751933" lon="-0.5287967"><ele>6.0</ele><time>2026-04-21T18:45:36.818Z</time></trkpt><trkpt lat="44.7752567" lon="-0.528795"><ele>6.0</ele><time>2026-04-21T18:45:37.819Z</time></trkpt><trkpt lat="44.77532" lon="-0.528795"><ele>6.0</ele><time>2026-04-21T18:45:38.819Z</time></trkpt><trkpt lat="44.7754383" lon="-0.5287833"><ele>6.0</ele><time>2026-04-21T18:45:40.819Z</time></trkpt><trkpt lat="44.7755383" lon="-0.5287717"><ele>6.0</ele><time>2026-04-21T18:45:42.819Z</time></trkpt><trkpt lat="44.7756183" lon="-0.528745"><ele>6.0</ele><time>2026-04-21T18:45:44.819Z</time></trkpt><trkpt lat="44.7756717" lon="-0.52869"><ele>6.0</ele><time>2026-04-21T18:45:47.818Z</time></trkpt><trkpt lat="44.7757583" lon="-0.5287783"><ele>6.0</ele><time>2026-04-21T18:45:50.818Z</time></trkpt><trkpt lat="44.77582" lon="-0.5288733"><ele>6.0</ele><time>2026-04-21T18:45:52.819Z</time></trkpt><trkpt lat="44.7758917" lon="-0.5289683"><ele>5.8</ele><time>2026-04-21T18:45:54.819Z</time></trkpt><trkpt lat="44.7759783" lon="-0.5290517"><ele>5.6</ele><time>2026-04-21T18:45:56.819Z</time></trkpt><trkpt lat="44.7760617" lon="-0.5291383"><ele>5.4</ele><time>2026-04-21T18:45:58.819Z</time></trkpt><trkpt lat="44.7761533" lon="-0.5292267"><ele>5.2</ele><time>2026-04-21T18:46:00.819Z</time></trkpt><trkpt lat="44.776235" lon="-0.52934"><ele>5.0</ele><time>2026-04-21T18:46:02.818Z</time></trkpt><trkpt lat="44.776335" lon="-0.529425"><ele>5.0</ele><time>2026-04-21T18:46:04.819Z</time></trkpt><trkpt lat="44.7764183" lon="-0.52954"><ele>5.0</ele><time>2026-04-21T18:46:06.818Z</time></trkpt><trkpt lat="44.7764933" lon="-0.5296533"><ele>5.0</ele><time>2026-04-21T18:46:08.819Z</time></trkpt><trkpt lat="44.7765667" lon="-0.5297417"><ele>5.0</ele><time>2026-04-21T18:46:10.818Z</time></trkpt><trkpt lat="44.7766233" lon="-0.529835"><ele>5.0</ele><time>2026-04-21T18:46:12.819Z</time></trkpt><trkpt lat="44.77669" lon="-0.5299"><ele>5.0</ele><time>2026-04-21T18:46:14.818Z</time></trkpt><trkpt lat="44.7767717" lon="-0.5299017"><ele>5.0</ele><time>2026-04-21T18:46:16.819Z</time></trkpt><trkpt lat="44.7768583" lon="-0.5299183"><ele>5.0</ele><time>2026-04-21T18:46:18.819Z</time></trkpt><trkpt lat="44.7769267" lon="-0.5300117"><ele>5.0</ele><time>2026-04-21T18:46:20.818Z</time></trkpt><trkpt lat="44.7769567" lon="-0.53013"><ele>5.0</ele><time>2026-04-21T18:46:22.819Z</time></trkpt><trkpt lat="44.7769983" lon="-0.5302483"><ele>5.0</ele><time>2026-04-21T18:46:24.819Z</time></trkpt><trkpt lat="44.777075" lon="-0.5303433"><ele>5.25</ele><time>2026-04-21T18:46:26.819Z</time></trkpt><trkpt lat="44.7771617" lon="-0.5304333"><ele>5.5</ele><time>2026-04-21T18:46:28.819Z</time></trkpt><trkpt lat="44.7772483" lon="-0.530535"><ele>5.75</ele><time>2026-04-21T18:46:30.819Z</time></trkpt><trkpt lat="44.77734" lon="-0.530645"><ele>6.0</ele><time>2026-04-21T18:46:32.819Z</time></trkpt><trkpt lat="44.777435" lon="-0.5307433"><ele>6.0</ele><time>2026-04-21T18:46:34.819Z</time></trkpt><trkpt lat="44.77753" lon="-0.5308517"><ele>6.0</ele><time>2026-04-21T18:46:36.819Z</time></trkpt><trkpt lat="44.7776133" lon="-0.5309633"><ele>6.0</ele><time>2026-04-21T18:46:38.819Z</time></trkpt><trkpt lat="44.7777033" lon="-0.5310733"><ele>6.0</ele><time>2026-04-21T18:46:40.819Z</time></trkpt><trkpt lat="44.777795" lon="-0.53117"><ele>6.5</ele><time>2026-04-21T18:46:42.819Z</time></trkpt><trkpt lat="44.777885" lon="-0.5312733"><ele>7.0</ele><time>2026-04-21T18:46:44.818Z</time></trkpt><trkpt lat="44.7779717" lon="-0.531365"><ele>7.5</ele><time>2026-04-21T18:46:46.819Z</time></trkpt><trkpt lat="44.7780633" lon="-0.531455"><ele>8.0</ele><time>2026-04-21T18:46:48.818Z</time></trkpt><trkpt lat="44.77816" lon="-0.53155"><ele>8.0</ele><time>2026-04-21T18:46:50.819Z</time></trkpt><trkpt lat="44.77826" lon="-0.5316533"><ele>8.0</ele><time>2026-04-21T18:46:52.819Z</time></trkpt><trkpt lat="44.7783533" lon="-0.5317483"><ele>8.0</ele><time>2026-04-21T18:46:54.818Z</time></trkpt><trkpt lat="44.7784467" lon="-0.5318433"><ele>8.0</ele><time>2026-04-21T18:46:56.819Z</time></trkpt><trkpt lat="44.77855" lon="-0.5319317"><ele>7.800000000000001</ele><time>2026-04-21T18:46:58.819Z</time></trkpt><trkpt lat="44.778655" lon="-0.532015"><ele>7.6000000000000005</ele><time>2026-04-21T18:47:00.818Z</time></trkpt><trkpt lat="44.77871" lon="-0.5320583"><ele>7.3999999999999995</ele><time>2026-04-21T18:47:01.819Z</time></trkpt><trkpt lat="44.7788117" lon="-0.5321583"><ele>7.199999999999999</ele><time>2026-04-21T18:47:03.819Z</time></trkpt><trkpt lat="44.7789133" lon="-0.5322633"><ele>7.0</ele><time>2026-04-21T18:47:05.818Z</time></trkpt><trkpt lat="44.779015" lon="-0.532365"><ele>7.0</ele><time>2026-04-21T18:47:07.818Z</time></trkpt><trkpt lat="44.779115" lon="-0.5324583"><ele>6.999999999999999</ele><time>2026-04-21T18:47:09.819Z</time></trkpt><trkpt lat="44.7792133" lon="-0.53254"><ele>6.999999999999999</ele><time>2026-04-21T18:47:11.819Z</time></trkpt><trkpt lat="44.7793083" lon="-0.5326167"><ele>7.0</ele><time>2026-04-21T18:47:13.819Z</time></trkpt><trkpt lat="44.7794033" lon="-0.5326617"><ele>7.0</ele><time>2026-04-21T18:47:15.819Z</time></trkpt><trkpt lat="44.7794817" lon="-0.5327167"><ele>6.6</ele><time>2026-04-21T18:47:17.818Z</time></trkpt><trkpt lat="44.7795233" lon="-0.53282"><ele>6.199999999999999</ele><time>2026-04-21T18:47:19.819Z</time></trkpt><trkpt lat="44.7795267" lon="-0.532965"><ele>5.8</ele><time>2026-04-21T18:47:21.819Z</time></trkpt><trkpt lat="44.7795417" lon="-0.5331083"><ele>5.4</ele><time>2026-04-21T18:47:23.819Z</time></trkpt><trkpt lat="44.779585" lon="-0.5332367"><ele>5.0</ele><time>2026-04-21T18:47:25.819Z</time></trkpt><trkpt lat="44.7796183" lon="-0.533315"><ele>5.0</ele><time>2026-04-21T18:47:26.819Z</time></trkpt><trkpt lat="44.7796517" lon="-0.5333983"><ele>5.0</ele><time>2026-04-21T18:47:27.819Z</time></trkpt><trkpt lat="44.7796883" lon="-0.5334733"><ele>5.0</ele><time>2026-04-21T18:47:28.819Z</time></trkpt><trkpt lat="44.7797167" lon="-0.533555"><ele>5.0</ele><time>2026-04-21T18:47:29.819Z</time></trkpt><trkpt lat="44.779745" lon="-0.5336383"><ele>5.0</ele><time>2026-04-21T18:47:30.819Z</time></trkpt><trkpt lat="44.77977" lon="-0.5337217"><ele>5.0</ele><time>2026-04-21T18:47:31.819Z</time></trkpt><trkpt lat="44.7797983" lon="-0.5338067"><ele>5.0</ele><time>2026-04-21T18:47:32.819Z</time></trkpt><trkpt lat="44.77983" lon="-0.5338933"><ele>5.0</ele><time>2026-04-21T18:47:33.819Z</time></trkpt><trkpt lat="44.7798617" lon="-0.5339867"><ele>5.0</ele><time>2026-04-21T18:47:34.818Z</time></trkpt><trkpt lat="44.7798967" lon="-0.5340717"><ele>5.0</ele><time>2026-04-21T18:47:35.819Z</time></trkpt><trkpt lat="44.7799367" lon="-0.5341567"><ele>5.0</ele><time>2026-04-21T18:47:36.818Z</time></trkpt><trkpt lat="44.7799817" lon="-0.5342433"><ele>5.0</ele><time>2026-04-21T18:47:37.819Z</time></trkpt><trkpt lat="44.7800183" lon="-0.53434"><ele>5.0</ele><time>2026-04-21T18:47:38.819Z</time></trkpt><trkpt lat="44.7800483" lon="-0.53444"><ele>5.0</ele><time>2026-04-21T18:47:39.819Z</time></trkpt><trkpt lat="44.780085" lon="-0.534525"><ele>5.0</ele><time>2026-04-21T18:47:40.819Z</time></trkpt><trkpt lat="44.7801283" lon="-0.5345967"><ele>5.0</ele><time>2026-04-21T18:47:41.818Z</time></trkpt><trkpt lat="44.7801767" lon="-0.5346617"><ele>5.0</ele><time>2026-04-21T18:47:42.818Z</time></trkpt><trkpt lat="44.78022" lon="-0.5347433"><ele>5.0</ele><time>2026-04-21T18:47:43.818Z</time></trkpt><trkpt lat="44.7802617" lon="-0.5348167"><ele>5.0</ele><time>2026-04-21T18:47:44.819Z</time></trkpt><trkpt lat="44.7802917" lon="-0.5349017"><ele>5.0</ele><time>2026-04-21T18:47:45.819Z</time></trkpt><trkpt lat="44.7803267" lon="-0.5349783"><ele>5.0</ele><time>2026-04-21T18:47:46.819Z</time></trkpt><trkpt lat="44.780365" lon="-0.5350633"><ele>4.857142857142857</ele><time>2026-04-21T18:47:47.819Z</time></trkpt><trkpt lat="44.7804083" lon="-0.5351533"><ele>4.714285714285714</ele><time>2026-04-21T18:47:48.819Z</time></trkpt><trkpt lat="44.7804517" lon="-0.535235"><ele>4.571428571428571</ele><time>2026-04-21T18:47:49.819Z</time></trkpt><trkpt lat="44.780495" lon="-0.5353233"><ele>4.428571428571429</ele><time>2026-04-21T18:47:50.819Z</time></trkpt><trkpt lat="44.7805333" lon="-0.5354083"><ele>4.285714285714286</ele><time>2026-04-21T18:47:51.818Z</time></trkpt><trkpt lat="44.7805733" lon="-0.535495"><ele>4.142857142857142</ele><time>2026-04-21T18:47:52.819Z</time></trkpt><trkpt lat="44.78062" lon="-0.535575"><ele>4.0</ele><time>2026-04-21T18:47:53.819Z</time></trkpt><trkpt lat="44.7806583" lon="-0.5356633"><ele>4.5</ele><time>2026-04-21T18:47:54.818Z</time></trkpt><trkpt lat="44.7806983" lon="-0.53575"><ele>5.0</ele><time>2026-04-21T18:47:55.818Z</time></trkpt><trkpt lat="44.780735" lon="-0.5358367"><ele>5.5</ele><time>2026-04-21T18:47:56.819Z</time></trkpt><trkpt lat="44.7807733" lon="-0.535915"><ele>6.0</ele><time>2026-04-21T18:47:57.818Z</time></trkpt><trkpt lat="44.78081" lon="-0.5359933"><ele>6.500000000000001</ele><time>2026-04-21T18:47:58.819Z</time></trkpt><trkpt lat="44.78087" lon="-0.5361383"><ele>7.0</ele><time>2026-04-21T18:48:00.819Z</time></trkpt><trkpt lat="44.7809167" lon="-0.5362117"><ele>7.0</ele><time>2026-04-21T18:48:01.819Z</time></trkpt><trkpt lat="44.7809617" lon="-0.5362883"><ele>7.0</ele><time>2026-04-21T18:48:02.819Z</time></trkpt><trkpt lat="44.7810033" lon="-0.5363617"><ele>7.0</ele><time>2026-04-21T18:48:03.818Z</time></trkpt><trkpt lat="44.7810533" lon="-0.53643"><ele>7.0</ele><time>2026-04-21T18:48:04.819Z</time></trkpt><trkpt lat="44.7811017" lon="-0.5365"><ele>7.0</ele><time>2026-04-21T18:48:05.818Z</time></trkpt><trkpt lat="44.7811517" lon="-0.536575"><ele>7.0</ele><time>2026-04-21T18:48:06.819Z</time></trkpt><trkpt lat="44.7812" lon="-0.5366483"><ele>7.0</ele><time>2026-04-21T18:48:07.819Z</time></trkpt><trkpt lat="44.78125" lon="-0.5367133"><ele>6.857142857142857</ele><time>2026-04-21T18:48:08.819Z</time></trkpt><trkpt lat="44.781305" lon="-0.5367717"><ele>6.714285714285714</ele><time>2026-04-21T18:48:09.818Z</time></trkpt><trkpt lat="44.7813617" lon="-0.5368317"><ele>6.571428571428571</ele><time>2026-04-21T18:48:10.818Z</time></trkpt><trkpt lat="44.781425" lon="-0.5368983"><ele>6.428571428571429</ele><time>2026-04-21T18:48:11.819Z</time></trkpt><trkpt lat="44.7814817" lon="-0.536965"><ele>6.285714285714286</ele><time>2026-04-21T18:48:12.819Z</time></trkpt><trkpt lat="44.7815367" lon="-0.53703"><ele>6.142857142857142</ele><time>2026-04-21T18:48:13.819Z</time></trkpt><trkpt lat="44.7815983" lon="-0.5370733"><ele>6.0</ele><time>2026-04-21T18:48:14.819Z</time></trkpt><trkpt lat="44.78167" lon="-0.5371083"><ele>5.857142857142857</ele><time>2026-04-21T18:48:15.819Z</time></trkpt><trkpt lat="44.781745" lon="-0.5371417"><ele>5.714285714285714</ele><time>2026-04-21T18:48:16.819Z</time></trkpt><trkpt lat="44.7818183" lon="-0.5371633"><ele>5.571428571428571</ele><time>2026-04-21T18:48:17.818Z</time></trkpt><trkpt lat="44.7818933" lon="-0.5371633"><ele>5.428571428571429</ele><time>2026-04-21T18:48:18.819Z</time></trkpt><trkpt lat="44.7819667" lon="-0.53716"><ele>5.285714285714286</ele><time>2026-04-21T18:48:19.818Z</time></trkpt><trkpt lat="44.7820367" lon="-0.5371683"><ele>5.142857142857142</ele><time>2026-04-21T18:48:20.818Z</time></trkpt><trkpt lat="44.7821083" lon="-0.5372"><ele>5.0</ele><time>2026-04-21T18:48:21.819Z</time></trkpt><trkpt lat="44.7821767" lon="-0.53724"><ele>5.0</ele><time>2026-04-21T18:48:22.819Z</time></trkpt><trkpt lat="44.7822467" lon="-0.5372767"><ele>5.0</ele><time>2026-04-21T18:48:23.819Z</time></trkpt><trkpt lat="44.782325" lon="-0.5372833"><ele>5.0</ele><time>2026-04-21T18:48:24.818Z</time></trkpt><trkpt lat="44.7823983" lon="-0.5372667"><ele>5.0</ele><time>2026-04-21T18:48:25.819Z</time></trkpt><trkpt lat="44.7824833" lon="-0.5372317"><ele>5.0</ele><time>2026-04-21T18:48:26.818Z</time></trkpt><trkpt lat="44.782555" lon="-0.5371967"><ele>5.0</ele><time>2026-04-21T18:48:27.819Z</time></trkpt><trkpt lat="44.782625" lon="-0.53716"><ele>5.166666666666667</ele><time>2026-04-21T18:48:28.818Z</time></trkpt><trkpt lat="44.7826917" lon="-0.5371133"><ele>5.333333333333334</ele><time>2026-04-21T18:48:29.819Z</time></trkpt><trkpt lat="44.78276" lon="-0.5370717"><ele>5.5</ele><time>2026-04-21T18:48:30.819Z</time></trkpt><trkpt lat="44.7828333" lon="-0.5370333"><ele>5.666666666666667</ele><time>2026-04-21T18:48:31.819Z</time></trkpt><trkpt lat="44.7829067" lon="-0.5369967"><ele>5.833333333333333</ele><time>2026-04-21T18:48:32.819Z</time></trkpt><trkpt lat="44.7829817" lon="-0.5369567"><ele>6.0</ele><time>2026-04-21T18:48:33.819Z</time></trkpt><trkpt lat="44.7830533" lon="-0.53692"><ele>6.5</ele><time>2026-04-21T18:48:34.819Z</time></trkpt><trkpt lat="44.7831217" lon="-0.5368883"><ele>7.0</ele><time>2026-04-21T18:48:35.818Z</time></trkpt><trkpt lat="44.7831983" lon="-0.5368533"><ele>7.5</ele><time>2026-04-21T18:48:36.818Z</time></trkpt><trkpt lat="44.7832717" lon="-0.536815"><ele>8.0</ele><time>2026-04-21T18:48:37.819Z</time></trkpt><trkpt lat="44.7833433" lon="-0.5367817"><ele>8.5</ele><time>2026-04-21T18:48:38.818Z</time></trkpt><trkpt lat="44.7834183" lon="-0.5367467"><ele>9.0</ele><time>2026-04-21T18:48:39.819Z</time></trkpt><trkpt lat="44.7834867" lon="-0.5367117"><ele>9.0</ele><time>2026-04-21T18:48:40.819Z</time></trkpt><trkpt lat="44.7835567" lon="-0.536675"><ele>9.0</ele><time>2026-04-21T18:48:41.819Z</time></trkpt><trkpt lat="44.7836283" lon="-0.5366283"><ele>9.0</ele><time>2026-04-21T18:48:42.819Z</time></trkpt><trkpt lat="44.7837" lon="-0.5365967"><ele>9.0</ele><time>2026-04-21T18:48:43.819Z</time></trkpt><trkpt lat="44.7837683" lon="-0.5365617"><ele>9.0</ele><time>2026-04-21T18:48:44.818Z</time></trkpt><trkpt lat="44.7838417" lon="-0.5365283"><ele>9.0</ele><time>2026-04-21T18:48:45.818Z</time></trkpt><trkpt lat="44.7839117" lon="-0.5365033"><ele>9.000000000000002</ele><time>2026-04-21T18:48:46.819Z</time></trkpt><trkpt lat="44.7839783" lon="-0.5364783"><ele>9.0</ele><time>2026-04-21T18:48:47.819Z</time></trkpt><trkpt lat="44.7840533" lon="-0.53646"><ele>9.0</ele><time>2026-04-21T18:48:48.818Z</time></trkpt><trkpt lat="44.78413" lon="-0.5364367"><ele>9.0</ele><time>2026-04-21T18:48:49.819Z</time></trkpt><trkpt lat="44.7841983" lon="-0.5364167"><ele>9.0</ele><time>2026-04-21T18:48:50.819Z</time></trkpt><trkpt lat="44.7842667" lon="-0.5364017"><ele>9.000000000000002</ele><time>2026-04-21T18:48:51.819Z</time></trkpt><trkpt lat="44.7843383" lon="-0.5363833"><ele>9.0</ele><time>2026-04-21T18:48:52.819Z</time></trkpt><trkpt lat="44.7844117" lon="-0.53637"><ele>8.5</ele><time>2026-04-21T18:48:53.819Z</time></trkpt><trkpt lat="44.7844817" lon="-0.5363567"><ele>8.0</ele><time>2026-04-21T18:48:54.819Z</time></trkpt><trkpt lat="44.7845467" lon="-0.5363567"><ele>7.5</ele><time>2026-04-21T18:48:55.819Z</time></trkpt><trkpt lat="44.784615" lon="-0.5363517"><ele>7.0</ele><time>2026-04-21T18:48:56.819Z</time></trkpt><trkpt lat="44.7847383" lon="-0.5363433"><ele>6.5</ele><time>2026-04-21T18:48:58.818Z</time></trkpt><trkpt lat="44.784805" lon="-0.53635"><ele>6.0</ele><time>2026-04-21T18:48:59.819Z</time></trkpt><trkpt lat="44.7848733" lon="-0.536355"><ele>5.999999999999999</ele><time>2026-04-21T18:49:00.819Z</time></trkpt><trkpt lat="44.7849483" lon="-0.53636"><ele>6.0</ele><time>2026-04-21T18:49:01.819Z</time></trkpt><trkpt lat="44.7850217" lon="-0.5363767"><ele>6.0</ele><time>2026-04-21T18:49:02.819Z</time></trkpt><trkpt lat="44.785095" lon="-0.536385"><ele>6.0</ele><time>2026-04-21T18:49:03.819Z</time></trkpt><trkpt lat="44.7851717" lon="-0.5363933"><ele>6.0</ele><time>2026-04-21T18:49:04.819Z</time></trkpt><trkpt lat="44.7852433" lon="-0.5363967"><ele>5.999999999999999</ele><time>2026-04-21T18:49:05.819Z</time></trkpt><trkpt lat="44.78531" lon="-0.53641"><ele>6.0</ele><time>2026-04-21T18:49:06.819Z</time></trkpt><trkpt lat="44.78538" lon="-0.5364217"><ele>5.999999999999999</ele><time>2026-04-21T18:49:07.819Z</time></trkpt><trkpt lat="44.78545" lon="-0.536435"><ele>6.0</ele><time>2026-04-21T18:49:08.819Z</time></trkpt><trkpt lat="44.7855217" lon="-0.53644"><ele>6.0</ele><time>2026-04-21T18:49:09.819Z</time></trkpt><trkpt lat="44.7855933" lon="-0.5364517"><ele>6.0</ele><time>2026-04-21T18:49:10.819Z</time></trkpt><trkpt lat="44.78566" lon="-0.53646"><ele>6.0</ele><time>2026-04-21T18:49:11.819Z</time></trkpt><trkpt lat="44.785735" lon="-0.53647"><ele>5.999999999999999</ele><time>2026-04-21T18:49:12.819Z</time></trkpt><trkpt lat="44.785805" lon="-0.536475"><ele>6.0</ele><time>2026-04-21T18:49:13.819Z</time></trkpt><trkpt lat="44.7858733" lon="-0.5364733"><ele>5.999999999999999</ele><time>2026-04-21T18:49:14.818Z</time></trkpt><trkpt lat="44.7859433" lon="-0.5364717"><ele>6.0</ele><time>2026-04-21T18:49:15.819Z</time></trkpt><trkpt lat="44.786015" lon="-0.5364683"><ele>6.0</ele><time>2026-04-21T18:49:16.818Z</time></trkpt><trkpt lat="44.7860883" lon="-0.5364683"><ele>6.0</ele><time>2026-04-21T18:49:17.819Z</time></trkpt><trkpt lat="44.7861617" lon="-0.53647"><ele>6.0</ele><time>2026-04-21T18:49:18.819Z</time></trkpt><trkpt lat="44.78623" lon="-0.5364617"><ele>5.999999999999999</ele><time>2026-04-21T18:49:19.819Z</time></trkpt><trkpt lat="44.7863033" lon="-0.536455"><ele>6.0</ele><time>2026-04-21T18:49:20.818Z</time></trkpt><trkpt lat="44.7863733" lon="-0.5364483"><ele>5.857142857142857</ele><time>2026-04-21T18:49:21.818Z</time></trkpt><trkpt lat="44.7864417" lon="-0.5364383"><ele>5.714285714285714</ele><time>2026-04-21T18:49:22.819Z</time></trkpt><trkpt lat="44.78651" lon="-0.5364267"><ele>5.571428571428571</ele><time>2026-04-21T18:49:23.819Z</time></trkpt><trkpt lat="44.786585" lon="-0.536405"><ele>5.428571428571429</ele><time>2026-04-21T18:49:24.819Z</time></trkpt><trkpt lat="44.7866533" lon="-0.53638"><ele>5.285714285714286</ele><time>2026-04-21T18:49:25.818Z</time></trkpt><trkpt lat="44.786715" lon="-0.536325"><ele>5.142857142857142</ele><time>2026-04-21T18:49:26.819Z</time></trkpt><trkpt lat="44.78676" lon="-0.5362517"><ele>5.0</ele><time>2026-04-21T18:49:27.819Z</time></trkpt><trkpt lat="44.78681" lon="-0.53618"><ele>4.5</ele><time>2026-04-21T18:49:28.818Z</time></trkpt><trkpt lat="44.7868667" lon="-0.53613"><ele>4.0</ele><time>2026-04-21T18:49:29.818Z</time></trkpt><trkpt lat="44.7869333" lon="-0.5360967"><ele>3.5</ele><time>2026-04-21T18:49:30.818Z</time></trkpt><trkpt lat="44.7869983" lon="-0.53608"><ele>3.0</ele><time>2026-04-21T18:49:31.818Z</time></trkpt><trkpt lat="44.7870667" lon="-0.53608"><ele>2.5</ele><time>2026-04-21T18:49:32.819Z</time></trkpt><trkpt lat="44.7871883" lon="-0.5361417"><ele>2.0</ele><time>2026-04-21T18:49:34.819Z</time></trkpt><trkpt lat="44.7872517" lon="-0.536185"><ele>2.0</ele><time>2026-04-21T18:49:35.819Z</time></trkpt><trkpt lat="44.7873233" lon="-0.5362067"><ele>1.9999999999999998</ele><time>2026-04-21T18:49:36.819Z</time></trkpt><trkpt lat="44.78739" lon="-0.5362083"><ele>2.0</ele><time>2026-04-21T18:49:37.819Z</time></trkpt><trkpt lat="44.787455" lon="-0.536195"><ele>2.0</ele><time>2026-04-21T18:49:38.819Z</time></trkpt><trkpt lat="44.7875183" lon="-0.536175"><ele>1.9999999999999998</ele><time>2026-04-21T18:49:39.819Z</time></trkpt><trkpt lat="44.7875833" lon="-0.5361533"><ele>2.0</ele><time>2026-04-21T18:49:40.819Z</time></trkpt><trkpt lat="44.78765" lon="-0.53613"><ele>2.0</ele><time>2026-04-21T18:49:41.819Z</time></trkpt><trkpt lat="44.7877133" lon="-0.5361067"><ele>2.4285714285714284</ele><time>2026-04-21T18:49:42.819Z</time></trkpt><trkpt lat="44.7877783" lon="-0.5360833"><ele>2.8571428571428568</ele><time>2026-04-21T18:49:43.818Z</time></trkpt><trkpt lat="44.7878433" lon="-0.5360617"><ele>3.2857142857142856</ele><time>2026-04-21T18:49:44.819Z</time></trkpt><trkpt lat="44.787905" lon="-0.5360433"><ele>3.7142857142857144</ele><time>2026-04-21T18:49:45.818Z</time></trkpt><trkpt lat="44.78799" lon="-0.535995"><ele>4.142857142857143</ele><time>2026-04-21T18:49:47.819Z</time></trkpt><trkpt lat="44.78805" lon="-0.5359367"><ele>4.571428571428571</ele><time>2026-04-21T18:49:50.819Z</time></trkpt><trkpt lat="44.7881167" lon="-0.5359433"><ele>5.0</ele><time>2026-04-21T18:49:52.819Z</time></trkpt><trkpt lat="44.7881917" lon="-0.5359317"><ele>5.0</ele><time>2026-04-21T18:49:54.818Z</time></trkpt><trkpt lat="44.7882733" lon="-0.5358983"><ele>5.0</ele><time>2026-04-21T18:49:56.819Z</time></trkpt><trkpt lat="44.78836" lon="-0.535855"><ele>5.0</ele><time>2026-04-21T18:49:58.819Z</time></trkpt><trkpt lat="44.7884517" lon="-0.535815"><ele>5.0</ele><time>2026-04-21T18:50:00.819Z</time></trkpt><trkpt lat="44.7885583" lon="-0.5357733"><ele>5.0</ele><time>2026-04-21T18:50:02.818Z</time></trkpt><trkpt lat="44.7886417" lon="-0.5357067"><ele>4.833333333333334</ele><time>2026-04-21T18:50:04.818Z</time></trkpt><trkpt lat="44.7887017" lon="-0.5356117"><ele>4.666666666666667</ele><time>2026-04-21T18:50:06.819Z</time></trkpt><trkpt lat="44.7887683" lon="-0.5355467"><ele>4.5</ele><time>2026-04-21T18:50:08.819Z</time></trkpt><trkpt lat="44.7888317" lon="-0.535465"><ele>4.333333333333333</ele><time>2026-04-21T18:50:10.819Z</time></trkpt><trkpt lat="44.7889167" lon="-0.535405"><ele>4.166666666666666</ele><time>2026-04-21T18:50:12.819Z</time></trkpt><trkpt lat="44.7890117" lon="-0.5354133"><ele>4.0</ele><time>2026-04-21T18:50:14.819Z</time></trkpt><trkpt lat="44.7891083" lon="-0.53548"><ele>4.0</ele><time>2026-04-21T18:50:16.819Z</time></trkpt><trkpt lat="44.7892267" lon="-0.5354983"><ele>4.0</ele><time>2026-04-21T18:50:18.817Z</time></trkpt><trkpt lat="44.789345" lon="-0.5354567"><ele>4.0</ele><time>2026-04-21T18:50:20.818Z</time></trkpt><trkpt lat="44.789465" lon="-0.5354167"><ele>4.0</ele><time>2026-04-21T18:50:22.818Z</time></trkpt><trkpt lat="44.7895883" lon="-0.535385"><ele>4.0</ele><time>2026-04-21T18:50:24.818Z</time></trkpt><trkpt lat="44.7897117" lon="-0.535355"><ele>4.0</ele><time>2026-04-21T18:50:26.818Z</time></trkpt><trkpt lat="44.7898417" lon="-0.535335"><ele>4.0</ele><time>2026-04-21T18:50:28.817Z</time></trkpt><trkpt lat="44.7899083" lon="-0.5353183"><ele>4.0</ele><time>2026-04-21T18:50:29.818Z</time></trkpt><trkpt lat="44.79004" lon="-0.5352767"><ele>3.9999999999999996</ele><time>2026-04-21T18:50:31.818Z</time></trkpt><trkpt lat="44.7901067" lon="-0.5352567"><ele>4.0</ele><time>2026-04-21T18:50:32.818Z</time></trkpt><trkpt lat="44.7901683" lon="-0.5352383"><ele>4.0</ele><time>2026-04-21T18:50:33.817Z</time></trkpt><trkpt lat="44.7902317" lon="-0.5352183"><ele>4.0</ele><time>2026-04-21T18:50:34.818Z</time></trkpt><trkpt lat="44.7902967" lon="-0.5352033"><ele>3.9999999999999996</ele><time>2026-04-21T18:50:35.817Z</time></trkpt><trkpt lat="44.7903617" lon="-0.5351917"><ele>4.0</ele><time>2026-04-21T18:50:36.818Z</time></trkpt><trkpt lat="44.7904867" lon="-0.5351767"><ele>4.166666666666666</ele><time>2026-04-21T18:50:38.817Z</time></trkpt><trkpt lat="44.7905517" lon="-0.535175"><ele>4.333333333333333</ele><time>2026-04-21T18:50:39.817Z</time></trkpt><trkpt lat="44.790625" lon="-0.53517"><ele>4.5</ele><time>2026-04-21T18:50:40.817Z</time></trkpt><trkpt lat="44.7906917" lon="-0.5351483"><ele>4.666666666666667</ele><time>2026-04-21T18:50:41.818Z</time></trkpt><trkpt lat="44.79075" lon="-0.5351083"><ele>4.833333333333334</ele><time>2026-04-21T18:50:42.817Z</time></trkpt><trkpt lat="44.7908483" lon="-0.535"><ele>5.0</ele><time>2026-04-21T18:50:44.818Z</time></trkpt><trkpt lat="44.7909067" lon="-0.5349633"><ele>4.6</ele><time>2026-04-21T18:50:45.818Z</time></trkpt><trkpt lat="44.7910267" lon="-0.53493"><ele>4.2</ele><time>2026-04-21T18:50:47.818Z</time></trkpt><trkpt lat="44.7911467" lon="-0.5349967"><ele>3.8</ele><time>2026-04-21T18:50:49.818Z</time></trkpt><trkpt lat="44.7912083" lon="-0.535035"><ele>3.4</ele><time>2026-04-21T18:50:50.818Z</time></trkpt><trkpt lat="44.791275" lon="-0.5350483"><ele>3.0</ele><time>2026-04-21T18:50:51.818Z</time></trkpt><trkpt lat="44.7914" lon="-0.535005"><ele>3.0</ele><time>2026-04-21T18:50:53.818Z</time></trkpt><trkpt lat="44.7914667" lon="-0.53498"><ele>3.0</ele><time>2026-04-21T18:50:54.817Z</time></trkpt><trkpt lat="44.791535" lon="-0.534955"><ele>3.0</ele><time>2026-04-21T18:50:55.818Z</time></trkpt><trkpt lat="44.7915967" lon="-0.534935"><ele>3.0</ele><time>2026-04-21T18:50:56.818Z</time></trkpt><trkpt lat="44.7917217" lon="-0.5349167"><ele>3.0</ele><time>2026-04-21T18:50:58.818Z</time></trkpt><trkpt lat="44.7918483" lon="-0.5349017"><ele>2.9999999999999996</ele><time>2026-04-21T18:51:00.818Z</time></trkpt><trkpt lat="44.7919117" lon="-0.5348933"><ele>3.0</ele><time>2026-04-21T18:51:01.818Z</time></trkpt><trkpt lat="44.7919767" lon="-0.53489"><ele>3.0</ele><time>2026-04-21T18:51:02.818Z</time></trkpt><trkpt lat="44.7920417" lon="-0.5348817"><ele>3.0</ele><time>2026-04-21T18:51:03.818Z</time></trkpt><trkpt lat="44.7921067" lon="-0.5348783"><ele>3.0</ele><time>2026-04-21T18:51:04.817Z</time></trkpt><trkpt lat="44.79217" lon="-0.534875"><ele>2.9999999999999996</ele><time>2026-04-21T18:51:05.818Z</time></trkpt><trkpt lat="44.7922367" lon="-0.5348717"><ele>3.0</ele><time>2026-04-21T18:51:06.817Z</time></trkpt><trkpt lat="44.7923017" lon="-0.53487"><ele>2.9999999999999996</ele><time>2026-04-21T18:51:07.818Z</time></trkpt><trkpt lat="44.7923683" lon="-0.5348667"><ele>3.0</ele><time>2026-04-21T18:51:08.818Z</time></trkpt><trkpt lat="44.7924333" lon="-0.5348617"><ele>3.0</ele><time>2026-04-21T18:51:09.817Z</time></trkpt><trkpt lat="44.7924967" lon="-0.5348583"><ele>3.0</ele><time>2026-04-21T18:51:10.818Z</time></trkpt><trkpt lat="44.7925617" lon="-0.5348517"><ele>3.0</ele><time>2026-04-21T18:51:11.818Z</time></trkpt><trkpt lat="44.79263" lon="-0.5348467"><ele>2.9999999999999996</ele><time>2026-04-21T18:51:12.818Z</time></trkpt><trkpt lat="44.792695" lon="-0.5348467"><ele>3.0</ele><time>2026-04-21T18:51:13.818Z</time></trkpt><trkpt lat="44.79276" lon="-0.5348467"><ele>3.0</ele><time>2026-04-21T18:51:14.817Z</time></trkpt><trkpt lat="44.7928267" lon="-0.5348467"><ele>3.0</ele><time>2026-04-21T18:51:15.818Z</time></trkpt><trkpt lat="44.792895" lon="-0.5348517"><ele>3.0</ele><time>2026-04-21T18:51:16.818Z</time></trkpt><trkpt lat="44.7929583" lon="-0.5348567"><ele>3.0</ele><time>2026-04-21T18:51:17.818Z</time></trkpt><trkpt lat="44.7930233" lon="-0.5348617"><ele>3.0</ele><time>2026-04-21T18:51:18.818Z</time></trkpt><trkpt lat="44.7930917" lon="-0.5348533"><ele>3.0</ele><time>2026-04-21T18:51:19.818Z</time></trkpt><trkpt lat="44.793215" lon="-0.5348567"><ele>3.0</ele><time>2026-04-21T18:51:21.818Z</time></trkpt><trkpt lat="44.7932783" lon="-0.5348583"><ele>3.0</ele><time>2026-04-21T18:51:22.818Z</time></trkpt><trkpt lat="44.7934017" lon="-0.5348667"><ele>3.0</ele><time>2026-04-21T18:51:24.818Z</time></trkpt><trkpt lat="44.7935117" lon="-0.5348467"><ele>3.0</ele><time>2026-04-21T18:51:26.817Z</time></trkpt><trkpt lat="44.7936017" lon="-0.5347467"><ele>3.0</ele><time>2026-04-21T18:51:28.817Z</time></trkpt><trkpt lat="44.79368" lon="-0.534625"><ele>3.25</ele><time>2026-04-21T18:51:30.818Z</time></trkpt><trkpt lat="44.7937817" lon="-0.5345567"><ele>3.5</ele><time>2026-04-21T18:51:32.818Z</time></trkpt><trkpt lat="44.7938983" lon="-0.53453"><ele>3.75</ele><time>2026-04-21T18:51:34.818Z</time></trkpt><trkpt lat="44.7940067" lon="-0.53457"><ele>4.0</ele><time>2026-04-21T18:51:36.818Z</time></trkpt><trkpt lat="44.7941017" lon="-0.5346683"><ele>4.0</ele><time>2026-04-21T18:51:38.818Z</time></trkpt><trkpt lat="44.7941767" lon="-0.5348117"><ele>4.0</ele><time>2026-04-21T18:51:40.817Z</time></trkpt><trkpt lat="44.7942033" lon="-0.5349"><ele>4.0</ele><time>2026-04-21T18:51:41.818Z</time></trkpt><trkpt lat="44.7942133" lon="-0.5349933"><ele>4.0</ele><time>2026-04-21T18:51:42.818Z</time></trkpt><trkpt lat="44.794195" lon="-0.53517"><ele>4.0</ele><time>2026-04-21T18:51:44.817Z</time></trkpt><trkpt lat="44.7941683" lon="-0.53534"><ele>3.9999999999999996</ele><time>2026-04-21T18:51:46.818Z</time></trkpt><trkpt lat="44.7942033" lon="-0.5355083"><ele>4.0</ele><time>2026-04-21T18:51:48.818Z</time></trkpt><trkpt lat="44.794245" lon="-0.53558"><ele>4.0</ele><time>2026-04-21T18:51:49.818Z</time></trkpt><trkpt lat="44.7942867" lon="-0.5356567"><ele>4.0</ele><time>2026-04-21T18:51:50.818Z</time></trkpt><trkpt lat="44.79433" lon="-0.53573"><ele>3.9999999999999996</ele><time>2026-04-21T18:51:51.818Z</time></trkpt><trkpt lat="44.7943733" lon="-0.5357967"><ele>4.0</ele><time>2026-04-21T18:51:52.818Z</time></trkpt><trkpt lat="44.7944167" lon="-0.5358633"><ele>4.0</ele><time>2026-04-21T18:51:53.818Z</time></trkpt><trkpt lat="44.7944583" lon="-0.53593"><ele>4.0</ele><time>2026-04-21T18:51:54.818Z</time></trkpt><trkpt lat="44.7945433" lon="-0.536045"><ele>4.0</ele><time>2026-04-21T18:51:56.818Z</time></trkpt><trkpt lat="44.7946333" lon="-0.5361167"><ele>4.0</ele><time>2026-04-21T18:51:58.818Z</time></trkpt><trkpt lat="44.7946867" lon="-0.5362283"><ele>4.0</ele><time>2026-04-21T18:52:00.818Z</time></trkpt><trkpt lat="44.79465" lon="-0.5363233"><ele>3.9999999999999996</ele><time>2026-04-21T18:52:02.818Z</time></trkpt><trkpt lat="44.79459" lon="-0.5363533"><ele>4.0</ele><time>2026-04-21T18:52:04.818Z</time></trkpt><trkpt lat="44.7945117" lon="-0.536225"><ele>4.0</ele><time>2026-04-21T18:52:09.818Z</time></trkpt><trkpt lat="44.7945" lon="-0.5361083"><ele>4.0</ele><time>2026-04-21T18:52:13.818Z</time></trkpt><trkpt lat="44.7944617" lon="-0.5360317"><ele>3.9999999999999996</ele><time>2026-04-21T18:52:16.818Z</time></trkpt><trkpt lat="44.7944117" lon="-0.5359183"><ele>4.0</ele><time>2026-04-21T18:52:48.818Z</time></trkpt><trkpt lat="44.7943483" lon="-0.5358067"><ele>3.6666666666666665</ele><time>2026-04-21T18:52:51.817Z</time></trkpt><trkpt lat="44.7942983" lon="-0.5357233"><ele>3.333333333333333</ele><time>2026-04-21T18:52:53.818Z</time></trkpt><trkpt lat="44.7942467" lon="-0.535645"><ele>3.0</ele><time>2026-04-21T18:52:55.817Z</time></trkpt><trkpt lat="44.7941883" lon="-0.5355933"><ele>2.6666666666666665</ele><time>2026-04-21T18:52:57.818Z</time></trkpt><trkpt lat="44.7941183" lon="-0.5355667"><ele>2.333333333333333</ele><time>2026-04-21T18:52:59.818Z</time></trkpt><trkpt lat="44.794055" lon="-0.5355833"><ele>2.0</ele><time>2026-04-21T18:53:01.818Z</time></trkpt><trkpt lat="44.79397" lon="-0.5356467"><ele>1.9999999999999998</ele><time>2026-04-21T18:53:05.818Z</time></trkpt><trkpt lat="44.7938983" lon="-0.5356517"><ele>2.0</ele><time>2026-04-21T18:54:53.818Z</time></trkpt><trkpt lat="44.7939067" lon="-0.535525"><ele>2.0</ele><time>2026-04-21T18:54:57.818Z</time></trkpt><trkpt lat="44.79386" lon="-0.5354617"><ele>2.0</ele><time>2026-04-21T18:54:59.818Z</time></trkpt><trkpt lat="44.7937833" lon="-0.53542"><ele>1.9999999999999998</ele><time>2026-04-21T18:55:01.818Z</time></trkpt><trkpt lat="44.7936917" lon="-0.5353483"><ele>2.0</ele><time>2026-04-21T18:55:03.818Z</time></trkpt><trkpt lat="44.7936133" lon="-0.5352183"><ele>2.333333333333333</ele><time>2026-04-21T18:55:05.818Z</time></trkpt><trkpt lat="44.793585" lon="-0.5351367"><ele>2.6666666666666665</ele><time>2026-04-21T18:55:06.818Z</time></trkpt><trkpt lat="44.793565" lon="-0.5350517"><ele>3.0</ele><time>2026-04-21T18:55:07.818Z</time></trkpt><trkpt lat="44.79356" lon="-0.5349583"><ele>3.333333333333333</ele><time>2026-04-21T18:55:08.818Z</time></trkpt><trkpt lat="44.79358" lon="-0.53481"><ele>3.6666666666666665</ele><time>2026-04-21T18:55:10.818Z</time></trkpt><trkpt lat="44.793645" lon="-0.5346917"><ele>4.0</ele><time>2026-04-21T18:55:12.818Z</time></trkpt><trkpt lat="44.7937267" lon="-0.53461"><ele>4.0</ele><time>2026-04-21T18:55:14.817Z</time></trkpt><trkpt lat="44.7938167" lon="-0.534565"><ele>4.0</ele><time>2026-04-21T18:55:16.818Z</time></trkpt><trkpt lat="44.793925" lon="-0.5345517"><ele>4.0</ele><time>2026-04-21T18:55:18.818Z</time></trkpt><trkpt lat="44.7940233" lon="-0.534595"><ele>4.0</ele><time>2026-04-21T18:55:20.818Z</time></trkpt><trkpt lat="44.7941167" lon="-0.534695"><ele>4.0</ele><time>2026-04-21T18:55:22.818Z</time></trkpt><trkpt lat="44.7941933" lon="-0.534815"><ele>4.0</ele><time>2026-04-21T18:55:24.818Z</time></trkpt><trkpt lat="44.7942917" lon="-0.5348833"><ele>4.0</ele><time>2026-04-21T18:55:26.818Z</time></trkpt><trkpt lat="44.7944083" lon="-0.5349033"><ele>4.0</ele><time>2026-04-21T18:55:28.817Z</time></trkpt><trkpt lat="44.7945267" lon="-0.534905"><ele>4.0</ele><time>2026-04-21T18:55:30.817Z</time></trkpt><trkpt lat="44.7945917" lon="-0.5349033"><ele>4.0</ele><time>2026-04-21T18:55:31.816Z</time></trkpt><trkpt lat="44.79466" lon="-0.5349017"><ele>4.142857142857142</ele><time>2026-04-21T18:55:32.816Z</time></trkpt><trkpt lat="44.794725" lon="-0.5349067"><ele>4.285714285714286</ele><time>2026-04-21T18:55:33.817Z</time></trkpt><trkpt lat="44.7947917" lon="-0.5349117"><ele>4.428571428571429</ele><time>2026-04-21T18:55:34.817Z</time></trkpt><trkpt lat="44.7948567" lon="-0.53492"><ele>4.571428571428571</ele><time>2026-04-21T18:55:35.817Z</time></trkpt><trkpt lat="44.7949217" lon="-0.5349317"><ele>4.714285714285714</ele><time>2026-04-21T18:55:36.817Z</time></trkpt><trkpt lat="44.79499" lon="-0.53493"><ele>4.857142857142857</ele><time>2026-04-21T18:55:37.816Z</time></trkpt><trkpt lat="44.7950583" lon="-0.53494"><ele>5.0</ele><time>2026-04-21T18:55:38.817Z</time></trkpt><trkpt lat="44.79513" lon="-0.5349433"><ele>5.0</ele><time>2026-04-21T18:55:39.817Z</time></trkpt><trkpt lat="44.7951967" lon="-0.5349583"><ele>5.0</ele><time>2026-04-21T18:55:40.817Z</time></trkpt><trkpt lat="44.795265" lon="-0.5349683"><ele>5.0</ele><time>2026-04-21T18:55:41.816Z</time></trkpt><trkpt lat="44.7953317" lon="-0.534975"><ele>5.0</ele><time>2026-04-21T18:55:42.816Z</time></trkpt><trkpt lat="44.7953983" lon="-0.5349817"><ele>5.0</ele><time>2026-04-21T18:55:43.816Z</time></trkpt><trkpt lat="44.795465" lon="-0.53499"><ele>5.0</ele><time>2026-04-21T18:55:44.817Z</time></trkpt><trkpt lat="44.795535" lon="-0.5349933"><ele>5.0</ele><time>2026-04-21T18:55:45.816Z</time></trkpt><trkpt lat="44.7956" lon="-0.5350017"><ele>5.0</ele><time>2026-04-21T18:55:46.816Z</time></trkpt><trkpt lat="44.79572" lon="-0.535005"><ele>5.0</ele><time>2026-04-21T18:55:48.817Z</time></trkpt><trkpt lat="44.7958233" lon="-0.5349567"><ele>5.0</ele><time>2026-04-21T18:55:50.817Z</time></trkpt><trkpt lat="44.79591" lon="-0.5348683"><ele>5.0</ele><time>2026-04-21T18:55:52.817Z</time></trkpt><trkpt lat="44.79602" lon="-0.5348033"><ele>4.571428571428571</ele><time>2026-04-21T18:55:54.817Z</time></trkpt><trkpt lat="44.796085" lon="-0.5347867"><ele>4.142857142857143</ele><time>2026-04-21T18:55:55.816Z</time></trkpt><trkpt lat="44.7961483" lon="-0.5347617"><ele>3.7142857142857144</ele><time>2026-04-21T18:55:56.816Z</time></trkpt><trkpt lat="44.7962067" lon="-0.5347217"><ele>3.2857142857142856</ele><time>2026-04-21T18:55:57.817Z</time></trkpt><trkpt lat="44.79625" lon="-0.5346517"><ele>2.8571428571428568</ele><time>2026-04-21T18:55:58.817Z</time></trkpt><trkpt lat="44.796285" lon="-0.53457"><ele>2.4285714285714284</ele><time>2026-04-21T18:55:59.817Z</time></trkpt><trkpt lat="44.79631" lon="-0.5344717"><ele>2.0</ele><time>2026-04-21T18:56:00.817Z</time></trkpt><trkpt lat="44.7963233" lon="-0.5343783"><ele>1.9999999999999998</ele><time>2026-04-21T18:56:01.816Z</time></trkpt><trkpt lat="44.796335" lon="-0.5342867"><ele>2.0</ele><time>2026-04-21T18:56:02.817Z</time></trkpt><trkpt lat="44.7963433" lon="-0.53419"><ele>2.0</ele><time>2026-04-21T18:56:03.816Z</time></trkpt><trkpt lat="44.7963483" lon="-0.5340983"><ele>2.0</ele><time>2026-04-21T18:56:04.817Z</time></trkpt><trkpt lat="44.796355" lon="-0.5340083"><ele>1.9999999999999998</ele><time>2026-04-21T18:56:05.817Z</time></trkpt><trkpt lat="44.7963683" lon="-0.533845"><ele>2.0</ele><time>2026-04-21T18:56:07.817Z</time></trkpt><trkpt lat="44.7963767" lon="-0.5336733"><ele>2.6</ele><time>2026-04-21T18:56:09.817Z</time></trkpt><trkpt lat="44.7963983" lon="-0.5335"><ele>3.2</ele><time>2026-04-21T18:56:11.817Z</time></trkpt><trkpt lat="44.7964083" lon="-0.53332"><ele>3.8</ele><time>2026-04-21T18:56:13.817Z</time></trkpt><trkpt lat="44.7964167" lon="-0.53323"><ele>4.4</ele><time>2026-04-21T18:56:14.817Z</time></trkpt><trkpt lat="44.7964333" lon="-0.5330617"><ele>5.0</ele><time>2026-04-21T18:56:16.816Z</time></trkpt><trkpt lat="44.7964417" lon="-0.5329733"><ele>5.0</ele><time>2026-04-21T18:56:17.817Z</time></trkpt><trkpt lat="44.7964517" lon="-0.532885"><ele>5.0</ele><time>2026-04-21T18:56:18.816Z</time></trkpt><trkpt lat="44.7964583" lon="-0.5327917"><ele>5.0</ele><time>2026-04-21T18:56:19.816Z</time></trkpt><trkpt lat="44.7964667" lon="-0.5327017"><ele>5.0</ele><time>2026-04-21T18:56:20.817Z</time></trkpt><trkpt lat="44.796475" lon="-0.5326117"><ele>5.0</ele><time>2026-04-21T18:56:21.817Z</time></trkpt><trkpt lat="44.7964833" lon="-0.5325217"><ele>5.0</ele><time>2026-04-21T18:56:22.816Z</time></trkpt><trkpt lat="44.7964933" lon="-0.53243"><ele>5.0</ele><time>2026-04-21T18:56:23.817Z</time></trkpt><trkpt lat="44.7965083" lon="-0.5322633"><ele>5.0</ele><time>2026-04-21T18:56:25.817Z</time></trkpt><trkpt lat="44.7965167" lon="-0.532175"><ele>5.0</ele><time>2026-04-21T18:56:26.817Z</time></trkpt><trkpt lat="44.79654" lon="-0.5319967"><ele>5.0</ele><time>2026-04-21T18:56:28.817Z</time></trkpt><trkpt lat="44.7965567" lon="-0.5318183"><ele>5.0</ele><time>2026-04-21T18:56:30.816Z</time></trkpt><trkpt lat="44.796565" lon="-0.5317267"><ele>5.0</ele><time>2026-04-21T18:56:31.817Z</time></trkpt><trkpt lat="44.796585" lon="-0.53155"><ele>5.0</ele><time>2026-04-21T18:56:33.817Z</time></trkpt><trkpt lat="44.796595" lon="-0.5314533"><ele>5.0</ele><time>2026-04-21T18:56:34.817Z</time></trkpt><trkpt lat="44.7966017" lon="-0.53136"><ele>5.0</ele><time>2026-04-21T18:56:35.816Z</time></trkpt><trkpt lat="44.7966033" lon="-0.5312617"><ele>5.0</ele><time>2026-04-21T18:56:36.817Z</time></trkpt><trkpt lat="44.7966133" lon="-0.5311717"><ele>5.0</ele><time>2026-04-21T18:56:37.817Z</time></trkpt><trkpt lat="44.7966233" lon="-0.5310817"><ele>5.0</ele><time>2026-04-21T18:56:38.817Z</time></trkpt><trkpt lat="44.79665" lon="-0.53091"><ele>5.4</ele><time>2026-04-21T18:56:40.817Z</time></trkpt><trkpt lat="44.796665" lon="-0.5307317"><ele>5.8</ele><time>2026-04-21T18:56:42.816Z</time></trkpt><trkpt lat="44.7966817" lon="-0.5305567"><ele>6.199999999999999</ele><time>2026-04-21T18:56:44.817Z</time></trkpt><trkpt lat="44.7966833" lon="-0.5304667"><ele>6.6</ele><time>2026-04-21T18:56:45.817Z</time></trkpt><trkpt lat="44.7966883" lon="-0.53037"><ele>7.0</ele><time>2026-04-21T18:56:46.817Z</time></trkpt><trkpt lat="44.7967283" lon="-0.5302067"><ele>7.142857142857142</ele><time>2026-04-21T18:56:48.817Z</time></trkpt><trkpt lat="44.7967817" lon="-0.530155"><ele>7.285714285714286</ele><time>2026-04-21T18:56:49.817Z</time></trkpt><trkpt lat="44.7968467" lon="-0.5301167"><ele>7.428571428571429</ele><time>2026-04-21T18:56:50.817Z</time></trkpt><trkpt lat="44.796905" lon="-0.5300817"><ele>7.571428571428571</ele><time>2026-04-21T18:56:51.817Z</time></trkpt><trkpt lat="44.7969717" lon="-0.5300783"><ele>7.7142857142857135</ele><time>2026-04-21T18:56:52.817Z</time></trkpt><trkpt lat="44.7970383" lon="-0.5300883"><ele>7.857142857142857</ele><time>2026-04-21T18:56:53.816Z</time></trkpt><trkpt lat="44.797105" lon="-0.530105"><ele>8.0</ele><time>2026-04-21T18:56:54.816Z</time></trkpt><trkpt lat="44.79717" lon="-0.5301133"><ele>8.0</ele><time>2026-04-21T18:56:55.817Z</time></trkpt><trkpt lat="44.79729" lon="-0.53013"><ele>8.0</ele><time>2026-04-21T18:56:57.817Z</time></trkpt><trkpt lat="44.7974" lon="-0.5301083"><ele>8.0</ele><time>2026-04-21T18:56:59.816Z</time></trkpt><trkpt lat="44.7975033" lon="-0.5301233"><ele>8.0</ele><time>2026-04-21T18:57:01.817Z</time></trkpt><trkpt lat="44.797615" lon="-0.5301517"><ele>8.0</ele><time>2026-04-21T18:57:03.817Z</time></trkpt><trkpt lat="44.797735" lon="-0.5301683"><ele>8.0</ele><time>2026-04-21T18:57:05.817Z</time></trkpt><trkpt lat="44.7978533" lon="-0.5302017"><ele>8.0</ele><time>2026-04-21T18:57:07.817Z</time></trkpt><trkpt lat="44.797975" lon="-0.5302217"><ele>8.0</ele><time>2026-04-21T18:57:09.817Z</time></trkpt><trkpt lat="44.798095" lon="-0.5302533"><ele>8.0</ele><time>2026-04-21T18:57:11.817Z</time></trkpt><trkpt lat="44.7981583" lon="-0.5302633"><ele>8.0</ele><time>2026-04-21T18:57:12.817Z</time></trkpt><trkpt lat="44.7982217" lon="-0.5302733"><ele>8.0</ele><time>2026-04-21T18:57:13.816Z</time></trkpt><trkpt lat="44.7983483" lon="-0.5302933"><ele>8.0</ele><time>2026-04-21T18:57:15.816Z</time></trkpt><trkpt lat="44.7984117" lon="-0.5303067"><ele>8.0</ele><time>2026-04-21T18:57:16.817Z</time></trkpt><trkpt lat="44.7985317" lon="-0.5303317"><ele>8.0</ele><time>2026-04-21T18:57:18.816Z</time></trkpt><trkpt lat="44.798655" lon="-0.5303583"><ele>8.0</ele><time>2026-04-21T18:57:20.816Z</time></trkpt><trkpt lat="44.798785" lon="-0.53039"><ele>7.166666666666666</ele><time>2026-04-21T18:57:22.817Z</time></trkpt><trkpt lat="44.7989017" lon="-0.5303983"><ele>6.333333333333333</ele><time>2026-04-21T18:57:24.817Z</time></trkpt><trkpt lat="44.798965" lon="-0.5304017"><ele>5.5</ele><time>2026-04-21T18:57:25.817Z</time></trkpt><trkpt lat="44.79903" lon="-0.5304067"><ele>4.666666666666666</ele><time>2026-04-21T18:57:26.816Z</time></trkpt><trkpt lat="44.79915" lon="-0.5304267"><ele>3.833333333333333</ele><time>2026-04-21T18:57:28.817Z</time></trkpt><trkpt lat="44.7992133" lon="-0.5304383"><ele>3.0</ele><time>2026-04-21T18:57:29.817Z</time></trkpt><trkpt lat="44.7993333" lon="-0.530455"><ele>4.0</ele><time>2026-04-21T18:57:31.817Z</time></trkpt><trkpt lat="44.7994317" lon="-0.5304783"><ele>5.0</ele><time>2026-04-21T18:57:33.817Z</time></trkpt><trkpt lat="44.7995283" lon="-0.5305167"><ele>6.000000000000001</ele><time>2026-04-21T18:57:35.817Z</time></trkpt><trkpt lat="44.7996417" lon="-0.5305533"><ele>7.0</ele><time>2026-04-21T18:57:37.817Z</time></trkpt><trkpt lat="44.7997483" lon="-0.53054"><ele>8.0</ele><time>2026-04-21T18:57:39.816Z</time></trkpt><trkpt lat="44.799855" lon="-0.5305117"><ele>7.999999999999999</ele><time>2026-04-21T18:57:41.817Z</time></trkpt><trkpt lat="44.7999483" lon="-0.530495"><ele>8.0</ele><time>2026-04-21T18:57:43.817Z</time></trkpt><trkpt lat="44.8000217" lon="-0.5304417"><ele>8.0</ele><time>2026-04-21T18:57:45.817Z</time></trkpt><trkpt lat="44.8000817" lon="-0.530355"><ele>8.0</ele><time>2026-04-21T18:57:47.817Z</time></trkpt><trkpt lat="44.8001483" lon="-0.530275"><ele>7.999999999999999</ele><time>2026-04-21T18:57:49.817Z</time></trkpt><trkpt lat="44.800225" lon="-0.530235"><ele>8.0</ele><time>2026-04-21T18:57:51.816Z</time></trkpt><trkpt lat="44.8002967" lon="-0.53023"><ele>8.166666666666666</ele><time>2026-04-21T18:57:53.816Z</time></trkpt><trkpt lat="44.8003733" lon="-0.530325"><ele>8.333333333333332</ele><time>2026-04-21T18:57:55.817Z</time></trkpt><trkpt lat="44.8003933" lon="-0.5304533"><ele>8.5</ele><time>2026-04-21T18:57:57.817Z</time></trkpt><trkpt lat="44.8004233" lon="-0.5305467"><ele>8.666666666666666</ele><time>2026-04-21T18:58:00.817Z</time></trkpt><trkpt lat="44.8004117" lon="-0.530675"><ele>8.833333333333334</ele><time>2026-04-21T18:58:03.816Z</time></trkpt><trkpt lat="44.80043" lon="-0.5307967"><ele>9.0</ele><time>2026-04-21T18:58:06.817Z</time></trkpt><trkpt lat="44.8005117" lon="-0.5308283"><ele>9.0</ele><time>2026-04-21T18:58:08.817Z</time></trkpt><trkpt lat="44.800605" lon="-0.53085"><ele>9.0</ele><time>2026-04-21T18:58:10.817Z</time></trkpt><trkpt lat="44.800705" lon="-0.5308717"><ele>9.0</ele><time>2026-04-21T18:58:12.817Z</time></trkpt><trkpt lat="44.800785" lon="-0.5309167"><ele>9.0</ele><time>2026-04-21T18:58:14.817Z</time></trkpt><trkpt lat="44.8008783" lon="-0.530935"><ele>9.0</ele><time>2026-04-21T18:58:16.817Z</time></trkpt><trkpt lat="44.8009667" lon="-0.5309383"><ele>8.2</ele><time>2026-04-21T18:58:18.817Z</time></trkpt><trkpt lat="44.8010467" lon="-0.5309533"><ele>7.4</ele><time>2026-04-21T18:58:20.817Z</time></trkpt><trkpt lat="44.8011267" lon="-0.5309617"><ele>6.6</ele><time>2026-04-21T18:58:22.817Z</time></trkpt><trkpt lat="44.80121" lon="-0.5309817"><ele>5.8</ele><time>2026-04-21T18:58:24.817Z</time></trkpt><trkpt lat="44.8013083" lon="-0.53099"><ele>5.0</ele><time>2026-04-21T18:58:26.816Z</time></trkpt><trkpt lat="44.8014183" lon="-0.531015"><ele>5.0</ele><time>2026-04-21T18:58:28.816Z</time></trkpt><trkpt lat="44.8015067" lon="-0.531025"><ele>5.0</ele><time>2026-04-21T18:58:30.817Z</time></trkpt><trkpt lat="44.801595" lon="-0.5310367"><ele>5.0</ele><time>2026-04-21T18:58:32.816Z</time></trkpt><trkpt lat="44.8016883" lon="-0.5310583"><ele>5.0</ele><time>2026-04-21T18:58:34.817Z</time></trkpt><trkpt lat="44.8017883" lon="-0.5310683"><ele>5.0</ele><time>2026-04-21T18:58:36.816Z</time></trkpt><trkpt lat="44.8018867" lon="-0.5310867"><ele>4.6</ele><time>2026-04-21T18:58:38.817Z</time></trkpt><trkpt lat="44.8019917" lon="-0.531115"><ele>4.2</ele><time>2026-04-21T18:58:40.817Z</time></trkpt><trkpt lat="44.8020983" lon="-0.531145"><ele>3.8</ele><time>2026-04-21T18:58:42.817Z</time></trkpt><trkpt lat="44.8022017" lon="-0.5311567"><ele>3.4</ele><time>2026-04-21T18:58:44.817Z</time></trkpt><trkpt lat="44.802305" lon="-0.531165"><ele>3.0</ele><time>2026-04-21T18:58:46.817Z</time></trkpt><trkpt lat="44.8024017" lon="-0.5311867"><ele>3.0</ele><time>2026-04-21T18:58:48.816Z</time></trkpt><trkpt lat="44.8024983" lon="-0.5312133"><ele>3.0</ele><time>2026-04-21T18:58:50.817Z</time></trkpt><trkpt lat="44.8025967" lon="-0.5312433"><ele>3.0</ele><time>2026-04-21T18:58:52.817Z</time></trkpt><trkpt lat="44.8026917" lon="-0.53128"><ele>3.0</ele><time>2026-04-21T18:58:54.816Z</time></trkpt><trkpt lat="44.80279" lon="-0.5313417"><ele>3.0</ele><time>2026-04-21T18:58:56.817Z</time></trkpt><trkpt lat="44.80289" lon="-0.5314183"><ele>4.2</ele><time>2026-04-21T18:58:58.816Z</time></trkpt><trkpt lat="44.80299" lon="-0.5315067"><ele>5.4</ele><time>2026-04-21T18:59:00.817Z</time></trkpt><trkpt lat="44.8030783" lon="-0.5316167"><ele>6.6000000000000005</ele><time>2026-04-21T18:59:02.817Z</time></trkpt><trkpt lat="44.8031183" lon="-0.5316867"><ele>7.8</ele><time>2026-04-21T18:59:03.817Z</time></trkpt><trkpt lat="44.8031917" lon="-0.53181"><ele>9.0</ele><time>2026-04-21T18:59:05.817Z</time></trkpt><trkpt lat="44.8032467" lon="-0.5319517"><ele>8.75</ele><time>2026-04-21T18:59:07.817Z</time></trkpt><trkpt lat="44.8033" lon="-0.5321083"><ele>8.5</ele><time>2026-04-21T18:59:09.817Z</time></trkpt><trkpt lat="44.8033517" lon="-0.5322633"><ele>8.25</ele><time>2026-04-21T18:59:11.816Z</time></trkpt><trkpt lat="44.8034017" lon="-0.5324233"><ele>8.0</ele><time>2026-04-21T18:59:13.817Z</time></trkpt><trkpt lat="44.8034467" lon="-0.53258"><ele>7.999999999999999</ele><time>2026-04-21T18:59:15.817Z</time></trkpt><trkpt lat="44.80349" lon="-0.5327467"><ele>8.0</ele><time>2026-04-21T18:59:17.817Z</time></trkpt><trkpt lat="44.803515" lon="-0.5328283"><ele>8.0</ele><time>2026-04-21T18:59:18.817Z</time></trkpt><trkpt lat="44.80354" lon="-0.53291"><ele>8.0</ele><time>2026-04-21T18:59:19.817Z</time></trkpt><trkpt lat="44.80359" lon="-0.5330683"><ele>7.999999999999999</ele><time>2026-04-21T18:59:21.817Z</time></trkpt><trkpt lat="44.8036133" lon="-0.5331533"><ele>8.0</ele><time>2026-04-21T18:59:22.817Z</time></trkpt><trkpt lat="44.803655" lon="-0.5333083"><ele>7.833333333333333</ele><time>2026-04-21T18:59:24.817Z</time></trkpt><trkpt lat="44.8036733" lon="-0.533395"><ele>7.666666666666666</ele><time>2026-04-21T18:59:25.817Z</time></trkpt><trkpt lat="44.8037167" lon="-0.5335533"><ele>7.5</ele><time>2026-04-21T18:59:27.817Z</time></trkpt><trkpt lat="44.8037483" lon="-0.533645"><ele>7.333333333333334</ele><time>2026-04-21T18:59:28.817Z</time></trkpt><trkpt lat="44.8037717" lon="-0.5337283"><ele>7.166666666666667</ele><time>2026-04-21T18:59:29.817Z</time></trkpt><trkpt lat="44.8037983" lon="-0.53381"><ele>7.0</ele><time>2026-04-21T18:59:30.817Z</time></trkpt><trkpt lat="44.8038233" lon="-0.5338967"><ele>7.333333333333334</ele><time>2026-04-21T18:59:31.817Z</time></trkpt><trkpt lat="44.8038717" lon="-0.53406"><ele>7.666666666666667</ele><time>2026-04-21T18:59:33.816Z</time></trkpt><trkpt lat="44.8039033" lon="-0.5341483"><ele>8.0</ele><time>2026-04-21T18:59:34.816Z</time></trkpt><trkpt lat="44.8039317" lon="-0.5342367"><ele>8.333333333333334</ele><time>2026-04-21T18:59:35.816Z</time></trkpt><trkpt lat="44.8039617" lon="-0.53432"><ele>8.666666666666666</ele><time>2026-04-21T18:59:36.817Z</time></trkpt><trkpt lat="44.80399" lon="-0.5344033"><ele>9.0</ele><time>2026-04-21T18:59:37.817Z</time></trkpt><trkpt lat="44.804025" lon="-0.53449"><ele>8.8</ele><time>2026-04-21T18:59:38.817Z</time></trkpt><trkpt lat="44.8040583" lon="-0.534575"><ele>8.600000000000001</ele><time>2026-04-21T18:59:39.817Z</time></trkpt><trkpt lat="44.8041" lon="-0.5346633"><ele>8.4</ele><time>2026-04-21T18:59:40.817Z</time></trkpt><trkpt lat="44.8041733" lon="-0.534845"><ele>8.200000000000001</ele><time>2026-04-21T18:59:42.817Z</time></trkpt><trkpt lat="44.8042483" lon="-0.5350217"><ele>8.0</ele><time>2026-04-21T18:59:44.817Z</time></trkpt><trkpt lat="44.80429" lon="-0.5351033"><ele>7.7142857142857135</ele><time>2026-04-21T18:59:45.817Z</time></trkpt><trkpt lat="44.8043317" lon="-0.5351883"><ele>7.428571428571428</ele><time>2026-04-21T18:59:46.817Z</time></trkpt><trkpt lat="44.804375" lon="-0.5352733"><ele>7.142857142857142</ele><time>2026-04-21T18:59:47.817Z</time></trkpt><trkpt lat="44.804415" lon="-0.5353667"><ele>6.857142857142857</ele><time>2026-04-21T18:59:48.817Z</time></trkpt><trkpt lat="44.8044583" lon="-0.5354533"><ele>6.571428571428571</ele><time>2026-04-21T18:59:49.817Z</time></trkpt><trkpt lat="44.8045" lon="-0.5355333"><ele>6.285714285714285</ele><time>2026-04-21T18:59:50.817Z</time></trkpt><trkpt lat="44.804545" lon="-0.5356117"><ele>6.0</ele><time>2026-04-21T18:59:51.817Z</time></trkpt><trkpt lat="44.8045867" lon="-0.53569"><ele>5.857142857142857</ele><time>2026-04-21T18:59:52.817Z</time></trkpt><trkpt lat="44.8046267" lon="-0.5357717"><ele>5.714285714285714</ele><time>2026-04-21T18:59:53.816Z</time></trkpt><trkpt lat="44.8046783" lon="-0.5358483"><ele>5.571428571428571</ele><time>2026-04-21T18:59:54.817Z</time></trkpt><trkpt lat="44.804725" lon="-0.535925"><ele>5.428571428571429</ele><time>2026-04-21T18:59:55.817Z</time></trkpt><trkpt lat="44.80477" lon="-0.5360117"><ele>5.285714285714286</ele><time>2026-04-21T18:59:56.816Z</time></trkpt><trkpt lat="44.804815" lon="-0.536095"><ele>5.142857142857142</ele><time>2026-04-21T18:59:57.817Z</time></trkpt><trkpt lat="44.804865" lon="-0.5361783"><ele>5.0</ele><time>2026-04-21T18:59:58.817Z</time></trkpt><trkpt lat="44.8049217" lon="-0.5362517"><ele>5.0</ele><time>2026-04-21T18:59:59.817Z</time></trkpt><trkpt lat="44.8049633" lon="-0.5363317"><ele>5.0</ele><time>2026-04-21T19:00:00.817Z</time></trkpt><trkpt lat="44.8050133" lon="-0.5364167"><ele>5.0</ele><time>2026-04-21T19:00:01.817Z</time></trkpt><trkpt lat="44.8050517" lon="-0.5365033"><ele>5.0</ele><time>2026-04-21T19:00:02.817Z</time></trkpt><trkpt lat="44.8051033" lon="-0.53658"><ele>5.0</ele><time>2026-04-21T19:00:03.817Z</time></trkpt><trkpt lat="44.8051483" lon="-0.5366633"><ele>5.0</ele><time>2026-04-21T19:00:04.817Z</time></trkpt><trkpt lat="44.8051967" lon="-0.5367483"><ele>5.0</ele><time>2026-04-21T19:00:05.817Z</time></trkpt><trkpt lat="44.8052367" lon="-0.5368333"><ele>5.0</ele><time>2026-04-21T19:00:06.817Z</time></trkpt><trkpt lat="44.8052867" lon="-0.5369217"><ele>5.0</ele><time>2026-04-21T19:00:07.817Z</time></trkpt><trkpt lat="44.8053383" lon="-0.537"><ele>5.0</ele><time>2026-04-21T19:00:08.817Z</time></trkpt><trkpt lat="44.80539" lon="-0.5370833"><ele>5.0</ele><time>2026-04-21T19:00:09.817Z</time></trkpt><trkpt lat="44.8054367" lon="-0.5371717"><ele>5.0</ele><time>2026-04-21T19:00:10.816Z</time></trkpt><trkpt lat="44.80548" lon="-0.53726"><ele>5.0</ele><time>2026-04-21T19:00:11.817Z</time></trkpt><trkpt lat="44.8055283" lon="-0.5373483"><ele>5.0</ele><time>2026-04-21T19:00:12.817Z</time></trkpt><trkpt lat="44.805575" lon="-0.5374367"><ele>5.0</ele><time>2026-04-21T19:00:13.817Z</time></trkpt><trkpt lat="44.8056183" lon="-0.537515"><ele>5.0</ele><time>2026-04-21T19:00:14.817Z</time></trkpt><trkpt lat="44.805665" lon="-0.5376"><ele>5.0</ele><time>2026-04-21T19:00:15.817Z</time></trkpt><trkpt lat="44.80571" lon="-0.5376767"><ele>5.0</ele><time>2026-04-21T19:00:16.817Z</time></trkpt><trkpt lat="44.8057633" lon="-0.5377667"><ele>5.0</ele><time>2026-04-21T19:00:17.817Z</time></trkpt><trkpt lat="44.80581" lon="-0.5378583"><ele>4.666666666666667</ele><time>2026-04-21T19:00:18.817Z</time></trkpt><trkpt lat="44.805855" lon="-0.537945"><ele>4.333333333333334</ele><time>2026-04-21T19:00:19.816Z</time></trkpt><trkpt lat="44.8059017" lon="-0.5380283"><ele>4.0</ele><time>2026-04-21T19:00:20.817Z</time></trkpt><trkpt lat="44.8059417" lon="-0.5381033"><ele>3.666666666666667</ele><time>2026-04-21T19:00:21.817Z</time></trkpt><trkpt lat="44.80598" lon="-0.538175"><ele>3.3333333333333335</ele><time>2026-04-21T19:00:22.817Z</time></trkpt><trkpt lat="44.8060567" lon="-0.538315"><ele>3.0</ele><time>2026-04-21T19:00:24.816Z</time></trkpt><trkpt lat="44.806115" lon="-0.5384383"><ele>3.571428571428571</ele><time>2026-04-21T19:00:26.817Z</time></trkpt><trkpt lat="44.80616" lon="-0.538505"><ele>4.142857142857142</ele><time>2026-04-21T19:00:27.817Z</time></trkpt><trkpt lat="44.806205" lon="-0.53862"><ele>4.714285714285714</ele><time>2026-04-21T19:00:29.817Z</time></trkpt><trkpt lat="44.8062517" lon="-0.5387133"><ele>5.285714285714286</ele><time>2026-04-21T19:00:31.816Z</time></trkpt><trkpt lat="44.8063233" lon="-0.5387033"><ele>5.857142857142857</ele><time>2026-04-21T19:00:35.817Z</time></trkpt><trkpt lat="44.8063683" lon="-0.538635"><ele>6.428571428571429</ele><time>2026-04-21T19:00:37.817Z</time></trkpt><trkpt lat="44.8064317" lon="-0.5385967"><ele>7.0</ele><time>2026-04-21T19:00:39.816Z</time></trkpt><trkpt lat="44.806505" lon="-0.5385917"><ele>7.000000000000001</ele><time>2026-04-21T19:00:41.817Z</time></trkpt><trkpt lat="44.80658" lon="-0.5385883"><ele>7.0</ele><time>2026-04-21T19:00:43.817Z</time></trkpt><trkpt lat="44.80665" lon="-0.5386167"><ele>7.0</ele><time>2026-04-21T19:00:45.816Z</time></trkpt><trkpt lat="44.80671" lon="-0.538695"><ele>7.0</ele><time>2026-04-21T19:00:47.816Z</time></trkpt><trkpt lat="44.8067767" lon="-0.5387483"><ele>7.000000000000001</ele><time>2026-04-21T19:00:49.816Z</time></trkpt><trkpt lat="44.80686" lon="-0.5388083"><ele>7.0</ele><time>2026-04-21T19:00:51.816Z</time></trkpt><trkpt lat="44.8069533" lon="-0.5388167"><ele>6.3999999999999995</ele><time>2026-04-21T19:00:53.816Z</time></trkpt><trkpt lat="44.8070533" lon="-0.5387683"><ele>5.799999999999999</ele><time>2026-04-21T19:00:55.816Z</time></trkpt><trkpt lat="44.8071483" lon="-0.538705"><ele>5.2</ele><time>2026-04-21T19:00:57.816Z</time></trkpt><trkpt lat="44.80724" lon="-0.538665"><ele>4.6</ele><time>2026-04-21T19:00:59.815Z</time></trkpt><trkpt lat="44.807345" lon="-0.5386167"><ele>4.0</ele><time>2026-04-21T19:01:01.816Z</time></trkpt><trkpt lat="44.80745" lon="-0.538555"><ele>4.0</ele><time>2026-04-21T19:01:03.816Z</time></trkpt><trkpt lat="44.8075617" lon="-0.5385117"><ele>4.0</ele><time>2026-04-21T19:01:05.816Z</time></trkpt><trkpt lat="44.80767" lon="-0.5384667"><ele>4.0</ele><time>2026-04-21T19:01:07.815Z</time></trkpt><trkpt lat="44.8077767" lon="-0.5384"><ele>4.0</ele><time>2026-04-21T19:01:09.815Z</time></trkpt><trkpt lat="44.8078733" lon="-0.5383567"><ele>4.0</ele><time>2026-04-21T19:01:11.816Z</time></trkpt><trkpt lat="44.8079733" lon="-0.5382967"><ele>4.0</ele><time>2026-04-21T19:01:13.815Z</time></trkpt><trkpt lat="44.80807" lon="-0.5382033"><ele>4.0</ele><time>2026-04-21T19:01:15.816Z</time></trkpt><trkpt lat="44.8081633" lon="-0.53814"><ele>4.0</ele><time>2026-04-21T19:01:17.816Z</time></trkpt><trkpt lat="44.8082533" lon="-0.5380683"><ele>4.0</ele><time>2026-04-21T19:01:19.816Z</time></trkpt><trkpt lat="44.8083583" lon="-0.5379917"><ele>4.0</ele><time>2026-04-21T19:01:21.816Z</time></trkpt><trkpt lat="44.8084133" lon="-0.5379467"><ele>3.9999999999999996</ele><time>2026-04-21T19:01:22.816Z</time></trkpt><trkpt lat="44.8084767" lon="-0.537895"><ele>4.0</ele><time>2026-04-21T19:01:23.816Z</time></trkpt><trkpt lat="44.8085433" lon="-0.5378517"><ele>4.0</ele><time>2026-04-21T19:01:24.816Z</time></trkpt><trkpt lat="44.8086083" lon="-0.5378"><ele>4.0</ele><time>2026-04-21T19:01:25.815Z</time></trkpt><trkpt lat="44.8086717" lon="-0.5377467"><ele>3.9999999999999996</ele><time>2026-04-21T19:01:26.816Z</time></trkpt><trkpt lat="44.80874" lon="-0.5377"><ele>4.0</ele><time>2026-04-21T19:01:27.816Z</time></trkpt><trkpt lat="44.80881" lon="-0.5376467"><ele>3.714285714285714</ele><time>2026-04-21T19:01:28.815Z</time></trkpt><trkpt lat="44.80887" lon="-0.5375983"><ele>3.428571428571428</ele><time>2026-04-21T19:01:29.816Z</time></trkpt><trkpt lat="44.8089333" lon="-0.5375517"><ele>3.142857142857143</ele><time>2026-04-21T19:01:30.816Z</time></trkpt><trkpt lat="44.8089983" lon="-0.5375067"><ele>2.8571428571428568</ele><time>2026-04-21T19:01:31.816Z</time></trkpt><trkpt lat="44.8090617" lon="-0.5374533"><ele>2.571428571428571</ele><time>2026-04-21T19:01:32.816Z</time></trkpt><trkpt lat="44.809125" lon="-0.53741"><ele>2.2857142857142856</ele><time>2026-04-21T19:01:33.816Z</time></trkpt><trkpt lat="44.8091833" lon="-0.5373567"><ele>2.0</ele><time>2026-04-21T19:01:34.816Z</time></trkpt><trkpt lat="44.8092417" lon="-0.537315"><ele>2.0</ele><time>2026-04-21T19:01:35.816Z</time></trkpt><trkpt lat="44.8093" lon="-0.5372733"><ele>1.9999999999999998</ele><time>2026-04-21T19:01:36.816Z</time></trkpt><trkpt lat="44.8093583" lon="-0.537235"><ele>2.0</ele><time>2026-04-21T19:01:37.816Z</time></trkpt><trkpt lat="44.8094167" lon="-0.5371983"><ele>2.0</ele><time>2026-04-21T19:01:38.816Z</time></trkpt><trkpt lat="44.80948" lon="-0.5371583"><ele>1.9999999999999998</ele><time>2026-04-21T19:01:39.816Z</time></trkpt><trkpt lat="44.8095333" lon="-0.53711"><ele>2.0</ele><time>2026-04-21T19:01:40.816Z</time></trkpt><trkpt lat="44.809615" lon="-0.5369817"><ele>2.0</ele><time>2026-04-21T19:01:42.816Z</time></trkpt><trkpt lat="44.8096467" lon="-0.536905"><ele>2.6666666666666665</ele><time>2026-04-21T19:01:43.816Z</time></trkpt><trkpt lat="44.809715" lon="-0.5367583"><ele>3.333333333333333</ele><time>2026-04-21T19:01:45.816Z</time></trkpt><trkpt lat="44.8097933" lon="-0.5366167"><ele>4.0</ele><time>2026-04-21T19:01:47.815Z</time></trkpt><trkpt lat="44.8098417" lon="-0.5365533"><ele>4.666666666666667</ele><time>2026-04-21T19:01:48.815Z</time></trkpt><trkpt lat="44.80989" lon="-0.5364917"><ele>5.333333333333333</ele><time>2026-04-21T19:01:49.816Z</time></trkpt><trkpt lat="44.8099317" lon="-0.53642"><ele>6.0</ele><time>2026-04-21T19:01:50.816Z</time></trkpt><trkpt lat="44.8100017" lon="-0.53628"><ele>5.666666666666667</ele><time>2026-04-21T19:01:52.815Z</time></trkpt><trkpt lat="44.810075" lon="-0.5361467"><ele>5.333333333333333</ele><time>2026-04-21T19:01:54.816Z</time></trkpt><trkpt lat="44.810115" lon="-0.5360767"><ele>5.0</ele><time>2026-04-21T19:01:55.816Z</time></trkpt><trkpt lat="44.8101567" lon="-0.53601"><ele>4.666666666666666</ele><time>2026-04-21T19:01:56.815Z</time></trkpt><trkpt lat="44.8102283" lon="-0.535875"><ele>4.333333333333333</ele><time>2026-04-21T19:01:58.816Z</time></trkpt><trkpt lat="44.8102567" lon="-0.53579"><ele>4.0</ele><time>2026-04-21T19:01:59.816Z</time></trkpt><trkpt lat="44.81031" lon="-0.535635"><ele>3.9999999999999996</ele><time>2026-04-21T19:02:01.816Z</time></trkpt><trkpt lat="44.8103483" lon="-0.5355617"><ele>4.0</ele><time>2026-04-21T19:02:02.816Z</time></trkpt><trkpt lat="44.8103883" lon="-0.5354833"><ele>4.0</ele><time>2026-04-21T19:02:03.816Z</time></trkpt><trkpt lat="44.81043" lon="-0.5354067"><ele>4.0</ele><time>2026-04-21T19:02:04.816Z</time></trkpt><trkpt lat="44.8105217" lon="-0.535295"><ele>3.9999999999999996</ele><time>2026-04-21T19:02:06.816Z</time></trkpt><trkpt lat="44.8106167" lon="-0.5352"><ele>4.0</ele><time>2026-04-21T19:02:08.816Z</time></trkpt><trkpt lat="44.8106967" lon="-0.5350833"><ele>3.8000000000000003</ele><time>2026-04-21T19:02:10.815Z</time></trkpt><trkpt lat="44.8107633" lon="-0.5349433"><ele>3.6000000000000005</ele><time>2026-04-21T19:02:12.815Z</time></trkpt><trkpt lat="44.8108333" lon="-0.5348067"><ele>3.4</ele><time>2026-04-21T19:02:14.816Z</time></trkpt><trkpt lat="44.810895" lon="-0.5346767"><ele>3.2</ele><time>2026-04-21T19:02:16.816Z</time></trkpt><trkpt lat="44.8109583" lon="-0.53461"><ele>3.0</ele><time>2026-04-21T19:02:18.816Z</time></trkpt><trkpt lat="44.8110233" lon="-0.5346117"><ele>2.6666666666666665</ele><time>2026-04-21T19:02:20.816Z</time></trkpt><trkpt lat="44.811065" lon="-0.5345433"><ele>2.3333333333333335</ele><time>2026-04-21T19:02:22.816Z</time></trkpt><trkpt lat="44.8111" lon="-0.5344417"><ele>2.0</ele><time>2026-04-21T19:02:24.816Z</time></trkpt><trkpt lat="44.811135" lon="-0.5343267"><ele>1.6666666666666665</ele><time>2026-04-21T19:02:26.816Z</time></trkpt><trkpt lat="44.8111533" lon="-0.53421"><ele>1.3333333333333333</ele><time>2026-04-21T19:02:28.815Z</time></trkpt><trkpt lat="44.8111917" lon="-0.5340967"><ele>1.0</ele><time>2026-04-21T19:02:30.815Z</time></trkpt><trkpt lat="44.811235" lon="-0.5339683"><ele>1.0</ele><time>2026-04-21T19:02:32.815Z</time></trkpt><trkpt lat="44.811275" lon="-0.5338383"><ele>1.0</ele><time>2026-04-21T19:02:34.816Z</time></trkpt><trkpt lat="44.81133" lon="-0.5337383"><ele>1.0</ele><time>2026-04-21T19:02:36.816Z</time></trkpt><trkpt lat="44.8114267" lon="-0.53373"><ele>1.0</ele><time>2026-04-21T19:02:38.816Z</time></trkpt><trkpt lat="44.8115233" lon="-0.53378"><ele>1.0</ele><time>2026-04-21T19:02:40.816Z</time></trkpt><trkpt lat="44.8116133" lon="-0.5338433"><ele>1.0</ele><time>2026-04-21T19:02:42.816Z</time></trkpt><trkpt lat="44.8117033" lon="-0.533905"><ele>1.0</ele><time>2026-04-21T19:02:44.816Z</time></trkpt><trkpt lat="44.811795" lon="-0.5339633"><ele>1.0</ele><time>2026-04-21T19:02:46.815Z</time></trkpt><trkpt lat="44.8118867" lon="-0.53402"><ele>1.0</ele><time>2026-04-21T19:02:48.816Z</time></trkpt><trkpt lat="44.8119883" lon="-0.5340767"><ele>1.0</ele><time>2026-04-21T19:02:50.816Z</time></trkpt><trkpt lat="44.8120883" lon="-0.5341417"><ele>0.8</ele><time>2026-04-21T19:02:52.816Z</time></trkpt><trkpt lat="44.8121917" lon="-0.5342067"><ele>0.6000000000000001</ele><time>2026-04-21T19:02:54.816Z</time></trkpt><trkpt lat="44.8123" lon="-0.5342783"><ele>0.4</ele><time>2026-04-21T19:02:56.815Z</time></trkpt><trkpt lat="44.8123583" lon="-0.5343133"><ele>0.2</ele><time>2026-04-21T19:02:57.816Z</time></trkpt><trkpt lat="44.8124733" lon="-0.5343817"><ele>0.0</ele><time>2026-04-21T19:02:59.816Z</time></trkpt><trkpt lat="44.8125883" lon="-0.534445"><ele>0.16666666666666666</ele><time>2026-04-21T19:03:01.816Z</time></trkpt><trkpt lat="44.8127033" lon="-0.5345183"><ele>0.3333333333333333</ele><time>2026-04-21T19:03:03.816Z</time></trkpt><trkpt lat="44.8127667" lon="-0.5345567"><ele>0.5</ele><time>2026-04-21T19:03:04.815Z</time></trkpt><trkpt lat="44.8128233" lon="-0.5345967"><ele>0.6666666666666666</ele><time>2026-04-21T19:03:05.816Z</time></trkpt><trkpt lat="44.8128783" lon="-0.53464"><ele>0.8333333333333333</ele><time>2026-04-21T19:03:06.815Z</time></trkpt><trkpt lat="44.8129933" lon="-0.534715"><ele>1.0</ele><time>2026-04-21T19:03:08.816Z</time></trkpt><trkpt lat="44.813055" lon="-0.534755"><ele>1.2857142857142856</ele><time>2026-04-21T19:03:09.816Z</time></trkpt><trkpt lat="44.8131167" lon="-0.53479"><ele>1.5714285714285712</ele><time>2026-04-21T19:03:10.815Z</time></trkpt><trkpt lat="44.8131767" lon="-0.5348233"><ele>1.857142857142857</ele><time>2026-04-21T19:03:11.816Z</time></trkpt><trkpt lat="44.8132367" lon="-0.534865"><ele>2.142857142857143</ele><time>2026-04-21T19:03:12.816Z</time></trkpt><trkpt lat="44.8132983" lon="-0.5349017"><ele>2.4285714285714284</ele><time>2026-04-21T19:03:13.816Z</time></trkpt><trkpt lat="44.8133567" lon="-0.5349367"><ele>2.714285714285714</ele><time>2026-04-21T19:03:14.816Z</time></trkpt><trkpt lat="44.8134667" lon="-0.5350017"><ele>3.0</ele><time>2026-04-21T19:03:16.816Z</time></trkpt><trkpt lat="44.8135783" lon="-0.53508"><ele>2.9999999999999996</ele><time>2026-04-21T19:03:18.816Z</time></trkpt><trkpt lat="44.8136383" lon="-0.5351167"><ele>3.0</ele><time>2026-04-21T19:03:19.816Z</time></trkpt><trkpt lat="44.8137" lon="-0.535145"><ele>3.0</ele><time>2026-04-21T19:03:20.816Z</time></trkpt><trkpt lat="44.8137667" lon="-0.5351817"><ele>3.0</ele><time>2026-04-21T19:03:21.816Z</time></trkpt><trkpt lat="44.8138283" lon="-0.5352183"><ele>3.0</ele><time>2026-04-21T19:03:22.816Z</time></trkpt><trkpt lat="44.8138867" lon="-0.5352583"><ele>2.9999999999999996</ele><time>2026-04-21T19:03:23.816Z</time></trkpt><trkpt lat="44.8139467" lon="-0.53529"><ele>3.0</ele><time>2026-04-21T19:03:24.816Z</time></trkpt><trkpt lat="44.81401" lon="-0.53532"><ele>2.9999999999999996</ele><time>2026-04-21T19:03:25.816Z</time></trkpt><trkpt lat="44.814075" lon="-0.53536"><ele>3.0</ele><time>2026-04-21T19:03:26.816Z</time></trkpt><trkpt lat="44.814135" lon="-0.5354033"><ele>3.0</ele><time>2026-04-21T19:03:27.816Z</time></trkpt><trkpt lat="44.8142017" lon="-0.5354533"><ele>3.0</ele><time>2026-04-21T19:03:28.816Z</time></trkpt><trkpt lat="44.8142667" lon="-0.5354933"><ele>3.0</ele><time>2026-04-21T19:03:29.816Z</time></trkpt><trkpt lat="44.8143317" lon="-0.53554"><ele>2.9999999999999996</ele><time>2026-04-21T19:03:30.815Z</time></trkpt><trkpt lat="44.8143967" lon="-0.535565"><ele>3.0</ele><time>2026-04-21T19:03:31.816Z</time></trkpt><trkpt lat="44.8144583" lon="-0.5356117"><ele>3.1666666666666665</ele><time>2026-04-21T19:03:32.815Z</time></trkpt><trkpt lat="44.81452" lon="-0.5356483"><ele>3.333333333333333</ele><time>2026-04-21T19:03:33.816Z</time></trkpt><trkpt lat="44.8145783" lon="-0.5356833"><ele>3.5</ele><time>2026-04-21T19:03:34.815Z</time></trkpt><trkpt lat="44.81464" lon="-0.5357183"><ele>3.6666666666666665</ele><time>2026-04-21T19:03:35.815Z</time></trkpt><trkpt lat="44.8147517" lon="-0.5357917"><ele>3.833333333333333</ele><time>2026-04-21T19:03:37.816Z</time></trkpt><trkpt lat="44.8148117" lon="-0.535825"><ele>4.0</ele><time>2026-04-21T19:03:38.816Z</time></trkpt><trkpt lat="44.814875" lon="-0.5358633"><ele>4.0</ele><time>2026-04-21T19:03:39.816Z</time></trkpt><trkpt lat="44.8149417" lon="-0.5359017"><ele>3.9999999999999996</ele><time>2026-04-21T19:03:40.815Z</time></trkpt><trkpt lat="44.8150067" lon="-0.535945"><ele>4.0</ele><time>2026-04-21T19:03:41.816Z</time></trkpt><trkpt lat="44.8150667" lon="-0.5359817"><ele>4.0</ele><time>2026-04-21T19:03:42.816Z</time></trkpt><trkpt lat="44.8151233" lon="-0.5360383"><ele>3.9999999999999996</ele><time>2026-04-21T19:03:43.816Z</time></trkpt><trkpt lat="44.8151817" lon="-0.536075"><ele>4.0</ele><time>2026-04-21T19:03:44.816Z</time></trkpt><trkpt lat="44.8152417" lon="-0.53611"><ele>4.0</ele><time>2026-04-21T19:03:45.816Z</time></trkpt><trkpt lat="44.8153017" lon="-0.5361533"><ele>3.6</ele><time>2026-04-21T19:03:46.816Z</time></trkpt><trkpt lat="44.8154083" lon="-0.5362333"><ele>3.2</ele><time>2026-04-21T19:03:48.816Z</time></trkpt><trkpt lat="44.8154583" lon="-0.5362933"><ele>2.8000000000000003</ele><time>2026-04-21T19:03:49.815Z</time></trkpt><trkpt lat="44.8155517" lon="-0.53639"><ele>2.4000000000000004</ele><time>2026-04-21T19:03:51.816Z</time></trkpt><trkpt lat="44.8156667" lon="-0.5364717"><ele>2.0</ele><time>2026-04-21T19:03:53.816Z</time></trkpt><trkpt lat="44.8157883" lon="-0.53653"><ele>2.0</ele><time>2026-04-21T19:03:55.816Z</time></trkpt><trkpt lat="44.81585" lon="-0.5365717"><ele>2.0</ele><time>2026-04-21T19:03:56.816Z</time></trkpt><trkpt lat="44.815915" lon="-0.5366017"><ele>2.0</ele><time>2026-04-21T19:03:57.816Z</time></trkpt><trkpt lat="44.816035" lon="-0.5366383"><ele>2.0</ele><time>2026-04-21T19:03:59.816Z</time></trkpt><trkpt lat="44.8161567" lon="-0.53669"><ele>2.0</ele><time>2026-04-21T19:04:01.815Z</time></trkpt><trkpt lat="44.8162767" lon="-0.5367467"><ele>2.5</ele><time>2026-04-21T19:04:03.816Z</time></trkpt><trkpt lat="44.8163733" lon="-0.5368083"><ele>3.0</ele><time>2026-04-21T19:04:05.815Z</time></trkpt><trkpt lat="44.8164283" lon="-0.5368717"><ele>3.5</ele><time>2026-04-21T19:04:06.815Z</time></trkpt><trkpt lat="44.8164867" lon="-0.53693"><ele>4.0</ele><time>2026-04-21T19:04:07.815Z</time></trkpt><trkpt lat="44.8165933" lon="-0.5370117"><ele>4.5</ele><time>2026-04-21T19:04:09.816Z</time></trkpt><trkpt lat="44.8166517" lon="-0.5370483"><ele>5.0</ele><time>2026-04-21T19:04:10.816Z</time></trkpt><trkpt lat="44.8167133" lon="-0.5370867"><ele>4.8</ele><time>2026-04-21T19:04:11.815Z</time></trkpt><trkpt lat="44.8168333" lon="-0.53715"><ele>4.6</ele><time>2026-04-21T19:04:13.816Z</time></trkpt><trkpt lat="44.8168917" lon="-0.5371867"><ele>4.4</ele><time>2026-04-21T19:04:14.816Z</time></trkpt><trkpt lat="44.8169517" lon="-0.5372267"><ele>4.2</ele><time>2026-04-21T19:04:15.816Z</time></trkpt><trkpt lat="44.81701" lon="-0.5372617"><ele>4.0</ele><time>2026-04-21T19:04:16.816Z</time></trkpt><trkpt lat="44.8171283" lon="-0.5373333"><ele>3.9999999999999996</ele><time>2026-04-21T19:04:18.816Z</time></trkpt><trkpt lat="44.8172417" lon="-0.537415"><ele>4.0</ele><time>2026-04-21T19:04:20.815Z</time></trkpt><trkpt lat="44.8172983" lon="-0.537455"><ele>4.0</ele><time>2026-04-21T19:04:21.816Z</time></trkpt><trkpt lat="44.81736" lon="-0.5374917"><ele>4.0</ele><time>2026-04-21T19:04:22.816Z</time></trkpt><trkpt lat="44.8174167" lon="-0.5375317"><ele>3.9999999999999996</ele><time>2026-04-21T19:04:23.815Z</time></trkpt><trkpt lat="44.8175217" lon="-0.5375983"><ele>4.0</ele><time>2026-04-21T19:04:25.816Z</time></trkpt><trkpt lat="44.8176317" lon="-0.5376667"><ele>4.0</ele><time>2026-04-21T19:04:27.816Z</time></trkpt><trkpt lat="44.8177383" lon="-0.53775"><ele>4.0</ele><time>2026-04-21T19:04:29.816Z</time></trkpt><trkpt lat="44.817845" lon="-0.53781"><ele>4.0</ele><time>2026-04-21T19:04:31.815Z</time></trkpt><trkpt lat="44.817955" lon="-0.5378733"><ele>4.0</ele><time>2026-04-21T19:04:33.816Z</time></trkpt><trkpt lat="44.81806" lon="-0.5379433"><ele>4.0</ele><time>2026-04-21T19:04:35.816Z</time></trkpt><trkpt lat="44.8181583" lon="-0.538025"><ele>4.0</ele><time>2026-04-21T19:04:37.815Z</time></trkpt><trkpt lat="44.8182567" lon="-0.538115"><ele>4.0</ele><time>2026-04-21T19:04:39.815Z</time></trkpt><trkpt lat="44.818365" lon="-0.5381967"><ele>4.0</ele><time>2026-04-21T19:04:41.815Z</time></trkpt><trkpt lat="44.81842" lon="-0.5382417"><ele>4.0</ele><time>2026-04-21T19:04:42.816Z</time></trkpt><trkpt lat="44.818525" lon="-0.538325"><ele>4.333333333333333</ele><time>2026-04-21T19:04:44.815Z</time></trkpt><trkpt lat="44.8185833" lon="-0.53836"><ele>4.666666666666666</ele><time>2026-04-21T19:04:45.815Z</time></trkpt><trkpt lat="44.8186933" lon="-0.5384267"><ele>5.0</ele><time>2026-04-21T19:04:47.815Z</time></trkpt><trkpt lat="44.81879" lon="-0.5385"><ele>5.333333333333333</ele><time>2026-04-21T19:04:49.816Z</time></trkpt><trkpt lat="44.8188517" lon="-0.53853"><ele>5.666666666666667</ele><time>2026-04-21T19:04:50.815Z</time></trkpt><trkpt lat="44.818915" lon="-0.5385383"><ele>6.0</ele><time>2026-04-21T19:04:51.816Z</time></trkpt><trkpt lat="44.819025" lon="-0.5385717"><ele>6.0</ele><time>2026-04-21T19:04:53.815Z</time></trkpt><trkpt lat="44.8190983" lon="-0.5386283"><ele>6.0</ele><time>2026-04-21T19:04:55.816Z</time></trkpt><trkpt lat="44.8191533" lon="-0.538675"><ele>6.0</ele><time>2026-04-21T19:04:58.815Z</time></trkpt><trkpt lat="44.8192367" lon="-0.5387533"><ele>6.0</ele><time>2026-04-21T19:05:02.816Z</time></trkpt><trkpt lat="44.8193033" lon="-0.5388067"><ele>6.0</ele><time>2026-04-21T19:05:05.816Z</time></trkpt><trkpt lat="44.8193717" lon="-0.53889"><ele>6.0</ele><time>2026-04-21T19:05:10.816Z</time></trkpt><trkpt lat="44.8194467" lon="-0.5389367"><ele>5.3999999999999995</ele><time>2026-04-21T19:05:12.816Z</time></trkpt><trkpt lat="44.8195317" lon="-0.5390017"><ele>4.8</ele><time>2026-04-21T19:05:14.815Z</time></trkpt><trkpt lat="44.819625" lon="-0.539085"><ele>4.199999999999999</ele><time>2026-04-21T19:05:16.815Z</time></trkpt><trkpt lat="44.819715" lon="-0.539165"><ele>3.5999999999999996</ele><time>2026-04-21T19:05:18.816Z</time></trkpt><trkpt lat="44.81979" lon="-0.53924"><ele>3.0</ele><time>2026-04-21T19:05:20.816Z</time></trkpt><trkpt lat="44.819865" lon="-0.53929"><ele>3.0</ele><time>2026-04-21T19:05:22.815Z</time></trkpt><trkpt lat="44.81994" lon="-0.5393583"><ele>3.0</ele><time>2026-04-21T19:05:24.816Z</time></trkpt><trkpt lat="44.8200117" lon="-0.53942"><ele>3.0</ele><time>2026-04-21T19:05:26.816Z</time></trkpt><trkpt lat="44.8200733" lon="-0.53949"><ele>3.0</ele><time>2026-04-21T19:05:28.816Z</time></trkpt><trkpt lat="44.82007" lon="-0.53959"><ele>3.0</ele><time>2026-04-21T19:05:31.816Z</time></trkpt><trkpt lat="44.82009" lon="-0.5396933"><ele>3.0</ele><time>2026-04-21T19:05:34.816Z</time></trkpt><trkpt lat="44.8201233" lon="-0.5398183"><ele>2.6666666666666665</ele><time>2026-04-21T19:05:37.816Z</time></trkpt><trkpt lat="44.8201517" lon="-0.539905"><ele>2.3333333333333335</ele><time>2026-04-21T19:05:39.816Z</time></trkpt><trkpt lat="44.82018" lon="-0.5400017"><ele>2.0</ele><time>2026-04-21T19:05:41.816Z</time></trkpt><trkpt lat="44.820215" lon="-0.5401017"><ele>1.6666666666666665</ele><time>2026-04-21T19:05:43.816Z</time></trkpt><trkpt lat="44.82024" lon="-0.5402033"><ele>1.3333333333333333</ele><time>2026-04-21T19:05:45.816Z</time></trkpt><trkpt lat="44.8202717" lon="-0.5403067"><ele>1.0</ele><time>2026-04-21T19:05:47.816Z</time></trkpt><trkpt lat="44.8203267" lon="-0.54041"><ele>1.0</ele><time>2026-04-21T19:05:49.815Z</time></trkpt><trkpt lat="44.8203733" lon="-0.5405183"><ele>1.0</ele><time>2026-04-21T19:05:51.816Z</time></trkpt><trkpt lat="44.82041" lon="-0.5406383"><ele>1.0</ele><time>2026-04-21T19:05:53.816Z</time></trkpt><trkpt lat="44.820445" lon="-0.5407617"><ele>1.0</ele><time>2026-04-21T19:05:55.816Z</time></trkpt><trkpt lat="44.8204717" lon="-0.5408883"><ele>1.0</ele><time>2026-04-21T19:05:57.816Z</time></trkpt><trkpt lat="44.8205017" lon="-0.5409983"><ele>0.9999999999999999</ele><time>2026-04-21T19:05:59.815Z</time></trkpt><trkpt lat="44.8205483" lon="-0.5411017"><ele>1.0</ele><time>2026-04-21T19:06:01.816Z</time></trkpt><trkpt lat="44.8206017" lon="-0.541175"><ele>1.0</ele><time>2026-04-21T19:06:03.816Z</time></trkpt><trkpt lat="44.8206733" lon="-0.5412267"><ele>1.0</ele><time>2026-04-21T19:06:06.816Z</time></trkpt><trkpt lat="44.8207483" lon="-0.541295"><ele>0.9999999999999999</ele><time>2026-04-21T19:06:13.816Z</time></trkpt><trkpt lat="44.8208117" lon="-0.54137"><ele>1.0</ele><time>2026-04-21T19:06:16.816Z</time></trkpt><trkpt lat="44.8208867" lon="-0.54141"><ele>1.6</ele><time>2026-04-21T19:06:18.816Z</time></trkpt><trkpt lat="44.820975" lon="-0.5414317"><ele>2.2</ele><time>2026-04-21T19:06:20.816Z</time></trkpt><trkpt lat="44.8210567" lon="-0.54148"><ele>2.8000000000000003</ele><time>2026-04-21T19:06:22.816Z</time></trkpt><trkpt lat="44.8211483" lon="-0.5415333"><ele>3.4000000000000004</ele><time>2026-04-21T19:06:24.816Z</time></trkpt><trkpt lat="44.8212517" lon="-0.5415733"><ele>4.0</ele><time>2026-04-21T19:06:26.816Z</time></trkpt><trkpt lat="44.82135" lon="-0.5416083"><ele>4.0</ele><time>2026-04-21T19:06:28.816Z</time></trkpt><trkpt lat="44.8214517" lon="-0.5416467"><ele>4.0</ele><time>2026-04-21T19:06:30.815Z</time></trkpt><trkpt lat="44.8215567" lon="-0.5416783"><ele>4.0</ele><time>2026-04-21T19:06:32.816Z</time></trkpt><trkpt lat="44.8216683" lon="-0.5417183"><ele>4.0</ele><time>2026-04-21T19:06:34.816Z</time></trkpt><trkpt lat="44.8217717" lon="-0.5417567"><ele>4.0</ele><time>2026-04-21T19:06:36.816Z</time></trkpt><trkpt lat="44.82189" lon="-0.5417983"><ele>4.142857142857142</ele><time>2026-04-21T19:06:38.816Z</time></trkpt><trkpt lat="44.8219683" lon="-0.5418483"><ele>4.285714285714286</ele><time>2026-04-21T19:06:39.816Z</time></trkpt><trkpt lat="44.8220367" lon="-0.5418867"><ele>4.428571428571429</ele><time>2026-04-21T19:06:40.816Z</time></trkpt><trkpt lat="44.82211" lon="-0.54191"><ele>4.571428571428571</ele><time>2026-04-21T19:06:41.816Z</time></trkpt><trkpt lat="44.8221767" lon="-0.5419283"><ele>4.714285714285714</ele><time>2026-04-21T19:06:42.815Z</time></trkpt><trkpt lat="44.8222433" lon="-0.54195"><ele>4.857142857142857</ele><time>2026-04-21T19:06:43.816Z</time></trkpt><trkpt lat="44.82231" lon="-0.541975"><ele>5.0</ele><time>2026-04-21T19:06:44.816Z</time></trkpt><trkpt lat="44.8224317" lon="-0.5420467"><ele>4.571428571428571</ele><time>2026-04-21T19:06:46.816Z</time></trkpt><trkpt lat="44.8224933" lon="-0.5420833"><ele>4.142857142857143</ele><time>2026-04-21T19:06:47.816Z</time></trkpt><trkpt lat="44.8225483" lon="-0.5421417"><ele>3.7142857142857144</ele><time>2026-04-21T19:06:48.815Z</time></trkpt><trkpt lat="44.8225983" lon="-0.5422017"><ele>3.2857142857142856</ele><time>2026-04-21T19:06:49.816Z</time></trkpt><trkpt lat="44.82265" lon="-0.54227"><ele>2.8571428571428568</ele><time>2026-04-21T19:06:50.816Z</time></trkpt><trkpt lat="44.8227" lon="-0.54235"><ele>2.4285714285714284</ele><time>2026-04-21T19:06:51.816Z</time></trkpt><trkpt lat="44.822745" lon="-0.5424317"><ele>2.0</ele><time>2026-04-21T19:06:52.816Z</time></trkpt><trkpt lat="44.8227867" lon="-0.54251"><ele>2.0</ele><time>2026-04-21T19:06:53.816Z</time></trkpt><trkpt lat="44.8228283" lon="-0.54258"><ele>1.9999999999999998</ele><time>2026-04-21T19:06:54.815Z</time></trkpt><trkpt lat="44.8228767" lon="-0.5426483"><ele>2.0</ele><time>2026-04-21T19:06:55.816Z</time></trkpt><trkpt lat="44.8229333" lon="-0.5427217"><ele>2.0</ele><time>2026-04-21T19:06:56.815Z</time></trkpt><trkpt lat="44.8229817" lon="-0.5427917"><ele>1.9999999999999998</ele><time>2026-04-21T19:06:57.816Z</time></trkpt><trkpt lat="44.82303" lon="-0.5428683"><ele>2.0</ele><time>2026-04-21T19:06:58.816Z</time></trkpt><trkpt lat="44.8230733" lon="-0.5429383"><ele>2.0</ele><time>2026-04-21T19:06:59.816Z</time></trkpt><trkpt lat="44.823125" lon="-0.5430033"><ele>2.333333333333333</ele><time>2026-04-21T19:07:00.816Z</time></trkpt><trkpt lat="44.8231733" lon="-0.5430683"><ele>2.6666666666666665</ele><time>2026-04-21T19:07:01.815Z</time></trkpt><trkpt lat="44.823215" lon="-0.5431383"><ele>3.0</ele><time>2026-04-21T19:07:02.815Z</time></trkpt><trkpt lat="44.8233033" lon="-0.5432433"><ele>3.333333333333333</ele><time>2026-04-21T19:07:04.816Z</time></trkpt><trkpt lat="44.8233817" lon="-0.543365"><ele>3.6666666666666665</ele><time>2026-04-21T19:07:06.816Z</time></trkpt><trkpt lat="44.8234233" lon="-0.5434317"><ele>4.0</ele><time>2026-04-21T19:07:07.816Z</time></trkpt><trkpt lat="44.8234617" lon="-0.5435033"><ele>3.9999999999999996</ele><time>2026-04-21T19:07:08.816Z</time></trkpt><trkpt lat="44.8235033" lon="-0.5435767"><ele>4.0</ele><time>2026-04-21T19:07:09.816Z</time></trkpt><trkpt lat="44.8235483" lon="-0.5436567"><ele>4.0</ele><time>2026-04-21T19:07:10.816Z</time></trkpt><trkpt lat="44.8235983" lon="-0.5437217"><ele>4.0</ele><time>2026-04-21T19:07:11.815Z</time></trkpt><trkpt lat="44.8236833" lon="-0.5438367"><ele>3.9999999999999996</ele><time>2026-04-21T19:07:13.816Z</time></trkpt><trkpt lat="44.8237483" lon="-0.5439733"><ele>4.0</ele><time>2026-04-21T19:07:15.816Z</time></trkpt><trkpt lat="44.8237967" lon="-0.5441"><ele>3.9999999999999996</ele><time>2026-04-21T19:07:17.815Z</time></trkpt><trkpt lat="44.823845" lon="-0.5441833"><ele>4.0</ele><time>2026-04-21T19:07:19.816Z</time></trkpt><trkpt lat="44.823915" lon="-0.5442317"><ele>4.0</ele><time>2026-04-21T19:07:23.816Z</time></trkpt><trkpt lat="44.82399" lon="-0.5442367"><ele>4.0</ele><time>2026-04-21T19:07:26.816Z</time></trkpt><trkpt lat="44.8240567" lon="-0.544265"><ele>3.9999999999999996</ele><time>2026-04-21T19:07:29.816Z</time></trkpt><trkpt lat="44.8241167" lon="-0.5443433"><ele>4.0</ele><time>2026-04-21T19:07:32.815Z</time></trkpt><trkpt lat="44.8241633" lon="-0.5444383"><ele>4.0</ele><time>2026-04-21T19:07:35.815Z</time></trkpt><trkpt lat="44.8241867" lon="-0.544545"><ele>4.0</ele><time>2026-04-21T19:07:38.816Z</time></trkpt><trkpt lat="44.8242017" lon="-0.5446433"><ele>4.0</ele><time>2026-04-21T19:07:40.816Z</time></trkpt><trkpt lat="44.8242417" lon="-0.5447567"><ele>4.0</ele><time>2026-04-21T19:07:42.816Z</time></trkpt><trkpt lat="44.8243083" lon="-0.5448717"><ele>4.0</ele><time>2026-04-21T19:07:44.815Z</time></trkpt><trkpt lat="44.8243817" lon="-0.54498"><ele>4.0</ele><time>2026-04-21T19:07:46.816Z</time></trkpt><trkpt lat="44.8244683" lon="-0.5450917"><ele>4.0</ele><time>2026-04-21T19:07:48.816Z</time></trkpt><trkpt lat="44.8245567" lon="-0.5451983"><ele>4.0</ele><time>2026-04-21T19:07:50.816Z</time></trkpt><trkpt lat="44.82464" lon="-0.5453117"><ele>4.0</ele><time>2026-04-21T19:07:52.816Z</time></trkpt><trkpt lat="44.824715" lon="-0.54543"><ele>4.0</ele><time>2026-04-21T19:07:54.816Z</time></trkpt><trkpt lat="44.8247883" lon="-0.54554"><ele>4.0</ele><time>2026-04-21T19:07:56.816Z</time></trkpt><trkpt lat="44.8248633" lon="-0.5456583"><ele>4.0</ele><time>2026-04-21T19:07:58.816Z</time></trkpt><trkpt lat="44.82494" lon="-0.5457733"><ele>4.0</ele><time>2026-04-21T19:08:00.816Z</time></trkpt><trkpt lat="44.825015" lon="-0.5458967"><ele>4.0</ele><time>2026-04-21T19:08:02.815Z</time></trkpt><trkpt lat="44.8250867" lon="-0.5460333"><ele>4.0</ele><time>2026-04-21T19:08:04.816Z</time></trkpt><trkpt lat="44.8251583" lon="-0.5461683"><ele>4.0</ele><time>2026-04-21T19:08:06.816Z</time></trkpt><trkpt lat="44.8252317" lon="-0.5463067"><ele>4.0</ele><time>2026-04-21T19:08:08.816Z</time></trkpt><trkpt lat="44.8252917" lon="-0.546465"><ele>4.0</ele><time>2026-04-21T19:08:10.815Z</time></trkpt><trkpt lat="44.8253217" lon="-0.5465517"><ele>4.0</ele><time>2026-04-21T19:08:11.815Z</time></trkpt><trkpt lat="44.8253567" lon="-0.5466367"><ele>3.9999999999999996</ele><time>2026-04-21T19:08:12.815Z</time></trkpt><trkpt lat="44.8253867" lon="-0.5467233"><ele>4.0</ele><time>2026-04-21T19:08:13.816Z</time></trkpt><trkpt lat="44.8254183" lon="-0.54681"><ele>4.0</ele><time>2026-04-21T19:08:14.816Z</time></trkpt><trkpt lat="44.8254517" lon="-0.5468967"><ele>4.0</ele><time>2026-04-21T19:08:15.816Z</time></trkpt><trkpt lat="44.8254983" lon="-0.5469683"><ele>3.9999999999999996</ele><time>2026-04-21T19:08:16.816Z</time></trkpt><trkpt lat="44.8255617" lon="-0.5471117"><ele>4.0</ele><time>2026-04-21T19:08:18.816Z</time></trkpt><trkpt lat="44.82563" lon="-0.5472417"><ele>4.0</ele><time>2026-04-21T19:08:20.816Z</time></trkpt><trkpt lat="44.82569" lon="-0.5473767"><ele>4.0</ele><time>2026-04-21T19:08:22.816Z</time></trkpt><trkpt lat="44.825745" lon="-0.547525"><ele>4.0</ele><time>2026-04-21T19:08:24.816Z</time></trkpt><trkpt lat="44.825795" lon="-0.5476567"><ele>4.0</ele><time>2026-04-21T19:08:26.816Z</time></trkpt><trkpt lat="44.8258217" lon="-0.54774"><ele>4.0</ele><time>2026-04-21T19:08:27.816Z</time></trkpt><trkpt lat="44.82588" lon="-0.5478767"><ele>4.0</ele><time>2026-04-21T19:08:29.815Z</time></trkpt><trkpt lat="44.8259417" lon="-0.5480183"><ele>4.0</ele><time>2026-04-21T19:08:31.816Z</time></trkpt><trkpt lat="44.8259567" lon="-0.5481383"><ele>4.0</ele><time>2026-04-21T19:08:32.815Z</time></trkpt><trkpt lat="44.8259767" lon="-0.5482467"><ele>4.0</ele><time>2026-04-21T19:08:33.816Z</time></trkpt><trkpt lat="44.82601" lon="-0.5483433"><ele>4.0</ele><time>2026-04-21T19:08:34.815Z</time></trkpt><trkpt lat="44.8261033" lon="-0.5484333"><ele>4.0</ele><time>2026-04-21T19:08:36.816Z</time></trkpt><trkpt lat="44.8262017" lon="-0.5485467"><ele>4.0</ele><time>2026-04-21T19:08:38.816Z</time></trkpt><trkpt lat="44.8262417" lon="-0.5486217"><ele>4.0</ele><time>2026-04-21T19:08:39.816Z</time></trkpt><trkpt lat="44.8262767" lon="-0.5487017"><ele>4.0</ele><time>2026-04-21T19:08:40.816Z</time></trkpt><trkpt lat="44.8263517" lon="-0.5488417"><ele>4.0</ele><time>2026-04-21T19:08:42.816Z</time></trkpt><trkpt lat="44.8263917" lon="-0.548915"><ele>4.6</ele><time>2026-04-21T19:08:43.816Z</time></trkpt><trkpt lat="44.8264283" lon="-0.5489917"><ele>5.2</ele><time>2026-04-21T19:08:44.815Z</time></trkpt><trkpt lat="44.8265033" lon="-0.54913"><ele>5.799999999999999</ele><time>2026-04-21T19:08:46.815Z</time></trkpt><trkpt lat="44.82658" lon="-0.5492533"><ele>6.3999999999999995</ele><time>2026-04-21T19:08:48.816Z</time></trkpt><trkpt lat="44.82665" lon="-0.5493867"><ele>7.0</ele><time>2026-04-21T19:08:50.815Z</time></trkpt><trkpt lat="44.8267033" lon="-0.5495233"><ele>7.25</ele><time>2026-04-21T19:08:52.816Z</time></trkpt><trkpt lat="44.8267533" lon="-0.5496617"><ele>7.5</ele><time>2026-04-21T19:08:54.815Z</time></trkpt><trkpt lat="44.8268133" lon="-0.549815"><ele>7.75</ele><time>2026-04-21T19:08:56.816Z</time></trkpt><trkpt lat="44.8268667" lon="-0.5499567"><ele>8.0</ele><time>2026-04-21T19:08:58.816Z</time></trkpt><trkpt lat="44.826925" lon="-0.5500933"><ele>8.200000000000001</ele><time>2026-04-21T19:09:00.815Z</time></trkpt><trkpt lat="44.82699" lon="-0.5502217"><ele>8.4</ele><time>2026-04-21T19:09:02.816Z</time></trkpt><trkpt lat="44.8270617" lon="-0.550365"><ele>8.600000000000001</ele><time>2026-04-21T19:09:04.816Z</time></trkpt><trkpt lat="44.8271017" lon="-0.5504383"><ele>8.8</ele><time>2026-04-21T19:09:05.815Z</time></trkpt><trkpt lat="44.8271817" lon="-0.5505767"><ele>9.0</ele><time>2026-04-21T19:09:07.816Z</time></trkpt><trkpt lat="44.8272183" lon="-0.55065"><ele>9.0</ele><time>2026-04-21T19:09:08.816Z</time></trkpt><trkpt lat="44.8272867" lon="-0.5507783"><ele>9.0</ele><time>2026-04-21T19:09:10.816Z</time></trkpt><trkpt lat="44.827345" lon="-0.5509"><ele>9.0</ele><time>2026-04-21T19:09:12.816Z</time></trkpt><trkpt lat="44.8273983" lon="-0.5510233"><ele>9.0</ele><time>2026-04-21T19:09:14.815Z</time></trkpt><trkpt lat="44.8274533" lon="-0.5511367"><ele>9.0</ele><time>2026-04-21T19:09:16.816Z</time></trkpt><trkpt lat="44.82752" lon="-0.55125"><ele>8.8</ele><time>2026-04-21T19:09:18.816Z</time></trkpt><trkpt lat="44.8275983" lon="-0.551365"><ele>8.600000000000001</ele><time>2026-04-21T19:09:20.815Z</time></trkpt><trkpt lat="44.8276633" lon="-0.5514883"><ele>8.4</ele><time>2026-04-21T19:09:22.816Z</time></trkpt><trkpt lat="44.8277333" lon="-0.5516167"><ele>8.200000000000001</ele><time>2026-04-21T19:09:24.815Z</time></trkpt><trkpt lat="44.8277933" lon="-0.55174"><ele>8.0</ele><time>2026-04-21T19:09:26.816Z</time></trkpt><trkpt lat="44.8278583" lon="-0.5518583"><ele>7.5</ele><time>2026-04-21T19:09:28.816Z</time></trkpt><trkpt lat="44.827915" lon="-0.5519883"><ele>7.0</ele><time>2026-04-21T19:09:30.816Z</time></trkpt><trkpt lat="44.8279683" lon="-0.5521333"><ele>6.5</ele><time>2026-04-21T19:09:32.816Z</time></trkpt><trkpt lat="44.8280217" lon="-0.5522867"><ele>6.0</ele><time>2026-04-21T19:09:34.815Z</time></trkpt><trkpt lat="44.8280767" lon="-0.5524383"><ele>5.833333333333333</ele><time>2026-04-21T19:09:36.816Z</time></trkpt><trkpt lat="44.8281083" lon="-0.5525233"><ele>5.666666666666667</ele><time>2026-04-21T19:09:37.815Z</time></trkpt><trkpt lat="44.8281417" lon="-0.5526033"><ele>5.5</ele><time>2026-04-21T19:09:38.816Z</time></trkpt><trkpt lat="44.8281733" lon="-0.552685"><ele>5.333333333333334</ele><time>2026-04-21T19:09:39.816Z</time></trkpt><trkpt lat="44.8282117" lon="-0.5527617"><ele>5.166666666666667</ele><time>2026-04-21T19:09:40.815Z</time></trkpt><trkpt lat="44.8282883" lon="-0.5529"><ele>5.0</ele><time>2026-04-21T19:09:42.816Z</time></trkpt><trkpt lat="44.82834" lon="-0.552965"><ele>4.8</ele><time>2026-04-21T19:09:43.816Z</time></trkpt><trkpt lat="44.8283883" lon="-0.5530317"><ele>4.6</ele><time>2026-04-21T19:09:44.816Z</time></trkpt><trkpt lat="44.82844" lon="-0.5531017"><ele>4.4</ele><time>2026-04-21T19:09:45.816Z</time></trkpt><trkpt lat="44.8285083" lon="-0.5532333"><ele>4.2</ele><time>2026-04-21T19:09:47.815Z</time></trkpt><trkpt lat="44.828575" lon="-0.553375"><ele>4.0</ele><time>2026-04-21T19:09:49.816Z</time></trkpt><trkpt lat="44.8286267" lon="-0.5535117"><ele>4.0</ele><time>2026-04-21T19:09:51.816Z</time></trkpt><trkpt lat="44.8287033" lon="-0.5536217"><ele>4.0</ele><time>2026-04-21T19:09:53.816Z</time></trkpt><trkpt lat="44.8287833" lon="-0.5537383"><ele>4.0</ele><time>2026-04-21T19:09:55.816Z</time></trkpt><trkpt lat="44.82884" lon="-0.55386"><ele>4.0</ele><time>2026-04-21T19:09:57.816Z</time></trkpt><trkpt lat="44.8288983" lon="-0.553975"><ele>4.0</ele><time>2026-04-21T19:09:59.815Z</time></trkpt><trkpt lat="44.8289533" lon="-0.55406"><ele>3.9999999999999996</ele><time>2026-04-21T19:10:01.815Z</time></trkpt><trkpt lat="44.82896" lon="-0.554165"><ele>4.0</ele><time>2026-04-21T19:10:05.816Z</time></trkpt><trkpt lat="44.8289783" lon="-0.5542583"><ele>4.0</ele><time>2026-04-21T19:10:08.816Z</time></trkpt><trkpt lat="44.82901" lon="-0.5543683"><ele>4.0</ele><time>2026-04-21T19:10:11.816Z</time></trkpt><trkpt lat="44.8290517" lon="-0.5544367"><ele>3.9999999999999996</ele><time>2026-04-21T19:10:14.816Z</time></trkpt><trkpt lat="44.8291117" lon="-0.554535"><ele>4.0</ele><time>2026-04-21T19:10:17.815Z</time></trkpt><trkpt lat="44.8291717" lon="-0.5546467"><ele>4.333333333333333</ele><time>2026-04-21T19:10:19.816Z</time></trkpt><trkpt lat="44.8292083" lon="-0.55476"><ele>4.666666666666666</ele><time>2026-04-21T19:10:21.816Z</time></trkpt><trkpt lat="44.82925" lon="-0.5548717"><ele>5.0</ele><time>2026-04-21T19:10:24.816Z</time></trkpt><trkpt lat="44.8292933" lon="-0.55497"><ele>5.333333333333333</ele><time>2026-04-21T19:10:27.815Z</time></trkpt><trkpt lat="44.8293233" lon="-0.555055"><ele>5.666666666666667</ele><time>2026-04-21T19:10:30.815Z</time></trkpt><trkpt lat="44.8294083" lon="-0.5550717"><ele>6.0</ele><time>2026-04-21T19:10:34.815Z</time></trkpt><trkpt lat="44.8294717" lon="-0.5550133"><ele>5.999999999999999</ele><time>2026-04-21T19:10:36.815Z</time></trkpt><trkpt lat="44.8295217" lon="-0.5549533"><ele>6.0</ele><time>2026-04-21T19:10:38.816Z</time></trkpt><trkpt lat="44.82958" lon="-0.5548967"><ele>6.0</ele><time>2026-04-21T19:10:40.816Z</time></trkpt><trkpt lat="44.8296467" lon="-0.554825"><ele>6.0</ele><time>2026-04-21T19:10:42.815Z</time></trkpt><trkpt lat="44.8297017" lon="-0.554765"><ele>6.0</ele><time>2026-04-21T19:10:44.816Z</time></trkpt><trkpt lat="44.8297567" lon="-0.5546783"><ele>5.999999999999999</ele><time>2026-04-21T19:10:48.815Z</time></trkpt><trkpt lat="44.8297983" lon="-0.5546083"><ele>6.0</ele><time>2026-04-21T19:10:50.816Z</time></trkpt><trkpt lat="44.8298467" lon="-0.5545367"><ele>5.833333333333333</ele><time>2026-04-21T19:10:52.816Z</time></trkpt><trkpt lat="44.8299167" lon="-0.5544867"><ele>5.666666666666667</ele><time>2026-04-21T19:10:55.816Z</time></trkpt><trkpt lat="44.8299933" lon="-0.554465"><ele>5.5</ele><time>2026-04-21T19:10:59.816Z</time></trkpt><trkpt lat="44.8300233" lon="-0.5543667"><ele>5.333333333333334</ele><time>2026-04-21T19:11:02.815Z</time></trkpt><trkpt lat="44.8300033" lon="-0.554275"><ele>5.166666666666667</ele><time>2026-04-21T19:11:04.816Z</time></trkpt><trkpt lat="44.8299783" lon="-0.5541617"><ele>5.0</ele><time>2026-04-21T19:11:06.816Z</time></trkpt><trkpt lat="44.8299417" lon="-0.55405"><ele>5.0</ele><time>2026-04-21T19:11:08.816Z</time></trkpt><trkpt lat="44.8299183" lon="-0.55395"><ele>5.0</ele><time>2026-04-21T19:11:10.816Z</time></trkpt><trkpt lat="44.8299333" lon="-0.55385"><ele>5.0</ele><time>2026-04-21T19:11:12.816Z</time></trkpt><trkpt lat="44.829985" lon="-0.5537367"><ele>5.0</ele><time>2026-04-21T19:12:10.816Z</time></trkpt><trkpt lat="44.83007" lon="-0.5536533"><ele>5.0</ele><time>2026-04-21T19:12:20.816Z</time></trkpt><trkpt lat="44.8301567" lon="-0.55366"><ele>5.0</ele><time>2026-04-21T19:12:23.816Z</time></trkpt><trkpt lat="44.8302117" lon="-0.5537217"><ele>4.166666666666667</ele><time>2026-04-21T19:12:25.816Z</time></trkpt><trkpt lat="44.830255" lon="-0.5537917"><ele>3.3333333333333335</ele><time>2026-04-21T19:12:27.816Z</time></trkpt><trkpt lat="44.830315" lon="-0.5538633"><ele>2.5</ele><time>2026-04-21T19:12:30.816Z</time></trkpt><trkpt lat="44.8303617" lon="-0.5539533"><ele>1.6666666666666667</ele><time>2026-04-21T19:12:32.815Z</time></trkpt><trkpt lat="44.8304233" lon="-0.554055"><ele>0.8333333333333334</ele><time>2026-04-21T19:12:34.816Z</time></trkpt><trkpt lat="44.830475" lon="-0.55416"><ele>0.0</ele><time>2026-04-21T19:12:36.816Z</time></trkpt><trkpt lat="44.8305267" lon="-0.55427"><ele>0.0</ele><time>2026-04-21T19:12:38.815Z</time></trkpt><trkpt lat="44.830585" lon="-0.5543783"><ele>0.0</ele><time>2026-04-21T19:12:40.815Z</time></trkpt><trkpt lat="44.8306467" lon="-0.5544917"><ele>0.0</ele><time>2026-04-21T19:12:42.815Z</time></trkpt><trkpt lat="44.830705" lon="-0.5546133"><ele>0.0</ele><time>2026-04-21T19:12:44.815Z</time></trkpt><trkpt lat="44.830765" lon="-0.55473"><ele>0.0</ele><time>2026-04-21T19:12:46.816Z</time></trkpt><trkpt lat="44.8308217" lon="-0.5548483"><ele>0.0</ele><time>2026-04-21T19:12:48.816Z</time></trkpt><trkpt lat="44.8308717" lon="-0.5549583"><ele>0.0</ele><time>2026-04-21T19:12:50.815Z</time></trkpt><trkpt lat="44.8309217" lon="-0.5550617"><ele>0.0</ele><time>2026-04-21T19:12:52.816Z</time></trkpt><trkpt lat="44.8309633" lon="-0.55518"><ele>0.0</ele><time>2026-04-21T19:12:54.816Z</time></trkpt><trkpt lat="44.8310183" lon="-0.555315"><ele>0.0</ele><time>2026-04-21T19:12:56.816Z</time></trkpt><trkpt lat="44.831085" lon="-0.555445"><ele>0.16666666666666666</ele><time>2026-04-21T19:12:58.815Z</time></trkpt><trkpt lat="44.831115" lon="-0.5555267"><ele>0.3333333333333333</ele><time>2026-04-21T19:12:59.816Z</time></trkpt><trkpt lat="44.83115" lon="-0.5556033"><ele>0.5</ele><time>2026-04-21T19:13:00.816Z</time></trkpt><trkpt lat="44.831215" lon="-0.5557367"><ele>0.6666666666666666</ele><time>2026-04-21T19:13:02.816Z</time></trkpt><trkpt lat="44.8312833" lon="-0.55587"><ele>0.8333333333333333</ele><time>2026-04-21T19:13:04.816Z</time></trkpt><trkpt lat="44.8313167" lon="-0.5559483"><ele>1.0</ele><time>2026-04-21T19:13:05.815Z</time></trkpt><trkpt lat="44.8313517" lon="-0.556025"><ele>1.0</ele><time>2026-04-21T19:13:06.816Z</time></trkpt><trkpt lat="44.8314083" lon="-0.5561833"><ele>1.0</ele><time>2026-04-21T19:13:08.815Z</time></trkpt><trkpt lat="44.8314433" lon="-0.5562583"><ele>1.0</ele><time>2026-04-21T19:13:09.816Z</time></trkpt><trkpt lat="44.831475" lon="-0.5563367"><ele>1.0</ele><time>2026-04-21T19:13:10.816Z</time></trkpt><trkpt lat="44.83154" lon="-0.5564567"><ele>1.0</ele><time>2026-04-21T19:13:12.815Z</time></trkpt><trkpt lat="44.8315967" lon="-0.5566"><ele>1.25</ele><time>2026-04-21T19:13:14.816Z</time></trkpt><trkpt lat="44.8316533" lon="-0.5567333"><ele>1.5</ele><time>2026-04-21T19:13:16.815Z</time></trkpt><trkpt lat="44.8317117" lon="-0.556875"><ele>1.75</ele><time>2026-04-21T19:13:18.815Z</time></trkpt><trkpt lat="44.8317733" lon="-0.55701"><ele>2.0</ele><time>2026-04-21T19:13:20.815Z</time></trkpt><trkpt lat="44.831835" lon="-0.55715"><ele>2.0</ele><time>2026-04-21T19:13:22.814Z</time></trkpt><trkpt lat="44.83189" lon="-0.557285"><ele>2.0</ele><time>2026-04-21T19:13:24.814Z</time></trkpt><trkpt lat="44.8319333" lon="-0.5574317"><ele>2.0</ele><time>2026-04-21T19:13:26.815Z</time></trkpt><trkpt lat="44.8319767" lon="-0.5575683"><ele>2.0</ele><time>2026-04-21T19:13:28.815Z</time></trkpt><trkpt lat="44.8319917" lon="-0.5576967"><ele>2.0</ele><time>2026-04-21T19:13:30.815Z</time></trkpt><trkpt lat="44.8319933" lon="-0.557835"><ele>2.0</ele><time>2026-04-21T19:13:32.815Z</time></trkpt><trkpt lat="44.831975" lon="-0.55798"><ele>2.0</ele><time>2026-04-21T19:13:34.815Z</time></trkpt><trkpt lat="44.8319383" lon="-0.5581267"><ele>2.0</ele><time>2026-04-21T19:13:36.814Z</time></trkpt><trkpt lat="44.8319067" lon="-0.558295"><ele>2.0</ele><time>2026-04-21T19:13:38.815Z</time></trkpt><trkpt lat="44.8318933" lon="-0.5583833"><ele>2.0</ele><time>2026-04-21T19:13:39.814Z</time></trkpt><trkpt lat="44.831865" lon="-0.5585383"><ele>2.2</ele><time>2026-04-21T19:13:41.815Z</time></trkpt><trkpt lat="44.83185" lon="-0.5587117"><ele>2.4000000000000004</ele><time>2026-04-21T19:13:43.815Z</time></trkpt><trkpt lat="44.83187" lon="-0.5588367"><ele>2.5999999999999996</ele><time>2026-04-21T19:13:45.815Z</time></trkpt><trkpt lat="44.8319417" lon="-0.558945"><ele>2.8</ele><time>2026-04-21T19:13:57.815Z</time></trkpt><trkpt lat="44.831985" lon="-0.55903"><ele>3.0</ele><time>2026-04-21T19:14:00.815Z</time></trkpt><trkpt lat="44.832035" lon="-0.55913"><ele>3.0</ele><time>2026-04-21T19:14:03.814Z</time></trkpt><trkpt lat="44.8320833" lon="-0.5592133"><ele>3.0</ele><time>2026-04-21T19:14:05.815Z</time></trkpt><trkpt lat="44.8321333" lon="-0.5593117"><ele>3.0</ele><time>2026-04-21T19:14:07.815Z</time></trkpt><trkpt lat="44.8321933" lon="-0.5594133"><ele>3.0</ele><time>2026-04-21T19:14:09.815Z</time></trkpt><trkpt lat="44.83225" lon="-0.5595233"><ele>3.0</ele><time>2026-04-21T19:14:11.815Z</time></trkpt><trkpt lat="44.8323167" lon="-0.559645"><ele>3.2</ele><time>2026-04-21T19:14:13.815Z</time></trkpt><trkpt lat="44.83239" lon="-0.5597567"><ele>3.4</ele><time>2026-04-21T19:14:15.815Z</time></trkpt><trkpt lat="44.8324567" lon="-0.5598733"><ele>3.6000000000000005</ele><time>2026-04-21T19:14:17.815Z</time></trkpt><trkpt lat="44.8325317" lon="-0.55999"><ele>3.8000000000000003</ele><time>2026-04-21T19:14:19.814Z</time></trkpt><trkpt lat="44.8326067" lon="-0.5601117"><ele>4.0</ele><time>2026-04-21T19:14:21.815Z</time></trkpt><trkpt lat="44.832685" lon="-0.560235"><ele>4.0</ele><time>2026-04-21T19:14:23.815Z</time></trkpt><trkpt lat="44.83276" lon="-0.5603617"><ele>4.0</ele><time>2026-04-21T19:14:25.815Z</time></trkpt><trkpt lat="44.8328383" lon="-0.5605017"><ele>4.0</ele><time>2026-04-21T19:14:27.815Z</time></trkpt><trkpt lat="44.8329167" lon="-0.5606267"><ele>4.0</ele><time>2026-04-21T19:14:29.815Z</time></trkpt><trkpt lat="44.833" lon="-0.56075"><ele>4.0</ele><time>2026-04-21T19:14:31.815Z</time></trkpt><trkpt lat="44.8330817" lon="-0.5608817"><ele>4.0</ele><time>2026-04-21T19:14:33.815Z</time></trkpt><trkpt lat="44.833155" lon="-0.5610083"><ele>4.0</ele><time>2026-04-21T19:14:35.815Z</time></trkpt><trkpt lat="44.8332517" lon="-0.5611283"><ele>4.0</ele><time>2026-04-21T19:14:37.815Z</time></trkpt><trkpt lat="44.833295" lon="-0.561195"><ele>4.0</ele><time>2026-04-21T19:14:38.815Z</time></trkpt><trkpt lat="44.8333817" lon="-0.5613183"><ele>4.2</ele><time>2026-04-21T19:14:40.815Z</time></trkpt><trkpt lat="44.8334267" lon="-0.561385"><ele>4.4</ele><time>2026-04-21T19:14:41.815Z</time></trkpt><trkpt lat="44.8335133" lon="-0.5615117"><ele>4.6</ele><time>2026-04-21T19:14:43.815Z</time></trkpt><trkpt lat="44.8335567" lon="-0.5615783"><ele>4.8</ele><time>2026-04-21T19:14:44.814Z</time></trkpt><trkpt lat="44.833635" lon="-0.561705"><ele>5.0</ele><time>2026-04-21T19:14:46.815Z</time></trkpt><trkpt lat="44.8337217" lon="-0.5618217"><ele>4.857142857142857</ele><time>2026-04-21T19:14:48.815Z</time></trkpt><trkpt lat="44.8337667" lon="-0.56189"><ele>4.714285714285714</ele><time>2026-04-21T19:14:49.814Z</time></trkpt><trkpt lat="44.8338133" lon="-0.5619533"><ele>4.571428571428571</ele><time>2026-04-21T19:14:50.815Z</time></trkpt><trkpt lat="44.83386" lon="-0.5620167"><ele>4.428571428571429</ele><time>2026-04-21T19:14:51.815Z</time></trkpt><trkpt lat="44.83391" lon="-0.5620783"><ele>4.285714285714286</ele><time>2026-04-21T19:14:52.815Z</time></trkpt><trkpt lat="44.8339583" lon="-0.5621367"><ele>4.142857142857142</ele><time>2026-04-21T19:14:53.814Z</time></trkpt><trkpt lat="44.8340017" lon="-0.5622017"><ele>4.0</ele><time>2026-04-21T19:14:54.814Z</time></trkpt><trkpt lat="44.8340517" lon="-0.5622717"><ele>4.0</ele><time>2026-04-21T19:14:55.814Z</time></trkpt><trkpt lat="44.8341033" lon="-0.5623367"><ele>4.0</ele><time>2026-04-21T19:14:56.815Z</time></trkpt><trkpt lat="44.834195" lon="-0.56245"><ele>4.0</ele><time>2026-04-21T19:14:58.815Z</time></trkpt><trkpt lat="44.834295" lon="-0.562565"><ele>4.0</ele><time>2026-04-21T19:15:00.815Z</time></trkpt><trkpt lat="44.8343817" lon="-0.562675"><ele>4.0</ele><time>2026-04-21T19:15:02.815Z</time></trkpt><trkpt lat="44.834465" lon="-0.5627783"><ele>3.5</ele><time>2026-04-21T19:15:04.815Z</time></trkpt><trkpt lat="44.83456" lon="-0.5628767"><ele>3.0</ele><time>2026-04-21T19:15:06.815Z</time></trkpt><trkpt lat="44.8346517" lon="-0.5629817"><ele>2.5</ele><time>2026-04-21T19:15:08.815Z</time></trkpt><trkpt lat="44.834745" lon="-0.5630767"><ele>2.0</ele><time>2026-04-21T19:15:10.815Z</time></trkpt><trkpt lat="44.8348417" lon="-0.5631683"><ele>2.0</ele><time>2026-04-21T19:15:12.815Z</time></trkpt><trkpt lat="44.8349383" lon="-0.56326"><ele>2.0</ele><time>2026-04-21T19:15:14.815Z</time></trkpt><trkpt lat="44.83503" lon="-0.5633533"><ele>2.0</ele><time>2026-04-21T19:15:16.815Z</time></trkpt><trkpt lat="44.83513" lon="-0.5634467"><ele>2.0</ele><time>2026-04-21T19:15:18.814Z</time></trkpt><trkpt lat="44.8352283" lon="-0.5635317"><ele>2.0</ele><time>2026-04-21T19:15:20.815Z</time></trkpt><trkpt lat="44.8353267" lon="-0.56362"><ele>2.0</ele><time>2026-04-21T19:15:22.814Z</time></trkpt><trkpt lat="44.835385" lon="-0.5636617"><ele>2.0</ele><time>2026-04-21T19:15:23.815Z</time></trkpt><trkpt lat="44.83549" lon="-0.56375"><ele>2.0</ele><time>2026-04-21T19:15:25.815Z</time></trkpt><trkpt lat="44.8356" lon="-0.5638267"><ele>2.0</ele><time>2026-04-21T19:15:27.815Z</time></trkpt><trkpt lat="44.8357" lon="-0.563905"><ele>2.0</ele><time>2026-04-21T19:15:29.815Z</time></trkpt><trkpt lat="44.8358" lon="-0.563985"><ele>2.0</ele><time>2026-04-21T19:15:31.815Z</time></trkpt><trkpt lat="44.8358933" lon="-0.5640667"><ele>2.0</ele><time>2026-04-21T19:15:33.814Z</time></trkpt><trkpt lat="44.835985" lon="-0.5641633"><ele>2.0</ele><time>2026-04-21T19:15:35.815Z</time></trkpt><trkpt lat="44.8360767" lon="-0.5642617"><ele>1.8</ele><time>2026-04-21T19:15:37.815Z</time></trkpt><trkpt lat="44.8361633" lon="-0.5643667"><ele>1.6</ele><time>2026-04-21T19:15:39.815Z</time></trkpt><trkpt lat="44.836245" lon="-0.5644617"><ele>1.4000000000000001</ele><time>2026-04-21T19:15:41.815Z</time></trkpt><trkpt lat="44.836325" lon="-0.5645617"><ele>1.2000000000000002</ele><time>2026-04-21T19:15:43.815Z</time></trkpt><trkpt lat="44.8364033" lon="-0.5646483"><ele>1.0</ele><time>2026-04-21T19:15:45.814Z</time></trkpt><trkpt lat="44.83648" lon="-0.5647433"><ele>0.8333333333333333</ele><time>2026-04-21T19:15:47.815Z</time></trkpt><trkpt lat="44.8365533" lon="-0.564835"><ele>0.6666666666666666</ele><time>2026-04-21T19:15:49.814Z</time></trkpt><trkpt lat="44.8366283" lon="-0.5649267"><ele>0.5</ele><time>2026-04-21T19:15:51.815Z</time></trkpt><trkpt lat="44.8366917" lon="-0.565005"><ele>0.3333333333333333</ele><time>2026-04-21T19:15:53.815Z</time></trkpt><trkpt lat="44.836745" lon="-0.5650717"><ele>0.16666666666666666</ele><time>2026-04-21T19:15:55.815Z</time></trkpt><trkpt lat="44.8368017" lon="-0.5651267"><ele>0.0</ele><time>2026-04-21T19:15:57.814Z</time></trkpt><trkpt lat="44.8368533" lon="-0.56519"><ele>0.0</ele><time>2026-04-21T19:15:59.815Z</time></trkpt><trkpt lat="44.8369067" lon="-0.5652583"><ele>0.0</ele><time>2026-04-21T19:16:01.814Z</time></trkpt><trkpt lat="44.836955" lon="-0.565325"><ele>0.0</ele><time>2026-04-21T19:16:03.815Z</time></trkpt><trkpt lat="44.83698" lon="-0.5654133"><ele>0.0</ele><time>2026-04-21T19:16:05.814Z</time></trkpt><trkpt lat="44.8369583" lon="-0.5655083"><ele>0.0</ele><time>2026-04-21T19:16:07.814Z</time></trkpt><trkpt lat="44.836915" lon="-0.5656133"><ele>0.0</ele><time>2026-04-21T19:16:09.814Z</time></trkpt><trkpt lat="44.8368467" lon="-0.5657183"><ele>1.6666666666666667</ele><time>2026-04-21T19:16:11.815Z</time></trkpt><trkpt lat="44.83677" lon="-0.5658267"><ele>3.3333333333333335</ele><time>2026-04-21T19:16:13.815Z</time></trkpt><trkpt lat="44.8367033" lon="-0.5659233"><ele>5.0</ele><time>2026-04-21T19:16:15.815Z</time></trkpt><trkpt lat="44.836645" lon="-0.5660067"><ele>6.666666666666667</ele><time>2026-04-21T19:16:17.815Z</time></trkpt><trkpt lat="44.8365983" lon="-0.5660933"><ele>8.333333333333334</ele><time>2026-04-21T19:16:19.815Z</time></trkpt><trkpt lat="44.83655" lon="-0.5661867"><ele>10.0</ele><time>2026-04-21T19:16:21.815Z</time></trkpt><trkpt lat="44.8364833" lon="-0.5662933"><ele>10.833333333333334</ele><time>2026-04-21T19:16:23.815Z</time></trkpt><trkpt lat="44.836415" lon="-0.5664367"><ele>11.666666666666668</ele><time>2026-04-21T19:16:25.815Z</time></trkpt><trkpt lat="44.8363767" lon="-0.5665283"><ele>12.5</ele><time>2026-04-21T19:16:26.814Z</time></trkpt><trkpt lat="44.836325" lon="-0.5666117"><ele>13.333333333333334</ele><time>2026-04-21T19:16:27.815Z</time></trkpt><trkpt lat="44.836275" lon="-0.5666967"><ele>14.166666666666666</ele><time>2026-04-21T19:16:28.815Z</time></trkpt><trkpt lat="44.8362067" lon="-0.5667583"><ele>15.0</ele><time>2026-04-21T19:16:29.815Z</time></trkpt><trkpt lat="44.8361367" lon="-0.5668683"><ele>15.0</ele><time>2026-04-21T19:16:30.815Z</time></trkpt><trkpt lat="44.83608" lon="-0.5669417"><ele>15.0</ele><time>2026-04-21T19:16:31.815Z</time></trkpt><trkpt lat="44.836035" lon="-0.567025"><ele>15.0</ele><time>2026-04-21T19:16:32.815Z</time></trkpt><trkpt lat="44.8359917" lon="-0.567115"><ele>15.0</ele><time>2026-04-21T19:16:33.814Z</time></trkpt><trkpt lat="44.8359567" lon="-0.5672"><ele>15.0</ele><time>2026-04-21T19:16:34.815Z</time></trkpt><trkpt lat="44.83593" lon="-0.5672867"><ele>15.0</ele><time>2026-04-21T19:16:35.815Z</time></trkpt><trkpt lat="44.83589" lon="-0.5674483"><ele>15.8</ele><time>2026-04-21T19:16:37.815Z</time></trkpt><trkpt lat="44.8358533" lon="-0.5676033"><ele>16.6</ele><time>2026-04-21T19:16:39.815Z</time></trkpt><trkpt lat="44.8358183" lon="-0.5677617"><ele>17.4</ele><time>2026-04-21T19:16:41.815Z</time></trkpt><trkpt lat="44.8357983" lon="-0.56794"><ele>18.2</ele><time>2026-04-21T19:16:43.815Z</time></trkpt><trkpt lat="44.8357817" lon="-0.5680417"><ele>19.0</ele><time>2026-04-21T19:16:44.815Z</time></trkpt><trkpt lat="44.835765" lon="-0.56815"><ele>19.666666666666664</ele><time>2026-04-21T19:16:45.815Z</time></trkpt><trkpt lat="44.8357433" lon="-0.5682583"><ele>20.333333333333332</ele><time>2026-04-21T19:16:46.815Z</time></trkpt><trkpt lat="44.835715" lon="-0.5683617"><ele>21.0</ele><time>2026-04-21T19:16:47.815Z</time></trkpt><trkpt lat="44.835685" lon="-0.5684617"><ele>21.666666666666668</ele><time>2026-04-21T19:16:48.815Z</time></trkpt><trkpt lat="44.835655" lon="-0.5685633"><ele>22.333333333333336</ele><time>2026-04-21T19:16:49.815Z</time></trkpt><trkpt lat="44.83563" lon="-0.5686617"><ele>23.0</ele><time>2026-04-21T19:16:50.815Z</time></trkpt><trkpt lat="44.8356017" lon="-0.5687633"><ele>23.166666666666668</ele><time>2026-04-21T19:16:51.815Z</time></trkpt><trkpt lat="44.8355817" lon="-0.568865"><ele>23.333333333333336</ele><time>2026-04-21T19:16:52.815Z</time></trkpt><trkpt lat="44.8355617" lon="-0.56897"><ele>23.5</ele><time>2026-04-21T19:16:53.815Z</time></trkpt><trkpt lat="44.8355417" lon="-0.569075"><ele>23.666666666666668</ele><time>2026-04-21T19:16:54.815Z</time></trkpt><trkpt lat="44.8355167" lon="-0.5691767"><ele>23.833333333333332</ele><time>2026-04-21T19:16:55.815Z</time></trkpt><trkpt lat="44.8354983" lon="-0.5692783"><ele>24.0</ele><time>2026-04-21T19:16:56.815Z</time></trkpt><trkpt lat="44.83548" lon="-0.56938"><ele>24.0</ele><time>2026-04-21T19:16:57.815Z</time></trkpt><trkpt lat="44.8354517" lon="-0.5694783"><ele>24.0</ele><time>2026-04-21T19:16:58.815Z</time></trkpt><trkpt lat="44.835425" lon="-0.5695783"><ele>24.0</ele><time>2026-04-21T19:16:59.815Z</time></trkpt><trkpt lat="44.8354017" lon="-0.569685"><ele>24.0</ele><time>2026-04-21T19:17:00.815Z</time></trkpt><trkpt lat="44.8353733" lon="-0.56979"><ele>24.0</ele><time>2026-04-21T19:17:01.815Z</time></trkpt><trkpt lat="44.835345" lon="-0.5698917"><ele>24.0</ele><time>2026-04-21T19:17:02.814Z</time></trkpt><trkpt lat="44.83532" lon="-0.5699933"><ele>23.71428571428571</ele><time>2026-04-21T19:17:03.815Z</time></trkpt><trkpt lat="44.8352967" lon="-0.5700967"><ele>23.428571428571427</ele><time>2026-04-21T19:17:04.814Z</time></trkpt><trkpt lat="44.8352733" lon="-0.5701933"><ele>23.142857142857142</ele><time>2026-04-21T19:17:05.815Z</time></trkpt><trkpt lat="44.8352467" lon="-0.57029"><ele>22.857142857142854</ele><time>2026-04-21T19:17:06.815Z</time></trkpt><trkpt lat="44.8352133" lon="-0.570375"><ele>22.57142857142857</ele><time>2026-04-21T19:17:07.815Z</time></trkpt><trkpt lat="44.8351833" lon="-0.5704617"><ele>22.285714285714285</ele><time>2026-04-21T19:17:08.815Z</time></trkpt><trkpt lat="44.835165" lon="-0.5705467"><ele>22.0</ele><time>2026-04-21T19:17:09.814Z</time></trkpt><trkpt lat="44.83514" lon="-0.570705"><ele>21.833333333333332</ele><time>2026-04-21T19:17:11.815Z</time></trkpt><trkpt lat="44.8351217" lon="-0.5708483"><ele>21.666666666666664</ele><time>2026-04-21T19:17:13.815Z</time></trkpt><trkpt lat="44.8351033" lon="-0.570975"><ele>21.5</ele><time>2026-04-21T19:17:15.814Z</time></trkpt><trkpt lat="44.8351017" lon="-0.5710783"><ele>21.333333333333332</ele><time>2026-04-21T19:17:17.815Z</time></trkpt><trkpt lat="44.8350933" lon="-0.5711767"><ele>21.166666666666668</ele><time>2026-04-21T19:17:19.815Z</time></trkpt><trkpt lat="44.8350967" lon="-0.5712767"><ele>21.0</ele><time>2026-04-21T19:17:21.815Z</time></trkpt><trkpt lat="44.8351017" lon="-0.5714167"><ele>20.400000000000002</ele><time>2026-04-21T19:17:23.814Z</time></trkpt><trkpt lat="44.8351083" lon="-0.5715683"><ele>19.8</ele><time>2026-04-21T19:17:25.815Z</time></trkpt><trkpt lat="44.8351183" lon="-0.5717083"><ele>19.200000000000003</ele><time>2026-04-21T19:17:27.815Z</time></trkpt><trkpt lat="44.8351217" lon="-0.5718567"><ele>18.6</ele><time>2026-04-21T19:17:29.814Z</time></trkpt><trkpt lat="44.8351167" lon="-0.5720133"><ele>18.0</ele><time>2026-04-21T19:17:31.814Z</time></trkpt><trkpt lat="44.8351133" lon="-0.5721667"><ele>17.8</ele><time>2026-04-21T19:17:33.814Z</time></trkpt><trkpt lat="44.8350933" lon="-0.5722983"><ele>17.6</ele><time>2026-04-21T19:17:35.815Z</time></trkpt><trkpt lat="44.83507" lon="-0.5724167"><ele>17.4</ele><time>2026-04-21T19:17:37.814Z</time></trkpt><trkpt lat="44.8350517" lon="-0.57254"><ele>17.2</ele><time>2026-04-21T19:17:39.815Z</time></trkpt><trkpt lat="44.8350367" lon="-0.57267"><ele>17.0</ele><time>2026-04-21T19:17:41.815Z</time></trkpt><trkpt lat="44.8350067" lon="-0.5728033"><ele>17.0</ele><time>2026-04-21T19:17:43.815Z</time></trkpt><trkpt lat="44.8349767" lon="-0.5729367"><ele>17.0</ele><time>2026-04-21T19:17:45.815Z</time></trkpt><trkpt lat="44.8349617" lon="-0.5730767"><ele>17.0</ele><time>2026-04-21T19:17:47.815Z</time></trkpt><trkpt lat="44.8349533" lon="-0.5732067"><ele>17.0</ele><time>2026-04-21T19:17:49.815Z</time></trkpt><trkpt lat="44.8349433" lon="-0.5733083"><ele>17.0</ele><time>2026-04-21T19:17:51.815Z</time></trkpt><trkpt lat="44.8348717" lon="-0.5733617"><ele>17.0</ele><time>2026-04-21T19:17:54.815Z</time></trkpt><trkpt lat="44.8347933" lon="-0.5733283"><ele>17.0</ele><time>2026-04-21T19:17:57.815Z</time></trkpt><trkpt lat="44.8347067" lon="-0.5733117"><ele>17.0</ele><time>2026-04-21T19:18:00.814Z</time></trkpt><trkpt lat="44.8346383" lon="-0.5732817"><ele>17.0</ele><time>2026-04-21T19:18:03.815Z</time></trkpt><trkpt lat="44.8345583" lon="-0.5732717"><ele>17.0</ele><time>2026-04-21T19:18:06.815Z</time></trkpt><trkpt lat="44.8344883" lon="-0.5733"><ele>17.0</ele><time>2026-04-21T19:18:08.815Z</time></trkpt><trkpt lat="44.834405" lon="-0.57331"><ele>17.0</ele><time>2026-04-21T19:18:10.815Z</time></trkpt><trkpt lat="44.8343183" lon="-0.5732983"><ele>17.0</ele><time>2026-04-21T19:18:13.815Z</time></trkpt><trkpt lat="44.8342317" lon="-0.57314"><ele>17.0</ele><time>2026-04-21T19:18:36.814Z</time></trkpt><trkpt lat="44.83425" lon="-0.5730233"><ele>17.0</ele><time>2026-04-21T19:18:40.814Z</time></trkpt><trkpt lat="44.834305" lon="-0.5728533"><ele>17.0</ele><time>2026-04-21T19:18:45.815Z</time></trkpt><trkpt lat="44.8343183" lon="-0.5727567"><ele>17.0</ele><time>2026-04-21T19:18:48.815Z</time></trkpt><trkpt lat="44.8342517" lon="-0.5725783"><ele>20.0</ele><time>2026-04-21T19:19:04.815Z</time></trkpt></trkseg></trk></gpx>